<?xml version="1.0" encoding="UTF-8" standalone="no" ?>
<gpx xmlns="http://www.topografix.com/GPX/1/1" creator="www.cicloide.com" version="1.1" xmlns:xsi="http://www.w3.org/2001/XMLSchema-instance" xsi:schemaLocation="http://www.topografix.com/GPX/1/1 http://www.topografix.com/GPX/1/1/gpx.xsd">
  <trk>
    <name>www.cicloide.com 341137</name>
    <desc>www.cicloide.com 341137</desc>
    <trkseg>
      <trkpt lat="42.458983000" lon="-2.464858000">
        <ele>399.40</ele>
        <time>2016-10-15T05:02:02Z</time>
      </trkpt>
      <trkpt lat="42.458723000" lon="-2.464218000">
        <ele>399.40</ele>
        <time>2016-10-15T05:02:43Z</time>
      </trkpt>
      <trkpt lat="42.458701000" lon="-2.464282000">
        <ele>399.40</ele>
        <time>2016-10-15T05:02:48Z</time>
      </trkpt>
      <trkpt lat="42.458696000" lon="-2.464295000">
        <ele>399.40</ele>
        <time>2016-10-15T05:02:49Z</time>
      </trkpt>
      <trkpt lat="42.458693000" lon="-2.464309000">
        <ele>399.40</ele>
        <time>2016-10-15T05:02:50Z</time>
      </trkpt>
      <trkpt lat="42.458693000" lon="-2.464317000">
        <ele>399.40</ele>
        <time>2016-10-15T05:02:51Z</time>
      </trkpt>
      <trkpt lat="42.458691000" lon="-2.464317000">
        <ele>399.40</ele>
        <time>2016-10-15T05:02:52Z</time>
      </trkpt>
      <trkpt lat="42.458688000" lon="-2.464316000">
        <ele>399.40</ele>
        <time>2016-10-15T05:02:53Z</time>
      </trkpt>
      <trkpt lat="42.458683000" lon="-2.464319000">
        <ele>399.40</ele>
        <time>2016-10-15T05:02:54Z</time>
      </trkpt>
      <trkpt lat="42.458684000" lon="-2.464332000">
        <ele>399.40</ele>
        <time>2016-10-15T05:02:55Z</time>
      </trkpt>
      <trkpt lat="42.458723000" lon="-2.464428000">
        <ele>399.40</ele>
        <time>2016-10-15T05:02:56Z</time>
      </trkpt>
      <trkpt lat="42.458751000" lon="-2.464490000">
        <ele>399.40</ele>
        <time>2016-10-15T05:02:57Z</time>
      </trkpt>
      <trkpt lat="42.458778000" lon="-2.464545000">
        <ele>399.40</ele>
        <time>2016-10-15T05:02:58Z</time>
      </trkpt>
      <trkpt lat="42.458803000" lon="-2.464593000">
        <ele>399.40</ele>
        <time>2016-10-15T05:02:59Z</time>
      </trkpt>
      <trkpt lat="42.458830000" lon="-2.464640000">
        <ele>399.40</ele>
        <time>2016-10-15T05:03:00Z</time>
      </trkpt>
      <trkpt lat="42.458854000" lon="-2.464681000">
        <ele>399.40</ele>
        <time>2016-10-15T05:03:01Z</time>
      </trkpt>
      <trkpt lat="42.458908000" lon="-2.465114000">
        <ele>399.40</ele>
        <time>2016-10-15T05:03:06Z</time>
      </trkpt>
      <trkpt lat="42.458837000" lon="-2.465148000">
        <ele>399.40</ele>
        <time>2016-10-15T05:03:11Z</time>
      </trkpt>
      <trkpt lat="42.458833000" lon="-2.465148000">
        <ele>399.40</ele>
        <time>2016-10-15T05:03:12Z</time>
      </trkpt>
      <trkpt lat="42.458838000" lon="-2.465150000">
        <ele>399.40</ele>
        <time>2016-10-15T05:03:13Z</time>
      </trkpt>
      <trkpt lat="42.458843000" lon="-2.465154000">
        <ele>399.40</ele>
        <time>2016-10-15T05:03:14Z</time>
      </trkpt>
      <trkpt lat="42.458851000" lon="-2.465157000">
        <ele>399.40</ele>
        <time>2016-10-15T05:03:15Z</time>
      </trkpt>
      <trkpt lat="42.458860000" lon="-2.465159000">
        <ele>399.40</ele>
        <time>2016-10-15T05:03:16Z</time>
      </trkpt>
      <trkpt lat="42.458866000" lon="-2.465159000">
        <ele>399.40</ele>
        <time>2016-10-15T05:03:17Z</time>
      </trkpt>
      <trkpt lat="42.458869000" lon="-2.465160000">
        <ele>399.40</ele>
        <time>2016-10-15T05:03:18Z</time>
      </trkpt>
      <trkpt lat="42.458870000" lon="-2.465159000">
        <ele>399.40</ele>
        <time>2016-10-15T05:03:19Z</time>
      </trkpt>
      <trkpt lat="42.458869000" lon="-2.465156000">
        <ele>399.40</ele>
        <time>2016-10-15T05:03:20Z</time>
      </trkpt>
      <trkpt lat="42.458869000" lon="-2.465155000">
        <ele>399.40</ele>
        <time>2016-10-15T05:03:21Z</time>
      </trkpt>
      <trkpt lat="42.458866000" lon="-2.465151000">
        <ele>399.40</ele>
        <time>2016-10-15T05:03:22Z</time>
      </trkpt>
      <trkpt lat="42.458866000" lon="-2.465146000">
        <ele>399.40</ele>
        <time>2016-10-15T05:03:23Z</time>
      </trkpt>
      <trkpt lat="42.458865000" lon="-2.465140000">
        <ele>399.40</ele>
        <time>2016-10-15T05:03:24Z</time>
      </trkpt>
      <trkpt lat="42.458865000" lon="-2.465134000">
        <ele>399.40</ele>
        <time>2016-10-15T05:03:25Z</time>
      </trkpt>
      <trkpt lat="42.458868000" lon="-2.465127000">
        <ele>399.40</ele>
        <time>2016-10-15T05:03:26Z</time>
      </trkpt>
      <trkpt lat="42.458870000" lon="-2.465122000">
        <ele>399.40</ele>
        <time>2016-10-15T05:03:27Z</time>
      </trkpt>
      <trkpt lat="42.458873000" lon="-2.465118000">
        <ele>399.40</ele>
        <time>2016-10-15T05:03:28Z</time>
      </trkpt>
      <trkpt lat="42.458878000" lon="-2.465115000">
        <ele>399.40</ele>
        <time>2016-10-15T05:03:29Z</time>
      </trkpt>
      <trkpt lat="42.458880000" lon="-2.465116000">
        <ele>399.40</ele>
        <time>2016-10-15T05:03:30Z</time>
      </trkpt>
      <trkpt lat="42.458883000" lon="-2.465117000">
        <ele>399.40</ele>
        <time>2016-10-15T05:03:31Z</time>
      </trkpt>
      <trkpt lat="42.458877000" lon="-2.465120000">
        <ele>399.40</ele>
        <time>2016-10-15T05:03:32Z</time>
      </trkpt>
      <trkpt lat="42.458870000" lon="-2.465122000">
        <ele>399.40</ele>
        <time>2016-10-15T05:03:33Z</time>
      </trkpt>
      <trkpt lat="42.458863000" lon="-2.465124000">
        <ele>399.40</ele>
        <time>2016-10-15T05:03:34Z</time>
      </trkpt>
      <trkpt lat="42.458863000" lon="-2.465126000">
        <ele>399.40</ele>
        <time>2016-10-15T05:03:35Z</time>
      </trkpt>
      <trkpt lat="42.458863000" lon="-2.465130000">
        <ele>399.40</ele>
        <time>2016-10-15T05:03:36Z</time>
      </trkpt>
      <trkpt lat="42.458861000" lon="-2.465133000">
        <ele>399.40</ele>
        <time>2016-10-15T05:03:37Z</time>
      </trkpt>
      <trkpt lat="42.458861000" lon="-2.465137000">
        <ele>399.40</ele>
        <time>2016-10-15T05:03:38Z</time>
      </trkpt>
      <trkpt lat="42.458862000" lon="-2.465142000">
        <ele>399.40</ele>
        <time>2016-10-15T05:03:39Z</time>
      </trkpt>
      <trkpt lat="42.458862000" lon="-2.465145000">
        <ele>399.40</ele>
        <time>2016-10-15T05:03:40Z</time>
      </trkpt>
      <trkpt lat="42.458864000" lon="-2.465146000">
        <ele>399.40</ele>
        <time>2016-10-15T05:03:41Z</time>
      </trkpt>
      <trkpt lat="42.458866000" lon="-2.465149000">
        <ele>399.40</ele>
        <time>2016-10-15T05:03:42Z</time>
      </trkpt>
      <trkpt lat="42.458872000" lon="-2.465153000">
        <ele>399.40</ele>
        <time>2016-10-15T05:03:43Z</time>
      </trkpt>
      <trkpt lat="42.458877000" lon="-2.465158000">
        <ele>399.40</ele>
        <time>2016-10-15T05:03:44Z</time>
      </trkpt>
      <trkpt lat="42.458879000" lon="-2.465163000">
        <ele>399.40</ele>
        <time>2016-10-15T05:03:45Z</time>
      </trkpt>
      <trkpt lat="42.458880000" lon="-2.465168000">
        <ele>399.40</ele>
        <time>2016-10-15T05:03:46Z</time>
      </trkpt>
      <trkpt lat="42.458884000" lon="-2.465171000">
        <ele>399.40</ele>
        <time>2016-10-15T05:03:47Z</time>
      </trkpt>
      <trkpt lat="42.458881000" lon="-2.465175000">
        <ele>399.40</ele>
        <time>2016-10-15T05:03:48Z</time>
      </trkpt>
      <trkpt lat="42.458882000" lon="-2.465183000">
        <ele>399.40</ele>
        <time>2016-10-15T05:03:50Z</time>
      </trkpt>
      <trkpt lat="42.458882000" lon="-2.465183000">
        <ele>399.40</ele>
        <time>2016-10-15T05:03:51Z</time>
      </trkpt>
      <trkpt lat="42.458882000" lon="-2.465183000">
        <ele>399.40</ele>
        <time>2016-10-15T05:03:52Z</time>
      </trkpt>
      <trkpt lat="42.458884000" lon="-2.465182000">
        <ele>399.40</ele>
        <time>2016-10-15T05:03:53Z</time>
      </trkpt>
      <trkpt lat="42.458889000" lon="-2.465182000">
        <ele>399.40</ele>
        <time>2016-10-15T05:03:54Z</time>
      </trkpt>
      <trkpt lat="42.458892000" lon="-2.465183000">
        <ele>399.40</ele>
        <time>2016-10-15T05:03:55Z</time>
      </trkpt>
      <trkpt lat="42.458898000" lon="-2.465183000">
        <ele>399.40</ele>
        <time>2016-10-15T05:03:56Z</time>
      </trkpt>
      <trkpt lat="42.458908000" lon="-2.465184000">
        <ele>399.40</ele>
        <time>2016-10-15T05:03:57Z</time>
      </trkpt>
      <trkpt lat="42.458921000" lon="-2.465184000">
        <ele>399.40</ele>
        <time>2016-10-15T05:03:58Z</time>
      </trkpt>
      <trkpt lat="42.458936000" lon="-2.465185000">
        <ele>399.40</ele>
        <time>2016-10-15T05:03:59Z</time>
      </trkpt>
      <trkpt lat="42.458945000" lon="-2.465185000">
        <ele>399.40</ele>
        <time>2016-10-15T05:04:00Z</time>
      </trkpt>
      <trkpt lat="42.458952000" lon="-2.465185000">
        <ele>399.40</ele>
        <time>2016-10-15T05:04:01Z</time>
      </trkpt>
      <trkpt lat="42.458958000" lon="-2.465184000">
        <ele>399.40</ele>
        <time>2016-10-15T05:04:02Z</time>
      </trkpt>
      <trkpt lat="42.458962000" lon="-2.465182000">
        <ele>399.40</ele>
        <time>2016-10-15T05:04:03Z</time>
      </trkpt>
      <trkpt lat="42.458963000" lon="-2.465178000">
        <ele>399.40</ele>
        <time>2016-10-15T05:04:04Z</time>
      </trkpt>
      <trkpt lat="42.458964000" lon="-2.465175000">
        <ele>399.40</ele>
        <time>2016-10-15T05:04:05Z</time>
      </trkpt>
      <trkpt lat="42.458966000" lon="-2.465172000">
        <ele>399.40</ele>
        <time>2016-10-15T05:04:06Z</time>
      </trkpt>
      <trkpt lat="42.458966000" lon="-2.465169000">
        <ele>399.40</ele>
        <time>2016-10-15T05:04:07Z</time>
      </trkpt>
      <trkpt lat="42.458967000" lon="-2.465170000">
        <ele>399.40</ele>
        <time>2016-10-15T05:04:08Z</time>
      </trkpt>
      <trkpt lat="42.458967000" lon="-2.465172000">
        <ele>399.40</ele>
        <time>2016-10-15T05:04:09Z</time>
      </trkpt>
      <trkpt lat="42.458967000" lon="-2.465174000">
        <ele>399.40</ele>
        <time>2016-10-15T05:04:10Z</time>
      </trkpt>
      <trkpt lat="42.458968000" lon="-2.465177000">
        <ele>399.40</ele>
        <time>2016-10-15T05:04:11Z</time>
      </trkpt>
      <trkpt lat="42.458967000" lon="-2.465178000">
        <ele>399.40</ele>
        <time>2016-10-15T05:04:12Z</time>
      </trkpt>
      <trkpt lat="42.458965000" lon="-2.465180000">
        <ele>399.40</ele>
        <time>2016-10-15T05:04:13Z</time>
      </trkpt>
      <trkpt lat="42.458965000" lon="-2.465180000">
        <ele>399.40</ele>
        <time>2016-10-15T05:04:14Z</time>
      </trkpt>
      <trkpt lat="42.458966000" lon="-2.465180000">
        <ele>399.40</ele>
        <time>2016-10-15T05:04:15Z</time>
      </trkpt>
      <trkpt lat="42.458966000" lon="-2.465178000">
        <ele>399.40</ele>
        <time>2016-10-15T05:04:16Z</time>
      </trkpt>
      <trkpt lat="42.458967000" lon="-2.465177000">
        <ele>399.40</ele>
        <time>2016-10-15T05:04:17Z</time>
      </trkpt>
      <trkpt lat="42.458969000" lon="-2.465176000">
        <ele>399.40</ele>
        <time>2016-10-15T05:04:18Z</time>
      </trkpt>
      <trkpt lat="42.458970000" lon="-2.465174000">
        <ele>399.40</ele>
        <time>2016-10-15T05:04:19Z</time>
      </trkpt>
      <trkpt lat="42.458972000" lon="-2.465172000">
        <ele>399.40</ele>
        <time>2016-10-15T05:04:20Z</time>
      </trkpt>
      <trkpt lat="42.458972000" lon="-2.465170000">
        <ele>399.40</ele>
        <time>2016-10-15T05:04:21Z</time>
      </trkpt>
      <trkpt lat="42.458972000" lon="-2.465167000">
        <ele>399.40</ele>
        <time>2016-10-15T05:04:22Z</time>
      </trkpt>
      <trkpt lat="42.458971000" lon="-2.465164000">
        <ele>399.40</ele>
        <time>2016-10-15T05:04:23Z</time>
      </trkpt>
      <trkpt lat="42.458969000" lon="-2.465162000">
        <ele>399.40</ele>
        <time>2016-10-15T05:04:24Z</time>
      </trkpt>
      <trkpt lat="42.458965000" lon="-2.465160000">
        <ele>399.40</ele>
        <time>2016-10-15T05:04:25Z</time>
      </trkpt>
      <trkpt lat="42.458964000" lon="-2.465159000">
        <ele>399.40</ele>
        <time>2016-10-15T05:04:26Z</time>
      </trkpt>
      <trkpt lat="42.458961000" lon="-2.465158000">
        <ele>399.40</ele>
        <time>2016-10-15T05:04:27Z</time>
      </trkpt>
      <trkpt lat="42.458962000" lon="-2.465158000">
        <ele>399.40</ele>
        <time>2016-10-15T05:04:28Z</time>
      </trkpt>
      <trkpt lat="42.458962000" lon="-2.465159000">
        <ele>399.40</ele>
        <time>2016-10-15T05:04:29Z</time>
      </trkpt>
      <trkpt lat="42.458961000" lon="-2.465160000">
        <ele>399.40</ele>
        <time>2016-10-15T05:04:30Z</time>
      </trkpt>
      <trkpt lat="42.458958000" lon="-2.465160000">
        <ele>399.40</ele>
        <time>2016-10-15T05:04:31Z</time>
      </trkpt>
      <trkpt lat="42.458956000" lon="-2.465158000">
        <ele>399.40</ele>
        <time>2016-10-15T05:04:32Z</time>
      </trkpt>
      <trkpt lat="42.458955000" lon="-2.465158000">
        <ele>399.40</ele>
        <time>2016-10-15T05:04:33Z</time>
      </trkpt>
      <trkpt lat="42.458953000" lon="-2.465161000">
        <ele>399.40</ele>
        <time>2016-10-15T05:04:34Z</time>
      </trkpt>
      <trkpt lat="42.458951000" lon="-2.465163000">
        <ele>399.40</ele>
        <time>2016-10-15T05:04:35Z</time>
      </trkpt>
      <trkpt lat="42.458949000" lon="-2.465164000">
        <ele>399.40</ele>
        <time>2016-10-15T05:04:36Z</time>
      </trkpt>
      <trkpt lat="42.458949000" lon="-2.465164000">
        <ele>399.40</ele>
        <time>2016-10-15T05:04:37Z</time>
      </trkpt>
      <trkpt lat="42.458951000" lon="-2.465163000">
        <ele>399.40</ele>
        <time>2016-10-15T05:04:38Z</time>
      </trkpt>
      <trkpt lat="42.458955000" lon="-2.465163000">
        <ele>399.40</ele>
        <time>2016-10-15T05:04:39Z</time>
      </trkpt>
      <trkpt lat="42.458960000" lon="-2.465162000">
        <ele>399.40</ele>
        <time>2016-10-15T05:04:40Z</time>
      </trkpt>
      <trkpt lat="42.458965000" lon="-2.465160000">
        <ele>399.40</ele>
        <time>2016-10-15T05:04:41Z</time>
      </trkpt>
      <trkpt lat="42.458970000" lon="-2.465158000">
        <ele>399.40</ele>
        <time>2016-10-15T05:04:42Z</time>
      </trkpt>
      <trkpt lat="42.458977000" lon="-2.465153000">
        <ele>399.40</ele>
        <time>2016-10-15T05:04:43Z</time>
      </trkpt>
      <trkpt lat="42.458983000" lon="-2.465151000">
        <ele>399.40</ele>
        <time>2016-10-15T05:04:44Z</time>
      </trkpt>
      <trkpt lat="42.458992000" lon="-2.465149000">
        <ele>399.40</ele>
        <time>2016-10-15T05:04:45Z</time>
      </trkpt>
      <trkpt lat="42.458999000" lon="-2.465148000">
        <ele>399.40</ele>
        <time>2016-10-15T05:04:46Z</time>
      </trkpt>
      <trkpt lat="42.459006000" lon="-2.465148000">
        <ele>399.40</ele>
        <time>2016-10-15T05:04:47Z</time>
      </trkpt>
      <trkpt lat="42.459012000" lon="-2.465148000">
        <ele>399.40</ele>
        <time>2016-10-15T05:04:48Z</time>
      </trkpt>
      <trkpt lat="42.459019000" lon="-2.465149000">
        <ele>399.40</ele>
        <time>2016-10-15T05:04:49Z</time>
      </trkpt>
      <trkpt lat="42.459027000" lon="-2.465151000">
        <ele>399.40</ele>
        <time>2016-10-15T05:04:51Z</time>
      </trkpt>
      <trkpt lat="42.459030000" lon="-2.465149000">
        <ele>399.40</ele>
        <time>2016-10-15T05:04:52Z</time>
      </trkpt>
      <trkpt lat="42.459034000" lon="-2.465145000">
        <ele>399.40</ele>
        <time>2016-10-15T05:04:53Z</time>
      </trkpt>
      <trkpt lat="42.459039000" lon="-2.465143000">
        <ele>399.40</ele>
        <time>2016-10-15T05:04:54Z</time>
      </trkpt>
      <trkpt lat="42.459042000" lon="-2.465142000">
        <ele>399.40</ele>
        <time>2016-10-15T05:04:55Z</time>
      </trkpt>
      <trkpt lat="42.459045000" lon="-2.465147000">
        <ele>399.40</ele>
        <time>2016-10-15T05:04:56Z</time>
      </trkpt>
      <trkpt lat="42.459047000" lon="-2.465151000">
        <ele>399.40</ele>
        <time>2016-10-15T05:04:57Z</time>
      </trkpt>
      <trkpt lat="42.459050000" lon="-2.465156000">
        <ele>399.40</ele>
        <time>2016-10-15T05:04:58Z</time>
      </trkpt>
      <trkpt lat="42.459049000" lon="-2.465163000">
        <ele>399.40</ele>
        <time>2016-10-15T05:04:59Z</time>
      </trkpt>
      <trkpt lat="42.459047000" lon="-2.465165000">
        <ele>399.40</ele>
        <time>2016-10-15T05:05:00Z</time>
      </trkpt>
      <trkpt lat="42.459043000" lon="-2.465165000">
        <ele>399.40</ele>
        <time>2016-10-15T05:05:01Z</time>
      </trkpt>
      <trkpt lat="42.459042000" lon="-2.465166000">
        <ele>399.40</ele>
        <time>2016-10-15T05:05:02Z</time>
      </trkpt>
      <trkpt lat="42.459039000" lon="-2.465168000">
        <ele>399.40</ele>
        <time>2016-10-15T05:05:03Z</time>
      </trkpt>
      <trkpt lat="42.459032000" lon="-2.465163000">
        <ele>399.40</ele>
        <time>2016-10-15T05:05:04Z</time>
      </trkpt>
      <trkpt lat="42.459031000" lon="-2.465165000">
        <ele>399.40</ele>
        <time>2016-10-15T05:05:05Z</time>
      </trkpt>
      <trkpt lat="42.459028000" lon="-2.465160000">
        <ele>399.40</ele>
        <time>2016-10-15T05:05:06Z</time>
      </trkpt>
      <trkpt lat="42.459025000" lon="-2.465156000">
        <ele>399.40</ele>
        <time>2016-10-15T05:05:07Z</time>
      </trkpt>
      <trkpt lat="42.459024000" lon="-2.465160000">
        <ele>399.40</ele>
        <time>2016-10-15T05:05:08Z</time>
      </trkpt>
      <trkpt lat="42.459024000" lon="-2.465163000">
        <ele>399.40</ele>
        <time>2016-10-15T05:05:09Z</time>
      </trkpt>
      <trkpt lat="42.459024000" lon="-2.465166000">
        <ele>399.40</ele>
        <time>2016-10-15T05:05:10Z</time>
      </trkpt>
      <trkpt lat="42.459025000" lon="-2.465167000">
        <ele>399.40</ele>
        <time>2016-10-15T05:05:11Z</time>
      </trkpt>
      <trkpt lat="42.459028000" lon="-2.465169000">
        <ele>399.40</ele>
        <time>2016-10-15T05:05:12Z</time>
      </trkpt>
      <trkpt lat="42.459029000" lon="-2.465174000">
        <ele>399.40</ele>
        <time>2016-10-15T05:05:13Z</time>
      </trkpt>
      <trkpt lat="42.459032000" lon="-2.465178000">
        <ele>399.40</ele>
        <time>2016-10-15T05:05:14Z</time>
      </trkpt>
      <trkpt lat="42.459036000" lon="-2.465183000">
        <ele>399.40</ele>
        <time>2016-10-15T05:05:15Z</time>
      </trkpt>
      <trkpt lat="42.459031000" lon="-2.465180000">
        <ele>399.40</ele>
        <time>2016-10-15T05:05:16Z</time>
      </trkpt>
      <trkpt lat="42.459026000" lon="-2.465177000">
        <ele>399.40</ele>
        <time>2016-10-15T05:05:17Z</time>
      </trkpt>
      <trkpt lat="42.459022000" lon="-2.465179000">
        <ele>399.40</ele>
        <time>2016-10-15T05:05:18Z</time>
      </trkpt>
      <trkpt lat="42.459015000" lon="-2.465177000">
        <ele>399.40</ele>
        <time>2016-10-15T05:05:19Z</time>
      </trkpt>
      <trkpt lat="42.459010000" lon="-2.465175000">
        <ele>399.40</ele>
        <time>2016-10-15T05:05:20Z</time>
      </trkpt>
      <trkpt lat="42.459008000" lon="-2.465172000">
        <ele>399.40</ele>
        <time>2016-10-15T05:05:21Z</time>
      </trkpt>
      <trkpt lat="42.459004000" lon="-2.465165000">
        <ele>399.40</ele>
        <time>2016-10-15T05:05:22Z</time>
      </trkpt>
      <trkpt lat="42.459000000" lon="-2.465162000">
        <ele>399.40</ele>
        <time>2016-10-15T05:05:23Z</time>
      </trkpt>
      <trkpt lat="42.458997000" lon="-2.465160000">
        <ele>399.40</ele>
        <time>2016-10-15T05:05:24Z</time>
      </trkpt>
      <trkpt lat="42.458998000" lon="-2.465157000">
        <ele>399.40</ele>
        <time>2016-10-15T05:05:25Z</time>
      </trkpt>
      <trkpt lat="42.458999000" lon="-2.465154000">
        <ele>399.40</ele>
        <time>2016-10-15T05:05:26Z</time>
      </trkpt>
      <trkpt lat="42.459000000" lon="-2.465151000">
        <ele>399.40</ele>
        <time>2016-10-15T05:05:27Z</time>
      </trkpt>
      <trkpt lat="42.459001000" lon="-2.465149000">
        <ele>399.40</ele>
        <time>2016-10-15T05:05:28Z</time>
      </trkpt>
      <trkpt lat="42.459004000" lon="-2.465147000">
        <ele>399.40</ele>
        <time>2016-10-15T05:05:29Z</time>
      </trkpt>
      <trkpt lat="42.459007000" lon="-2.465145000">
        <ele>399.40</ele>
        <time>2016-10-15T05:05:30Z</time>
      </trkpt>
      <trkpt lat="42.459010000" lon="-2.465145000">
        <ele>399.40</ele>
        <time>2016-10-15T05:05:31Z</time>
      </trkpt>
      <trkpt lat="42.459012000" lon="-2.465147000">
        <ele>399.40</ele>
        <time>2016-10-15T05:05:32Z</time>
      </trkpt>
      <trkpt lat="42.459013000" lon="-2.465148000">
        <ele>399.40</ele>
        <time>2016-10-15T05:05:33Z</time>
      </trkpt>
      <trkpt lat="42.459015000" lon="-2.465148000">
        <ele>399.40</ele>
        <time>2016-10-15T05:05:34Z</time>
      </trkpt>
      <trkpt lat="42.459016000" lon="-2.465147000">
        <ele>399.40</ele>
        <time>2016-10-15T05:05:35Z</time>
      </trkpt>
      <trkpt lat="42.459017000" lon="-2.465148000">
        <ele>399.40</ele>
        <time>2016-10-15T05:05:36Z</time>
      </trkpt>
      <trkpt lat="42.459018000" lon="-2.465148000">
        <ele>399.40</ele>
        <time>2016-10-15T05:05:37Z</time>
      </trkpt>
      <trkpt lat="42.459017000" lon="-2.465146000">
        <ele>399.40</ele>
        <time>2016-10-15T05:05:38Z</time>
      </trkpt>
      <trkpt lat="42.459015000" lon="-2.465144000">
        <ele>399.40</ele>
        <time>2016-10-15T05:05:39Z</time>
      </trkpt>
      <trkpt lat="42.459013000" lon="-2.465145000">
        <ele>399.40</ele>
        <time>2016-10-15T05:05:40Z</time>
      </trkpt>
      <trkpt lat="42.459010000" lon="-2.465146000">
        <ele>399.40</ele>
        <time>2016-10-15T05:05:41Z</time>
      </trkpt>
      <trkpt lat="42.459011000" lon="-2.465149000">
        <ele>399.40</ele>
        <time>2016-10-15T05:05:42Z</time>
      </trkpt>
      <trkpt lat="42.459012000" lon="-2.465155000">
        <ele>399.40</ele>
        <time>2016-10-15T05:05:43Z</time>
      </trkpt>
      <trkpt lat="42.459014000" lon="-2.465160000">
        <ele>399.40</ele>
        <time>2016-10-15T05:05:44Z</time>
      </trkpt>
      <trkpt lat="42.459016000" lon="-2.465167000">
        <ele>399.40</ele>
        <time>2016-10-15T05:05:45Z</time>
      </trkpt>
      <trkpt lat="42.459013000" lon="-2.465163000">
        <ele>399.40</ele>
        <time>2016-10-15T05:05:46Z</time>
      </trkpt>
      <trkpt lat="42.459009000" lon="-2.465160000">
        <ele>399.40</ele>
        <time>2016-10-15T05:05:47Z</time>
      </trkpt>
      <trkpt lat="42.459007000" lon="-2.465157000">
        <ele>399.40</ele>
        <time>2016-10-15T05:05:48Z</time>
      </trkpt>
      <trkpt lat="42.459006000" lon="-2.465154000">
        <ele>399.40</ele>
        <time>2016-10-15T05:05:49Z</time>
      </trkpt>
      <trkpt lat="42.459000000" lon="-2.465151000">
        <ele>399.40</ele>
        <time>2016-10-15T05:05:50Z</time>
      </trkpt>
      <trkpt lat="42.459000000" lon="-2.465151000">
        <ele>399.40</ele>
        <time>2016-10-15T05:05:52Z</time>
      </trkpt>
      <trkpt lat="42.459002000" lon="-2.465149000">
        <ele>399.40</ele>
        <time>2016-10-15T05:05:53Z</time>
      </trkpt>
      <trkpt lat="42.458993000" lon="-2.465146000">
        <ele>399.40</ele>
        <time>2016-10-15T05:05:54Z</time>
      </trkpt>
      <trkpt lat="42.458982000" lon="-2.465141000">
        <ele>399.40</ele>
        <time>2016-10-15T05:05:55Z</time>
      </trkpt>
      <trkpt lat="42.458973000" lon="-2.465138000">
        <ele>399.40</ele>
        <time>2016-10-15T05:05:56Z</time>
      </trkpt>
      <trkpt lat="42.458967000" lon="-2.465137000">
        <ele>399.40</ele>
        <time>2016-10-15T05:05:57Z</time>
      </trkpt>
      <trkpt lat="42.458962000" lon="-2.465137000">
        <ele>399.40</ele>
        <time>2016-10-15T05:05:58Z</time>
      </trkpt>
      <trkpt lat="42.458956000" lon="-2.465136000">
        <ele>399.40</ele>
        <time>2016-10-15T05:05:59Z</time>
      </trkpt>
      <trkpt lat="42.458953000" lon="-2.465133000">
        <ele>399.40</ele>
        <time>2016-10-15T05:06:00Z</time>
      </trkpt>
      <trkpt lat="42.458951000" lon="-2.465130000">
        <ele>399.40</ele>
        <time>2016-10-15T05:06:01Z</time>
      </trkpt>
      <trkpt lat="42.458952000" lon="-2.465129000">
        <ele>399.40</ele>
        <time>2016-10-15T05:06:02Z</time>
      </trkpt>
      <trkpt lat="42.458952000" lon="-2.465131000">
        <ele>399.40</ele>
        <time>2016-10-15T05:06:03Z</time>
      </trkpt>
      <trkpt lat="42.458951000" lon="-2.465130000">
        <ele>399.40</ele>
        <time>2016-10-15T05:06:04Z</time>
      </trkpt>
      <trkpt lat="42.458951000" lon="-2.465129000">
        <ele>399.40</ele>
        <time>2016-10-15T05:06:05Z</time>
      </trkpt>
      <trkpt lat="42.458951000" lon="-2.465130000">
        <ele>399.40</ele>
        <time>2016-10-15T05:06:06Z</time>
      </trkpt>
      <trkpt lat="42.458950000" lon="-2.465131000">
        <ele>399.40</ele>
        <time>2016-10-15T05:06:07Z</time>
      </trkpt>
      <trkpt lat="42.458950000" lon="-2.465132000">
        <ele>399.40</ele>
        <time>2016-10-15T05:06:08Z</time>
      </trkpt>
      <trkpt lat="42.458951000" lon="-2.465133000">
        <ele>399.40</ele>
        <time>2016-10-15T05:06:09Z</time>
      </trkpt>
      <trkpt lat="42.458953000" lon="-2.465135000">
        <ele>399.40</ele>
        <time>2016-10-15T05:06:10Z</time>
      </trkpt>
      <trkpt lat="42.458955000" lon="-2.465136000">
        <ele>399.40</ele>
        <time>2016-10-15T05:06:11Z</time>
      </trkpt>
      <trkpt lat="42.458958000" lon="-2.465137000">
        <ele>399.40</ele>
        <time>2016-10-15T05:06:12Z</time>
      </trkpt>
      <trkpt lat="42.458959000" lon="-2.465139000">
        <ele>399.40</ele>
        <time>2016-10-15T05:06:13Z</time>
      </trkpt>
      <trkpt lat="42.458959000" lon="-2.465137000">
        <ele>399.40</ele>
        <time>2016-10-15T05:06:14Z</time>
      </trkpt>
      <trkpt lat="42.458959000" lon="-2.465134000">
        <ele>399.40</ele>
        <time>2016-10-15T05:06:15Z</time>
      </trkpt>
      <trkpt lat="42.458957000" lon="-2.465133000">
        <ele>399.40</ele>
        <time>2016-10-15T05:06:16Z</time>
      </trkpt>
      <trkpt lat="42.458956000" lon="-2.465132000">
        <ele>399.40</ele>
        <time>2016-10-15T05:06:17Z</time>
      </trkpt>
      <trkpt lat="42.458955000" lon="-2.465133000">
        <ele>399.40</ele>
        <time>2016-10-15T05:06:18Z</time>
      </trkpt>
      <trkpt lat="42.458955000" lon="-2.465131000">
        <ele>399.40</ele>
        <time>2016-10-15T05:06:19Z</time>
      </trkpt>
      <trkpt lat="42.458954000" lon="-2.465131000">
        <ele>399.40</ele>
        <time>2016-10-15T05:06:20Z</time>
      </trkpt>
      <trkpt lat="42.458956000" lon="-2.465131000">
        <ele>399.40</ele>
        <time>2016-10-15T05:06:21Z</time>
      </trkpt>
      <trkpt lat="42.458958000" lon="-2.465132000">
        <ele>399.40</ele>
        <time>2016-10-15T05:06:22Z</time>
      </trkpt>
      <trkpt lat="42.458963000" lon="-2.465137000">
        <ele>399.40</ele>
        <time>2016-10-15T05:06:23Z</time>
      </trkpt>
      <trkpt lat="42.458969000" lon="-2.465145000">
        <ele>399.40</ele>
        <time>2016-10-15T05:06:24Z</time>
      </trkpt>
      <trkpt lat="42.458975000" lon="-2.465152000">
        <ele>399.40</ele>
        <time>2016-10-15T05:06:25Z</time>
      </trkpt>
      <trkpt lat="42.458981000" lon="-2.465157000">
        <ele>399.40</ele>
        <time>2016-10-15T05:06:26Z</time>
      </trkpt>
      <trkpt lat="42.458985000" lon="-2.465162000">
        <ele>399.40</ele>
        <time>2016-10-15T05:06:27Z</time>
      </trkpt>
      <trkpt lat="42.458992000" lon="-2.465172000">
        <ele>399.40</ele>
        <time>2016-10-15T05:06:28Z</time>
      </trkpt>
      <trkpt lat="42.458995000" lon="-2.465178000">
        <ele>399.40</ele>
        <time>2016-10-15T05:06:29Z</time>
      </trkpt>
      <trkpt lat="42.458999000" lon="-2.465189000">
        <ele>399.40</ele>
        <time>2016-10-15T05:06:30Z</time>
      </trkpt>
      <trkpt lat="42.459004000" lon="-2.465199000">
        <ele>399.40</ele>
        <time>2016-10-15T05:06:31Z</time>
      </trkpt>
      <trkpt lat="42.459008000" lon="-2.465208000">
        <ele>399.40</ele>
        <time>2016-10-15T05:06:32Z</time>
      </trkpt>
      <trkpt lat="42.459014000" lon="-2.465218000">
        <ele>399.40</ele>
        <time>2016-10-15T05:06:33Z</time>
      </trkpt>
      <trkpt lat="42.459019000" lon="-2.465226000">
        <ele>399.40</ele>
        <time>2016-10-15T05:06:34Z</time>
      </trkpt>
      <trkpt lat="42.459023000" lon="-2.465232000">
        <ele>399.40</ele>
        <time>2016-10-15T05:06:35Z</time>
      </trkpt>
      <trkpt lat="42.459030000" lon="-2.465238000">
        <ele>399.40</ele>
        <time>2016-10-15T05:06:36Z</time>
      </trkpt>
      <trkpt lat="42.459037000" lon="-2.465244000">
        <ele>399.40</ele>
        <time>2016-10-15T05:06:37Z</time>
      </trkpt>
      <trkpt lat="42.459041000" lon="-2.465249000">
        <ele>399.40</ele>
        <time>2016-10-15T05:06:38Z</time>
      </trkpt>
      <trkpt lat="42.459047000" lon="-2.465252000">
        <ele>399.40</ele>
        <time>2016-10-15T05:06:39Z</time>
      </trkpt>
      <trkpt lat="42.459054000" lon="-2.465257000">
        <ele>399.40</ele>
        <time>2016-10-15T05:06:40Z</time>
      </trkpt>
      <trkpt lat="42.459063000" lon="-2.465264000">
        <ele>399.40</ele>
        <time>2016-10-15T05:06:41Z</time>
      </trkpt>
      <trkpt lat="42.459068000" lon="-2.465269000">
        <ele>399.40</ele>
        <time>2016-10-15T05:06:42Z</time>
      </trkpt>
      <trkpt lat="42.459073000" lon="-2.465273000">
        <ele>399.40</ele>
        <time>2016-10-15T05:06:43Z</time>
      </trkpt>
      <trkpt lat="42.459079000" lon="-2.465276000">
        <ele>399.40</ele>
        <time>2016-10-15T05:06:44Z</time>
      </trkpt>
      <trkpt lat="42.459085000" lon="-2.465279000">
        <ele>399.40</ele>
        <time>2016-10-15T05:06:45Z</time>
      </trkpt>
      <trkpt lat="42.459087000" lon="-2.465280000">
        <ele>399.40</ele>
        <time>2016-10-15T05:06:46Z</time>
      </trkpt>
      <trkpt lat="42.459083000" lon="-2.465279000">
        <ele>399.40</ele>
        <time>2016-10-15T05:06:47Z</time>
      </trkpt>
      <trkpt lat="42.459080000" lon="-2.465277000">
        <ele>399.40</ele>
        <time>2016-10-15T05:06:48Z</time>
      </trkpt>
      <trkpt lat="42.459077000" lon="-2.465274000">
        <ele>399.40</ele>
        <time>2016-10-15T05:06:49Z</time>
      </trkpt>
      <trkpt lat="42.459073000" lon="-2.465272000">
        <ele>399.40</ele>
        <time>2016-10-15T05:06:50Z</time>
      </trkpt>
      <trkpt lat="42.459069000" lon="-2.465270000">
        <ele>399.40</ele>
        <time>2016-10-15T05:06:51Z</time>
      </trkpt>
      <trkpt lat="42.459055000" lon="-2.465262000">
        <ele>399.40</ele>
        <time>2016-10-15T05:06:53Z</time>
      </trkpt>
      <trkpt lat="42.459048000" lon="-2.465259000">
        <ele>399.40</ele>
        <time>2016-10-15T05:06:54Z</time>
      </trkpt>
      <trkpt lat="42.459041000" lon="-2.465258000">
        <ele>399.40</ele>
        <time>2016-10-15T05:06:55Z</time>
      </trkpt>
      <trkpt lat="42.459035000" lon="-2.465255000">
        <ele>399.40</ele>
        <time>2016-10-15T05:06:56Z</time>
      </trkpt>
      <trkpt lat="42.459029000" lon="-2.465252000">
        <ele>399.40</ele>
        <time>2016-10-15T05:06:57Z</time>
      </trkpt>
      <trkpt lat="42.459025000" lon="-2.465251000">
        <ele>399.40</ele>
        <time>2016-10-15T05:06:58Z</time>
      </trkpt>
      <trkpt lat="42.459021000" lon="-2.465250000">
        <ele>399.40</ele>
        <time>2016-10-15T05:06:59Z</time>
      </trkpt>
      <trkpt lat="42.459016000" lon="-2.465247000">
        <ele>399.40</ele>
        <time>2016-10-15T05:07:00Z</time>
      </trkpt>
      <trkpt lat="42.459013000" lon="-2.465249000">
        <ele>399.40</ele>
        <time>2016-10-15T05:07:01Z</time>
      </trkpt>
      <trkpt lat="42.459010000" lon="-2.465249000">
        <ele>399.40</ele>
        <time>2016-10-15T05:07:02Z</time>
      </trkpt>
      <trkpt lat="42.459005000" lon="-2.465249000">
        <ele>399.40</ele>
        <time>2016-10-15T05:07:03Z</time>
      </trkpt>
      <trkpt lat="42.459000000" lon="-2.465252000">
        <ele>399.40</ele>
        <time>2016-10-15T05:07:04Z</time>
      </trkpt>
      <trkpt lat="42.458996000" lon="-2.465252000">
        <ele>399.40</ele>
        <time>2016-10-15T05:07:05Z</time>
      </trkpt>
      <trkpt lat="42.458991000" lon="-2.465252000">
        <ele>399.40</ele>
        <time>2016-10-15T05:07:06Z</time>
      </trkpt>
      <trkpt lat="42.458985000" lon="-2.465254000">
        <ele>399.40</ele>
        <time>2016-10-15T05:07:07Z</time>
      </trkpt>
      <trkpt lat="42.458980000" lon="-2.465255000">
        <ele>399.40</ele>
        <time>2016-10-15T05:07:08Z</time>
      </trkpt>
      <trkpt lat="42.458976000" lon="-2.465251000">
        <ele>399.40</ele>
        <time>2016-10-15T05:07:09Z</time>
      </trkpt>
      <trkpt lat="42.458972000" lon="-2.465249000">
        <ele>399.40</ele>
        <time>2016-10-15T05:07:10Z</time>
      </trkpt>
      <trkpt lat="42.458968000" lon="-2.465250000">
        <ele>399.40</ele>
        <time>2016-10-15T05:07:11Z</time>
      </trkpt>
      <trkpt lat="42.458964000" lon="-2.465249000">
        <ele>399.40</ele>
        <time>2016-10-15T05:07:12Z</time>
      </trkpt>
      <trkpt lat="42.458960000" lon="-2.465248000">
        <ele>399.40</ele>
        <time>2016-10-15T05:07:13Z</time>
      </trkpt>
      <trkpt lat="42.458954000" lon="-2.465246000">
        <ele>399.40</ele>
        <time>2016-10-15T05:07:14Z</time>
      </trkpt>
      <trkpt lat="42.458950000" lon="-2.465244000">
        <ele>399.40</ele>
        <time>2016-10-15T05:07:15Z</time>
      </trkpt>
      <trkpt lat="42.458947000" lon="-2.465242000">
        <ele>399.40</ele>
        <time>2016-10-15T05:07:16Z</time>
      </trkpt>
      <trkpt lat="42.458944000" lon="-2.465241000">
        <ele>399.40</ele>
        <time>2016-10-15T05:07:17Z</time>
      </trkpt>
      <trkpt lat="42.458942000" lon="-2.465240000">
        <ele>399.40</ele>
        <time>2016-10-15T05:07:18Z</time>
      </trkpt>
      <trkpt lat="42.458941000" lon="-2.465238000">
        <ele>399.40</ele>
        <time>2016-10-15T05:07:19Z</time>
      </trkpt>
      <trkpt lat="42.458941000" lon="-2.465235000">
        <ele>399.40</ele>
        <time>2016-10-15T05:07:20Z</time>
      </trkpt>
      <trkpt lat="42.458941000" lon="-2.465233000">
        <ele>399.40</ele>
        <time>2016-10-15T05:07:21Z</time>
      </trkpt>
      <trkpt lat="42.458941000" lon="-2.465232000">
        <ele>399.40</ele>
        <time>2016-10-15T05:07:22Z</time>
      </trkpt>
      <trkpt lat="42.458941000" lon="-2.465234000">
        <ele>399.40</ele>
        <time>2016-10-15T05:07:23Z</time>
      </trkpt>
      <trkpt lat="42.458941000" lon="-2.465235000">
        <ele>399.40</ele>
        <time>2016-10-15T05:07:24Z</time>
      </trkpt>
      <trkpt lat="42.458940000" lon="-2.465238000">
        <ele>399.40</ele>
        <time>2016-10-15T05:07:25Z</time>
      </trkpt>
      <trkpt lat="42.458939000" lon="-2.465243000">
        <ele>399.40</ele>
        <time>2016-10-15T05:07:26Z</time>
      </trkpt>
      <trkpt lat="42.458937000" lon="-2.465246000">
        <ele>399.40</ele>
        <time>2016-10-15T05:07:27Z</time>
      </trkpt>
      <trkpt lat="42.458934000" lon="-2.465249000">
        <ele>399.40</ele>
        <time>2016-10-15T05:07:28Z</time>
      </trkpt>
      <trkpt lat="42.458931000" lon="-2.465251000">
        <ele>399.40</ele>
        <time>2016-10-15T05:07:29Z</time>
      </trkpt>
      <trkpt lat="42.458927000" lon="-2.465252000">
        <ele>399.40</ele>
        <time>2016-10-15T05:07:30Z</time>
      </trkpt>
      <trkpt lat="42.458924000" lon="-2.465254000">
        <ele>399.40</ele>
        <time>2016-10-15T05:07:31Z</time>
      </trkpt>
      <trkpt lat="42.458920000" lon="-2.465255000">
        <ele>399.40</ele>
        <time>2016-10-15T05:07:32Z</time>
      </trkpt>
      <trkpt lat="42.458916000" lon="-2.465253000">
        <ele>399.40</ele>
        <time>2016-10-15T05:07:33Z</time>
      </trkpt>
      <trkpt lat="42.458914000" lon="-2.465248000">
        <ele>399.40</ele>
        <time>2016-10-15T05:07:34Z</time>
      </trkpt>
      <trkpt lat="42.458912000" lon="-2.465246000">
        <ele>399.40</ele>
        <time>2016-10-15T05:07:35Z</time>
      </trkpt>
      <trkpt lat="42.458910000" lon="-2.465242000">
        <ele>399.40</ele>
        <time>2016-10-15T05:07:36Z</time>
      </trkpt>
      <trkpt lat="42.458909000" lon="-2.465237000">
        <ele>399.40</ele>
        <time>2016-10-15T05:07:37Z</time>
      </trkpt>
      <trkpt lat="42.458909000" lon="-2.465231000">
        <ele>399.40</ele>
        <time>2016-10-15T05:07:38Z</time>
      </trkpt>
      <trkpt lat="42.458909000" lon="-2.465224000">
        <ele>399.40</ele>
        <time>2016-10-15T05:07:39Z</time>
      </trkpt>
      <trkpt lat="42.458909000" lon="-2.465220000">
        <ele>399.40</ele>
        <time>2016-10-15T05:07:40Z</time>
      </trkpt>
      <trkpt lat="42.458912000" lon="-2.465215000">
        <ele>399.40</ele>
        <time>2016-10-15T05:07:41Z</time>
      </trkpt>
      <trkpt lat="42.458909000" lon="-2.465212000">
        <ele>399.40</ele>
        <time>2016-10-15T05:07:42Z</time>
      </trkpt>
      <trkpt lat="42.458907000" lon="-2.465211000">
        <ele>399.40</ele>
        <time>2016-10-15T05:07:43Z</time>
      </trkpt>
      <trkpt lat="42.458907000" lon="-2.465211000">
        <ele>399.40</ele>
        <time>2016-10-15T05:07:44Z</time>
      </trkpt>
      <trkpt lat="42.458906000" lon="-2.465214000">
        <ele>399.40</ele>
        <time>2016-10-15T05:07:45Z</time>
      </trkpt>
      <trkpt lat="42.458904000" lon="-2.465213000">
        <ele>399.40</ele>
        <time>2016-10-15T05:07:46Z</time>
      </trkpt>
      <trkpt lat="42.458902000" lon="-2.465211000">
        <ele>399.40</ele>
        <time>2016-10-15T05:07:47Z</time>
      </trkpt>
      <trkpt lat="42.458898000" lon="-2.465208000">
        <ele>399.40</ele>
        <time>2016-10-15T05:07:48Z</time>
      </trkpt>
      <trkpt lat="42.458893000" lon="-2.465206000">
        <ele>399.40</ele>
        <time>2016-10-15T05:07:49Z</time>
      </trkpt>
      <trkpt lat="42.458892000" lon="-2.465206000">
        <ele>399.40</ele>
        <time>2016-10-15T05:07:50Z</time>
      </trkpt>
      <trkpt lat="42.458892000" lon="-2.465207000">
        <ele>399.40</ele>
        <time>2016-10-15T05:07:51Z</time>
      </trkpt>
      <trkpt lat="42.458895000" lon="-2.465206000">
        <ele>399.40</ele>
        <time>2016-10-15T05:07:52Z</time>
      </trkpt>
      <trkpt lat="42.458905000" lon="-2.465196000">
        <ele>399.40</ele>
        <time>2016-10-15T05:07:54Z</time>
      </trkpt>
      <trkpt lat="42.458910000" lon="-2.465191000">
        <ele>399.40</ele>
        <time>2016-10-15T05:07:55Z</time>
      </trkpt>
      <trkpt lat="42.458914000" lon="-2.465190000">
        <ele>399.40</ele>
        <time>2016-10-15T05:07:56Z</time>
      </trkpt>
      <trkpt lat="42.458916000" lon="-2.465193000">
        <ele>399.40</ele>
        <time>2016-10-15T05:07:57Z</time>
      </trkpt>
      <trkpt lat="42.458917000" lon="-2.465195000">
        <ele>399.40</ele>
        <time>2016-10-15T05:07:58Z</time>
      </trkpt>
      <trkpt lat="42.458921000" lon="-2.465199000">
        <ele>399.40</ele>
        <time>2016-10-15T05:07:59Z</time>
      </trkpt>
      <trkpt lat="42.458924000" lon="-2.465200000">
        <ele>399.40</ele>
        <time>2016-10-15T05:08:00Z</time>
      </trkpt>
      <trkpt lat="42.458928000" lon="-2.465201000">
        <ele>399.40</ele>
        <time>2016-10-15T05:08:01Z</time>
      </trkpt>
      <trkpt lat="42.458932000" lon="-2.465202000">
        <ele>399.40</ele>
        <time>2016-10-15T05:08:02Z</time>
      </trkpt>
      <trkpt lat="42.458936000" lon="-2.465203000">
        <ele>399.40</ele>
        <time>2016-10-15T05:08:03Z</time>
      </trkpt>
      <trkpt lat="42.458941000" lon="-2.465204000">
        <ele>399.40</ele>
        <time>2016-10-15T05:08:04Z</time>
      </trkpt>
      <trkpt lat="42.458945000" lon="-2.465206000">
        <ele>399.40</ele>
        <time>2016-10-15T05:08:05Z</time>
      </trkpt>
      <trkpt lat="42.458947000" lon="-2.465211000">
        <ele>399.40</ele>
        <time>2016-10-15T05:08:06Z</time>
      </trkpt>
      <trkpt lat="42.458949000" lon="-2.465217000">
        <ele>399.40</ele>
        <time>2016-10-15T05:08:07Z</time>
      </trkpt>
      <trkpt lat="42.458952000" lon="-2.465221000">
        <ele>399.40</ele>
        <time>2016-10-15T05:08:08Z</time>
      </trkpt>
      <trkpt lat="42.458955000" lon="-2.465225000">
        <ele>399.40</ele>
        <time>2016-10-15T05:08:09Z</time>
      </trkpt>
      <trkpt lat="42.458958000" lon="-2.465226000">
        <ele>399.40</ele>
        <time>2016-10-15T05:08:10Z</time>
      </trkpt>
      <trkpt lat="42.458960000" lon="-2.465227000">
        <ele>399.40</ele>
        <time>2016-10-15T05:08:11Z</time>
      </trkpt>
      <trkpt lat="42.458960000" lon="-2.465228000">
        <ele>399.40</ele>
        <time>2016-10-15T05:08:12Z</time>
      </trkpt>
      <trkpt lat="42.458959000" lon="-2.465229000">
        <ele>399.40</ele>
        <time>2016-10-15T05:08:13Z</time>
      </trkpt>
      <trkpt lat="42.458958000" lon="-2.465227000">
        <ele>399.40</ele>
        <time>2016-10-15T05:08:14Z</time>
      </trkpt>
      <trkpt lat="42.458957000" lon="-2.465224000">
        <ele>399.40</ele>
        <time>2016-10-15T05:08:15Z</time>
      </trkpt>
      <trkpt lat="42.458956000" lon="-2.465223000">
        <ele>399.40</ele>
        <time>2016-10-15T05:08:16Z</time>
      </trkpt>
      <trkpt lat="42.458955000" lon="-2.465223000">
        <ele>399.40</ele>
        <time>2016-10-15T05:08:17Z</time>
      </trkpt>
      <trkpt lat="42.458957000" lon="-2.465222000">
        <ele>399.40</ele>
        <time>2016-10-15T05:08:18Z</time>
      </trkpt>
      <trkpt lat="42.458961000" lon="-2.465220000">
        <ele>399.40</ele>
        <time>2016-10-15T05:08:19Z</time>
      </trkpt>
      <trkpt lat="42.458963000" lon="-2.465217000">
        <ele>399.40</ele>
        <time>2016-10-15T05:08:20Z</time>
      </trkpt>
      <trkpt lat="42.458966000" lon="-2.465216000">
        <ele>399.40</ele>
        <time>2016-10-15T05:08:21Z</time>
      </trkpt>
      <trkpt lat="42.458967000" lon="-2.465215000">
        <ele>399.40</ele>
        <time>2016-10-15T05:08:22Z</time>
      </trkpt>
      <trkpt lat="42.458968000" lon="-2.465216000">
        <ele>399.40</ele>
        <time>2016-10-15T05:08:23Z</time>
      </trkpt>
      <trkpt lat="42.458968000" lon="-2.465217000">
        <ele>399.40</ele>
        <time>2016-10-15T05:08:24Z</time>
      </trkpt>
      <trkpt lat="42.458969000" lon="-2.465220000">
        <ele>399.40</ele>
        <time>2016-10-15T05:08:25Z</time>
      </trkpt>
      <trkpt lat="42.458969000" lon="-2.465222000">
        <ele>399.40</ele>
        <time>2016-10-15T05:08:26Z</time>
      </trkpt>
      <trkpt lat="42.458972000" lon="-2.465224000">
        <ele>399.40</ele>
        <time>2016-10-15T05:08:27Z</time>
      </trkpt>
      <trkpt lat="42.458974000" lon="-2.465223000">
        <ele>399.40</ele>
        <time>2016-10-15T05:08:28Z</time>
      </trkpt>
      <trkpt lat="42.458975000" lon="-2.465220000">
        <ele>399.40</ele>
        <time>2016-10-15T05:08:29Z</time>
      </trkpt>
      <trkpt lat="42.458973000" lon="-2.465219000">
        <ele>399.40</ele>
        <time>2016-10-15T05:08:30Z</time>
      </trkpt>
      <trkpt lat="42.458970000" lon="-2.465220000">
        <ele>399.40</ele>
        <time>2016-10-15T05:08:31Z</time>
      </trkpt>
      <trkpt lat="42.458980000" lon="-2.465227000">
        <ele>399.50</ele>
        <time>2016-10-15T05:08:32Z</time>
      </trkpt>
      <trkpt lat="42.458994000" lon="-2.465224000">
        <ele>399.50</ele>
        <time>2016-10-15T05:08:33Z</time>
      </trkpt>
      <trkpt lat="42.459003000" lon="-2.465156000">
        <ele>399.50</ele>
        <time>2016-10-15T05:08:34Z</time>
      </trkpt>
      <trkpt lat="42.459001000" lon="-2.465099000">
        <ele>399.50</ele>
        <time>2016-10-15T05:08:35Z</time>
      </trkpt>
      <trkpt lat="42.458999000" lon="-2.465062000">
        <ele>399.50</ele>
        <time>2016-10-15T05:08:36Z</time>
      </trkpt>
      <trkpt lat="42.458996000" lon="-2.465031000">
        <ele>399.50</ele>
        <time>2016-10-15T05:08:37Z</time>
      </trkpt>
      <trkpt lat="42.458998000" lon="-2.465004000">
        <ele>399.60</ele>
        <time>2016-10-15T05:08:38Z</time>
      </trkpt>
      <trkpt lat="42.459001000" lon="-2.464981000">
        <ele>399.60</ele>
        <time>2016-10-15T05:08:39Z</time>
      </trkpt>
      <trkpt lat="42.459004000" lon="-2.464957000">
        <ele>399.40</ele>
        <time>2016-10-15T05:08:40Z</time>
      </trkpt>
      <trkpt lat="42.459010000" lon="-2.464934000">
        <ele>399.30</ele>
        <time>2016-10-15T05:08:41Z</time>
      </trkpt>
      <trkpt lat="42.459015000" lon="-2.464909000">
        <ele>399.20</ele>
        <time>2016-10-15T05:08:42Z</time>
      </trkpt>
      <trkpt lat="42.459022000" lon="-2.464887000">
        <ele>399.10</ele>
        <time>2016-10-15T05:08:43Z</time>
      </trkpt>
      <trkpt lat="42.459025000" lon="-2.464863000">
        <ele>399.00</ele>
        <time>2016-10-15T05:08:44Z</time>
      </trkpt>
      <trkpt lat="42.459027000" lon="-2.464836000">
        <ele>399.00</ele>
        <time>2016-10-15T05:08:45Z</time>
      </trkpt>
      <trkpt lat="42.459031000" lon="-2.464814000">
        <ele>398.90</ele>
        <time>2016-10-15T05:08:46Z</time>
      </trkpt>
      <trkpt lat="42.459036000" lon="-2.464789000">
        <ele>398.90</ele>
        <time>2016-10-15T05:08:47Z</time>
      </trkpt>
      <trkpt lat="42.459042000" lon="-2.464765000">
        <ele>398.90</ele>
        <time>2016-10-15T05:08:48Z</time>
      </trkpt>
      <trkpt lat="42.459044000" lon="-2.464737000">
        <ele>398.80</ele>
        <time>2016-10-15T05:08:49Z</time>
      </trkpt>
      <trkpt lat="42.459048000" lon="-2.464708000">
        <ele>398.80</ele>
        <time>2016-10-15T05:08:50Z</time>
      </trkpt>
      <trkpt lat="42.459054000" lon="-2.464679000">
        <ele>398.80</ele>
        <time>2016-10-15T05:08:51Z</time>
      </trkpt>
      <trkpt lat="42.459062000" lon="-2.464649000">
        <ele>398.90</ele>
        <time>2016-10-15T05:08:52Z</time>
      </trkpt>
      <trkpt lat="42.459067000" lon="-2.464618000">
        <ele>398.90</ele>
        <time>2016-10-15T05:08:53Z</time>
      </trkpt>
      <trkpt lat="42.459076000" lon="-2.464557000">
        <ele>398.90</ele>
        <time>2016-10-15T05:08:55Z</time>
      </trkpt>
      <trkpt lat="42.459082000" lon="-2.464526000">
        <ele>398.90</ele>
        <time>2016-10-15T05:08:56Z</time>
      </trkpt>
      <trkpt lat="42.459089000" lon="-2.464497000">
        <ele>398.90</ele>
        <time>2016-10-15T05:08:57Z</time>
      </trkpt>
      <trkpt lat="42.459097000" lon="-2.464469000">
        <ele>398.80</ele>
        <time>2016-10-15T05:08:58Z</time>
      </trkpt>
      <trkpt lat="42.459106000" lon="-2.464438000">
        <ele>398.70</ele>
        <time>2016-10-15T05:08:59Z</time>
      </trkpt>
      <trkpt lat="42.459113000" lon="-2.464407000">
        <ele>398.70</ele>
        <time>2016-10-15T05:09:00Z</time>
      </trkpt>
      <trkpt lat="42.459119000" lon="-2.464377000">
        <ele>398.60</ele>
        <time>2016-10-15T05:09:01Z</time>
      </trkpt>
      <trkpt lat="42.459128000" lon="-2.464347000">
        <ele>398.60</ele>
        <time>2016-10-15T05:09:02Z</time>
      </trkpt>
      <trkpt lat="42.459135000" lon="-2.464316000">
        <ele>398.50</ele>
        <time>2016-10-15T05:09:03Z</time>
      </trkpt>
      <trkpt lat="42.459142000" lon="-2.464286000">
        <ele>398.50</ele>
        <time>2016-10-15T05:09:04Z</time>
      </trkpt>
      <trkpt lat="42.459148000" lon="-2.464252000">
        <ele>398.50</ele>
        <time>2016-10-15T05:09:05Z</time>
      </trkpt>
      <trkpt lat="42.459157000" lon="-2.464218000">
        <ele>398.50</ele>
        <time>2016-10-15T05:09:06Z</time>
      </trkpt>
      <trkpt lat="42.459166000" lon="-2.464187000">
        <ele>398.50</ele>
        <time>2016-10-15T05:09:07Z</time>
      </trkpt>
      <trkpt lat="42.459176000" lon="-2.464157000">
        <ele>398.40</ele>
        <time>2016-10-15T05:09:08Z</time>
      </trkpt>
      <trkpt lat="42.459182000" lon="-2.464124000">
        <ele>398.30</ele>
        <time>2016-10-15T05:09:09Z</time>
      </trkpt>
      <trkpt lat="42.459188000" lon="-2.464090000">
        <ele>398.40</ele>
        <time>2016-10-15T05:09:10Z</time>
      </trkpt>
      <trkpt lat="42.459199000" lon="-2.464060000">
        <ele>398.40</ele>
        <time>2016-10-15T05:09:11Z</time>
      </trkpt>
      <trkpt lat="42.459207000" lon="-2.464032000">
        <ele>398.40</ele>
        <time>2016-10-15T05:09:12Z</time>
      </trkpt>
      <trkpt lat="42.459217000" lon="-2.464004000">
        <ele>398.40</ele>
        <time>2016-10-15T05:09:13Z</time>
      </trkpt>
      <trkpt lat="42.459228000" lon="-2.463978000">
        <ele>398.40</ele>
        <time>2016-10-15T05:09:14Z</time>
      </trkpt>
      <trkpt lat="42.459244000" lon="-2.463957000">
        <ele>398.40</ele>
        <time>2016-10-15T05:09:15Z</time>
      </trkpt>
      <trkpt lat="42.459262000" lon="-2.463941000">
        <ele>398.30</ele>
        <time>2016-10-15T05:09:16Z</time>
      </trkpt>
      <trkpt lat="42.459288000" lon="-2.463931000">
        <ele>398.20</ele>
        <time>2016-10-15T05:09:17Z</time>
      </trkpt>
      <trkpt lat="42.459310000" lon="-2.463925000">
        <ele>398.10</ele>
        <time>2016-10-15T05:09:18Z</time>
      </trkpt>
      <trkpt lat="42.459337000" lon="-2.463926000">
        <ele>398.10</ele>
        <time>2016-10-15T05:09:19Z</time>
      </trkpt>
      <trkpt lat="42.459362000" lon="-2.463932000">
        <ele>398.20</ele>
        <time>2016-10-15T05:09:20Z</time>
      </trkpt>
      <trkpt lat="42.459385000" lon="-2.463940000">
        <ele>398.30</ele>
        <time>2016-10-15T05:09:21Z</time>
      </trkpt>
      <trkpt lat="42.459408000" lon="-2.463948000">
        <ele>398.40</ele>
        <time>2016-10-15T05:09:22Z</time>
      </trkpt>
      <trkpt lat="42.459438000" lon="-2.463958000">
        <ele>398.40</ele>
        <time>2016-10-15T05:09:23Z</time>
      </trkpt>
      <trkpt lat="42.459465000" lon="-2.463969000">
        <ele>398.50</ele>
        <time>2016-10-15T05:09:24Z</time>
      </trkpt>
      <trkpt lat="42.459490000" lon="-2.463980000">
        <ele>398.50</ele>
        <time>2016-10-15T05:09:25Z</time>
      </trkpt>
      <trkpt lat="42.459515000" lon="-2.463993000">
        <ele>398.60</ele>
        <time>2016-10-15T05:09:26Z</time>
      </trkpt>
      <trkpt lat="42.459540000" lon="-2.464003000">
        <ele>398.70</ele>
        <time>2016-10-15T05:09:27Z</time>
      </trkpt>
      <trkpt lat="42.459567000" lon="-2.464013000">
        <ele>398.70</ele>
        <time>2016-10-15T05:09:28Z</time>
      </trkpt>
      <trkpt lat="42.459592000" lon="-2.464020000">
        <ele>398.80</ele>
        <time>2016-10-15T05:09:29Z</time>
      </trkpt>
      <trkpt lat="42.459618000" lon="-2.464032000">
        <ele>398.90</ele>
        <time>2016-10-15T05:09:30Z</time>
      </trkpt>
      <trkpt lat="42.459645000" lon="-2.464040000">
        <ele>399.00</ele>
        <time>2016-10-15T05:09:31Z</time>
      </trkpt>
      <trkpt lat="42.459666000" lon="-2.464047000">
        <ele>399.10</ele>
        <time>2016-10-15T05:09:32Z</time>
      </trkpt>
      <trkpt lat="42.459694000" lon="-2.464055000">
        <ele>399.10</ele>
        <time>2016-10-15T05:09:33Z</time>
      </trkpt>
      <trkpt lat="42.459726000" lon="-2.464059000">
        <ele>399.10</ele>
        <time>2016-10-15T05:09:34Z</time>
      </trkpt>
      <trkpt lat="42.459757000" lon="-2.464060000">
        <ele>399.10</ele>
        <time>2016-10-15T05:09:35Z</time>
      </trkpt>
      <trkpt lat="42.459786000" lon="-2.464065000">
        <ele>399.00</ele>
        <time>2016-10-15T05:09:36Z</time>
      </trkpt>
      <trkpt lat="42.459818000" lon="-2.464058000">
        <ele>399.00</ele>
        <time>2016-10-15T05:09:37Z</time>
      </trkpt>
      <trkpt lat="42.459851000" lon="-2.464050000">
        <ele>398.90</ele>
        <time>2016-10-15T05:09:38Z</time>
      </trkpt>
      <trkpt lat="42.459884000" lon="-2.464038000">
        <ele>398.80</ele>
        <time>2016-10-15T05:09:39Z</time>
      </trkpt>
      <trkpt lat="42.459912000" lon="-2.464024000">
        <ele>398.70</ele>
        <time>2016-10-15T05:09:40Z</time>
      </trkpt>
      <trkpt lat="42.459939000" lon="-2.464006000">
        <ele>398.70</ele>
        <time>2016-10-15T05:09:41Z</time>
      </trkpt>
      <trkpt lat="42.459971000" lon="-2.463988000">
        <ele>398.60</ele>
        <time>2016-10-15T05:09:42Z</time>
      </trkpt>
      <trkpt lat="42.460004000" lon="-2.463971000">
        <ele>398.60</ele>
        <time>2016-10-15T05:09:43Z</time>
      </trkpt>
      <trkpt lat="42.460039000" lon="-2.463954000">
        <ele>398.50</ele>
        <time>2016-10-15T05:09:44Z</time>
      </trkpt>
      <trkpt lat="42.460075000" lon="-2.463936000">
        <ele>398.30</ele>
        <time>2016-10-15T05:09:45Z</time>
      </trkpt>
      <trkpt lat="42.460110000" lon="-2.463914000">
        <ele>398.20</ele>
        <time>2016-10-15T05:09:46Z</time>
      </trkpt>
      <trkpt lat="42.460148000" lon="-2.463892000">
        <ele>398.10</ele>
        <time>2016-10-15T05:09:47Z</time>
      </trkpt>
      <trkpt lat="42.460187000" lon="-2.463869000">
        <ele>397.90</ele>
        <time>2016-10-15T05:09:48Z</time>
      </trkpt>
      <trkpt lat="42.460226000" lon="-2.463846000">
        <ele>397.70</ele>
        <time>2016-10-15T05:09:49Z</time>
      </trkpt>
      <trkpt lat="42.460267000" lon="-2.463822000">
        <ele>397.40</ele>
        <time>2016-10-15T05:09:50Z</time>
      </trkpt>
      <trkpt lat="42.460306000" lon="-2.463800000">
        <ele>397.20</ele>
        <time>2016-10-15T05:09:51Z</time>
      </trkpt>
      <trkpt lat="42.460348000" lon="-2.463773000">
        <ele>396.90</ele>
        <time>2016-10-15T05:09:52Z</time>
      </trkpt>
      <trkpt lat="42.460393000" lon="-2.463748000">
        <ele>396.70</ele>
        <time>2016-10-15T05:09:53Z</time>
      </trkpt>
      <trkpt lat="42.460437000" lon="-2.463722000">
        <ele>396.20</ele>
        <time>2016-10-15T05:09:54Z</time>
      </trkpt>
      <trkpt lat="42.460526000" lon="-2.463669000">
        <ele>395.30</ele>
        <time>2016-10-15T05:09:56Z</time>
      </trkpt>
      <trkpt lat="42.460571000" lon="-2.463639000">
        <ele>394.90</ele>
        <time>2016-10-15T05:09:57Z</time>
      </trkpt>
      <trkpt lat="42.460616000" lon="-2.463609000">
        <ele>394.70</ele>
        <time>2016-10-15T05:09:58Z</time>
      </trkpt>
      <trkpt lat="42.460660000" lon="-2.463581000">
        <ele>394.50</ele>
        <time>2016-10-15T05:09:59Z</time>
      </trkpt>
      <trkpt lat="42.460704000" lon="-2.463555000">
        <ele>394.00</ele>
        <time>2016-10-15T05:10:00Z</time>
      </trkpt>
      <trkpt lat="42.460740000" lon="-2.463545000">
        <ele>393.60</ele>
        <time>2016-10-15T05:10:01Z</time>
      </trkpt>
      <trkpt lat="42.460771000" lon="-2.463555000">
        <ele>393.20</ele>
        <time>2016-10-15T05:10:02Z</time>
      </trkpt>
      <trkpt lat="42.460791000" lon="-2.463565000">
        <ele>392.80</ele>
        <time>2016-10-15T05:10:03Z</time>
      </trkpt>
      <trkpt lat="42.460814000" lon="-2.463583000">
        <ele>392.60</ele>
        <time>2016-10-15T05:10:04Z</time>
      </trkpt>
      <trkpt lat="42.460841000" lon="-2.463601000">
        <ele>392.40</ele>
        <time>2016-10-15T05:10:05Z</time>
      </trkpt>
      <trkpt lat="42.460871000" lon="-2.463622000">
        <ele>392.20</ele>
        <time>2016-10-15T05:10:06Z</time>
      </trkpt>
      <trkpt lat="42.460908000" lon="-2.463636000">
        <ele>392.10</ele>
        <time>2016-10-15T05:10:07Z</time>
      </trkpt>
      <trkpt lat="42.460943000" lon="-2.463650000">
        <ele>392.00</ele>
        <time>2016-10-15T05:10:08Z</time>
      </trkpt>
      <trkpt lat="42.460975000" lon="-2.463663000">
        <ele>391.90</ele>
        <time>2016-10-15T05:10:09Z</time>
      </trkpt>
      <trkpt lat="42.461009000" lon="-2.463681000">
        <ele>391.70</ele>
        <time>2016-10-15T05:10:10Z</time>
      </trkpt>
      <trkpt lat="42.461049000" lon="-2.463694000">
        <ele>391.60</ele>
        <time>2016-10-15T05:10:11Z</time>
      </trkpt>
      <trkpt lat="42.461088000" lon="-2.463707000">
        <ele>391.50</ele>
        <time>2016-10-15T05:10:12Z</time>
      </trkpt>
      <trkpt lat="42.461125000" lon="-2.463721000">
        <ele>391.40</ele>
        <time>2016-10-15T05:10:13Z</time>
      </trkpt>
      <trkpt lat="42.461157000" lon="-2.463728000">
        <ele>391.40</ele>
        <time>2016-10-15T05:10:14Z</time>
      </trkpt>
      <trkpt lat="42.461185000" lon="-2.463737000">
        <ele>391.40</ele>
        <time>2016-10-15T05:10:15Z</time>
      </trkpt>
      <trkpt lat="42.461208000" lon="-2.463745000">
        <ele>391.40</ele>
        <time>2016-10-15T05:10:16Z</time>
      </trkpt>
      <trkpt lat="42.461232000" lon="-2.463754000">
        <ele>391.40</ele>
        <time>2016-10-15T05:10:17Z</time>
      </trkpt>
      <trkpt lat="42.461255000" lon="-2.463764000">
        <ele>391.40</ele>
        <time>2016-10-15T05:10:18Z</time>
      </trkpt>
      <trkpt lat="42.461282000" lon="-2.463770000">
        <ele>391.30</ele>
        <time>2016-10-15T05:10:19Z</time>
      </trkpt>
      <trkpt lat="42.461308000" lon="-2.463778000">
        <ele>391.30</ele>
        <time>2016-10-15T05:10:20Z</time>
      </trkpt>
      <trkpt lat="42.461335000" lon="-2.463784000">
        <ele>391.20</ele>
        <time>2016-10-15T05:10:21Z</time>
      </trkpt>
      <trkpt lat="42.461361000" lon="-2.463798000">
        <ele>391.30</ele>
        <time>2016-10-15T05:10:22Z</time>
      </trkpt>
      <trkpt lat="42.461388000" lon="-2.463813000">
        <ele>391.30</ele>
        <time>2016-10-15T05:10:23Z</time>
      </trkpt>
      <trkpt lat="42.461415000" lon="-2.463826000">
        <ele>391.40</ele>
        <time>2016-10-15T05:10:24Z</time>
      </trkpt>
      <trkpt lat="42.461443000" lon="-2.463838000">
        <ele>391.40</ele>
        <time>2016-10-15T05:10:25Z</time>
      </trkpt>
      <trkpt lat="42.461470000" lon="-2.463850000">
        <ele>391.40</ele>
        <time>2016-10-15T05:10:26Z</time>
      </trkpt>
      <trkpt lat="42.461499000" lon="-2.463862000">
        <ele>391.40</ele>
        <time>2016-10-15T05:10:27Z</time>
      </trkpt>
      <trkpt lat="42.461526000" lon="-2.463875000">
        <ele>391.20</ele>
        <time>2016-10-15T05:10:28Z</time>
      </trkpt>
      <trkpt lat="42.461553000" lon="-2.463884000">
        <ele>391.00</ele>
        <time>2016-10-15T05:10:29Z</time>
      </trkpt>
      <trkpt lat="42.461578000" lon="-2.463894000">
        <ele>390.90</ele>
        <time>2016-10-15T05:10:30Z</time>
      </trkpt>
      <trkpt lat="42.461604000" lon="-2.463903000">
        <ele>390.80</ele>
        <time>2016-10-15T05:10:31Z</time>
      </trkpt>
      <trkpt lat="42.461631000" lon="-2.463915000">
        <ele>390.80</ele>
        <time>2016-10-15T05:10:32Z</time>
      </trkpt>
      <trkpt lat="42.461653000" lon="-2.463931000">
        <ele>390.70</ele>
        <time>2016-10-15T05:10:33Z</time>
      </trkpt>
      <trkpt lat="42.461674000" lon="-2.463959000">
        <ele>390.70</ele>
        <time>2016-10-15T05:10:34Z</time>
      </trkpt>
      <trkpt lat="42.461701000" lon="-2.463974000">
        <ele>390.60</ele>
        <time>2016-10-15T05:10:35Z</time>
      </trkpt>
      <trkpt lat="42.461729000" lon="-2.463988000">
        <ele>390.80</ele>
        <time>2016-10-15T05:10:36Z</time>
      </trkpt>
      <trkpt lat="42.461756000" lon="-2.464003000">
        <ele>390.80</ele>
        <time>2016-10-15T05:10:37Z</time>
      </trkpt>
      <trkpt lat="42.461783000" lon="-2.464019000">
        <ele>390.70</ele>
        <time>2016-10-15T05:10:38Z</time>
      </trkpt>
      <trkpt lat="42.461812000" lon="-2.464031000">
        <ele>390.70</ele>
        <time>2016-10-15T05:10:39Z</time>
      </trkpt>
      <trkpt lat="42.461841000" lon="-2.464043000">
        <ele>390.80</ele>
        <time>2016-10-15T05:10:40Z</time>
      </trkpt>
      <trkpt lat="42.461870000" lon="-2.464060000">
        <ele>390.90</ele>
        <time>2016-10-15T05:10:41Z</time>
      </trkpt>
      <trkpt lat="42.461899000" lon="-2.464076000">
        <ele>390.80</ele>
        <time>2016-10-15T05:10:42Z</time>
      </trkpt>
      <trkpt lat="42.461928000" lon="-2.464089000">
        <ele>390.70</ele>
        <time>2016-10-15T05:10:43Z</time>
      </trkpt>
      <trkpt lat="42.461955000" lon="-2.464102000">
        <ele>390.70</ele>
        <time>2016-10-15T05:10:44Z</time>
      </trkpt>
      <trkpt lat="42.461984000" lon="-2.464118000">
        <ele>390.70</ele>
        <time>2016-10-15T05:10:45Z</time>
      </trkpt>
      <trkpt lat="42.462012000" lon="-2.464133000">
        <ele>390.70</ele>
        <time>2016-10-15T05:10:46Z</time>
      </trkpt>
      <trkpt lat="42.462043000" lon="-2.464146000">
        <ele>390.70</ele>
        <time>2016-10-15T05:10:47Z</time>
      </trkpt>
      <trkpt lat="42.462076000" lon="-2.464157000">
        <ele>390.70</ele>
        <time>2016-10-15T05:10:48Z</time>
      </trkpt>
      <trkpt lat="42.462106000" lon="-2.464169000">
        <ele>390.70</ele>
        <time>2016-10-15T05:10:49Z</time>
      </trkpt>
      <trkpt lat="42.462137000" lon="-2.464178000">
        <ele>390.80</ele>
        <time>2016-10-15T05:10:50Z</time>
      </trkpt>
      <trkpt lat="42.462165000" lon="-2.464191000">
        <ele>390.90</ele>
        <time>2016-10-15T05:10:51Z</time>
      </trkpt>
      <trkpt lat="42.462193000" lon="-2.464201000">
        <ele>390.80</ele>
        <time>2016-10-15T05:10:52Z</time>
      </trkpt>
      <trkpt lat="42.462225000" lon="-2.464213000">
        <ele>390.80</ele>
        <time>2016-10-15T05:10:53Z</time>
      </trkpt>
      <trkpt lat="42.462257000" lon="-2.464225000">
        <ele>390.80</ele>
        <time>2016-10-15T05:10:54Z</time>
      </trkpt>
      <trkpt lat="42.462286000" lon="-2.464233000">
        <ele>390.80</ele>
        <time>2016-10-15T05:10:55Z</time>
      </trkpt>
      <trkpt lat="42.462348000" lon="-2.464257000">
        <ele>390.80</ele>
        <time>2016-10-15T05:10:57Z</time>
      </trkpt>
      <trkpt lat="42.462376000" lon="-2.464271000">
        <ele>390.90</ele>
        <time>2016-10-15T05:10:58Z</time>
      </trkpt>
      <trkpt lat="42.462405000" lon="-2.464286000">
        <ele>390.90</ele>
        <time>2016-10-15T05:10:59Z</time>
      </trkpt>
      <trkpt lat="42.462434000" lon="-2.464300000">
        <ele>391.00</ele>
        <time>2016-10-15T05:11:00Z</time>
      </trkpt>
      <trkpt lat="42.462464000" lon="-2.464311000">
        <ele>391.00</ele>
        <time>2016-10-15T05:11:01Z</time>
      </trkpt>
      <trkpt lat="42.462495000" lon="-2.464324000">
        <ele>391.10</ele>
        <time>2016-10-15T05:11:02Z</time>
      </trkpt>
      <trkpt lat="42.462524000" lon="-2.464337000">
        <ele>391.10</ele>
        <time>2016-10-15T05:11:03Z</time>
      </trkpt>
      <trkpt lat="42.462551000" lon="-2.464351000">
        <ele>391.10</ele>
        <time>2016-10-15T05:11:04Z</time>
      </trkpt>
      <trkpt lat="42.462576000" lon="-2.464370000">
        <ele>391.10</ele>
        <time>2016-10-15T05:11:05Z</time>
      </trkpt>
      <trkpt lat="42.462602000" lon="-2.464380000">
        <ele>391.00</ele>
        <time>2016-10-15T05:11:06Z</time>
      </trkpt>
      <trkpt lat="42.462627000" lon="-2.464391000">
        <ele>390.90</ele>
        <time>2016-10-15T05:11:07Z</time>
      </trkpt>
      <trkpt lat="42.462650000" lon="-2.464403000">
        <ele>390.90</ele>
        <time>2016-10-15T05:11:08Z</time>
      </trkpt>
      <trkpt lat="42.462677000" lon="-2.464407000">
        <ele>390.80</ele>
        <time>2016-10-15T05:11:09Z</time>
      </trkpt>
      <trkpt lat="42.462699000" lon="-2.464410000">
        <ele>390.80</ele>
        <time>2016-10-15T05:11:10Z</time>
      </trkpt>
      <trkpt lat="42.462718000" lon="-2.464413000">
        <ele>390.70</ele>
        <time>2016-10-15T05:11:11Z</time>
      </trkpt>
      <trkpt lat="42.462738000" lon="-2.464419000">
        <ele>390.80</ele>
        <time>2016-10-15T05:11:12Z</time>
      </trkpt>
      <trkpt lat="42.462755000" lon="-2.464428000">
        <ele>390.90</ele>
        <time>2016-10-15T05:11:13Z</time>
      </trkpt>
      <trkpt lat="42.462772000" lon="-2.464432000">
        <ele>390.90</ele>
        <time>2016-10-15T05:11:14Z</time>
      </trkpt>
      <trkpt lat="42.462788000" lon="-2.464434000">
        <ele>391.00</ele>
        <time>2016-10-15T05:11:15Z</time>
      </trkpt>
      <trkpt lat="42.462806000" lon="-2.464435000">
        <ele>391.00</ele>
        <time>2016-10-15T05:11:16Z</time>
      </trkpt>
      <trkpt lat="42.462825000" lon="-2.464422000">
        <ele>391.00</ele>
        <time>2016-10-15T05:11:17Z</time>
      </trkpt>
      <trkpt lat="42.462844000" lon="-2.464401000">
        <ele>391.00</ele>
        <time>2016-10-15T05:11:18Z</time>
      </trkpt>
      <trkpt lat="42.462860000" lon="-2.464371000">
        <ele>391.00</ele>
        <time>2016-10-15T05:11:19Z</time>
      </trkpt>
      <trkpt lat="42.462875000" lon="-2.464341000">
        <ele>391.20</ele>
        <time>2016-10-15T05:11:20Z</time>
      </trkpt>
      <trkpt lat="42.462881000" lon="-2.464313000">
        <ele>391.30</ele>
        <time>2016-10-15T05:11:21Z</time>
      </trkpt>
      <trkpt lat="42.462887000" lon="-2.464293000">
        <ele>391.30</ele>
        <time>2016-10-15T05:11:22Z</time>
      </trkpt>
      <trkpt lat="42.462892000" lon="-2.464272000">
        <ele>391.40</ele>
        <time>2016-10-15T05:11:23Z</time>
      </trkpt>
      <trkpt lat="42.462896000" lon="-2.464250000">
        <ele>391.40</ele>
        <time>2016-10-15T05:11:24Z</time>
      </trkpt>
      <trkpt lat="42.462899000" lon="-2.464243000">
        <ele>391.40</ele>
        <time>2016-10-15T05:11:25Z</time>
      </trkpt>
      <trkpt lat="42.462899000" lon="-2.464237000">
        <ele>391.40</ele>
        <time>2016-10-15T05:11:26Z</time>
      </trkpt>
      <trkpt lat="42.462896000" lon="-2.464236000">
        <ele>391.40</ele>
        <time>2016-10-15T05:11:27Z</time>
      </trkpt>
      <trkpt lat="42.462898000" lon="-2.464233000">
        <ele>391.30</ele>
        <time>2016-10-15T05:11:28Z</time>
      </trkpt>
      <trkpt lat="42.462898000" lon="-2.464234000">
        <ele>391.20</ele>
        <time>2016-10-15T05:11:29Z</time>
      </trkpt>
      <trkpt lat="42.462899000" lon="-2.464235000">
        <ele>391.10</ele>
        <time>2016-10-15T05:11:30Z</time>
      </trkpt>
      <trkpt lat="42.462904000" lon="-2.464238000">
        <ele>391.10</ele>
        <time>2016-10-15T05:11:31Z</time>
      </trkpt>
      <trkpt lat="42.462907000" lon="-2.464241000">
        <ele>391.20</ele>
        <time>2016-10-15T05:11:32Z</time>
      </trkpt>
      <trkpt lat="42.462908000" lon="-2.464244000">
        <ele>391.30</ele>
        <time>2016-10-15T05:11:33Z</time>
      </trkpt>
      <trkpt lat="42.462908000" lon="-2.464246000">
        <ele>391.30</ele>
        <time>2016-10-15T05:11:34Z</time>
      </trkpt>
      <trkpt lat="42.462906000" lon="-2.464249000">
        <ele>391.40</ele>
        <time>2016-10-15T05:11:35Z</time>
      </trkpt>
      <trkpt lat="42.462905000" lon="-2.464255000">
        <ele>391.30</ele>
        <time>2016-10-15T05:11:36Z</time>
      </trkpt>
      <trkpt lat="42.462901000" lon="-2.464259000">
        <ele>391.30</ele>
        <time>2016-10-15T05:11:37Z</time>
      </trkpt>
      <trkpt lat="42.462899000" lon="-2.464262000">
        <ele>391.30</ele>
        <time>2016-10-15T05:11:38Z</time>
      </trkpt>
      <trkpt lat="42.462895000" lon="-2.464259000">
        <ele>391.20</ele>
        <time>2016-10-15T05:11:39Z</time>
      </trkpt>
      <trkpt lat="42.462891000" lon="-2.464259000">
        <ele>391.20</ele>
        <time>2016-10-15T05:11:40Z</time>
      </trkpt>
      <trkpt lat="42.462887000" lon="-2.464257000">
        <ele>391.20</ele>
        <time>2016-10-15T05:11:41Z</time>
      </trkpt>
      <trkpt lat="42.462884000" lon="-2.464254000">
        <ele>391.30</ele>
        <time>2016-10-15T05:11:42Z</time>
      </trkpt>
      <trkpt lat="42.462882000" lon="-2.464248000">
        <ele>391.30</ele>
        <time>2016-10-15T05:11:43Z</time>
      </trkpt>
      <trkpt lat="42.462879000" lon="-2.464243000">
        <ele>391.30</ele>
        <time>2016-10-15T05:11:44Z</time>
      </trkpt>
      <trkpt lat="42.462878000" lon="-2.464238000">
        <ele>391.40</ele>
        <time>2016-10-15T05:11:45Z</time>
      </trkpt>
      <trkpt lat="42.462876000" lon="-2.464234000">
        <ele>391.40</ele>
        <time>2016-10-15T05:11:46Z</time>
      </trkpt>
      <trkpt lat="42.462887000" lon="-2.464216000">
        <ele>391.40</ele>
        <time>2016-10-15T05:11:47Z</time>
      </trkpt>
      <trkpt lat="42.462894000" lon="-2.464197000">
        <ele>391.20</ele>
        <time>2016-10-15T05:11:48Z</time>
      </trkpt>
      <trkpt lat="42.462896000" lon="-2.464176000">
        <ele>391.10</ele>
        <time>2016-10-15T05:11:49Z</time>
      </trkpt>
      <trkpt lat="42.462899000" lon="-2.464155000">
        <ele>391.00</ele>
        <time>2016-10-15T05:11:50Z</time>
      </trkpt>
      <trkpt lat="42.462907000" lon="-2.464125000">
        <ele>391.00</ele>
        <time>2016-10-15T05:11:51Z</time>
      </trkpt>
      <trkpt lat="42.462918000" lon="-2.464093000">
        <ele>391.10</ele>
        <time>2016-10-15T05:11:52Z</time>
      </trkpt>
      <trkpt lat="42.462929000" lon="-2.464058000">
        <ele>391.20</ele>
        <time>2016-10-15T05:11:53Z</time>
      </trkpt>
      <trkpt lat="42.462941000" lon="-2.464021000">
        <ele>391.30</ele>
        <time>2016-10-15T05:11:54Z</time>
      </trkpt>
      <trkpt lat="42.462949000" lon="-2.463980000">
        <ele>391.30</ele>
        <time>2016-10-15T05:11:55Z</time>
      </trkpt>
      <trkpt lat="42.462958000" lon="-2.463943000">
        <ele>391.30</ele>
        <time>2016-10-15T05:11:56Z</time>
      </trkpt>
      <trkpt lat="42.462981000" lon="-2.463867000">
        <ele>391.20</ele>
        <time>2016-10-15T05:11:58Z</time>
      </trkpt>
      <trkpt lat="42.462997000" lon="-2.463830000">
        <ele>391.20</ele>
        <time>2016-10-15T05:11:59Z</time>
      </trkpt>
      <trkpt lat="42.463009000" lon="-2.463790000">
        <ele>391.10</ele>
        <time>2016-10-15T05:12:00Z</time>
      </trkpt>
      <trkpt lat="42.463021000" lon="-2.463750000">
        <ele>391.10</ele>
        <time>2016-10-15T05:12:01Z</time>
      </trkpt>
      <trkpt lat="42.463034000" lon="-2.463708000">
        <ele>391.00</ele>
        <time>2016-10-15T05:12:02Z</time>
      </trkpt>
      <trkpt lat="42.463047000" lon="-2.463669000">
        <ele>390.90</ele>
        <time>2016-10-15T05:12:03Z</time>
      </trkpt>
      <trkpt lat="42.463056000" lon="-2.463627000">
        <ele>390.90</ele>
        <time>2016-10-15T05:12:04Z</time>
      </trkpt>
      <trkpt lat="42.463067000" lon="-2.463583000">
        <ele>390.90</ele>
        <time>2016-10-15T05:12:05Z</time>
      </trkpt>
      <trkpt lat="42.463078000" lon="-2.463538000">
        <ele>390.80</ele>
        <time>2016-10-15T05:12:06Z</time>
      </trkpt>
      <trkpt lat="42.463091000" lon="-2.463493000">
        <ele>390.80</ele>
        <time>2016-10-15T05:12:07Z</time>
      </trkpt>
      <trkpt lat="42.463106000" lon="-2.463447000">
        <ele>390.80</ele>
        <time>2016-10-15T05:12:08Z</time>
      </trkpt>
      <trkpt lat="42.463120000" lon="-2.463399000">
        <ele>390.80</ele>
        <time>2016-10-15T05:12:09Z</time>
      </trkpt>
      <trkpt lat="42.463130000" lon="-2.463349000">
        <ele>390.70</ele>
        <time>2016-10-15T05:12:10Z</time>
      </trkpt>
      <trkpt lat="42.463142000" lon="-2.463298000">
        <ele>390.70</ele>
        <time>2016-10-15T05:12:11Z</time>
      </trkpt>
      <trkpt lat="42.463152000" lon="-2.463245000">
        <ele>390.70</ele>
        <time>2016-10-15T05:12:12Z</time>
      </trkpt>
      <trkpt lat="42.463165000" lon="-2.463190000">
        <ele>390.70</ele>
        <time>2016-10-15T05:12:13Z</time>
      </trkpt>
      <trkpt lat="42.463175000" lon="-2.463134000">
        <ele>390.70</ele>
        <time>2016-10-15T05:12:14Z</time>
      </trkpt>
      <trkpt lat="42.463195000" lon="-2.463078000">
        <ele>390.70</ele>
        <time>2016-10-15T05:12:15Z</time>
      </trkpt>
      <trkpt lat="42.463214000" lon="-2.463024000">
        <ele>390.30</ele>
        <time>2016-10-15T05:12:16Z</time>
      </trkpt>
      <trkpt lat="42.463236000" lon="-2.462967000">
        <ele>390.10</ele>
        <time>2016-10-15T05:12:17Z</time>
      </trkpt>
      <trkpt lat="42.463257000" lon="-2.462908000">
        <ele>389.90</ele>
        <time>2016-10-15T05:12:18Z</time>
      </trkpt>
      <trkpt lat="42.463280000" lon="-2.462844000">
        <ele>389.80</ele>
        <time>2016-10-15T05:12:19Z</time>
      </trkpt>
      <trkpt lat="42.463298000" lon="-2.462775000">
        <ele>389.70</ele>
        <time>2016-10-15T05:12:20Z</time>
      </trkpt>
      <trkpt lat="42.463319000" lon="-2.462711000">
        <ele>389.60</ele>
        <time>2016-10-15T05:12:21Z</time>
      </trkpt>
      <trkpt lat="42.463343000" lon="-2.462655000">
        <ele>389.50</ele>
        <time>2016-10-15T05:12:22Z</time>
      </trkpt>
      <trkpt lat="42.463366000" lon="-2.462605000">
        <ele>389.50</ele>
        <time>2016-10-15T05:12:23Z</time>
      </trkpt>
      <trkpt lat="42.463385000" lon="-2.462562000">
        <ele>389.40</ele>
        <time>2016-10-15T05:12:24Z</time>
      </trkpt>
      <trkpt lat="42.463400000" lon="-2.462529000">
        <ele>389.30</ele>
        <time>2016-10-15T05:12:25Z</time>
      </trkpt>
      <trkpt lat="42.463414000" lon="-2.462502000">
        <ele>389.00</ele>
        <time>2016-10-15T05:12:26Z</time>
      </trkpt>
      <trkpt lat="42.463421000" lon="-2.462483000">
        <ele>388.80</ele>
        <time>2016-10-15T05:12:27Z</time>
      </trkpt>
      <trkpt lat="42.463426000" lon="-2.462466000">
        <ele>388.70</ele>
        <time>2016-10-15T05:12:28Z</time>
      </trkpt>
      <trkpt lat="42.463427000" lon="-2.462448000">
        <ele>388.60</ele>
        <time>2016-10-15T05:12:29Z</time>
      </trkpt>
      <trkpt lat="42.463424000" lon="-2.462422000">
        <ele>388.50</ele>
        <time>2016-10-15T05:12:30Z</time>
      </trkpt>
      <trkpt lat="42.463423000" lon="-2.462393000">
        <ele>388.50</ele>
        <time>2016-10-15T05:12:31Z</time>
      </trkpt>
      <trkpt lat="42.463420000" lon="-2.462354000">
        <ele>388.40</ele>
        <time>2016-10-15T05:12:32Z</time>
      </trkpt>
      <trkpt lat="42.463406000" lon="-2.462309000">
        <ele>388.40</ele>
        <time>2016-10-15T05:12:33Z</time>
      </trkpt>
      <trkpt lat="42.463393000" lon="-2.462268000">
        <ele>388.30</ele>
        <time>2016-10-15T05:12:34Z</time>
      </trkpt>
      <trkpt lat="42.463383000" lon="-2.462234000">
        <ele>388.20</ele>
        <time>2016-10-15T05:12:35Z</time>
      </trkpt>
      <trkpt lat="42.463368000" lon="-2.462191000">
        <ele>388.10</ele>
        <time>2016-10-15T05:12:36Z</time>
      </trkpt>
      <trkpt lat="42.463361000" lon="-2.462142000">
        <ele>388.00</ele>
        <time>2016-10-15T05:12:37Z</time>
      </trkpt>
      <trkpt lat="42.463369000" lon="-2.462091000">
        <ele>387.90</ele>
        <time>2016-10-15T05:12:38Z</time>
      </trkpt>
      <trkpt lat="42.463389000" lon="-2.462051000">
        <ele>387.90</ele>
        <time>2016-10-15T05:12:39Z</time>
      </trkpt>
      <trkpt lat="42.463422000" lon="-2.462023000">
        <ele>387.80</ele>
        <time>2016-10-15T05:12:40Z</time>
      </trkpt>
      <trkpt lat="42.463462000" lon="-2.462007000">
        <ele>387.80</ele>
        <time>2016-10-15T05:12:41Z</time>
      </trkpt>
      <trkpt lat="42.463502000" lon="-2.462008000">
        <ele>387.80</ele>
        <time>2016-10-15T05:12:42Z</time>
      </trkpt>
      <trkpt lat="42.463538000" lon="-2.462027000">
        <ele>387.80</ele>
        <time>2016-10-15T05:12:43Z</time>
      </trkpt>
      <trkpt lat="42.463568000" lon="-2.462056000">
        <ele>387.70</ele>
        <time>2016-10-15T05:12:44Z</time>
      </trkpt>
      <trkpt lat="42.463596000" lon="-2.462091000">
        <ele>387.60</ele>
        <time>2016-10-15T05:12:45Z</time>
      </trkpt>
      <trkpt lat="42.463621000" lon="-2.462130000">
        <ele>387.50</ele>
        <time>2016-10-15T05:12:46Z</time>
      </trkpt>
      <trkpt lat="42.463651000" lon="-2.462161000">
        <ele>387.40</ele>
        <time>2016-10-15T05:12:47Z</time>
      </trkpt>
      <trkpt lat="42.463683000" lon="-2.462188000">
        <ele>387.20</ele>
        <time>2016-10-15T05:12:48Z</time>
      </trkpt>
      <trkpt lat="42.463721000" lon="-2.462210000">
        <ele>387.10</ele>
        <time>2016-10-15T05:12:49Z</time>
      </trkpt>
      <trkpt lat="42.463758000" lon="-2.462230000">
        <ele>387.00</ele>
        <time>2016-10-15T05:12:50Z</time>
      </trkpt>
      <trkpt lat="42.463796000" lon="-2.462252000">
        <ele>386.90</ele>
        <time>2016-10-15T05:12:51Z</time>
      </trkpt>
      <trkpt lat="42.463834000" lon="-2.462275000">
        <ele>386.90</ele>
        <time>2016-10-15T05:12:52Z</time>
      </trkpt>
      <trkpt lat="42.463873000" lon="-2.462297000">
        <ele>386.80</ele>
        <time>2016-10-15T05:12:53Z</time>
      </trkpt>
      <trkpt lat="42.463914000" lon="-2.462321000">
        <ele>386.70</ele>
        <time>2016-10-15T05:12:54Z</time>
      </trkpt>
      <trkpt lat="42.463956000" lon="-2.462341000">
        <ele>386.60</ele>
        <time>2016-10-15T05:12:55Z</time>
      </trkpt>
      <trkpt lat="42.463998000" lon="-2.462359000">
        <ele>386.60</ele>
        <time>2016-10-15T05:12:56Z</time>
      </trkpt>
      <trkpt lat="42.464043000" lon="-2.462374000">
        <ele>386.60</ele>
        <time>2016-10-15T05:12:57Z</time>
      </trkpt>
      <trkpt lat="42.464135000" lon="-2.462413000">
        <ele>386.60</ele>
        <time>2016-10-15T05:12:59Z</time>
      </trkpt>
      <trkpt lat="42.464184000" lon="-2.462426000">
        <ele>386.60</ele>
        <time>2016-10-15T05:13:00Z</time>
      </trkpt>
      <trkpt lat="42.464231000" lon="-2.462447000">
        <ele>386.60</ele>
        <time>2016-10-15T05:13:01Z</time>
      </trkpt>
      <trkpt lat="42.464280000" lon="-2.462459000">
        <ele>386.50</ele>
        <time>2016-10-15T05:13:02Z</time>
      </trkpt>
      <trkpt lat="42.464326000" lon="-2.462478000">
        <ele>386.40</ele>
        <time>2016-10-15T05:13:03Z</time>
      </trkpt>
      <trkpt lat="42.464374000" lon="-2.462494000">
        <ele>386.30</ele>
        <time>2016-10-15T05:13:04Z</time>
      </trkpt>
      <trkpt lat="42.464421000" lon="-2.462513000">
        <ele>386.20</ele>
        <time>2016-10-15T05:13:05Z</time>
      </trkpt>
      <trkpt lat="42.464467000" lon="-2.462530000">
        <ele>386.20</ele>
        <time>2016-10-15T05:13:06Z</time>
      </trkpt>
      <trkpt lat="42.464512000" lon="-2.462550000">
        <ele>386.20</ele>
        <time>2016-10-15T05:13:07Z</time>
      </trkpt>
      <trkpt lat="42.464559000" lon="-2.462569000">
        <ele>386.10</ele>
        <time>2016-10-15T05:13:08Z</time>
      </trkpt>
      <trkpt lat="42.464605000" lon="-2.462590000">
        <ele>386.10</ele>
        <time>2016-10-15T05:13:09Z</time>
      </trkpt>
      <trkpt lat="42.464646000" lon="-2.462611000">
        <ele>385.90</ele>
        <time>2016-10-15T05:13:10Z</time>
      </trkpt>
      <trkpt lat="42.464685000" lon="-2.462634000">
        <ele>385.80</ele>
        <time>2016-10-15T05:13:11Z</time>
      </trkpt>
      <trkpt lat="42.464727000" lon="-2.462654000">
        <ele>385.70</ele>
        <time>2016-10-15T05:13:12Z</time>
      </trkpt>
      <trkpt lat="42.464766000" lon="-2.462669000">
        <ele>385.70</ele>
        <time>2016-10-15T05:13:13Z</time>
      </trkpt>
      <trkpt lat="42.464808000" lon="-2.462681000">
        <ele>385.60</ele>
        <time>2016-10-15T05:13:14Z</time>
      </trkpt>
      <trkpt lat="42.464847000" lon="-2.462691000">
        <ele>385.60</ele>
        <time>2016-10-15T05:13:15Z</time>
      </trkpt>
      <trkpt lat="42.464885000" lon="-2.462699000">
        <ele>385.50</ele>
        <time>2016-10-15T05:13:16Z</time>
      </trkpt>
      <trkpt lat="42.464926000" lon="-2.462715000">
        <ele>385.40</ele>
        <time>2016-10-15T05:13:17Z</time>
      </trkpt>
      <trkpt lat="42.464969000" lon="-2.462728000">
        <ele>385.30</ele>
        <time>2016-10-15T05:13:18Z</time>
      </trkpt>
      <trkpt lat="42.465010000" lon="-2.462737000">
        <ele>385.20</ele>
        <time>2016-10-15T05:13:19Z</time>
      </trkpt>
      <trkpt lat="42.465050000" lon="-2.462743000">
        <ele>385.10</ele>
        <time>2016-10-15T05:13:20Z</time>
      </trkpt>
      <trkpt lat="42.465093000" lon="-2.462739000">
        <ele>385.10</ele>
        <time>2016-10-15T05:13:21Z</time>
      </trkpt>
      <trkpt lat="42.465128000" lon="-2.462757000">
        <ele>385.10</ele>
        <time>2016-10-15T05:13:22Z</time>
      </trkpt>
      <trkpt lat="42.465173000" lon="-2.462759000">
        <ele>385.10</ele>
        <time>2016-10-15T05:13:23Z</time>
      </trkpt>
      <trkpt lat="42.465218000" lon="-2.462766000">
        <ele>385.20</ele>
        <time>2016-10-15T05:13:24Z</time>
      </trkpt>
      <trkpt lat="42.465261000" lon="-2.462770000">
        <ele>385.20</ele>
        <time>2016-10-15T05:13:25Z</time>
      </trkpt>
      <trkpt lat="42.465309000" lon="-2.462768000">
        <ele>385.40</ele>
        <time>2016-10-15T05:13:26Z</time>
      </trkpt>
      <trkpt lat="42.465356000" lon="-2.462766000">
        <ele>385.50</ele>
        <time>2016-10-15T05:13:27Z</time>
      </trkpt>
      <trkpt lat="42.465402000" lon="-2.462765000">
        <ele>385.60</ele>
        <time>2016-10-15T05:13:28Z</time>
      </trkpt>
      <trkpt lat="42.465447000" lon="-2.462759000">
        <ele>385.70</ele>
        <time>2016-10-15T05:13:29Z</time>
      </trkpt>
      <trkpt lat="42.465495000" lon="-2.462753000">
        <ele>385.60</ele>
        <time>2016-10-15T05:13:30Z</time>
      </trkpt>
      <trkpt lat="42.465544000" lon="-2.462743000">
        <ele>385.50</ele>
        <time>2016-10-15T05:13:31Z</time>
      </trkpt>
      <trkpt lat="42.465592000" lon="-2.462734000">
        <ele>385.50</ele>
        <time>2016-10-15T05:13:32Z</time>
      </trkpt>
      <trkpt lat="42.465639000" lon="-2.462722000">
        <ele>385.50</ele>
        <time>2016-10-15T05:13:33Z</time>
      </trkpt>
      <trkpt lat="42.465687000" lon="-2.462716000">
        <ele>385.30</ele>
        <time>2016-10-15T05:13:34Z</time>
      </trkpt>
      <trkpt lat="42.465732000" lon="-2.462705000">
        <ele>385.20</ele>
        <time>2016-10-15T05:13:35Z</time>
      </trkpt>
      <trkpt lat="42.465780000" lon="-2.462691000">
        <ele>385.10</ele>
        <time>2016-10-15T05:13:36Z</time>
      </trkpt>
      <trkpt lat="42.465830000" lon="-2.462679000">
        <ele>385.00</ele>
        <time>2016-10-15T05:13:37Z</time>
      </trkpt>
      <trkpt lat="42.465879000" lon="-2.462670000">
        <ele>385.10</ele>
        <time>2016-10-15T05:13:38Z</time>
      </trkpt>
      <trkpt lat="42.465924000" lon="-2.462660000">
        <ele>385.20</ele>
        <time>2016-10-15T05:13:39Z</time>
      </trkpt>
      <trkpt lat="42.465970000" lon="-2.462656000">
        <ele>385.20</ele>
        <time>2016-10-15T05:13:40Z</time>
      </trkpt>
      <trkpt lat="42.466014000" lon="-2.462650000">
        <ele>385.30</ele>
        <time>2016-10-15T05:13:41Z</time>
      </trkpt>
      <trkpt lat="42.466062000" lon="-2.462645000">
        <ele>385.10</ele>
        <time>2016-10-15T05:13:42Z</time>
      </trkpt>
      <trkpt lat="42.466107000" lon="-2.462643000">
        <ele>385.10</ele>
        <time>2016-10-15T05:13:43Z</time>
      </trkpt>
      <trkpt lat="42.466155000" lon="-2.462632000">
        <ele>385.00</ele>
        <time>2016-10-15T05:13:44Z</time>
      </trkpt>
      <trkpt lat="42.466201000" lon="-2.462617000">
        <ele>384.90</ele>
        <time>2016-10-15T05:13:45Z</time>
      </trkpt>
      <trkpt lat="42.466247000" lon="-2.462598000">
        <ele>384.90</ele>
        <time>2016-10-15T05:13:46Z</time>
      </trkpt>
      <trkpt lat="42.466294000" lon="-2.462580000">
        <ele>384.90</ele>
        <time>2016-10-15T05:13:47Z</time>
      </trkpt>
      <trkpt lat="42.466345000" lon="-2.462558000">
        <ele>384.80</ele>
        <time>2016-10-15T05:13:48Z</time>
      </trkpt>
      <trkpt lat="42.466392000" lon="-2.462538000">
        <ele>384.80</ele>
        <time>2016-10-15T05:13:49Z</time>
      </trkpt>
      <trkpt lat="42.466439000" lon="-2.462521000">
        <ele>384.80</ele>
        <time>2016-10-15T05:13:50Z</time>
      </trkpt>
      <trkpt lat="42.466487000" lon="-2.462504000">
        <ele>384.80</ele>
        <time>2016-10-15T05:13:51Z</time>
      </trkpt>
      <trkpt lat="42.466535000" lon="-2.462478000">
        <ele>384.80</ele>
        <time>2016-10-15T05:13:52Z</time>
      </trkpt>
      <trkpt lat="42.466582000" lon="-2.462450000">
        <ele>384.80</ele>
        <time>2016-10-15T05:13:53Z</time>
      </trkpt>
      <trkpt lat="42.466623000" lon="-2.462422000">
        <ele>384.80</ele>
        <time>2016-10-15T05:13:54Z</time>
      </trkpt>
      <trkpt lat="42.466666000" lon="-2.462393000">
        <ele>384.80</ele>
        <time>2016-10-15T05:13:55Z</time>
      </trkpt>
      <trkpt lat="42.466710000" lon="-2.462361000">
        <ele>384.80</ele>
        <time>2016-10-15T05:13:56Z</time>
      </trkpt>
      <trkpt lat="42.466756000" lon="-2.462333000">
        <ele>384.70</ele>
        <time>2016-10-15T05:13:57Z</time>
      </trkpt>
      <trkpt lat="42.466799000" lon="-2.462308000">
        <ele>384.70</ele>
        <time>2016-10-15T05:13:58Z</time>
      </trkpt>
      <trkpt lat="42.466888000" lon="-2.462251000">
        <ele>384.60</ele>
        <time>2016-10-15T05:14:00Z</time>
      </trkpt>
      <trkpt lat="42.466931000" lon="-2.462221000">
        <ele>384.50</ele>
        <time>2016-10-15T05:14:01Z</time>
      </trkpt>
      <trkpt lat="42.466975000" lon="-2.462195000">
        <ele>384.40</ele>
        <time>2016-10-15T05:14:02Z</time>
      </trkpt>
      <trkpt lat="42.467020000" lon="-2.462166000">
        <ele>384.40</ele>
        <time>2016-10-15T05:14:03Z</time>
      </trkpt>
      <trkpt lat="42.467071000" lon="-2.462133000">
        <ele>384.20</ele>
        <time>2016-10-15T05:14:04Z</time>
      </trkpt>
      <trkpt lat="42.467112000" lon="-2.462086000">
        <ele>384.20</ele>
        <time>2016-10-15T05:14:05Z</time>
      </trkpt>
      <trkpt lat="42.467145000" lon="-2.462036000">
        <ele>384.20</ele>
        <time>2016-10-15T05:14:06Z</time>
      </trkpt>
      <trkpt lat="42.467178000" lon="-2.461983000">
        <ele>384.20</ele>
        <time>2016-10-15T05:14:07Z</time>
      </trkpt>
      <trkpt lat="42.467217000" lon="-2.461940000">
        <ele>384.20</ele>
        <time>2016-10-15T05:14:08Z</time>
      </trkpt>
      <trkpt lat="42.467260000" lon="-2.461908000">
        <ele>384.20</ele>
        <time>2016-10-15T05:14:09Z</time>
      </trkpt>
      <trkpt lat="42.467308000" lon="-2.461897000">
        <ele>384.30</ele>
        <time>2016-10-15T05:14:10Z</time>
      </trkpt>
      <trkpt lat="42.467355000" lon="-2.461901000">
        <ele>384.40</ele>
        <time>2016-10-15T05:14:11Z</time>
      </trkpt>
      <trkpt lat="42.467403000" lon="-2.461912000">
        <ele>384.30</ele>
        <time>2016-10-15T05:14:12Z</time>
      </trkpt>
      <trkpt lat="42.467446000" lon="-2.461939000">
        <ele>384.30</ele>
        <time>2016-10-15T05:14:13Z</time>
      </trkpt>
      <trkpt lat="42.467485000" lon="-2.461975000">
        <ele>384.20</ele>
        <time>2016-10-15T05:14:14Z</time>
      </trkpt>
      <trkpt lat="42.467529000" lon="-2.461998000">
        <ele>384.10</ele>
        <time>2016-10-15T05:14:15Z</time>
      </trkpt>
      <trkpt lat="42.467573000" lon="-2.462010000">
        <ele>384.10</ele>
        <time>2016-10-15T05:14:16Z</time>
      </trkpt>
      <trkpt lat="42.467620000" lon="-2.462006000">
        <ele>384.00</ele>
        <time>2016-10-15T05:14:17Z</time>
      </trkpt>
      <trkpt lat="42.467666000" lon="-2.462001000">
        <ele>384.10</ele>
        <time>2016-10-15T05:14:18Z</time>
      </trkpt>
      <trkpt lat="42.467711000" lon="-2.461998000">
        <ele>384.10</ele>
        <time>2016-10-15T05:14:19Z</time>
      </trkpt>
      <trkpt lat="42.467763000" lon="-2.461994000">
        <ele>384.10</ele>
        <time>2016-10-15T05:14:20Z</time>
      </trkpt>
      <trkpt lat="42.467817000" lon="-2.461993000">
        <ele>384.10</ele>
        <time>2016-10-15T05:14:21Z</time>
      </trkpt>
      <trkpt lat="42.467872000" lon="-2.461992000">
        <ele>384.00</ele>
        <time>2016-10-15T05:14:22Z</time>
      </trkpt>
      <trkpt lat="42.467927000" lon="-2.461995000">
        <ele>383.90</ele>
        <time>2016-10-15T05:14:23Z</time>
      </trkpt>
      <trkpt lat="42.467984000" lon="-2.461989000">
        <ele>383.80</ele>
        <time>2016-10-15T05:14:24Z</time>
      </trkpt>
      <trkpt lat="42.468045000" lon="-2.461983000">
        <ele>383.60</ele>
        <time>2016-10-15T05:14:25Z</time>
      </trkpt>
      <trkpt lat="42.468105000" lon="-2.461974000">
        <ele>383.50</ele>
        <time>2016-10-15T05:14:26Z</time>
      </trkpt>
      <trkpt lat="42.468163000" lon="-2.461965000">
        <ele>383.40</ele>
        <time>2016-10-15T05:14:27Z</time>
      </trkpt>
      <trkpt lat="42.468218000" lon="-2.461962000">
        <ele>383.40</ele>
        <time>2016-10-15T05:14:28Z</time>
      </trkpt>
      <trkpt lat="42.468275000" lon="-2.461953000">
        <ele>383.30</ele>
        <time>2016-10-15T05:14:29Z</time>
      </trkpt>
      <trkpt lat="42.468334000" lon="-2.461947000">
        <ele>383.30</ele>
        <time>2016-10-15T05:14:30Z</time>
      </trkpt>
      <trkpt lat="42.468391000" lon="-2.461938000">
        <ele>383.20</ele>
        <time>2016-10-15T05:14:31Z</time>
      </trkpt>
      <trkpt lat="42.468447000" lon="-2.461930000">
        <ele>383.10</ele>
        <time>2016-10-15T05:14:32Z</time>
      </trkpt>
      <trkpt lat="42.468503000" lon="-2.461924000">
        <ele>383.00</ele>
        <time>2016-10-15T05:14:33Z</time>
      </trkpt>
      <trkpt lat="42.468560000" lon="-2.461916000">
        <ele>382.80</ele>
        <time>2016-10-15T05:14:34Z</time>
      </trkpt>
      <trkpt lat="42.468615000" lon="-2.461904000">
        <ele>382.70</ele>
        <time>2016-10-15T05:14:35Z</time>
      </trkpt>
      <trkpt lat="42.468671000" lon="-2.461893000">
        <ele>382.60</ele>
        <time>2016-10-15T05:14:36Z</time>
      </trkpt>
      <trkpt lat="42.468727000" lon="-2.461877000">
        <ele>382.50</ele>
        <time>2016-10-15T05:14:37Z</time>
      </trkpt>
      <trkpt lat="42.468783000" lon="-2.461864000">
        <ele>382.50</ele>
        <time>2016-10-15T05:14:38Z</time>
      </trkpt>
      <trkpt lat="42.468842000" lon="-2.461847000">
        <ele>382.50</ele>
        <time>2016-10-15T05:14:39Z</time>
      </trkpt>
      <trkpt lat="42.468895000" lon="-2.461818000">
        <ele>382.40</ele>
        <time>2016-10-15T05:14:40Z</time>
      </trkpt>
      <trkpt lat="42.468945000" lon="-2.461779000">
        <ele>382.40</ele>
        <time>2016-10-15T05:14:41Z</time>
      </trkpt>
      <trkpt lat="42.468991000" lon="-2.461739000">
        <ele>382.30</ele>
        <time>2016-10-15T05:14:42Z</time>
      </trkpt>
      <trkpt lat="42.469034000" lon="-2.461700000">
        <ele>382.30</ele>
        <time>2016-10-15T05:14:43Z</time>
      </trkpt>
      <trkpt lat="42.469078000" lon="-2.461664000">
        <ele>382.20</ele>
        <time>2016-10-15T05:14:44Z</time>
      </trkpt>
      <trkpt lat="42.469125000" lon="-2.461630000">
        <ele>382.10</ele>
        <time>2016-10-15T05:14:45Z</time>
      </trkpt>
      <trkpt lat="42.469170000" lon="-2.461597000">
        <ele>381.90</ele>
        <time>2016-10-15T05:14:46Z</time>
      </trkpt>
      <trkpt lat="42.469208000" lon="-2.461570000">
        <ele>381.90</ele>
        <time>2016-10-15T05:14:47Z</time>
      </trkpt>
      <trkpt lat="42.469238000" lon="-2.461541000">
        <ele>381.80</ele>
        <time>2016-10-15T05:14:48Z</time>
      </trkpt>
      <trkpt lat="42.469269000" lon="-2.461519000">
        <ele>381.80</ele>
        <time>2016-10-15T05:14:49Z</time>
      </trkpt>
      <trkpt lat="42.469303000" lon="-2.461493000">
        <ele>381.80</ele>
        <time>2016-10-15T05:14:50Z</time>
      </trkpt>
      <trkpt lat="42.469338000" lon="-2.461466000">
        <ele>381.70</ele>
        <time>2016-10-15T05:14:51Z</time>
      </trkpt>
      <trkpt lat="42.469370000" lon="-2.461438000">
        <ele>381.60</ele>
        <time>2016-10-15T05:14:52Z</time>
      </trkpt>
      <trkpt lat="42.469402000" lon="-2.461413000">
        <ele>381.40</ele>
        <time>2016-10-15T05:14:53Z</time>
      </trkpt>
      <trkpt lat="42.469431000" lon="-2.461388000">
        <ele>381.30</ele>
        <time>2016-10-15T05:14:54Z</time>
      </trkpt>
      <trkpt lat="42.469463000" lon="-2.461361000">
        <ele>381.20</ele>
        <time>2016-10-15T05:14:55Z</time>
      </trkpt>
      <trkpt lat="42.469497000" lon="-2.461334000">
        <ele>381.20</ele>
        <time>2016-10-15T05:14:56Z</time>
      </trkpt>
      <trkpt lat="42.469527000" lon="-2.461308000">
        <ele>381.10</ele>
        <time>2016-10-15T05:14:57Z</time>
      </trkpt>
      <trkpt lat="42.469562000" lon="-2.461283000">
        <ele>381.10</ele>
        <time>2016-10-15T05:14:58Z</time>
      </trkpt>
      <trkpt lat="42.469597000" lon="-2.461256000">
        <ele>381.00</ele>
        <time>2016-10-15T05:14:59Z</time>
      </trkpt>
      <trkpt lat="42.469666000" lon="-2.461203000">
        <ele>381.10</ele>
        <time>2016-10-15T05:15:01Z</time>
      </trkpt>
      <trkpt lat="42.469701000" lon="-2.461178000">
        <ele>381.10</ele>
        <time>2016-10-15T05:15:02Z</time>
      </trkpt>
      <trkpt lat="42.469736000" lon="-2.461157000">
        <ele>381.10</ele>
        <time>2016-10-15T05:15:03Z</time>
      </trkpt>
      <trkpt lat="42.469769000" lon="-2.461129000">
        <ele>381.00</ele>
        <time>2016-10-15T05:15:04Z</time>
      </trkpt>
      <trkpt lat="42.469805000" lon="-2.461103000">
        <ele>381.00</ele>
        <time>2016-10-15T05:15:05Z</time>
      </trkpt>
      <trkpt lat="42.469838000" lon="-2.461078000">
        <ele>380.90</ele>
        <time>2016-10-15T05:15:06Z</time>
      </trkpt>
      <trkpt lat="42.469871000" lon="-2.461052000">
        <ele>380.80</ele>
        <time>2016-10-15T05:15:07Z</time>
      </trkpt>
      <trkpt lat="42.469902000" lon="-2.461028000">
        <ele>380.80</ele>
        <time>2016-10-15T05:15:08Z</time>
      </trkpt>
      <trkpt lat="42.469933000" lon="-2.461004000">
        <ele>380.90</ele>
        <time>2016-10-15T05:15:09Z</time>
      </trkpt>
      <trkpt lat="42.469966000" lon="-2.460978000">
        <ele>380.90</ele>
        <time>2016-10-15T05:15:10Z</time>
      </trkpt>
      <trkpt lat="42.470000000" lon="-2.460954000">
        <ele>380.90</ele>
        <time>2016-10-15T05:15:11Z</time>
      </trkpt>
      <trkpt lat="42.470030000" lon="-2.460927000">
        <ele>380.90</ele>
        <time>2016-10-15T05:15:12Z</time>
      </trkpt>
      <trkpt lat="42.470062000" lon="-2.460902000">
        <ele>380.90</ele>
        <time>2016-10-15T05:15:13Z</time>
      </trkpt>
      <trkpt lat="42.470091000" lon="-2.460878000">
        <ele>380.90</ele>
        <time>2016-10-15T05:15:14Z</time>
      </trkpt>
      <trkpt lat="42.470124000" lon="-2.460855000">
        <ele>380.90</ele>
        <time>2016-10-15T05:15:15Z</time>
      </trkpt>
      <trkpt lat="42.470155000" lon="-2.460832000">
        <ele>380.80</ele>
        <time>2016-10-15T05:15:16Z</time>
      </trkpt>
      <trkpt lat="42.470184000" lon="-2.460809000">
        <ele>380.70</ele>
        <time>2016-10-15T05:15:17Z</time>
      </trkpt>
      <trkpt lat="42.470213000" lon="-2.460785000">
        <ele>380.60</ele>
        <time>2016-10-15T05:15:18Z</time>
      </trkpt>
      <trkpt lat="42.470240000" lon="-2.460760000">
        <ele>380.50</ele>
        <time>2016-10-15T05:15:19Z</time>
      </trkpt>
      <trkpt lat="42.470271000" lon="-2.460733000">
        <ele>380.40</ele>
        <time>2016-10-15T05:15:20Z</time>
      </trkpt>
      <trkpt lat="42.470300000" lon="-2.460710000">
        <ele>380.30</ele>
        <time>2016-10-15T05:15:21Z</time>
      </trkpt>
      <trkpt lat="42.470329000" lon="-2.460687000">
        <ele>380.50</ele>
        <time>2016-10-15T05:15:22Z</time>
      </trkpt>
      <trkpt lat="42.470358000" lon="-2.460666000">
        <ele>380.50</ele>
        <time>2016-10-15T05:15:23Z</time>
      </trkpt>
      <trkpt lat="42.470387000" lon="-2.460643000">
        <ele>380.70</ele>
        <time>2016-10-15T05:15:24Z</time>
      </trkpt>
      <trkpt lat="42.470415000" lon="-2.460620000">
        <ele>380.80</ele>
        <time>2016-10-15T05:15:25Z</time>
      </trkpt>
      <trkpt lat="42.470445000" lon="-2.460598000">
        <ele>380.90</ele>
        <time>2016-10-15T05:15:26Z</time>
      </trkpt>
      <trkpt lat="42.470476000" lon="-2.460575000">
        <ele>381.00</ele>
        <time>2016-10-15T05:15:27Z</time>
      </trkpt>
      <trkpt lat="42.470504000" lon="-2.460556000">
        <ele>381.10</ele>
        <time>2016-10-15T05:15:28Z</time>
      </trkpt>
      <trkpt lat="42.470533000" lon="-2.460537000">
        <ele>381.20</ele>
        <time>2016-10-15T05:15:29Z</time>
      </trkpt>
      <trkpt lat="42.470563000" lon="-2.460518000">
        <ele>381.30</ele>
        <time>2016-10-15T05:15:30Z</time>
      </trkpt>
      <trkpt lat="42.470592000" lon="-2.460504000">
        <ele>381.40</ele>
        <time>2016-10-15T05:15:31Z</time>
      </trkpt>
      <trkpt lat="42.470621000" lon="-2.460486000">
        <ele>381.40</ele>
        <time>2016-10-15T05:15:32Z</time>
      </trkpt>
      <trkpt lat="42.470647000" lon="-2.460468000">
        <ele>381.40</ele>
        <time>2016-10-15T05:15:33Z</time>
      </trkpt>
      <trkpt lat="42.470672000" lon="-2.460445000">
        <ele>381.40</ele>
        <time>2016-10-15T05:15:34Z</time>
      </trkpt>
      <trkpt lat="42.470697000" lon="-2.460425000">
        <ele>381.50</ele>
        <time>2016-10-15T05:15:35Z</time>
      </trkpt>
      <trkpt lat="42.470723000" lon="-2.460406000">
        <ele>381.40</ele>
        <time>2016-10-15T05:15:36Z</time>
      </trkpt>
      <trkpt lat="42.470745000" lon="-2.460385000">
        <ele>381.40</ele>
        <time>2016-10-15T05:15:37Z</time>
      </trkpt>
      <trkpt lat="42.470772000" lon="-2.460364000">
        <ele>381.40</ele>
        <time>2016-10-15T05:15:38Z</time>
      </trkpt>
      <trkpt lat="42.470795000" lon="-2.460336000">
        <ele>381.40</ele>
        <time>2016-10-15T05:15:39Z</time>
      </trkpt>
      <trkpt lat="42.470808000" lon="-2.460305000">
        <ele>381.40</ele>
        <time>2016-10-15T05:15:40Z</time>
      </trkpt>
      <trkpt lat="42.470819000" lon="-2.460278000">
        <ele>381.30</ele>
        <time>2016-10-15T05:15:41Z</time>
      </trkpt>
      <trkpt lat="42.470824000" lon="-2.460250000">
        <ele>381.40</ele>
        <time>2016-10-15T05:15:42Z</time>
      </trkpt>
      <trkpt lat="42.470838000" lon="-2.460220000">
        <ele>381.40</ele>
        <time>2016-10-15T05:15:43Z</time>
      </trkpt>
      <trkpt lat="42.470855000" lon="-2.460198000">
        <ele>381.50</ele>
        <time>2016-10-15T05:15:44Z</time>
      </trkpt>
      <trkpt lat="42.470875000" lon="-2.460175000">
        <ele>381.70</ele>
        <time>2016-10-15T05:15:45Z</time>
      </trkpt>
      <trkpt lat="42.470896000" lon="-2.460157000">
        <ele>381.70</ele>
        <time>2016-10-15T05:15:46Z</time>
      </trkpt>
      <trkpt lat="42.470914000" lon="-2.460141000">
        <ele>381.80</ele>
        <time>2016-10-15T05:15:47Z</time>
      </trkpt>
      <trkpt lat="42.470929000" lon="-2.460125000">
        <ele>381.70</ele>
        <time>2016-10-15T05:15:48Z</time>
      </trkpt>
      <trkpt lat="42.470946000" lon="-2.460110000">
        <ele>381.70</ele>
        <time>2016-10-15T05:15:49Z</time>
      </trkpt>
      <trkpt lat="42.470966000" lon="-2.460094000">
        <ele>381.60</ele>
        <time>2016-10-15T05:15:50Z</time>
      </trkpt>
      <trkpt lat="42.470985000" lon="-2.460075000">
        <ele>381.60</ele>
        <time>2016-10-15T05:15:51Z</time>
      </trkpt>
      <trkpt lat="42.471003000" lon="-2.460055000">
        <ele>381.60</ele>
        <time>2016-10-15T05:15:52Z</time>
      </trkpt>
      <trkpt lat="42.471018000" lon="-2.460039000">
        <ele>381.50</ele>
        <time>2016-10-15T05:15:53Z</time>
      </trkpt>
      <trkpt lat="42.471037000" lon="-2.460017000">
        <ele>381.50</ele>
        <time>2016-10-15T05:15:54Z</time>
      </trkpt>
      <trkpt lat="42.471054000" lon="-2.459997000">
        <ele>381.50</ele>
        <time>2016-10-15T05:15:55Z</time>
      </trkpt>
      <trkpt lat="42.471068000" lon="-2.459983000">
        <ele>381.50</ele>
        <time>2016-10-15T05:15:56Z</time>
      </trkpt>
      <trkpt lat="42.471081000" lon="-2.459968000">
        <ele>381.50</ele>
        <time>2016-10-15T05:15:57Z</time>
      </trkpt>
      <trkpt lat="42.471097000" lon="-2.459956000">
        <ele>381.60</ele>
        <time>2016-10-15T05:15:58Z</time>
      </trkpt>
      <trkpt lat="42.471114000" lon="-2.459952000">
        <ele>381.70</ele>
        <time>2016-10-15T05:15:59Z</time>
      </trkpt>
      <trkpt lat="42.471131000" lon="-2.459965000">
        <ele>381.70</ele>
        <time>2016-10-15T05:16:00Z</time>
      </trkpt>
      <trkpt lat="42.471165000" lon="-2.460011000">
        <ele>381.90</ele>
        <time>2016-10-15T05:16:02Z</time>
      </trkpt>
      <trkpt lat="42.471178000" lon="-2.460035000">
        <ele>382.00</ele>
        <time>2016-10-15T05:16:03Z</time>
      </trkpt>
      <trkpt lat="42.471191000" lon="-2.460063000">
        <ele>382.00</ele>
        <time>2016-10-15T05:16:04Z</time>
      </trkpt>
      <trkpt lat="42.471206000" lon="-2.460092000">
        <ele>382.00</ele>
        <time>2016-10-15T05:16:05Z</time>
      </trkpt>
      <trkpt lat="42.471219000" lon="-2.460123000">
        <ele>381.90</ele>
        <time>2016-10-15T05:16:06Z</time>
      </trkpt>
      <trkpt lat="42.471231000" lon="-2.460153000">
        <ele>381.80</ele>
        <time>2016-10-15T05:16:07Z</time>
      </trkpt>
      <trkpt lat="42.471244000" lon="-2.460183000">
        <ele>381.70</ele>
        <time>2016-10-15T05:16:08Z</time>
      </trkpt>
      <trkpt lat="42.471260000" lon="-2.460209000">
        <ele>381.60</ele>
        <time>2016-10-15T05:16:09Z</time>
      </trkpt>
      <trkpt lat="42.471274000" lon="-2.460234000">
        <ele>381.70</ele>
        <time>2016-10-15T05:16:10Z</time>
      </trkpt>
      <trkpt lat="42.471286000" lon="-2.460259000">
        <ele>381.70</ele>
        <time>2016-10-15T05:16:11Z</time>
      </trkpt>
      <trkpt lat="42.471301000" lon="-2.460284000">
        <ele>381.80</ele>
        <time>2016-10-15T05:16:12Z</time>
      </trkpt>
      <trkpt lat="42.471316000" lon="-2.460310000">
        <ele>381.80</ele>
        <time>2016-10-15T05:16:13Z</time>
      </trkpt>
      <trkpt lat="42.471335000" lon="-2.460339000">
        <ele>381.70</ele>
        <time>2016-10-15T05:16:14Z</time>
      </trkpt>
      <trkpt lat="42.471356000" lon="-2.460364000">
        <ele>381.60</ele>
        <time>2016-10-15T05:16:15Z</time>
      </trkpt>
      <trkpt lat="42.471382000" lon="-2.460396000">
        <ele>381.50</ele>
        <time>2016-10-15T05:16:16Z</time>
      </trkpt>
      <trkpt lat="42.471410000" lon="-2.460437000">
        <ele>381.40</ele>
        <time>2016-10-15T05:16:17Z</time>
      </trkpt>
      <trkpt lat="42.471441000" lon="-2.460483000">
        <ele>381.30</ele>
        <time>2016-10-15T05:16:18Z</time>
      </trkpt>
      <trkpt lat="42.471479000" lon="-2.460530000">
        <ele>381.20</ele>
        <time>2016-10-15T05:16:19Z</time>
      </trkpt>
      <trkpt lat="42.471520000" lon="-2.460580000">
        <ele>380.90</ele>
        <time>2016-10-15T05:16:20Z</time>
      </trkpt>
      <trkpt lat="42.471560000" lon="-2.460632000">
        <ele>380.70</ele>
        <time>2016-10-15T05:16:21Z</time>
      </trkpt>
      <trkpt lat="42.471600000" lon="-2.460683000">
        <ele>380.20</ele>
        <time>2016-10-15T05:16:22Z</time>
      </trkpt>
      <trkpt lat="42.471639000" lon="-2.460733000">
        <ele>379.70</ele>
        <time>2016-10-15T05:16:23Z</time>
      </trkpt>
      <trkpt lat="42.471676000" lon="-2.460786000">
        <ele>379.00</ele>
        <time>2016-10-15T05:16:24Z</time>
      </trkpt>
      <trkpt lat="42.471710000" lon="-2.460834000">
        <ele>378.40</ele>
        <time>2016-10-15T05:16:25Z</time>
      </trkpt>
      <trkpt lat="42.471742000" lon="-2.460879000">
        <ele>378.00</ele>
        <time>2016-10-15T05:16:26Z</time>
      </trkpt>
      <trkpt lat="42.471776000" lon="-2.460930000">
        <ele>377.60</ele>
        <time>2016-10-15T05:16:27Z</time>
      </trkpt>
      <trkpt lat="42.471810000" lon="-2.460975000">
        <ele>377.20</ele>
        <time>2016-10-15T05:16:28Z</time>
      </trkpt>
      <trkpt lat="42.471843000" lon="-2.461019000">
        <ele>376.80</ele>
        <time>2016-10-15T05:16:29Z</time>
      </trkpt>
      <trkpt lat="42.471878000" lon="-2.461067000">
        <ele>376.50</ele>
        <time>2016-10-15T05:16:30Z</time>
      </trkpt>
      <trkpt lat="42.471912000" lon="-2.461111000">
        <ele>376.20</ele>
        <time>2016-10-15T05:16:31Z</time>
      </trkpt>
      <trkpt lat="42.471939000" lon="-2.461156000">
        <ele>375.90</ele>
        <time>2016-10-15T05:16:32Z</time>
      </trkpt>
      <trkpt lat="42.471963000" lon="-2.461191000">
        <ele>375.70</ele>
        <time>2016-10-15T05:16:33Z</time>
      </trkpt>
      <trkpt lat="42.471986000" lon="-2.461224000">
        <ele>375.20</ele>
        <time>2016-10-15T05:16:34Z</time>
      </trkpt>
      <trkpt lat="42.472008000" lon="-2.461259000">
        <ele>374.90</ele>
        <time>2016-10-15T05:16:35Z</time>
      </trkpt>
      <trkpt lat="42.472031000" lon="-2.461283000">
        <ele>374.10</ele>
        <time>2016-10-15T05:16:36Z</time>
      </trkpt>
      <trkpt lat="42.472052000" lon="-2.461293000">
        <ele>373.60</ele>
        <time>2016-10-15T05:16:37Z</time>
      </trkpt>
      <trkpt lat="42.472071000" lon="-2.461289000">
        <ele>373.20</ele>
        <time>2016-10-15T05:16:38Z</time>
      </trkpt>
      <trkpt lat="42.472091000" lon="-2.461276000">
        <ele>372.90</ele>
        <time>2016-10-15T05:16:39Z</time>
      </trkpt>
      <trkpt lat="42.472110000" lon="-2.461263000">
        <ele>372.70</ele>
        <time>2016-10-15T05:16:40Z</time>
      </trkpt>
      <trkpt lat="42.472123000" lon="-2.461249000">
        <ele>372.50</ele>
        <time>2016-10-15T05:16:41Z</time>
      </trkpt>
      <trkpt lat="42.472143000" lon="-2.461224000">
        <ele>372.20</ele>
        <time>2016-10-15T05:16:42Z</time>
      </trkpt>
      <trkpt lat="42.472165000" lon="-2.461201000">
        <ele>372.00</ele>
        <time>2016-10-15T05:16:43Z</time>
      </trkpt>
      <trkpt lat="42.472190000" lon="-2.461171000">
        <ele>371.90</ele>
        <time>2016-10-15T05:16:44Z</time>
      </trkpt>
      <trkpt lat="42.472213000" lon="-2.461148000">
        <ele>371.80</ele>
        <time>2016-10-15T05:16:45Z</time>
      </trkpt>
      <trkpt lat="42.472231000" lon="-2.461124000">
        <ele>371.70</ele>
        <time>2016-10-15T05:16:46Z</time>
      </trkpt>
      <trkpt lat="42.472250000" lon="-2.461101000">
        <ele>371.60</ele>
        <time>2016-10-15T05:16:47Z</time>
      </trkpt>
      <trkpt lat="42.472271000" lon="-2.461081000">
        <ele>371.60</ele>
        <time>2016-10-15T05:16:48Z</time>
      </trkpt>
      <trkpt lat="42.472288000" lon="-2.461060000">
        <ele>371.60</ele>
        <time>2016-10-15T05:16:49Z</time>
      </trkpt>
      <trkpt lat="42.472305000" lon="-2.461042000">
        <ele>371.80</ele>
        <time>2016-10-15T05:16:50Z</time>
      </trkpt>
      <trkpt lat="42.472319000" lon="-2.461024000">
        <ele>372.00</ele>
        <time>2016-10-15T05:16:51Z</time>
      </trkpt>
      <trkpt lat="42.472335000" lon="-2.461004000">
        <ele>372.20</ele>
        <time>2016-10-15T05:16:52Z</time>
      </trkpt>
      <trkpt lat="42.472351000" lon="-2.460987000">
        <ele>372.30</ele>
        <time>2016-10-15T05:16:53Z</time>
      </trkpt>
      <trkpt lat="42.472365000" lon="-2.460969000">
        <ele>372.30</ele>
        <time>2016-10-15T05:16:54Z</time>
      </trkpt>
      <trkpt lat="42.472379000" lon="-2.460954000">
        <ele>372.20</ele>
        <time>2016-10-15T05:16:55Z</time>
      </trkpt>
      <trkpt lat="42.472393000" lon="-2.460939000">
        <ele>372.20</ele>
        <time>2016-10-15T05:16:56Z</time>
      </trkpt>
      <trkpt lat="42.472407000" lon="-2.460921000">
        <ele>372.20</ele>
        <time>2016-10-15T05:16:57Z</time>
      </trkpt>
      <trkpt lat="42.472420000" lon="-2.460903000">
        <ele>372.20</ele>
        <time>2016-10-15T05:16:58Z</time>
      </trkpt>
      <trkpt lat="42.472434000" lon="-2.460884000">
        <ele>372.20</ele>
        <time>2016-10-15T05:16:59Z</time>
      </trkpt>
      <trkpt lat="42.472450000" lon="-2.460867000">
        <ele>372.00</ele>
        <time>2016-10-15T05:17:00Z</time>
      </trkpt>
      <trkpt lat="42.472468000" lon="-2.460849000">
        <ele>371.80</ele>
        <time>2016-10-15T05:17:01Z</time>
      </trkpt>
      <trkpt lat="42.472508000" lon="-2.460802000">
        <ele>371.60</ele>
        <time>2016-10-15T05:17:03Z</time>
      </trkpt>
      <trkpt lat="42.472533000" lon="-2.460775000">
        <ele>371.60</ele>
        <time>2016-10-15T05:17:04Z</time>
      </trkpt>
      <trkpt lat="42.472559000" lon="-2.460745000">
        <ele>371.50</ele>
        <time>2016-10-15T05:17:05Z</time>
      </trkpt>
      <trkpt lat="42.472587000" lon="-2.460714000">
        <ele>371.40</ele>
        <time>2016-10-15T05:17:06Z</time>
      </trkpt>
      <trkpt lat="42.472616000" lon="-2.460685000">
        <ele>371.30</ele>
        <time>2016-10-15T05:17:07Z</time>
      </trkpt>
      <trkpt lat="42.472640000" lon="-2.460653000">
        <ele>371.30</ele>
        <time>2016-10-15T05:17:08Z</time>
      </trkpt>
      <trkpt lat="42.472660000" lon="-2.460624000">
        <ele>371.20</ele>
        <time>2016-10-15T05:17:09Z</time>
      </trkpt>
      <trkpt lat="42.472681000" lon="-2.460600000">
        <ele>371.10</ele>
        <time>2016-10-15T05:17:10Z</time>
      </trkpt>
      <trkpt lat="42.472700000" lon="-2.460575000">
        <ele>371.10</ele>
        <time>2016-10-15T05:17:11Z</time>
      </trkpt>
      <trkpt lat="42.472720000" lon="-2.460552000">
        <ele>371.10</ele>
        <time>2016-10-15T05:17:12Z</time>
      </trkpt>
      <trkpt lat="42.472744000" lon="-2.460527000">
        <ele>371.10</ele>
        <time>2016-10-15T05:17:13Z</time>
      </trkpt>
      <trkpt lat="42.472775000" lon="-2.460505000">
        <ele>370.90</ele>
        <time>2016-10-15T05:17:14Z</time>
      </trkpt>
      <trkpt lat="42.472808000" lon="-2.460490000">
        <ele>370.70</ele>
        <time>2016-10-15T05:17:15Z</time>
      </trkpt>
      <trkpt lat="42.472842000" lon="-2.460476000">
        <ele>370.40</ele>
        <time>2016-10-15T05:17:16Z</time>
      </trkpt>
      <trkpt lat="42.472877000" lon="-2.460468000">
        <ele>370.20</ele>
        <time>2016-10-15T05:17:17Z</time>
      </trkpt>
      <trkpt lat="42.472914000" lon="-2.460463000">
        <ele>370.10</ele>
        <time>2016-10-15T05:17:18Z</time>
      </trkpt>
      <trkpt lat="42.472949000" lon="-2.460466000">
        <ele>369.90</ele>
        <time>2016-10-15T05:17:19Z</time>
      </trkpt>
      <trkpt lat="42.472983000" lon="-2.460476000">
        <ele>369.80</ele>
        <time>2016-10-15T05:17:20Z</time>
      </trkpt>
      <trkpt lat="42.473017000" lon="-2.460487000">
        <ele>369.80</ele>
        <time>2016-10-15T05:17:21Z</time>
      </trkpt>
      <trkpt lat="42.473047000" lon="-2.460502000">
        <ele>369.80</ele>
        <time>2016-10-15T05:17:22Z</time>
      </trkpt>
      <trkpt lat="42.473076000" lon="-2.460516000">
        <ele>369.90</ele>
        <time>2016-10-15T05:17:23Z</time>
      </trkpt>
      <trkpt lat="42.473106000" lon="-2.460528000">
        <ele>369.80</ele>
        <time>2016-10-15T05:17:24Z</time>
      </trkpt>
      <trkpt lat="42.473135000" lon="-2.460536000">
        <ele>369.70</ele>
        <time>2016-10-15T05:17:25Z</time>
      </trkpt>
      <trkpt lat="42.473164000" lon="-2.460544000">
        <ele>369.80</ele>
        <time>2016-10-15T05:17:26Z</time>
      </trkpt>
      <trkpt lat="42.473195000" lon="-2.460552000">
        <ele>369.80</ele>
        <time>2016-10-15T05:17:27Z</time>
      </trkpt>
      <trkpt lat="42.473226000" lon="-2.460564000">
        <ele>369.90</ele>
        <time>2016-10-15T05:17:28Z</time>
      </trkpt>
      <trkpt lat="42.473255000" lon="-2.460579000">
        <ele>369.90</ele>
        <time>2016-10-15T05:17:29Z</time>
      </trkpt>
      <trkpt lat="42.473286000" lon="-2.460597000">
        <ele>369.90</ele>
        <time>2016-10-15T05:17:30Z</time>
      </trkpt>
      <trkpt lat="42.473316000" lon="-2.460611000">
        <ele>369.90</ele>
        <time>2016-10-15T05:17:31Z</time>
      </trkpt>
      <trkpt lat="42.473346000" lon="-2.460631000">
        <ele>370.00</ele>
        <time>2016-10-15T05:17:32Z</time>
      </trkpt>
      <trkpt lat="42.473376000" lon="-2.460652000">
        <ele>370.00</ele>
        <time>2016-10-15T05:17:33Z</time>
      </trkpt>
      <trkpt lat="42.473409000" lon="-2.460671000">
        <ele>369.90</ele>
        <time>2016-10-15T05:17:34Z</time>
      </trkpt>
      <trkpt lat="42.473441000" lon="-2.460685000">
        <ele>369.90</ele>
        <time>2016-10-15T05:17:35Z</time>
      </trkpt>
      <trkpt lat="42.473474000" lon="-2.460700000">
        <ele>369.80</ele>
        <time>2016-10-15T05:17:36Z</time>
      </trkpt>
      <trkpt lat="42.473505000" lon="-2.460712000">
        <ele>369.70</ele>
        <time>2016-10-15T05:17:37Z</time>
      </trkpt>
      <trkpt lat="42.473537000" lon="-2.460726000">
        <ele>369.70</ele>
        <time>2016-10-15T05:17:38Z</time>
      </trkpt>
      <trkpt lat="42.473568000" lon="-2.460736000">
        <ele>369.70</ele>
        <time>2016-10-15T05:17:39Z</time>
      </trkpt>
      <trkpt lat="42.473598000" lon="-2.460748000">
        <ele>369.80</ele>
        <time>2016-10-15T05:17:40Z</time>
      </trkpt>
      <trkpt lat="42.473629000" lon="-2.460763000">
        <ele>369.80</ele>
        <time>2016-10-15T05:17:41Z</time>
      </trkpt>
      <trkpt lat="42.473661000" lon="-2.460776000">
        <ele>369.90</ele>
        <time>2016-10-15T05:17:42Z</time>
      </trkpt>
      <trkpt lat="42.473691000" lon="-2.460788000">
        <ele>370.00</ele>
        <time>2016-10-15T05:17:43Z</time>
      </trkpt>
      <trkpt lat="42.473722000" lon="-2.460799000">
        <ele>370.10</ele>
        <time>2016-10-15T05:17:44Z</time>
      </trkpt>
      <trkpt lat="42.473751000" lon="-2.460810000">
        <ele>370.10</ele>
        <time>2016-10-15T05:17:45Z</time>
      </trkpt>
      <trkpt lat="42.473778000" lon="-2.460824000">
        <ele>370.00</ele>
        <time>2016-10-15T05:17:46Z</time>
      </trkpt>
      <trkpt lat="42.473805000" lon="-2.460839000">
        <ele>369.90</ele>
        <time>2016-10-15T05:17:47Z</time>
      </trkpt>
      <trkpt lat="42.473831000" lon="-2.460852000">
        <ele>369.90</ele>
        <time>2016-10-15T05:17:48Z</time>
      </trkpt>
      <trkpt lat="42.473860000" lon="-2.460865000">
        <ele>369.90</ele>
        <time>2016-10-15T05:17:49Z</time>
      </trkpt>
      <trkpt lat="42.473889000" lon="-2.460878000">
        <ele>369.80</ele>
        <time>2016-10-15T05:17:50Z</time>
      </trkpt>
      <trkpt lat="42.473919000" lon="-2.460893000">
        <ele>369.70</ele>
        <time>2016-10-15T05:17:51Z</time>
      </trkpt>
      <trkpt lat="42.473949000" lon="-2.460904000">
        <ele>369.60</ele>
        <time>2016-10-15T05:17:52Z</time>
      </trkpt>
      <trkpt lat="42.473977000" lon="-2.460915000">
        <ele>369.50</ele>
        <time>2016-10-15T05:17:53Z</time>
      </trkpt>
      <trkpt lat="42.474006000" lon="-2.460928000">
        <ele>369.40</ele>
        <time>2016-10-15T05:17:54Z</time>
      </trkpt>
      <trkpt lat="42.474037000" lon="-2.460939000">
        <ele>369.40</ele>
        <time>2016-10-15T05:17:55Z</time>
      </trkpt>
      <trkpt lat="42.474066000" lon="-2.460950000">
        <ele>369.30</ele>
        <time>2016-10-15T05:17:56Z</time>
      </trkpt>
      <trkpt lat="42.474096000" lon="-2.460964000">
        <ele>369.30</ele>
        <time>2016-10-15T05:17:57Z</time>
      </trkpt>
      <trkpt lat="42.474125000" lon="-2.460979000">
        <ele>369.40</ele>
        <time>2016-10-15T05:17:58Z</time>
      </trkpt>
      <trkpt lat="42.474155000" lon="-2.460993000">
        <ele>369.50</ele>
        <time>2016-10-15T05:17:59Z</time>
      </trkpt>
      <trkpt lat="42.474184000" lon="-2.461005000">
        <ele>369.40</ele>
        <time>2016-10-15T05:18:00Z</time>
      </trkpt>
      <trkpt lat="42.474213000" lon="-2.461017000">
        <ele>369.40</ele>
        <time>2016-10-15T05:18:01Z</time>
      </trkpt>
      <trkpt lat="42.474243000" lon="-2.461028000">
        <ele>369.30</ele>
        <time>2016-10-15T05:18:02Z</time>
      </trkpt>
      <trkpt lat="42.474297000" lon="-2.461056000">
        <ele>369.30</ele>
        <time>2016-10-15T05:18:04Z</time>
      </trkpt>
      <trkpt lat="42.474323000" lon="-2.461069000">
        <ele>369.30</ele>
        <time>2016-10-15T05:18:05Z</time>
      </trkpt>
      <trkpt lat="42.474350000" lon="-2.461082000">
        <ele>369.40</ele>
        <time>2016-10-15T05:18:06Z</time>
      </trkpt>
      <trkpt lat="42.474380000" lon="-2.461096000">
        <ele>369.40</ele>
        <time>2016-10-15T05:18:07Z</time>
      </trkpt>
      <trkpt lat="42.474410000" lon="-2.461106000">
        <ele>369.50</ele>
        <time>2016-10-15T05:18:08Z</time>
      </trkpt>
      <trkpt lat="42.474438000" lon="-2.461119000">
        <ele>369.50</ele>
        <time>2016-10-15T05:18:09Z</time>
      </trkpt>
      <trkpt lat="42.474467000" lon="-2.461128000">
        <ele>369.30</ele>
        <time>2016-10-15T05:18:10Z</time>
      </trkpt>
      <trkpt lat="42.474496000" lon="-2.461142000">
        <ele>369.20</ele>
        <time>2016-10-15T05:18:11Z</time>
      </trkpt>
      <trkpt lat="42.474525000" lon="-2.461156000">
        <ele>369.00</ele>
        <time>2016-10-15T05:18:12Z</time>
      </trkpt>
      <trkpt lat="42.474550000" lon="-2.461171000">
        <ele>369.00</ele>
        <time>2016-10-15T05:18:13Z</time>
      </trkpt>
      <trkpt lat="42.474574000" lon="-2.461186000">
        <ele>369.00</ele>
        <time>2016-10-15T05:18:14Z</time>
      </trkpt>
      <trkpt lat="42.474598000" lon="-2.461201000">
        <ele>369.00</ele>
        <time>2016-10-15T05:18:15Z</time>
      </trkpt>
      <trkpt lat="42.474623000" lon="-2.461217000">
        <ele>369.10</ele>
        <time>2016-10-15T05:18:16Z</time>
      </trkpt>
      <trkpt lat="42.474647000" lon="-2.461230000">
        <ele>369.20</ele>
        <time>2016-10-15T05:18:17Z</time>
      </trkpt>
      <trkpt lat="42.474674000" lon="-2.461238000">
        <ele>369.20</ele>
        <time>2016-10-15T05:18:18Z</time>
      </trkpt>
      <trkpt lat="42.474701000" lon="-2.461247000">
        <ele>369.20</ele>
        <time>2016-10-15T05:18:19Z</time>
      </trkpt>
      <trkpt lat="42.474730000" lon="-2.461259000">
        <ele>369.20</ele>
        <time>2016-10-15T05:18:20Z</time>
      </trkpt>
      <trkpt lat="42.474759000" lon="-2.461274000">
        <ele>369.20</ele>
        <time>2016-10-15T05:18:21Z</time>
      </trkpt>
      <trkpt lat="42.474789000" lon="-2.461287000">
        <ele>369.20</ele>
        <time>2016-10-15T05:18:22Z</time>
      </trkpt>
      <trkpt lat="42.474819000" lon="-2.461298000">
        <ele>369.30</ele>
        <time>2016-10-15T05:18:23Z</time>
      </trkpt>
      <trkpt lat="42.474851000" lon="-2.461311000">
        <ele>369.30</ele>
        <time>2016-10-15T05:18:24Z</time>
      </trkpt>
      <trkpt lat="42.474881000" lon="-2.461322000">
        <ele>369.30</ele>
        <time>2016-10-15T05:18:25Z</time>
      </trkpt>
      <trkpt lat="42.474910000" lon="-2.461332000">
        <ele>369.30</ele>
        <time>2016-10-15T05:18:26Z</time>
      </trkpt>
      <trkpt lat="42.474939000" lon="-2.461348000">
        <ele>369.30</ele>
        <time>2016-10-15T05:18:27Z</time>
      </trkpt>
      <trkpt lat="42.474966000" lon="-2.461361000">
        <ele>369.40</ele>
        <time>2016-10-15T05:18:28Z</time>
      </trkpt>
      <trkpt lat="42.474991000" lon="-2.461376000">
        <ele>369.50</ele>
        <time>2016-10-15T05:18:29Z</time>
      </trkpt>
      <trkpt lat="42.475020000" lon="-2.461393000">
        <ele>369.60</ele>
        <time>2016-10-15T05:18:30Z</time>
      </trkpt>
      <trkpt lat="42.475050000" lon="-2.461408000">
        <ele>369.60</ele>
        <time>2016-10-15T05:18:31Z</time>
      </trkpt>
      <trkpt lat="42.475075000" lon="-2.461422000">
        <ele>369.50</ele>
        <time>2016-10-15T05:18:32Z</time>
      </trkpt>
      <trkpt lat="42.475099000" lon="-2.461434000">
        <ele>369.40</ele>
        <time>2016-10-15T05:18:33Z</time>
      </trkpt>
      <trkpt lat="42.475123000" lon="-2.461445000">
        <ele>369.30</ele>
        <time>2016-10-15T05:18:34Z</time>
      </trkpt>
      <trkpt lat="42.475149000" lon="-2.461457000">
        <ele>369.20</ele>
        <time>2016-10-15T05:18:35Z</time>
      </trkpt>
      <trkpt lat="42.475175000" lon="-2.461470000">
        <ele>369.10</ele>
        <time>2016-10-15T05:18:36Z</time>
      </trkpt>
      <trkpt lat="42.475201000" lon="-2.461484000">
        <ele>369.00</ele>
        <time>2016-10-15T05:18:37Z</time>
      </trkpt>
      <trkpt lat="42.475226000" lon="-2.461498000">
        <ele>369.10</ele>
        <time>2016-10-15T05:18:38Z</time>
      </trkpt>
      <trkpt lat="42.475252000" lon="-2.461512000">
        <ele>369.10</ele>
        <time>2016-10-15T05:18:39Z</time>
      </trkpt>
      <trkpt lat="42.475279000" lon="-2.461521000">
        <ele>369.10</ele>
        <time>2016-10-15T05:18:40Z</time>
      </trkpt>
      <trkpt lat="42.475306000" lon="-2.461531000">
        <ele>369.20</ele>
        <time>2016-10-15T05:18:41Z</time>
      </trkpt>
      <trkpt lat="42.475332000" lon="-2.461540000">
        <ele>369.30</ele>
        <time>2016-10-15T05:18:42Z</time>
      </trkpt>
      <trkpt lat="42.475359000" lon="-2.461551000">
        <ele>369.40</ele>
        <time>2016-10-15T05:18:43Z</time>
      </trkpt>
      <trkpt lat="42.475386000" lon="-2.461564000">
        <ele>369.50</ele>
        <time>2016-10-15T05:18:44Z</time>
      </trkpt>
      <trkpt lat="42.475412000" lon="-2.461575000">
        <ele>369.60</ele>
        <time>2016-10-15T05:18:45Z</time>
      </trkpt>
      <trkpt lat="42.475440000" lon="-2.461589000">
        <ele>369.50</ele>
        <time>2016-10-15T05:18:46Z</time>
      </trkpt>
      <trkpt lat="42.475465000" lon="-2.461603000">
        <ele>369.50</ele>
        <time>2016-10-15T05:18:47Z</time>
      </trkpt>
      <trkpt lat="42.475489000" lon="-2.461616000">
        <ele>369.30</ele>
        <time>2016-10-15T05:18:48Z</time>
      </trkpt>
      <trkpt lat="42.475512000" lon="-2.461637000">
        <ele>369.20</ele>
        <time>2016-10-15T05:18:49Z</time>
      </trkpt>
      <trkpt lat="42.475537000" lon="-2.461660000">
        <ele>369.20</ele>
        <time>2016-10-15T05:18:50Z</time>
      </trkpt>
      <trkpt lat="42.475555000" lon="-2.461686000">
        <ele>369.20</ele>
        <time>2016-10-15T05:18:51Z</time>
      </trkpt>
      <trkpt lat="42.475568000" lon="-2.461720000">
        <ele>369.20</ele>
        <time>2016-10-15T05:18:52Z</time>
      </trkpt>
      <trkpt lat="42.475576000" lon="-2.461753000">
        <ele>369.20</ele>
        <time>2016-10-15T05:18:53Z</time>
      </trkpt>
      <trkpt lat="42.475582000" lon="-2.461790000">
        <ele>369.20</ele>
        <time>2016-10-15T05:18:54Z</time>
      </trkpt>
      <trkpt lat="42.475587000" lon="-2.461831000">
        <ele>369.20</ele>
        <time>2016-10-15T05:18:55Z</time>
      </trkpt>
      <trkpt lat="42.475594000" lon="-2.461868000">
        <ele>369.20</ele>
        <time>2016-10-15T05:18:56Z</time>
      </trkpt>
      <trkpt lat="42.475594000" lon="-2.461906000">
        <ele>369.20</ele>
        <time>2016-10-15T05:18:57Z</time>
      </trkpt>
      <trkpt lat="42.475590000" lon="-2.461941000">
        <ele>369.20</ele>
        <time>2016-10-15T05:18:58Z</time>
      </trkpt>
      <trkpt lat="42.475579000" lon="-2.461972000">
        <ele>369.20</ele>
        <time>2016-10-15T05:18:59Z</time>
      </trkpt>
      <trkpt lat="42.475561000" lon="-2.461996000">
        <ele>369.30</ele>
        <time>2016-10-15T05:19:00Z</time>
      </trkpt>
      <trkpt lat="42.475542000" lon="-2.462019000">
        <ele>369.40</ele>
        <time>2016-10-15T05:19:01Z</time>
      </trkpt>
      <trkpt lat="42.475525000" lon="-2.462041000">
        <ele>369.60</ele>
        <time>2016-10-15T05:19:02Z</time>
      </trkpt>
      <trkpt lat="42.475507000" lon="-2.462060000">
        <ele>369.70</ele>
        <time>2016-10-15T05:19:03Z</time>
      </trkpt>
      <trkpt lat="42.475474000" lon="-2.462099000">
        <ele>369.90</ele>
        <time>2016-10-15T05:19:05Z</time>
      </trkpt>
      <trkpt lat="42.475460000" lon="-2.462116000">
        <ele>370.00</ele>
        <time>2016-10-15T05:19:06Z</time>
      </trkpt>
      <trkpt lat="42.475446000" lon="-2.462131000">
        <ele>370.00</ele>
        <time>2016-10-15T05:19:07Z</time>
      </trkpt>
      <trkpt lat="42.475434000" lon="-2.462149000">
        <ele>370.10</ele>
        <time>2016-10-15T05:19:08Z</time>
      </trkpt>
      <trkpt lat="42.475422000" lon="-2.462164000">
        <ele>370.20</ele>
        <time>2016-10-15T05:19:09Z</time>
      </trkpt>
      <trkpt lat="42.475411000" lon="-2.462173000">
        <ele>370.50</ele>
        <time>2016-10-15T05:19:10Z</time>
      </trkpt>
      <trkpt lat="42.475403000" lon="-2.462186000">
        <ele>370.70</ele>
        <time>2016-10-15T05:19:11Z</time>
      </trkpt>
      <trkpt lat="42.475390000" lon="-2.462195000">
        <ele>370.90</ele>
        <time>2016-10-15T05:19:12Z</time>
      </trkpt>
      <trkpt lat="42.475382000" lon="-2.462203000">
        <ele>371.00</ele>
        <time>2016-10-15T05:19:13Z</time>
      </trkpt>
      <trkpt lat="42.475372000" lon="-2.462217000">
        <ele>371.20</ele>
        <time>2016-10-15T05:19:14Z</time>
      </trkpt>
      <trkpt lat="42.475366000" lon="-2.462230000">
        <ele>371.40</ele>
        <time>2016-10-15T05:19:15Z</time>
      </trkpt>
      <trkpt lat="42.475371000" lon="-2.462249000">
        <ele>371.40</ele>
        <time>2016-10-15T05:19:16Z</time>
      </trkpt>
      <trkpt lat="42.475382000" lon="-2.462264000">
        <ele>371.40</ele>
        <time>2016-10-15T05:19:17Z</time>
      </trkpt>
      <trkpt lat="42.475399000" lon="-2.462248000">
        <ele>371.40</ele>
        <time>2016-10-15T05:19:18Z</time>
      </trkpt>
      <trkpt lat="42.475418000" lon="-2.462221000">
        <ele>371.50</ele>
        <time>2016-10-15T05:19:19Z</time>
      </trkpt>
      <trkpt lat="42.475439000" lon="-2.462196000">
        <ele>371.50</ele>
        <time>2016-10-15T05:19:20Z</time>
      </trkpt>
      <trkpt lat="42.475463000" lon="-2.462164000">
        <ele>371.40</ele>
        <time>2016-10-15T05:19:21Z</time>
      </trkpt>
      <trkpt lat="42.475488000" lon="-2.462136000">
        <ele>371.40</ele>
        <time>2016-10-15T05:19:22Z</time>
      </trkpt>
      <trkpt lat="42.475511000" lon="-2.462107000">
        <ele>371.30</ele>
        <time>2016-10-15T05:19:23Z</time>
      </trkpt>
      <trkpt lat="42.475533000" lon="-2.462081000">
        <ele>371.20</ele>
        <time>2016-10-15T05:19:24Z</time>
      </trkpt>
      <trkpt lat="42.475554000" lon="-2.462059000">
        <ele>371.20</ele>
        <time>2016-10-15T05:19:25Z</time>
      </trkpt>
      <trkpt lat="42.475574000" lon="-2.462041000">
        <ele>371.20</ele>
        <time>2016-10-15T05:19:26Z</time>
      </trkpt>
      <trkpt lat="42.475590000" lon="-2.462016000">
        <ele>371.20</ele>
        <time>2016-10-15T05:19:27Z</time>
      </trkpt>
      <trkpt lat="42.475602000" lon="-2.461995000">
        <ele>371.20</ele>
        <time>2016-10-15T05:19:28Z</time>
      </trkpt>
      <trkpt lat="42.475618000" lon="-2.461978000">
        <ele>371.10</ele>
        <time>2016-10-15T05:19:29Z</time>
      </trkpt>
      <trkpt lat="42.475633000" lon="-2.461959000">
        <ele>371.00</ele>
        <time>2016-10-15T05:19:30Z</time>
      </trkpt>
      <trkpt lat="42.475649000" lon="-2.461943000">
        <ele>370.90</ele>
        <time>2016-10-15T05:19:31Z</time>
      </trkpt>
      <trkpt lat="42.475665000" lon="-2.461925000">
        <ele>370.80</ele>
        <time>2016-10-15T05:19:32Z</time>
      </trkpt>
      <trkpt lat="42.475679000" lon="-2.461910000">
        <ele>370.80</ele>
        <time>2016-10-15T05:19:33Z</time>
      </trkpt>
      <trkpt lat="42.475696000" lon="-2.461889000">
        <ele>370.70</ele>
        <time>2016-10-15T05:19:34Z</time>
      </trkpt>
      <trkpt lat="42.475708000" lon="-2.461870000">
        <ele>370.70</ele>
        <time>2016-10-15T05:19:35Z</time>
      </trkpt>
      <trkpt lat="42.475720000" lon="-2.461848000">
        <ele>370.80</ele>
        <time>2016-10-15T05:19:36Z</time>
      </trkpt>
      <trkpt lat="42.475735000" lon="-2.461829000">
        <ele>370.80</ele>
        <time>2016-10-15T05:19:37Z</time>
      </trkpt>
      <trkpt lat="42.475749000" lon="-2.461813000">
        <ele>370.90</ele>
        <time>2016-10-15T05:19:38Z</time>
      </trkpt>
      <trkpt lat="42.475765000" lon="-2.461796000">
        <ele>371.00</ele>
        <time>2016-10-15T05:19:39Z</time>
      </trkpt>
      <trkpt lat="42.475777000" lon="-2.461778000">
        <ele>371.00</ele>
        <time>2016-10-15T05:19:40Z</time>
      </trkpt>
      <trkpt lat="42.475791000" lon="-2.461758000">
        <ele>371.00</ele>
        <time>2016-10-15T05:19:41Z</time>
      </trkpt>
      <trkpt lat="42.475805000" lon="-2.461742000">
        <ele>370.90</ele>
        <time>2016-10-15T05:19:42Z</time>
      </trkpt>
      <trkpt lat="42.475821000" lon="-2.461725000">
        <ele>370.80</ele>
        <time>2016-10-15T05:19:43Z</time>
      </trkpt>
      <trkpt lat="42.475839000" lon="-2.461708000">
        <ele>370.70</ele>
        <time>2016-10-15T05:19:44Z</time>
      </trkpt>
      <trkpt lat="42.475855000" lon="-2.461688000">
        <ele>370.70</ele>
        <time>2016-10-15T05:19:45Z</time>
      </trkpt>
      <trkpt lat="42.475870000" lon="-2.461671000">
        <ele>370.60</ele>
        <time>2016-10-15T05:19:46Z</time>
      </trkpt>
      <trkpt lat="42.475887000" lon="-2.461654000">
        <ele>370.60</ele>
        <time>2016-10-15T05:19:47Z</time>
      </trkpt>
      <trkpt lat="42.475902000" lon="-2.461634000">
        <ele>370.60</ele>
        <time>2016-10-15T05:19:48Z</time>
      </trkpt>
      <trkpt lat="42.475918000" lon="-2.461623000">
        <ele>370.60</ele>
        <time>2016-10-15T05:19:49Z</time>
      </trkpt>
      <trkpt lat="42.475929000" lon="-2.461609000">
        <ele>370.50</ele>
        <time>2016-10-15T05:19:50Z</time>
      </trkpt>
      <trkpt lat="42.475934000" lon="-2.461592000">
        <ele>370.40</ele>
        <time>2016-10-15T05:19:51Z</time>
      </trkpt>
      <trkpt lat="42.475946000" lon="-2.461581000">
        <ele>370.40</ele>
        <time>2016-10-15T05:19:52Z</time>
      </trkpt>
      <trkpt lat="42.475962000" lon="-2.461560000">
        <ele>370.30</ele>
        <time>2016-10-15T05:19:53Z</time>
      </trkpt>
      <trkpt lat="42.475977000" lon="-2.461537000">
        <ele>370.30</ele>
        <time>2016-10-15T05:19:54Z</time>
      </trkpt>
      <trkpt lat="42.475992000" lon="-2.461512000">
        <ele>370.30</ele>
        <time>2016-10-15T05:19:55Z</time>
      </trkpt>
      <trkpt lat="42.476004000" lon="-2.461495000">
        <ele>370.30</ele>
        <time>2016-10-15T05:19:56Z</time>
      </trkpt>
      <trkpt lat="42.476016000" lon="-2.461476000">
        <ele>370.30</ele>
        <time>2016-10-15T05:19:57Z</time>
      </trkpt>
      <trkpt lat="42.476023000" lon="-2.461458000">
        <ele>370.30</ele>
        <time>2016-10-15T05:19:58Z</time>
      </trkpt>
      <trkpt lat="42.476029000" lon="-2.461440000">
        <ele>370.40</ele>
        <time>2016-10-15T05:19:59Z</time>
      </trkpt>
      <trkpt lat="42.476038000" lon="-2.461421000">
        <ele>370.40</ele>
        <time>2016-10-15T05:20:00Z</time>
      </trkpt>
      <trkpt lat="42.476047000" lon="-2.461403000">
        <ele>370.40</ele>
        <time>2016-10-15T05:20:01Z</time>
      </trkpt>
      <trkpt lat="42.476054000" lon="-2.461385000">
        <ele>370.40</ele>
        <time>2016-10-15T05:20:02Z</time>
      </trkpt>
      <trkpt lat="42.476059000" lon="-2.461371000">
        <ele>370.40</ele>
        <time>2016-10-15T05:20:03Z</time>
      </trkpt>
      <trkpt lat="42.476070000" lon="-2.461357000">
        <ele>370.20</ele>
        <time>2016-10-15T05:20:04Z</time>
      </trkpt>
      <trkpt lat="42.476092000" lon="-2.461323000">
        <ele>370.00</ele>
        <time>2016-10-15T05:20:06Z</time>
      </trkpt>
      <trkpt lat="42.476103000" lon="-2.461306000">
        <ele>369.90</ele>
        <time>2016-10-15T05:20:07Z</time>
      </trkpt>
      <trkpt lat="42.476112000" lon="-2.461286000">
        <ele>369.90</ele>
        <time>2016-10-15T05:20:08Z</time>
      </trkpt>
      <trkpt lat="42.476125000" lon="-2.461266000">
        <ele>370.00</ele>
        <time>2016-10-15T05:20:09Z</time>
      </trkpt>
      <trkpt lat="42.476142000" lon="-2.461241000">
        <ele>370.00</ele>
        <time>2016-10-15T05:20:10Z</time>
      </trkpt>
      <trkpt lat="42.476157000" lon="-2.461220000">
        <ele>370.00</ele>
        <time>2016-10-15T05:20:11Z</time>
      </trkpt>
      <trkpt lat="42.476173000" lon="-2.461196000">
        <ele>370.00</ele>
        <time>2016-10-15T05:20:12Z</time>
      </trkpt>
      <trkpt lat="42.476186000" lon="-2.461172000">
        <ele>370.00</ele>
        <time>2016-10-15T05:20:13Z</time>
      </trkpt>
      <trkpt lat="42.476199000" lon="-2.461143000">
        <ele>370.10</ele>
        <time>2016-10-15T05:20:14Z</time>
      </trkpt>
      <trkpt lat="42.476214000" lon="-2.461117000">
        <ele>370.10</ele>
        <time>2016-10-15T05:20:15Z</time>
      </trkpt>
      <trkpt lat="42.476225000" lon="-2.461086000">
        <ele>370.00</ele>
        <time>2016-10-15T05:20:16Z</time>
      </trkpt>
      <trkpt lat="42.476238000" lon="-2.461058000">
        <ele>370.00</ele>
        <time>2016-10-15T05:20:17Z</time>
      </trkpt>
      <trkpt lat="42.476256000" lon="-2.461034000">
        <ele>370.00</ele>
        <time>2016-10-15T05:20:18Z</time>
      </trkpt>
      <trkpt lat="42.476271000" lon="-2.461014000">
        <ele>370.00</ele>
        <time>2016-10-15T05:20:19Z</time>
      </trkpt>
      <trkpt lat="42.476286000" lon="-2.460991000">
        <ele>369.90</ele>
        <time>2016-10-15T05:20:20Z</time>
      </trkpt>
      <trkpt lat="42.476299000" lon="-2.460970000">
        <ele>369.90</ele>
        <time>2016-10-15T05:20:21Z</time>
      </trkpt>
      <trkpt lat="42.476315000" lon="-2.460950000">
        <ele>369.80</ele>
        <time>2016-10-15T05:20:22Z</time>
      </trkpt>
      <trkpt lat="42.476327000" lon="-2.460927000">
        <ele>369.70</ele>
        <time>2016-10-15T05:20:23Z</time>
      </trkpt>
      <trkpt lat="42.476339000" lon="-2.460908000">
        <ele>369.60</ele>
        <time>2016-10-15T05:20:24Z</time>
      </trkpt>
      <trkpt lat="42.476351000" lon="-2.460885000">
        <ele>369.60</ele>
        <time>2016-10-15T05:20:25Z</time>
      </trkpt>
      <trkpt lat="42.476362000" lon="-2.460876000">
        <ele>369.50</ele>
        <time>2016-10-15T05:20:26Z</time>
      </trkpt>
      <trkpt lat="42.476369000" lon="-2.460861000">
        <ele>369.50</ele>
        <time>2016-10-15T05:20:27Z</time>
      </trkpt>
      <trkpt lat="42.476379000" lon="-2.460850000">
        <ele>369.60</ele>
        <time>2016-10-15T05:20:28Z</time>
      </trkpt>
      <trkpt lat="42.476385000" lon="-2.460830000">
        <ele>369.70</ele>
        <time>2016-10-15T05:20:29Z</time>
      </trkpt>
      <trkpt lat="42.476392000" lon="-2.460813000">
        <ele>369.70</ele>
        <time>2016-10-15T05:20:30Z</time>
      </trkpt>
      <trkpt lat="42.476402000" lon="-2.460797000">
        <ele>369.80</ele>
        <time>2016-10-15T05:20:31Z</time>
      </trkpt>
      <trkpt lat="42.476411000" lon="-2.460785000">
        <ele>369.90</ele>
        <time>2016-10-15T05:20:32Z</time>
      </trkpt>
      <trkpt lat="42.476421000" lon="-2.460768000">
        <ele>369.90</ele>
        <time>2016-10-15T05:20:33Z</time>
      </trkpt>
      <trkpt lat="42.476439000" lon="-2.460758000">
        <ele>369.90</ele>
        <time>2016-10-15T05:20:34Z</time>
      </trkpt>
      <trkpt lat="42.476449000" lon="-2.460749000">
        <ele>369.90</ele>
        <time>2016-10-15T05:20:35Z</time>
      </trkpt>
      <trkpt lat="42.476461000" lon="-2.460737000">
        <ele>369.90</ele>
        <time>2016-10-15T05:20:36Z</time>
      </trkpt>
      <trkpt lat="42.476464000" lon="-2.460718000">
        <ele>369.90</ele>
        <time>2016-10-15T05:20:37Z</time>
      </trkpt>
      <trkpt lat="42.476477000" lon="-2.460708000">
        <ele>369.90</ele>
        <time>2016-10-15T05:20:38Z</time>
      </trkpt>
      <trkpt lat="42.476488000" lon="-2.460693000">
        <ele>369.90</ele>
        <time>2016-10-15T05:20:39Z</time>
      </trkpt>
      <trkpt lat="42.476499000" lon="-2.460686000">
        <ele>369.90</ele>
        <time>2016-10-15T05:20:40Z</time>
      </trkpt>
      <trkpt lat="42.476514000" lon="-2.460675000">
        <ele>369.90</ele>
        <time>2016-10-15T05:20:41Z</time>
      </trkpt>
      <trkpt lat="42.476525000" lon="-2.460669000">
        <ele>369.90</ele>
        <time>2016-10-15T05:20:42Z</time>
      </trkpt>
      <trkpt lat="42.476533000" lon="-2.460651000">
        <ele>369.90</ele>
        <time>2016-10-15T05:20:43Z</time>
      </trkpt>
      <trkpt lat="42.476542000" lon="-2.460636000">
        <ele>369.80</ele>
        <time>2016-10-15T05:20:44Z</time>
      </trkpt>
      <trkpt lat="42.476554000" lon="-2.460625000">
        <ele>369.80</ele>
        <time>2016-10-15T05:20:45Z</time>
      </trkpt>
      <trkpt lat="42.476567000" lon="-2.460612000">
        <ele>369.80</ele>
        <time>2016-10-15T05:20:46Z</time>
      </trkpt>
      <trkpt lat="42.476579000" lon="-2.460605000">
        <ele>369.70</ele>
        <time>2016-10-15T05:20:47Z</time>
      </trkpt>
      <trkpt lat="42.476593000" lon="-2.460591000">
        <ele>369.70</ele>
        <time>2016-10-15T05:20:48Z</time>
      </trkpt>
      <trkpt lat="42.476602000" lon="-2.460571000">
        <ele>369.70</ele>
        <time>2016-10-15T05:20:49Z</time>
      </trkpt>
      <trkpt lat="42.476611000" lon="-2.460553000">
        <ele>369.60</ele>
        <time>2016-10-15T05:20:50Z</time>
      </trkpt>
      <trkpt lat="42.476635000" lon="-2.460540000">
        <ele>369.60</ele>
        <time>2016-10-15T05:20:51Z</time>
      </trkpt>
      <trkpt lat="42.476650000" lon="-2.460532000">
        <ele>369.50</ele>
        <time>2016-10-15T05:20:52Z</time>
      </trkpt>
      <trkpt lat="42.476667000" lon="-2.460521000">
        <ele>369.50</ele>
        <time>2016-10-15T05:20:53Z</time>
      </trkpt>
      <trkpt lat="42.476684000" lon="-2.460503000">
        <ele>369.50</ele>
        <time>2016-10-15T05:20:54Z</time>
      </trkpt>
      <trkpt lat="42.476702000" lon="-2.460489000">
        <ele>369.40</ele>
        <time>2016-10-15T05:20:55Z</time>
      </trkpt>
      <trkpt lat="42.476716000" lon="-2.460469000">
        <ele>369.40</ele>
        <time>2016-10-15T05:20:56Z</time>
      </trkpt>
      <trkpt lat="42.476730000" lon="-2.460452000">
        <ele>369.30</ele>
        <time>2016-10-15T05:20:57Z</time>
      </trkpt>
      <trkpt lat="42.476748000" lon="-2.460438000">
        <ele>369.30</ele>
        <time>2016-10-15T05:20:58Z</time>
      </trkpt>
      <trkpt lat="42.476763000" lon="-2.460425000">
        <ele>369.20</ele>
        <time>2016-10-15T05:20:59Z</time>
      </trkpt>
      <trkpt lat="42.476780000" lon="-2.460412000">
        <ele>369.20</ele>
        <time>2016-10-15T05:21:00Z</time>
      </trkpt>
      <trkpt lat="42.476797000" lon="-2.460396000">
        <ele>369.10</ele>
        <time>2016-10-15T05:21:01Z</time>
      </trkpt>
      <trkpt lat="42.476814000" lon="-2.460382000">
        <ele>369.10</ele>
        <time>2016-10-15T05:21:02Z</time>
      </trkpt>
      <trkpt lat="42.476832000" lon="-2.460365000">
        <ele>369.00</ele>
        <time>2016-10-15T05:21:03Z</time>
      </trkpt>
      <trkpt lat="42.476849000" lon="-2.460351000">
        <ele>369.00</ele>
        <time>2016-10-15T05:21:04Z</time>
      </trkpt>
      <trkpt lat="42.476867000" lon="-2.460339000">
        <ele>369.00</ele>
        <time>2016-10-15T05:21:05Z</time>
      </trkpt>
      <trkpt lat="42.476904000" lon="-2.460308000">
        <ele>368.90</ele>
        <time>2016-10-15T05:21:07Z</time>
      </trkpt>
      <trkpt lat="42.476924000" lon="-2.460291000">
        <ele>368.90</ele>
        <time>2016-10-15T05:21:08Z</time>
      </trkpt>
      <trkpt lat="42.476945000" lon="-2.460279000">
        <ele>369.00</ele>
        <time>2016-10-15T05:21:09Z</time>
      </trkpt>
      <trkpt lat="42.476967000" lon="-2.460266000">
        <ele>369.00</ele>
        <time>2016-10-15T05:21:10Z</time>
      </trkpt>
      <trkpt lat="42.476986000" lon="-2.460259000">
        <ele>369.00</ele>
        <time>2016-10-15T05:21:11Z</time>
      </trkpt>
      <trkpt lat="42.477004000" lon="-2.460248000">
        <ele>369.10</ele>
        <time>2016-10-15T05:21:12Z</time>
      </trkpt>
      <trkpt lat="42.477022000" lon="-2.460232000">
        <ele>369.10</ele>
        <time>2016-10-15T05:21:13Z</time>
      </trkpt>
      <trkpt lat="42.477039000" lon="-2.460219000">
        <ele>369.10</ele>
        <time>2016-10-15T05:21:14Z</time>
      </trkpt>
      <trkpt lat="42.477055000" lon="-2.460206000">
        <ele>369.20</ele>
        <time>2016-10-15T05:21:15Z</time>
      </trkpt>
      <trkpt lat="42.477071000" lon="-2.460198000">
        <ele>369.20</ele>
        <time>2016-10-15T05:21:16Z</time>
      </trkpt>
      <trkpt lat="42.477088000" lon="-2.460185000">
        <ele>369.20</ele>
        <time>2016-10-15T05:21:17Z</time>
      </trkpt>
      <trkpt lat="42.477102000" lon="-2.460175000">
        <ele>369.10</ele>
        <time>2016-10-15T05:21:18Z</time>
      </trkpt>
      <trkpt lat="42.477116000" lon="-2.460166000">
        <ele>369.00</ele>
        <time>2016-10-15T05:21:19Z</time>
      </trkpt>
      <trkpt lat="42.477126000" lon="-2.460156000">
        <ele>368.90</ele>
        <time>2016-10-15T05:21:20Z</time>
      </trkpt>
      <trkpt lat="42.477134000" lon="-2.460144000">
        <ele>368.80</ele>
        <time>2016-10-15T05:21:21Z</time>
      </trkpt>
      <trkpt lat="42.477146000" lon="-2.460136000">
        <ele>368.80</ele>
        <time>2016-10-15T05:21:22Z</time>
      </trkpt>
      <trkpt lat="42.477156000" lon="-2.460128000">
        <ele>368.70</ele>
        <time>2016-10-15T05:21:23Z</time>
      </trkpt>
      <trkpt lat="42.477171000" lon="-2.460119000">
        <ele>368.80</ele>
        <time>2016-10-15T05:21:24Z</time>
      </trkpt>
      <trkpt lat="42.477184000" lon="-2.460111000">
        <ele>368.90</ele>
        <time>2016-10-15T05:21:25Z</time>
      </trkpt>
      <trkpt lat="42.477192000" lon="-2.460100000">
        <ele>369.00</ele>
        <time>2016-10-15T05:21:26Z</time>
      </trkpt>
      <trkpt lat="42.477201000" lon="-2.460090000">
        <ele>369.00</ele>
        <time>2016-10-15T05:21:27Z</time>
      </trkpt>
      <trkpt lat="42.477207000" lon="-2.460079000">
        <ele>369.00</ele>
        <time>2016-10-15T05:21:28Z</time>
      </trkpt>
      <trkpt lat="42.477213000" lon="-2.460065000">
        <ele>368.90</ele>
        <time>2016-10-15T05:21:29Z</time>
      </trkpt>
      <trkpt lat="42.477225000" lon="-2.460058000">
        <ele>368.90</ele>
        <time>2016-10-15T05:21:30Z</time>
      </trkpt>
      <trkpt lat="42.477237000" lon="-2.460050000">
        <ele>368.90</ele>
        <time>2016-10-15T05:21:31Z</time>
      </trkpt>
      <trkpt lat="42.477247000" lon="-2.460035000">
        <ele>368.90</ele>
        <time>2016-10-15T05:21:32Z</time>
      </trkpt>
      <trkpt lat="42.477255000" lon="-2.460021000">
        <ele>368.90</ele>
        <time>2016-10-15T05:21:33Z</time>
      </trkpt>
      <trkpt lat="42.477265000" lon="-2.460010000">
        <ele>368.90</ele>
        <time>2016-10-15T05:21:34Z</time>
      </trkpt>
      <trkpt lat="42.477273000" lon="-2.459997000">
        <ele>368.90</ele>
        <time>2016-10-15T05:21:35Z</time>
      </trkpt>
      <trkpt lat="42.477287000" lon="-2.459988000">
        <ele>368.90</ele>
        <time>2016-10-15T05:21:36Z</time>
      </trkpt>
      <trkpt lat="42.477302000" lon="-2.459975000">
        <ele>368.90</ele>
        <time>2016-10-15T05:21:37Z</time>
      </trkpt>
      <trkpt lat="42.477313000" lon="-2.459960000">
        <ele>368.90</ele>
        <time>2016-10-15T05:21:38Z</time>
      </trkpt>
      <trkpt lat="42.477321000" lon="-2.459949000">
        <ele>368.90</ele>
        <time>2016-10-15T05:21:39Z</time>
      </trkpt>
      <trkpt lat="42.477332000" lon="-2.459942000">
        <ele>368.90</ele>
        <time>2016-10-15T05:21:40Z</time>
      </trkpt>
      <trkpt lat="42.477338000" lon="-2.459930000">
        <ele>368.90</ele>
        <time>2016-10-15T05:21:41Z</time>
      </trkpt>
      <trkpt lat="42.477348000" lon="-2.459920000">
        <ele>368.90</ele>
        <time>2016-10-15T05:21:42Z</time>
      </trkpt>
      <trkpt lat="42.477359000" lon="-2.459906000">
        <ele>369.00</ele>
        <time>2016-10-15T05:21:43Z</time>
      </trkpt>
      <trkpt lat="42.477372000" lon="-2.459896000">
        <ele>369.00</ele>
        <time>2016-10-15T05:21:44Z</time>
      </trkpt>
      <trkpt lat="42.477376000" lon="-2.459880000">
        <ele>369.00</ele>
        <time>2016-10-15T05:21:45Z</time>
      </trkpt>
      <trkpt lat="42.477382000" lon="-2.459867000">
        <ele>369.00</ele>
        <time>2016-10-15T05:21:46Z</time>
      </trkpt>
      <trkpt lat="42.477391000" lon="-2.459850000">
        <ele>369.00</ele>
        <time>2016-10-15T05:21:47Z</time>
      </trkpt>
      <trkpt lat="42.477405000" lon="-2.459841000">
        <ele>369.00</ele>
        <time>2016-10-15T05:21:48Z</time>
      </trkpt>
      <trkpt lat="42.477417000" lon="-2.459831000">
        <ele>368.90</ele>
        <time>2016-10-15T05:21:49Z</time>
      </trkpt>
      <trkpt lat="42.477425000" lon="-2.459817000">
        <ele>368.90</ele>
        <time>2016-10-15T05:21:50Z</time>
      </trkpt>
      <trkpt lat="42.477435000" lon="-2.459807000">
        <ele>368.90</ele>
        <time>2016-10-15T05:21:51Z</time>
      </trkpt>
      <trkpt lat="42.477444000" lon="-2.459800000">
        <ele>368.80</ele>
        <time>2016-10-15T05:21:52Z</time>
      </trkpt>
      <trkpt lat="42.477452000" lon="-2.459787000">
        <ele>368.80</ele>
        <time>2016-10-15T05:21:53Z</time>
      </trkpt>
      <trkpt lat="42.477459000" lon="-2.459772000">
        <ele>368.80</ele>
        <time>2016-10-15T05:21:54Z</time>
      </trkpt>
      <trkpt lat="42.477466000" lon="-2.459761000">
        <ele>368.80</ele>
        <time>2016-10-15T05:21:55Z</time>
      </trkpt>
      <trkpt lat="42.477479000" lon="-2.459756000">
        <ele>368.80</ele>
        <time>2016-10-15T05:21:56Z</time>
      </trkpt>
      <trkpt lat="42.477486000" lon="-2.459739000">
        <ele>368.80</ele>
        <time>2016-10-15T05:21:57Z</time>
      </trkpt>
      <trkpt lat="42.477498000" lon="-2.459726000">
        <ele>368.70</ele>
        <time>2016-10-15T05:21:58Z</time>
      </trkpt>
      <trkpt lat="42.477508000" lon="-2.459709000">
        <ele>368.70</ele>
        <time>2016-10-15T05:21:59Z</time>
      </trkpt>
      <trkpt lat="42.477523000" lon="-2.459703000">
        <ele>368.70</ele>
        <time>2016-10-15T05:22:00Z</time>
      </trkpt>
      <trkpt lat="42.477530000" lon="-2.459689000">
        <ele>368.60</ele>
        <time>2016-10-15T05:22:01Z</time>
      </trkpt>
      <trkpt lat="42.477540000" lon="-2.459681000">
        <ele>368.50</ele>
        <time>2016-10-15T05:22:02Z</time>
      </trkpt>
      <trkpt lat="42.477546000" lon="-2.459669000">
        <ele>368.40</ele>
        <time>2016-10-15T05:22:03Z</time>
      </trkpt>
      <trkpt lat="42.477555000" lon="-2.459660000">
        <ele>368.40</ele>
        <time>2016-10-15T05:22:04Z</time>
      </trkpt>
      <trkpt lat="42.477563000" lon="-2.459647000">
        <ele>368.40</ele>
        <time>2016-10-15T05:22:05Z</time>
      </trkpt>
      <trkpt lat="42.477568000" lon="-2.459628000">
        <ele>368.50</ele>
        <time>2016-10-15T05:22:06Z</time>
      </trkpt>
      <trkpt lat="42.477576000" lon="-2.459596000">
        <ele>368.60</ele>
        <time>2016-10-15T05:22:08Z</time>
      </trkpt>
      <trkpt lat="42.477570000" lon="-2.459582000">
        <ele>368.70</ele>
        <time>2016-10-15T05:22:09Z</time>
      </trkpt>
      <trkpt lat="42.477569000" lon="-2.459568000">
        <ele>368.70</ele>
        <time>2016-10-15T05:22:10Z</time>
      </trkpt>
      <trkpt lat="42.477569000" lon="-2.459564000">
        <ele>368.70</ele>
        <time>2016-10-15T05:22:11Z</time>
      </trkpt>
      <trkpt lat="42.477567000" lon="-2.459558000">
        <ele>368.70</ele>
        <time>2016-10-15T05:22:12Z</time>
      </trkpt>
      <trkpt lat="42.477566000" lon="-2.459550000">
        <ele>368.70</ele>
        <time>2016-10-15T05:22:13Z</time>
      </trkpt>
      <trkpt lat="42.477572000" lon="-2.459550000">
        <ele>368.70</ele>
        <time>2016-10-15T05:22:14Z</time>
      </trkpt>
      <trkpt lat="42.477575000" lon="-2.459551000">
        <ele>368.60</ele>
        <time>2016-10-15T05:22:15Z</time>
      </trkpt>
      <trkpt lat="42.477575000" lon="-2.459553000">
        <ele>368.60</ele>
        <time>2016-10-15T05:22:16Z</time>
      </trkpt>
      <trkpt lat="42.477575000" lon="-2.459554000">
        <ele>368.60</ele>
        <time>2016-10-15T05:22:17Z</time>
      </trkpt>
      <trkpt lat="42.477574000" lon="-2.459558000">
        <ele>368.60</ele>
        <time>2016-10-15T05:22:18Z</time>
      </trkpt>
      <trkpt lat="42.477572000" lon="-2.459559000">
        <ele>368.60</ele>
        <time>2016-10-15T05:22:19Z</time>
      </trkpt>
      <trkpt lat="42.477573000" lon="-2.459559000">
        <ele>368.60</ele>
        <time>2016-10-15T05:22:20Z</time>
      </trkpt>
      <trkpt lat="42.477574000" lon="-2.459557000">
        <ele>368.50</ele>
        <time>2016-10-15T05:22:21Z</time>
      </trkpt>
      <trkpt lat="42.477574000" lon="-2.459559000">
        <ele>368.50</ele>
        <time>2016-10-15T05:22:22Z</time>
      </trkpt>
      <trkpt lat="42.477574000" lon="-2.459564000">
        <ele>368.40</ele>
        <time>2016-10-15T05:22:23Z</time>
      </trkpt>
      <trkpt lat="42.477573000" lon="-2.459565000">
        <ele>368.40</ele>
        <time>2016-10-15T05:22:24Z</time>
      </trkpt>
      <trkpt lat="42.477572000" lon="-2.459567000">
        <ele>368.50</ele>
        <time>2016-10-15T05:22:25Z</time>
      </trkpt>
      <trkpt lat="42.477572000" lon="-2.459567000">
        <ele>368.50</ele>
        <time>2016-10-15T05:22:26Z</time>
      </trkpt>
      <trkpt lat="42.477571000" lon="-2.459565000">
        <ele>368.60</ele>
        <time>2016-10-15T05:22:27Z</time>
      </trkpt>
      <trkpt lat="42.477570000" lon="-2.459566000">
        <ele>368.60</ele>
        <time>2016-10-15T05:22:28Z</time>
      </trkpt>
      <trkpt lat="42.477570000" lon="-2.459565000">
        <ele>368.70</ele>
        <time>2016-10-15T05:22:29Z</time>
      </trkpt>
      <trkpt lat="42.477574000" lon="-2.459562000">
        <ele>368.70</ele>
        <time>2016-10-15T05:22:30Z</time>
      </trkpt>
      <trkpt lat="42.477577000" lon="-2.459560000">
        <ele>368.70</ele>
        <time>2016-10-15T05:22:31Z</time>
      </trkpt>
      <trkpt lat="42.477580000" lon="-2.459557000">
        <ele>368.70</ele>
        <time>2016-10-15T05:22:32Z</time>
      </trkpt>
      <trkpt lat="42.477582000" lon="-2.459555000">
        <ele>368.60</ele>
        <time>2016-10-15T05:22:33Z</time>
      </trkpt>
      <trkpt lat="42.477585000" lon="-2.459556000">
        <ele>368.60</ele>
        <time>2016-10-15T05:22:34Z</time>
      </trkpt>
      <trkpt lat="42.477587000" lon="-2.459560000">
        <ele>368.60</ele>
        <time>2016-10-15T05:22:35Z</time>
      </trkpt>
      <trkpt lat="42.477590000" lon="-2.459564000">
        <ele>368.60</ele>
        <time>2016-10-15T05:22:36Z</time>
      </trkpt>
      <trkpt lat="42.477590000" lon="-2.459567000">
        <ele>368.60</ele>
        <time>2016-10-15T05:22:37Z</time>
      </trkpt>
      <trkpt lat="42.477590000" lon="-2.459568000">
        <ele>368.50</ele>
        <time>2016-10-15T05:22:38Z</time>
      </trkpt>
      <trkpt lat="42.477586000" lon="-2.459570000">
        <ele>368.50</ele>
        <time>2016-10-15T05:22:39Z</time>
      </trkpt>
      <trkpt lat="42.477583000" lon="-2.459570000">
        <ele>368.50</ele>
        <time>2016-10-15T05:22:40Z</time>
      </trkpt>
      <trkpt lat="42.477580000" lon="-2.459571000">
        <ele>368.40</ele>
        <time>2016-10-15T05:22:41Z</time>
      </trkpt>
      <trkpt lat="42.477578000" lon="-2.459573000">
        <ele>368.30</ele>
        <time>2016-10-15T05:22:42Z</time>
      </trkpt>
      <trkpt lat="42.477577000" lon="-2.459573000">
        <ele>368.20</ele>
        <time>2016-10-15T05:22:43Z</time>
      </trkpt>
      <trkpt lat="42.477577000" lon="-2.459576000">
        <ele>368.20</ele>
        <time>2016-10-15T05:22:44Z</time>
      </trkpt>
      <trkpt lat="42.477579000" lon="-2.459577000">
        <ele>368.20</ele>
        <time>2016-10-15T05:22:45Z</time>
      </trkpt>
      <trkpt lat="42.477583000" lon="-2.459573000">
        <ele>368.30</ele>
        <time>2016-10-15T05:22:46Z</time>
      </trkpt>
      <trkpt lat="42.477588000" lon="-2.459568000">
        <ele>368.30</ele>
        <time>2016-10-15T05:22:47Z</time>
      </trkpt>
      <trkpt lat="42.477593000" lon="-2.459566000">
        <ele>368.30</ele>
        <time>2016-10-15T05:22:48Z</time>
      </trkpt>
      <trkpt lat="42.477597000" lon="-2.459565000">
        <ele>368.30</ele>
        <time>2016-10-15T05:22:49Z</time>
      </trkpt>
      <trkpt lat="42.477599000" lon="-2.459565000">
        <ele>368.30</ele>
        <time>2016-10-15T05:22:50Z</time>
      </trkpt>
      <trkpt lat="42.477597000" lon="-2.459566000">
        <ele>368.30</ele>
        <time>2016-10-15T05:22:51Z</time>
      </trkpt>
      <trkpt lat="42.477594000" lon="-2.459570000">
        <ele>368.30</ele>
        <time>2016-10-15T05:22:52Z</time>
      </trkpt>
      <trkpt lat="42.477590000" lon="-2.459569000">
        <ele>368.30</ele>
        <time>2016-10-15T05:22:53Z</time>
      </trkpt>
      <trkpt lat="42.477586000" lon="-2.459570000">
        <ele>368.20</ele>
        <time>2016-10-15T05:22:54Z</time>
      </trkpt>
      <trkpt lat="42.477582000" lon="-2.459571000">
        <ele>368.10</ele>
        <time>2016-10-15T05:22:55Z</time>
      </trkpt>
      <trkpt lat="42.477578000" lon="-2.459572000">
        <ele>368.00</ele>
        <time>2016-10-15T05:22:56Z</time>
      </trkpt>
      <trkpt lat="42.477575000" lon="-2.459572000">
        <ele>368.00</ele>
        <time>2016-10-15T05:22:57Z</time>
      </trkpt>
      <trkpt lat="42.477573000" lon="-2.459573000">
        <ele>367.90</ele>
        <time>2016-10-15T05:22:58Z</time>
      </trkpt>
      <trkpt lat="42.477574000" lon="-2.459577000">
        <ele>367.90</ele>
        <time>2016-10-15T05:22:59Z</time>
      </trkpt>
      <trkpt lat="42.477576000" lon="-2.459580000">
        <ele>368.00</ele>
        <time>2016-10-15T05:23:00Z</time>
      </trkpt>
      <trkpt lat="42.477579000" lon="-2.459578000">
        <ele>368.00</ele>
        <time>2016-10-15T05:23:01Z</time>
      </trkpt>
      <trkpt lat="42.477581000" lon="-2.459574000">
        <ele>368.20</ele>
        <time>2016-10-15T05:23:02Z</time>
      </trkpt>
      <trkpt lat="42.477581000" lon="-2.459570000">
        <ele>368.30</ele>
        <time>2016-10-15T05:23:03Z</time>
      </trkpt>
      <trkpt lat="42.477583000" lon="-2.459566000">
        <ele>368.30</ele>
        <time>2016-10-15T05:23:04Z</time>
      </trkpt>
      <trkpt lat="42.477586000" lon="-2.459563000">
        <ele>368.30</ele>
        <time>2016-10-15T05:23:05Z</time>
      </trkpt>
      <trkpt lat="42.477589000" lon="-2.459560000">
        <ele>368.30</ele>
        <time>2016-10-15T05:23:06Z</time>
      </trkpt>
      <trkpt lat="42.477592000" lon="-2.459560000">
        <ele>368.30</ele>
        <time>2016-10-15T05:23:07Z</time>
      </trkpt>
      <trkpt lat="42.477592000" lon="-2.459566000">
        <ele>368.30</ele>
        <time>2016-10-15T05:23:09Z</time>
      </trkpt>
      <trkpt lat="42.477592000" lon="-2.459570000">
        <ele>368.30</ele>
        <time>2016-10-15T05:23:10Z</time>
      </trkpt>
      <trkpt lat="42.477592000" lon="-2.459573000">
        <ele>368.30</ele>
        <time>2016-10-15T05:23:11Z</time>
      </trkpt>
      <trkpt lat="42.477590000" lon="-2.459578000">
        <ele>368.20</ele>
        <time>2016-10-15T05:23:12Z</time>
      </trkpt>
      <trkpt lat="42.477588000" lon="-2.459581000">
        <ele>368.10</ele>
        <time>2016-10-15T05:23:13Z</time>
      </trkpt>
      <trkpt lat="42.477588000" lon="-2.459583000">
        <ele>368.10</ele>
        <time>2016-10-15T05:23:14Z</time>
      </trkpt>
      <trkpt lat="42.477589000" lon="-2.459583000">
        <ele>368.10</ele>
        <time>2016-10-15T05:23:15Z</time>
      </trkpt>
      <trkpt lat="42.477588000" lon="-2.459582000">
        <ele>368.10</ele>
        <time>2016-10-15T05:23:16Z</time>
      </trkpt>
      <trkpt lat="42.477588000" lon="-2.459579000">
        <ele>368.20</ele>
        <time>2016-10-15T05:23:17Z</time>
      </trkpt>
      <trkpt lat="42.477589000" lon="-2.459577000">
        <ele>368.20</ele>
        <time>2016-10-15T05:23:18Z</time>
      </trkpt>
      <trkpt lat="42.477591000" lon="-2.459573000">
        <ele>368.20</ele>
        <time>2016-10-15T05:23:19Z</time>
      </trkpt>
      <trkpt lat="42.477592000" lon="-2.459568000">
        <ele>368.20</ele>
        <time>2016-10-15T05:23:20Z</time>
      </trkpt>
      <trkpt lat="42.477592000" lon="-2.459563000">
        <ele>368.20</ele>
        <time>2016-10-15T05:23:21Z</time>
      </trkpt>
      <trkpt lat="42.477591000" lon="-2.459560000">
        <ele>368.20</ele>
        <time>2016-10-15T05:23:22Z</time>
      </trkpt>
      <trkpt lat="42.477593000" lon="-2.459556000">
        <ele>368.20</ele>
        <time>2016-10-15T05:23:23Z</time>
      </trkpt>
      <trkpt lat="42.477593000" lon="-2.459558000">
        <ele>368.40</ele>
        <time>2016-10-15T05:23:24Z</time>
      </trkpt>
      <trkpt lat="42.477591000" lon="-2.459561000">
        <ele>368.60</ele>
        <time>2016-10-15T05:23:25Z</time>
      </trkpt>
      <trkpt lat="42.477592000" lon="-2.459566000">
        <ele>368.70</ele>
        <time>2016-10-15T05:23:26Z</time>
      </trkpt>
      <trkpt lat="42.477594000" lon="-2.459568000">
        <ele>368.80</ele>
        <time>2016-10-15T05:23:27Z</time>
      </trkpt>
      <trkpt lat="42.477597000" lon="-2.459570000">
        <ele>368.70</ele>
        <time>2016-10-15T05:23:28Z</time>
      </trkpt>
      <trkpt lat="42.477599000" lon="-2.459571000">
        <ele>368.70</ele>
        <time>2016-10-15T05:23:29Z</time>
      </trkpt>
      <trkpt lat="42.477599000" lon="-2.459572000">
        <ele>368.60</ele>
        <time>2016-10-15T05:23:30Z</time>
      </trkpt>
      <trkpt lat="42.477598000" lon="-2.459570000">
        <ele>368.60</ele>
        <time>2016-10-15T05:23:31Z</time>
      </trkpt>
      <trkpt lat="42.477592000" lon="-2.459566000">
        <ele>368.50</ele>
        <time>2016-10-15T05:23:32Z</time>
      </trkpt>
      <trkpt lat="42.477590000" lon="-2.459559000">
        <ele>368.30</ele>
        <time>2016-10-15T05:23:33Z</time>
      </trkpt>
      <trkpt lat="42.477588000" lon="-2.459552000">
        <ele>368.30</ele>
        <time>2016-10-15T05:23:34Z</time>
      </trkpt>
      <trkpt lat="42.477584000" lon="-2.459547000">
        <ele>368.20</ele>
        <time>2016-10-15T05:23:35Z</time>
      </trkpt>
      <trkpt lat="42.477583000" lon="-2.459544000">
        <ele>368.30</ele>
        <time>2016-10-15T05:23:36Z</time>
      </trkpt>
      <trkpt lat="42.477584000" lon="-2.459544000">
        <ele>368.40</ele>
        <time>2016-10-15T05:23:37Z</time>
      </trkpt>
      <trkpt lat="42.477584000" lon="-2.459544000">
        <ele>368.40</ele>
        <time>2016-10-15T05:23:38Z</time>
      </trkpt>
      <trkpt lat="42.477584000" lon="-2.459546000">
        <ele>368.50</ele>
        <time>2016-10-15T05:23:39Z</time>
      </trkpt>
      <trkpt lat="42.477583000" lon="-2.459547000">
        <ele>368.50</ele>
        <time>2016-10-15T05:23:40Z</time>
      </trkpt>
      <trkpt lat="42.477581000" lon="-2.459554000">
        <ele>368.50</ele>
        <time>2016-10-15T05:23:41Z</time>
      </trkpt>
      <trkpt lat="42.477578000" lon="-2.459565000">
        <ele>368.40</ele>
        <time>2016-10-15T05:23:42Z</time>
      </trkpt>
      <trkpt lat="42.477577000" lon="-2.459571000">
        <ele>368.30</ele>
        <time>2016-10-15T05:23:43Z</time>
      </trkpt>
      <trkpt lat="42.477577000" lon="-2.459572000">
        <ele>368.30</ele>
        <time>2016-10-15T05:23:44Z</time>
      </trkpt>
      <trkpt lat="42.477580000" lon="-2.459570000">
        <ele>368.20</ele>
        <time>2016-10-15T05:23:45Z</time>
      </trkpt>
      <trkpt lat="42.477582000" lon="-2.459568000">
        <ele>368.20</ele>
        <time>2016-10-15T05:23:46Z</time>
      </trkpt>
      <trkpt lat="42.477584000" lon="-2.459566000">
        <ele>368.20</ele>
        <time>2016-10-15T05:23:47Z</time>
      </trkpt>
      <trkpt lat="42.477585000" lon="-2.459564000">
        <ele>368.10</ele>
        <time>2016-10-15T05:23:48Z</time>
      </trkpt>
      <trkpt lat="42.477587000" lon="-2.459564000">
        <ele>368.10</ele>
        <time>2016-10-15T05:23:49Z</time>
      </trkpt>
      <trkpt lat="42.477587000" lon="-2.459564000">
        <ele>368.10</ele>
        <time>2016-10-15T05:23:50Z</time>
      </trkpt>
      <trkpt lat="42.477586000" lon="-2.459562000">
        <ele>368.10</ele>
        <time>2016-10-15T05:23:51Z</time>
      </trkpt>
      <trkpt lat="42.477585000" lon="-2.459563000">
        <ele>368.10</ele>
        <time>2016-10-15T05:23:52Z</time>
      </trkpt>
      <trkpt lat="42.477584000" lon="-2.459563000">
        <ele>368.10</ele>
        <time>2016-10-15T05:23:53Z</time>
      </trkpt>
      <trkpt lat="42.477583000" lon="-2.459562000">
        <ele>368.20</ele>
        <time>2016-10-15T05:23:54Z</time>
      </trkpt>
      <trkpt lat="42.477582000" lon="-2.459561000">
        <ele>368.30</ele>
        <time>2016-10-15T05:23:55Z</time>
      </trkpt>
      <trkpt lat="42.477582000" lon="-2.459561000">
        <ele>368.40</ele>
        <time>2016-10-15T05:23:56Z</time>
      </trkpt>
      <trkpt lat="42.477583000" lon="-2.459564000">
        <ele>368.40</ele>
        <time>2016-10-15T05:23:57Z</time>
      </trkpt>
      <trkpt lat="42.477582000" lon="-2.459569000">
        <ele>368.40</ele>
        <time>2016-10-15T05:23:58Z</time>
      </trkpt>
      <trkpt lat="42.477582000" lon="-2.459574000">
        <ele>368.40</ele>
        <time>2016-10-15T05:23:59Z</time>
      </trkpt>
      <trkpt lat="42.477584000" lon="-2.459576000">
        <ele>368.30</ele>
        <time>2016-10-15T05:24:00Z</time>
      </trkpt>
      <trkpt lat="42.477586000" lon="-2.459579000">
        <ele>368.30</ele>
        <time>2016-10-15T05:24:01Z</time>
      </trkpt>
      <trkpt lat="42.477586000" lon="-2.459578000">
        <ele>368.20</ele>
        <time>2016-10-15T05:24:02Z</time>
      </trkpt>
      <trkpt lat="42.477585000" lon="-2.459576000">
        <ele>368.20</ele>
        <time>2016-10-15T05:24:03Z</time>
      </trkpt>
      <trkpt lat="42.477584000" lon="-2.459577000">
        <ele>368.10</ele>
        <time>2016-10-15T05:24:04Z</time>
      </trkpt>
      <trkpt lat="42.477584000" lon="-2.459580000">
        <ele>368.10</ele>
        <time>2016-10-15T05:24:05Z</time>
      </trkpt>
      <trkpt lat="42.477585000" lon="-2.459585000">
        <ele>368.20</ele>
        <time>2016-10-15T05:24:06Z</time>
      </trkpt>
      <trkpt lat="42.477584000" lon="-2.459586000">
        <ele>368.30</ele>
        <time>2016-10-15T05:24:07Z</time>
      </trkpt>
      <trkpt lat="42.477585000" lon="-2.459588000">
        <ele>368.50</ele>
        <time>2016-10-15T05:24:08Z</time>
      </trkpt>
      <trkpt lat="42.477587000" lon="-2.459589000">
        <ele>368.70</ele>
        <time>2016-10-15T05:24:10Z</time>
      </trkpt>
      <trkpt lat="42.477589000" lon="-2.459588000">
        <ele>368.80</ele>
        <time>2016-10-15T05:24:11Z</time>
      </trkpt>
      <trkpt lat="42.477592000" lon="-2.459589000">
        <ele>368.50</ele>
        <time>2016-10-15T05:24:12Z</time>
      </trkpt>
      <trkpt lat="42.477591000" lon="-2.459593000">
        <ele>368.40</ele>
        <time>2016-10-15T05:24:13Z</time>
      </trkpt>
      <trkpt lat="42.477590000" lon="-2.459591000">
        <ele>368.30</ele>
        <time>2016-10-15T05:24:14Z</time>
      </trkpt>
      <trkpt lat="42.477593000" lon="-2.459587000">
        <ele>368.20</ele>
        <time>2016-10-15T05:24:15Z</time>
      </trkpt>
      <trkpt lat="42.477593000" lon="-2.459583000">
        <ele>368.20</ele>
        <time>2016-10-15T05:24:16Z</time>
      </trkpt>
      <trkpt lat="42.477596000" lon="-2.459579000">
        <ele>368.20</ele>
        <time>2016-10-15T05:24:17Z</time>
      </trkpt>
      <trkpt lat="42.477593000" lon="-2.459575000">
        <ele>368.20</ele>
        <time>2016-10-15T05:24:18Z</time>
      </trkpt>
      <trkpt lat="42.477593000" lon="-2.459574000">
        <ele>368.20</ele>
        <time>2016-10-15T05:24:19Z</time>
      </trkpt>
      <trkpt lat="42.477595000" lon="-2.459575000">
        <ele>368.40</ele>
        <time>2016-10-15T05:24:20Z</time>
      </trkpt>
      <trkpt lat="42.477594000" lon="-2.459575000">
        <ele>368.50</ele>
        <time>2016-10-15T05:24:21Z</time>
      </trkpt>
      <trkpt lat="42.477594000" lon="-2.459576000">
        <ele>368.60</ele>
        <time>2016-10-15T05:24:22Z</time>
      </trkpt>
      <trkpt lat="42.477594000" lon="-2.459576000">
        <ele>368.70</ele>
        <time>2016-10-15T05:24:23Z</time>
      </trkpt>
      <trkpt lat="42.477595000" lon="-2.459577000">
        <ele>368.60</ele>
        <time>2016-10-15T05:24:24Z</time>
      </trkpt>
      <trkpt lat="42.477597000" lon="-2.459577000">
        <ele>368.60</ele>
        <time>2016-10-15T05:24:25Z</time>
      </trkpt>
      <trkpt lat="42.477599000" lon="-2.459576000">
        <ele>368.50</ele>
        <time>2016-10-15T05:24:26Z</time>
      </trkpt>
      <trkpt lat="42.477600000" lon="-2.459575000">
        <ele>368.50</ele>
        <time>2016-10-15T05:24:27Z</time>
      </trkpt>
      <trkpt lat="42.477601000" lon="-2.459572000">
        <ele>368.40</ele>
        <time>2016-10-15T05:24:28Z</time>
      </trkpt>
      <trkpt lat="42.477605000" lon="-2.459570000">
        <ele>368.30</ele>
        <time>2016-10-15T05:24:29Z</time>
      </trkpt>
      <trkpt lat="42.477604000" lon="-2.459566000">
        <ele>368.30</ele>
        <time>2016-10-15T05:24:30Z</time>
      </trkpt>
      <trkpt lat="42.477604000" lon="-2.459562000">
        <ele>368.30</ele>
        <time>2016-10-15T05:24:31Z</time>
      </trkpt>
      <trkpt lat="42.477604000" lon="-2.459555000">
        <ele>368.30</ele>
        <time>2016-10-15T05:24:32Z</time>
      </trkpt>
      <trkpt lat="42.477603000" lon="-2.459548000">
        <ele>368.30</ele>
        <time>2016-10-15T05:24:33Z</time>
      </trkpt>
      <trkpt lat="42.477601000" lon="-2.459542000">
        <ele>368.30</ele>
        <time>2016-10-15T05:24:34Z</time>
      </trkpt>
      <trkpt lat="42.477601000" lon="-2.459534000">
        <ele>368.40</ele>
        <time>2016-10-15T05:24:35Z</time>
      </trkpt>
      <trkpt lat="42.477600000" lon="-2.459533000">
        <ele>368.40</ele>
        <time>2016-10-15T05:24:36Z</time>
      </trkpt>
      <trkpt lat="42.477599000" lon="-2.459532000">
        <ele>368.40</ele>
        <time>2016-10-15T05:24:37Z</time>
      </trkpt>
      <trkpt lat="42.477599000" lon="-2.459535000">
        <ele>368.50</ele>
        <time>2016-10-15T05:24:38Z</time>
      </trkpt>
      <trkpt lat="42.477603000" lon="-2.459537000">
        <ele>368.50</ele>
        <time>2016-10-15T05:24:39Z</time>
      </trkpt>
      <trkpt lat="42.477606000" lon="-2.459540000">
        <ele>368.50</ele>
        <time>2016-10-15T05:24:40Z</time>
      </trkpt>
      <trkpt lat="42.477609000" lon="-2.459541000">
        <ele>368.50</ele>
        <time>2016-10-15T05:24:41Z</time>
      </trkpt>
      <trkpt lat="42.477610000" lon="-2.459543000">
        <ele>368.60</ele>
        <time>2016-10-15T05:24:42Z</time>
      </trkpt>
      <trkpt lat="42.477612000" lon="-2.459545000">
        <ele>368.60</ele>
        <time>2016-10-15T05:24:43Z</time>
      </trkpt>
      <trkpt lat="42.477611000" lon="-2.459544000">
        <ele>368.60</ele>
        <time>2016-10-15T05:24:44Z</time>
      </trkpt>
      <trkpt lat="42.477612000" lon="-2.459540000">
        <ele>368.60</ele>
        <time>2016-10-15T05:24:45Z</time>
      </trkpt>
      <trkpt lat="42.477607000" lon="-2.459536000">
        <ele>368.60</ele>
        <time>2016-10-15T05:24:46Z</time>
      </trkpt>
      <trkpt lat="42.477602000" lon="-2.459532000">
        <ele>368.70</ele>
        <time>2016-10-15T05:24:47Z</time>
      </trkpt>
      <trkpt lat="42.477597000" lon="-2.459533000">
        <ele>368.70</ele>
        <time>2016-10-15T05:24:48Z</time>
      </trkpt>
      <trkpt lat="42.477593000" lon="-2.459535000">
        <ele>368.70</ele>
        <time>2016-10-15T05:24:49Z</time>
      </trkpt>
      <trkpt lat="42.477590000" lon="-2.459538000">
        <ele>368.70</ele>
        <time>2016-10-15T05:24:50Z</time>
      </trkpt>
      <trkpt lat="42.477591000" lon="-2.459541000">
        <ele>368.70</ele>
        <time>2016-10-15T05:24:51Z</time>
      </trkpt>
      <trkpt lat="42.477591000" lon="-2.459543000">
        <ele>368.60</ele>
        <time>2016-10-15T05:24:52Z</time>
      </trkpt>
      <trkpt lat="42.477592000" lon="-2.459545000">
        <ele>368.50</ele>
        <time>2016-10-15T05:24:53Z</time>
      </trkpt>
      <trkpt lat="42.477593000" lon="-2.459547000">
        <ele>368.50</ele>
        <time>2016-10-15T05:24:54Z</time>
      </trkpt>
      <trkpt lat="42.477594000" lon="-2.459548000">
        <ele>368.40</ele>
        <time>2016-10-15T05:24:55Z</time>
      </trkpt>
      <trkpt lat="42.477592000" lon="-2.459550000">
        <ele>368.40</ele>
        <time>2016-10-15T05:24:56Z</time>
      </trkpt>
      <trkpt lat="42.477592000" lon="-2.459551000">
        <ele>368.30</ele>
        <time>2016-10-15T05:24:57Z</time>
      </trkpt>
      <trkpt lat="42.477590000" lon="-2.459549000">
        <ele>368.30</ele>
        <time>2016-10-15T05:24:58Z</time>
      </trkpt>
      <trkpt lat="42.477589000" lon="-2.459546000">
        <ele>368.30</ele>
        <time>2016-10-15T05:24:59Z</time>
      </trkpt>
      <trkpt lat="42.477588000" lon="-2.459546000">
        <ele>368.40</ele>
        <time>2016-10-15T05:25:00Z</time>
      </trkpt>
      <trkpt lat="42.477585000" lon="-2.459550000">
        <ele>368.50</ele>
        <time>2016-10-15T05:25:01Z</time>
      </trkpt>
      <trkpt lat="42.477585000" lon="-2.459551000">
        <ele>368.50</ele>
        <time>2016-10-15T05:25:02Z</time>
      </trkpt>
      <trkpt lat="42.477585000" lon="-2.459554000">
        <ele>368.50</ele>
        <time>2016-10-15T05:25:03Z</time>
      </trkpt>
      <trkpt lat="42.477585000" lon="-2.459554000">
        <ele>368.50</ele>
        <time>2016-10-15T05:25:04Z</time>
      </trkpt>
      <trkpt lat="42.477582000" lon="-2.459556000">
        <ele>368.40</ele>
        <time>2016-10-15T05:25:05Z</time>
      </trkpt>
      <trkpt lat="42.477580000" lon="-2.459562000">
        <ele>368.40</ele>
        <time>2016-10-15T05:25:06Z</time>
      </trkpt>
      <trkpt lat="42.477578000" lon="-2.459562000">
        <ele>368.40</ele>
        <time>2016-10-15T05:25:07Z</time>
      </trkpt>
      <trkpt lat="42.477576000" lon="-2.459562000">
        <ele>368.40</ele>
        <time>2016-10-15T05:25:08Z</time>
      </trkpt>
      <trkpt lat="42.477578000" lon="-2.459564000">
        <ele>368.40</ele>
        <time>2016-10-15T05:25:09Z</time>
      </trkpt>
      <trkpt lat="42.477583000" lon="-2.459562000">
        <ele>368.40</ele>
        <time>2016-10-15T05:25:11Z</time>
      </trkpt>
      <trkpt lat="42.477585000" lon="-2.459561000">
        <ele>368.30</ele>
        <time>2016-10-15T05:25:12Z</time>
      </trkpt>
      <trkpt lat="42.477587000" lon="-2.459562000">
        <ele>368.20</ele>
        <time>2016-10-15T05:25:13Z</time>
      </trkpt>
      <trkpt lat="42.477586000" lon="-2.459560000">
        <ele>368.20</ele>
        <time>2016-10-15T05:25:14Z</time>
      </trkpt>
      <trkpt lat="42.477587000" lon="-2.459560000">
        <ele>368.20</ele>
        <time>2016-10-15T05:25:15Z</time>
      </trkpt>
      <trkpt lat="42.477587000" lon="-2.459558000">
        <ele>368.00</ele>
        <time>2016-10-15T05:25:16Z</time>
      </trkpt>
      <trkpt lat="42.477587000" lon="-2.459555000">
        <ele>367.90</ele>
        <time>2016-10-15T05:25:17Z</time>
      </trkpt>
      <trkpt lat="42.477586000" lon="-2.459554000">
        <ele>367.80</ele>
        <time>2016-10-15T05:25:18Z</time>
      </trkpt>
      <trkpt lat="42.477587000" lon="-2.459553000">
        <ele>367.80</ele>
        <time>2016-10-15T05:25:19Z</time>
      </trkpt>
      <trkpt lat="42.477587000" lon="-2.459554000">
        <ele>367.70</ele>
        <time>2016-10-15T05:25:20Z</time>
      </trkpt>
      <trkpt lat="42.477585000" lon="-2.459553000">
        <ele>367.70</ele>
        <time>2016-10-15T05:25:21Z</time>
      </trkpt>
      <trkpt lat="42.477585000" lon="-2.459549000">
        <ele>367.70</ele>
        <time>2016-10-15T05:25:22Z</time>
      </trkpt>
      <trkpt lat="42.477582000" lon="-2.459547000">
        <ele>367.80</ele>
        <time>2016-10-15T05:25:23Z</time>
      </trkpt>
      <trkpt lat="42.477579000" lon="-2.459546000">
        <ele>367.70</ele>
        <time>2016-10-15T05:25:24Z</time>
      </trkpt>
      <trkpt lat="42.477574000" lon="-2.459543000">
        <ele>367.70</ele>
        <time>2016-10-15T05:25:25Z</time>
      </trkpt>
      <trkpt lat="42.477572000" lon="-2.459540000">
        <ele>367.60</ele>
        <time>2016-10-15T05:25:26Z</time>
      </trkpt>
      <trkpt lat="42.477573000" lon="-2.459540000">
        <ele>367.50</ele>
        <time>2016-10-15T05:25:27Z</time>
      </trkpt>
      <trkpt lat="42.477573000" lon="-2.459541000">
        <ele>367.40</ele>
        <time>2016-10-15T05:25:28Z</time>
      </trkpt>
      <trkpt lat="42.477574000" lon="-2.459542000">
        <ele>367.30</ele>
        <time>2016-10-15T05:25:29Z</time>
      </trkpt>
      <trkpt lat="42.477576000" lon="-2.459544000">
        <ele>367.60</ele>
        <time>2016-10-15T05:25:30Z</time>
      </trkpt>
      <trkpt lat="42.477580000" lon="-2.459548000">
        <ele>367.80</ele>
        <time>2016-10-15T05:25:31Z</time>
      </trkpt>
      <trkpt lat="42.477586000" lon="-2.459549000">
        <ele>367.90</ele>
        <time>2016-10-15T05:25:32Z</time>
      </trkpt>
      <trkpt lat="42.477588000" lon="-2.459553000">
        <ele>368.00</ele>
        <time>2016-10-15T05:25:33Z</time>
      </trkpt>
      <trkpt lat="42.477591000" lon="-2.459554000">
        <ele>368.00</ele>
        <time>2016-10-15T05:25:34Z</time>
      </trkpt>
      <trkpt lat="42.477593000" lon="-2.459553000">
        <ele>368.00</ele>
        <time>2016-10-15T05:25:35Z</time>
      </trkpt>
      <trkpt lat="42.477591000" lon="-2.459551000">
        <ele>368.00</ele>
        <time>2016-10-15T05:25:36Z</time>
      </trkpt>
      <trkpt lat="42.477592000" lon="-2.459548000">
        <ele>368.00</ele>
        <time>2016-10-15T05:25:37Z</time>
      </trkpt>
      <trkpt lat="42.477593000" lon="-2.459544000">
        <ele>367.90</ele>
        <time>2016-10-15T05:25:38Z</time>
      </trkpt>
      <trkpt lat="42.477593000" lon="-2.459542000">
        <ele>367.90</ele>
        <time>2016-10-15T05:25:39Z</time>
      </trkpt>
      <trkpt lat="42.477592000" lon="-2.459541000">
        <ele>368.00</ele>
        <time>2016-10-15T05:25:40Z</time>
      </trkpt>
      <trkpt lat="42.477590000" lon="-2.459541000">
        <ele>368.00</ele>
        <time>2016-10-15T05:25:41Z</time>
      </trkpt>
      <trkpt lat="42.477588000" lon="-2.459544000">
        <ele>368.10</ele>
        <time>2016-10-15T05:25:42Z</time>
      </trkpt>
      <trkpt lat="42.477588000" lon="-2.459546000">
        <ele>368.20</ele>
        <time>2016-10-15T05:25:43Z</time>
      </trkpt>
      <trkpt lat="42.477591000" lon="-2.459549000">
        <ele>368.30</ele>
        <time>2016-10-15T05:25:44Z</time>
      </trkpt>
      <trkpt lat="42.477593000" lon="-2.459550000">
        <ele>368.30</ele>
        <time>2016-10-15T05:25:45Z</time>
      </trkpt>
      <trkpt lat="42.477593000" lon="-2.459553000">
        <ele>368.30</ele>
        <time>2016-10-15T05:25:46Z</time>
      </trkpt>
      <trkpt lat="42.477593000" lon="-2.459555000">
        <ele>368.30</ele>
        <time>2016-10-15T05:25:47Z</time>
      </trkpt>
      <trkpt lat="42.477592000" lon="-2.459556000">
        <ele>368.20</ele>
        <time>2016-10-15T05:25:48Z</time>
      </trkpt>
      <trkpt lat="42.477593000" lon="-2.459553000">
        <ele>368.20</ele>
        <time>2016-10-15T05:25:49Z</time>
      </trkpt>
      <trkpt lat="42.477593000" lon="-2.459551000">
        <ele>368.20</ele>
        <time>2016-10-15T05:25:50Z</time>
      </trkpt>
      <trkpt lat="42.477595000" lon="-2.459548000">
        <ele>368.20</ele>
        <time>2016-10-15T05:25:51Z</time>
      </trkpt>
      <trkpt lat="42.477597000" lon="-2.459545000">
        <ele>368.30</ele>
        <time>2016-10-15T05:25:52Z</time>
      </trkpt>
      <trkpt lat="42.477598000" lon="-2.459546000">
        <ele>368.30</ele>
        <time>2016-10-15T05:25:53Z</time>
      </trkpt>
      <trkpt lat="42.477599000" lon="-2.459546000">
        <ele>368.30</ele>
        <time>2016-10-15T05:25:54Z</time>
      </trkpt>
      <trkpt lat="42.477598000" lon="-2.459548000">
        <ele>368.40</ele>
        <time>2016-10-15T05:25:55Z</time>
      </trkpt>
      <trkpt lat="42.477597000" lon="-2.459550000">
        <ele>368.40</ele>
        <time>2016-10-15T05:25:56Z</time>
      </trkpt>
      <trkpt lat="42.477596000" lon="-2.459550000">
        <ele>368.40</ele>
        <time>2016-10-15T05:25:57Z</time>
      </trkpt>
      <trkpt lat="42.477594000" lon="-2.459550000">
        <ele>368.30</ele>
        <time>2016-10-15T05:25:58Z</time>
      </trkpt>
      <trkpt lat="42.477592000" lon="-2.459548000">
        <ele>368.30</ele>
        <time>2016-10-15T05:25:59Z</time>
      </trkpt>
      <trkpt lat="42.477589000" lon="-2.459547000">
        <ele>368.10</ele>
        <time>2016-10-15T05:26:00Z</time>
      </trkpt>
      <trkpt lat="42.477587000" lon="-2.459546000">
        <ele>367.90</ele>
        <time>2016-10-15T05:26:01Z</time>
      </trkpt>
      <trkpt lat="42.477589000" lon="-2.459542000">
        <ele>367.80</ele>
        <time>2016-10-15T05:26:02Z</time>
      </trkpt>
      <trkpt lat="42.477587000" lon="-2.459545000">
        <ele>367.70</ele>
        <time>2016-10-15T05:26:03Z</time>
      </trkpt>
      <trkpt lat="42.477586000" lon="-2.459547000">
        <ele>367.60</ele>
        <time>2016-10-15T05:26:04Z</time>
      </trkpt>
      <trkpt lat="42.477584000" lon="-2.459548000">
        <ele>367.60</ele>
        <time>2016-10-15T05:26:05Z</time>
      </trkpt>
      <trkpt lat="42.477583000" lon="-2.459550000">
        <ele>367.70</ele>
        <time>2016-10-15T05:26:06Z</time>
      </trkpt>
      <trkpt lat="42.477582000" lon="-2.459553000">
        <ele>367.80</ele>
        <time>2016-10-15T05:26:07Z</time>
      </trkpt>
      <trkpt lat="42.477580000" lon="-2.459555000">
        <ele>367.90</ele>
        <time>2016-10-15T05:26:08Z</time>
      </trkpt>
      <trkpt lat="42.477577000" lon="-2.459555000">
        <ele>368.00</ele>
        <time>2016-10-15T05:26:09Z</time>
      </trkpt>
      <trkpt lat="42.477575000" lon="-2.459560000">
        <ele>368.00</ele>
        <time>2016-10-15T05:26:10Z</time>
      </trkpt>
      <trkpt lat="42.477574000" lon="-2.459565000">
        <ele>368.00</ele>
        <time>2016-10-15T05:26:12Z</time>
      </trkpt>
      <trkpt lat="42.477573000" lon="-2.459565000">
        <ele>367.90</ele>
        <time>2016-10-15T05:26:13Z</time>
      </trkpt>
      <trkpt lat="42.477572000" lon="-2.459564000">
        <ele>367.90</ele>
        <time>2016-10-15T05:26:14Z</time>
      </trkpt>
      <trkpt lat="42.477572000" lon="-2.459564000">
        <ele>367.90</ele>
        <time>2016-10-15T05:26:15Z</time>
      </trkpt>
      <trkpt lat="42.477572000" lon="-2.459565000">
        <ele>367.90</ele>
        <time>2016-10-15T05:26:16Z</time>
      </trkpt>
      <trkpt lat="42.477573000" lon="-2.459566000">
        <ele>367.80</ele>
        <time>2016-10-15T05:26:17Z</time>
      </trkpt>
      <trkpt lat="42.477573000" lon="-2.459567000">
        <ele>367.90</ele>
        <time>2016-10-15T05:26:18Z</time>
      </trkpt>
      <trkpt lat="42.477575000" lon="-2.459567000">
        <ele>367.90</ele>
        <time>2016-10-15T05:26:19Z</time>
      </trkpt>
      <trkpt lat="42.477574000" lon="-2.459568000">
        <ele>367.90</ele>
        <time>2016-10-15T05:26:20Z</time>
      </trkpt>
      <trkpt lat="42.477576000" lon="-2.459568000">
        <ele>367.90</ele>
        <time>2016-10-15T05:26:21Z</time>
      </trkpt>
      <trkpt lat="42.477579000" lon="-2.459568000">
        <ele>368.00</ele>
        <time>2016-10-15T05:26:22Z</time>
      </trkpt>
      <trkpt lat="42.477579000" lon="-2.459567000">
        <ele>368.10</ele>
        <time>2016-10-15T05:26:23Z</time>
      </trkpt>
      <trkpt lat="42.477579000" lon="-2.459566000">
        <ele>368.10</ele>
        <time>2016-10-15T05:26:24Z</time>
      </trkpt>
      <trkpt lat="42.477578000" lon="-2.459563000">
        <ele>368.20</ele>
        <time>2016-10-15T05:26:25Z</time>
      </trkpt>
      <trkpt lat="42.477578000" lon="-2.459563000">
        <ele>368.20</ele>
        <time>2016-10-15T05:26:26Z</time>
      </trkpt>
      <trkpt lat="42.477578000" lon="-2.459562000">
        <ele>368.20</ele>
        <time>2016-10-15T05:26:27Z</time>
      </trkpt>
      <trkpt lat="42.477580000" lon="-2.459561000">
        <ele>368.20</ele>
        <time>2016-10-15T05:26:28Z</time>
      </trkpt>
      <trkpt lat="42.477580000" lon="-2.459560000">
        <ele>368.20</ele>
        <time>2016-10-15T05:26:29Z</time>
      </trkpt>
      <trkpt lat="42.477582000" lon="-2.459560000">
        <ele>368.30</ele>
        <time>2016-10-15T05:26:30Z</time>
      </trkpt>
      <trkpt lat="42.477583000" lon="-2.459563000">
        <ele>368.40</ele>
        <time>2016-10-15T05:26:31Z</time>
      </trkpt>
      <trkpt lat="42.477585000" lon="-2.459564000">
        <ele>368.40</ele>
        <time>2016-10-15T05:26:32Z</time>
      </trkpt>
      <trkpt lat="42.477586000" lon="-2.459563000">
        <ele>368.40</ele>
        <time>2016-10-15T05:26:33Z</time>
      </trkpt>
      <trkpt lat="42.477585000" lon="-2.459562000">
        <ele>368.50</ele>
        <time>2016-10-15T05:26:34Z</time>
      </trkpt>
      <trkpt lat="42.477584000" lon="-2.459563000">
        <ele>368.50</ele>
        <time>2016-10-15T05:26:35Z</time>
      </trkpt>
      <trkpt lat="42.477582000" lon="-2.459563000">
        <ele>368.40</ele>
        <time>2016-10-15T05:26:36Z</time>
      </trkpt>
      <trkpt lat="42.477581000" lon="-2.459562000">
        <ele>368.40</ele>
        <time>2016-10-15T05:26:37Z</time>
      </trkpt>
      <trkpt lat="42.477581000" lon="-2.459564000">
        <ele>368.30</ele>
        <time>2016-10-15T05:26:38Z</time>
      </trkpt>
      <trkpt lat="42.477582000" lon="-2.459562000">
        <ele>368.30</ele>
        <time>2016-10-15T05:26:39Z</time>
      </trkpt>
      <trkpt lat="42.477584000" lon="-2.459561000">
        <ele>368.30</ele>
        <time>2016-10-15T05:26:40Z</time>
      </trkpt>
      <trkpt lat="42.477585000" lon="-2.459561000">
        <ele>368.30</ele>
        <time>2016-10-15T05:26:41Z</time>
      </trkpt>
      <trkpt lat="42.477586000" lon="-2.459561000">
        <ele>368.20</ele>
        <time>2016-10-15T05:26:42Z</time>
      </trkpt>
      <trkpt lat="42.477586000" lon="-2.459563000">
        <ele>368.20</ele>
        <time>2016-10-15T05:26:43Z</time>
      </trkpt>
      <trkpt lat="42.477586000" lon="-2.459563000">
        <ele>368.10</ele>
        <time>2016-10-15T05:26:44Z</time>
      </trkpt>
      <trkpt lat="42.477588000" lon="-2.459561000">
        <ele>368.10</ele>
        <time>2016-10-15T05:26:45Z</time>
      </trkpt>
      <trkpt lat="42.477588000" lon="-2.459561000">
        <ele>368.10</ele>
        <time>2016-10-15T05:26:46Z</time>
      </trkpt>
      <trkpt lat="42.477588000" lon="-2.459558000">
        <ele>368.10</ele>
        <time>2016-10-15T05:26:47Z</time>
      </trkpt>
      <trkpt lat="42.477587000" lon="-2.459560000">
        <ele>368.10</ele>
        <time>2016-10-15T05:26:48Z</time>
      </trkpt>
      <trkpt lat="42.477587000" lon="-2.459561000">
        <ele>368.10</ele>
        <time>2016-10-15T05:26:49Z</time>
      </trkpt>
      <trkpt lat="42.477587000" lon="-2.459564000">
        <ele>368.20</ele>
        <time>2016-10-15T05:26:50Z</time>
      </trkpt>
      <trkpt lat="42.477587000" lon="-2.459567000">
        <ele>368.20</ele>
        <time>2016-10-15T05:26:51Z</time>
      </trkpt>
      <trkpt lat="42.477587000" lon="-2.459570000">
        <ele>368.20</ele>
        <time>2016-10-15T05:26:52Z</time>
      </trkpt>
      <trkpt lat="42.477586000" lon="-2.459573000">
        <ele>368.30</ele>
        <time>2016-10-15T05:26:53Z</time>
      </trkpt>
      <trkpt lat="42.477584000" lon="-2.459575000">
        <ele>368.30</ele>
        <time>2016-10-15T05:26:54Z</time>
      </trkpt>
      <trkpt lat="42.477583000" lon="-2.459573000">
        <ele>368.30</ele>
        <time>2016-10-15T05:26:55Z</time>
      </trkpt>
      <trkpt lat="42.477581000" lon="-2.459576000">
        <ele>368.20</ele>
        <time>2016-10-15T05:26:56Z</time>
      </trkpt>
      <trkpt lat="42.477579000" lon="-2.459579000">
        <ele>368.20</ele>
        <time>2016-10-15T05:26:57Z</time>
      </trkpt>
      <trkpt lat="42.477579000" lon="-2.459578000">
        <ele>368.00</ele>
        <time>2016-10-15T05:26:58Z</time>
      </trkpt>
      <trkpt lat="42.477579000" lon="-2.459580000">
        <ele>367.90</ele>
        <time>2016-10-15T05:26:59Z</time>
      </trkpt>
      <trkpt lat="42.477579000" lon="-2.459580000">
        <ele>368.00</ele>
        <time>2016-10-15T05:27:00Z</time>
      </trkpt>
      <trkpt lat="42.477580000" lon="-2.459580000">
        <ele>368.00</ele>
        <time>2016-10-15T05:27:01Z</time>
      </trkpt>
      <trkpt lat="42.477582000" lon="-2.459580000">
        <ele>368.10</ele>
        <time>2016-10-15T05:27:02Z</time>
      </trkpt>
      <trkpt lat="42.477583000" lon="-2.459578000">
        <ele>368.20</ele>
        <time>2016-10-15T05:27:03Z</time>
      </trkpt>
      <trkpt lat="42.477584000" lon="-2.459578000">
        <ele>368.20</ele>
        <time>2016-10-15T05:27:04Z</time>
      </trkpt>
      <trkpt lat="42.477584000" lon="-2.459576000">
        <ele>368.20</ele>
        <time>2016-10-15T05:27:05Z</time>
      </trkpt>
      <trkpt lat="42.477584000" lon="-2.459575000">
        <ele>368.10</ele>
        <time>2016-10-15T05:27:06Z</time>
      </trkpt>
      <trkpt lat="42.477582000" lon="-2.459573000">
        <ele>367.90</ele>
        <time>2016-10-15T05:27:07Z</time>
      </trkpt>
      <trkpt lat="42.477580000" lon="-2.459573000">
        <ele>367.90</ele>
        <time>2016-10-15T05:27:08Z</time>
      </trkpt>
      <trkpt lat="42.477577000" lon="-2.459572000">
        <ele>367.80</ele>
        <time>2016-10-15T05:27:09Z</time>
      </trkpt>
      <trkpt lat="42.477575000" lon="-2.459572000">
        <ele>367.70</ele>
        <time>2016-10-15T05:27:10Z</time>
      </trkpt>
      <trkpt lat="42.477574000" lon="-2.459571000">
        <ele>367.70</ele>
        <time>2016-10-15T05:27:11Z</time>
      </trkpt>
      <trkpt lat="42.477574000" lon="-2.459567000">
        <ele>367.60</ele>
        <time>2016-10-15T05:27:13Z</time>
      </trkpt>
      <trkpt lat="42.477574000" lon="-2.459564000">
        <ele>367.60</ele>
        <time>2016-10-15T05:27:14Z</time>
      </trkpt>
      <trkpt lat="42.477576000" lon="-2.459560000">
        <ele>367.60</ele>
        <time>2016-10-15T05:27:15Z</time>
      </trkpt>
      <trkpt lat="42.477577000" lon="-2.459557000">
        <ele>367.60</ele>
        <time>2016-10-15T05:27:16Z</time>
      </trkpt>
      <trkpt lat="42.477579000" lon="-2.459558000">
        <ele>367.60</ele>
        <time>2016-10-15T05:27:17Z</time>
      </trkpt>
      <trkpt lat="42.477581000" lon="-2.459560000">
        <ele>367.60</ele>
        <time>2016-10-15T05:27:18Z</time>
      </trkpt>
      <trkpt lat="42.477583000" lon="-2.459562000">
        <ele>367.60</ele>
        <time>2016-10-15T05:27:19Z</time>
      </trkpt>
      <trkpt lat="42.477586000" lon="-2.459564000">
        <ele>367.80</ele>
        <time>2016-10-15T05:27:20Z</time>
      </trkpt>
      <trkpt lat="42.477589000" lon="-2.459563000">
        <ele>368.00</ele>
        <time>2016-10-15T05:27:21Z</time>
      </trkpt>
      <trkpt lat="42.477591000" lon="-2.459564000">
        <ele>368.20</ele>
        <time>2016-10-15T05:27:22Z</time>
      </trkpt>
      <trkpt lat="42.477591000" lon="-2.459562000">
        <ele>368.30</ele>
        <time>2016-10-15T05:27:23Z</time>
      </trkpt>
      <trkpt lat="42.477592000" lon="-2.459560000">
        <ele>368.40</ele>
        <time>2016-10-15T05:27:24Z</time>
      </trkpt>
      <trkpt lat="42.477589000" lon="-2.459561000">
        <ele>368.40</ele>
        <time>2016-10-15T05:27:25Z</time>
      </trkpt>
      <trkpt lat="42.477585000" lon="-2.459562000">
        <ele>368.40</ele>
        <time>2016-10-15T05:27:26Z</time>
      </trkpt>
      <trkpt lat="42.477582000" lon="-2.459563000">
        <ele>368.40</ele>
        <time>2016-10-15T05:27:27Z</time>
      </trkpt>
      <trkpt lat="42.477580000" lon="-2.459564000">
        <ele>368.40</ele>
        <time>2016-10-15T05:27:28Z</time>
      </trkpt>
      <trkpt lat="42.477576000" lon="-2.459566000">
        <ele>368.40</ele>
        <time>2016-10-15T05:27:29Z</time>
      </trkpt>
      <trkpt lat="42.477572000" lon="-2.459570000">
        <ele>368.30</ele>
        <time>2016-10-15T05:27:30Z</time>
      </trkpt>
      <trkpt lat="42.477568000" lon="-2.459573000">
        <ele>368.20</ele>
        <time>2016-10-15T05:27:31Z</time>
      </trkpt>
      <trkpt lat="42.477567000" lon="-2.459569000">
        <ele>368.20</ele>
        <time>2016-10-15T05:27:32Z</time>
      </trkpt>
      <trkpt lat="42.477568000" lon="-2.459565000">
        <ele>368.20</ele>
        <time>2016-10-15T05:27:33Z</time>
      </trkpt>
      <trkpt lat="42.477565000" lon="-2.459562000">
        <ele>368.10</ele>
        <time>2016-10-15T05:27:34Z</time>
      </trkpt>
      <trkpt lat="42.477563000" lon="-2.459562000">
        <ele>368.10</ele>
        <time>2016-10-15T05:27:35Z</time>
      </trkpt>
      <trkpt lat="42.477563000" lon="-2.459565000">
        <ele>368.00</ele>
        <time>2016-10-15T05:27:36Z</time>
      </trkpt>
      <trkpt lat="42.477562000" lon="-2.459568000">
        <ele>368.00</ele>
        <time>2016-10-15T05:27:37Z</time>
      </trkpt>
      <trkpt lat="42.477561000" lon="-2.459571000">
        <ele>368.00</ele>
        <time>2016-10-15T05:27:38Z</time>
      </trkpt>
      <trkpt lat="42.477561000" lon="-2.459570000">
        <ele>368.00</ele>
        <time>2016-10-15T05:27:39Z</time>
      </trkpt>
      <trkpt lat="42.477558000" lon="-2.459571000">
        <ele>368.10</ele>
        <time>2016-10-15T05:27:40Z</time>
      </trkpt>
      <trkpt lat="42.477559000" lon="-2.459570000">
        <ele>368.20</ele>
        <time>2016-10-15T05:27:41Z</time>
      </trkpt>
      <trkpt lat="42.477559000" lon="-2.459567000">
        <ele>368.20</ele>
        <time>2016-10-15T05:27:42Z</time>
      </trkpt>
      <trkpt lat="42.477556000" lon="-2.459565000">
        <ele>368.30</ele>
        <time>2016-10-15T05:27:43Z</time>
      </trkpt>
      <trkpt lat="42.477553000" lon="-2.459563000">
        <ele>368.40</ele>
        <time>2016-10-15T05:27:44Z</time>
      </trkpt>
      <trkpt lat="42.477553000" lon="-2.459561000">
        <ele>368.50</ele>
        <time>2016-10-15T05:27:45Z</time>
      </trkpt>
      <trkpt lat="42.477554000" lon="-2.459557000">
        <ele>368.30</ele>
        <time>2016-10-15T05:27:46Z</time>
      </trkpt>
      <trkpt lat="42.477555000" lon="-2.459555000">
        <ele>368.20</ele>
        <time>2016-10-15T05:27:47Z</time>
      </trkpt>
      <trkpt lat="42.477557000" lon="-2.459553000">
        <ele>368.30</ele>
        <time>2016-10-15T05:27:48Z</time>
      </trkpt>
      <trkpt lat="42.477557000" lon="-2.459551000">
        <ele>368.40</ele>
        <time>2016-10-15T05:27:49Z</time>
      </trkpt>
      <trkpt lat="42.477558000" lon="-2.459547000">
        <ele>368.30</ele>
        <time>2016-10-15T05:27:50Z</time>
      </trkpt>
      <trkpt lat="42.477560000" lon="-2.459548000">
        <ele>368.20</ele>
        <time>2016-10-15T05:27:51Z</time>
      </trkpt>
      <trkpt lat="42.477563000" lon="-2.459548000">
        <ele>368.30</ele>
        <time>2016-10-15T05:27:52Z</time>
      </trkpt>
      <trkpt lat="42.477562000" lon="-2.459552000">
        <ele>368.40</ele>
        <time>2016-10-15T05:27:53Z</time>
      </trkpt>
      <trkpt lat="42.477559000" lon="-2.459552000">
        <ele>368.40</ele>
        <time>2016-10-15T05:27:54Z</time>
      </trkpt>
      <trkpt lat="42.477557000" lon="-2.459554000">
        <ele>368.40</ele>
        <time>2016-10-15T05:27:55Z</time>
      </trkpt>
      <trkpt lat="42.477557000" lon="-2.459553000">
        <ele>368.40</ele>
        <time>2016-10-15T05:27:56Z</time>
      </trkpt>
      <trkpt lat="42.477561000" lon="-2.459552000">
        <ele>368.40</ele>
        <time>2016-10-15T05:27:57Z</time>
      </trkpt>
      <trkpt lat="42.477563000" lon="-2.459551000">
        <ele>368.30</ele>
        <time>2016-10-15T05:27:58Z</time>
      </trkpt>
      <trkpt lat="42.477567000" lon="-2.459545000">
        <ele>368.20</ele>
        <time>2016-10-15T05:27:59Z</time>
      </trkpt>
      <trkpt lat="42.477568000" lon="-2.459547000">
        <ele>368.10</ele>
        <time>2016-10-15T05:28:00Z</time>
      </trkpt>
      <trkpt lat="42.477568000" lon="-2.459549000">
        <ele>368.10</ele>
        <time>2016-10-15T05:28:01Z</time>
      </trkpt>
      <trkpt lat="42.477565000" lon="-2.459552000">
        <ele>367.90</ele>
        <time>2016-10-15T05:28:02Z</time>
      </trkpt>
      <trkpt lat="42.477564000" lon="-2.459554000">
        <ele>367.80</ele>
        <time>2016-10-15T05:28:03Z</time>
      </trkpt>
      <trkpt lat="42.477566000" lon="-2.459561000">
        <ele>367.80</ele>
        <time>2016-10-15T05:28:04Z</time>
      </trkpt>
      <trkpt lat="42.477565000" lon="-2.459565000">
        <ele>367.80</ele>
        <time>2016-10-15T05:28:05Z</time>
      </trkpt>
      <trkpt lat="42.477565000" lon="-2.459568000">
        <ele>368.00</ele>
        <time>2016-10-15T05:28:06Z</time>
      </trkpt>
      <trkpt lat="42.477568000" lon="-2.459573000">
        <ele>368.10</ele>
        <time>2016-10-15T05:28:07Z</time>
      </trkpt>
      <trkpt lat="42.477576000" lon="-2.459571000">
        <ele>368.20</ele>
        <time>2016-10-15T05:28:08Z</time>
      </trkpt>
      <trkpt lat="42.477578000" lon="-2.459570000">
        <ele>368.20</ele>
        <time>2016-10-15T05:28:09Z</time>
      </trkpt>
      <trkpt lat="42.477576000" lon="-2.459570000">
        <ele>368.20</ele>
        <time>2016-10-15T05:28:10Z</time>
      </trkpt>
      <trkpt lat="42.477574000" lon="-2.459568000">
        <ele>368.10</ele>
        <time>2016-10-15T05:28:11Z</time>
      </trkpt>
      <trkpt lat="42.477574000" lon="-2.459566000">
        <ele>368.10</ele>
        <time>2016-10-15T05:28:12Z</time>
      </trkpt>
      <trkpt lat="42.477576000" lon="-2.459562000">
        <ele>368.00</ele>
        <time>2016-10-15T05:28:14Z</time>
      </trkpt>
      <trkpt lat="42.477575000" lon="-2.459562000">
        <ele>368.00</ele>
        <time>2016-10-15T05:28:15Z</time>
      </trkpt>
      <trkpt lat="42.477576000" lon="-2.459562000">
        <ele>368.00</ele>
        <time>2016-10-15T05:28:16Z</time>
      </trkpt>
      <trkpt lat="42.477576000" lon="-2.459565000">
        <ele>368.00</ele>
        <time>2016-10-15T05:28:17Z</time>
      </trkpt>
      <trkpt lat="42.477577000" lon="-2.459565000">
        <ele>368.10</ele>
        <time>2016-10-15T05:28:18Z</time>
      </trkpt>
      <trkpt lat="42.477576000" lon="-2.459564000">
        <ele>368.20</ele>
        <time>2016-10-15T05:28:19Z</time>
      </trkpt>
      <trkpt lat="42.477574000" lon="-2.459563000">
        <ele>368.30</ele>
        <time>2016-10-15T05:28:20Z</time>
      </trkpt>
      <trkpt lat="42.477575000" lon="-2.459563000">
        <ele>368.40</ele>
        <time>2016-10-15T05:28:21Z</time>
      </trkpt>
      <trkpt lat="42.477580000" lon="-2.459567000">
        <ele>368.30</ele>
        <time>2016-10-15T05:28:22Z</time>
      </trkpt>
      <trkpt lat="42.477581000" lon="-2.459574000">
        <ele>368.30</ele>
        <time>2016-10-15T05:28:23Z</time>
      </trkpt>
      <trkpt lat="42.477580000" lon="-2.459574000">
        <ele>368.30</ele>
        <time>2016-10-15T05:28:24Z</time>
      </trkpt>
      <trkpt lat="42.477581000" lon="-2.459573000">
        <ele>368.30</ele>
        <time>2016-10-15T05:28:25Z</time>
      </trkpt>
      <trkpt lat="42.477582000" lon="-2.459574000">
        <ele>368.20</ele>
        <time>2016-10-15T05:28:26Z</time>
      </trkpt>
      <trkpt lat="42.477582000" lon="-2.459572000">
        <ele>368.10</ele>
        <time>2016-10-15T05:28:27Z</time>
      </trkpt>
      <trkpt lat="42.477581000" lon="-2.459570000">
        <ele>368.00</ele>
        <time>2016-10-15T05:28:28Z</time>
      </trkpt>
      <trkpt lat="42.477581000" lon="-2.459572000">
        <ele>367.90</ele>
        <time>2016-10-15T05:28:29Z</time>
      </trkpt>
      <trkpt lat="42.477580000" lon="-2.459575000">
        <ele>367.90</ele>
        <time>2016-10-15T05:28:30Z</time>
      </trkpt>
      <trkpt lat="42.477580000" lon="-2.459579000">
        <ele>367.80</ele>
        <time>2016-10-15T05:28:31Z</time>
      </trkpt>
      <trkpt lat="42.477581000" lon="-2.459578000">
        <ele>367.90</ele>
        <time>2016-10-15T05:28:32Z</time>
      </trkpt>
      <trkpt lat="42.477583000" lon="-2.459579000">
        <ele>367.90</ele>
        <time>2016-10-15T05:28:33Z</time>
      </trkpt>
      <trkpt lat="42.477584000" lon="-2.459581000">
        <ele>368.00</ele>
        <time>2016-10-15T05:28:34Z</time>
      </trkpt>
      <trkpt lat="42.477582000" lon="-2.459582000">
        <ele>368.10</ele>
        <time>2016-10-15T05:28:35Z</time>
      </trkpt>
      <trkpt lat="42.477582000" lon="-2.459580000">
        <ele>368.10</ele>
        <time>2016-10-15T05:28:36Z</time>
      </trkpt>
      <trkpt lat="42.477583000" lon="-2.459576000">
        <ele>368.20</ele>
        <time>2016-10-15T05:28:37Z</time>
      </trkpt>
      <trkpt lat="42.477582000" lon="-2.459572000">
        <ele>368.10</ele>
        <time>2016-10-15T05:28:38Z</time>
      </trkpt>
      <trkpt lat="42.477583000" lon="-2.459568000">
        <ele>368.10</ele>
        <time>2016-10-15T05:28:39Z</time>
      </trkpt>
      <trkpt lat="42.477583000" lon="-2.459560000">
        <ele>368.10</ele>
        <time>2016-10-15T05:28:40Z</time>
      </trkpt>
      <trkpt lat="42.477585000" lon="-2.459554000">
        <ele>368.10</ele>
        <time>2016-10-15T05:28:41Z</time>
      </trkpt>
      <trkpt lat="42.477584000" lon="-2.459550000">
        <ele>368.10</ele>
        <time>2016-10-15T05:28:42Z</time>
      </trkpt>
      <trkpt lat="42.477584000" lon="-2.459548000">
        <ele>368.10</ele>
        <time>2016-10-15T05:28:43Z</time>
      </trkpt>
      <trkpt lat="42.477582000" lon="-2.459545000">
        <ele>368.10</ele>
        <time>2016-10-15T05:28:44Z</time>
      </trkpt>
      <trkpt lat="42.477580000" lon="-2.459543000">
        <ele>368.10</ele>
        <time>2016-10-15T05:28:45Z</time>
      </trkpt>
      <trkpt lat="42.477580000" lon="-2.459543000">
        <ele>368.00</ele>
        <time>2016-10-15T05:28:46Z</time>
      </trkpt>
      <trkpt lat="42.477578000" lon="-2.459545000">
        <ele>368.00</ele>
        <time>2016-10-15T05:28:47Z</time>
      </trkpt>
      <trkpt lat="42.477577000" lon="-2.459546000">
        <ele>368.00</ele>
        <time>2016-10-15T05:28:48Z</time>
      </trkpt>
      <trkpt lat="42.477576000" lon="-2.459551000">
        <ele>368.00</ele>
        <time>2016-10-15T05:28:49Z</time>
      </trkpt>
      <trkpt lat="42.477576000" lon="-2.459555000">
        <ele>368.00</ele>
        <time>2016-10-15T05:28:50Z</time>
      </trkpt>
      <trkpt lat="42.477577000" lon="-2.459557000">
        <ele>368.10</ele>
        <time>2016-10-15T05:28:51Z</time>
      </trkpt>
      <trkpt lat="42.477577000" lon="-2.459556000">
        <ele>368.10</ele>
        <time>2016-10-15T05:28:52Z</time>
      </trkpt>
      <trkpt lat="42.477580000" lon="-2.459553000">
        <ele>368.10</ele>
        <time>2016-10-15T05:28:53Z</time>
      </trkpt>
      <trkpt lat="42.477581000" lon="-2.459552000">
        <ele>368.10</ele>
        <time>2016-10-15T05:28:54Z</time>
      </trkpt>
      <trkpt lat="42.477579000" lon="-2.459548000">
        <ele>368.10</ele>
        <time>2016-10-15T05:28:55Z</time>
      </trkpt>
      <trkpt lat="42.477575000" lon="-2.459543000">
        <ele>368.10</ele>
        <time>2016-10-15T05:28:56Z</time>
      </trkpt>
      <trkpt lat="42.477572000" lon="-2.459542000">
        <ele>368.10</ele>
        <time>2016-10-15T05:28:57Z</time>
      </trkpt>
      <trkpt lat="42.477566000" lon="-2.459542000">
        <ele>368.20</ele>
        <time>2016-10-15T05:28:58Z</time>
      </trkpt>
      <trkpt lat="42.477565000" lon="-2.459542000">
        <ele>368.20</ele>
        <time>2016-10-15T05:28:59Z</time>
      </trkpt>
      <trkpt lat="42.477561000" lon="-2.459544000">
        <ele>368.30</ele>
        <time>2016-10-15T05:29:00Z</time>
      </trkpt>
      <trkpt lat="42.477564000" lon="-2.459541000">
        <ele>368.30</ele>
        <time>2016-10-15T05:29:01Z</time>
      </trkpt>
      <trkpt lat="42.477565000" lon="-2.459540000">
        <ele>368.20</ele>
        <time>2016-10-15T05:29:02Z</time>
      </trkpt>
      <trkpt lat="42.477564000" lon="-2.459542000">
        <ele>368.00</ele>
        <time>2016-10-15T05:29:03Z</time>
      </trkpt>
      <trkpt lat="42.477563000" lon="-2.459543000">
        <ele>367.90</ele>
        <time>2016-10-15T05:29:04Z</time>
      </trkpt>
      <trkpt lat="42.477564000" lon="-2.459539000">
        <ele>367.90</ele>
        <time>2016-10-15T05:29:05Z</time>
      </trkpt>
      <trkpt lat="42.477566000" lon="-2.459534000">
        <ele>367.90</ele>
        <time>2016-10-15T05:29:06Z</time>
      </trkpt>
      <trkpt lat="42.477568000" lon="-2.459531000">
        <ele>367.90</ele>
        <time>2016-10-15T05:29:07Z</time>
      </trkpt>
      <trkpt lat="42.477570000" lon="-2.459526000">
        <ele>367.90</ele>
        <time>2016-10-15T05:29:08Z</time>
      </trkpt>
      <trkpt lat="42.477572000" lon="-2.459525000">
        <ele>367.90</ele>
        <time>2016-10-15T05:29:09Z</time>
      </trkpt>
      <trkpt lat="42.477573000" lon="-2.459523000">
        <ele>368.00</ele>
        <time>2016-10-15T05:29:10Z</time>
      </trkpt>
      <trkpt lat="42.477569000" lon="-2.459515000">
        <ele>368.10</ele>
        <time>2016-10-15T05:29:11Z</time>
      </trkpt>
      <trkpt lat="42.477569000" lon="-2.459514000">
        <ele>368.10</ele>
        <time>2016-10-15T05:29:12Z</time>
      </trkpt>
      <trkpt lat="42.477567000" lon="-2.459514000">
        <ele>368.00</ele>
        <time>2016-10-15T05:29:13Z</time>
      </trkpt>
      <trkpt lat="42.477564000" lon="-2.459510000">
        <ele>368.10</ele>
        <time>2016-10-15T05:29:15Z</time>
      </trkpt>
      <trkpt lat="42.477563000" lon="-2.459510000">
        <ele>368.20</ele>
        <time>2016-10-15T05:29:16Z</time>
      </trkpt>
      <trkpt lat="42.477561000" lon="-2.459509000">
        <ele>368.20</ele>
        <time>2016-10-15T05:29:17Z</time>
      </trkpt>
      <trkpt lat="42.477559000" lon="-2.459509000">
        <ele>368.20</ele>
        <time>2016-10-15T05:29:18Z</time>
      </trkpt>
      <trkpt lat="42.477560000" lon="-2.459511000">
        <ele>368.20</ele>
        <time>2016-10-15T05:29:19Z</time>
      </trkpt>
      <trkpt lat="42.477558000" lon="-2.459516000">
        <ele>368.20</ele>
        <time>2016-10-15T05:29:20Z</time>
      </trkpt>
      <trkpt lat="42.477558000" lon="-2.459517000">
        <ele>368.20</ele>
        <time>2016-10-15T05:29:21Z</time>
      </trkpt>
      <trkpt lat="42.477559000" lon="-2.459519000">
        <ele>368.20</ele>
        <time>2016-10-15T05:29:22Z</time>
      </trkpt>
      <trkpt lat="42.477562000" lon="-2.459521000">
        <ele>368.20</ele>
        <time>2016-10-15T05:29:23Z</time>
      </trkpt>
      <trkpt lat="42.477563000" lon="-2.459525000">
        <ele>368.40</ele>
        <time>2016-10-15T05:29:24Z</time>
      </trkpt>
      <trkpt lat="42.477563000" lon="-2.459527000">
        <ele>368.50</ele>
        <time>2016-10-15T05:29:25Z</time>
      </trkpt>
      <trkpt lat="42.477565000" lon="-2.459525000">
        <ele>368.40</ele>
        <time>2016-10-15T05:29:26Z</time>
      </trkpt>
      <trkpt lat="42.477567000" lon="-2.459521000">
        <ele>368.40</ele>
        <time>2016-10-15T05:29:27Z</time>
      </trkpt>
      <trkpt lat="42.477566000" lon="-2.459517000">
        <ele>368.40</ele>
        <time>2016-10-15T05:29:28Z</time>
      </trkpt>
      <trkpt lat="42.477564000" lon="-2.459514000">
        <ele>368.30</ele>
        <time>2016-10-15T05:29:29Z</time>
      </trkpt>
      <trkpt lat="42.477565000" lon="-2.459513000">
        <ele>368.10</ele>
        <time>2016-10-15T05:29:30Z</time>
      </trkpt>
      <trkpt lat="42.477565000" lon="-2.459513000">
        <ele>368.00</ele>
        <time>2016-10-15T05:29:31Z</time>
      </trkpt>
      <trkpt lat="42.477565000" lon="-2.459512000">
        <ele>367.90</ele>
        <time>2016-10-15T05:29:32Z</time>
      </trkpt>
      <trkpt lat="42.477568000" lon="-2.459510000">
        <ele>367.90</ele>
        <time>2016-10-15T05:29:33Z</time>
      </trkpt>
      <trkpt lat="42.477568000" lon="-2.459509000">
        <ele>367.90</ele>
        <time>2016-10-15T05:29:34Z</time>
      </trkpt>
      <trkpt lat="42.477568000" lon="-2.459505000">
        <ele>367.90</ele>
        <time>2016-10-15T05:29:35Z</time>
      </trkpt>
      <trkpt lat="42.477567000" lon="-2.459504000">
        <ele>367.90</ele>
        <time>2016-10-15T05:29:36Z</time>
      </trkpt>
      <trkpt lat="42.477564000" lon="-2.459504000">
        <ele>368.00</ele>
        <time>2016-10-15T05:29:37Z</time>
      </trkpt>
      <trkpt lat="42.477561000" lon="-2.459500000">
        <ele>368.00</ele>
        <time>2016-10-15T05:29:38Z</time>
      </trkpt>
      <trkpt lat="42.477563000" lon="-2.459501000">
        <ele>368.00</ele>
        <time>2016-10-15T05:29:39Z</time>
      </trkpt>
      <trkpt lat="42.477564000" lon="-2.459500000">
        <ele>368.00</ele>
        <time>2016-10-15T05:29:40Z</time>
      </trkpt>
      <trkpt lat="42.477565000" lon="-2.459502000">
        <ele>368.10</ele>
        <time>2016-10-15T05:29:41Z</time>
      </trkpt>
      <trkpt lat="42.477568000" lon="-2.459510000">
        <ele>368.10</ele>
        <time>2016-10-15T05:29:42Z</time>
      </trkpt>
      <trkpt lat="42.477569000" lon="-2.459517000">
        <ele>368.10</ele>
        <time>2016-10-15T05:29:43Z</time>
      </trkpt>
      <trkpt lat="42.477571000" lon="-2.459530000">
        <ele>368.10</ele>
        <time>2016-10-15T05:29:44Z</time>
      </trkpt>
      <trkpt lat="42.477571000" lon="-2.459530000">
        <ele>368.10</ele>
        <time>2016-10-15T05:29:45Z</time>
      </trkpt>
      <trkpt lat="42.477572000" lon="-2.459525000">
        <ele>368.20</ele>
        <time>2016-10-15T05:29:46Z</time>
      </trkpt>
      <trkpt lat="42.477572000" lon="-2.459527000">
        <ele>368.20</ele>
        <time>2016-10-15T05:29:47Z</time>
      </trkpt>
      <trkpt lat="42.477572000" lon="-2.459530000">
        <ele>368.20</ele>
        <time>2016-10-15T05:29:48Z</time>
      </trkpt>
      <trkpt lat="42.477572000" lon="-2.459533000">
        <ele>368.30</ele>
        <time>2016-10-15T05:29:49Z</time>
      </trkpt>
      <trkpt lat="42.477577000" lon="-2.459536000">
        <ele>368.30</ele>
        <time>2016-10-15T05:29:50Z</time>
      </trkpt>
      <trkpt lat="42.477570000" lon="-2.459536000">
        <ele>368.30</ele>
        <time>2016-10-15T05:29:51Z</time>
      </trkpt>
      <trkpt lat="42.477563000" lon="-2.459527000">
        <ele>368.40</ele>
        <time>2016-10-15T05:29:52Z</time>
      </trkpt>
      <trkpt lat="42.477555000" lon="-2.459507000">
        <ele>368.40</ele>
        <time>2016-10-15T05:29:53Z</time>
      </trkpt>
      <trkpt lat="42.477547000" lon="-2.459479000">
        <ele>368.30</ele>
        <time>2016-10-15T05:29:54Z</time>
      </trkpt>
      <trkpt lat="42.477540000" lon="-2.459444000">
        <ele>368.30</ele>
        <time>2016-10-15T05:29:55Z</time>
      </trkpt>
      <trkpt lat="42.477534000" lon="-2.459402000">
        <ele>368.10</ele>
        <time>2016-10-15T05:29:56Z</time>
      </trkpt>
      <trkpt lat="42.477539000" lon="-2.459349000">
        <ele>368.00</ele>
        <time>2016-10-15T05:29:57Z</time>
      </trkpt>
      <trkpt lat="42.477559000" lon="-2.459308000">
        <ele>367.90</ele>
        <time>2016-10-15T05:29:58Z</time>
      </trkpt>
      <trkpt lat="42.477587000" lon="-2.459268000">
        <ele>367.70</ele>
        <time>2016-10-15T05:29:59Z</time>
      </trkpt>
      <trkpt lat="42.477619000" lon="-2.459228000">
        <ele>367.40</ele>
        <time>2016-10-15T05:30:00Z</time>
      </trkpt>
      <trkpt lat="42.477653000" lon="-2.459192000">
        <ele>367.10</ele>
        <time>2016-10-15T05:30:01Z</time>
      </trkpt>
      <trkpt lat="42.477681000" lon="-2.459161000">
        <ele>366.80</ele>
        <time>2016-10-15T05:30:02Z</time>
      </trkpt>
      <trkpt lat="42.477713000" lon="-2.459137000">
        <ele>366.70</ele>
        <time>2016-10-15T05:30:03Z</time>
      </trkpt>
      <trkpt lat="42.477735000" lon="-2.459108000">
        <ele>366.60</ele>
        <time>2016-10-15T05:30:04Z</time>
      </trkpt>
      <trkpt lat="42.477756000" lon="-2.459080000">
        <ele>366.60</ele>
        <time>2016-10-15T05:30:05Z</time>
      </trkpt>
      <trkpt lat="42.477776000" lon="-2.459051000">
        <ele>366.50</ele>
        <time>2016-10-15T05:30:06Z</time>
      </trkpt>
      <trkpt lat="42.477797000" lon="-2.459021000">
        <ele>366.50</ele>
        <time>2016-10-15T05:30:07Z</time>
      </trkpt>
      <trkpt lat="42.477817000" lon="-2.458993000">
        <ele>366.40</ele>
        <time>2016-10-15T05:30:08Z</time>
      </trkpt>
      <trkpt lat="42.477835000" lon="-2.458965000">
        <ele>366.40</ele>
        <time>2016-10-15T05:30:09Z</time>
      </trkpt>
      <trkpt lat="42.477856000" lon="-2.458939000">
        <ele>366.30</ele>
        <time>2016-10-15T05:30:10Z</time>
      </trkpt>
      <trkpt lat="42.477878000" lon="-2.458914000">
        <ele>366.20</ele>
        <time>2016-10-15T05:30:11Z</time>
      </trkpt>
      <trkpt lat="42.477898000" lon="-2.458887000">
        <ele>366.20</ele>
        <time>2016-10-15T05:30:12Z</time>
      </trkpt>
      <trkpt lat="42.477916000" lon="-2.458863000">
        <ele>366.10</ele>
        <time>2016-10-15T05:30:13Z</time>
      </trkpt>
      <trkpt lat="42.477935000" lon="-2.458833000">
        <ele>366.10</ele>
        <time>2016-10-15T05:30:14Z</time>
      </trkpt>
      <trkpt lat="42.477967000" lon="-2.458784000">
        <ele>366.30</ele>
        <time>2016-10-15T05:30:16Z</time>
      </trkpt>
      <trkpt lat="42.477981000" lon="-2.458768000">
        <ele>366.30</ele>
        <time>2016-10-15T05:30:17Z</time>
      </trkpt>
      <trkpt lat="42.477999000" lon="-2.458742000">
        <ele>366.40</ele>
        <time>2016-10-15T05:30:18Z</time>
      </trkpt>
      <trkpt lat="42.478014000" lon="-2.458720000">
        <ele>366.40</ele>
        <time>2016-10-15T05:30:19Z</time>
      </trkpt>
      <trkpt lat="42.478028000" lon="-2.458693000">
        <ele>366.40</ele>
        <time>2016-10-15T05:30:20Z</time>
      </trkpt>
      <trkpt lat="42.478044000" lon="-2.458669000">
        <ele>366.50</ele>
        <time>2016-10-15T05:30:21Z</time>
      </trkpt>
      <trkpt lat="42.478063000" lon="-2.458645000">
        <ele>366.50</ele>
        <time>2016-10-15T05:30:22Z</time>
      </trkpt>
      <trkpt lat="42.478081000" lon="-2.458625000">
        <ele>366.50</ele>
        <time>2016-10-15T05:30:23Z</time>
      </trkpt>
      <trkpt lat="42.478097000" lon="-2.458600000">
        <ele>366.40</ele>
        <time>2016-10-15T05:30:24Z</time>
      </trkpt>
      <trkpt lat="42.478110000" lon="-2.458574000">
        <ele>366.30</ele>
        <time>2016-10-15T05:30:25Z</time>
      </trkpt>
      <trkpt lat="42.478124000" lon="-2.458551000">
        <ele>366.20</ele>
        <time>2016-10-15T05:30:26Z</time>
      </trkpt>
      <trkpt lat="42.478140000" lon="-2.458527000">
        <ele>366.20</ele>
        <time>2016-10-15T05:30:27Z</time>
      </trkpt>
      <trkpt lat="42.478158000" lon="-2.458500000">
        <ele>366.20</ele>
        <time>2016-10-15T05:30:28Z</time>
      </trkpt>
      <trkpt lat="42.478173000" lon="-2.458473000">
        <ele>366.20</ele>
        <time>2016-10-15T05:30:29Z</time>
      </trkpt>
      <trkpt lat="42.478188000" lon="-2.458450000">
        <ele>366.20</ele>
        <time>2016-10-15T05:30:30Z</time>
      </trkpt>
      <trkpt lat="42.478203000" lon="-2.458428000">
        <ele>366.20</ele>
        <time>2016-10-15T05:30:31Z</time>
      </trkpt>
      <trkpt lat="42.478219000" lon="-2.458404000">
        <ele>366.40</ele>
        <time>2016-10-15T05:30:32Z</time>
      </trkpt>
      <trkpt lat="42.478234000" lon="-2.458384000">
        <ele>366.50</ele>
        <time>2016-10-15T05:30:33Z</time>
      </trkpt>
      <trkpt lat="42.478249000" lon="-2.458366000">
        <ele>366.40</ele>
        <time>2016-10-15T05:30:34Z</time>
      </trkpt>
      <trkpt lat="42.478263000" lon="-2.458345000">
        <ele>366.40</ele>
        <time>2016-10-15T05:30:35Z</time>
      </trkpt>
      <trkpt lat="42.478276000" lon="-2.458324000">
        <ele>366.40</ele>
        <time>2016-10-15T05:30:36Z</time>
      </trkpt>
      <trkpt lat="42.478293000" lon="-2.458302000">
        <ele>366.30</ele>
        <time>2016-10-15T05:30:37Z</time>
      </trkpt>
      <trkpt lat="42.478309000" lon="-2.458279000">
        <ele>366.30</ele>
        <time>2016-10-15T05:30:38Z</time>
      </trkpt>
      <trkpt lat="42.478323000" lon="-2.458259000">
        <ele>366.30</ele>
        <time>2016-10-15T05:30:39Z</time>
      </trkpt>
      <trkpt lat="42.478335000" lon="-2.458238000">
        <ele>366.40</ele>
        <time>2016-10-15T05:30:40Z</time>
      </trkpt>
      <trkpt lat="42.478349000" lon="-2.458216000">
        <ele>366.40</ele>
        <time>2016-10-15T05:30:41Z</time>
      </trkpt>
      <trkpt lat="42.478364000" lon="-2.458191000">
        <ele>366.50</ele>
        <time>2016-10-15T05:30:42Z</time>
      </trkpt>
      <trkpt lat="42.478378000" lon="-2.458170000">
        <ele>366.60</ele>
        <time>2016-10-15T05:30:43Z</time>
      </trkpt>
      <trkpt lat="42.478394000" lon="-2.458147000">
        <ele>366.60</ele>
        <time>2016-10-15T05:30:44Z</time>
      </trkpt>
      <trkpt lat="42.478408000" lon="-2.458124000">
        <ele>366.70</ele>
        <time>2016-10-15T05:30:45Z</time>
      </trkpt>
      <trkpt lat="42.478423000" lon="-2.458102000">
        <ele>366.70</ele>
        <time>2016-10-15T05:30:46Z</time>
      </trkpt>
      <trkpt lat="42.478437000" lon="-2.458078000">
        <ele>366.70</ele>
        <time>2016-10-15T05:30:47Z</time>
      </trkpt>
      <trkpt lat="42.478450000" lon="-2.458054000">
        <ele>366.70</ele>
        <time>2016-10-15T05:30:48Z</time>
      </trkpt>
      <trkpt lat="42.478465000" lon="-2.458029000">
        <ele>366.80</ele>
        <time>2016-10-15T05:30:49Z</time>
      </trkpt>
      <trkpt lat="42.478479000" lon="-2.458003000">
        <ele>366.80</ele>
        <time>2016-10-15T05:30:50Z</time>
      </trkpt>
      <trkpt lat="42.478496000" lon="-2.457981000">
        <ele>366.80</ele>
        <time>2016-10-15T05:30:51Z</time>
      </trkpt>
      <trkpt lat="42.478512000" lon="-2.457958000">
        <ele>366.80</ele>
        <time>2016-10-15T05:30:52Z</time>
      </trkpt>
      <trkpt lat="42.478527000" lon="-2.457935000">
        <ele>366.80</ele>
        <time>2016-10-15T05:30:53Z</time>
      </trkpt>
      <trkpt lat="42.478542000" lon="-2.457913000">
        <ele>366.80</ele>
        <time>2016-10-15T05:30:54Z</time>
      </trkpt>
      <trkpt lat="42.478560000" lon="-2.457889000">
        <ele>366.80</ele>
        <time>2016-10-15T05:30:55Z</time>
      </trkpt>
      <trkpt lat="42.478576000" lon="-2.457864000">
        <ele>366.80</ele>
        <time>2016-10-15T05:30:56Z</time>
      </trkpt>
      <trkpt lat="42.478592000" lon="-2.457841000">
        <ele>366.80</ele>
        <time>2016-10-15T05:30:57Z</time>
      </trkpt>
      <trkpt lat="42.478607000" lon="-2.457816000">
        <ele>366.80</ele>
        <time>2016-10-15T05:30:58Z</time>
      </trkpt>
      <trkpt lat="42.478623000" lon="-2.457793000">
        <ele>366.80</ele>
        <time>2016-10-15T05:30:59Z</time>
      </trkpt>
      <trkpt lat="42.478638000" lon="-2.457769000">
        <ele>366.90</ele>
        <time>2016-10-15T05:31:00Z</time>
      </trkpt>
      <trkpt lat="42.478654000" lon="-2.457747000">
        <ele>366.90</ele>
        <time>2016-10-15T05:31:01Z</time>
      </trkpt>
      <trkpt lat="42.478671000" lon="-2.457722000">
        <ele>366.90</ele>
        <time>2016-10-15T05:31:02Z</time>
      </trkpt>
      <trkpt lat="42.478688000" lon="-2.457696000">
        <ele>366.90</ele>
        <time>2016-10-15T05:31:03Z</time>
      </trkpt>
      <trkpt lat="42.478703000" lon="-2.457671000">
        <ele>366.80</ele>
        <time>2016-10-15T05:31:04Z</time>
      </trkpt>
      <trkpt lat="42.478718000" lon="-2.457648000">
        <ele>366.80</ele>
        <time>2016-10-15T05:31:05Z</time>
      </trkpt>
      <trkpt lat="42.478735000" lon="-2.457624000">
        <ele>366.80</ele>
        <time>2016-10-15T05:31:06Z</time>
      </trkpt>
      <trkpt lat="42.478754000" lon="-2.457604000">
        <ele>366.80</ele>
        <time>2016-10-15T05:31:07Z</time>
      </trkpt>
      <trkpt lat="42.478770000" lon="-2.457581000">
        <ele>366.80</ele>
        <time>2016-10-15T05:31:08Z</time>
      </trkpt>
      <trkpt lat="42.478788000" lon="-2.457560000">
        <ele>366.80</ele>
        <time>2016-10-15T05:31:09Z</time>
      </trkpt>
      <trkpt lat="42.478805000" lon="-2.457540000">
        <ele>366.90</ele>
        <time>2016-10-15T05:31:10Z</time>
      </trkpt>
      <trkpt lat="42.478823000" lon="-2.457518000">
        <ele>366.90</ele>
        <time>2016-10-15T05:31:11Z</time>
      </trkpt>
      <trkpt lat="42.478840000" lon="-2.457494000">
        <ele>366.80</ele>
        <time>2016-10-15T05:31:12Z</time>
      </trkpt>
      <trkpt lat="42.478858000" lon="-2.457472000">
        <ele>366.70</ele>
        <time>2016-10-15T05:31:13Z</time>
      </trkpt>
      <trkpt lat="42.478874000" lon="-2.457452000">
        <ele>366.80</ele>
        <time>2016-10-15T05:31:14Z</time>
      </trkpt>
      <trkpt lat="42.478892000" lon="-2.457429000">
        <ele>366.90</ele>
        <time>2016-10-15T05:31:15Z</time>
      </trkpt>
      <trkpt lat="42.478928000" lon="-2.457383000">
        <ele>366.70</ele>
        <time>2016-10-15T05:31:17Z</time>
      </trkpt>
      <trkpt lat="42.478948000" lon="-2.457356000">
        <ele>366.70</ele>
        <time>2016-10-15T05:31:18Z</time>
      </trkpt>
      <trkpt lat="42.478965000" lon="-2.457334000">
        <ele>366.80</ele>
        <time>2016-10-15T05:31:19Z</time>
      </trkpt>
      <trkpt lat="42.478981000" lon="-2.457310000">
        <ele>366.70</ele>
        <time>2016-10-15T05:31:20Z</time>
      </trkpt>
      <trkpt lat="42.479000000" lon="-2.457283000">
        <ele>366.70</ele>
        <time>2016-10-15T05:31:21Z</time>
      </trkpt>
      <trkpt lat="42.479019000" lon="-2.457257000">
        <ele>366.70</ele>
        <time>2016-10-15T05:31:22Z</time>
      </trkpt>
      <trkpt lat="42.479038000" lon="-2.457232000">
        <ele>366.70</ele>
        <time>2016-10-15T05:31:23Z</time>
      </trkpt>
      <trkpt lat="42.479056000" lon="-2.457206000">
        <ele>366.70</ele>
        <time>2016-10-15T05:31:24Z</time>
      </trkpt>
      <trkpt lat="42.479073000" lon="-2.457180000">
        <ele>366.60</ele>
        <time>2016-10-15T05:31:25Z</time>
      </trkpt>
      <trkpt lat="42.479091000" lon="-2.457155000">
        <ele>366.60</ele>
        <time>2016-10-15T05:31:26Z</time>
      </trkpt>
      <trkpt lat="42.479110000" lon="-2.457135000">
        <ele>366.60</ele>
        <time>2016-10-15T05:31:27Z</time>
      </trkpt>
      <trkpt lat="42.479126000" lon="-2.457117000">
        <ele>366.60</ele>
        <time>2016-10-15T05:31:28Z</time>
      </trkpt>
      <trkpt lat="42.479143000" lon="-2.457094000">
        <ele>366.60</ele>
        <time>2016-10-15T05:31:29Z</time>
      </trkpt>
      <trkpt lat="42.479160000" lon="-2.457072000">
        <ele>366.60</ele>
        <time>2016-10-15T05:31:30Z</time>
      </trkpt>
      <trkpt lat="42.479176000" lon="-2.457051000">
        <ele>366.60</ele>
        <time>2016-10-15T05:31:31Z</time>
      </trkpt>
      <trkpt lat="42.479194000" lon="-2.457030000">
        <ele>366.50</ele>
        <time>2016-10-15T05:31:32Z</time>
      </trkpt>
      <trkpt lat="42.479208000" lon="-2.457008000">
        <ele>366.50</ele>
        <time>2016-10-15T05:31:33Z</time>
      </trkpt>
      <trkpt lat="42.479224000" lon="-2.456986000">
        <ele>366.60</ele>
        <time>2016-10-15T05:31:34Z</time>
      </trkpt>
      <trkpt lat="42.479239000" lon="-2.456966000">
        <ele>366.70</ele>
        <time>2016-10-15T05:31:35Z</time>
      </trkpt>
      <trkpt lat="42.479257000" lon="-2.456944000">
        <ele>366.70</ele>
        <time>2016-10-15T05:31:36Z</time>
      </trkpt>
      <trkpt lat="42.479265000" lon="-2.456918000">
        <ele>366.80</ele>
        <time>2016-10-15T05:31:37Z</time>
      </trkpt>
      <trkpt lat="42.479265000" lon="-2.456886000">
        <ele>366.90</ele>
        <time>2016-10-15T05:31:38Z</time>
      </trkpt>
      <trkpt lat="42.479263000" lon="-2.456845000">
        <ele>367.00</ele>
        <time>2016-10-15T05:31:39Z</time>
      </trkpt>
      <trkpt lat="42.479259000" lon="-2.456801000">
        <ele>367.00</ele>
        <time>2016-10-15T05:31:40Z</time>
      </trkpt>
      <trkpt lat="42.479270000" lon="-2.456765000">
        <ele>367.10</ele>
        <time>2016-10-15T05:31:41Z</time>
      </trkpt>
      <trkpt lat="42.479284000" lon="-2.456731000">
        <ele>367.10</ele>
        <time>2016-10-15T05:31:42Z</time>
      </trkpt>
      <trkpt lat="42.479302000" lon="-2.456699000">
        <ele>367.10</ele>
        <time>2016-10-15T05:31:43Z</time>
      </trkpt>
      <trkpt lat="42.479319000" lon="-2.456662000">
        <ele>367.20</ele>
        <time>2016-10-15T05:31:44Z</time>
      </trkpt>
      <trkpt lat="42.479332000" lon="-2.456635000">
        <ele>367.20</ele>
        <time>2016-10-15T05:31:45Z</time>
      </trkpt>
      <trkpt lat="42.479337000" lon="-2.456603000">
        <ele>367.10</ele>
        <time>2016-10-15T05:31:46Z</time>
      </trkpt>
      <trkpt lat="42.479336000" lon="-2.456563000">
        <ele>367.10</ele>
        <time>2016-10-15T05:31:47Z</time>
      </trkpt>
      <trkpt lat="42.479320000" lon="-2.456525000">
        <ele>367.10</ele>
        <time>2016-10-15T05:31:48Z</time>
      </trkpt>
      <trkpt lat="42.479296000" lon="-2.456493000">
        <ele>367.00</ele>
        <time>2016-10-15T05:31:49Z</time>
      </trkpt>
      <trkpt lat="42.479273000" lon="-2.456462000">
        <ele>367.00</ele>
        <time>2016-10-15T05:31:50Z</time>
      </trkpt>
      <trkpt lat="42.479251000" lon="-2.456426000">
        <ele>367.00</ele>
        <time>2016-10-15T05:31:51Z</time>
      </trkpt>
      <trkpt lat="42.479229000" lon="-2.456391000">
        <ele>367.00</ele>
        <time>2016-10-15T05:31:52Z</time>
      </trkpt>
      <trkpt lat="42.479208000" lon="-2.456359000">
        <ele>367.00</ele>
        <time>2016-10-15T05:31:53Z</time>
      </trkpt>
      <trkpt lat="42.479187000" lon="-2.456327000">
        <ele>367.00</ele>
        <time>2016-10-15T05:31:54Z</time>
      </trkpt>
      <trkpt lat="42.479164000" lon="-2.456297000">
        <ele>367.00</ele>
        <time>2016-10-15T05:31:55Z</time>
      </trkpt>
      <trkpt lat="42.479143000" lon="-2.456267000">
        <ele>367.20</ele>
        <time>2016-10-15T05:31:56Z</time>
      </trkpt>
      <trkpt lat="42.479122000" lon="-2.456233000">
        <ele>367.30</ele>
        <time>2016-10-15T05:31:57Z</time>
      </trkpt>
      <trkpt lat="42.479100000" lon="-2.456199000">
        <ele>367.30</ele>
        <time>2016-10-15T05:31:58Z</time>
      </trkpt>
      <trkpt lat="42.479077000" lon="-2.456167000">
        <ele>367.40</ele>
        <time>2016-10-15T05:31:59Z</time>
      </trkpt>
      <trkpt lat="42.479055000" lon="-2.456132000">
        <ele>367.40</ele>
        <time>2016-10-15T05:32:00Z</time>
      </trkpt>
      <trkpt lat="42.479032000" lon="-2.456098000">
        <ele>367.50</ele>
        <time>2016-10-15T05:32:01Z</time>
      </trkpt>
      <trkpt lat="42.479010000" lon="-2.456062000">
        <ele>367.60</ele>
        <time>2016-10-15T05:32:02Z</time>
      </trkpt>
      <trkpt lat="42.478988000" lon="-2.456028000">
        <ele>367.70</ele>
        <time>2016-10-15T05:32:03Z</time>
      </trkpt>
      <trkpt lat="42.478966000" lon="-2.455990000">
        <ele>367.80</ele>
        <time>2016-10-15T05:32:04Z</time>
      </trkpt>
      <trkpt lat="42.478944000" lon="-2.455954000">
        <ele>367.80</ele>
        <time>2016-10-15T05:32:05Z</time>
      </trkpt>
      <trkpt lat="42.478921000" lon="-2.455917000">
        <ele>367.90</ele>
        <time>2016-10-15T05:32:06Z</time>
      </trkpt>
      <trkpt lat="42.478900000" lon="-2.455878000">
        <ele>368.00</ele>
        <time>2016-10-15T05:32:07Z</time>
      </trkpt>
      <trkpt lat="42.478879000" lon="-2.455840000">
        <ele>367.90</ele>
        <time>2016-10-15T05:32:08Z</time>
      </trkpt>
      <trkpt lat="42.478857000" lon="-2.455801000">
        <ele>367.80</ele>
        <time>2016-10-15T05:32:09Z</time>
      </trkpt>
      <trkpt lat="42.478834000" lon="-2.455765000">
        <ele>367.80</ele>
        <time>2016-10-15T05:32:10Z</time>
      </trkpt>
      <trkpt lat="42.478810000" lon="-2.455727000">
        <ele>367.80</ele>
        <time>2016-10-15T05:32:11Z</time>
      </trkpt>
      <trkpt lat="42.478785000" lon="-2.455687000">
        <ele>367.70</ele>
        <time>2016-10-15T05:32:12Z</time>
      </trkpt>
      <trkpt lat="42.478760000" lon="-2.455651000">
        <ele>367.60</ele>
        <time>2016-10-15T05:32:13Z</time>
      </trkpt>
      <trkpt lat="42.478736000" lon="-2.455615000">
        <ele>367.50</ele>
        <time>2016-10-15T05:32:14Z</time>
      </trkpt>
      <trkpt lat="42.478712000" lon="-2.455576000">
        <ele>367.50</ele>
        <time>2016-10-15T05:32:15Z</time>
      </trkpt>
      <trkpt lat="42.478687000" lon="-2.455537000">
        <ele>367.50</ele>
        <time>2016-10-15T05:32:16Z</time>
      </trkpt>
      <trkpt lat="42.478638000" lon="-2.455460000">
        <ele>367.60</ele>
        <time>2016-10-15T05:32:18Z</time>
      </trkpt>
      <trkpt lat="42.478615000" lon="-2.455419000">
        <ele>367.60</ele>
        <time>2016-10-15T05:32:19Z</time>
      </trkpt>
      <trkpt lat="42.478591000" lon="-2.455381000">
        <ele>367.60</ele>
        <time>2016-10-15T05:32:20Z</time>
      </trkpt>
      <trkpt lat="42.478569000" lon="-2.455340000">
        <ele>367.60</ele>
        <time>2016-10-15T05:32:21Z</time>
      </trkpt>
      <trkpt lat="42.478547000" lon="-2.455300000">
        <ele>367.60</ele>
        <time>2016-10-15T05:32:22Z</time>
      </trkpt>
      <trkpt lat="42.478522000" lon="-2.455261000">
        <ele>367.60</ele>
        <time>2016-10-15T05:32:23Z</time>
      </trkpt>
      <trkpt lat="42.478496000" lon="-2.455225000">
        <ele>367.60</ele>
        <time>2016-10-15T05:32:24Z</time>
      </trkpt>
      <trkpt lat="42.478470000" lon="-2.455185000">
        <ele>367.60</ele>
        <time>2016-10-15T05:32:25Z</time>
      </trkpt>
      <trkpt lat="42.478444000" lon="-2.455147000">
        <ele>367.60</ele>
        <time>2016-10-15T05:32:26Z</time>
      </trkpt>
      <trkpt lat="42.478418000" lon="-2.455108000">
        <ele>367.60</ele>
        <time>2016-10-15T05:32:27Z</time>
      </trkpt>
      <trkpt lat="42.478392000" lon="-2.455068000">
        <ele>367.40</ele>
        <time>2016-10-15T05:32:28Z</time>
      </trkpt>
      <trkpt lat="42.478367000" lon="-2.455028000">
        <ele>367.30</ele>
        <time>2016-10-15T05:32:29Z</time>
      </trkpt>
      <trkpt lat="42.478343000" lon="-2.454988000">
        <ele>367.20</ele>
        <time>2016-10-15T05:32:30Z</time>
      </trkpt>
      <trkpt lat="42.478318000" lon="-2.454948000">
        <ele>367.10</ele>
        <time>2016-10-15T05:32:31Z</time>
      </trkpt>
      <trkpt lat="42.478291000" lon="-2.454908000">
        <ele>367.10</ele>
        <time>2016-10-15T05:32:32Z</time>
      </trkpt>
      <trkpt lat="42.478266000" lon="-2.454865000">
        <ele>367.10</ele>
        <time>2016-10-15T05:32:33Z</time>
      </trkpt>
      <trkpt lat="42.478240000" lon="-2.454820000">
        <ele>367.30</ele>
        <time>2016-10-15T05:32:34Z</time>
      </trkpt>
      <trkpt lat="42.478214000" lon="-2.454777000">
        <ele>367.40</ele>
        <time>2016-10-15T05:32:35Z</time>
      </trkpt>
      <trkpt lat="42.478189000" lon="-2.454737000">
        <ele>367.50</ele>
        <time>2016-10-15T05:32:36Z</time>
      </trkpt>
      <trkpt lat="42.478167000" lon="-2.454694000">
        <ele>367.60</ele>
        <time>2016-10-15T05:32:37Z</time>
      </trkpt>
      <trkpt lat="42.478143000" lon="-2.454654000">
        <ele>367.60</ele>
        <time>2016-10-15T05:32:38Z</time>
      </trkpt>
      <trkpt lat="42.478122000" lon="-2.454615000">
        <ele>367.50</ele>
        <time>2016-10-15T05:32:39Z</time>
      </trkpt>
      <trkpt lat="42.478099000" lon="-2.454573000">
        <ele>367.50</ele>
        <time>2016-10-15T05:32:40Z</time>
      </trkpt>
      <trkpt lat="42.478075000" lon="-2.454529000">
        <ele>367.50</ele>
        <time>2016-10-15T05:32:41Z</time>
      </trkpt>
      <trkpt lat="42.478050000" lon="-2.454485000">
        <ele>367.40</ele>
        <time>2016-10-15T05:32:42Z</time>
      </trkpt>
      <trkpt lat="42.478024000" lon="-2.454441000">
        <ele>367.30</ele>
        <time>2016-10-15T05:32:43Z</time>
      </trkpt>
      <trkpt lat="42.477998000" lon="-2.454397000">
        <ele>367.20</ele>
        <time>2016-10-15T05:32:44Z</time>
      </trkpt>
      <trkpt lat="42.477974000" lon="-2.454356000">
        <ele>367.10</ele>
        <time>2016-10-15T05:32:45Z</time>
      </trkpt>
      <trkpt lat="42.477949000" lon="-2.454315000">
        <ele>367.10</ele>
        <time>2016-10-15T05:32:46Z</time>
      </trkpt>
      <trkpt lat="42.477925000" lon="-2.454271000">
        <ele>366.90</ele>
        <time>2016-10-15T05:32:47Z</time>
      </trkpt>
      <trkpt lat="42.477902000" lon="-2.454229000">
        <ele>366.80</ele>
        <time>2016-10-15T05:32:48Z</time>
      </trkpt>
      <trkpt lat="42.477879000" lon="-2.454184000">
        <ele>366.80</ele>
        <time>2016-10-15T05:32:49Z</time>
      </trkpt>
      <trkpt lat="42.477855000" lon="-2.454140000">
        <ele>366.80</ele>
        <time>2016-10-15T05:32:50Z</time>
      </trkpt>
      <trkpt lat="42.477832000" lon="-2.454096000">
        <ele>366.80</ele>
        <time>2016-10-15T05:32:51Z</time>
      </trkpt>
      <trkpt lat="42.477809000" lon="-2.454053000">
        <ele>366.70</ele>
        <time>2016-10-15T05:32:52Z</time>
      </trkpt>
      <trkpt lat="42.477784000" lon="-2.454012000">
        <ele>366.70</ele>
        <time>2016-10-15T05:32:53Z</time>
      </trkpt>
      <trkpt lat="42.477759000" lon="-2.453969000">
        <ele>366.70</ele>
        <time>2016-10-15T05:32:54Z</time>
      </trkpt>
      <trkpt lat="42.477734000" lon="-2.453928000">
        <ele>366.70</ele>
        <time>2016-10-15T05:32:55Z</time>
      </trkpt>
      <trkpt lat="42.477709000" lon="-2.453885000">
        <ele>366.70</ele>
        <time>2016-10-15T05:32:56Z</time>
      </trkpt>
      <trkpt lat="42.477683000" lon="-2.453843000">
        <ele>366.70</ele>
        <time>2016-10-15T05:32:57Z</time>
      </trkpt>
      <trkpt lat="42.477658000" lon="-2.453798000">
        <ele>366.70</ele>
        <time>2016-10-15T05:32:58Z</time>
      </trkpt>
      <trkpt lat="42.477632000" lon="-2.453755000">
        <ele>366.60</ele>
        <time>2016-10-15T05:32:59Z</time>
      </trkpt>
      <trkpt lat="42.477607000" lon="-2.453713000">
        <ele>366.50</ele>
        <time>2016-10-15T05:33:00Z</time>
      </trkpt>
      <trkpt lat="42.477582000" lon="-2.453669000">
        <ele>366.40</ele>
        <time>2016-10-15T05:33:01Z</time>
      </trkpt>
      <trkpt lat="42.477560000" lon="-2.453624000">
        <ele>366.40</ele>
        <time>2016-10-15T05:33:02Z</time>
      </trkpt>
      <trkpt lat="42.477537000" lon="-2.453578000">
        <ele>366.40</ele>
        <time>2016-10-15T05:33:03Z</time>
      </trkpt>
      <trkpt lat="42.477518000" lon="-2.453530000">
        <ele>366.50</ele>
        <time>2016-10-15T05:33:04Z</time>
      </trkpt>
      <trkpt lat="42.477497000" lon="-2.453487000">
        <ele>366.60</ele>
        <time>2016-10-15T05:33:05Z</time>
      </trkpt>
      <trkpt lat="42.477477000" lon="-2.453442000">
        <ele>366.60</ele>
        <time>2016-10-15T05:33:06Z</time>
      </trkpt>
      <trkpt lat="42.477454000" lon="-2.453396000">
        <ele>366.60</ele>
        <time>2016-10-15T05:33:07Z</time>
      </trkpt>
      <trkpt lat="42.477429000" lon="-2.453353000">
        <ele>366.60</ele>
        <time>2016-10-15T05:33:08Z</time>
      </trkpt>
      <trkpt lat="42.477404000" lon="-2.453312000">
        <ele>366.50</ele>
        <time>2016-10-15T05:33:09Z</time>
      </trkpt>
      <trkpt lat="42.477382000" lon="-2.453267000">
        <ele>366.40</ele>
        <time>2016-10-15T05:33:10Z</time>
      </trkpt>
      <trkpt lat="42.477359000" lon="-2.453225000">
        <ele>366.30</ele>
        <time>2016-10-15T05:33:11Z</time>
      </trkpt>
      <trkpt lat="42.477333000" lon="-2.453181000">
        <ele>366.20</ele>
        <time>2016-10-15T05:33:12Z</time>
      </trkpt>
      <trkpt lat="42.477307000" lon="-2.453138000">
        <ele>366.00</ele>
        <time>2016-10-15T05:33:13Z</time>
      </trkpt>
      <trkpt lat="42.477283000" lon="-2.453094000">
        <ele>365.80</ele>
        <time>2016-10-15T05:33:14Z</time>
      </trkpt>
      <trkpt lat="42.477259000" lon="-2.453052000">
        <ele>365.80</ele>
        <time>2016-10-15T05:33:15Z</time>
      </trkpt>
      <trkpt lat="42.477236000" lon="-2.453009000">
        <ele>365.80</ele>
        <time>2016-10-15T05:33:16Z</time>
      </trkpt>
      <trkpt lat="42.477213000" lon="-2.452969000">
        <ele>365.90</ele>
        <time>2016-10-15T05:33:17Z</time>
      </trkpt>
      <trkpt lat="42.477167000" lon="-2.452883000">
        <ele>365.90</ele>
        <time>2016-10-15T05:33:19Z</time>
      </trkpt>
      <trkpt lat="42.477146000" lon="-2.452839000">
        <ele>366.00</ele>
        <time>2016-10-15T05:33:20Z</time>
      </trkpt>
      <trkpt lat="42.477123000" lon="-2.452798000">
        <ele>366.10</ele>
        <time>2016-10-15T05:33:21Z</time>
      </trkpt>
      <trkpt lat="42.477100000" lon="-2.452757000">
        <ele>366.30</ele>
        <time>2016-10-15T05:33:22Z</time>
      </trkpt>
      <trkpt lat="42.477078000" lon="-2.452714000">
        <ele>366.30</ele>
        <time>2016-10-15T05:33:23Z</time>
      </trkpt>
      <trkpt lat="42.477056000" lon="-2.452667000">
        <ele>366.30</ele>
        <time>2016-10-15T05:33:24Z</time>
      </trkpt>
      <trkpt lat="42.477034000" lon="-2.452623000">
        <ele>366.30</ele>
        <time>2016-10-15T05:33:25Z</time>
      </trkpt>
      <trkpt lat="42.477009000" lon="-2.452579000">
        <ele>366.30</ele>
        <time>2016-10-15T05:33:26Z</time>
      </trkpt>
      <trkpt lat="42.476986000" lon="-2.452533000">
        <ele>366.30</ele>
        <time>2016-10-15T05:33:27Z</time>
      </trkpt>
      <trkpt lat="42.476963000" lon="-2.452489000">
        <ele>366.20</ele>
        <time>2016-10-15T05:33:28Z</time>
      </trkpt>
      <trkpt lat="42.476940000" lon="-2.452443000">
        <ele>366.20</ele>
        <time>2016-10-15T05:33:29Z</time>
      </trkpt>
      <trkpt lat="42.476920000" lon="-2.452398000">
        <ele>366.20</ele>
        <time>2016-10-15T05:33:30Z</time>
      </trkpt>
      <trkpt lat="42.476896000" lon="-2.452355000">
        <ele>366.20</ele>
        <time>2016-10-15T05:33:31Z</time>
      </trkpt>
      <trkpt lat="42.476876000" lon="-2.452314000">
        <ele>366.30</ele>
        <time>2016-10-15T05:33:32Z</time>
      </trkpt>
      <trkpt lat="42.476856000" lon="-2.452270000">
        <ele>366.30</ele>
        <time>2016-10-15T05:33:33Z</time>
      </trkpt>
      <trkpt lat="42.476832000" lon="-2.452226000">
        <ele>366.30</ele>
        <time>2016-10-15T05:33:34Z</time>
      </trkpt>
      <trkpt lat="42.476805000" lon="-2.452180000">
        <ele>366.30</ele>
        <time>2016-10-15T05:33:35Z</time>
      </trkpt>
      <trkpt lat="42.476781000" lon="-2.452132000">
        <ele>366.20</ele>
        <time>2016-10-15T05:33:36Z</time>
      </trkpt>
      <trkpt lat="42.476756000" lon="-2.452087000">
        <ele>366.20</ele>
        <time>2016-10-15T05:33:37Z</time>
      </trkpt>
      <trkpt lat="42.476732000" lon="-2.452036000">
        <ele>366.20</ele>
        <time>2016-10-15T05:33:38Z</time>
      </trkpt>
      <trkpt lat="42.476711000" lon="-2.451979000">
        <ele>366.20</ele>
        <time>2016-10-15T05:33:39Z</time>
      </trkpt>
      <trkpt lat="42.476692000" lon="-2.451922000">
        <ele>366.10</ele>
        <time>2016-10-15T05:33:40Z</time>
      </trkpt>
      <trkpt lat="42.476674000" lon="-2.451863000">
        <ele>366.10</ele>
        <time>2016-10-15T05:33:41Z</time>
      </trkpt>
      <trkpt lat="42.476657000" lon="-2.451805000">
        <ele>366.10</ele>
        <time>2016-10-15T05:33:42Z</time>
      </trkpt>
      <trkpt lat="42.476640000" lon="-2.451748000">
        <ele>366.10</ele>
        <time>2016-10-15T05:33:43Z</time>
      </trkpt>
      <trkpt lat="42.476623000" lon="-2.451689000">
        <ele>366.00</ele>
        <time>2016-10-15T05:33:44Z</time>
      </trkpt>
      <trkpt lat="42.476610000" lon="-2.451627000">
        <ele>365.90</ele>
        <time>2016-10-15T05:33:45Z</time>
      </trkpt>
      <trkpt lat="42.476597000" lon="-2.451563000">
        <ele>365.80</ele>
        <time>2016-10-15T05:33:46Z</time>
      </trkpt>
      <trkpt lat="42.476586000" lon="-2.451500000">
        <ele>365.70</ele>
        <time>2016-10-15T05:33:47Z</time>
      </trkpt>
      <trkpt lat="42.476574000" lon="-2.451438000">
        <ele>365.70</ele>
        <time>2016-10-15T05:33:48Z</time>
      </trkpt>
      <trkpt lat="42.476562000" lon="-2.451374000">
        <ele>365.60</ele>
        <time>2016-10-15T05:33:49Z</time>
      </trkpt>
      <trkpt lat="42.476553000" lon="-2.451310000">
        <ele>365.60</ele>
        <time>2016-10-15T05:33:50Z</time>
      </trkpt>
      <trkpt lat="42.476544000" lon="-2.451246000">
        <ele>365.40</ele>
        <time>2016-10-15T05:33:51Z</time>
      </trkpt>
      <trkpt lat="42.476536000" lon="-2.451183000">
        <ele>365.30</ele>
        <time>2016-10-15T05:33:52Z</time>
      </trkpt>
      <trkpt lat="42.476527000" lon="-2.451119000">
        <ele>365.20</ele>
        <time>2016-10-15T05:33:53Z</time>
      </trkpt>
      <trkpt lat="42.476518000" lon="-2.451053000">
        <ele>365.10</ele>
        <time>2016-10-15T05:33:54Z</time>
      </trkpt>
      <trkpt lat="42.476511000" lon="-2.450991000">
        <ele>365.00</ele>
        <time>2016-10-15T05:33:55Z</time>
      </trkpt>
      <trkpt lat="42.476504000" lon="-2.450930000">
        <ele>364.90</ele>
        <time>2016-10-15T05:33:56Z</time>
      </trkpt>
      <trkpt lat="42.476497000" lon="-2.450865000">
        <ele>364.90</ele>
        <time>2016-10-15T05:33:57Z</time>
      </trkpt>
      <trkpt lat="42.476490000" lon="-2.450804000">
        <ele>364.90</ele>
        <time>2016-10-15T05:33:58Z</time>
      </trkpt>
      <trkpt lat="42.476486000" lon="-2.450740000">
        <ele>365.00</ele>
        <time>2016-10-15T05:33:59Z</time>
      </trkpt>
      <trkpt lat="42.476481000" lon="-2.450677000">
        <ele>365.00</ele>
        <time>2016-10-15T05:34:00Z</time>
      </trkpt>
      <trkpt lat="42.476474000" lon="-2.450617000">
        <ele>364.80</ele>
        <time>2016-10-15T05:34:01Z</time>
      </trkpt>
      <trkpt lat="42.476468000" lon="-2.450551000">
        <ele>364.70</ele>
        <time>2016-10-15T05:34:02Z</time>
      </trkpt>
      <trkpt lat="42.476461000" lon="-2.450485000">
        <ele>364.70</ele>
        <time>2016-10-15T05:34:03Z</time>
      </trkpt>
      <trkpt lat="42.476457000" lon="-2.450421000">
        <ele>364.60</ele>
        <time>2016-10-15T05:34:04Z</time>
      </trkpt>
      <trkpt lat="42.476452000" lon="-2.450357000">
        <ele>364.60</ele>
        <time>2016-10-15T05:34:05Z</time>
      </trkpt>
      <trkpt lat="42.476446000" lon="-2.450290000">
        <ele>364.60</ele>
        <time>2016-10-15T05:34:06Z</time>
      </trkpt>
      <trkpt lat="42.476440000" lon="-2.450225000">
        <ele>364.50</ele>
        <time>2016-10-15T05:34:07Z</time>
      </trkpt>
      <trkpt lat="42.476437000" lon="-2.450158000">
        <ele>364.40</ele>
        <time>2016-10-15T05:34:08Z</time>
      </trkpt>
      <trkpt lat="42.476434000" lon="-2.450093000">
        <ele>364.50</ele>
        <time>2016-10-15T05:34:09Z</time>
      </trkpt>
      <trkpt lat="42.476431000" lon="-2.450029000">
        <ele>364.50</ele>
        <time>2016-10-15T05:34:10Z</time>
      </trkpt>
      <trkpt lat="42.476429000" lon="-2.449963000">
        <ele>364.50</ele>
        <time>2016-10-15T05:34:11Z</time>
      </trkpt>
      <trkpt lat="42.476425000" lon="-2.449896000">
        <ele>364.40</ele>
        <time>2016-10-15T05:34:12Z</time>
      </trkpt>
      <trkpt lat="42.476420000" lon="-2.449828000">
        <ele>364.50</ele>
        <time>2016-10-15T05:34:13Z</time>
      </trkpt>
      <trkpt lat="42.476414000" lon="-2.449761000">
        <ele>364.50</ele>
        <time>2016-10-15T05:34:14Z</time>
      </trkpt>
      <trkpt lat="42.476413000" lon="-2.449693000">
        <ele>364.60</ele>
        <time>2016-10-15T05:34:15Z</time>
      </trkpt>
      <trkpt lat="42.476412000" lon="-2.449627000">
        <ele>364.70</ele>
        <time>2016-10-15T05:34:16Z</time>
      </trkpt>
      <trkpt lat="42.476414000" lon="-2.449561000">
        <ele>364.80</ele>
        <time>2016-10-15T05:34:17Z</time>
      </trkpt>
      <trkpt lat="42.476419000" lon="-2.449498000">
        <ele>364.90</ele>
        <time>2016-10-15T05:34:18Z</time>
      </trkpt>
      <trkpt lat="42.476438000" lon="-2.449375000">
        <ele>364.90</ele>
        <time>2016-10-15T05:34:20Z</time>
      </trkpt>
      <trkpt lat="42.476449000" lon="-2.449317000">
        <ele>365.00</ele>
        <time>2016-10-15T05:34:21Z</time>
      </trkpt>
      <trkpt lat="42.476464000" lon="-2.449261000">
        <ele>365.00</ele>
        <time>2016-10-15T05:34:22Z</time>
      </trkpt>
      <trkpt lat="42.476481000" lon="-2.449204000">
        <ele>365.00</ele>
        <time>2016-10-15T05:34:23Z</time>
      </trkpt>
      <trkpt lat="42.476498000" lon="-2.449149000">
        <ele>365.00</ele>
        <time>2016-10-15T05:34:24Z</time>
      </trkpt>
      <trkpt lat="42.476508000" lon="-2.449091000">
        <ele>364.90</ele>
        <time>2016-10-15T05:34:25Z</time>
      </trkpt>
      <trkpt lat="42.476513000" lon="-2.449031000">
        <ele>364.90</ele>
        <time>2016-10-15T05:34:26Z</time>
      </trkpt>
      <trkpt lat="42.476512000" lon="-2.448969000">
        <ele>364.90</ele>
        <time>2016-10-15T05:34:27Z</time>
      </trkpt>
      <trkpt lat="42.476505000" lon="-2.448907000">
        <ele>364.90</ele>
        <time>2016-10-15T05:34:28Z</time>
      </trkpt>
      <trkpt lat="42.476492000" lon="-2.448847000">
        <ele>364.90</ele>
        <time>2016-10-15T05:34:29Z</time>
      </trkpt>
      <trkpt lat="42.476473000" lon="-2.448789000">
        <ele>364.90</ele>
        <time>2016-10-15T05:34:30Z</time>
      </trkpt>
      <trkpt lat="42.476450000" lon="-2.448733000">
        <ele>364.90</ele>
        <time>2016-10-15T05:34:31Z</time>
      </trkpt>
      <trkpt lat="42.476423000" lon="-2.448680000">
        <ele>364.90</ele>
        <time>2016-10-15T05:34:32Z</time>
      </trkpt>
      <trkpt lat="42.476396000" lon="-2.448628000">
        <ele>364.80</ele>
        <time>2016-10-15T05:34:33Z</time>
      </trkpt>
      <trkpt lat="42.476371000" lon="-2.448576000">
        <ele>364.80</ele>
        <time>2016-10-15T05:34:34Z</time>
      </trkpt>
      <trkpt lat="42.476347000" lon="-2.448521000">
        <ele>364.70</ele>
        <time>2016-10-15T05:34:35Z</time>
      </trkpt>
      <trkpt lat="42.476325000" lon="-2.448463000">
        <ele>364.70</ele>
        <time>2016-10-15T05:34:36Z</time>
      </trkpt>
      <trkpt lat="42.476307000" lon="-2.448404000">
        <ele>364.60</ele>
        <time>2016-10-15T05:34:37Z</time>
      </trkpt>
      <trkpt lat="42.476291000" lon="-2.448345000">
        <ele>364.50</ele>
        <time>2016-10-15T05:34:38Z</time>
      </trkpt>
      <trkpt lat="42.476276000" lon="-2.448285000">
        <ele>364.40</ele>
        <time>2016-10-15T05:34:39Z</time>
      </trkpt>
      <trkpt lat="42.476264000" lon="-2.448222000">
        <ele>364.40</ele>
        <time>2016-10-15T05:34:40Z</time>
      </trkpt>
      <trkpt lat="42.476255000" lon="-2.448159000">
        <ele>364.40</ele>
        <time>2016-10-15T05:34:41Z</time>
      </trkpt>
      <trkpt lat="42.476248000" lon="-2.448095000">
        <ele>364.40</ele>
        <time>2016-10-15T05:34:42Z</time>
      </trkpt>
      <trkpt lat="42.476243000" lon="-2.448029000">
        <ele>364.40</ele>
        <time>2016-10-15T05:34:43Z</time>
      </trkpt>
      <trkpt lat="42.476240000" lon="-2.447964000">
        <ele>364.40</ele>
        <time>2016-10-15T05:34:44Z</time>
      </trkpt>
      <trkpt lat="42.476238000" lon="-2.447901000">
        <ele>364.40</ele>
        <time>2016-10-15T05:34:45Z</time>
      </trkpt>
      <trkpt lat="42.476236000" lon="-2.447838000">
        <ele>364.30</ele>
        <time>2016-10-15T05:34:46Z</time>
      </trkpt>
      <trkpt lat="42.476233000" lon="-2.447776000">
        <ele>364.30</ele>
        <time>2016-10-15T05:34:47Z</time>
      </trkpt>
      <trkpt lat="42.476228000" lon="-2.447713000">
        <ele>364.30</ele>
        <time>2016-10-15T05:34:48Z</time>
      </trkpt>
      <trkpt lat="42.476224000" lon="-2.447651000">
        <ele>364.30</ele>
        <time>2016-10-15T05:34:49Z</time>
      </trkpt>
      <trkpt lat="42.476220000" lon="-2.447589000">
        <ele>364.30</ele>
        <time>2016-10-15T05:34:50Z</time>
      </trkpt>
      <trkpt lat="42.476216000" lon="-2.447529000">
        <ele>364.40</ele>
        <time>2016-10-15T05:34:51Z</time>
      </trkpt>
      <trkpt lat="42.476213000" lon="-2.447466000">
        <ele>364.50</ele>
        <time>2016-10-15T05:34:52Z</time>
      </trkpt>
      <trkpt lat="42.476211000" lon="-2.447405000">
        <ele>364.50</ele>
        <time>2016-10-15T05:34:53Z</time>
      </trkpt>
      <trkpt lat="42.476212000" lon="-2.447344000">
        <ele>364.40</ele>
        <time>2016-10-15T05:34:54Z</time>
      </trkpt>
      <trkpt lat="42.476214000" lon="-2.447285000">
        <ele>364.50</ele>
        <time>2016-10-15T05:34:55Z</time>
      </trkpt>
      <trkpt lat="42.476216000" lon="-2.447227000">
        <ele>364.60</ele>
        <time>2016-10-15T05:34:56Z</time>
      </trkpt>
      <trkpt lat="42.476219000" lon="-2.447169000">
        <ele>364.70</ele>
        <time>2016-10-15T05:34:57Z</time>
      </trkpt>
      <trkpt lat="42.476222000" lon="-2.447111000">
        <ele>364.80</ele>
        <time>2016-10-15T05:34:58Z</time>
      </trkpt>
      <trkpt lat="42.476224000" lon="-2.447051000">
        <ele>364.90</ele>
        <time>2016-10-15T05:34:59Z</time>
      </trkpt>
      <trkpt lat="42.476227000" lon="-2.446993000">
        <ele>365.00</ele>
        <time>2016-10-15T05:35:00Z</time>
      </trkpt>
      <trkpt lat="42.476232000" lon="-2.446938000">
        <ele>365.00</ele>
        <time>2016-10-15T05:35:01Z</time>
      </trkpt>
      <trkpt lat="42.476234000" lon="-2.446881000">
        <ele>365.00</ele>
        <time>2016-10-15T05:35:02Z</time>
      </trkpt>
      <trkpt lat="42.476237000" lon="-2.446823000">
        <ele>365.10</ele>
        <time>2016-10-15T05:35:03Z</time>
      </trkpt>
      <trkpt lat="42.476239000" lon="-2.446765000">
        <ele>365.20</ele>
        <time>2016-10-15T05:35:04Z</time>
      </trkpt>
      <trkpt lat="42.476242000" lon="-2.446707000">
        <ele>365.20</ele>
        <time>2016-10-15T05:35:05Z</time>
      </trkpt>
      <trkpt lat="42.476244000" lon="-2.446651000">
        <ele>365.20</ele>
        <time>2016-10-15T05:35:06Z</time>
      </trkpt>
      <trkpt lat="42.476247000" lon="-2.446594000">
        <ele>365.30</ele>
        <time>2016-10-15T05:35:07Z</time>
      </trkpt>
      <trkpt lat="42.476252000" lon="-2.446537000">
        <ele>365.30</ele>
        <time>2016-10-15T05:35:08Z</time>
      </trkpt>
      <trkpt lat="42.476259000" lon="-2.446478000">
        <ele>365.30</ele>
        <time>2016-10-15T05:35:09Z</time>
      </trkpt>
      <trkpt lat="42.476266000" lon="-2.446421000">
        <ele>365.30</ele>
        <time>2016-10-15T05:35:10Z</time>
      </trkpt>
      <trkpt lat="42.476273000" lon="-2.446365000">
        <ele>365.30</ele>
        <time>2016-10-15T05:35:11Z</time>
      </trkpt>
      <trkpt lat="42.476281000" lon="-2.446309000">
        <ele>365.30</ele>
        <time>2016-10-15T05:35:12Z</time>
      </trkpt>
      <trkpt lat="42.476289000" lon="-2.446254000">
        <ele>365.50</ele>
        <time>2016-10-15T05:35:13Z</time>
      </trkpt>
      <trkpt lat="42.476298000" lon="-2.446197000">
        <ele>365.60</ele>
        <time>2016-10-15T05:35:14Z</time>
      </trkpt>
      <trkpt lat="42.476307000" lon="-2.446140000">
        <ele>365.70</ele>
        <time>2016-10-15T05:35:15Z</time>
      </trkpt>
      <trkpt lat="42.476313000" lon="-2.446086000">
        <ele>365.80</ele>
        <time>2016-10-15T05:35:16Z</time>
      </trkpt>
      <trkpt lat="42.476320000" lon="-2.446033000">
        <ele>366.00</ele>
        <time>2016-10-15T05:35:17Z</time>
      </trkpt>
      <trkpt lat="42.476327000" lon="-2.445983000">
        <ele>366.10</ele>
        <time>2016-10-15T05:35:18Z</time>
      </trkpt>
      <trkpt lat="42.476334000" lon="-2.445935000">
        <ele>366.20</ele>
        <time>2016-10-15T05:35:19Z</time>
      </trkpt>
      <trkpt lat="42.476347000" lon="-2.445844000">
        <ele>366.40</ele>
        <time>2016-10-15T05:35:21Z</time>
      </trkpt>
      <trkpt lat="42.476353000" lon="-2.445798000">
        <ele>366.40</ele>
        <time>2016-10-15T05:35:22Z</time>
      </trkpt>
      <trkpt lat="42.476357000" lon="-2.445754000">
        <ele>366.60</ele>
        <time>2016-10-15T05:35:23Z</time>
      </trkpt>
      <trkpt lat="42.476362000" lon="-2.445714000">
        <ele>366.70</ele>
        <time>2016-10-15T05:35:24Z</time>
      </trkpt>
      <trkpt lat="42.476364000" lon="-2.445679000">
        <ele>366.80</ele>
        <time>2016-10-15T05:35:25Z</time>
      </trkpt>
      <trkpt lat="42.476365000" lon="-2.445646000">
        <ele>366.80</ele>
        <time>2016-10-15T05:35:26Z</time>
      </trkpt>
      <trkpt lat="42.476367000" lon="-2.445618000">
        <ele>366.90</ele>
        <time>2016-10-15T05:35:27Z</time>
      </trkpt>
      <trkpt lat="42.476370000" lon="-2.445590000">
        <ele>366.90</ele>
        <time>2016-10-15T05:35:28Z</time>
      </trkpt>
      <trkpt lat="42.476372000" lon="-2.445563000">
        <ele>367.00</ele>
        <time>2016-10-15T05:35:29Z</time>
      </trkpt>
      <trkpt lat="42.476379000" lon="-2.445534000">
        <ele>367.00</ele>
        <time>2016-10-15T05:35:30Z</time>
      </trkpt>
      <trkpt lat="42.476392000" lon="-2.445508000">
        <ele>367.20</ele>
        <time>2016-10-15T05:35:31Z</time>
      </trkpt>
      <trkpt lat="42.476412000" lon="-2.445487000">
        <ele>367.30</ele>
        <time>2016-10-15T05:35:32Z</time>
      </trkpt>
      <trkpt lat="42.476442000" lon="-2.445481000">
        <ele>367.40</ele>
        <time>2016-10-15T05:35:33Z</time>
      </trkpt>
      <trkpt lat="42.476473000" lon="-2.445482000">
        <ele>367.50</ele>
        <time>2016-10-15T05:35:34Z</time>
      </trkpt>
      <trkpt lat="42.476506000" lon="-2.445486000">
        <ele>367.60</ele>
        <time>2016-10-15T05:35:35Z</time>
      </trkpt>
      <trkpt lat="42.476537000" lon="-2.445491000">
        <ele>367.60</ele>
        <time>2016-10-15T05:35:36Z</time>
      </trkpt>
      <trkpt lat="42.476571000" lon="-2.445494000">
        <ele>367.60</ele>
        <time>2016-10-15T05:35:37Z</time>
      </trkpt>
      <trkpt lat="42.476606000" lon="-2.445497000">
        <ele>367.70</ele>
        <time>2016-10-15T05:35:38Z</time>
      </trkpt>
      <trkpt lat="42.476643000" lon="-2.445495000">
        <ele>367.70</ele>
        <time>2016-10-15T05:35:39Z</time>
      </trkpt>
      <trkpt lat="42.476679000" lon="-2.445494000">
        <ele>367.70</ele>
        <time>2016-10-15T05:35:40Z</time>
      </trkpt>
      <trkpt lat="42.476716000" lon="-2.445490000">
        <ele>367.70</ele>
        <time>2016-10-15T05:35:41Z</time>
      </trkpt>
      <trkpt lat="42.476753000" lon="-2.445487000">
        <ele>367.70</ele>
        <time>2016-10-15T05:35:42Z</time>
      </trkpt>
      <trkpt lat="42.476792000" lon="-2.445484000">
        <ele>367.80</ele>
        <time>2016-10-15T05:35:43Z</time>
      </trkpt>
      <trkpt lat="42.476831000" lon="-2.445484000">
        <ele>367.80</ele>
        <time>2016-10-15T05:35:44Z</time>
      </trkpt>
      <trkpt lat="42.476870000" lon="-2.445479000">
        <ele>367.90</ele>
        <time>2016-10-15T05:35:45Z</time>
      </trkpt>
      <trkpt lat="42.476908000" lon="-2.445473000">
        <ele>367.90</ele>
        <time>2016-10-15T05:35:46Z</time>
      </trkpt>
      <trkpt lat="42.476946000" lon="-2.445471000">
        <ele>367.90</ele>
        <time>2016-10-15T05:35:47Z</time>
      </trkpt>
      <trkpt lat="42.476986000" lon="-2.445470000">
        <ele>367.80</ele>
        <time>2016-10-15T05:35:48Z</time>
      </trkpt>
      <trkpt lat="42.477024000" lon="-2.445468000">
        <ele>367.80</ele>
        <time>2016-10-15T05:35:49Z</time>
      </trkpt>
      <trkpt lat="42.477064000" lon="-2.445465000">
        <ele>367.80</ele>
        <time>2016-10-15T05:35:50Z</time>
      </trkpt>
      <trkpt lat="42.477103000" lon="-2.445462000">
        <ele>367.80</ele>
        <time>2016-10-15T05:35:51Z</time>
      </trkpt>
      <trkpt lat="42.477145000" lon="-2.445461000">
        <ele>367.80</ele>
        <time>2016-10-15T05:35:52Z</time>
      </trkpt>
      <trkpt lat="42.477185000" lon="-2.445462000">
        <ele>367.80</ele>
        <time>2016-10-15T05:35:53Z</time>
      </trkpt>
      <trkpt lat="42.477222000" lon="-2.445466000">
        <ele>367.90</ele>
        <time>2016-10-15T05:35:54Z</time>
      </trkpt>
      <trkpt lat="42.477261000" lon="-2.445472000">
        <ele>368.10</ele>
        <time>2016-10-15T05:35:55Z</time>
      </trkpt>
      <trkpt lat="42.477302000" lon="-2.445473000">
        <ele>368.20</ele>
        <time>2016-10-15T05:35:56Z</time>
      </trkpt>
      <trkpt lat="42.477341000" lon="-2.445476000">
        <ele>368.30</ele>
        <time>2016-10-15T05:35:57Z</time>
      </trkpt>
      <trkpt lat="42.477377000" lon="-2.445479000">
        <ele>368.40</ele>
        <time>2016-10-15T05:35:58Z</time>
      </trkpt>
      <trkpt lat="42.477415000" lon="-2.445487000">
        <ele>368.60</ele>
        <time>2016-10-15T05:35:59Z</time>
      </trkpt>
      <trkpt lat="42.477455000" lon="-2.445489000">
        <ele>368.70</ele>
        <time>2016-10-15T05:36:00Z</time>
      </trkpt>
      <trkpt lat="42.477495000" lon="-2.445491000">
        <ele>368.70</ele>
        <time>2016-10-15T05:36:01Z</time>
      </trkpt>
      <trkpt lat="42.477534000" lon="-2.445496000">
        <ele>368.80</ele>
        <time>2016-10-15T05:36:02Z</time>
      </trkpt>
      <trkpt lat="42.477571000" lon="-2.445501000">
        <ele>368.70</ele>
        <time>2016-10-15T05:36:03Z</time>
      </trkpt>
      <trkpt lat="42.477608000" lon="-2.445505000">
        <ele>368.60</ele>
        <time>2016-10-15T05:36:04Z</time>
      </trkpt>
      <trkpt lat="42.477647000" lon="-2.445508000">
        <ele>368.60</ele>
        <time>2016-10-15T05:36:05Z</time>
      </trkpt>
      <trkpt lat="42.477685000" lon="-2.445508000">
        <ele>368.50</ele>
        <time>2016-10-15T05:36:06Z</time>
      </trkpt>
      <trkpt lat="42.477723000" lon="-2.445506000">
        <ele>368.60</ele>
        <time>2016-10-15T05:36:07Z</time>
      </trkpt>
      <trkpt lat="42.477762000" lon="-2.445507000">
        <ele>368.60</ele>
        <time>2016-10-15T05:36:08Z</time>
      </trkpt>
      <trkpt lat="42.477802000" lon="-2.445508000">
        <ele>368.70</ele>
        <time>2016-10-15T05:36:09Z</time>
      </trkpt>
      <trkpt lat="42.477841000" lon="-2.445509000">
        <ele>368.80</ele>
        <time>2016-10-15T05:36:10Z</time>
      </trkpt>
      <trkpt lat="42.477877000" lon="-2.445509000">
        <ele>368.90</ele>
        <time>2016-10-15T05:36:11Z</time>
      </trkpt>
      <trkpt lat="42.477914000" lon="-2.445510000">
        <ele>368.90</ele>
        <time>2016-10-15T05:36:12Z</time>
      </trkpt>
      <trkpt lat="42.477951000" lon="-2.445509000">
        <ele>369.00</ele>
        <time>2016-10-15T05:36:13Z</time>
      </trkpt>
      <trkpt lat="42.477985000" lon="-2.445506000">
        <ele>369.00</ele>
        <time>2016-10-15T05:36:14Z</time>
      </trkpt>
      <trkpt lat="42.478016000" lon="-2.445504000">
        <ele>369.00</ele>
        <time>2016-10-15T05:36:15Z</time>
      </trkpt>
      <trkpt lat="42.478050000" lon="-2.445502000">
        <ele>369.10</ele>
        <time>2016-10-15T05:36:16Z</time>
      </trkpt>
      <trkpt lat="42.478084000" lon="-2.445503000">
        <ele>369.00</ele>
        <time>2016-10-15T05:36:17Z</time>
      </trkpt>
      <trkpt lat="42.478119000" lon="-2.445501000">
        <ele>369.00</ele>
        <time>2016-10-15T05:36:18Z</time>
      </trkpt>
      <trkpt lat="42.478154000" lon="-2.445503000">
        <ele>369.00</ele>
        <time>2016-10-15T05:36:19Z</time>
      </trkpt>
      <trkpt lat="42.478191000" lon="-2.445507000">
        <ele>369.10</ele>
        <time>2016-10-15T05:36:20Z</time>
      </trkpt>
      <trkpt lat="42.478261000" lon="-2.445508000">
        <ele>369.00</ele>
        <time>2016-10-15T05:36:22Z</time>
      </trkpt>
      <trkpt lat="42.478297000" lon="-2.445514000">
        <ele>369.00</ele>
        <time>2016-10-15T05:36:23Z</time>
      </trkpt>
      <trkpt lat="42.478335000" lon="-2.445519000">
        <ele>369.10</ele>
        <time>2016-10-15T05:36:24Z</time>
      </trkpt>
      <trkpt lat="42.478373000" lon="-2.445525000">
        <ele>369.00</ele>
        <time>2016-10-15T05:36:25Z</time>
      </trkpt>
      <trkpt lat="42.478410000" lon="-2.445540000">
        <ele>369.00</ele>
        <time>2016-10-15T05:36:26Z</time>
      </trkpt>
      <trkpt lat="42.478449000" lon="-2.445548000">
        <ele>369.10</ele>
        <time>2016-10-15T05:36:27Z</time>
      </trkpt>
      <trkpt lat="42.478486000" lon="-2.445553000">
        <ele>369.20</ele>
        <time>2016-10-15T05:36:28Z</time>
      </trkpt>
      <trkpt lat="42.478522000" lon="-2.445559000">
        <ele>369.30</ele>
        <time>2016-10-15T05:36:29Z</time>
      </trkpt>
      <trkpt lat="42.478558000" lon="-2.445568000">
        <ele>369.40</ele>
        <time>2016-10-15T05:36:30Z</time>
      </trkpt>
      <trkpt lat="42.478594000" lon="-2.445578000">
        <ele>369.50</ele>
        <time>2016-10-15T05:36:31Z</time>
      </trkpt>
      <trkpt lat="42.478630000" lon="-2.445590000">
        <ele>369.60</ele>
        <time>2016-10-15T05:36:32Z</time>
      </trkpt>
      <trkpt lat="42.478670000" lon="-2.445600000">
        <ele>369.60</ele>
        <time>2016-10-15T05:36:33Z</time>
      </trkpt>
      <trkpt lat="42.478708000" lon="-2.445611000">
        <ele>369.70</ele>
        <time>2016-10-15T05:36:34Z</time>
      </trkpt>
      <trkpt lat="42.478747000" lon="-2.445622000">
        <ele>369.80</ele>
        <time>2016-10-15T05:36:35Z</time>
      </trkpt>
      <trkpt lat="42.478784000" lon="-2.445633000">
        <ele>369.90</ele>
        <time>2016-10-15T05:36:36Z</time>
      </trkpt>
      <trkpt lat="42.478820000" lon="-2.445641000">
        <ele>369.90</ele>
        <time>2016-10-15T05:36:37Z</time>
      </trkpt>
      <trkpt lat="42.478857000" lon="-2.445647000">
        <ele>369.90</ele>
        <time>2016-10-15T05:36:38Z</time>
      </trkpt>
      <trkpt lat="42.478892000" lon="-2.445648000">
        <ele>370.00</ele>
        <time>2016-10-15T05:36:39Z</time>
      </trkpt>
      <trkpt lat="42.478926000" lon="-2.445649000">
        <ele>370.00</ele>
        <time>2016-10-15T05:36:40Z</time>
      </trkpt>
      <trkpt lat="42.478957000" lon="-2.445646000">
        <ele>370.10</ele>
        <time>2016-10-15T05:36:41Z</time>
      </trkpt>
      <trkpt lat="42.478989000" lon="-2.445639000">
        <ele>370.10</ele>
        <time>2016-10-15T05:36:42Z</time>
      </trkpt>
      <trkpt lat="42.479023000" lon="-2.445628000">
        <ele>370.30</ele>
        <time>2016-10-15T05:36:43Z</time>
      </trkpt>
      <trkpt lat="42.479057000" lon="-2.445615000">
        <ele>370.50</ele>
        <time>2016-10-15T05:36:44Z</time>
      </trkpt>
      <trkpt lat="42.479088000" lon="-2.445600000">
        <ele>370.60</ele>
        <time>2016-10-15T05:36:45Z</time>
      </trkpt>
      <trkpt lat="42.479120000" lon="-2.445579000">
        <ele>370.70</ele>
        <time>2016-10-15T05:36:46Z</time>
      </trkpt>
      <trkpt lat="42.479155000" lon="-2.445563000">
        <ele>371.00</ele>
        <time>2016-10-15T05:36:47Z</time>
      </trkpt>
      <trkpt lat="42.479188000" lon="-2.445538000">
        <ele>371.10</ele>
        <time>2016-10-15T05:36:48Z</time>
      </trkpt>
      <trkpt lat="42.479219000" lon="-2.445518000">
        <ele>371.30</ele>
        <time>2016-10-15T05:36:49Z</time>
      </trkpt>
      <trkpt lat="42.479253000" lon="-2.445497000">
        <ele>371.50</ele>
        <time>2016-10-15T05:36:50Z</time>
      </trkpt>
      <trkpt lat="42.479286000" lon="-2.445475000">
        <ele>371.50</ele>
        <time>2016-10-15T05:36:51Z</time>
      </trkpt>
      <trkpt lat="42.479319000" lon="-2.445454000">
        <ele>371.50</ele>
        <time>2016-10-15T05:36:52Z</time>
      </trkpt>
      <trkpt lat="42.479353000" lon="-2.445432000">
        <ele>371.60</ele>
        <time>2016-10-15T05:36:53Z</time>
      </trkpt>
      <trkpt lat="42.479387000" lon="-2.445410000">
        <ele>371.70</ele>
        <time>2016-10-15T05:36:54Z</time>
      </trkpt>
      <trkpt lat="42.479423000" lon="-2.445389000">
        <ele>371.80</ele>
        <time>2016-10-15T05:36:55Z</time>
      </trkpt>
      <trkpt lat="42.479458000" lon="-2.445371000">
        <ele>371.90</ele>
        <time>2016-10-15T05:36:56Z</time>
      </trkpt>
      <trkpt lat="42.479492000" lon="-2.445349000">
        <ele>372.10</ele>
        <time>2016-10-15T05:36:57Z</time>
      </trkpt>
      <trkpt lat="42.479525000" lon="-2.445331000">
        <ele>372.30</ele>
        <time>2016-10-15T05:36:58Z</time>
      </trkpt>
      <trkpt lat="42.479557000" lon="-2.445316000">
        <ele>372.40</ele>
        <time>2016-10-15T05:36:59Z</time>
      </trkpt>
      <trkpt lat="42.479590000" lon="-2.445302000">
        <ele>372.50</ele>
        <time>2016-10-15T05:37:00Z</time>
      </trkpt>
      <trkpt lat="42.479620000" lon="-2.445282000">
        <ele>372.60</ele>
        <time>2016-10-15T05:37:01Z</time>
      </trkpt>
      <trkpt lat="42.479654000" lon="-2.445271000">
        <ele>372.70</ele>
        <time>2016-10-15T05:37:02Z</time>
      </trkpt>
      <trkpt lat="42.479688000" lon="-2.445257000">
        <ele>372.80</ele>
        <time>2016-10-15T05:37:03Z</time>
      </trkpt>
      <trkpt lat="42.479719000" lon="-2.445243000">
        <ele>372.90</ele>
        <time>2016-10-15T05:37:04Z</time>
      </trkpt>
      <trkpt lat="42.479749000" lon="-2.445230000">
        <ele>373.00</ele>
        <time>2016-10-15T05:37:05Z</time>
      </trkpt>
      <trkpt lat="42.479780000" lon="-2.445217000">
        <ele>373.20</ele>
        <time>2016-10-15T05:37:06Z</time>
      </trkpt>
      <trkpt lat="42.479813000" lon="-2.445207000">
        <ele>373.30</ele>
        <time>2016-10-15T05:37:07Z</time>
      </trkpt>
      <trkpt lat="42.479843000" lon="-2.445194000">
        <ele>373.40</ele>
        <time>2016-10-15T05:37:08Z</time>
      </trkpt>
      <trkpt lat="42.479874000" lon="-2.445183000">
        <ele>373.70</ele>
        <time>2016-10-15T05:37:09Z</time>
      </trkpt>
      <trkpt lat="42.479905000" lon="-2.445171000">
        <ele>373.90</ele>
        <time>2016-10-15T05:37:10Z</time>
      </trkpt>
      <trkpt lat="42.479936000" lon="-2.445158000">
        <ele>374.10</ele>
        <time>2016-10-15T05:37:11Z</time>
      </trkpt>
      <trkpt lat="42.479964000" lon="-2.445144000">
        <ele>374.20</ele>
        <time>2016-10-15T05:37:12Z</time>
      </trkpt>
      <trkpt lat="42.479992000" lon="-2.445131000">
        <ele>374.50</ele>
        <time>2016-10-15T05:37:13Z</time>
      </trkpt>
      <trkpt lat="42.480025000" lon="-2.445120000">
        <ele>374.70</ele>
        <time>2016-10-15T05:37:14Z</time>
      </trkpt>
      <trkpt lat="42.480054000" lon="-2.445102000">
        <ele>375.00</ele>
        <time>2016-10-15T05:37:15Z</time>
      </trkpt>
      <trkpt lat="42.480084000" lon="-2.445086000">
        <ele>375.20</ele>
        <time>2016-10-15T05:37:16Z</time>
      </trkpt>
      <trkpt lat="42.480115000" lon="-2.445074000">
        <ele>375.40</ele>
        <time>2016-10-15T05:37:17Z</time>
      </trkpt>
      <trkpt lat="42.480145000" lon="-2.445058000">
        <ele>375.50</ele>
        <time>2016-10-15T05:37:18Z</time>
      </trkpt>
      <trkpt lat="42.480172000" lon="-2.445049000">
        <ele>375.90</ele>
        <time>2016-10-15T05:37:19Z</time>
      </trkpt>
      <trkpt lat="42.480203000" lon="-2.445039000">
        <ele>376.20</ele>
        <time>2016-10-15T05:37:20Z</time>
      </trkpt>
      <trkpt lat="42.480232000" lon="-2.445032000">
        <ele>376.60</ele>
        <time>2016-10-15T05:37:21Z</time>
      </trkpt>
      <trkpt lat="42.480290000" lon="-2.445027000">
        <ele>377.10</ele>
        <time>2016-10-15T05:37:23Z</time>
      </trkpt>
      <trkpt lat="42.480321000" lon="-2.445028000">
        <ele>377.20</ele>
        <time>2016-10-15T05:37:24Z</time>
      </trkpt>
      <trkpt lat="42.480350000" lon="-2.445032000">
        <ele>377.50</ele>
        <time>2016-10-15T05:37:25Z</time>
      </trkpt>
      <trkpt lat="42.480381000" lon="-2.445035000">
        <ele>377.60</ele>
        <time>2016-10-15T05:37:26Z</time>
      </trkpt>
      <trkpt lat="42.480410000" lon="-2.445037000">
        <ele>378.00</ele>
        <time>2016-10-15T05:37:27Z</time>
      </trkpt>
      <trkpt lat="42.480437000" lon="-2.445041000">
        <ele>378.20</ele>
        <time>2016-10-15T05:37:28Z</time>
      </trkpt>
      <trkpt lat="42.480464000" lon="-2.445048000">
        <ele>378.50</ele>
        <time>2016-10-15T05:37:29Z</time>
      </trkpt>
      <trkpt lat="42.480491000" lon="-2.445056000">
        <ele>378.70</ele>
        <time>2016-10-15T05:37:30Z</time>
      </trkpt>
      <trkpt lat="42.480517000" lon="-2.445062000">
        <ele>379.10</ele>
        <time>2016-10-15T05:37:31Z</time>
      </trkpt>
      <trkpt lat="42.480543000" lon="-2.445071000">
        <ele>379.40</ele>
        <time>2016-10-15T05:37:32Z</time>
      </trkpt>
      <trkpt lat="42.480569000" lon="-2.445076000">
        <ele>379.80</ele>
        <time>2016-10-15T05:37:33Z</time>
      </trkpt>
      <trkpt lat="42.480593000" lon="-2.445084000">
        <ele>380.10</ele>
        <time>2016-10-15T05:37:34Z</time>
      </trkpt>
      <trkpt lat="42.480619000" lon="-2.445088000">
        <ele>380.50</ele>
        <time>2016-10-15T05:37:35Z</time>
      </trkpt>
      <trkpt lat="42.480644000" lon="-2.445086000">
        <ele>380.80</ele>
        <time>2016-10-15T05:37:36Z</time>
      </trkpt>
      <trkpt lat="42.480670000" lon="-2.445092000">
        <ele>381.10</ele>
        <time>2016-10-15T05:37:37Z</time>
      </trkpt>
      <trkpt lat="42.480696000" lon="-2.445097000">
        <ele>381.30</ele>
        <time>2016-10-15T05:37:38Z</time>
      </trkpt>
      <trkpt lat="42.480722000" lon="-2.445103000">
        <ele>381.80</ele>
        <time>2016-10-15T05:37:39Z</time>
      </trkpt>
      <trkpt lat="42.480748000" lon="-2.445112000">
        <ele>382.20</ele>
        <time>2016-10-15T05:37:40Z</time>
      </trkpt>
      <trkpt lat="42.480776000" lon="-2.445115000">
        <ele>382.60</ele>
        <time>2016-10-15T05:37:41Z</time>
      </trkpt>
      <trkpt lat="42.480805000" lon="-2.445123000">
        <ele>382.90</ele>
        <time>2016-10-15T05:37:42Z</time>
      </trkpt>
      <trkpt lat="42.480832000" lon="-2.445131000">
        <ele>383.30</ele>
        <time>2016-10-15T05:37:43Z</time>
      </trkpt>
      <trkpt lat="42.480861000" lon="-2.445138000">
        <ele>383.60</ele>
        <time>2016-10-15T05:37:44Z</time>
      </trkpt>
      <trkpt lat="42.480886000" lon="-2.445146000">
        <ele>383.90</ele>
        <time>2016-10-15T05:37:45Z</time>
      </trkpt>
      <trkpt lat="42.480913000" lon="-2.445154000">
        <ele>384.10</ele>
        <time>2016-10-15T05:37:46Z</time>
      </trkpt>
      <trkpt lat="42.480941000" lon="-2.445164000">
        <ele>384.30</ele>
        <time>2016-10-15T05:37:47Z</time>
      </trkpt>
      <trkpt lat="42.480971000" lon="-2.445176000">
        <ele>384.40</ele>
        <time>2016-10-15T05:37:48Z</time>
      </trkpt>
      <trkpt lat="42.480999000" lon="-2.445185000">
        <ele>384.60</ele>
        <time>2016-10-15T05:37:49Z</time>
      </trkpt>
      <trkpt lat="42.481025000" lon="-2.445198000">
        <ele>384.70</ele>
        <time>2016-10-15T05:37:50Z</time>
      </trkpt>
      <trkpt lat="42.481056000" lon="-2.445205000">
        <ele>385.20</ele>
        <time>2016-10-15T05:37:51Z</time>
      </trkpt>
      <trkpt lat="42.481086000" lon="-2.445217000">
        <ele>385.50</ele>
        <time>2016-10-15T05:37:52Z</time>
      </trkpt>
      <trkpt lat="42.481122000" lon="-2.445227000">
        <ele>385.80</ele>
        <time>2016-10-15T05:37:53Z</time>
      </trkpt>
      <trkpt lat="42.481152000" lon="-2.445237000">
        <ele>386.00</ele>
        <time>2016-10-15T05:37:54Z</time>
      </trkpt>
      <trkpt lat="42.481182000" lon="-2.445243000">
        <ele>386.10</ele>
        <time>2016-10-15T05:37:55Z</time>
      </trkpt>
      <trkpt lat="42.481213000" lon="-2.445250000">
        <ele>386.30</ele>
        <time>2016-10-15T05:37:56Z</time>
      </trkpt>
      <trkpt lat="42.481241000" lon="-2.445255000">
        <ele>386.40</ele>
        <time>2016-10-15T05:37:57Z</time>
      </trkpt>
      <trkpt lat="42.481269000" lon="-2.445266000">
        <ele>386.50</ele>
        <time>2016-10-15T05:37:58Z</time>
      </trkpt>
      <trkpt lat="42.481297000" lon="-2.445275000">
        <ele>386.80</ele>
        <time>2016-10-15T05:37:59Z</time>
      </trkpt>
      <trkpt lat="42.481325000" lon="-2.445283000">
        <ele>387.00</ele>
        <time>2016-10-15T05:38:00Z</time>
      </trkpt>
      <trkpt lat="42.481354000" lon="-2.445289000">
        <ele>387.10</ele>
        <time>2016-10-15T05:38:01Z</time>
      </trkpt>
      <trkpt lat="42.481384000" lon="-2.445298000">
        <ele>387.20</ele>
        <time>2016-10-15T05:38:02Z</time>
      </trkpt>
      <trkpt lat="42.481414000" lon="-2.445309000">
        <ele>387.20</ele>
        <time>2016-10-15T05:38:03Z</time>
      </trkpt>
      <trkpt lat="42.481443000" lon="-2.445324000">
        <ele>387.20</ele>
        <time>2016-10-15T05:38:04Z</time>
      </trkpt>
      <trkpt lat="42.481476000" lon="-2.445336000">
        <ele>387.30</ele>
        <time>2016-10-15T05:38:05Z</time>
      </trkpt>
      <trkpt lat="42.481506000" lon="-2.445348000">
        <ele>387.30</ele>
        <time>2016-10-15T05:38:06Z</time>
      </trkpt>
      <trkpt lat="42.481538000" lon="-2.445353000">
        <ele>387.40</ele>
        <time>2016-10-15T05:38:07Z</time>
      </trkpt>
      <trkpt lat="42.481565000" lon="-2.445362000">
        <ele>387.60</ele>
        <time>2016-10-15T05:38:08Z</time>
      </trkpt>
      <trkpt lat="42.481594000" lon="-2.445369000">
        <ele>387.60</ele>
        <time>2016-10-15T05:38:09Z</time>
      </trkpt>
      <trkpt lat="42.481625000" lon="-2.445379000">
        <ele>387.70</ele>
        <time>2016-10-15T05:38:10Z</time>
      </trkpt>
      <trkpt lat="42.481658000" lon="-2.445392000">
        <ele>387.80</ele>
        <time>2016-10-15T05:38:11Z</time>
      </trkpt>
      <trkpt lat="42.481691000" lon="-2.445408000">
        <ele>387.90</ele>
        <time>2016-10-15T05:38:12Z</time>
      </trkpt>
      <trkpt lat="42.481725000" lon="-2.445422000">
        <ele>387.90</ele>
        <time>2016-10-15T05:38:13Z</time>
      </trkpt>
      <trkpt lat="42.481755000" lon="-2.445438000">
        <ele>387.90</ele>
        <time>2016-10-15T05:38:14Z</time>
      </trkpt>
      <trkpt lat="42.481788000" lon="-2.445451000">
        <ele>387.90</ele>
        <time>2016-10-15T05:38:15Z</time>
      </trkpt>
      <trkpt lat="42.481819000" lon="-2.445468000">
        <ele>387.90</ele>
        <time>2016-10-15T05:38:16Z</time>
      </trkpt>
      <trkpt lat="42.481853000" lon="-2.445482000">
        <ele>387.90</ele>
        <time>2016-10-15T05:38:17Z</time>
      </trkpt>
      <trkpt lat="42.481886000" lon="-2.445496000">
        <ele>387.90</ele>
        <time>2016-10-15T05:38:18Z</time>
      </trkpt>
      <trkpt lat="42.481919000" lon="-2.445508000">
        <ele>387.90</ele>
        <time>2016-10-15T05:38:19Z</time>
      </trkpt>
      <trkpt lat="42.481952000" lon="-2.445520000">
        <ele>387.90</ele>
        <time>2016-10-15T05:38:20Z</time>
      </trkpt>
      <trkpt lat="42.481984000" lon="-2.445535000">
        <ele>387.90</ele>
        <time>2016-10-15T05:38:21Z</time>
      </trkpt>
      <trkpt lat="42.482016000" lon="-2.445550000">
        <ele>388.00</ele>
        <time>2016-10-15T05:38:22Z</time>
      </trkpt>
      <trkpt lat="42.482083000" lon="-2.445582000">
        <ele>387.90</ele>
        <time>2016-10-15T05:38:24Z</time>
      </trkpt>
      <trkpt lat="42.482114000" lon="-2.445599000">
        <ele>388.00</ele>
        <time>2016-10-15T05:38:25Z</time>
      </trkpt>
      <trkpt lat="42.482147000" lon="-2.445620000">
        <ele>388.10</ele>
        <time>2016-10-15T05:38:26Z</time>
      </trkpt>
      <trkpt lat="42.482177000" lon="-2.445634000">
        <ele>388.10</ele>
        <time>2016-10-15T05:38:27Z</time>
      </trkpt>
      <trkpt lat="42.482209000" lon="-2.445653000">
        <ele>388.00</ele>
        <time>2016-10-15T05:38:28Z</time>
      </trkpt>
      <trkpt lat="42.482242000" lon="-2.445670000">
        <ele>388.00</ele>
        <time>2016-10-15T05:38:29Z</time>
      </trkpt>
      <trkpt lat="42.482271000" lon="-2.445689000">
        <ele>388.00</ele>
        <time>2016-10-15T05:38:30Z</time>
      </trkpt>
      <trkpt lat="42.482302000" lon="-2.445711000">
        <ele>387.90</ele>
        <time>2016-10-15T05:38:31Z</time>
      </trkpt>
      <trkpt lat="42.482331000" lon="-2.445734000">
        <ele>387.90</ele>
        <time>2016-10-15T05:38:32Z</time>
      </trkpt>
      <trkpt lat="42.482361000" lon="-2.445749000">
        <ele>387.90</ele>
        <time>2016-10-15T05:38:33Z</time>
      </trkpt>
      <trkpt lat="42.482396000" lon="-2.445769000">
        <ele>387.90</ele>
        <time>2016-10-15T05:38:34Z</time>
      </trkpt>
      <trkpt lat="42.482427000" lon="-2.445790000">
        <ele>388.00</ele>
        <time>2016-10-15T05:38:35Z</time>
      </trkpt>
      <trkpt lat="42.482458000" lon="-2.445810000">
        <ele>388.10</ele>
        <time>2016-10-15T05:38:36Z</time>
      </trkpt>
      <trkpt lat="42.482489000" lon="-2.445828000">
        <ele>388.10</ele>
        <time>2016-10-15T05:38:37Z</time>
      </trkpt>
      <trkpt lat="42.482521000" lon="-2.445846000">
        <ele>388.10</ele>
        <time>2016-10-15T05:38:38Z</time>
      </trkpt>
      <trkpt lat="42.482550000" lon="-2.445864000">
        <ele>388.20</ele>
        <time>2016-10-15T05:38:39Z</time>
      </trkpt>
      <trkpt lat="42.482580000" lon="-2.445885000">
        <ele>388.20</ele>
        <time>2016-10-15T05:38:40Z</time>
      </trkpt>
      <trkpt lat="42.482609000" lon="-2.445904000">
        <ele>388.30</ele>
        <time>2016-10-15T05:38:41Z</time>
      </trkpt>
      <trkpt lat="42.482636000" lon="-2.445926000">
        <ele>388.40</ele>
        <time>2016-10-15T05:38:42Z</time>
      </trkpt>
      <trkpt lat="42.482663000" lon="-2.445947000">
        <ele>388.50</ele>
        <time>2016-10-15T05:38:43Z</time>
      </trkpt>
      <trkpt lat="42.482691000" lon="-2.445971000">
        <ele>388.50</ele>
        <time>2016-10-15T05:38:44Z</time>
      </trkpt>
      <trkpt lat="42.482718000" lon="-2.445990000">
        <ele>388.60</ele>
        <time>2016-10-15T05:38:45Z</time>
      </trkpt>
      <trkpt lat="42.482745000" lon="-2.446012000">
        <ele>388.70</ele>
        <time>2016-10-15T05:38:46Z</time>
      </trkpt>
      <trkpt lat="42.482772000" lon="-2.446034000">
        <ele>388.70</ele>
        <time>2016-10-15T05:38:47Z</time>
      </trkpt>
      <trkpt lat="42.482799000" lon="-2.446057000">
        <ele>388.80</ele>
        <time>2016-10-15T05:38:48Z</time>
      </trkpt>
      <trkpt lat="42.482827000" lon="-2.446082000">
        <ele>388.70</ele>
        <time>2016-10-15T05:38:49Z</time>
      </trkpt>
      <trkpt lat="42.482856000" lon="-2.446107000">
        <ele>388.60</ele>
        <time>2016-10-15T05:38:50Z</time>
      </trkpt>
      <trkpt lat="42.482885000" lon="-2.446134000">
        <ele>388.60</ele>
        <time>2016-10-15T05:38:51Z</time>
      </trkpt>
      <trkpt lat="42.482915000" lon="-2.446159000">
        <ele>388.50</ele>
        <time>2016-10-15T05:38:52Z</time>
      </trkpt>
      <trkpt lat="42.482942000" lon="-2.446178000">
        <ele>388.60</ele>
        <time>2016-10-15T05:38:53Z</time>
      </trkpt>
      <trkpt lat="42.482974000" lon="-2.446197000">
        <ele>388.60</ele>
        <time>2016-10-15T05:38:54Z</time>
      </trkpt>
      <trkpt lat="42.483006000" lon="-2.446215000">
        <ele>388.60</ele>
        <time>2016-10-15T05:38:55Z</time>
      </trkpt>
      <trkpt lat="42.483038000" lon="-2.446230000">
        <ele>388.60</ele>
        <time>2016-10-15T05:38:56Z</time>
      </trkpt>
      <trkpt lat="42.483073000" lon="-2.446242000">
        <ele>388.60</ele>
        <time>2016-10-15T05:38:57Z</time>
      </trkpt>
      <trkpt lat="42.483107000" lon="-2.446253000">
        <ele>388.60</ele>
        <time>2016-10-15T05:38:58Z</time>
      </trkpt>
      <trkpt lat="42.483143000" lon="-2.446260000">
        <ele>388.60</ele>
        <time>2016-10-15T05:38:59Z</time>
      </trkpt>
      <trkpt lat="42.483175000" lon="-2.446267000">
        <ele>388.60</ele>
        <time>2016-10-15T05:39:00Z</time>
      </trkpt>
      <trkpt lat="42.483208000" lon="-2.446276000">
        <ele>388.70</ele>
        <time>2016-10-15T05:39:01Z</time>
      </trkpt>
      <trkpt lat="42.483242000" lon="-2.446281000">
        <ele>388.70</ele>
        <time>2016-10-15T05:39:02Z</time>
      </trkpt>
      <trkpt lat="42.483276000" lon="-2.446288000">
        <ele>388.80</ele>
        <time>2016-10-15T05:39:03Z</time>
      </trkpt>
      <trkpt lat="42.483310000" lon="-2.446295000">
        <ele>389.00</ele>
        <time>2016-10-15T05:39:04Z</time>
      </trkpt>
      <trkpt lat="42.483343000" lon="-2.446300000">
        <ele>389.10</ele>
        <time>2016-10-15T05:39:05Z</time>
      </trkpt>
      <trkpt lat="42.483380000" lon="-2.446306000">
        <ele>389.20</ele>
        <time>2016-10-15T05:39:06Z</time>
      </trkpt>
      <trkpt lat="42.483417000" lon="-2.446311000">
        <ele>389.10</ele>
        <time>2016-10-15T05:39:07Z</time>
      </trkpt>
      <trkpt lat="42.483452000" lon="-2.446310000">
        <ele>389.10</ele>
        <time>2016-10-15T05:39:08Z</time>
      </trkpt>
      <trkpt lat="42.483489000" lon="-2.446312000">
        <ele>389.00</ele>
        <time>2016-10-15T05:39:09Z</time>
      </trkpt>
      <trkpt lat="42.483522000" lon="-2.446312000">
        <ele>389.00</ele>
        <time>2016-10-15T05:39:10Z</time>
      </trkpt>
      <trkpt lat="42.483559000" lon="-2.446308000">
        <ele>389.00</ele>
        <time>2016-10-15T05:39:11Z</time>
      </trkpt>
      <trkpt lat="42.483597000" lon="-2.446304000">
        <ele>389.10</ele>
        <time>2016-10-15T05:39:12Z</time>
      </trkpt>
      <trkpt lat="42.483631000" lon="-2.446303000">
        <ele>389.10</ele>
        <time>2016-10-15T05:39:13Z</time>
      </trkpt>
      <trkpt lat="42.483666000" lon="-2.446302000">
        <ele>389.10</ele>
        <time>2016-10-15T05:39:14Z</time>
      </trkpt>
      <trkpt lat="42.483702000" lon="-2.446301000">
        <ele>389.30</ele>
        <time>2016-10-15T05:39:15Z</time>
      </trkpt>
      <trkpt lat="42.483739000" lon="-2.446295000">
        <ele>389.50</ele>
        <time>2016-10-15T05:39:16Z</time>
      </trkpt>
      <trkpt lat="42.483775000" lon="-2.446288000">
        <ele>389.40</ele>
        <time>2016-10-15T05:39:17Z</time>
      </trkpt>
      <trkpt lat="42.483810000" lon="-2.446280000">
        <ele>389.30</ele>
        <time>2016-10-15T05:39:18Z</time>
      </trkpt>
      <trkpt lat="42.483850000" lon="-2.446278000">
        <ele>389.20</ele>
        <time>2016-10-15T05:39:19Z</time>
      </trkpt>
      <trkpt lat="42.483886000" lon="-2.446272000">
        <ele>389.20</ele>
        <time>2016-10-15T05:39:20Z</time>
      </trkpt>
      <trkpt lat="42.483921000" lon="-2.446261000">
        <ele>389.10</ele>
        <time>2016-10-15T05:39:21Z</time>
      </trkpt>
      <trkpt lat="42.483956000" lon="-2.446250000">
        <ele>389.10</ele>
        <time>2016-10-15T05:39:22Z</time>
      </trkpt>
      <trkpt lat="42.483991000" lon="-2.446242000">
        <ele>389.10</ele>
        <time>2016-10-15T05:39:23Z</time>
      </trkpt>
      <trkpt lat="42.484059000" lon="-2.446219000">
        <ele>389.30</ele>
        <time>2016-10-15T05:39:25Z</time>
      </trkpt>
      <trkpt lat="42.484093000" lon="-2.446213000">
        <ele>389.40</ele>
        <time>2016-10-15T05:39:26Z</time>
      </trkpt>
      <trkpt lat="42.484127000" lon="-2.446202000">
        <ele>389.50</ele>
        <time>2016-10-15T05:39:27Z</time>
      </trkpt>
      <trkpt lat="42.484159000" lon="-2.446187000">
        <ele>389.50</ele>
        <time>2016-10-15T05:39:28Z</time>
      </trkpt>
      <trkpt lat="42.484192000" lon="-2.446176000">
        <ele>389.70</ele>
        <time>2016-10-15T05:39:29Z</time>
      </trkpt>
      <trkpt lat="42.484224000" lon="-2.446169000">
        <ele>389.80</ele>
        <time>2016-10-15T05:39:30Z</time>
      </trkpt>
      <trkpt lat="42.484259000" lon="-2.446161000">
        <ele>390.00</ele>
        <time>2016-10-15T05:39:31Z</time>
      </trkpt>
      <trkpt lat="42.484291000" lon="-2.446151000">
        <ele>390.10</ele>
        <time>2016-10-15T05:39:32Z</time>
      </trkpt>
      <trkpt lat="42.484325000" lon="-2.446142000">
        <ele>390.30</ele>
        <time>2016-10-15T05:39:33Z</time>
      </trkpt>
      <trkpt lat="42.484360000" lon="-2.446135000">
        <ele>390.40</ele>
        <time>2016-10-15T05:39:34Z</time>
      </trkpt>
      <trkpt lat="42.484394000" lon="-2.446129000">
        <ele>390.50</ele>
        <time>2016-10-15T05:39:35Z</time>
      </trkpt>
      <trkpt lat="42.484431000" lon="-2.446123000">
        <ele>390.50</ele>
        <time>2016-10-15T05:39:36Z</time>
      </trkpt>
      <trkpt lat="42.484471000" lon="-2.446117000">
        <ele>390.60</ele>
        <time>2016-10-15T05:39:37Z</time>
      </trkpt>
      <trkpt lat="42.484511000" lon="-2.446113000">
        <ele>390.60</ele>
        <time>2016-10-15T05:39:38Z</time>
      </trkpt>
      <trkpt lat="42.484553000" lon="-2.446110000">
        <ele>390.50</ele>
        <time>2016-10-15T05:39:39Z</time>
      </trkpt>
      <trkpt lat="42.484595000" lon="-2.446112000">
        <ele>390.40</ele>
        <time>2016-10-15T05:39:40Z</time>
      </trkpt>
      <trkpt lat="42.484641000" lon="-2.446113000">
        <ele>390.40</ele>
        <time>2016-10-15T05:39:41Z</time>
      </trkpt>
      <trkpt lat="42.484692000" lon="-2.446115000">
        <ele>390.30</ele>
        <time>2016-10-15T05:39:42Z</time>
      </trkpt>
      <trkpt lat="42.484744000" lon="-2.446119000">
        <ele>390.20</ele>
        <time>2016-10-15T05:39:43Z</time>
      </trkpt>
      <trkpt lat="42.484800000" lon="-2.446122000">
        <ele>390.20</ele>
        <time>2016-10-15T05:39:44Z</time>
      </trkpt>
      <trkpt lat="42.484856000" lon="-2.446123000">
        <ele>390.10</ele>
        <time>2016-10-15T05:39:45Z</time>
      </trkpt>
      <trkpt lat="42.484913000" lon="-2.446123000">
        <ele>390.10</ele>
        <time>2016-10-15T05:39:46Z</time>
      </trkpt>
      <trkpt lat="42.484970000" lon="-2.446124000">
        <ele>390.10</ele>
        <time>2016-10-15T05:39:47Z</time>
      </trkpt>
      <trkpt lat="42.485027000" lon="-2.446120000">
        <ele>390.00</ele>
        <time>2016-10-15T05:39:48Z</time>
      </trkpt>
      <trkpt lat="42.485086000" lon="-2.446115000">
        <ele>389.90</ele>
        <time>2016-10-15T05:39:49Z</time>
      </trkpt>
      <trkpt lat="42.485145000" lon="-2.446105000">
        <ele>389.90</ele>
        <time>2016-10-15T05:39:50Z</time>
      </trkpt>
      <trkpt lat="42.485202000" lon="-2.446094000">
        <ele>389.50</ele>
        <time>2016-10-15T05:39:51Z</time>
      </trkpt>
      <trkpt lat="42.485257000" lon="-2.446080000">
        <ele>389.30</ele>
        <time>2016-10-15T05:39:52Z</time>
      </trkpt>
      <trkpt lat="42.485312000" lon="-2.446062000">
        <ele>389.10</ele>
        <time>2016-10-15T05:39:53Z</time>
      </trkpt>
      <trkpt lat="42.485365000" lon="-2.446045000">
        <ele>388.90</ele>
        <time>2016-10-15T05:39:54Z</time>
      </trkpt>
      <trkpt lat="42.485416000" lon="-2.446027000">
        <ele>388.80</ele>
        <time>2016-10-15T05:39:55Z</time>
      </trkpt>
      <trkpt lat="42.485466000" lon="-2.446010000">
        <ele>388.70</ele>
        <time>2016-10-15T05:39:56Z</time>
      </trkpt>
      <trkpt lat="42.485515000" lon="-2.445992000">
        <ele>388.70</ele>
        <time>2016-10-15T05:39:57Z</time>
      </trkpt>
      <trkpt lat="42.485564000" lon="-2.445977000">
        <ele>388.70</ele>
        <time>2016-10-15T05:39:58Z</time>
      </trkpt>
      <trkpt lat="42.485612000" lon="-2.445963000">
        <ele>388.70</ele>
        <time>2016-10-15T05:39:59Z</time>
      </trkpt>
      <trkpt lat="42.485656000" lon="-2.445947000">
        <ele>388.60</ele>
        <time>2016-10-15T05:40:00Z</time>
      </trkpt>
      <trkpt lat="42.485702000" lon="-2.445929000">
        <ele>388.60</ele>
        <time>2016-10-15T05:40:01Z</time>
      </trkpt>
      <trkpt lat="42.485746000" lon="-2.445911000">
        <ele>388.60</ele>
        <time>2016-10-15T05:40:02Z</time>
      </trkpt>
      <trkpt lat="42.485790000" lon="-2.445889000">
        <ele>388.50</ele>
        <time>2016-10-15T05:40:03Z</time>
      </trkpt>
      <trkpt lat="42.485831000" lon="-2.445864000">
        <ele>388.50</ele>
        <time>2016-10-15T05:40:04Z</time>
      </trkpt>
      <trkpt lat="42.485874000" lon="-2.445837000">
        <ele>388.50</ele>
        <time>2016-10-15T05:40:05Z</time>
      </trkpt>
      <trkpt lat="42.485918000" lon="-2.445808000">
        <ele>388.40</ele>
        <time>2016-10-15T05:40:06Z</time>
      </trkpt>
      <trkpt lat="42.485959000" lon="-2.445781000">
        <ele>388.30</ele>
        <time>2016-10-15T05:40:07Z</time>
      </trkpt>
      <trkpt lat="42.485999000" lon="-2.445754000">
        <ele>388.20</ele>
        <time>2016-10-15T05:40:08Z</time>
      </trkpt>
      <trkpt lat="42.486037000" lon="-2.445727000">
        <ele>388.10</ele>
        <time>2016-10-15T05:40:09Z</time>
      </trkpt>
      <trkpt lat="42.486073000" lon="-2.445696000">
        <ele>388.00</ele>
        <time>2016-10-15T05:40:10Z</time>
      </trkpt>
      <trkpt lat="42.486108000" lon="-2.445667000">
        <ele>387.90</ele>
        <time>2016-10-15T05:40:11Z</time>
      </trkpt>
      <trkpt lat="42.486146000" lon="-2.445639000">
        <ele>387.90</ele>
        <time>2016-10-15T05:40:12Z</time>
      </trkpt>
      <trkpt lat="42.486184000" lon="-2.445614000">
        <ele>387.90</ele>
        <time>2016-10-15T05:40:13Z</time>
      </trkpt>
      <trkpt lat="42.486222000" lon="-2.445589000">
        <ele>387.90</ele>
        <time>2016-10-15T05:40:14Z</time>
      </trkpt>
      <trkpt lat="42.486261000" lon="-2.445566000">
        <ele>387.90</ele>
        <time>2016-10-15T05:40:15Z</time>
      </trkpt>
      <trkpt lat="42.486300000" lon="-2.445547000">
        <ele>387.90</ele>
        <time>2016-10-15T05:40:16Z</time>
      </trkpt>
      <trkpt lat="42.486339000" lon="-2.445527000">
        <ele>388.30</ele>
        <time>2016-10-15T05:40:17Z</time>
      </trkpt>
      <trkpt lat="42.486379000" lon="-2.445512000">
        <ele>388.60</ele>
        <time>2016-10-15T05:40:18Z</time>
      </trkpt>
      <trkpt lat="42.486420000" lon="-2.445498000">
        <ele>388.90</ele>
        <time>2016-10-15T05:40:19Z</time>
      </trkpt>
      <trkpt lat="42.486460000" lon="-2.445487000">
        <ele>389.00</ele>
        <time>2016-10-15T05:40:20Z</time>
      </trkpt>
      <trkpt lat="42.486500000" lon="-2.445473000">
        <ele>389.10</ele>
        <time>2016-10-15T05:40:21Z</time>
      </trkpt>
      <trkpt lat="42.486542000" lon="-2.445459000">
        <ele>389.20</ele>
        <time>2016-10-15T05:40:22Z</time>
      </trkpt>
      <trkpt lat="42.486583000" lon="-2.445449000">
        <ele>389.20</ele>
        <time>2016-10-15T05:40:23Z</time>
      </trkpt>
      <trkpt lat="42.486624000" lon="-2.445438000">
        <ele>389.10</ele>
        <time>2016-10-15T05:40:24Z</time>
      </trkpt>
      <trkpt lat="42.486707000" lon="-2.445420000">
        <ele>389.00</ele>
        <time>2016-10-15T05:40:26Z</time>
      </trkpt>
      <trkpt lat="42.486747000" lon="-2.445411000">
        <ele>388.90</ele>
        <time>2016-10-15T05:40:27Z</time>
      </trkpt>
      <trkpt lat="42.486784000" lon="-2.445406000">
        <ele>388.90</ele>
        <time>2016-10-15T05:40:28Z</time>
      </trkpt>
      <trkpt lat="42.486825000" lon="-2.445397000">
        <ele>389.00</ele>
        <time>2016-10-15T05:40:29Z</time>
      </trkpt>
      <trkpt lat="42.486863000" lon="-2.445389000">
        <ele>389.20</ele>
        <time>2016-10-15T05:40:30Z</time>
      </trkpt>
      <trkpt lat="42.486903000" lon="-2.445382000">
        <ele>389.20</ele>
        <time>2016-10-15T05:40:31Z</time>
      </trkpt>
      <trkpt lat="42.486942000" lon="-2.445380000">
        <ele>389.30</ele>
        <time>2016-10-15T05:40:32Z</time>
      </trkpt>
      <trkpt lat="42.486979000" lon="-2.445372000">
        <ele>389.40</ele>
        <time>2016-10-15T05:40:33Z</time>
      </trkpt>
      <trkpt lat="42.487014000" lon="-2.445365000">
        <ele>389.50</ele>
        <time>2016-10-15T05:40:34Z</time>
      </trkpt>
      <trkpt lat="42.487050000" lon="-2.445357000">
        <ele>389.50</ele>
        <time>2016-10-15T05:40:35Z</time>
      </trkpt>
      <trkpt lat="42.487084000" lon="-2.445350000">
        <ele>389.60</ele>
        <time>2016-10-15T05:40:36Z</time>
      </trkpt>
      <trkpt lat="42.487118000" lon="-2.445338000">
        <ele>389.70</ele>
        <time>2016-10-15T05:40:37Z</time>
      </trkpt>
      <trkpt lat="42.487150000" lon="-2.445325000">
        <ele>389.80</ele>
        <time>2016-10-15T05:40:38Z</time>
      </trkpt>
      <trkpt lat="42.487180000" lon="-2.445311000">
        <ele>389.80</ele>
        <time>2016-10-15T05:40:39Z</time>
      </trkpt>
      <trkpt lat="42.487212000" lon="-2.445296000">
        <ele>390.00</ele>
        <time>2016-10-15T05:40:40Z</time>
      </trkpt>
      <trkpt lat="42.487243000" lon="-2.445282000">
        <ele>390.10</ele>
        <time>2016-10-15T05:40:41Z</time>
      </trkpt>
      <trkpt lat="42.487274000" lon="-2.445270000">
        <ele>390.30</ele>
        <time>2016-10-15T05:40:42Z</time>
      </trkpt>
      <trkpt lat="42.487307000" lon="-2.445253000">
        <ele>390.50</ele>
        <time>2016-10-15T05:40:43Z</time>
      </trkpt>
      <trkpt lat="42.487335000" lon="-2.445236000">
        <ele>390.70</ele>
        <time>2016-10-15T05:40:44Z</time>
      </trkpt>
      <trkpt lat="42.487366000" lon="-2.445219000">
        <ele>390.80</ele>
        <time>2016-10-15T05:40:45Z</time>
      </trkpt>
      <trkpt lat="42.487390000" lon="-2.445205000">
        <ele>390.90</ele>
        <time>2016-10-15T05:40:46Z</time>
      </trkpt>
      <trkpt lat="42.487416000" lon="-2.445193000">
        <ele>390.90</ele>
        <time>2016-10-15T05:40:47Z</time>
      </trkpt>
      <trkpt lat="42.487445000" lon="-2.445178000">
        <ele>391.00</ele>
        <time>2016-10-15T05:40:48Z</time>
      </trkpt>
      <trkpt lat="42.487472000" lon="-2.445163000">
        <ele>391.10</ele>
        <time>2016-10-15T05:40:49Z</time>
      </trkpt>
      <trkpt lat="42.487499000" lon="-2.445144000">
        <ele>391.30</ele>
        <time>2016-10-15T05:40:50Z</time>
      </trkpt>
      <trkpt lat="42.487530000" lon="-2.445125000">
        <ele>391.50</ele>
        <time>2016-10-15T05:40:51Z</time>
      </trkpt>
      <trkpt lat="42.487558000" lon="-2.445107000">
        <ele>391.70</ele>
        <time>2016-10-15T05:40:52Z</time>
      </trkpt>
      <trkpt lat="42.487587000" lon="-2.445092000">
        <ele>391.80</ele>
        <time>2016-10-15T05:40:53Z</time>
      </trkpt>
      <trkpt lat="42.487617000" lon="-2.445077000">
        <ele>392.00</ele>
        <time>2016-10-15T05:40:54Z</time>
      </trkpt>
      <trkpt lat="42.487646000" lon="-2.445062000">
        <ele>392.20</ele>
        <time>2016-10-15T05:40:55Z</time>
      </trkpt>
      <trkpt lat="42.487672000" lon="-2.445043000">
        <ele>392.50</ele>
        <time>2016-10-15T05:40:56Z</time>
      </trkpt>
      <trkpt lat="42.487699000" lon="-2.445021000">
        <ele>392.70</ele>
        <time>2016-10-15T05:40:57Z</time>
      </trkpt>
      <trkpt lat="42.487725000" lon="-2.444998000">
        <ele>392.90</ele>
        <time>2016-10-15T05:40:58Z</time>
      </trkpt>
      <trkpt lat="42.487750000" lon="-2.444976000">
        <ele>393.10</ele>
        <time>2016-10-15T05:40:59Z</time>
      </trkpt>
      <trkpt lat="42.487776000" lon="-2.444952000">
        <ele>393.20</ele>
        <time>2016-10-15T05:41:00Z</time>
      </trkpt>
      <trkpt lat="42.487802000" lon="-2.444930000">
        <ele>393.30</ele>
        <time>2016-10-15T05:41:01Z</time>
      </trkpt>
      <trkpt lat="42.487827000" lon="-2.444910000">
        <ele>393.50</ele>
        <time>2016-10-15T05:41:02Z</time>
      </trkpt>
      <trkpt lat="42.487854000" lon="-2.444889000">
        <ele>393.60</ele>
        <time>2016-10-15T05:41:03Z</time>
      </trkpt>
      <trkpt lat="42.487882000" lon="-2.444868000">
        <ele>393.70</ele>
        <time>2016-10-15T05:41:04Z</time>
      </trkpt>
      <trkpt lat="42.487909000" lon="-2.444845000">
        <ele>393.80</ele>
        <time>2016-10-15T05:41:05Z</time>
      </trkpt>
      <trkpt lat="42.487939000" lon="-2.444817000">
        <ele>393.90</ele>
        <time>2016-10-15T05:41:06Z</time>
      </trkpt>
      <trkpt lat="42.487963000" lon="-2.444795000">
        <ele>394.00</ele>
        <time>2016-10-15T05:41:07Z</time>
      </trkpt>
      <trkpt lat="42.487986000" lon="-2.444778000">
        <ele>394.20</ele>
        <time>2016-10-15T05:41:08Z</time>
      </trkpt>
      <trkpt lat="42.488010000" lon="-2.444754000">
        <ele>394.30</ele>
        <time>2016-10-15T05:41:09Z</time>
      </trkpt>
      <trkpt lat="42.488035000" lon="-2.444732000">
        <ele>394.40</ele>
        <time>2016-10-15T05:41:10Z</time>
      </trkpt>
      <trkpt lat="42.488056000" lon="-2.444707000">
        <ele>394.50</ele>
        <time>2016-10-15T05:41:11Z</time>
      </trkpt>
      <trkpt lat="42.488083000" lon="-2.444682000">
        <ele>394.50</ele>
        <time>2016-10-15T05:41:12Z</time>
      </trkpt>
      <trkpt lat="42.488112000" lon="-2.444655000">
        <ele>394.60</ele>
        <time>2016-10-15T05:41:13Z</time>
      </trkpt>
      <trkpt lat="42.488139000" lon="-2.444628000">
        <ele>394.60</ele>
        <time>2016-10-15T05:41:14Z</time>
      </trkpt>
      <trkpt lat="42.488168000" lon="-2.444598000">
        <ele>394.60</ele>
        <time>2016-10-15T05:41:15Z</time>
      </trkpt>
      <trkpt lat="42.488197000" lon="-2.444573000">
        <ele>394.60</ele>
        <time>2016-10-15T05:41:16Z</time>
      </trkpt>
      <trkpt lat="42.488221000" lon="-2.444541000">
        <ele>394.60</ele>
        <time>2016-10-15T05:41:17Z</time>
      </trkpt>
      <trkpt lat="42.488244000" lon="-2.444514000">
        <ele>394.60</ele>
        <time>2016-10-15T05:41:18Z</time>
      </trkpt>
      <trkpt lat="42.488268000" lon="-2.444485000">
        <ele>394.60</ele>
        <time>2016-10-15T05:41:19Z</time>
      </trkpt>
      <trkpt lat="42.488290000" lon="-2.444453000">
        <ele>394.70</ele>
        <time>2016-10-15T05:41:20Z</time>
      </trkpt>
      <trkpt lat="42.488315000" lon="-2.444423000">
        <ele>394.70</ele>
        <time>2016-10-15T05:41:21Z</time>
      </trkpt>
      <trkpt lat="42.488341000" lon="-2.444392000">
        <ele>394.70</ele>
        <time>2016-10-15T05:41:22Z</time>
      </trkpt>
      <trkpt lat="42.488367000" lon="-2.444360000">
        <ele>394.80</ele>
        <time>2016-10-15T05:41:23Z</time>
      </trkpt>
      <trkpt lat="42.488393000" lon="-2.444331000">
        <ele>394.90</ele>
        <time>2016-10-15T05:41:24Z</time>
      </trkpt>
      <trkpt lat="42.488417000" lon="-2.444300000">
        <ele>395.00</ele>
        <time>2016-10-15T05:41:25Z</time>
      </trkpt>
      <trkpt lat="42.488467000" lon="-2.444239000">
        <ele>395.10</ele>
        <time>2016-10-15T05:41:27Z</time>
      </trkpt>
      <trkpt lat="42.488492000" lon="-2.444211000">
        <ele>395.10</ele>
        <time>2016-10-15T05:41:28Z</time>
      </trkpt>
      <trkpt lat="42.488517000" lon="-2.444183000">
        <ele>395.20</ele>
        <time>2016-10-15T05:41:29Z</time>
      </trkpt>
      <trkpt lat="42.488540000" lon="-2.444152000">
        <ele>395.10</ele>
        <time>2016-10-15T05:41:30Z</time>
      </trkpt>
      <trkpt lat="42.488565000" lon="-2.444119000">
        <ele>395.10</ele>
        <time>2016-10-15T05:41:31Z</time>
      </trkpt>
      <trkpt lat="42.488587000" lon="-2.444084000">
        <ele>395.00</ele>
        <time>2016-10-15T05:41:32Z</time>
      </trkpt>
      <trkpt lat="42.488608000" lon="-2.444053000">
        <ele>395.00</ele>
        <time>2016-10-15T05:41:33Z</time>
      </trkpt>
      <trkpt lat="42.488631000" lon="-2.444020000">
        <ele>395.00</ele>
        <time>2016-10-15T05:41:34Z</time>
      </trkpt>
      <trkpt lat="42.488656000" lon="-2.443985000">
        <ele>395.00</ele>
        <time>2016-10-15T05:41:35Z</time>
      </trkpt>
      <trkpt lat="42.488678000" lon="-2.443951000">
        <ele>395.10</ele>
        <time>2016-10-15T05:41:36Z</time>
      </trkpt>
      <trkpt lat="42.488700000" lon="-2.443916000">
        <ele>395.20</ele>
        <time>2016-10-15T05:41:37Z</time>
      </trkpt>
      <trkpt lat="42.488725000" lon="-2.443882000">
        <ele>395.20</ele>
        <time>2016-10-15T05:41:38Z</time>
      </trkpt>
      <trkpt lat="42.488751000" lon="-2.443849000">
        <ele>395.30</ele>
        <time>2016-10-15T05:41:39Z</time>
      </trkpt>
      <trkpt lat="42.488775000" lon="-2.443813000">
        <ele>395.30</ele>
        <time>2016-10-15T05:41:40Z</time>
      </trkpt>
      <trkpt lat="42.488800000" lon="-2.443779000">
        <ele>395.30</ele>
        <time>2016-10-15T05:41:41Z</time>
      </trkpt>
      <trkpt lat="42.488818000" lon="-2.443746000">
        <ele>395.40</ele>
        <time>2016-10-15T05:41:42Z</time>
      </trkpt>
      <trkpt lat="42.488839000" lon="-2.443712000">
        <ele>395.40</ele>
        <time>2016-10-15T05:41:43Z</time>
      </trkpt>
      <trkpt lat="42.488863000" lon="-2.443679000">
        <ele>395.40</ele>
        <time>2016-10-15T05:41:44Z</time>
      </trkpt>
      <trkpt lat="42.488883000" lon="-2.443646000">
        <ele>395.50</ele>
        <time>2016-10-15T05:41:45Z</time>
      </trkpt>
      <trkpt lat="42.488906000" lon="-2.443614000">
        <ele>395.50</ele>
        <time>2016-10-15T05:41:46Z</time>
      </trkpt>
      <trkpt lat="42.488926000" lon="-2.443581000">
        <ele>395.60</ele>
        <time>2016-10-15T05:41:47Z</time>
      </trkpt>
      <trkpt lat="42.488949000" lon="-2.443548000">
        <ele>395.70</ele>
        <time>2016-10-15T05:41:48Z</time>
      </trkpt>
      <trkpt lat="42.488972000" lon="-2.443512000">
        <ele>395.70</ele>
        <time>2016-10-15T05:41:49Z</time>
      </trkpt>
      <trkpt lat="42.488993000" lon="-2.443480000">
        <ele>395.80</ele>
        <time>2016-10-15T05:41:50Z</time>
      </trkpt>
      <trkpt lat="42.489016000" lon="-2.443442000">
        <ele>395.80</ele>
        <time>2016-10-15T05:41:51Z</time>
      </trkpt>
      <trkpt lat="42.489040000" lon="-2.443408000">
        <ele>395.80</ele>
        <time>2016-10-15T05:41:52Z</time>
      </trkpt>
      <trkpt lat="42.489066000" lon="-2.443371000">
        <ele>395.90</ele>
        <time>2016-10-15T05:41:53Z</time>
      </trkpt>
      <trkpt lat="42.489090000" lon="-2.443338000">
        <ele>395.90</ele>
        <time>2016-10-15T05:41:54Z</time>
      </trkpt>
      <trkpt lat="42.489112000" lon="-2.443305000">
        <ele>395.90</ele>
        <time>2016-10-15T05:41:55Z</time>
      </trkpt>
      <trkpt lat="42.489137000" lon="-2.443272000">
        <ele>396.10</ele>
        <time>2016-10-15T05:41:56Z</time>
      </trkpt>
      <trkpt lat="42.489162000" lon="-2.443239000">
        <ele>396.20</ele>
        <time>2016-10-15T05:41:57Z</time>
      </trkpt>
      <trkpt lat="42.489187000" lon="-2.443208000">
        <ele>396.30</ele>
        <time>2016-10-15T05:41:58Z</time>
      </trkpt>
      <trkpt lat="42.489211000" lon="-2.443176000">
        <ele>396.30</ele>
        <time>2016-10-15T05:41:59Z</time>
      </trkpt>
      <trkpt lat="42.489234000" lon="-2.443145000">
        <ele>396.40</ele>
        <time>2016-10-15T05:42:00Z</time>
      </trkpt>
      <trkpt lat="42.489258000" lon="-2.443113000">
        <ele>396.40</ele>
        <time>2016-10-15T05:42:01Z</time>
      </trkpt>
      <trkpt lat="42.489285000" lon="-2.443082000">
        <ele>396.50</ele>
        <time>2016-10-15T05:42:02Z</time>
      </trkpt>
      <trkpt lat="42.489311000" lon="-2.443053000">
        <ele>396.50</ele>
        <time>2016-10-15T05:42:03Z</time>
      </trkpt>
      <trkpt lat="42.489339000" lon="-2.443023000">
        <ele>396.60</ele>
        <time>2016-10-15T05:42:04Z</time>
      </trkpt>
      <trkpt lat="42.489367000" lon="-2.442991000">
        <ele>396.60</ele>
        <time>2016-10-15T05:42:05Z</time>
      </trkpt>
      <trkpt lat="42.489393000" lon="-2.442959000">
        <ele>396.70</ele>
        <time>2016-10-15T05:42:06Z</time>
      </trkpt>
      <trkpt lat="42.489419000" lon="-2.442927000">
        <ele>396.70</ele>
        <time>2016-10-15T05:42:07Z</time>
      </trkpt>
      <trkpt lat="42.489446000" lon="-2.442896000">
        <ele>396.70</ele>
        <time>2016-10-15T05:42:08Z</time>
      </trkpt>
      <trkpt lat="42.489469000" lon="-2.442861000">
        <ele>396.70</ele>
        <time>2016-10-15T05:42:09Z</time>
      </trkpt>
      <trkpt lat="42.489494000" lon="-2.442824000">
        <ele>396.80</ele>
        <time>2016-10-15T05:42:10Z</time>
      </trkpt>
      <trkpt lat="42.489519000" lon="-2.442786000">
        <ele>396.80</ele>
        <time>2016-10-15T05:42:11Z</time>
      </trkpt>
      <trkpt lat="42.489541000" lon="-2.442749000">
        <ele>396.80</ele>
        <time>2016-10-15T05:42:12Z</time>
      </trkpt>
      <trkpt lat="42.489567000" lon="-2.442711000">
        <ele>396.80</ele>
        <time>2016-10-15T05:42:13Z</time>
      </trkpt>
      <trkpt lat="42.489590000" lon="-2.442672000">
        <ele>396.80</ele>
        <time>2016-10-15T05:42:14Z</time>
      </trkpt>
      <trkpt lat="42.489609000" lon="-2.442632000">
        <ele>396.80</ele>
        <time>2016-10-15T05:42:15Z</time>
      </trkpt>
      <trkpt lat="42.489630000" lon="-2.442592000">
        <ele>396.90</ele>
        <time>2016-10-15T05:42:16Z</time>
      </trkpt>
      <trkpt lat="42.489651000" lon="-2.442553000">
        <ele>396.90</ele>
        <time>2016-10-15T05:42:17Z</time>
      </trkpt>
      <trkpt lat="42.489672000" lon="-2.442516000">
        <ele>396.90</ele>
        <time>2016-10-15T05:42:18Z</time>
      </trkpt>
      <trkpt lat="42.489696000" lon="-2.442483000">
        <ele>397.00</ele>
        <time>2016-10-15T05:42:19Z</time>
      </trkpt>
      <trkpt lat="42.489718000" lon="-2.442453000">
        <ele>397.00</ele>
        <time>2016-10-15T05:42:20Z</time>
      </trkpt>
      <trkpt lat="42.489740000" lon="-2.442419000">
        <ele>397.00</ele>
        <time>2016-10-15T05:42:21Z</time>
      </trkpt>
      <trkpt lat="42.489765000" lon="-2.442387000">
        <ele>397.00</ele>
        <time>2016-10-15T05:42:22Z</time>
      </trkpt>
      <trkpt lat="42.489791000" lon="-2.442353000">
        <ele>397.00</ele>
        <time>2016-10-15T05:42:23Z</time>
      </trkpt>
      <trkpt lat="42.489817000" lon="-2.442325000">
        <ele>397.10</ele>
        <time>2016-10-15T05:42:24Z</time>
      </trkpt>
      <trkpt lat="42.489843000" lon="-2.442300000">
        <ele>397.20</ele>
        <time>2016-10-15T05:42:25Z</time>
      </trkpt>
      <trkpt lat="42.489868000" lon="-2.442277000">
        <ele>397.30</ele>
        <time>2016-10-15T05:42:26Z</time>
      </trkpt>
      <trkpt lat="42.489927000" lon="-2.442235000">
        <ele>397.40</ele>
        <time>2016-10-15T05:42:28Z</time>
      </trkpt>
      <trkpt lat="42.489958000" lon="-2.442220000">
        <ele>397.40</ele>
        <time>2016-10-15T05:42:29Z</time>
      </trkpt>
      <trkpt lat="42.489990000" lon="-2.442207000">
        <ele>397.40</ele>
        <time>2016-10-15T05:42:30Z</time>
      </trkpt>
      <trkpt lat="42.490024000" lon="-2.442196000">
        <ele>397.40</ele>
        <time>2016-10-15T05:42:31Z</time>
      </trkpt>
      <trkpt lat="42.490054000" lon="-2.442184000">
        <ele>397.50</ele>
        <time>2016-10-15T05:42:32Z</time>
      </trkpt>
      <trkpt lat="42.490086000" lon="-2.442173000">
        <ele>397.60</ele>
        <time>2016-10-15T05:42:33Z</time>
      </trkpt>
      <trkpt lat="42.490120000" lon="-2.442162000">
        <ele>397.60</ele>
        <time>2016-10-15T05:42:34Z</time>
      </trkpt>
      <trkpt lat="42.490155000" lon="-2.442153000">
        <ele>397.70</ele>
        <time>2016-10-15T05:42:35Z</time>
      </trkpt>
      <trkpt lat="42.490188000" lon="-2.442144000">
        <ele>397.60</ele>
        <time>2016-10-15T05:42:36Z</time>
      </trkpt>
      <trkpt lat="42.490224000" lon="-2.442134000">
        <ele>397.60</ele>
        <time>2016-10-15T05:42:37Z</time>
      </trkpt>
      <trkpt lat="42.490259000" lon="-2.442126000">
        <ele>397.60</ele>
        <time>2016-10-15T05:42:38Z</time>
      </trkpt>
      <trkpt lat="42.490291000" lon="-2.442118000">
        <ele>397.50</ele>
        <time>2016-10-15T05:42:39Z</time>
      </trkpt>
      <trkpt lat="42.490327000" lon="-2.442109000">
        <ele>397.50</ele>
        <time>2016-10-15T05:42:40Z</time>
      </trkpt>
      <trkpt lat="42.490365000" lon="-2.442096000">
        <ele>397.40</ele>
        <time>2016-10-15T05:42:41Z</time>
      </trkpt>
      <trkpt lat="42.490404000" lon="-2.442088000">
        <ele>397.50</ele>
        <time>2016-10-15T05:42:42Z</time>
      </trkpt>
      <trkpt lat="42.490446000" lon="-2.442077000">
        <ele>397.60</ele>
        <time>2016-10-15T05:42:43Z</time>
      </trkpt>
      <trkpt lat="42.490484000" lon="-2.442069000">
        <ele>397.60</ele>
        <time>2016-10-15T05:42:44Z</time>
      </trkpt>
      <trkpt lat="42.490524000" lon="-2.442062000">
        <ele>397.60</ele>
        <time>2016-10-15T05:42:45Z</time>
      </trkpt>
      <trkpt lat="42.490562000" lon="-2.442056000">
        <ele>397.70</ele>
        <time>2016-10-15T05:42:46Z</time>
      </trkpt>
      <trkpt lat="42.490599000" lon="-2.442053000">
        <ele>397.70</ele>
        <time>2016-10-15T05:42:47Z</time>
      </trkpt>
      <trkpt lat="42.490636000" lon="-2.442048000">
        <ele>397.60</ele>
        <time>2016-10-15T05:42:48Z</time>
      </trkpt>
      <trkpt lat="42.490673000" lon="-2.442042000">
        <ele>397.60</ele>
        <time>2016-10-15T05:42:49Z</time>
      </trkpt>
      <trkpt lat="42.490712000" lon="-2.442036000">
        <ele>397.50</ele>
        <time>2016-10-15T05:42:50Z</time>
      </trkpt>
      <trkpt lat="42.490750000" lon="-2.442029000">
        <ele>397.40</ele>
        <time>2016-10-15T05:42:51Z</time>
      </trkpt>
      <trkpt lat="42.490786000" lon="-2.442025000">
        <ele>397.40</ele>
        <time>2016-10-15T05:42:52Z</time>
      </trkpt>
      <trkpt lat="42.490822000" lon="-2.442020000">
        <ele>397.30</ele>
        <time>2016-10-15T05:42:53Z</time>
      </trkpt>
      <trkpt lat="42.490862000" lon="-2.442013000">
        <ele>397.30</ele>
        <time>2016-10-15T05:42:54Z</time>
      </trkpt>
      <trkpt lat="42.490899000" lon="-2.442010000">
        <ele>397.30</ele>
        <time>2016-10-15T05:42:55Z</time>
      </trkpt>
      <trkpt lat="42.490936000" lon="-2.442011000">
        <ele>397.30</ele>
        <time>2016-10-15T05:42:56Z</time>
      </trkpt>
      <trkpt lat="42.490976000" lon="-2.442009000">
        <ele>397.40</ele>
        <time>2016-10-15T05:42:57Z</time>
      </trkpt>
      <trkpt lat="42.491013000" lon="-2.442007000">
        <ele>397.40</ele>
        <time>2016-10-15T05:42:58Z</time>
      </trkpt>
      <trkpt lat="42.491051000" lon="-2.442003000">
        <ele>397.40</ele>
        <time>2016-10-15T05:42:59Z</time>
      </trkpt>
      <trkpt lat="42.491090000" lon="-2.442003000">
        <ele>397.30</ele>
        <time>2016-10-15T05:43:00Z</time>
      </trkpt>
      <trkpt lat="42.491126000" lon="-2.441997000">
        <ele>397.20</ele>
        <time>2016-10-15T05:43:01Z</time>
      </trkpt>
      <trkpt lat="42.491164000" lon="-2.441991000">
        <ele>397.10</ele>
        <time>2016-10-15T05:43:02Z</time>
      </trkpt>
      <trkpt lat="42.491202000" lon="-2.441989000">
        <ele>397.00</ele>
        <time>2016-10-15T05:43:03Z</time>
      </trkpt>
      <trkpt lat="42.491241000" lon="-2.441979000">
        <ele>396.90</ele>
        <time>2016-10-15T05:43:04Z</time>
      </trkpt>
      <trkpt lat="42.491280000" lon="-2.441968000">
        <ele>396.90</ele>
        <time>2016-10-15T05:43:05Z</time>
      </trkpt>
      <trkpt lat="42.491319000" lon="-2.441960000">
        <ele>396.90</ele>
        <time>2016-10-15T05:43:06Z</time>
      </trkpt>
      <trkpt lat="42.491358000" lon="-2.441954000">
        <ele>396.90</ele>
        <time>2016-10-15T05:43:07Z</time>
      </trkpt>
      <trkpt lat="42.491395000" lon="-2.441944000">
        <ele>397.10</ele>
        <time>2016-10-15T05:43:08Z</time>
      </trkpt>
      <trkpt lat="42.491432000" lon="-2.441929000">
        <ele>397.20</ele>
        <time>2016-10-15T05:43:09Z</time>
      </trkpt>
      <trkpt lat="42.491468000" lon="-2.441915000">
        <ele>397.30</ele>
        <time>2016-10-15T05:43:10Z</time>
      </trkpt>
      <trkpt lat="42.491505000" lon="-2.441899000">
        <ele>397.40</ele>
        <time>2016-10-15T05:43:11Z</time>
      </trkpt>
      <trkpt lat="42.491539000" lon="-2.441885000">
        <ele>397.50</ele>
        <time>2016-10-15T05:43:12Z</time>
      </trkpt>
      <trkpt lat="42.491574000" lon="-2.441869000">
        <ele>397.60</ele>
        <time>2016-10-15T05:43:13Z</time>
      </trkpt>
      <trkpt lat="42.491611000" lon="-2.441850000">
        <ele>397.70</ele>
        <time>2016-10-15T05:43:14Z</time>
      </trkpt>
      <trkpt lat="42.491644000" lon="-2.441826000">
        <ele>397.80</ele>
        <time>2016-10-15T05:43:15Z</time>
      </trkpt>
      <trkpt lat="42.491682000" lon="-2.441812000">
        <ele>397.80</ele>
        <time>2016-10-15T05:43:16Z</time>
      </trkpt>
      <trkpt lat="42.491717000" lon="-2.441790000">
        <ele>397.90</ele>
        <time>2016-10-15T05:43:17Z</time>
      </trkpt>
      <trkpt lat="42.491754000" lon="-2.441766000">
        <ele>397.80</ele>
        <time>2016-10-15T05:43:18Z</time>
      </trkpt>
      <trkpt lat="42.491789000" lon="-2.441744000">
        <ele>397.80</ele>
        <time>2016-10-15T05:43:19Z</time>
      </trkpt>
      <trkpt lat="42.491820000" lon="-2.441721000">
        <ele>397.70</ele>
        <time>2016-10-15T05:43:20Z</time>
      </trkpt>
      <trkpt lat="42.491854000" lon="-2.441697000">
        <ele>397.70</ele>
        <time>2016-10-15T05:43:21Z</time>
      </trkpt>
      <trkpt lat="42.491888000" lon="-2.441677000">
        <ele>397.60</ele>
        <time>2016-10-15T05:43:22Z</time>
      </trkpt>
      <trkpt lat="42.491923000" lon="-2.441656000">
        <ele>397.60</ele>
        <time>2016-10-15T05:43:23Z</time>
      </trkpt>
      <trkpt lat="42.491956000" lon="-2.441639000">
        <ele>397.70</ele>
        <time>2016-10-15T05:43:24Z</time>
      </trkpt>
      <trkpt lat="42.491990000" lon="-2.441620000">
        <ele>397.70</ele>
        <time>2016-10-15T05:43:25Z</time>
      </trkpt>
      <trkpt lat="42.492026000" lon="-2.441605000">
        <ele>397.80</ele>
        <time>2016-10-15T05:43:26Z</time>
      </trkpt>
      <trkpt lat="42.492059000" lon="-2.441589000">
        <ele>397.80</ele>
        <time>2016-10-15T05:43:27Z</time>
      </trkpt>
      <trkpt lat="42.492128000" lon="-2.441553000">
        <ele>397.90</ele>
        <time>2016-10-15T05:43:29Z</time>
      </trkpt>
      <trkpt lat="42.492165000" lon="-2.441538000">
        <ele>398.10</ele>
        <time>2016-10-15T05:43:30Z</time>
      </trkpt>
      <trkpt lat="42.492202000" lon="-2.441521000">
        <ele>398.20</ele>
        <time>2016-10-15T05:43:31Z</time>
      </trkpt>
      <trkpt lat="42.492239000" lon="-2.441509000">
        <ele>398.40</ele>
        <time>2016-10-15T05:43:32Z</time>
      </trkpt>
      <trkpt lat="42.492276000" lon="-2.441498000">
        <ele>398.60</ele>
        <time>2016-10-15T05:43:33Z</time>
      </trkpt>
      <trkpt lat="42.492313000" lon="-2.441483000">
        <ele>398.60</ele>
        <time>2016-10-15T05:43:34Z</time>
      </trkpt>
      <trkpt lat="42.492352000" lon="-2.441469000">
        <ele>398.60</ele>
        <time>2016-10-15T05:43:35Z</time>
      </trkpt>
      <trkpt lat="42.492389000" lon="-2.441452000">
        <ele>398.60</ele>
        <time>2016-10-15T05:43:36Z</time>
      </trkpt>
      <trkpt lat="42.492426000" lon="-2.441438000">
        <ele>398.50</ele>
        <time>2016-10-15T05:43:37Z</time>
      </trkpt>
      <trkpt lat="42.492462000" lon="-2.441420000">
        <ele>398.50</ele>
        <time>2016-10-15T05:43:38Z</time>
      </trkpt>
      <trkpt lat="42.492497000" lon="-2.441403000">
        <ele>398.50</ele>
        <time>2016-10-15T05:43:39Z</time>
      </trkpt>
      <trkpt lat="42.492531000" lon="-2.441388000">
        <ele>398.50</ele>
        <time>2016-10-15T05:43:40Z</time>
      </trkpt>
      <trkpt lat="42.492567000" lon="-2.441374000">
        <ele>398.50</ele>
        <time>2016-10-15T05:43:41Z</time>
      </trkpt>
      <trkpt lat="42.492602000" lon="-2.441358000">
        <ele>398.60</ele>
        <time>2016-10-15T05:43:42Z</time>
      </trkpt>
      <trkpt lat="42.492637000" lon="-2.441344000">
        <ele>398.70</ele>
        <time>2016-10-15T05:43:43Z</time>
      </trkpt>
      <trkpt lat="42.492674000" lon="-2.441332000">
        <ele>398.80</ele>
        <time>2016-10-15T05:43:44Z</time>
      </trkpt>
      <trkpt lat="42.492711000" lon="-2.441318000">
        <ele>398.80</ele>
        <time>2016-10-15T05:43:45Z</time>
      </trkpt>
      <trkpt lat="42.492746000" lon="-2.441305000">
        <ele>398.80</ele>
        <time>2016-10-15T05:43:46Z</time>
      </trkpt>
      <trkpt lat="42.492781000" lon="-2.441289000">
        <ele>398.90</ele>
        <time>2016-10-15T05:43:47Z</time>
      </trkpt>
      <trkpt lat="42.492817000" lon="-2.441277000">
        <ele>399.00</ele>
        <time>2016-10-15T05:43:48Z</time>
      </trkpt>
      <trkpt lat="42.492854000" lon="-2.441259000">
        <ele>399.00</ele>
        <time>2016-10-15T05:43:49Z</time>
      </trkpt>
      <trkpt lat="42.492890000" lon="-2.441246000">
        <ele>399.30</ele>
        <time>2016-10-15T05:43:50Z</time>
      </trkpt>
      <trkpt lat="42.492926000" lon="-2.441230000">
        <ele>399.50</ele>
        <time>2016-10-15T05:43:51Z</time>
      </trkpt>
      <trkpt lat="42.492962000" lon="-2.441217000">
        <ele>399.50</ele>
        <time>2016-10-15T05:43:52Z</time>
      </trkpt>
      <trkpt lat="42.492999000" lon="-2.441206000">
        <ele>399.50</ele>
        <time>2016-10-15T05:43:53Z</time>
      </trkpt>
      <trkpt lat="42.493035000" lon="-2.441189000">
        <ele>399.70</ele>
        <time>2016-10-15T05:43:54Z</time>
      </trkpt>
      <trkpt lat="42.493070000" lon="-2.441175000">
        <ele>399.80</ele>
        <time>2016-10-15T05:43:55Z</time>
      </trkpt>
      <trkpt lat="42.493104000" lon="-2.441162000">
        <ele>399.90</ele>
        <time>2016-10-15T05:43:56Z</time>
      </trkpt>
      <trkpt lat="42.493140000" lon="-2.441145000">
        <ele>400.00</ele>
        <time>2016-10-15T05:43:57Z</time>
      </trkpt>
      <trkpt lat="42.493178000" lon="-2.441128000">
        <ele>400.00</ele>
        <time>2016-10-15T05:43:58Z</time>
      </trkpt>
      <trkpt lat="42.493214000" lon="-2.441112000">
        <ele>400.10</ele>
        <time>2016-10-15T05:43:59Z</time>
      </trkpt>
      <trkpt lat="42.493248000" lon="-2.441094000">
        <ele>400.10</ele>
        <time>2016-10-15T05:44:00Z</time>
      </trkpt>
      <trkpt lat="42.493282000" lon="-2.441078000">
        <ele>400.10</ele>
        <time>2016-10-15T05:44:01Z</time>
      </trkpt>
      <trkpt lat="42.493315000" lon="-2.441061000">
        <ele>400.10</ele>
        <time>2016-10-15T05:44:02Z</time>
      </trkpt>
      <trkpt lat="42.493348000" lon="-2.441046000">
        <ele>400.10</ele>
        <time>2016-10-15T05:44:03Z</time>
      </trkpt>
      <trkpt lat="42.493381000" lon="-2.441029000">
        <ele>400.20</ele>
        <time>2016-10-15T05:44:04Z</time>
      </trkpt>
      <trkpt lat="42.493417000" lon="-2.441011000">
        <ele>400.30</ele>
        <time>2016-10-15T05:44:05Z</time>
      </trkpt>
      <trkpt lat="42.493449000" lon="-2.440991000">
        <ele>400.30</ele>
        <time>2016-10-15T05:44:06Z</time>
      </trkpt>
      <trkpt lat="42.493483000" lon="-2.440975000">
        <ele>400.30</ele>
        <time>2016-10-15T05:44:07Z</time>
      </trkpt>
      <trkpt lat="42.493521000" lon="-2.440961000">
        <ele>400.40</ele>
        <time>2016-10-15T05:44:08Z</time>
      </trkpt>
      <trkpt lat="42.493556000" lon="-2.440945000">
        <ele>400.40</ele>
        <time>2016-10-15T05:44:09Z</time>
      </trkpt>
      <trkpt lat="42.493592000" lon="-2.440926000">
        <ele>400.40</ele>
        <time>2016-10-15T05:44:10Z</time>
      </trkpt>
      <trkpt lat="42.493629000" lon="-2.440907000">
        <ele>400.40</ele>
        <time>2016-10-15T05:44:11Z</time>
      </trkpt>
      <trkpt lat="42.493663000" lon="-2.440892000">
        <ele>400.60</ele>
        <time>2016-10-15T05:44:12Z</time>
      </trkpt>
      <trkpt lat="42.493696000" lon="-2.440873000">
        <ele>400.70</ele>
        <time>2016-10-15T05:44:13Z</time>
      </trkpt>
      <trkpt lat="42.493729000" lon="-2.440859000">
        <ele>400.80</ele>
        <time>2016-10-15T05:44:14Z</time>
      </trkpt>
      <trkpt lat="42.493763000" lon="-2.440842000">
        <ele>400.80</ele>
        <time>2016-10-15T05:44:15Z</time>
      </trkpt>
      <trkpt lat="42.493799000" lon="-2.440824000">
        <ele>400.90</ele>
        <time>2016-10-15T05:44:16Z</time>
      </trkpt>
      <trkpt lat="42.493832000" lon="-2.440806000">
        <ele>401.00</ele>
        <time>2016-10-15T05:44:17Z</time>
      </trkpt>
      <trkpt lat="42.493867000" lon="-2.440792000">
        <ele>401.10</ele>
        <time>2016-10-15T05:44:18Z</time>
      </trkpt>
      <trkpt lat="42.493904000" lon="-2.440772000">
        <ele>401.20</ele>
        <time>2016-10-15T05:44:19Z</time>
      </trkpt>
      <trkpt lat="42.493940000" lon="-2.440755000">
        <ele>401.30</ele>
        <time>2016-10-15T05:44:20Z</time>
      </trkpt>
      <trkpt lat="42.493974000" lon="-2.440738000">
        <ele>401.40</ele>
        <time>2016-10-15T05:44:21Z</time>
      </trkpt>
      <trkpt lat="42.494010000" lon="-2.440724000">
        <ele>401.60</ele>
        <time>2016-10-15T05:44:22Z</time>
      </trkpt>
      <trkpt lat="42.494046000" lon="-2.440705000">
        <ele>401.70</ele>
        <time>2016-10-15T05:44:23Z</time>
      </trkpt>
      <trkpt lat="42.494082000" lon="-2.440688000">
        <ele>401.80</ele>
        <time>2016-10-15T05:44:24Z</time>
      </trkpt>
      <trkpt lat="42.494118000" lon="-2.440672000">
        <ele>401.90</ele>
        <time>2016-10-15T05:44:25Z</time>
      </trkpt>
      <trkpt lat="42.494152000" lon="-2.440654000">
        <ele>401.90</ele>
        <time>2016-10-15T05:44:26Z</time>
      </trkpt>
      <trkpt lat="42.494188000" lon="-2.440635000">
        <ele>401.90</ele>
        <time>2016-10-15T05:44:27Z</time>
      </trkpt>
      <trkpt lat="42.494224000" lon="-2.440619000">
        <ele>401.90</ele>
        <time>2016-10-15T05:44:28Z</time>
      </trkpt>
      <trkpt lat="42.494294000" lon="-2.440579000">
        <ele>402.00</ele>
        <time>2016-10-15T05:44:30Z</time>
      </trkpt>
      <trkpt lat="42.494329000" lon="-2.440560000">
        <ele>402.10</ele>
        <time>2016-10-15T05:44:31Z</time>
      </trkpt>
      <trkpt lat="42.494361000" lon="-2.440541000">
        <ele>402.20</ele>
        <time>2016-10-15T05:44:32Z</time>
      </trkpt>
      <trkpt lat="42.494396000" lon="-2.440522000">
        <ele>402.30</ele>
        <time>2016-10-15T05:44:33Z</time>
      </trkpt>
      <trkpt lat="42.494430000" lon="-2.440505000">
        <ele>402.20</ele>
        <time>2016-10-15T05:44:34Z</time>
      </trkpt>
      <trkpt lat="42.494465000" lon="-2.440491000">
        <ele>402.20</ele>
        <time>2016-10-15T05:44:35Z</time>
      </trkpt>
      <trkpt lat="42.494496000" lon="-2.440479000">
        <ele>402.20</ele>
        <time>2016-10-15T05:44:36Z</time>
      </trkpt>
      <trkpt lat="42.494528000" lon="-2.440464000">
        <ele>402.20</ele>
        <time>2016-10-15T05:44:37Z</time>
      </trkpt>
      <trkpt lat="42.494563000" lon="-2.440450000">
        <ele>402.30</ele>
        <time>2016-10-15T05:44:38Z</time>
      </trkpt>
      <trkpt lat="42.494598000" lon="-2.440434000">
        <ele>402.40</ele>
        <time>2016-10-15T05:44:39Z</time>
      </trkpt>
      <trkpt lat="42.494635000" lon="-2.440421000">
        <ele>402.50</ele>
        <time>2016-10-15T05:44:40Z</time>
      </trkpt>
      <trkpt lat="42.494668000" lon="-2.440409000">
        <ele>402.70</ele>
        <time>2016-10-15T05:44:41Z</time>
      </trkpt>
      <trkpt lat="42.494701000" lon="-2.440398000">
        <ele>402.80</ele>
        <time>2016-10-15T05:44:42Z</time>
      </trkpt>
      <trkpt lat="42.494735000" lon="-2.440377000">
        <ele>402.80</ele>
        <time>2016-10-15T05:44:43Z</time>
      </trkpt>
      <trkpt lat="42.494772000" lon="-2.440362000">
        <ele>402.90</ele>
        <time>2016-10-15T05:44:44Z</time>
      </trkpt>
      <trkpt lat="42.494809000" lon="-2.440347000">
        <ele>403.00</ele>
        <time>2016-10-15T05:44:45Z</time>
      </trkpt>
      <trkpt lat="42.494843000" lon="-2.440333000">
        <ele>403.10</ele>
        <time>2016-10-15T05:44:46Z</time>
      </trkpt>
      <trkpt lat="42.494878000" lon="-2.440318000">
        <ele>403.10</ele>
        <time>2016-10-15T05:44:47Z</time>
      </trkpt>
      <trkpt lat="42.494910000" lon="-2.440304000">
        <ele>403.30</ele>
        <time>2016-10-15T05:44:48Z</time>
      </trkpt>
      <trkpt lat="42.494943000" lon="-2.440288000">
        <ele>403.40</ele>
        <time>2016-10-15T05:44:49Z</time>
      </trkpt>
      <trkpt lat="42.494975000" lon="-2.440272000">
        <ele>403.50</ele>
        <time>2016-10-15T05:44:50Z</time>
      </trkpt>
      <trkpt lat="42.495008000" lon="-2.440257000">
        <ele>403.50</ele>
        <time>2016-10-15T05:44:51Z</time>
      </trkpt>
      <trkpt lat="42.495041000" lon="-2.440244000">
        <ele>403.60</ele>
        <time>2016-10-15T05:44:52Z</time>
      </trkpt>
      <trkpt lat="42.495073000" lon="-2.440233000">
        <ele>403.70</ele>
        <time>2016-10-15T05:44:53Z</time>
      </trkpt>
      <trkpt lat="42.495104000" lon="-2.440223000">
        <ele>403.80</ele>
        <time>2016-10-15T05:44:54Z</time>
      </trkpt>
      <trkpt lat="42.495133000" lon="-2.440213000">
        <ele>403.90</ele>
        <time>2016-10-15T05:44:55Z</time>
      </trkpt>
      <trkpt lat="42.495166000" lon="-2.440206000">
        <ele>403.90</ele>
        <time>2016-10-15T05:44:56Z</time>
      </trkpt>
      <trkpt lat="42.495200000" lon="-2.440199000">
        <ele>404.00</ele>
        <time>2016-10-15T05:44:57Z</time>
      </trkpt>
      <trkpt lat="42.495233000" lon="-2.440193000">
        <ele>404.20</ele>
        <time>2016-10-15T05:44:58Z</time>
      </trkpt>
      <trkpt lat="42.495268000" lon="-2.440189000">
        <ele>404.40</ele>
        <time>2016-10-15T05:44:59Z</time>
      </trkpt>
      <trkpt lat="42.495299000" lon="-2.440188000">
        <ele>404.60</ele>
        <time>2016-10-15T05:45:00Z</time>
      </trkpt>
      <trkpt lat="42.495331000" lon="-2.440189000">
        <ele>404.70</ele>
        <time>2016-10-15T05:45:01Z</time>
      </trkpt>
      <trkpt lat="42.495365000" lon="-2.440190000">
        <ele>404.80</ele>
        <time>2016-10-15T05:45:02Z</time>
      </trkpt>
      <trkpt lat="42.495399000" lon="-2.440193000">
        <ele>404.80</ele>
        <time>2016-10-15T05:45:03Z</time>
      </trkpt>
      <trkpt lat="42.495435000" lon="-2.440196000">
        <ele>404.90</ele>
        <time>2016-10-15T05:45:04Z</time>
      </trkpt>
      <trkpt lat="42.495471000" lon="-2.440199000">
        <ele>405.00</ele>
        <time>2016-10-15T05:45:05Z</time>
      </trkpt>
      <trkpt lat="42.495508000" lon="-2.440198000">
        <ele>405.10</ele>
        <time>2016-10-15T05:45:06Z</time>
      </trkpt>
      <trkpt lat="42.495544000" lon="-2.440198000">
        <ele>405.10</ele>
        <time>2016-10-15T05:45:07Z</time>
      </trkpt>
      <trkpt lat="42.495578000" lon="-2.440195000">
        <ele>405.40</ele>
        <time>2016-10-15T05:45:08Z</time>
      </trkpt>
      <trkpt lat="42.495612000" lon="-2.440190000">
        <ele>405.50</ele>
        <time>2016-10-15T05:45:09Z</time>
      </trkpt>
      <trkpt lat="42.495646000" lon="-2.440185000">
        <ele>405.70</ele>
        <time>2016-10-15T05:45:10Z</time>
      </trkpt>
      <trkpt lat="42.495681000" lon="-2.440182000">
        <ele>405.80</ele>
        <time>2016-10-15T05:45:11Z</time>
      </trkpt>
      <trkpt lat="42.495715000" lon="-2.440174000">
        <ele>405.80</ele>
        <time>2016-10-15T05:45:12Z</time>
      </trkpt>
      <trkpt lat="42.495748000" lon="-2.440166000">
        <ele>405.90</ele>
        <time>2016-10-15T05:45:13Z</time>
      </trkpt>
      <trkpt lat="42.495783000" lon="-2.440160000">
        <ele>405.90</ele>
        <time>2016-10-15T05:45:14Z</time>
      </trkpt>
      <trkpt lat="42.495818000" lon="-2.440155000">
        <ele>406.00</ele>
        <time>2016-10-15T05:45:15Z</time>
      </trkpt>
      <trkpt lat="42.495853000" lon="-2.440149000">
        <ele>406.00</ele>
        <time>2016-10-15T05:45:16Z</time>
      </trkpt>
      <trkpt lat="42.495886000" lon="-2.440142000">
        <ele>406.10</ele>
        <time>2016-10-15T05:45:17Z</time>
      </trkpt>
      <trkpt lat="42.495920000" lon="-2.440133000">
        <ele>406.10</ele>
        <time>2016-10-15T05:45:18Z</time>
      </trkpt>
      <trkpt lat="42.495954000" lon="-2.440124000">
        <ele>406.20</ele>
        <time>2016-10-15T05:45:19Z</time>
      </trkpt>
      <trkpt lat="42.495989000" lon="-2.440115000">
        <ele>406.40</ele>
        <time>2016-10-15T05:45:20Z</time>
      </trkpt>
      <trkpt lat="42.496023000" lon="-2.440104000">
        <ele>406.50</ele>
        <time>2016-10-15T05:45:21Z</time>
      </trkpt>
      <trkpt lat="42.496057000" lon="-2.440093000">
        <ele>406.70</ele>
        <time>2016-10-15T05:45:22Z</time>
      </trkpt>
      <trkpt lat="42.496092000" lon="-2.440080000">
        <ele>406.70</ele>
        <time>2016-10-15T05:45:23Z</time>
      </trkpt>
      <trkpt lat="42.496128000" lon="-2.440070000">
        <ele>406.80</ele>
        <time>2016-10-15T05:45:24Z</time>
      </trkpt>
      <trkpt lat="42.496162000" lon="-2.440061000">
        <ele>406.90</ele>
        <time>2016-10-15T05:45:25Z</time>
      </trkpt>
      <trkpt lat="42.496198000" lon="-2.440056000">
        <ele>406.90</ele>
        <time>2016-10-15T05:45:26Z</time>
      </trkpt>
      <trkpt lat="42.496234000" lon="-2.440052000">
        <ele>406.90</ele>
        <time>2016-10-15T05:45:27Z</time>
      </trkpt>
      <trkpt lat="42.496270000" lon="-2.440046000">
        <ele>407.00</ele>
        <time>2016-10-15T05:45:28Z</time>
      </trkpt>
      <trkpt lat="42.496306000" lon="-2.440042000">
        <ele>407.00</ele>
        <time>2016-10-15T05:45:29Z</time>
      </trkpt>
      <trkpt lat="42.496378000" lon="-2.440030000">
        <ele>407.10</ele>
        <time>2016-10-15T05:45:31Z</time>
      </trkpt>
      <trkpt lat="42.496415000" lon="-2.440025000">
        <ele>407.10</ele>
        <time>2016-10-15T05:45:32Z</time>
      </trkpt>
      <trkpt lat="42.496451000" lon="-2.440022000">
        <ele>407.20</ele>
        <time>2016-10-15T05:45:33Z</time>
      </trkpt>
      <trkpt lat="42.496487000" lon="-2.440019000">
        <ele>407.20</ele>
        <time>2016-10-15T05:45:34Z</time>
      </trkpt>
      <trkpt lat="42.496523000" lon="-2.440013000">
        <ele>407.20</ele>
        <time>2016-10-15T05:45:35Z</time>
      </trkpt>
      <trkpt lat="42.496559000" lon="-2.440006000">
        <ele>407.30</ele>
        <time>2016-10-15T05:45:36Z</time>
      </trkpt>
      <trkpt lat="42.496595000" lon="-2.440000000">
        <ele>407.40</ele>
        <time>2016-10-15T05:45:37Z</time>
      </trkpt>
      <trkpt lat="42.496633000" lon="-2.439992000">
        <ele>407.40</ele>
        <time>2016-10-15T05:45:38Z</time>
      </trkpt>
      <trkpt lat="42.496670000" lon="-2.439983000">
        <ele>407.50</ele>
        <time>2016-10-15T05:45:39Z</time>
      </trkpt>
      <trkpt lat="42.496707000" lon="-2.439972000">
        <ele>407.60</ele>
        <time>2016-10-15T05:45:40Z</time>
      </trkpt>
      <trkpt lat="42.496744000" lon="-2.439968000">
        <ele>407.60</ele>
        <time>2016-10-15T05:45:41Z</time>
      </trkpt>
      <trkpt lat="42.496783000" lon="-2.439963000">
        <ele>407.60</ele>
        <time>2016-10-15T05:45:42Z</time>
      </trkpt>
      <trkpt lat="42.496820000" lon="-2.439957000">
        <ele>407.60</ele>
        <time>2016-10-15T05:45:43Z</time>
      </trkpt>
      <trkpt lat="42.496856000" lon="-2.439950000">
        <ele>407.70</ele>
        <time>2016-10-15T05:45:44Z</time>
      </trkpt>
      <trkpt lat="42.496891000" lon="-2.439945000">
        <ele>407.70</ele>
        <time>2016-10-15T05:45:45Z</time>
      </trkpt>
      <trkpt lat="42.496928000" lon="-2.439942000">
        <ele>407.70</ele>
        <time>2016-10-15T05:45:46Z</time>
      </trkpt>
      <trkpt lat="42.496963000" lon="-2.439937000">
        <ele>407.70</ele>
        <time>2016-10-15T05:45:47Z</time>
      </trkpt>
      <trkpt lat="42.496999000" lon="-2.439935000">
        <ele>407.80</ele>
        <time>2016-10-15T05:45:48Z</time>
      </trkpt>
      <trkpt lat="42.497037000" lon="-2.439933000">
        <ele>407.80</ele>
        <time>2016-10-15T05:45:49Z</time>
      </trkpt>
      <trkpt lat="42.497073000" lon="-2.439930000">
        <ele>407.90</ele>
        <time>2016-10-15T05:45:50Z</time>
      </trkpt>
      <trkpt lat="42.497108000" lon="-2.439925000">
        <ele>407.90</ele>
        <time>2016-10-15T05:45:51Z</time>
      </trkpt>
      <trkpt lat="42.497145000" lon="-2.439919000">
        <ele>407.80</ele>
        <time>2016-10-15T05:45:52Z</time>
      </trkpt>
      <trkpt lat="42.497181000" lon="-2.439913000">
        <ele>407.80</ele>
        <time>2016-10-15T05:45:53Z</time>
      </trkpt>
      <trkpt lat="42.497219000" lon="-2.439905000">
        <ele>407.80</ele>
        <time>2016-10-15T05:45:54Z</time>
      </trkpt>
      <trkpt lat="42.497255000" lon="-2.439899000">
        <ele>407.80</ele>
        <time>2016-10-15T05:45:55Z</time>
      </trkpt>
      <trkpt lat="42.497290000" lon="-2.439895000">
        <ele>407.80</ele>
        <time>2016-10-15T05:45:56Z</time>
      </trkpt>
      <trkpt lat="42.497327000" lon="-2.439890000">
        <ele>407.90</ele>
        <time>2016-10-15T05:45:57Z</time>
      </trkpt>
      <trkpt lat="42.497364000" lon="-2.439884000">
        <ele>407.90</ele>
        <time>2016-10-15T05:45:58Z</time>
      </trkpt>
      <trkpt lat="42.497400000" lon="-2.439879000">
        <ele>407.90</ele>
        <time>2016-10-15T05:45:59Z</time>
      </trkpt>
      <trkpt lat="42.497437000" lon="-2.439875000">
        <ele>408.00</ele>
        <time>2016-10-15T05:46:00Z</time>
      </trkpt>
      <trkpt lat="42.497474000" lon="-2.439868000">
        <ele>408.00</ele>
        <time>2016-10-15T05:46:01Z</time>
      </trkpt>
      <trkpt lat="42.497512000" lon="-2.439858000">
        <ele>408.10</ele>
        <time>2016-10-15T05:46:02Z</time>
      </trkpt>
      <trkpt lat="42.497551000" lon="-2.439849000">
        <ele>408.10</ele>
        <time>2016-10-15T05:46:03Z</time>
      </trkpt>
      <trkpt lat="42.497587000" lon="-2.439838000">
        <ele>408.20</ele>
        <time>2016-10-15T05:46:04Z</time>
      </trkpt>
      <trkpt lat="42.497624000" lon="-2.439827000">
        <ele>408.30</ele>
        <time>2016-10-15T05:46:05Z</time>
      </trkpt>
      <trkpt lat="42.497660000" lon="-2.439815000">
        <ele>408.40</ele>
        <time>2016-10-15T05:46:06Z</time>
      </trkpt>
      <trkpt lat="42.497698000" lon="-2.439800000">
        <ele>408.50</ele>
        <time>2016-10-15T05:46:07Z</time>
      </trkpt>
      <trkpt lat="42.497738000" lon="-2.439792000">
        <ele>408.70</ele>
        <time>2016-10-15T05:46:08Z</time>
      </trkpt>
      <trkpt lat="42.497774000" lon="-2.439785000">
        <ele>408.80</ele>
        <time>2016-10-15T05:46:09Z</time>
      </trkpt>
      <trkpt lat="42.497813000" lon="-2.439774000">
        <ele>408.90</ele>
        <time>2016-10-15T05:46:10Z</time>
      </trkpt>
      <trkpt lat="42.497848000" lon="-2.439762000">
        <ele>409.00</ele>
        <time>2016-10-15T05:46:11Z</time>
      </trkpt>
      <trkpt lat="42.497883000" lon="-2.439749000">
        <ele>409.00</ele>
        <time>2016-10-15T05:46:12Z</time>
      </trkpt>
      <trkpt lat="42.497917000" lon="-2.439736000">
        <ele>409.10</ele>
        <time>2016-10-15T05:46:13Z</time>
      </trkpt>
      <trkpt lat="42.497951000" lon="-2.439723000">
        <ele>409.00</ele>
        <time>2016-10-15T05:46:14Z</time>
      </trkpt>
      <trkpt lat="42.497985000" lon="-2.439708000">
        <ele>409.00</ele>
        <time>2016-10-15T05:46:15Z</time>
      </trkpt>
      <trkpt lat="42.498021000" lon="-2.439694000">
        <ele>409.00</ele>
        <time>2016-10-15T05:46:16Z</time>
      </trkpt>
      <trkpt lat="42.498058000" lon="-2.439683000">
        <ele>409.00</ele>
        <time>2016-10-15T05:46:17Z</time>
      </trkpt>
      <trkpt lat="42.498091000" lon="-2.439669000">
        <ele>409.30</ele>
        <time>2016-10-15T05:46:18Z</time>
      </trkpt>
      <trkpt lat="42.498121000" lon="-2.439659000">
        <ele>409.50</ele>
        <time>2016-10-15T05:46:19Z</time>
      </trkpt>
      <trkpt lat="42.498153000" lon="-2.439647000">
        <ele>409.60</ele>
        <time>2016-10-15T05:46:20Z</time>
      </trkpt>
      <trkpt lat="42.498187000" lon="-2.439631000">
        <ele>409.80</ele>
        <time>2016-10-15T05:46:21Z</time>
      </trkpt>
      <trkpt lat="42.498221000" lon="-2.439616000">
        <ele>409.70</ele>
        <time>2016-10-15T05:46:22Z</time>
      </trkpt>
      <trkpt lat="42.498257000" lon="-2.439600000">
        <ele>409.70</ele>
        <time>2016-10-15T05:46:23Z</time>
      </trkpt>
      <trkpt lat="42.498289000" lon="-2.439583000">
        <ele>409.70</ele>
        <time>2016-10-15T05:46:24Z</time>
      </trkpt>
      <trkpt lat="42.498324000" lon="-2.439568000">
        <ele>409.70</ele>
        <time>2016-10-15T05:46:25Z</time>
      </trkpt>
      <trkpt lat="42.498358000" lon="-2.439553000">
        <ele>409.90</ele>
        <time>2016-10-15T05:46:26Z</time>
      </trkpt>
      <trkpt lat="42.498388000" lon="-2.439536000">
        <ele>410.00</ele>
        <time>2016-10-15T05:46:27Z</time>
      </trkpt>
      <trkpt lat="42.498422000" lon="-2.439521000">
        <ele>410.10</ele>
        <time>2016-10-15T05:46:28Z</time>
      </trkpt>
      <trkpt lat="42.498455000" lon="-2.439507000">
        <ele>410.20</ele>
        <time>2016-10-15T05:46:29Z</time>
      </trkpt>
      <trkpt lat="42.498488000" lon="-2.439492000">
        <ele>410.00</ele>
        <time>2016-10-15T05:46:30Z</time>
      </trkpt>
      <trkpt lat="42.498550000" lon="-2.439459000">
        <ele>409.90</ele>
        <time>2016-10-15T05:46:32Z</time>
      </trkpt>
      <trkpt lat="42.498582000" lon="-2.439445000">
        <ele>409.80</ele>
        <time>2016-10-15T05:46:33Z</time>
      </trkpt>
      <trkpt lat="42.498614000" lon="-2.439429000">
        <ele>410.10</ele>
        <time>2016-10-15T05:46:34Z</time>
      </trkpt>
      <trkpt lat="42.498645000" lon="-2.439411000">
        <ele>410.20</ele>
        <time>2016-10-15T05:46:35Z</time>
      </trkpt>
      <trkpt lat="42.498675000" lon="-2.439397000">
        <ele>410.40</ele>
        <time>2016-10-15T05:46:36Z</time>
      </trkpt>
      <trkpt lat="42.498710000" lon="-2.439384000">
        <ele>410.50</ele>
        <time>2016-10-15T05:46:37Z</time>
      </trkpt>
      <trkpt lat="42.498744000" lon="-2.439369000">
        <ele>410.60</ele>
        <time>2016-10-15T05:46:38Z</time>
      </trkpt>
      <trkpt lat="42.498778000" lon="-2.439352000">
        <ele>410.70</ele>
        <time>2016-10-15T05:46:39Z</time>
      </trkpt>
      <trkpt lat="42.498810000" lon="-2.439337000">
        <ele>410.80</ele>
        <time>2016-10-15T05:46:40Z</time>
      </trkpt>
      <trkpt lat="42.498840000" lon="-2.439319000">
        <ele>411.00</ele>
        <time>2016-10-15T05:46:41Z</time>
      </trkpt>
      <trkpt lat="42.498869000" lon="-2.439305000">
        <ele>411.20</ele>
        <time>2016-10-15T05:46:42Z</time>
      </trkpt>
      <trkpt lat="42.498899000" lon="-2.439293000">
        <ele>411.40</ele>
        <time>2016-10-15T05:46:43Z</time>
      </trkpt>
      <trkpt lat="42.498931000" lon="-2.439282000">
        <ele>411.50</ele>
        <time>2016-10-15T05:46:44Z</time>
      </trkpt>
      <trkpt lat="42.498961000" lon="-2.439271000">
        <ele>411.60</ele>
        <time>2016-10-15T05:46:45Z</time>
      </trkpt>
      <trkpt lat="42.498995000" lon="-2.439256000">
        <ele>411.70</ele>
        <time>2016-10-15T05:46:46Z</time>
      </trkpt>
      <trkpt lat="42.499031000" lon="-2.439246000">
        <ele>411.70</ele>
        <time>2016-10-15T05:46:47Z</time>
      </trkpt>
      <trkpt lat="42.499067000" lon="-2.439236000">
        <ele>411.80</ele>
        <time>2016-10-15T05:46:48Z</time>
      </trkpt>
      <trkpt lat="42.499100000" lon="-2.439225000">
        <ele>411.80</ele>
        <time>2016-10-15T05:46:49Z</time>
      </trkpt>
      <trkpt lat="42.499133000" lon="-2.439212000">
        <ele>411.80</ele>
        <time>2016-10-15T05:46:50Z</time>
      </trkpt>
      <trkpt lat="42.499167000" lon="-2.439201000">
        <ele>411.80</ele>
        <time>2016-10-15T05:46:51Z</time>
      </trkpt>
      <trkpt lat="42.499199000" lon="-2.439193000">
        <ele>411.80</ele>
        <time>2016-10-15T05:46:52Z</time>
      </trkpt>
      <trkpt lat="42.499233000" lon="-2.439186000">
        <ele>411.80</ele>
        <time>2016-10-15T05:46:53Z</time>
      </trkpt>
      <trkpt lat="42.499266000" lon="-2.439173000">
        <ele>411.80</ele>
        <time>2016-10-15T05:46:54Z</time>
      </trkpt>
      <trkpt lat="42.499301000" lon="-2.439161000">
        <ele>411.70</ele>
        <time>2016-10-15T05:46:55Z</time>
      </trkpt>
      <trkpt lat="42.499333000" lon="-2.439150000">
        <ele>411.70</ele>
        <time>2016-10-15T05:46:56Z</time>
      </trkpt>
      <trkpt lat="42.499367000" lon="-2.439138000">
        <ele>411.80</ele>
        <time>2016-10-15T05:46:57Z</time>
      </trkpt>
      <trkpt lat="42.499400000" lon="-2.439128000">
        <ele>411.80</ele>
        <time>2016-10-15T05:46:58Z</time>
      </trkpt>
      <trkpt lat="42.499434000" lon="-2.439118000">
        <ele>411.90</ele>
        <time>2016-10-15T05:46:59Z</time>
      </trkpt>
      <trkpt lat="42.499468000" lon="-2.439109000">
        <ele>411.90</ele>
        <time>2016-10-15T05:47:00Z</time>
      </trkpt>
      <trkpt lat="42.499500000" lon="-2.439102000">
        <ele>412.20</ele>
        <time>2016-10-15T05:47:01Z</time>
      </trkpt>
      <trkpt lat="42.499533000" lon="-2.439091000">
        <ele>412.40</ele>
        <time>2016-10-15T05:47:02Z</time>
      </trkpt>
      <trkpt lat="42.499567000" lon="-2.439083000">
        <ele>412.60</ele>
        <time>2016-10-15T05:47:03Z</time>
      </trkpt>
      <trkpt lat="42.499599000" lon="-2.439071000">
        <ele>412.70</ele>
        <time>2016-10-15T05:47:04Z</time>
      </trkpt>
      <trkpt lat="42.499633000" lon="-2.439057000">
        <ele>412.80</ele>
        <time>2016-10-15T05:47:05Z</time>
      </trkpt>
      <trkpt lat="42.499666000" lon="-2.439044000">
        <ele>412.90</ele>
        <time>2016-10-15T05:47:06Z</time>
      </trkpt>
      <trkpt lat="42.499702000" lon="-2.439031000">
        <ele>412.90</ele>
        <time>2016-10-15T05:47:07Z</time>
      </trkpt>
      <trkpt lat="42.499737000" lon="-2.439022000">
        <ele>413.00</ele>
        <time>2016-10-15T05:47:08Z</time>
      </trkpt>
      <trkpt lat="42.499769000" lon="-2.439009000">
        <ele>413.00</ele>
        <time>2016-10-15T05:47:09Z</time>
      </trkpt>
      <trkpt lat="42.499804000" lon="-2.438994000">
        <ele>413.00</ele>
        <time>2016-10-15T05:47:10Z</time>
      </trkpt>
      <trkpt lat="42.499838000" lon="-2.438979000">
        <ele>413.10</ele>
        <time>2016-10-15T05:47:11Z</time>
      </trkpt>
      <trkpt lat="42.499875000" lon="-2.438966000">
        <ele>413.20</ele>
        <time>2016-10-15T05:47:12Z</time>
      </trkpt>
      <trkpt lat="42.499910000" lon="-2.438957000">
        <ele>413.20</ele>
        <time>2016-10-15T05:47:13Z</time>
      </trkpt>
      <trkpt lat="42.499945000" lon="-2.438945000">
        <ele>413.20</ele>
        <time>2016-10-15T05:47:14Z</time>
      </trkpt>
      <trkpt lat="42.499980000" lon="-2.438929000">
        <ele>413.30</ele>
        <time>2016-10-15T05:47:15Z</time>
      </trkpt>
      <trkpt lat="42.500016000" lon="-2.438917000">
        <ele>413.40</ele>
        <time>2016-10-15T05:47:16Z</time>
      </trkpt>
      <trkpt lat="42.500051000" lon="-2.438902000">
        <ele>413.50</ele>
        <time>2016-10-15T05:47:17Z</time>
      </trkpt>
      <trkpt lat="42.500085000" lon="-2.438888000">
        <ele>413.60</ele>
        <time>2016-10-15T05:47:18Z</time>
      </trkpt>
      <trkpt lat="42.500121000" lon="-2.438877000">
        <ele>413.60</ele>
        <time>2016-10-15T05:47:19Z</time>
      </trkpt>
      <trkpt lat="42.500156000" lon="-2.438869000">
        <ele>413.70</ele>
        <time>2016-10-15T05:47:20Z</time>
      </trkpt>
      <trkpt lat="42.500192000" lon="-2.438858000">
        <ele>413.80</ele>
        <time>2016-10-15T05:47:21Z</time>
      </trkpt>
      <trkpt lat="42.500228000" lon="-2.438851000">
        <ele>413.80</ele>
        <time>2016-10-15T05:47:22Z</time>
      </trkpt>
      <trkpt lat="42.500265000" lon="-2.438845000">
        <ele>413.90</ele>
        <time>2016-10-15T05:47:23Z</time>
      </trkpt>
      <trkpt lat="42.500302000" lon="-2.438840000">
        <ele>413.90</ele>
        <time>2016-10-15T05:47:24Z</time>
      </trkpt>
      <trkpt lat="42.500339000" lon="-2.438839000">
        <ele>414.00</ele>
        <time>2016-10-15T05:47:25Z</time>
      </trkpt>
      <trkpt lat="42.500375000" lon="-2.438836000">
        <ele>414.10</ele>
        <time>2016-10-15T05:47:26Z</time>
      </trkpt>
      <trkpt lat="42.500412000" lon="-2.438832000">
        <ele>414.10</ele>
        <time>2016-10-15T05:47:27Z</time>
      </trkpt>
      <trkpt lat="42.500447000" lon="-2.438829000">
        <ele>414.20</ele>
        <time>2016-10-15T05:47:28Z</time>
      </trkpt>
      <trkpt lat="42.500483000" lon="-2.438827000">
        <ele>414.30</ele>
        <time>2016-10-15T05:47:29Z</time>
      </trkpt>
      <trkpt lat="42.500519000" lon="-2.438827000">
        <ele>414.50</ele>
        <time>2016-10-15T05:47:30Z</time>
      </trkpt>
      <trkpt lat="42.500555000" lon="-2.438824000">
        <ele>414.60</ele>
        <time>2016-10-15T05:47:31Z</time>
      </trkpt>
      <trkpt lat="42.500631000" lon="-2.438819000">
        <ele>414.70</ele>
        <time>2016-10-15T05:47:33Z</time>
      </trkpt>
      <trkpt lat="42.500670000" lon="-2.438820000">
        <ele>414.70</ele>
        <time>2016-10-15T05:47:34Z</time>
      </trkpt>
      <trkpt lat="42.500705000" lon="-2.438821000">
        <ele>414.70</ele>
        <time>2016-10-15T05:47:35Z</time>
      </trkpt>
      <trkpt lat="42.500740000" lon="-2.438822000">
        <ele>414.80</ele>
        <time>2016-10-15T05:47:36Z</time>
      </trkpt>
      <trkpt lat="42.500777000" lon="-2.438824000">
        <ele>414.80</ele>
        <time>2016-10-15T05:47:37Z</time>
      </trkpt>
      <trkpt lat="42.500812000" lon="-2.438826000">
        <ele>414.80</ele>
        <time>2016-10-15T05:47:38Z</time>
      </trkpt>
      <trkpt lat="42.500845000" lon="-2.438824000">
        <ele>414.80</ele>
        <time>2016-10-15T05:47:39Z</time>
      </trkpt>
      <trkpt lat="42.500880000" lon="-2.438821000">
        <ele>414.80</ele>
        <time>2016-10-15T05:47:40Z</time>
      </trkpt>
      <trkpt lat="42.500916000" lon="-2.438818000">
        <ele>414.90</ele>
        <time>2016-10-15T05:47:41Z</time>
      </trkpt>
      <trkpt lat="42.500951000" lon="-2.438823000">
        <ele>415.00</ele>
        <time>2016-10-15T05:47:42Z</time>
      </trkpt>
      <trkpt lat="42.500989000" lon="-2.438828000">
        <ele>415.10</ele>
        <time>2016-10-15T05:47:43Z</time>
      </trkpt>
      <trkpt lat="42.501025000" lon="-2.438830000">
        <ele>415.20</ele>
        <time>2016-10-15T05:47:44Z</time>
      </trkpt>
      <trkpt lat="42.501064000" lon="-2.438829000">
        <ele>415.20</ele>
        <time>2016-10-15T05:47:45Z</time>
      </trkpt>
      <trkpt lat="42.501101000" lon="-2.438825000">
        <ele>415.20</ele>
        <time>2016-10-15T05:47:46Z</time>
      </trkpt>
      <trkpt lat="42.501136000" lon="-2.438826000">
        <ele>415.20</ele>
        <time>2016-10-15T05:47:47Z</time>
      </trkpt>
      <trkpt lat="42.501173000" lon="-2.438825000">
        <ele>415.30</ele>
        <time>2016-10-15T05:47:48Z</time>
      </trkpt>
      <trkpt lat="42.501210000" lon="-2.438823000">
        <ele>415.30</ele>
        <time>2016-10-15T05:47:49Z</time>
      </trkpt>
      <trkpt lat="42.501244000" lon="-2.438818000">
        <ele>415.30</ele>
        <time>2016-10-15T05:47:50Z</time>
      </trkpt>
      <trkpt lat="42.501278000" lon="-2.438814000">
        <ele>415.30</ele>
        <time>2016-10-15T05:47:51Z</time>
      </trkpt>
      <trkpt lat="42.501314000" lon="-2.438812000">
        <ele>415.40</ele>
        <time>2016-10-15T05:47:52Z</time>
      </trkpt>
      <trkpt lat="42.501349000" lon="-2.438811000">
        <ele>415.50</ele>
        <time>2016-10-15T05:47:53Z</time>
      </trkpt>
      <trkpt lat="42.501386000" lon="-2.438811000">
        <ele>415.60</ele>
        <time>2016-10-15T05:47:54Z</time>
      </trkpt>
      <trkpt lat="42.501425000" lon="-2.438813000">
        <ele>415.60</ele>
        <time>2016-10-15T05:47:55Z</time>
      </trkpt>
      <trkpt lat="42.501462000" lon="-2.438812000">
        <ele>415.70</ele>
        <time>2016-10-15T05:47:56Z</time>
      </trkpt>
      <trkpt lat="42.501498000" lon="-2.438810000">
        <ele>415.80</ele>
        <time>2016-10-15T05:47:57Z</time>
      </trkpt>
      <trkpt lat="42.501530000" lon="-2.438812000">
        <ele>415.80</ele>
        <time>2016-10-15T05:47:58Z</time>
      </trkpt>
      <trkpt lat="42.501562000" lon="-2.438811000">
        <ele>415.90</ele>
        <time>2016-10-15T05:47:59Z</time>
      </trkpt>
      <trkpt lat="42.501596000" lon="-2.438808000">
        <ele>415.90</ele>
        <time>2016-10-15T05:48:00Z</time>
      </trkpt>
      <trkpt lat="42.501631000" lon="-2.438804000">
        <ele>416.00</ele>
        <time>2016-10-15T05:48:01Z</time>
      </trkpt>
      <trkpt lat="42.501671000" lon="-2.438803000">
        <ele>416.10</ele>
        <time>2016-10-15T05:48:02Z</time>
      </trkpt>
      <trkpt lat="42.501710000" lon="-2.438800000">
        <ele>416.10</ele>
        <time>2016-10-15T05:48:03Z</time>
      </trkpt>
      <trkpt lat="42.501749000" lon="-2.438802000">
        <ele>416.20</ele>
        <time>2016-10-15T05:48:04Z</time>
      </trkpt>
      <trkpt lat="42.501786000" lon="-2.438802000">
        <ele>416.10</ele>
        <time>2016-10-15T05:48:05Z</time>
      </trkpt>
      <trkpt lat="42.501821000" lon="-2.438807000">
        <ele>416.00</ele>
        <time>2016-10-15T05:48:06Z</time>
      </trkpt>
      <trkpt lat="42.501861000" lon="-2.438805000">
        <ele>415.90</ele>
        <time>2016-10-15T05:48:07Z</time>
      </trkpt>
      <trkpt lat="42.501899000" lon="-2.438802000">
        <ele>415.90</ele>
        <time>2016-10-15T05:48:08Z</time>
      </trkpt>
      <trkpt lat="42.501937000" lon="-2.438802000">
        <ele>415.90</ele>
        <time>2016-10-15T05:48:09Z</time>
      </trkpt>
      <trkpt lat="42.501975000" lon="-2.438801000">
        <ele>416.00</ele>
        <time>2016-10-15T05:48:10Z</time>
      </trkpt>
      <trkpt lat="42.502009000" lon="-2.438806000">
        <ele>416.10</ele>
        <time>2016-10-15T05:48:11Z</time>
      </trkpt>
      <trkpt lat="42.502043000" lon="-2.438805000">
        <ele>416.20</ele>
        <time>2016-10-15T05:48:12Z</time>
      </trkpt>
      <trkpt lat="42.502078000" lon="-2.438806000">
        <ele>416.30</ele>
        <time>2016-10-15T05:48:13Z</time>
      </trkpt>
      <trkpt lat="42.502119000" lon="-2.438809000">
        <ele>416.40</ele>
        <time>2016-10-15T05:48:14Z</time>
      </trkpt>
      <trkpt lat="42.502154000" lon="-2.438816000">
        <ele>416.40</ele>
        <time>2016-10-15T05:48:15Z</time>
      </trkpt>
      <trkpt lat="42.502192000" lon="-2.438818000">
        <ele>416.50</ele>
        <time>2016-10-15T05:48:16Z</time>
      </trkpt>
      <trkpt lat="42.502230000" lon="-2.438822000">
        <ele>416.60</ele>
        <time>2016-10-15T05:48:17Z</time>
      </trkpt>
      <trkpt lat="42.502267000" lon="-2.438823000">
        <ele>416.70</ele>
        <time>2016-10-15T05:48:18Z</time>
      </trkpt>
      <trkpt lat="42.502304000" lon="-2.438826000">
        <ele>416.80</ele>
        <time>2016-10-15T05:48:19Z</time>
      </trkpt>
      <trkpt lat="42.502342000" lon="-2.438828000">
        <ele>416.90</ele>
        <time>2016-10-15T05:48:20Z</time>
      </trkpt>
      <trkpt lat="42.502379000" lon="-2.438828000">
        <ele>416.90</ele>
        <time>2016-10-15T05:48:21Z</time>
      </trkpt>
      <trkpt lat="42.502416000" lon="-2.438830000">
        <ele>416.90</ele>
        <time>2016-10-15T05:48:22Z</time>
      </trkpt>
      <trkpt lat="42.502448000" lon="-2.438824000">
        <ele>416.90</ele>
        <time>2016-10-15T05:48:23Z</time>
      </trkpt>
      <trkpt lat="42.502484000" lon="-2.438827000">
        <ele>416.90</ele>
        <time>2016-10-15T05:48:24Z</time>
      </trkpt>
      <trkpt lat="42.502521000" lon="-2.438827000">
        <ele>417.00</ele>
        <time>2016-10-15T05:48:25Z</time>
      </trkpt>
      <trkpt lat="42.502559000" lon="-2.438828000">
        <ele>417.00</ele>
        <time>2016-10-15T05:48:26Z</time>
      </trkpt>
      <trkpt lat="42.502598000" lon="-2.438829000">
        <ele>417.00</ele>
        <time>2016-10-15T05:48:27Z</time>
      </trkpt>
      <trkpt lat="42.502637000" lon="-2.438830000">
        <ele>417.10</ele>
        <time>2016-10-15T05:48:28Z</time>
      </trkpt>
      <trkpt lat="42.502677000" lon="-2.438834000">
        <ele>417.10</ele>
        <time>2016-10-15T05:48:29Z</time>
      </trkpt>
      <trkpt lat="42.502718000" lon="-2.438837000">
        <ele>417.20</ele>
        <time>2016-10-15T05:48:30Z</time>
      </trkpt>
      <trkpt lat="42.502758000" lon="-2.438841000">
        <ele>417.10</ele>
        <time>2016-10-15T05:48:31Z</time>
      </trkpt>
      <trkpt lat="42.502801000" lon="-2.438845000">
        <ele>417.00</ele>
        <time>2016-10-15T05:48:32Z</time>
      </trkpt>
      <trkpt lat="42.502890000" lon="-2.438843000">
        <ele>416.90</ele>
        <time>2016-10-15T05:48:34Z</time>
      </trkpt>
      <trkpt lat="42.502932000" lon="-2.438845000">
        <ele>416.90</ele>
        <time>2016-10-15T05:48:35Z</time>
      </trkpt>
      <trkpt lat="42.502972000" lon="-2.438844000">
        <ele>416.90</ele>
        <time>2016-10-15T05:48:36Z</time>
      </trkpt>
      <trkpt lat="42.503013000" lon="-2.438846000">
        <ele>417.00</ele>
        <time>2016-10-15T05:48:37Z</time>
      </trkpt>
      <trkpt lat="42.503053000" lon="-2.438843000">
        <ele>417.00</ele>
        <time>2016-10-15T05:48:38Z</time>
      </trkpt>
      <trkpt lat="42.503093000" lon="-2.438836000">
        <ele>416.90</ele>
        <time>2016-10-15T05:48:39Z</time>
      </trkpt>
      <trkpt lat="42.503135000" lon="-2.438831000">
        <ele>416.80</ele>
        <time>2016-10-15T05:48:40Z</time>
      </trkpt>
      <trkpt lat="42.503174000" lon="-2.438827000">
        <ele>416.90</ele>
        <time>2016-10-15T05:48:41Z</time>
      </trkpt>
      <trkpt lat="42.503214000" lon="-2.438820000">
        <ele>417.00</ele>
        <time>2016-10-15T05:48:42Z</time>
      </trkpt>
      <trkpt lat="42.503253000" lon="-2.438814000">
        <ele>417.00</ele>
        <time>2016-10-15T05:48:43Z</time>
      </trkpt>
      <trkpt lat="42.503293000" lon="-2.438808000">
        <ele>417.00</ele>
        <time>2016-10-15T05:48:44Z</time>
      </trkpt>
      <trkpt lat="42.503336000" lon="-2.438801000">
        <ele>417.00</ele>
        <time>2016-10-15T05:48:45Z</time>
      </trkpt>
      <trkpt lat="42.503375000" lon="-2.438799000">
        <ele>417.00</ele>
        <time>2016-10-15T05:48:46Z</time>
      </trkpt>
      <trkpt lat="42.503412000" lon="-2.438795000">
        <ele>417.00</ele>
        <time>2016-10-15T05:48:47Z</time>
      </trkpt>
      <trkpt lat="42.503451000" lon="-2.438792000">
        <ele>417.00</ele>
        <time>2016-10-15T05:48:48Z</time>
      </trkpt>
      <trkpt lat="42.503490000" lon="-2.438792000">
        <ele>417.00</ele>
        <time>2016-10-15T05:48:49Z</time>
      </trkpt>
      <trkpt lat="42.503530000" lon="-2.438786000">
        <ele>417.00</ele>
        <time>2016-10-15T05:48:50Z</time>
      </trkpt>
      <trkpt lat="42.503569000" lon="-2.438782000">
        <ele>417.00</ele>
        <time>2016-10-15T05:48:51Z</time>
      </trkpt>
      <trkpt lat="42.503607000" lon="-2.438780000">
        <ele>417.00</ele>
        <time>2016-10-15T05:48:52Z</time>
      </trkpt>
      <trkpt lat="42.503645000" lon="-2.438779000">
        <ele>417.00</ele>
        <time>2016-10-15T05:48:53Z</time>
      </trkpt>
      <trkpt lat="42.503682000" lon="-2.438780000">
        <ele>417.00</ele>
        <time>2016-10-15T05:48:54Z</time>
      </trkpt>
      <trkpt lat="42.503719000" lon="-2.438776000">
        <ele>417.00</ele>
        <time>2016-10-15T05:48:55Z</time>
      </trkpt>
      <trkpt lat="42.503756000" lon="-2.438771000">
        <ele>417.00</ele>
        <time>2016-10-15T05:48:56Z</time>
      </trkpt>
      <trkpt lat="42.503791000" lon="-2.438766000">
        <ele>417.00</ele>
        <time>2016-10-15T05:48:57Z</time>
      </trkpt>
      <trkpt lat="42.503826000" lon="-2.438762000">
        <ele>417.00</ele>
        <time>2016-10-15T05:48:58Z</time>
      </trkpt>
      <trkpt lat="42.503862000" lon="-2.438756000">
        <ele>417.00</ele>
        <time>2016-10-15T05:48:59Z</time>
      </trkpt>
      <trkpt lat="42.503900000" lon="-2.438750000">
        <ele>417.00</ele>
        <time>2016-10-15T05:49:00Z</time>
      </trkpt>
      <trkpt lat="42.503939000" lon="-2.438751000">
        <ele>417.10</ele>
        <time>2016-10-15T05:49:01Z</time>
      </trkpt>
      <trkpt lat="42.503977000" lon="-2.438747000">
        <ele>417.10</ele>
        <time>2016-10-15T05:49:02Z</time>
      </trkpt>
      <trkpt lat="42.504011000" lon="-2.438747000">
        <ele>417.10</ele>
        <time>2016-10-15T05:49:03Z</time>
      </trkpt>
      <trkpt lat="42.504046000" lon="-2.438745000">
        <ele>417.20</ele>
        <time>2016-10-15T05:49:04Z</time>
      </trkpt>
      <trkpt lat="42.504079000" lon="-2.438742000">
        <ele>417.40</ele>
        <time>2016-10-15T05:49:05Z</time>
      </trkpt>
      <trkpt lat="42.504107000" lon="-2.438733000">
        <ele>417.50</ele>
        <time>2016-10-15T05:49:06Z</time>
      </trkpt>
      <trkpt lat="42.504136000" lon="-2.438725000">
        <ele>417.70</ele>
        <time>2016-10-15T05:49:07Z</time>
      </trkpt>
      <trkpt lat="42.504165000" lon="-2.438720000">
        <ele>417.80</ele>
        <time>2016-10-15T05:49:08Z</time>
      </trkpt>
      <trkpt lat="42.504196000" lon="-2.438719000">
        <ele>417.60</ele>
        <time>2016-10-15T05:49:09Z</time>
      </trkpt>
      <trkpt lat="42.504232000" lon="-2.438712000">
        <ele>417.50</ele>
        <time>2016-10-15T05:49:10Z</time>
      </trkpt>
      <trkpt lat="42.504264000" lon="-2.438713000">
        <ele>417.50</ele>
        <time>2016-10-15T05:49:11Z</time>
      </trkpt>
      <trkpt lat="42.504298000" lon="-2.438715000">
        <ele>417.40</ele>
        <time>2016-10-15T05:49:12Z</time>
      </trkpt>
      <trkpt lat="42.504330000" lon="-2.438718000">
        <ele>417.50</ele>
        <time>2016-10-15T05:49:13Z</time>
      </trkpt>
      <trkpt lat="42.504363000" lon="-2.438719000">
        <ele>417.60</ele>
        <time>2016-10-15T05:49:14Z</time>
      </trkpt>
      <trkpt lat="42.504396000" lon="-2.438720000">
        <ele>417.60</ele>
        <time>2016-10-15T05:49:15Z</time>
      </trkpt>
      <trkpt lat="42.504430000" lon="-2.438723000">
        <ele>417.70</ele>
        <time>2016-10-15T05:49:16Z</time>
      </trkpt>
      <trkpt lat="42.504460000" lon="-2.438729000">
        <ele>417.80</ele>
        <time>2016-10-15T05:49:17Z</time>
      </trkpt>
      <trkpt lat="42.504491000" lon="-2.438730000">
        <ele>417.90</ele>
        <time>2016-10-15T05:49:18Z</time>
      </trkpt>
      <trkpt lat="42.504520000" lon="-2.438723000">
        <ele>418.00</ele>
        <time>2016-10-15T05:49:19Z</time>
      </trkpt>
      <trkpt lat="42.504547000" lon="-2.438718000">
        <ele>418.10</ele>
        <time>2016-10-15T05:49:20Z</time>
      </trkpt>
      <trkpt lat="42.504577000" lon="-2.438700000">
        <ele>418.10</ele>
        <time>2016-10-15T05:49:21Z</time>
      </trkpt>
      <trkpt lat="42.504605000" lon="-2.438670000">
        <ele>418.20</ele>
        <time>2016-10-15T05:49:22Z</time>
      </trkpt>
      <trkpt lat="42.504634000" lon="-2.438637000">
        <ele>418.10</ele>
        <time>2016-10-15T05:49:23Z</time>
      </trkpt>
      <trkpt lat="42.504661000" lon="-2.438599000">
        <ele>418.00</ele>
        <time>2016-10-15T05:49:24Z</time>
      </trkpt>
      <trkpt lat="42.504689000" lon="-2.438562000">
        <ele>417.80</ele>
        <time>2016-10-15T05:49:25Z</time>
      </trkpt>
      <trkpt lat="42.504713000" lon="-2.438526000">
        <ele>417.70</ele>
        <time>2016-10-15T05:49:26Z</time>
      </trkpt>
      <trkpt lat="42.504739000" lon="-2.438492000">
        <ele>417.70</ele>
        <time>2016-10-15T05:49:27Z</time>
      </trkpt>
      <trkpt lat="42.504765000" lon="-2.438457000">
        <ele>417.70</ele>
        <time>2016-10-15T05:49:28Z</time>
      </trkpt>
      <trkpt lat="42.504791000" lon="-2.438422000">
        <ele>417.70</ele>
        <time>2016-10-15T05:49:29Z</time>
      </trkpt>
      <trkpt lat="42.504817000" lon="-2.438390000">
        <ele>417.70</ele>
        <time>2016-10-15T05:49:30Z</time>
      </trkpt>
      <trkpt lat="42.504843000" lon="-2.438360000">
        <ele>417.70</ele>
        <time>2016-10-15T05:49:31Z</time>
      </trkpt>
      <trkpt lat="42.504868000" lon="-2.438330000">
        <ele>417.80</ele>
        <time>2016-10-15T05:49:32Z</time>
      </trkpt>
      <trkpt lat="42.504893000" lon="-2.438300000">
        <ele>417.80</ele>
        <time>2016-10-15T05:49:33Z</time>
      </trkpt>
      <trkpt lat="42.504939000" lon="-2.438243000">
        <ele>417.80</ele>
        <time>2016-10-15T05:49:35Z</time>
      </trkpt>
      <trkpt lat="42.504961000" lon="-2.438214000">
        <ele>417.80</ele>
        <time>2016-10-15T05:49:36Z</time>
      </trkpt>
      <trkpt lat="42.504986000" lon="-2.438186000">
        <ele>418.00</ele>
        <time>2016-10-15T05:49:37Z</time>
      </trkpt>
      <trkpt lat="42.505010000" lon="-2.438160000">
        <ele>418.20</ele>
        <time>2016-10-15T05:49:38Z</time>
      </trkpt>
      <trkpt lat="42.505034000" lon="-2.438130000">
        <ele>418.40</ele>
        <time>2016-10-15T05:49:39Z</time>
      </trkpt>
      <trkpt lat="42.505059000" lon="-2.438099000">
        <ele>418.50</ele>
        <time>2016-10-15T05:49:40Z</time>
      </trkpt>
      <trkpt lat="42.505083000" lon="-2.438064000">
        <ele>418.60</ele>
        <time>2016-10-15T05:49:41Z</time>
      </trkpt>
      <trkpt lat="42.505105000" lon="-2.438033000">
        <ele>418.70</ele>
        <time>2016-10-15T05:49:42Z</time>
      </trkpt>
      <trkpt lat="42.505127000" lon="-2.438003000">
        <ele>418.70</ele>
        <time>2016-10-15T05:49:43Z</time>
      </trkpt>
      <trkpt lat="42.505152000" lon="-2.437972000">
        <ele>418.70</ele>
        <time>2016-10-15T05:49:44Z</time>
      </trkpt>
      <trkpt lat="42.505176000" lon="-2.437943000">
        <ele>418.60</ele>
        <time>2016-10-15T05:49:45Z</time>
      </trkpt>
      <trkpt lat="42.505199000" lon="-2.437914000">
        <ele>418.60</ele>
        <time>2016-10-15T05:49:46Z</time>
      </trkpt>
      <trkpt lat="42.505220000" lon="-2.437884000">
        <ele>418.60</ele>
        <time>2016-10-15T05:49:47Z</time>
      </trkpt>
      <trkpt lat="42.505242000" lon="-2.437856000">
        <ele>418.60</ele>
        <time>2016-10-15T05:49:48Z</time>
      </trkpt>
      <trkpt lat="42.505262000" lon="-2.437831000">
        <ele>418.60</ele>
        <time>2016-10-15T05:49:49Z</time>
      </trkpt>
      <trkpt lat="42.505284000" lon="-2.437807000">
        <ele>418.60</ele>
        <time>2016-10-15T05:49:50Z</time>
      </trkpt>
      <trkpt lat="42.505304000" lon="-2.437786000">
        <ele>418.70</ele>
        <time>2016-10-15T05:49:51Z</time>
      </trkpt>
      <trkpt lat="42.505324000" lon="-2.437758000">
        <ele>418.80</ele>
        <time>2016-10-15T05:49:52Z</time>
      </trkpt>
      <trkpt lat="42.505347000" lon="-2.437735000">
        <ele>418.90</ele>
        <time>2016-10-15T05:49:53Z</time>
      </trkpt>
      <trkpt lat="42.505371000" lon="-2.437712000">
        <ele>419.10</ele>
        <time>2016-10-15T05:49:54Z</time>
      </trkpt>
      <trkpt lat="42.505393000" lon="-2.437687000">
        <ele>419.30</ele>
        <time>2016-10-15T05:49:55Z</time>
      </trkpt>
      <trkpt lat="42.505412000" lon="-2.437660000">
        <ele>419.40</ele>
        <time>2016-10-15T05:49:56Z</time>
      </trkpt>
      <trkpt lat="42.505430000" lon="-2.437631000">
        <ele>419.50</ele>
        <time>2016-10-15T05:49:57Z</time>
      </trkpt>
      <trkpt lat="42.505449000" lon="-2.437599000">
        <ele>419.60</ele>
        <time>2016-10-15T05:49:58Z</time>
      </trkpt>
      <trkpt lat="42.505469000" lon="-2.437574000">
        <ele>419.50</ele>
        <time>2016-10-15T05:49:59Z</time>
      </trkpt>
      <trkpt lat="42.505485000" lon="-2.437547000">
        <ele>419.50</ele>
        <time>2016-10-15T05:50:00Z</time>
      </trkpt>
      <trkpt lat="42.505504000" lon="-2.437526000">
        <ele>419.50</ele>
        <time>2016-10-15T05:50:01Z</time>
      </trkpt>
      <trkpt lat="42.505520000" lon="-2.437506000">
        <ele>419.50</ele>
        <time>2016-10-15T05:50:02Z</time>
      </trkpt>
      <trkpt lat="42.505531000" lon="-2.437496000">
        <ele>419.60</ele>
        <time>2016-10-15T05:50:03Z</time>
      </trkpt>
      <trkpt lat="42.505538000" lon="-2.437491000">
        <ele>419.70</ele>
        <time>2016-10-15T05:50:04Z</time>
      </trkpt>
      <trkpt lat="42.505546000" lon="-2.437485000">
        <ele>419.90</ele>
        <time>2016-10-15T05:50:05Z</time>
      </trkpt>
      <trkpt lat="42.505552000" lon="-2.437471000">
        <ele>420.10</ele>
        <time>2016-10-15T05:50:06Z</time>
      </trkpt>
      <trkpt lat="42.505556000" lon="-2.437456000">
        <ele>420.20</ele>
        <time>2016-10-15T05:50:07Z</time>
      </trkpt>
      <trkpt lat="42.505565000" lon="-2.437444000">
        <ele>420.30</ele>
        <time>2016-10-15T05:50:08Z</time>
      </trkpt>
      <trkpt lat="42.505569000" lon="-2.437438000">
        <ele>420.50</ele>
        <time>2016-10-15T05:50:09Z</time>
      </trkpt>
      <trkpt lat="42.505570000" lon="-2.437429000">
        <ele>420.70</ele>
        <time>2016-10-15T05:50:10Z</time>
      </trkpt>
      <trkpt lat="42.505576000" lon="-2.437420000">
        <ele>420.80</ele>
        <time>2016-10-15T05:50:11Z</time>
      </trkpt>
      <trkpt lat="42.505578000" lon="-2.437418000">
        <ele>420.90</ele>
        <time>2016-10-15T05:50:12Z</time>
      </trkpt>
      <trkpt lat="42.505583000" lon="-2.437402000">
        <ele>421.00</ele>
        <time>2016-10-15T05:50:13Z</time>
      </trkpt>
      <trkpt lat="42.505586000" lon="-2.437402000">
        <ele>421.10</ele>
        <time>2016-10-15T05:50:14Z</time>
      </trkpt>
      <trkpt lat="42.505590000" lon="-2.437401000">
        <ele>421.10</ele>
        <time>2016-10-15T05:50:15Z</time>
      </trkpt>
      <trkpt lat="42.505593000" lon="-2.437392000">
        <ele>421.10</ele>
        <time>2016-10-15T05:50:16Z</time>
      </trkpt>
      <trkpt lat="42.505591000" lon="-2.437388000">
        <ele>421.20</ele>
        <time>2016-10-15T05:50:17Z</time>
      </trkpt>
      <trkpt lat="42.505590000" lon="-2.437382000">
        <ele>421.20</ele>
        <time>2016-10-15T05:50:18Z</time>
      </trkpt>
      <trkpt lat="42.505586000" lon="-2.437382000">
        <ele>421.10</ele>
        <time>2016-10-15T05:50:19Z</time>
      </trkpt>
      <trkpt lat="42.505585000" lon="-2.437383000">
        <ele>421.10</ele>
        <time>2016-10-15T05:50:20Z</time>
      </trkpt>
      <trkpt lat="42.505582000" lon="-2.437381000">
        <ele>421.00</ele>
        <time>2016-10-15T05:50:21Z</time>
      </trkpt>
      <trkpt lat="42.505579000" lon="-2.437376000">
        <ele>421.00</ele>
        <time>2016-10-15T05:50:22Z</time>
      </trkpt>
      <trkpt lat="42.505586000" lon="-2.437356000">
        <ele>420.90</ele>
        <time>2016-10-15T05:50:23Z</time>
      </trkpt>
      <trkpt lat="42.505595000" lon="-2.437342000">
        <ele>420.90</ele>
        <time>2016-10-15T05:50:24Z</time>
      </trkpt>
      <trkpt lat="42.505602000" lon="-2.437329000">
        <ele>420.90</ele>
        <time>2016-10-15T05:50:25Z</time>
      </trkpt>
      <trkpt lat="42.505615000" lon="-2.437318000">
        <ele>420.90</ele>
        <time>2016-10-15T05:50:26Z</time>
      </trkpt>
      <trkpt lat="42.505633000" lon="-2.437308000">
        <ele>421.00</ele>
        <time>2016-10-15T05:50:27Z</time>
      </trkpt>
      <trkpt lat="42.505652000" lon="-2.437304000">
        <ele>421.10</ele>
        <time>2016-10-15T05:50:28Z</time>
      </trkpt>
      <trkpt lat="42.505673000" lon="-2.437308000">
        <ele>421.10</ele>
        <time>2016-10-15T05:50:29Z</time>
      </trkpt>
      <trkpt lat="42.505697000" lon="-2.437319000">
        <ele>421.10</ele>
        <time>2016-10-15T05:50:30Z</time>
      </trkpt>
      <trkpt lat="42.505720000" lon="-2.437340000">
        <ele>421.20</ele>
        <time>2016-10-15T05:50:31Z</time>
      </trkpt>
      <trkpt lat="42.505746000" lon="-2.437362000">
        <ele>421.20</ele>
        <time>2016-10-15T05:50:32Z</time>
      </trkpt>
      <trkpt lat="42.505773000" lon="-2.437379000">
        <ele>421.30</ele>
        <time>2016-10-15T05:50:33Z</time>
      </trkpt>
      <trkpt lat="42.505799000" lon="-2.437400000">
        <ele>421.30</ele>
        <time>2016-10-15T05:50:34Z</time>
      </trkpt>
      <trkpt lat="42.505851000" lon="-2.437446000">
        <ele>421.70</ele>
        <time>2016-10-15T05:50:36Z</time>
      </trkpt>
      <trkpt lat="42.505875000" lon="-2.437473000">
        <ele>421.90</ele>
        <time>2016-10-15T05:50:37Z</time>
      </trkpt>
      <trkpt lat="42.505907000" lon="-2.437487000">
        <ele>422.00</ele>
        <time>2016-10-15T05:50:38Z</time>
      </trkpt>
      <trkpt lat="42.505935000" lon="-2.437502000">
        <ele>422.10</ele>
        <time>2016-10-15T05:50:39Z</time>
      </trkpt>
      <trkpt lat="42.505960000" lon="-2.437522000">
        <ele>422.10</ele>
        <time>2016-10-15T05:50:40Z</time>
      </trkpt>
      <trkpt lat="42.505987000" lon="-2.437542000">
        <ele>422.30</ele>
        <time>2016-10-15T05:50:41Z</time>
      </trkpt>
      <trkpt lat="42.506014000" lon="-2.437564000">
        <ele>422.40</ele>
        <time>2016-10-15T05:50:42Z</time>
      </trkpt>
      <trkpt lat="42.506037000" lon="-2.437586000">
        <ele>422.50</ele>
        <time>2016-10-15T05:50:43Z</time>
      </trkpt>
      <trkpt lat="42.506064000" lon="-2.437603000">
        <ele>422.60</ele>
        <time>2016-10-15T05:50:44Z</time>
      </trkpt>
      <trkpt lat="42.506089000" lon="-2.437616000">
        <ele>422.80</ele>
        <time>2016-10-15T05:50:45Z</time>
      </trkpt>
      <trkpt lat="42.506113000" lon="-2.437632000">
        <ele>422.90</ele>
        <time>2016-10-15T05:50:46Z</time>
      </trkpt>
      <trkpt lat="42.506134000" lon="-2.437654000">
        <ele>423.00</ele>
        <time>2016-10-15T05:50:47Z</time>
      </trkpt>
      <trkpt lat="42.506154000" lon="-2.437677000">
        <ele>423.00</ele>
        <time>2016-10-15T05:50:48Z</time>
      </trkpt>
      <trkpt lat="42.506175000" lon="-2.437697000">
        <ele>423.20</ele>
        <time>2016-10-15T05:50:49Z</time>
      </trkpt>
      <trkpt lat="42.506196000" lon="-2.437719000">
        <ele>423.20</ele>
        <time>2016-10-15T05:50:50Z</time>
      </trkpt>
      <trkpt lat="42.506217000" lon="-2.437743000">
        <ele>423.40</ele>
        <time>2016-10-15T05:50:51Z</time>
      </trkpt>
      <trkpt lat="42.506241000" lon="-2.437766000">
        <ele>423.50</ele>
        <time>2016-10-15T05:50:52Z</time>
      </trkpt>
      <trkpt lat="42.506265000" lon="-2.437790000">
        <ele>423.60</ele>
        <time>2016-10-15T05:50:53Z</time>
      </trkpt>
      <trkpt lat="42.506287000" lon="-2.437811000">
        <ele>423.70</ele>
        <time>2016-10-15T05:50:54Z</time>
      </trkpt>
      <trkpt lat="42.506307000" lon="-2.437831000">
        <ele>423.70</ele>
        <time>2016-10-15T05:50:55Z</time>
      </trkpt>
      <trkpt lat="42.506329000" lon="-2.437851000">
        <ele>423.70</ele>
        <time>2016-10-15T05:50:56Z</time>
      </trkpt>
      <trkpt lat="42.506349000" lon="-2.437869000">
        <ele>423.80</ele>
        <time>2016-10-15T05:50:57Z</time>
      </trkpt>
      <trkpt lat="42.506367000" lon="-2.437891000">
        <ele>423.90</ele>
        <time>2016-10-15T05:50:58Z</time>
      </trkpt>
      <trkpt lat="42.506385000" lon="-2.437910000">
        <ele>423.90</ele>
        <time>2016-10-15T05:50:59Z</time>
      </trkpt>
      <trkpt lat="42.506407000" lon="-2.437929000">
        <ele>423.90</ele>
        <time>2016-10-15T05:51:00Z</time>
      </trkpt>
      <trkpt lat="42.506426000" lon="-2.437954000">
        <ele>424.00</ele>
        <time>2016-10-15T05:51:01Z</time>
      </trkpt>
      <trkpt lat="42.506450000" lon="-2.437974000">
        <ele>424.10</ele>
        <time>2016-10-15T05:51:02Z</time>
      </trkpt>
      <trkpt lat="42.506479000" lon="-2.437991000">
        <ele>424.20</ele>
        <time>2016-10-15T05:51:03Z</time>
      </trkpt>
      <trkpt lat="42.506508000" lon="-2.438003000">
        <ele>424.30</ele>
        <time>2016-10-15T05:51:04Z</time>
      </trkpt>
      <trkpt lat="42.506542000" lon="-2.438003000">
        <ele>424.30</ele>
        <time>2016-10-15T05:51:05Z</time>
      </trkpt>
      <trkpt lat="42.506577000" lon="-2.437992000">
        <ele>424.40</ele>
        <time>2016-10-15T05:51:06Z</time>
      </trkpt>
      <trkpt lat="42.506604000" lon="-2.437992000">
        <ele>424.40</ele>
        <time>2016-10-15T05:51:07Z</time>
      </trkpt>
      <trkpt lat="42.506631000" lon="-2.437987000">
        <ele>424.50</ele>
        <time>2016-10-15T05:51:08Z</time>
      </trkpt>
      <trkpt lat="42.506650000" lon="-2.437977000">
        <ele>424.50</ele>
        <time>2016-10-15T05:51:09Z</time>
      </trkpt>
      <trkpt lat="42.506664000" lon="-2.437965000">
        <ele>424.50</ele>
        <time>2016-10-15T05:51:10Z</time>
      </trkpt>
      <trkpt lat="42.506673000" lon="-2.437953000">
        <ele>424.70</ele>
        <time>2016-10-15T05:51:11Z</time>
      </trkpt>
      <trkpt lat="42.506685000" lon="-2.437942000">
        <ele>424.90</ele>
        <time>2016-10-15T05:51:12Z</time>
      </trkpt>
      <trkpt lat="42.506697000" lon="-2.437931000">
        <ele>424.80</ele>
        <time>2016-10-15T05:51:13Z</time>
      </trkpt>
      <trkpt lat="42.506702000" lon="-2.437914000">
        <ele>424.80</ele>
        <time>2016-10-15T05:51:14Z</time>
      </trkpt>
      <trkpt lat="42.506710000" lon="-2.437895000">
        <ele>425.00</ele>
        <time>2016-10-15T05:51:15Z</time>
      </trkpt>
      <trkpt lat="42.506721000" lon="-2.437875000">
        <ele>425.00</ele>
        <time>2016-10-15T05:51:16Z</time>
      </trkpt>
      <trkpt lat="42.506731000" lon="-2.437859000">
        <ele>425.40</ele>
        <time>2016-10-15T05:51:17Z</time>
      </trkpt>
      <trkpt lat="42.506747000" lon="-2.437844000">
        <ele>425.70</ele>
        <time>2016-10-15T05:51:18Z</time>
      </trkpt>
      <trkpt lat="42.506762000" lon="-2.437835000">
        <ele>425.90</ele>
        <time>2016-10-15T05:51:19Z</time>
      </trkpt>
      <trkpt lat="42.506776000" lon="-2.437819000">
        <ele>426.10</ele>
        <time>2016-10-15T05:51:20Z</time>
      </trkpt>
      <trkpt lat="42.506789000" lon="-2.437802000">
        <ele>426.50</ele>
        <time>2016-10-15T05:51:21Z</time>
      </trkpt>
      <trkpt lat="42.506803000" lon="-2.437781000">
        <ele>426.80</ele>
        <time>2016-10-15T05:51:22Z</time>
      </trkpt>
      <trkpt lat="42.506818000" lon="-2.437759000">
        <ele>427.00</ele>
        <time>2016-10-15T05:51:23Z</time>
      </trkpt>
      <trkpt lat="42.506831000" lon="-2.437734000">
        <ele>427.10</ele>
        <time>2016-10-15T05:51:24Z</time>
      </trkpt>
      <trkpt lat="42.506845000" lon="-2.437712000">
        <ele>427.30</ele>
        <time>2016-10-15T05:51:25Z</time>
      </trkpt>
      <trkpt lat="42.506858000" lon="-2.437685000">
        <ele>427.40</ele>
        <time>2016-10-15T05:51:26Z</time>
      </trkpt>
      <trkpt lat="42.506870000" lon="-2.437662000">
        <ele>427.60</ele>
        <time>2016-10-15T05:51:27Z</time>
      </trkpt>
      <trkpt lat="42.506882000" lon="-2.437642000">
        <ele>427.80</ele>
        <time>2016-10-15T05:51:28Z</time>
      </trkpt>
      <trkpt lat="42.506894000" lon="-2.437620000">
        <ele>428.10</ele>
        <time>2016-10-15T05:51:29Z</time>
      </trkpt>
      <trkpt lat="42.506911000" lon="-2.437594000">
        <ele>428.30</ele>
        <time>2016-10-15T05:51:30Z</time>
      </trkpt>
      <trkpt lat="42.506928000" lon="-2.437579000">
        <ele>428.60</ele>
        <time>2016-10-15T05:51:31Z</time>
      </trkpt>
      <trkpt lat="42.506945000" lon="-2.437562000">
        <ele>428.80</ele>
        <time>2016-10-15T05:51:32Z</time>
      </trkpt>
      <trkpt lat="42.506962000" lon="-2.437545000">
        <ele>428.90</ele>
        <time>2016-10-15T05:51:33Z</time>
      </trkpt>
      <trkpt lat="42.506976000" lon="-2.437533000">
        <ele>429.00</ele>
        <time>2016-10-15T05:51:34Z</time>
      </trkpt>
      <trkpt lat="42.506986000" lon="-2.437519000">
        <ele>429.30</ele>
        <time>2016-10-15T05:51:35Z</time>
      </trkpt>
      <trkpt lat="42.507005000" lon="-2.437480000">
        <ele>429.90</ele>
        <time>2016-10-15T05:51:37Z</time>
      </trkpt>
      <trkpt lat="42.507012000" lon="-2.437455000">
        <ele>430.00</ele>
        <time>2016-10-15T05:51:38Z</time>
      </trkpt>
      <trkpt lat="42.507017000" lon="-2.437432000">
        <ele>430.20</ele>
        <time>2016-10-15T05:51:39Z</time>
      </trkpt>
      <trkpt lat="42.507024000" lon="-2.437412000">
        <ele>430.30</ele>
        <time>2016-10-15T05:51:40Z</time>
      </trkpt>
      <trkpt lat="42.507029000" lon="-2.437388000">
        <ele>430.60</ele>
        <time>2016-10-15T05:51:41Z</time>
      </trkpt>
      <trkpt lat="42.507036000" lon="-2.437367000">
        <ele>430.70</ele>
        <time>2016-10-15T05:51:42Z</time>
      </trkpt>
      <trkpt lat="42.507041000" lon="-2.437345000">
        <ele>431.10</ele>
        <time>2016-10-15T05:51:43Z</time>
      </trkpt>
      <trkpt lat="42.507044000" lon="-2.437322000">
        <ele>431.30</ele>
        <time>2016-10-15T05:51:44Z</time>
      </trkpt>
      <trkpt lat="42.507046000" lon="-2.437296000">
        <ele>431.80</ele>
        <time>2016-10-15T05:51:45Z</time>
      </trkpt>
      <trkpt lat="42.507049000" lon="-2.437269000">
        <ele>432.10</ele>
        <time>2016-10-15T05:51:46Z</time>
      </trkpt>
      <trkpt lat="42.507049000" lon="-2.437240000">
        <ele>432.60</ele>
        <time>2016-10-15T05:51:47Z</time>
      </trkpt>
      <trkpt lat="42.507049000" lon="-2.437214000">
        <ele>432.90</ele>
        <time>2016-10-15T05:51:48Z</time>
      </trkpt>
      <trkpt lat="42.507043000" lon="-2.437190000">
        <ele>433.30</ele>
        <time>2016-10-15T05:51:49Z</time>
      </trkpt>
      <trkpt lat="42.507038000" lon="-2.437166000">
        <ele>433.60</ele>
        <time>2016-10-15T05:51:50Z</time>
      </trkpt>
      <trkpt lat="42.507031000" lon="-2.437147000">
        <ele>433.80</ele>
        <time>2016-10-15T05:51:51Z</time>
      </trkpt>
      <trkpt lat="42.507028000" lon="-2.437125000">
        <ele>434.00</ele>
        <time>2016-10-15T05:51:52Z</time>
      </trkpt>
      <trkpt lat="42.507028000" lon="-2.437099000">
        <ele>434.30</ele>
        <time>2016-10-15T05:51:53Z</time>
      </trkpt>
      <trkpt lat="42.507024000" lon="-2.437078000">
        <ele>434.50</ele>
        <time>2016-10-15T05:51:54Z</time>
      </trkpt>
      <trkpt lat="42.507016000" lon="-2.437057000">
        <ele>434.90</ele>
        <time>2016-10-15T05:51:55Z</time>
      </trkpt>
      <trkpt lat="42.507007000" lon="-2.437031000">
        <ele>435.20</ele>
        <time>2016-10-15T05:51:56Z</time>
      </trkpt>
      <trkpt lat="42.506995000" lon="-2.437007000">
        <ele>435.50</ele>
        <time>2016-10-15T05:51:57Z</time>
      </trkpt>
      <trkpt lat="42.506987000" lon="-2.436988000">
        <ele>435.80</ele>
        <time>2016-10-15T05:51:58Z</time>
      </trkpt>
      <trkpt lat="42.506982000" lon="-2.436966000">
        <ele>435.90</ele>
        <time>2016-10-15T05:51:59Z</time>
      </trkpt>
      <trkpt lat="42.506978000" lon="-2.436944000">
        <ele>435.90</ele>
        <time>2016-10-15T05:52:00Z</time>
      </trkpt>
      <trkpt lat="42.506969000" lon="-2.436924000">
        <ele>436.40</ele>
        <time>2016-10-15T05:52:01Z</time>
      </trkpt>
      <trkpt lat="42.506961000" lon="-2.436907000">
        <ele>436.80</ele>
        <time>2016-10-15T05:52:02Z</time>
      </trkpt>
      <trkpt lat="42.506954000" lon="-2.436891000">
        <ele>436.80</ele>
        <time>2016-10-15T05:52:03Z</time>
      </trkpt>
      <trkpt lat="42.506947000" lon="-2.436873000">
        <ele>436.90</ele>
        <time>2016-10-15T05:52:04Z</time>
      </trkpt>
      <trkpt lat="42.506941000" lon="-2.436857000">
        <ele>436.90</ele>
        <time>2016-10-15T05:52:05Z</time>
      </trkpt>
      <trkpt lat="42.506936000" lon="-2.436838000">
        <ele>436.90</ele>
        <time>2016-10-15T05:52:06Z</time>
      </trkpt>
      <trkpt lat="42.506927000" lon="-2.436818000">
        <ele>436.90</ele>
        <time>2016-10-15T05:52:07Z</time>
      </trkpt>
      <trkpt lat="42.506920000" lon="-2.436800000">
        <ele>436.90</ele>
        <time>2016-10-15T05:52:08Z</time>
      </trkpt>
      <trkpt lat="42.506911000" lon="-2.436777000">
        <ele>436.90</ele>
        <time>2016-10-15T05:52:09Z</time>
      </trkpt>
      <trkpt lat="42.506900000" lon="-2.436755000">
        <ele>436.90</ele>
        <time>2016-10-15T05:52:10Z</time>
      </trkpt>
      <trkpt lat="42.506891000" lon="-2.436734000">
        <ele>437.00</ele>
        <time>2016-10-15T05:52:11Z</time>
      </trkpt>
      <trkpt lat="42.506881000" lon="-2.436712000">
        <ele>437.00</ele>
        <time>2016-10-15T05:52:12Z</time>
      </trkpt>
      <trkpt lat="42.506872000" lon="-2.436687000">
        <ele>437.30</ele>
        <time>2016-10-15T05:52:13Z</time>
      </trkpt>
      <trkpt lat="42.506864000" lon="-2.436665000">
        <ele>437.50</ele>
        <time>2016-10-15T05:52:14Z</time>
      </trkpt>
      <trkpt lat="42.506857000" lon="-2.436641000">
        <ele>437.70</ele>
        <time>2016-10-15T05:52:15Z</time>
      </trkpt>
      <trkpt lat="42.506848000" lon="-2.436619000">
        <ele>437.80</ele>
        <time>2016-10-15T05:52:16Z</time>
      </trkpt>
      <trkpt lat="42.506842000" lon="-2.436593000">
        <ele>437.70</ele>
        <time>2016-10-15T05:52:17Z</time>
      </trkpt>
      <trkpt lat="42.506836000" lon="-2.436568000">
        <ele>437.50</ele>
        <time>2016-10-15T05:52:18Z</time>
      </trkpt>
      <trkpt lat="42.506833000" lon="-2.436539000">
        <ele>437.50</ele>
        <time>2016-10-15T05:52:19Z</time>
      </trkpt>
      <trkpt lat="42.506830000" lon="-2.436511000">
        <ele>437.40</ele>
        <time>2016-10-15T05:52:20Z</time>
      </trkpt>
      <trkpt lat="42.506825000" lon="-2.436483000">
        <ele>437.40</ele>
        <time>2016-10-15T05:52:21Z</time>
      </trkpt>
      <trkpt lat="42.506817000" lon="-2.436458000">
        <ele>437.40</ele>
        <time>2016-10-15T05:52:22Z</time>
      </trkpt>
      <trkpt lat="42.506806000" lon="-2.436434000">
        <ele>437.50</ele>
        <time>2016-10-15T05:52:23Z</time>
      </trkpt>
      <trkpt lat="42.506799000" lon="-2.436410000">
        <ele>437.60</ele>
        <time>2016-10-15T05:52:24Z</time>
      </trkpt>
      <trkpt lat="42.506801000" lon="-2.436377000">
        <ele>437.60</ele>
        <time>2016-10-15T05:52:25Z</time>
      </trkpt>
      <trkpt lat="42.506804000" lon="-2.436349000">
        <ele>437.70</ele>
        <time>2016-10-15T05:52:26Z</time>
      </trkpt>
      <trkpt lat="42.506808000" lon="-2.436318000">
        <ele>437.80</ele>
        <time>2016-10-15T05:52:27Z</time>
      </trkpt>
      <trkpt lat="42.506804000" lon="-2.436292000">
        <ele>437.90</ele>
        <time>2016-10-15T05:52:28Z</time>
      </trkpt>
      <trkpt lat="42.506796000" lon="-2.436266000">
        <ele>438.00</ele>
        <time>2016-10-15T05:52:29Z</time>
      </trkpt>
      <trkpt lat="42.506794000" lon="-2.436242000">
        <ele>438.00</ele>
        <time>2016-10-15T05:52:30Z</time>
      </trkpt>
      <trkpt lat="42.506786000" lon="-2.436214000">
        <ele>438.10</ele>
        <time>2016-10-15T05:52:31Z</time>
      </trkpt>
      <trkpt lat="42.506785000" lon="-2.436184000">
        <ele>438.10</ele>
        <time>2016-10-15T05:52:32Z</time>
      </trkpt>
      <trkpt lat="42.506784000" lon="-2.436155000">
        <ele>438.20</ele>
        <time>2016-10-15T05:52:33Z</time>
      </trkpt>
      <trkpt lat="42.506785000" lon="-2.436124000">
        <ele>438.20</ele>
        <time>2016-10-15T05:52:34Z</time>
      </trkpt>
      <trkpt lat="42.506786000" lon="-2.436094000">
        <ele>438.20</ele>
        <time>2016-10-15T05:52:35Z</time>
      </trkpt>
      <trkpt lat="42.506790000" lon="-2.436067000">
        <ele>438.20</ele>
        <time>2016-10-15T05:52:36Z</time>
      </trkpt>
      <trkpt lat="42.506798000" lon="-2.436011000">
        <ele>438.30</ele>
        <time>2016-10-15T05:52:38Z</time>
      </trkpt>
      <trkpt lat="42.506803000" lon="-2.435983000">
        <ele>438.30</ele>
        <time>2016-10-15T05:52:39Z</time>
      </trkpt>
      <trkpt lat="42.506806000" lon="-2.435955000">
        <ele>438.40</ele>
        <time>2016-10-15T05:52:40Z</time>
      </trkpt>
      <trkpt lat="42.506809000" lon="-2.435929000">
        <ele>438.40</ele>
        <time>2016-10-15T05:52:41Z</time>
      </trkpt>
      <trkpt lat="42.506812000" lon="-2.435905000">
        <ele>438.40</ele>
        <time>2016-10-15T05:52:42Z</time>
      </trkpt>
      <trkpt lat="42.506813000" lon="-2.435875000">
        <ele>438.40</ele>
        <time>2016-10-15T05:52:43Z</time>
      </trkpt>
      <trkpt lat="42.506817000" lon="-2.435846000">
        <ele>438.40</ele>
        <time>2016-10-15T05:52:44Z</time>
      </trkpt>
      <trkpt lat="42.506821000" lon="-2.435819000">
        <ele>438.50</ele>
        <time>2016-10-15T05:52:45Z</time>
      </trkpt>
      <trkpt lat="42.506825000" lon="-2.435788000">
        <ele>438.50</ele>
        <time>2016-10-15T05:52:46Z</time>
      </trkpt>
      <trkpt lat="42.506828000" lon="-2.435760000">
        <ele>438.60</ele>
        <time>2016-10-15T05:52:47Z</time>
      </trkpt>
      <trkpt lat="42.506825000" lon="-2.435732000">
        <ele>438.70</ele>
        <time>2016-10-15T05:52:48Z</time>
      </trkpt>
      <trkpt lat="42.506820000" lon="-2.435708000">
        <ele>438.70</ele>
        <time>2016-10-15T05:52:49Z</time>
      </trkpt>
      <trkpt lat="42.506815000" lon="-2.435683000">
        <ele>438.70</ele>
        <time>2016-10-15T05:52:50Z</time>
      </trkpt>
      <trkpt lat="42.506808000" lon="-2.435654000">
        <ele>438.60</ele>
        <time>2016-10-15T05:52:51Z</time>
      </trkpt>
      <trkpt lat="42.506799000" lon="-2.435623000">
        <ele>438.50</ele>
        <time>2016-10-15T05:52:52Z</time>
      </trkpt>
      <trkpt lat="42.506790000" lon="-2.435589000">
        <ele>438.40</ele>
        <time>2016-10-15T05:52:53Z</time>
      </trkpt>
      <trkpt lat="42.506783000" lon="-2.435554000">
        <ele>438.40</ele>
        <time>2016-10-15T05:52:54Z</time>
      </trkpt>
      <trkpt lat="42.506771000" lon="-2.435521000">
        <ele>438.40</ele>
        <time>2016-10-15T05:52:55Z</time>
      </trkpt>
      <trkpt lat="42.506761000" lon="-2.435487000">
        <ele>438.30</ele>
        <time>2016-10-15T05:52:56Z</time>
      </trkpt>
      <trkpt lat="42.506750000" lon="-2.435451000">
        <ele>438.30</ele>
        <time>2016-10-15T05:52:57Z</time>
      </trkpt>
      <trkpt lat="42.506743000" lon="-2.435413000">
        <ele>438.30</ele>
        <time>2016-10-15T05:52:58Z</time>
      </trkpt>
      <trkpt lat="42.506731000" lon="-2.435380000">
        <ele>438.30</ele>
        <time>2016-10-15T05:52:59Z</time>
      </trkpt>
      <trkpt lat="42.506724000" lon="-2.435349000">
        <ele>438.30</ele>
        <time>2016-10-15T05:53:00Z</time>
      </trkpt>
      <trkpt lat="42.506721000" lon="-2.435315000">
        <ele>438.30</ele>
        <time>2016-10-15T05:53:01Z</time>
      </trkpt>
      <trkpt lat="42.506725000" lon="-2.435283000">
        <ele>438.30</ele>
        <time>2016-10-15T05:53:02Z</time>
      </trkpt>
      <trkpt lat="42.506740000" lon="-2.435256000">
        <ele>438.40</ele>
        <time>2016-10-15T05:53:03Z</time>
      </trkpt>
      <trkpt lat="42.506765000" lon="-2.435243000">
        <ele>438.50</ele>
        <time>2016-10-15T05:53:04Z</time>
      </trkpt>
      <trkpt lat="42.506797000" lon="-2.435237000">
        <ele>438.50</ele>
        <time>2016-10-15T05:53:05Z</time>
      </trkpt>
      <trkpt lat="42.506835000" lon="-2.435235000">
        <ele>438.60</ele>
        <time>2016-10-15T05:53:06Z</time>
      </trkpt>
      <trkpt lat="42.506878000" lon="-2.435236000">
        <ele>438.60</ele>
        <time>2016-10-15T05:53:07Z</time>
      </trkpt>
      <trkpt lat="42.506926000" lon="-2.435235000">
        <ele>438.60</ele>
        <time>2016-10-15T05:53:08Z</time>
      </trkpt>
      <trkpt lat="42.506977000" lon="-2.435228000">
        <ele>438.30</ele>
        <time>2016-10-15T05:53:09Z</time>
      </trkpt>
      <trkpt lat="42.507030000" lon="-2.435222000">
        <ele>438.10</ele>
        <time>2016-10-15T05:53:10Z</time>
      </trkpt>
      <trkpt lat="42.507086000" lon="-2.435210000">
        <ele>437.90</ele>
        <time>2016-10-15T05:53:11Z</time>
      </trkpt>
      <trkpt lat="42.507139000" lon="-2.435191000">
        <ele>437.80</ele>
        <time>2016-10-15T05:53:12Z</time>
      </trkpt>
      <trkpt lat="42.507193000" lon="-2.435171000">
        <ele>437.60</ele>
        <time>2016-10-15T05:53:13Z</time>
      </trkpt>
      <trkpt lat="42.507246000" lon="-2.435153000">
        <ele>437.50</ele>
        <time>2016-10-15T05:53:14Z</time>
      </trkpt>
      <trkpt lat="42.507295000" lon="-2.435131000">
        <ele>437.20</ele>
        <time>2016-10-15T05:53:15Z</time>
      </trkpt>
      <trkpt lat="42.507345000" lon="-2.435107000">
        <ele>436.90</ele>
        <time>2016-10-15T05:53:16Z</time>
      </trkpt>
      <trkpt lat="42.507394000" lon="-2.435085000">
        <ele>436.70</ele>
        <time>2016-10-15T05:53:17Z</time>
      </trkpt>
      <trkpt lat="42.507441000" lon="-2.435060000">
        <ele>436.50</ele>
        <time>2016-10-15T05:53:18Z</time>
      </trkpt>
      <trkpt lat="42.507488000" lon="-2.435033000">
        <ele>436.30</ele>
        <time>2016-10-15T05:53:19Z</time>
      </trkpt>
      <trkpt lat="42.507535000" lon="-2.435003000">
        <ele>436.20</ele>
        <time>2016-10-15T05:53:20Z</time>
      </trkpt>
      <trkpt lat="42.507579000" lon="-2.434969000">
        <ele>436.10</ele>
        <time>2016-10-15T05:53:21Z</time>
      </trkpt>
      <trkpt lat="42.507623000" lon="-2.434935000">
        <ele>436.00</ele>
        <time>2016-10-15T05:53:22Z</time>
      </trkpt>
      <trkpt lat="42.507668000" lon="-2.434895000">
        <ele>435.90</ele>
        <time>2016-10-15T05:53:23Z</time>
      </trkpt>
      <trkpt lat="42.507712000" lon="-2.434842000">
        <ele>435.80</ele>
        <time>2016-10-15T05:53:24Z</time>
      </trkpt>
      <trkpt lat="42.507755000" lon="-2.434784000">
        <ele>435.70</ele>
        <time>2016-10-15T05:53:25Z</time>
      </trkpt>
      <trkpt lat="42.507797000" lon="-2.434723000">
        <ele>435.60</ele>
        <time>2016-10-15T05:53:26Z</time>
      </trkpt>
      <trkpt lat="42.507840000" lon="-2.434659000">
        <ele>435.20</ele>
        <time>2016-10-15T05:53:27Z</time>
      </trkpt>
      <trkpt lat="42.507884000" lon="-2.434595000">
        <ele>434.90</ele>
        <time>2016-10-15T05:53:28Z</time>
      </trkpt>
      <trkpt lat="42.507927000" lon="-2.434535000">
        <ele>434.70</ele>
        <time>2016-10-15T05:53:29Z</time>
      </trkpt>
      <trkpt lat="42.507973000" lon="-2.434475000">
        <ele>434.50</ele>
        <time>2016-10-15T05:53:30Z</time>
      </trkpt>
      <trkpt lat="42.508016000" lon="-2.434418000">
        <ele>434.40</ele>
        <time>2016-10-15T05:53:31Z</time>
      </trkpt>
      <trkpt lat="42.508058000" lon="-2.434367000">
        <ele>434.30</ele>
        <time>2016-10-15T05:53:32Z</time>
      </trkpt>
      <trkpt lat="42.508100000" lon="-2.434316000">
        <ele>434.20</ele>
        <time>2016-10-15T05:53:33Z</time>
      </trkpt>
      <trkpt lat="42.508142000" lon="-2.434269000">
        <ele>434.10</ele>
        <time>2016-10-15T05:53:34Z</time>
      </trkpt>
      <trkpt lat="42.508185000" lon="-2.434227000">
        <ele>434.00</ele>
        <time>2016-10-15T05:53:35Z</time>
      </trkpt>
      <trkpt lat="42.508225000" lon="-2.434191000">
        <ele>434.00</ele>
        <time>2016-10-15T05:53:36Z</time>
      </trkpt>
      <trkpt lat="42.508267000" lon="-2.434164000">
        <ele>434.00</ele>
        <time>2016-10-15T05:53:37Z</time>
      </trkpt>
      <trkpt lat="42.508348000" lon="-2.434112000">
        <ele>434.20</ele>
        <time>2016-10-15T05:53:39Z</time>
      </trkpt>
      <trkpt lat="42.508385000" lon="-2.434092000">
        <ele>434.40</ele>
        <time>2016-10-15T05:53:40Z</time>
      </trkpt>
      <trkpt lat="42.508422000" lon="-2.434077000">
        <ele>434.50</ele>
        <time>2016-10-15T05:53:41Z</time>
      </trkpt>
      <trkpt lat="42.508457000" lon="-2.434059000">
        <ele>434.50</ele>
        <time>2016-10-15T05:53:42Z</time>
      </trkpt>
      <trkpt lat="42.508491000" lon="-2.434045000">
        <ele>434.60</ele>
        <time>2016-10-15T05:53:43Z</time>
      </trkpt>
      <trkpt lat="42.508526000" lon="-2.434034000">
        <ele>434.70</ele>
        <time>2016-10-15T05:53:44Z</time>
      </trkpt>
      <trkpt lat="42.508558000" lon="-2.434022000">
        <ele>434.60</ele>
        <time>2016-10-15T05:53:45Z</time>
      </trkpt>
      <trkpt lat="42.508589000" lon="-2.434013000">
        <ele>434.50</ele>
        <time>2016-10-15T05:53:46Z</time>
      </trkpt>
      <trkpt lat="42.508620000" lon="-2.434006000">
        <ele>434.40</ele>
        <time>2016-10-15T05:53:47Z</time>
      </trkpt>
      <trkpt lat="42.508652000" lon="-2.433996000">
        <ele>434.30</ele>
        <time>2016-10-15T05:53:48Z</time>
      </trkpt>
      <trkpt lat="42.508685000" lon="-2.433986000">
        <ele>434.30</ele>
        <time>2016-10-15T05:53:49Z</time>
      </trkpt>
      <trkpt lat="42.508720000" lon="-2.433977000">
        <ele>434.20</ele>
        <time>2016-10-15T05:53:50Z</time>
      </trkpt>
      <trkpt lat="42.508753000" lon="-2.433968000">
        <ele>434.20</ele>
        <time>2016-10-15T05:53:51Z</time>
      </trkpt>
      <trkpt lat="42.508783000" lon="-2.433961000">
        <ele>434.20</ele>
        <time>2016-10-15T05:53:52Z</time>
      </trkpt>
      <trkpt lat="42.508813000" lon="-2.433954000">
        <ele>434.30</ele>
        <time>2016-10-15T05:53:53Z</time>
      </trkpt>
      <trkpt lat="42.508841000" lon="-2.433945000">
        <ele>434.40</ele>
        <time>2016-10-15T05:53:54Z</time>
      </trkpt>
      <trkpt lat="42.508868000" lon="-2.433935000">
        <ele>434.50</ele>
        <time>2016-10-15T05:53:55Z</time>
      </trkpt>
      <trkpt lat="42.508899000" lon="-2.433924000">
        <ele>434.60</ele>
        <time>2016-10-15T05:53:56Z</time>
      </trkpt>
      <trkpt lat="42.508928000" lon="-2.433914000">
        <ele>434.70</ele>
        <time>2016-10-15T05:53:57Z</time>
      </trkpt>
      <trkpt lat="42.508959000" lon="-2.433906000">
        <ele>434.80</ele>
        <time>2016-10-15T05:53:58Z</time>
      </trkpt>
      <trkpt lat="42.508988000" lon="-2.433897000">
        <ele>435.00</ele>
        <time>2016-10-15T05:53:59Z</time>
      </trkpt>
      <trkpt lat="42.509015000" lon="-2.433885000">
        <ele>435.20</ele>
        <time>2016-10-15T05:54:00Z</time>
      </trkpt>
      <trkpt lat="42.509042000" lon="-2.433877000">
        <ele>435.30</ele>
        <time>2016-10-15T05:54:01Z</time>
      </trkpt>
      <trkpt lat="42.509071000" lon="-2.433868000">
        <ele>435.40</ele>
        <time>2016-10-15T05:54:02Z</time>
      </trkpt>
      <trkpt lat="42.509100000" lon="-2.433860000">
        <ele>435.50</ele>
        <time>2016-10-15T05:54:03Z</time>
      </trkpt>
      <trkpt lat="42.509131000" lon="-2.433856000">
        <ele>435.50</ele>
        <time>2016-10-15T05:54:04Z</time>
      </trkpt>
      <trkpt lat="42.509162000" lon="-2.433851000">
        <ele>435.70</ele>
        <time>2016-10-15T05:54:05Z</time>
      </trkpt>
      <trkpt lat="42.509191000" lon="-2.433850000">
        <ele>435.90</ele>
        <time>2016-10-15T05:54:06Z</time>
      </trkpt>
      <trkpt lat="42.509220000" lon="-2.433846000">
        <ele>436.40</ele>
        <time>2016-10-15T05:54:07Z</time>
      </trkpt>
      <trkpt lat="42.509248000" lon="-2.433834000">
        <ele>436.80</ele>
        <time>2016-10-15T05:54:08Z</time>
      </trkpt>
      <trkpt lat="42.509271000" lon="-2.433814000">
        <ele>437.40</ele>
        <time>2016-10-15T05:54:09Z</time>
      </trkpt>
      <trkpt lat="42.509293000" lon="-2.433795000">
        <ele>437.70</ele>
        <time>2016-10-15T05:54:10Z</time>
      </trkpt>
      <trkpt lat="42.509310000" lon="-2.433771000">
        <ele>438.00</ele>
        <time>2016-10-15T05:54:11Z</time>
      </trkpt>
      <trkpt lat="42.509328000" lon="-2.433752000">
        <ele>438.20</ele>
        <time>2016-10-15T05:54:12Z</time>
      </trkpt>
      <trkpt lat="42.509342000" lon="-2.433731000">
        <ele>438.50</ele>
        <time>2016-10-15T05:54:13Z</time>
      </trkpt>
      <trkpt lat="42.509357000" lon="-2.433712000">
        <ele>438.70</ele>
        <time>2016-10-15T05:54:14Z</time>
      </trkpt>
      <trkpt lat="42.509367000" lon="-2.433692000">
        <ele>439.00</ele>
        <time>2016-10-15T05:54:15Z</time>
      </trkpt>
      <trkpt lat="42.509382000" lon="-2.433676000">
        <ele>439.20</ele>
        <time>2016-10-15T05:54:16Z</time>
      </trkpt>
      <trkpt lat="42.509400000" lon="-2.433659000">
        <ele>439.30</ele>
        <time>2016-10-15T05:54:17Z</time>
      </trkpt>
      <trkpt lat="42.509418000" lon="-2.433637000">
        <ele>439.40</ele>
        <time>2016-10-15T05:54:18Z</time>
      </trkpt>
      <trkpt lat="42.509435000" lon="-2.433618000">
        <ele>439.60</ele>
        <time>2016-10-15T05:54:19Z</time>
      </trkpt>
      <trkpt lat="42.509452000" lon="-2.433606000">
        <ele>439.80</ele>
        <time>2016-10-15T05:54:20Z</time>
      </trkpt>
      <trkpt lat="42.509468000" lon="-2.433590000">
        <ele>439.90</ele>
        <time>2016-10-15T05:54:21Z</time>
      </trkpt>
      <trkpt lat="42.509483000" lon="-2.433570000">
        <ele>440.00</ele>
        <time>2016-10-15T05:54:22Z</time>
      </trkpt>
      <trkpt lat="42.509499000" lon="-2.433553000">
        <ele>440.10</ele>
        <time>2016-10-15T05:54:23Z</time>
      </trkpt>
      <trkpt lat="42.509517000" lon="-2.433538000">
        <ele>440.20</ele>
        <time>2016-10-15T05:54:24Z</time>
      </trkpt>
      <trkpt lat="42.509535000" lon="-2.433520000">
        <ele>440.10</ele>
        <time>2016-10-15T05:54:25Z</time>
      </trkpt>
      <trkpt lat="42.509552000" lon="-2.433502000">
        <ele>440.10</ele>
        <time>2016-10-15T05:54:26Z</time>
      </trkpt>
      <trkpt lat="42.509571000" lon="-2.433479000">
        <ele>440.00</ele>
        <time>2016-10-15T05:54:27Z</time>
      </trkpt>
      <trkpt lat="42.509589000" lon="-2.433459000">
        <ele>440.00</ele>
        <time>2016-10-15T05:54:28Z</time>
      </trkpt>
      <trkpt lat="42.509610000" lon="-2.433437000">
        <ele>440.10</ele>
        <time>2016-10-15T05:54:29Z</time>
      </trkpt>
      <trkpt lat="42.509630000" lon="-2.433414000">
        <ele>440.20</ele>
        <time>2016-10-15T05:54:30Z</time>
      </trkpt>
      <trkpt lat="42.509652000" lon="-2.433393000">
        <ele>440.20</ele>
        <time>2016-10-15T05:54:31Z</time>
      </trkpt>
      <trkpt lat="42.509675000" lon="-2.433371000">
        <ele>440.20</ele>
        <time>2016-10-15T05:54:32Z</time>
      </trkpt>
      <trkpt lat="42.509695000" lon="-2.433350000">
        <ele>440.40</ele>
        <time>2016-10-15T05:54:33Z</time>
      </trkpt>
      <trkpt lat="42.509715000" lon="-2.433324000">
        <ele>440.50</ele>
        <time>2016-10-15T05:54:34Z</time>
      </trkpt>
      <trkpt lat="42.509737000" lon="-2.433302000">
        <ele>440.60</ele>
        <time>2016-10-15T05:54:35Z</time>
      </trkpt>
      <trkpt lat="42.509758000" lon="-2.433279000">
        <ele>440.70</ele>
        <time>2016-10-15T05:54:36Z</time>
      </trkpt>
      <trkpt lat="42.509780000" lon="-2.433252000">
        <ele>440.70</ele>
        <time>2016-10-15T05:54:37Z</time>
      </trkpt>
      <trkpt lat="42.509804000" lon="-2.433227000">
        <ele>440.80</ele>
        <time>2016-10-15T05:54:38Z</time>
      </trkpt>
      <trkpt lat="42.509856000" lon="-2.433182000">
        <ele>440.80</ele>
        <time>2016-10-15T05:54:40Z</time>
      </trkpt>
      <trkpt lat="42.509881000" lon="-2.433161000">
        <ele>440.80</ele>
        <time>2016-10-15T05:54:41Z</time>
      </trkpt>
      <trkpt lat="42.509907000" lon="-2.433145000">
        <ele>440.80</ele>
        <time>2016-10-15T05:54:42Z</time>
      </trkpt>
      <trkpt lat="42.509936000" lon="-2.433128000">
        <ele>440.80</ele>
        <time>2016-10-15T05:54:43Z</time>
      </trkpt>
      <trkpt lat="42.509965000" lon="-2.433115000">
        <ele>440.70</ele>
        <time>2016-10-15T05:54:44Z</time>
      </trkpt>
      <trkpt lat="42.509994000" lon="-2.433095000">
        <ele>440.60</ele>
        <time>2016-10-15T05:54:45Z</time>
      </trkpt>
      <trkpt lat="42.510027000" lon="-2.433078000">
        <ele>440.60</ele>
        <time>2016-10-15T05:54:46Z</time>
      </trkpt>
      <trkpt lat="42.510053000" lon="-2.433054000">
        <ele>440.50</ele>
        <time>2016-10-15T05:54:47Z</time>
      </trkpt>
      <trkpt lat="42.510079000" lon="-2.433032000">
        <ele>440.50</ele>
        <time>2016-10-15T05:54:48Z</time>
      </trkpt>
      <trkpt lat="42.510106000" lon="-2.433018000">
        <ele>440.50</ele>
        <time>2016-10-15T05:54:49Z</time>
      </trkpt>
      <trkpt lat="42.510132000" lon="-2.433003000">
        <ele>440.50</ele>
        <time>2016-10-15T05:54:50Z</time>
      </trkpt>
      <trkpt lat="42.510160000" lon="-2.432987000">
        <ele>440.60</ele>
        <time>2016-10-15T05:54:51Z</time>
      </trkpt>
      <trkpt lat="42.510185000" lon="-2.432969000">
        <ele>440.70</ele>
        <time>2016-10-15T05:54:52Z</time>
      </trkpt>
      <trkpt lat="42.510213000" lon="-2.432951000">
        <ele>440.70</ele>
        <time>2016-10-15T05:54:53Z</time>
      </trkpt>
      <trkpt lat="42.510241000" lon="-2.432938000">
        <ele>440.80</ele>
        <time>2016-10-15T05:54:54Z</time>
      </trkpt>
      <trkpt lat="42.510269000" lon="-2.432927000">
        <ele>440.80</ele>
        <time>2016-10-15T05:54:55Z</time>
      </trkpt>
      <trkpt lat="42.510297000" lon="-2.432911000">
        <ele>440.80</ele>
        <time>2016-10-15T05:54:56Z</time>
      </trkpt>
      <trkpt lat="42.510324000" lon="-2.432893000">
        <ele>440.80</ele>
        <time>2016-10-15T05:54:57Z</time>
      </trkpt>
      <trkpt lat="42.510352000" lon="-2.432879000">
        <ele>440.80</ele>
        <time>2016-10-15T05:54:58Z</time>
      </trkpt>
      <trkpt lat="42.510380000" lon="-2.432861000">
        <ele>440.90</ele>
        <time>2016-10-15T05:54:59Z</time>
      </trkpt>
      <trkpt lat="42.510404000" lon="-2.432837000">
        <ele>440.90</ele>
        <time>2016-10-15T05:55:00Z</time>
      </trkpt>
      <trkpt lat="42.510430000" lon="-2.432824000">
        <ele>440.90</ele>
        <time>2016-10-15T05:55:01Z</time>
      </trkpt>
      <trkpt lat="42.510453000" lon="-2.432811000">
        <ele>440.90</ele>
        <time>2016-10-15T05:55:02Z</time>
      </trkpt>
      <trkpt lat="42.510480000" lon="-2.432793000">
        <ele>440.90</ele>
        <time>2016-10-15T05:55:03Z</time>
      </trkpt>
      <trkpt lat="42.510506000" lon="-2.432776000">
        <ele>441.00</ele>
        <time>2016-10-15T05:55:04Z</time>
      </trkpt>
      <trkpt lat="42.510534000" lon="-2.432763000">
        <ele>441.00</ele>
        <time>2016-10-15T05:55:05Z</time>
      </trkpt>
      <trkpt lat="42.510563000" lon="-2.432742000">
        <ele>441.10</ele>
        <time>2016-10-15T05:55:06Z</time>
      </trkpt>
      <trkpt lat="42.510590000" lon="-2.432725000">
        <ele>441.10</ele>
        <time>2016-10-15T05:55:07Z</time>
      </trkpt>
      <trkpt lat="42.510617000" lon="-2.432709000">
        <ele>441.10</ele>
        <time>2016-10-15T05:55:08Z</time>
      </trkpt>
      <trkpt lat="42.510648000" lon="-2.432694000">
        <ele>441.00</ele>
        <time>2016-10-15T05:55:09Z</time>
      </trkpt>
      <trkpt lat="42.510679000" lon="-2.432675000">
        <ele>440.90</ele>
        <time>2016-10-15T05:55:10Z</time>
      </trkpt>
      <trkpt lat="42.510706000" lon="-2.432659000">
        <ele>440.90</ele>
        <time>2016-10-15T05:55:11Z</time>
      </trkpt>
      <trkpt lat="42.510734000" lon="-2.432641000">
        <ele>440.80</ele>
        <time>2016-10-15T05:55:12Z</time>
      </trkpt>
      <trkpt lat="42.510759000" lon="-2.432625000">
        <ele>441.00</ele>
        <time>2016-10-15T05:55:13Z</time>
      </trkpt>
      <trkpt lat="42.510787000" lon="-2.432611000">
        <ele>441.10</ele>
        <time>2016-10-15T05:55:14Z</time>
      </trkpt>
      <trkpt lat="42.510815000" lon="-2.432593000">
        <ele>441.20</ele>
        <time>2016-10-15T05:55:15Z</time>
      </trkpt>
      <trkpt lat="42.510841000" lon="-2.432578000">
        <ele>441.20</ele>
        <time>2016-10-15T05:55:16Z</time>
      </trkpt>
      <trkpt lat="42.510869000" lon="-2.432559000">
        <ele>441.30</ele>
        <time>2016-10-15T05:55:17Z</time>
      </trkpt>
      <trkpt lat="42.510896000" lon="-2.432541000">
        <ele>441.30</ele>
        <time>2016-10-15T05:55:18Z</time>
      </trkpt>
      <trkpt lat="42.510922000" lon="-2.432527000">
        <ele>441.30</ele>
        <time>2016-10-15T05:55:19Z</time>
      </trkpt>
      <trkpt lat="42.510949000" lon="-2.432514000">
        <ele>441.30</ele>
        <time>2016-10-15T05:55:20Z</time>
      </trkpt>
      <trkpt lat="42.510976000" lon="-2.432503000">
        <ele>441.50</ele>
        <time>2016-10-15T05:55:21Z</time>
      </trkpt>
      <trkpt lat="42.511002000" lon="-2.432491000">
        <ele>441.60</ele>
        <time>2016-10-15T05:55:22Z</time>
      </trkpt>
      <trkpt lat="42.511027000" lon="-2.432483000">
        <ele>441.70</ele>
        <time>2016-10-15T05:55:23Z</time>
      </trkpt>
      <trkpt lat="42.511053000" lon="-2.432475000">
        <ele>441.90</ele>
        <time>2016-10-15T05:55:24Z</time>
      </trkpt>
      <trkpt lat="42.511078000" lon="-2.432475000">
        <ele>441.90</ele>
        <time>2016-10-15T05:55:25Z</time>
      </trkpt>
      <trkpt lat="42.511106000" lon="-2.432481000">
        <ele>442.00</ele>
        <time>2016-10-15T05:55:26Z</time>
      </trkpt>
      <trkpt lat="42.511133000" lon="-2.432484000">
        <ele>442.20</ele>
        <time>2016-10-15T05:55:27Z</time>
      </trkpt>
      <trkpt lat="42.511161000" lon="-2.432488000">
        <ele>442.40</ele>
        <time>2016-10-15T05:55:28Z</time>
      </trkpt>
      <trkpt lat="42.511190000" lon="-2.432494000">
        <ele>442.70</ele>
        <time>2016-10-15T05:55:29Z</time>
      </trkpt>
      <trkpt lat="42.511218000" lon="-2.432496000">
        <ele>442.90</ele>
        <time>2016-10-15T05:55:30Z</time>
      </trkpt>
      <trkpt lat="42.511246000" lon="-2.432505000">
        <ele>443.00</ele>
        <time>2016-10-15T05:55:31Z</time>
      </trkpt>
      <trkpt lat="42.511272000" lon="-2.432514000">
        <ele>443.10</ele>
        <time>2016-10-15T05:55:32Z</time>
      </trkpt>
      <trkpt lat="42.511300000" lon="-2.432523000">
        <ele>443.10</ele>
        <time>2016-10-15T05:55:33Z</time>
      </trkpt>
      <trkpt lat="42.511327000" lon="-2.432530000">
        <ele>443.10</ele>
        <time>2016-10-15T05:55:34Z</time>
      </trkpt>
      <trkpt lat="42.511356000" lon="-2.432544000">
        <ele>443.00</ele>
        <time>2016-10-15T05:55:35Z</time>
      </trkpt>
      <trkpt lat="42.511386000" lon="-2.432558000">
        <ele>443.00</ele>
        <time>2016-10-15T05:55:36Z</time>
      </trkpt>
      <trkpt lat="42.511414000" lon="-2.432570000">
        <ele>443.10</ele>
        <time>2016-10-15T05:55:37Z</time>
      </trkpt>
      <trkpt lat="42.511439000" lon="-2.432580000">
        <ele>443.10</ele>
        <time>2016-10-15T05:55:38Z</time>
      </trkpt>
      <trkpt lat="42.511467000" lon="-2.432593000">
        <ele>443.10</ele>
        <time>2016-10-15T05:55:39Z</time>
      </trkpt>
      <trkpt lat="42.511517000" lon="-2.432630000">
        <ele>443.20</ele>
        <time>2016-10-15T05:55:41Z</time>
      </trkpt>
      <trkpt lat="42.511542000" lon="-2.432648000">
        <ele>443.20</ele>
        <time>2016-10-15T05:55:42Z</time>
      </trkpt>
      <trkpt lat="42.511566000" lon="-2.432663000">
        <ele>443.40</ele>
        <time>2016-10-15T05:55:43Z</time>
      </trkpt>
      <trkpt lat="42.511588000" lon="-2.432680000">
        <ele>443.50</ele>
        <time>2016-10-15T05:55:44Z</time>
      </trkpt>
      <trkpt lat="42.511613000" lon="-2.432696000">
        <ele>443.70</ele>
        <time>2016-10-15T05:55:45Z</time>
      </trkpt>
      <trkpt lat="42.511639000" lon="-2.432715000">
        <ele>443.90</ele>
        <time>2016-10-15T05:55:46Z</time>
      </trkpt>
      <trkpt lat="42.511665000" lon="-2.432734000">
        <ele>444.00</ele>
        <time>2016-10-15T05:55:47Z</time>
      </trkpt>
      <trkpt lat="42.511687000" lon="-2.432756000">
        <ele>444.00</ele>
        <time>2016-10-15T05:55:48Z</time>
      </trkpt>
      <trkpt lat="42.511709000" lon="-2.432778000">
        <ele>444.30</ele>
        <time>2016-10-15T05:55:49Z</time>
      </trkpt>
      <trkpt lat="42.511733000" lon="-2.432796000">
        <ele>444.50</ele>
        <time>2016-10-15T05:55:50Z</time>
      </trkpt>
      <trkpt lat="42.511755000" lon="-2.432814000">
        <ele>444.70</ele>
        <time>2016-10-15T05:55:51Z</time>
      </trkpt>
      <trkpt lat="42.511775000" lon="-2.432835000">
        <ele>444.80</ele>
        <time>2016-10-15T05:55:52Z</time>
      </trkpt>
      <trkpt lat="42.511799000" lon="-2.432859000">
        <ele>445.00</ele>
        <time>2016-10-15T05:55:53Z</time>
      </trkpt>
      <trkpt lat="42.511822000" lon="-2.432878000">
        <ele>445.10</ele>
        <time>2016-10-15T05:55:54Z</time>
      </trkpt>
      <trkpt lat="42.511843000" lon="-2.432897000">
        <ele>445.20</ele>
        <time>2016-10-15T05:55:55Z</time>
      </trkpt>
      <trkpt lat="42.511870000" lon="-2.432916000">
        <ele>445.30</ele>
        <time>2016-10-15T05:55:56Z</time>
      </trkpt>
      <trkpt lat="42.511894000" lon="-2.432931000">
        <ele>445.40</ele>
        <time>2016-10-15T05:55:57Z</time>
      </trkpt>
      <trkpt lat="42.511921000" lon="-2.432949000">
        <ele>445.50</ele>
        <time>2016-10-15T05:55:58Z</time>
      </trkpt>
      <trkpt lat="42.511945000" lon="-2.432971000">
        <ele>445.70</ele>
        <time>2016-10-15T05:55:59Z</time>
      </trkpt>
      <trkpt lat="42.511969000" lon="-2.432990000">
        <ele>445.80</ele>
        <time>2016-10-15T05:56:00Z</time>
      </trkpt>
      <trkpt lat="42.511989000" lon="-2.433014000">
        <ele>446.00</ele>
        <time>2016-10-15T05:56:01Z</time>
      </trkpt>
      <trkpt lat="42.512011000" lon="-2.433036000">
        <ele>446.20</ele>
        <time>2016-10-15T05:56:02Z</time>
      </trkpt>
      <trkpt lat="42.512033000" lon="-2.433058000">
        <ele>446.50</ele>
        <time>2016-10-15T05:56:03Z</time>
      </trkpt>
      <trkpt lat="42.512056000" lon="-2.433079000">
        <ele>446.80</ele>
        <time>2016-10-15T05:56:04Z</time>
      </trkpt>
      <trkpt lat="42.512077000" lon="-2.433099000">
        <ele>447.00</ele>
        <time>2016-10-15T05:56:05Z</time>
      </trkpt>
      <trkpt lat="42.512103000" lon="-2.433116000">
        <ele>447.10</ele>
        <time>2016-10-15T05:56:06Z</time>
      </trkpt>
      <trkpt lat="42.512127000" lon="-2.433131000">
        <ele>447.30</ele>
        <time>2016-10-15T05:56:07Z</time>
      </trkpt>
      <trkpt lat="42.512151000" lon="-2.433148000">
        <ele>447.50</ele>
        <time>2016-10-15T05:56:08Z</time>
      </trkpt>
      <trkpt lat="42.512172000" lon="-2.433166000">
        <ele>447.70</ele>
        <time>2016-10-15T05:56:09Z</time>
      </trkpt>
      <trkpt lat="42.512194000" lon="-2.433182000">
        <ele>447.80</ele>
        <time>2016-10-15T05:56:10Z</time>
      </trkpt>
      <trkpt lat="42.512218000" lon="-2.433195000">
        <ele>447.90</ele>
        <time>2016-10-15T05:56:11Z</time>
      </trkpt>
      <trkpt lat="42.512243000" lon="-2.433212000">
        <ele>447.90</ele>
        <time>2016-10-15T05:56:12Z</time>
      </trkpt>
      <trkpt lat="42.512268000" lon="-2.433229000">
        <ele>448.30</ele>
        <time>2016-10-15T05:56:13Z</time>
      </trkpt>
      <trkpt lat="42.512293000" lon="-2.433243000">
        <ele>448.50</ele>
        <time>2016-10-15T05:56:14Z</time>
      </trkpt>
      <trkpt lat="42.512316000" lon="-2.433259000">
        <ele>448.70</ele>
        <time>2016-10-15T05:56:15Z</time>
      </trkpt>
      <trkpt lat="42.512343000" lon="-2.433272000">
        <ele>448.90</ele>
        <time>2016-10-15T05:56:16Z</time>
      </trkpt>
      <trkpt lat="42.512368000" lon="-2.433288000">
        <ele>449.10</ele>
        <time>2016-10-15T05:56:17Z</time>
      </trkpt>
      <trkpt lat="42.512391000" lon="-2.433303000">
        <ele>449.20</ele>
        <time>2016-10-15T05:56:18Z</time>
      </trkpt>
      <trkpt lat="42.512416000" lon="-2.433314000">
        <ele>449.30</ele>
        <time>2016-10-15T05:56:19Z</time>
      </trkpt>
      <trkpt lat="42.512438000" lon="-2.433328000">
        <ele>449.40</ele>
        <time>2016-10-15T05:56:20Z</time>
      </trkpt>
      <trkpt lat="42.512459000" lon="-2.433342000">
        <ele>449.50</ele>
        <time>2016-10-15T05:56:21Z</time>
      </trkpt>
      <trkpt lat="42.512483000" lon="-2.433354000">
        <ele>449.60</ele>
        <time>2016-10-15T05:56:22Z</time>
      </trkpt>
      <trkpt lat="42.512503000" lon="-2.433366000">
        <ele>450.00</ele>
        <time>2016-10-15T05:56:23Z</time>
      </trkpt>
      <trkpt lat="42.512527000" lon="-2.433381000">
        <ele>450.20</ele>
        <time>2016-10-15T05:56:24Z</time>
      </trkpt>
      <trkpt lat="42.512549000" lon="-2.433393000">
        <ele>450.50</ele>
        <time>2016-10-15T05:56:25Z</time>
      </trkpt>
      <trkpt lat="42.512574000" lon="-2.433403000">
        <ele>450.70</ele>
        <time>2016-10-15T05:56:26Z</time>
      </trkpt>
      <trkpt lat="42.512599000" lon="-2.433410000">
        <ele>450.80</ele>
        <time>2016-10-15T05:56:27Z</time>
      </trkpt>
      <trkpt lat="42.512622000" lon="-2.433416000">
        <ele>450.90</ele>
        <time>2016-10-15T05:56:28Z</time>
      </trkpt>
      <trkpt lat="42.512644000" lon="-2.433421000">
        <ele>451.20</ele>
        <time>2016-10-15T05:56:29Z</time>
      </trkpt>
      <trkpt lat="42.512662000" lon="-2.433430000">
        <ele>451.40</ele>
        <time>2016-10-15T05:56:30Z</time>
      </trkpt>
      <trkpt lat="42.512683000" lon="-2.433439000">
        <ele>451.60</ele>
        <time>2016-10-15T05:56:31Z</time>
      </trkpt>
      <trkpt lat="42.512705000" lon="-2.433446000">
        <ele>451.80</ele>
        <time>2016-10-15T05:56:32Z</time>
      </trkpt>
      <trkpt lat="42.512726000" lon="-2.433452000">
        <ele>452.00</ele>
        <time>2016-10-15T05:56:33Z</time>
      </trkpt>
      <trkpt lat="42.512747000" lon="-2.433454000">
        <ele>452.10</ele>
        <time>2016-10-15T05:56:34Z</time>
      </trkpt>
      <trkpt lat="42.512768000" lon="-2.433454000">
        <ele>452.30</ele>
        <time>2016-10-15T05:56:35Z</time>
      </trkpt>
      <trkpt lat="42.512790000" lon="-2.433457000">
        <ele>452.40</ele>
        <time>2016-10-15T05:56:36Z</time>
      </trkpt>
      <trkpt lat="42.512813000" lon="-2.433461000">
        <ele>452.80</ele>
        <time>2016-10-15T05:56:37Z</time>
      </trkpt>
      <trkpt lat="42.512836000" lon="-2.433461000">
        <ele>453.20</ele>
        <time>2016-10-15T05:56:38Z</time>
      </trkpt>
      <trkpt lat="42.512859000" lon="-2.433458000">
        <ele>453.50</ele>
        <time>2016-10-15T05:56:39Z</time>
      </trkpt>
      <trkpt lat="42.512882000" lon="-2.433454000">
        <ele>453.70</ele>
        <time>2016-10-15T05:56:40Z</time>
      </trkpt>
      <trkpt lat="42.512925000" lon="-2.433446000">
        <ele>454.10</ele>
        <time>2016-10-15T05:56:42Z</time>
      </trkpt>
      <trkpt lat="42.512948000" lon="-2.433437000">
        <ele>454.20</ele>
        <time>2016-10-15T05:56:43Z</time>
      </trkpt>
      <trkpt lat="42.512970000" lon="-2.433428000">
        <ele>454.40</ele>
        <time>2016-10-15T05:56:44Z</time>
      </trkpt>
      <trkpt lat="42.512990000" lon="-2.433421000">
        <ele>454.50</ele>
        <time>2016-10-15T05:56:45Z</time>
      </trkpt>
      <trkpt lat="42.513011000" lon="-2.433409000">
        <ele>454.60</ele>
        <time>2016-10-15T05:56:46Z</time>
      </trkpt>
      <trkpt lat="42.513034000" lon="-2.433401000">
        <ele>454.90</ele>
        <time>2016-10-15T05:56:47Z</time>
      </trkpt>
      <trkpt lat="42.513055000" lon="-2.433391000">
        <ele>455.10</ele>
        <time>2016-10-15T05:56:48Z</time>
      </trkpt>
      <trkpt lat="42.513081000" lon="-2.433383000">
        <ele>455.30</ele>
        <time>2016-10-15T05:56:49Z</time>
      </trkpt>
      <trkpt lat="42.513104000" lon="-2.433373000">
        <ele>455.40</ele>
        <time>2016-10-15T05:56:50Z</time>
      </trkpt>
      <trkpt lat="42.513127000" lon="-2.433367000">
        <ele>455.70</ele>
        <time>2016-10-15T05:56:51Z</time>
      </trkpt>
      <trkpt lat="42.513150000" lon="-2.433358000">
        <ele>455.90</ele>
        <time>2016-10-15T05:56:52Z</time>
      </trkpt>
      <trkpt lat="42.513171000" lon="-2.433346000">
        <ele>456.20</ele>
        <time>2016-10-15T05:56:53Z</time>
      </trkpt>
      <trkpt lat="42.513192000" lon="-2.433338000">
        <ele>456.40</ele>
        <time>2016-10-15T05:56:54Z</time>
      </trkpt>
      <trkpt lat="42.513214000" lon="-2.433328000">
        <ele>456.60</ele>
        <time>2016-10-15T05:56:55Z</time>
      </trkpt>
      <trkpt lat="42.513238000" lon="-2.433320000">
        <ele>456.90</ele>
        <time>2016-10-15T05:56:56Z</time>
      </trkpt>
      <trkpt lat="42.513259000" lon="-2.433312000">
        <ele>457.10</ele>
        <time>2016-10-15T05:56:57Z</time>
      </trkpt>
      <trkpt lat="42.513282000" lon="-2.433307000">
        <ele>457.30</ele>
        <time>2016-10-15T05:56:58Z</time>
      </trkpt>
      <trkpt lat="42.513305000" lon="-2.433298000">
        <ele>457.40</ele>
        <time>2016-10-15T05:56:59Z</time>
      </trkpt>
      <trkpt lat="42.513328000" lon="-2.433289000">
        <ele>457.60</ele>
        <time>2016-10-15T05:57:00Z</time>
      </trkpt>
      <trkpt lat="42.513348000" lon="-2.433282000">
        <ele>457.70</ele>
        <time>2016-10-15T05:57:01Z</time>
      </trkpt>
      <trkpt lat="42.513367000" lon="-2.433270000">
        <ele>457.80</ele>
        <time>2016-10-15T05:57:02Z</time>
      </trkpt>
      <trkpt lat="42.513390000" lon="-2.433262000">
        <ele>458.00</ele>
        <time>2016-10-15T05:57:03Z</time>
      </trkpt>
      <trkpt lat="42.513412000" lon="-2.433252000">
        <ele>458.10</ele>
        <time>2016-10-15T05:57:04Z</time>
      </trkpt>
      <trkpt lat="42.513433000" lon="-2.433246000">
        <ele>458.40</ele>
        <time>2016-10-15T05:57:05Z</time>
      </trkpt>
      <trkpt lat="42.513451000" lon="-2.433244000">
        <ele>458.60</ele>
        <time>2016-10-15T05:57:06Z</time>
      </trkpt>
      <trkpt lat="42.513467000" lon="-2.433246000">
        <ele>459.00</ele>
        <time>2016-10-15T05:57:07Z</time>
      </trkpt>
      <trkpt lat="42.513485000" lon="-2.433243000">
        <ele>459.30</ele>
        <time>2016-10-15T05:57:08Z</time>
      </trkpt>
      <trkpt lat="42.513505000" lon="-2.433237000">
        <ele>459.50</ele>
        <time>2016-10-15T05:57:09Z</time>
      </trkpt>
      <trkpt lat="42.513525000" lon="-2.433231000">
        <ele>459.60</ele>
        <time>2016-10-15T05:57:10Z</time>
      </trkpt>
      <trkpt lat="42.513543000" lon="-2.433229000">
        <ele>459.80</ele>
        <time>2016-10-15T05:57:11Z</time>
      </trkpt>
      <trkpt lat="42.513563000" lon="-2.433229000">
        <ele>459.90</ele>
        <time>2016-10-15T05:57:12Z</time>
      </trkpt>
      <trkpt lat="42.513583000" lon="-2.433230000">
        <ele>460.20</ele>
        <time>2016-10-15T05:57:13Z</time>
      </trkpt>
      <trkpt lat="42.513603000" lon="-2.433227000">
        <ele>460.50</ele>
        <time>2016-10-15T05:57:14Z</time>
      </trkpt>
      <trkpt lat="42.513626000" lon="-2.433226000">
        <ele>460.70</ele>
        <time>2016-10-15T05:57:15Z</time>
      </trkpt>
      <trkpt lat="42.513646000" lon="-2.433225000">
        <ele>460.90</ele>
        <time>2016-10-15T05:57:16Z</time>
      </trkpt>
      <trkpt lat="42.513665000" lon="-2.433219000">
        <ele>461.00</ele>
        <time>2016-10-15T05:57:17Z</time>
      </trkpt>
      <trkpt lat="42.513687000" lon="-2.433215000">
        <ele>461.10</ele>
        <time>2016-10-15T05:57:18Z</time>
      </trkpt>
      <trkpt lat="42.513710000" lon="-2.433216000">
        <ele>461.20</ele>
        <time>2016-10-15T05:57:19Z</time>
      </trkpt>
      <trkpt lat="42.513731000" lon="-2.433209000">
        <ele>461.20</ele>
        <time>2016-10-15T05:57:20Z</time>
      </trkpt>
      <trkpt lat="42.513751000" lon="-2.433204000">
        <ele>461.50</ele>
        <time>2016-10-15T05:57:21Z</time>
      </trkpt>
      <trkpt lat="42.513774000" lon="-2.433202000">
        <ele>461.70</ele>
        <time>2016-10-15T05:57:22Z</time>
      </trkpt>
      <trkpt lat="42.513794000" lon="-2.433203000">
        <ele>461.80</ele>
        <time>2016-10-15T05:57:23Z</time>
      </trkpt>
      <trkpt lat="42.513813000" lon="-2.433203000">
        <ele>461.90</ele>
        <time>2016-10-15T05:57:24Z</time>
      </trkpt>
      <trkpt lat="42.513832000" lon="-2.433198000">
        <ele>462.00</ele>
        <time>2016-10-15T05:57:25Z</time>
      </trkpt>
      <trkpt lat="42.513854000" lon="-2.433194000">
        <ele>462.00</ele>
        <time>2016-10-15T05:57:26Z</time>
      </trkpt>
      <trkpt lat="42.513876000" lon="-2.433190000">
        <ele>462.30</ele>
        <time>2016-10-15T05:57:27Z</time>
      </trkpt>
      <trkpt lat="42.513895000" lon="-2.433188000">
        <ele>462.60</ele>
        <time>2016-10-15T05:57:28Z</time>
      </trkpt>
      <trkpt lat="42.513917000" lon="-2.433184000">
        <ele>462.90</ele>
        <time>2016-10-15T05:57:29Z</time>
      </trkpt>
      <trkpt lat="42.513936000" lon="-2.433184000">
        <ele>463.10</ele>
        <time>2016-10-15T05:57:30Z</time>
      </trkpt>
      <trkpt lat="42.513956000" lon="-2.433180000">
        <ele>463.40</ele>
        <time>2016-10-15T05:57:31Z</time>
      </trkpt>
      <trkpt lat="42.513979000" lon="-2.433177000">
        <ele>463.60</ele>
        <time>2016-10-15T05:57:32Z</time>
      </trkpt>
      <trkpt lat="42.513997000" lon="-2.433174000">
        <ele>463.90</ele>
        <time>2016-10-15T05:57:33Z</time>
      </trkpt>
      <trkpt lat="42.514015000" lon="-2.433169000">
        <ele>464.20</ele>
        <time>2016-10-15T05:57:34Z</time>
      </trkpt>
      <trkpt lat="42.514035000" lon="-2.433162000">
        <ele>464.40</ele>
        <time>2016-10-15T05:57:35Z</time>
      </trkpt>
      <trkpt lat="42.514055000" lon="-2.433158000">
        <ele>464.60</ele>
        <time>2016-10-15T05:57:36Z</time>
      </trkpt>
      <trkpt lat="42.514073000" lon="-2.433150000">
        <ele>464.80</ele>
        <time>2016-10-15T05:57:37Z</time>
      </trkpt>
      <trkpt lat="42.514090000" lon="-2.433140000">
        <ele>465.00</ele>
        <time>2016-10-15T05:57:38Z</time>
      </trkpt>
      <trkpt lat="42.514106000" lon="-2.433134000">
        <ele>465.10</ele>
        <time>2016-10-15T05:57:39Z</time>
      </trkpt>
      <trkpt lat="42.514123000" lon="-2.433123000">
        <ele>465.20</ele>
        <time>2016-10-15T05:57:40Z</time>
      </trkpt>
      <trkpt lat="42.514140000" lon="-2.433109000">
        <ele>465.20</ele>
        <time>2016-10-15T05:57:41Z</time>
      </trkpt>
      <trkpt lat="42.514169000" lon="-2.433083000">
        <ele>465.50</ele>
        <time>2016-10-15T05:57:43Z</time>
      </trkpt>
      <trkpt lat="42.514186000" lon="-2.433072000">
        <ele>465.70</ele>
        <time>2016-10-15T05:57:44Z</time>
      </trkpt>
      <trkpt lat="42.514204000" lon="-2.433056000">
        <ele>465.90</ele>
        <time>2016-10-15T05:57:45Z</time>
      </trkpt>
      <trkpt lat="42.514223000" lon="-2.433040000">
        <ele>466.00</ele>
        <time>2016-10-15T05:57:46Z</time>
      </trkpt>
      <trkpt lat="42.514242000" lon="-2.433023000">
        <ele>466.10</ele>
        <time>2016-10-15T05:57:47Z</time>
      </trkpt>
      <trkpt lat="42.514257000" lon="-2.433004000">
        <ele>466.10</ele>
        <time>2016-10-15T05:57:48Z</time>
      </trkpt>
      <trkpt lat="42.514273000" lon="-2.432988000">
        <ele>466.40</ele>
        <time>2016-10-15T05:57:49Z</time>
      </trkpt>
      <trkpt lat="42.514289000" lon="-2.432971000">
        <ele>466.60</ele>
        <time>2016-10-15T05:57:50Z</time>
      </trkpt>
      <trkpt lat="42.514307000" lon="-2.432957000">
        <ele>466.80</ele>
        <time>2016-10-15T05:57:51Z</time>
      </trkpt>
      <trkpt lat="42.514324000" lon="-2.432943000">
        <ele>466.90</ele>
        <time>2016-10-15T05:57:52Z</time>
      </trkpt>
      <trkpt lat="42.514340000" lon="-2.432928000">
        <ele>467.10</ele>
        <time>2016-10-15T05:57:53Z</time>
      </trkpt>
      <trkpt lat="42.514355000" lon="-2.432912000">
        <ele>467.20</ele>
        <time>2016-10-15T05:57:54Z</time>
      </trkpt>
      <trkpt lat="42.514373000" lon="-2.432898000">
        <ele>467.40</ele>
        <time>2016-10-15T05:57:55Z</time>
      </trkpt>
      <trkpt lat="42.514387000" lon="-2.432882000">
        <ele>467.60</ele>
        <time>2016-10-15T05:57:56Z</time>
      </trkpt>
      <trkpt lat="42.514403000" lon="-2.432874000">
        <ele>467.90</ele>
        <time>2016-10-15T05:57:57Z</time>
      </trkpt>
      <trkpt lat="42.514421000" lon="-2.432855000">
        <ele>468.20</ele>
        <time>2016-10-15T05:57:58Z</time>
      </trkpt>
      <trkpt lat="42.514435000" lon="-2.432841000">
        <ele>468.50</ele>
        <time>2016-10-15T05:57:59Z</time>
      </trkpt>
      <trkpt lat="42.514452000" lon="-2.432826000">
        <ele>468.70</ele>
        <time>2016-10-15T05:58:00Z</time>
      </trkpt>
      <trkpt lat="42.514467000" lon="-2.432812000">
        <ele>468.90</ele>
        <time>2016-10-15T05:58:01Z</time>
      </trkpt>
      <trkpt lat="42.514485000" lon="-2.432800000">
        <ele>469.00</ele>
        <time>2016-10-15T05:58:02Z</time>
      </trkpt>
      <trkpt lat="42.514499000" lon="-2.432784000">
        <ele>469.30</ele>
        <time>2016-10-15T05:58:03Z</time>
      </trkpt>
      <trkpt lat="42.514515000" lon="-2.432771000">
        <ele>469.60</ele>
        <time>2016-10-15T05:58:04Z</time>
      </trkpt>
      <trkpt lat="42.514529000" lon="-2.432755000">
        <ele>469.80</ele>
        <time>2016-10-15T05:58:05Z</time>
      </trkpt>
      <trkpt lat="42.514545000" lon="-2.432744000">
        <ele>469.90</ele>
        <time>2016-10-15T05:58:06Z</time>
      </trkpt>
      <trkpt lat="42.514559000" lon="-2.432729000">
        <ele>470.00</ele>
        <time>2016-10-15T05:58:07Z</time>
      </trkpt>
      <trkpt lat="42.514574000" lon="-2.432716000">
        <ele>470.10</ele>
        <time>2016-10-15T05:58:08Z</time>
      </trkpt>
      <trkpt lat="42.514586000" lon="-2.432703000">
        <ele>470.10</ele>
        <time>2016-10-15T05:58:09Z</time>
      </trkpt>
      <trkpt lat="42.514600000" lon="-2.432690000">
        <ele>470.20</ele>
        <time>2016-10-15T05:58:10Z</time>
      </trkpt>
      <trkpt lat="42.514616000" lon="-2.432675000">
        <ele>470.30</ele>
        <time>2016-10-15T05:58:11Z</time>
      </trkpt>
      <trkpt lat="42.514632000" lon="-2.432660000">
        <ele>470.30</ele>
        <time>2016-10-15T05:58:12Z</time>
      </trkpt>
      <trkpt lat="42.514646000" lon="-2.432640000">
        <ele>470.40</ele>
        <time>2016-10-15T05:58:13Z</time>
      </trkpt>
      <trkpt lat="42.514660000" lon="-2.432627000">
        <ele>470.40</ele>
        <time>2016-10-15T05:58:14Z</time>
      </trkpt>
      <trkpt lat="42.514674000" lon="-2.432615000">
        <ele>470.50</ele>
        <time>2016-10-15T05:58:15Z</time>
      </trkpt>
      <trkpt lat="42.514689000" lon="-2.432599000">
        <ele>470.70</ele>
        <time>2016-10-15T05:58:16Z</time>
      </trkpt>
      <trkpt lat="42.514705000" lon="-2.432585000">
        <ele>470.70</ele>
        <time>2016-10-15T05:58:17Z</time>
      </trkpt>
      <trkpt lat="42.514721000" lon="-2.432571000">
        <ele>470.80</ele>
        <time>2016-10-15T05:58:18Z</time>
      </trkpt>
      <trkpt lat="42.514735000" lon="-2.432560000">
        <ele>471.10</ele>
        <time>2016-10-15T05:58:19Z</time>
      </trkpt>
      <trkpt lat="42.514751000" lon="-2.432544000">
        <ele>471.20</ele>
        <time>2016-10-15T05:58:20Z</time>
      </trkpt>
      <trkpt lat="42.514768000" lon="-2.432531000">
        <ele>471.40</ele>
        <time>2016-10-15T05:58:21Z</time>
      </trkpt>
      <trkpt lat="42.514784000" lon="-2.432516000">
        <ele>471.50</ele>
        <time>2016-10-15T05:58:22Z</time>
      </trkpt>
      <trkpt lat="42.514801000" lon="-2.432508000">
        <ele>471.60</ele>
        <time>2016-10-15T05:58:23Z</time>
      </trkpt>
      <trkpt lat="42.514819000" lon="-2.432502000">
        <ele>471.60</ele>
        <time>2016-10-15T05:58:24Z</time>
      </trkpt>
      <trkpt lat="42.514842000" lon="-2.432493000">
        <ele>471.70</ele>
        <time>2016-10-15T05:58:25Z</time>
      </trkpt>
      <trkpt lat="42.514862000" lon="-2.432483000">
        <ele>471.80</ele>
        <time>2016-10-15T05:58:26Z</time>
      </trkpt>
      <trkpt lat="42.514883000" lon="-2.432473000">
        <ele>471.90</ele>
        <time>2016-10-15T05:58:27Z</time>
      </trkpt>
      <trkpt lat="42.514906000" lon="-2.432461000">
        <ele>472.00</ele>
        <time>2016-10-15T05:58:28Z</time>
      </trkpt>
      <trkpt lat="42.514927000" lon="-2.432447000">
        <ele>472.20</ele>
        <time>2016-10-15T05:58:29Z</time>
      </trkpt>
      <trkpt lat="42.514946000" lon="-2.432437000">
        <ele>472.40</ele>
        <time>2016-10-15T05:58:30Z</time>
      </trkpt>
      <trkpt lat="42.514967000" lon="-2.432432000">
        <ele>472.40</ele>
        <time>2016-10-15T05:58:31Z</time>
      </trkpt>
      <trkpt lat="42.514987000" lon="-2.432426000">
        <ele>472.50</ele>
        <time>2016-10-15T05:58:32Z</time>
      </trkpt>
      <trkpt lat="42.515008000" lon="-2.432421000">
        <ele>472.60</ele>
        <time>2016-10-15T05:58:33Z</time>
      </trkpt>
      <trkpt lat="42.515028000" lon="-2.432418000">
        <ele>472.60</ele>
        <time>2016-10-15T05:58:34Z</time>
      </trkpt>
      <trkpt lat="42.515047000" lon="-2.432410000">
        <ele>472.80</ele>
        <time>2016-10-15T05:58:35Z</time>
      </trkpt>
      <trkpt lat="42.515066000" lon="-2.432395000">
        <ele>472.80</ele>
        <time>2016-10-15T05:58:36Z</time>
      </trkpt>
      <trkpt lat="42.515086000" lon="-2.432382000">
        <ele>473.00</ele>
        <time>2016-10-15T05:58:37Z</time>
      </trkpt>
      <trkpt lat="42.515107000" lon="-2.432367000">
        <ele>473.10</ele>
        <time>2016-10-15T05:58:38Z</time>
      </trkpt>
      <trkpt lat="42.515130000" lon="-2.432355000">
        <ele>473.10</ele>
        <time>2016-10-15T05:58:39Z</time>
      </trkpt>
      <trkpt lat="42.515149000" lon="-2.432345000">
        <ele>473.20</ele>
        <time>2016-10-15T05:58:40Z</time>
      </trkpt>
      <trkpt lat="42.515169000" lon="-2.432331000">
        <ele>473.20</ele>
        <time>2016-10-15T05:58:41Z</time>
      </trkpt>
      <trkpt lat="42.515191000" lon="-2.432315000">
        <ele>473.30</ele>
        <time>2016-10-15T05:58:42Z</time>
      </trkpt>
      <trkpt lat="42.515233000" lon="-2.432286000">
        <ele>473.40</ele>
        <time>2016-10-15T05:58:44Z</time>
      </trkpt>
      <trkpt lat="42.515257000" lon="-2.432270000">
        <ele>473.50</ele>
        <time>2016-10-15T05:58:45Z</time>
      </trkpt>
      <trkpt lat="42.515281000" lon="-2.432254000">
        <ele>473.50</ele>
        <time>2016-10-15T05:58:46Z</time>
      </trkpt>
      <trkpt lat="42.515306000" lon="-2.432243000">
        <ele>473.60</ele>
        <time>2016-10-15T05:58:47Z</time>
      </trkpt>
      <trkpt lat="42.515330000" lon="-2.432231000">
        <ele>473.70</ele>
        <time>2016-10-15T05:58:48Z</time>
      </trkpt>
      <trkpt lat="42.515358000" lon="-2.432219000">
        <ele>473.70</ele>
        <time>2016-10-15T05:58:49Z</time>
      </trkpt>
      <trkpt lat="42.515383000" lon="-2.432206000">
        <ele>473.70</ele>
        <time>2016-10-15T05:58:50Z</time>
      </trkpt>
      <trkpt lat="42.515407000" lon="-2.432197000">
        <ele>473.80</ele>
        <time>2016-10-15T05:58:51Z</time>
      </trkpt>
      <trkpt lat="42.515432000" lon="-2.432184000">
        <ele>473.90</ele>
        <time>2016-10-15T05:58:52Z</time>
      </trkpt>
      <trkpt lat="42.515458000" lon="-2.432172000">
        <ele>473.70</ele>
        <time>2016-10-15T05:58:53Z</time>
      </trkpt>
      <trkpt lat="42.515483000" lon="-2.432162000">
        <ele>473.60</ele>
        <time>2016-10-15T05:58:54Z</time>
      </trkpt>
      <trkpt lat="42.515508000" lon="-2.432152000">
        <ele>473.60</ele>
        <time>2016-10-15T05:58:55Z</time>
      </trkpt>
      <trkpt lat="42.515534000" lon="-2.432145000">
        <ele>473.50</ele>
        <time>2016-10-15T05:58:56Z</time>
      </trkpt>
      <trkpt lat="42.515557000" lon="-2.432135000">
        <ele>473.50</ele>
        <time>2016-10-15T05:58:57Z</time>
      </trkpt>
      <trkpt lat="42.515581000" lon="-2.432126000">
        <ele>473.50</ele>
        <time>2016-10-15T05:58:58Z</time>
      </trkpt>
      <trkpt lat="42.515605000" lon="-2.432115000">
        <ele>473.60</ele>
        <time>2016-10-15T05:58:59Z</time>
      </trkpt>
      <trkpt lat="42.515629000" lon="-2.432107000">
        <ele>473.80</ele>
        <time>2016-10-15T05:59:00Z</time>
      </trkpt>
      <trkpt lat="42.515654000" lon="-2.432100000">
        <ele>473.90</ele>
        <time>2016-10-15T05:59:01Z</time>
      </trkpt>
      <trkpt lat="42.515679000" lon="-2.432088000">
        <ele>473.90</ele>
        <time>2016-10-15T05:59:02Z</time>
      </trkpt>
      <trkpt lat="42.515702000" lon="-2.432082000">
        <ele>474.20</ele>
        <time>2016-10-15T05:59:03Z</time>
      </trkpt>
      <trkpt lat="42.515727000" lon="-2.432076000">
        <ele>474.40</ele>
        <time>2016-10-15T05:59:04Z</time>
      </trkpt>
      <trkpt lat="42.515750000" lon="-2.432070000">
        <ele>474.60</ele>
        <time>2016-10-15T05:59:05Z</time>
      </trkpt>
      <trkpt lat="42.515770000" lon="-2.432064000">
        <ele>474.70</ele>
        <time>2016-10-15T05:59:06Z</time>
      </trkpt>
      <trkpt lat="42.515795000" lon="-2.432057000">
        <ele>474.80</ele>
        <time>2016-10-15T05:59:07Z</time>
      </trkpt>
      <trkpt lat="42.515819000" lon="-2.432057000">
        <ele>474.90</ele>
        <time>2016-10-15T05:59:08Z</time>
      </trkpt>
      <trkpt lat="42.515839000" lon="-2.432052000">
        <ele>475.10</ele>
        <time>2016-10-15T05:59:09Z</time>
      </trkpt>
      <trkpt lat="42.515861000" lon="-2.432039000">
        <ele>475.30</ele>
        <time>2016-10-15T05:59:10Z</time>
      </trkpt>
      <trkpt lat="42.515884000" lon="-2.432035000">
        <ele>475.50</ele>
        <time>2016-10-15T05:59:11Z</time>
      </trkpt>
      <trkpt lat="42.515908000" lon="-2.432027000">
        <ele>475.70</ele>
        <time>2016-10-15T05:59:12Z</time>
      </trkpt>
      <trkpt lat="42.515930000" lon="-2.432025000">
        <ele>475.90</ele>
        <time>2016-10-15T05:59:13Z</time>
      </trkpt>
      <trkpt lat="42.515955000" lon="-2.432017000">
        <ele>476.00</ele>
        <time>2016-10-15T05:59:14Z</time>
      </trkpt>
      <trkpt lat="42.515979000" lon="-2.432015000">
        <ele>476.40</ele>
        <time>2016-10-15T05:59:15Z</time>
      </trkpt>
      <trkpt lat="42.516001000" lon="-2.432009000">
        <ele>476.70</ele>
        <time>2016-10-15T05:59:16Z</time>
      </trkpt>
      <trkpt lat="42.516027000" lon="-2.432002000">
        <ele>477.00</ele>
        <time>2016-10-15T05:59:17Z</time>
      </trkpt>
      <trkpt lat="42.516051000" lon="-2.432003000">
        <ele>477.20</ele>
        <time>2016-10-15T05:59:18Z</time>
      </trkpt>
      <trkpt lat="42.516077000" lon="-2.432001000">
        <ele>477.50</ele>
        <time>2016-10-15T05:59:19Z</time>
      </trkpt>
      <trkpt lat="42.516102000" lon="-2.432003000">
        <ele>477.60</ele>
        <time>2016-10-15T05:59:20Z</time>
      </trkpt>
      <trkpt lat="42.516126000" lon="-2.432004000">
        <ele>478.00</ele>
        <time>2016-10-15T05:59:21Z</time>
      </trkpt>
      <trkpt lat="42.516151000" lon="-2.432001000">
        <ele>478.20</ele>
        <time>2016-10-15T05:59:22Z</time>
      </trkpt>
      <trkpt lat="42.516176000" lon="-2.432003000">
        <ele>478.40</ele>
        <time>2016-10-15T05:59:23Z</time>
      </trkpt>
      <trkpt lat="42.516200000" lon="-2.432010000">
        <ele>478.50</ele>
        <time>2016-10-15T05:59:24Z</time>
      </trkpt>
      <trkpt lat="42.516226000" lon="-2.432017000">
        <ele>478.70</ele>
        <time>2016-10-15T05:59:25Z</time>
      </trkpt>
      <trkpt lat="42.516250000" lon="-2.432022000">
        <ele>478.80</ele>
        <time>2016-10-15T05:59:26Z</time>
      </trkpt>
      <trkpt lat="42.516272000" lon="-2.432032000">
        <ele>478.80</ele>
        <time>2016-10-15T05:59:27Z</time>
      </trkpt>
      <trkpt lat="42.516296000" lon="-2.432037000">
        <ele>478.90</ele>
        <time>2016-10-15T05:59:28Z</time>
      </trkpt>
      <trkpt lat="42.516318000" lon="-2.432053000">
        <ele>478.90</ele>
        <time>2016-10-15T05:59:29Z</time>
      </trkpt>
      <trkpt lat="42.516341000" lon="-2.432068000">
        <ele>478.90</ele>
        <time>2016-10-15T05:59:30Z</time>
      </trkpt>
      <trkpt lat="42.516363000" lon="-2.432084000">
        <ele>479.00</ele>
        <time>2016-10-15T05:59:31Z</time>
      </trkpt>
      <trkpt lat="42.516385000" lon="-2.432101000">
        <ele>479.00</ele>
        <time>2016-10-15T05:59:32Z</time>
      </trkpt>
      <trkpt lat="42.516405000" lon="-2.432120000">
        <ele>479.30</ele>
        <time>2016-10-15T05:59:33Z</time>
      </trkpt>
      <trkpt lat="42.516426000" lon="-2.432145000">
        <ele>479.60</ele>
        <time>2016-10-15T05:59:34Z</time>
      </trkpt>
      <trkpt lat="42.516445000" lon="-2.432169000">
        <ele>479.80</ele>
        <time>2016-10-15T05:59:35Z</time>
      </trkpt>
      <trkpt lat="42.516464000" lon="-2.432193000">
        <ele>480.00</ele>
        <time>2016-10-15T05:59:36Z</time>
      </trkpt>
      <trkpt lat="42.516482000" lon="-2.432215000">
        <ele>480.20</ele>
        <time>2016-10-15T05:59:37Z</time>
      </trkpt>
      <trkpt lat="42.516505000" lon="-2.432234000">
        <ele>480.30</ele>
        <time>2016-10-15T05:59:38Z</time>
      </trkpt>
      <trkpt lat="42.516529000" lon="-2.432256000">
        <ele>480.30</ele>
        <time>2016-10-15T05:59:39Z</time>
      </trkpt>
      <trkpt lat="42.516549000" lon="-2.432282000">
        <ele>480.30</ele>
        <time>2016-10-15T05:59:40Z</time>
      </trkpt>
      <trkpt lat="42.516569000" lon="-2.432312000">
        <ele>480.30</ele>
        <time>2016-10-15T05:59:41Z</time>
      </trkpt>
      <trkpt lat="42.516592000" lon="-2.432339000">
        <ele>480.30</ele>
        <time>2016-10-15T05:59:42Z</time>
      </trkpt>
      <trkpt lat="42.516615000" lon="-2.432362000">
        <ele>480.30</ele>
        <time>2016-10-15T05:59:43Z</time>
      </trkpt>
      <trkpt lat="42.516662000" lon="-2.432404000">
        <ele>480.30</ele>
        <time>2016-10-15T05:59:45Z</time>
      </trkpt>
      <trkpt lat="42.516689000" lon="-2.432424000">
        <ele>480.30</ele>
        <time>2016-10-15T05:59:46Z</time>
      </trkpt>
      <trkpt lat="42.516717000" lon="-2.432438000">
        <ele>480.30</ele>
        <time>2016-10-15T05:59:47Z</time>
      </trkpt>
      <trkpt lat="42.516744000" lon="-2.432450000">
        <ele>480.30</ele>
        <time>2016-10-15T05:59:48Z</time>
      </trkpt>
      <trkpt lat="42.516772000" lon="-2.432456000">
        <ele>480.50</ele>
        <time>2016-10-15T05:59:49Z</time>
      </trkpt>
      <trkpt lat="42.516800000" lon="-2.432464000">
        <ele>480.60</ele>
        <time>2016-10-15T05:59:50Z</time>
      </trkpt>
      <trkpt lat="42.516830000" lon="-2.432471000">
        <ele>480.60</ele>
        <time>2016-10-15T05:59:51Z</time>
      </trkpt>
      <trkpt lat="42.516861000" lon="-2.432475000">
        <ele>480.70</ele>
        <time>2016-10-15T05:59:52Z</time>
      </trkpt>
      <trkpt lat="42.516888000" lon="-2.432472000">
        <ele>480.70</ele>
        <time>2016-10-15T05:59:53Z</time>
      </trkpt>
      <trkpt lat="42.516916000" lon="-2.432466000">
        <ele>480.70</ele>
        <time>2016-10-15T05:59:54Z</time>
      </trkpt>
      <trkpt lat="42.516944000" lon="-2.432466000">
        <ele>480.60</ele>
        <time>2016-10-15T05:59:55Z</time>
      </trkpt>
      <trkpt lat="42.516973000" lon="-2.432465000">
        <ele>480.60</ele>
        <time>2016-10-15T05:59:56Z</time>
      </trkpt>
      <trkpt lat="42.517003000" lon="-2.432460000">
        <ele>480.80</ele>
        <time>2016-10-15T05:59:57Z</time>
      </trkpt>
      <trkpt lat="42.517033000" lon="-2.432454000">
        <ele>481.00</ele>
        <time>2016-10-15T05:59:58Z</time>
      </trkpt>
      <trkpt lat="42.517063000" lon="-2.432452000">
        <ele>481.10</ele>
        <time>2016-10-15T05:59:59Z</time>
      </trkpt>
      <trkpt lat="42.517092000" lon="-2.432452000">
        <ele>481.20</ele>
        <time>2016-10-15T06:00:00Z</time>
      </trkpt>
      <trkpt lat="42.517120000" lon="-2.432453000">
        <ele>481.20</ele>
        <time>2016-10-15T06:00:01Z</time>
      </trkpt>
      <trkpt lat="42.517149000" lon="-2.432447000">
        <ele>481.30</ele>
        <time>2016-10-15T06:00:02Z</time>
      </trkpt>
      <trkpt lat="42.517180000" lon="-2.432444000">
        <ele>481.30</ele>
        <time>2016-10-15T06:00:03Z</time>
      </trkpt>
      <trkpt lat="42.517209000" lon="-2.432439000">
        <ele>481.30</ele>
        <time>2016-10-15T06:00:04Z</time>
      </trkpt>
      <trkpt lat="42.517236000" lon="-2.432436000">
        <ele>481.30</ele>
        <time>2016-10-15T06:00:05Z</time>
      </trkpt>
      <trkpt lat="42.517267000" lon="-2.432434000">
        <ele>481.40</ele>
        <time>2016-10-15T06:00:06Z</time>
      </trkpt>
      <trkpt lat="42.517297000" lon="-2.432431000">
        <ele>481.40</ele>
        <time>2016-10-15T06:00:07Z</time>
      </trkpt>
      <trkpt lat="42.517327000" lon="-2.432430000">
        <ele>481.40</ele>
        <time>2016-10-15T06:00:08Z</time>
      </trkpt>
      <trkpt lat="42.517356000" lon="-2.432426000">
        <ele>481.40</ele>
        <time>2016-10-15T06:00:09Z</time>
      </trkpt>
      <trkpt lat="42.517385000" lon="-2.432421000">
        <ele>481.40</ele>
        <time>2016-10-15T06:00:10Z</time>
      </trkpt>
      <trkpt lat="42.517413000" lon="-2.432416000">
        <ele>481.50</ele>
        <time>2016-10-15T06:00:11Z</time>
      </trkpt>
      <trkpt lat="42.517441000" lon="-2.432406000">
        <ele>481.50</ele>
        <time>2016-10-15T06:00:12Z</time>
      </trkpt>
      <trkpt lat="42.517468000" lon="-2.432395000">
        <ele>481.60</ele>
        <time>2016-10-15T06:00:13Z</time>
      </trkpt>
      <trkpt lat="42.517495000" lon="-2.432387000">
        <ele>481.60</ele>
        <time>2016-10-15T06:00:14Z</time>
      </trkpt>
      <trkpt lat="42.517521000" lon="-2.432376000">
        <ele>481.70</ele>
        <time>2016-10-15T06:00:15Z</time>
      </trkpt>
      <trkpt lat="42.517546000" lon="-2.432358000">
        <ele>481.70</ele>
        <time>2016-10-15T06:00:16Z</time>
      </trkpt>
      <trkpt lat="42.517571000" lon="-2.432344000">
        <ele>481.80</ele>
        <time>2016-10-15T06:00:17Z</time>
      </trkpt>
      <trkpt lat="42.517598000" lon="-2.432328000">
        <ele>481.90</ele>
        <time>2016-10-15T06:00:18Z</time>
      </trkpt>
      <trkpt lat="42.517622000" lon="-2.432310000">
        <ele>482.00</ele>
        <time>2016-10-15T06:00:19Z</time>
      </trkpt>
      <trkpt lat="42.517648000" lon="-2.432294000">
        <ele>482.10</ele>
        <time>2016-10-15T06:00:20Z</time>
      </trkpt>
      <trkpt lat="42.517676000" lon="-2.432277000">
        <ele>482.20</ele>
        <time>2016-10-15T06:00:21Z</time>
      </trkpt>
      <trkpt lat="42.517702000" lon="-2.432258000">
        <ele>482.30</ele>
        <time>2016-10-15T06:00:22Z</time>
      </trkpt>
      <trkpt lat="42.517729000" lon="-2.432239000">
        <ele>482.30</ele>
        <time>2016-10-15T06:00:23Z</time>
      </trkpt>
      <trkpt lat="42.517754000" lon="-2.432219000">
        <ele>482.40</ele>
        <time>2016-10-15T06:00:24Z</time>
      </trkpt>
      <trkpt lat="42.517779000" lon="-2.432198000">
        <ele>482.40</ele>
        <time>2016-10-15T06:00:25Z</time>
      </trkpt>
      <trkpt lat="42.517805000" lon="-2.432181000">
        <ele>482.30</ele>
        <time>2016-10-15T06:00:26Z</time>
      </trkpt>
      <trkpt lat="42.517831000" lon="-2.432163000">
        <ele>482.30</ele>
        <time>2016-10-15T06:00:27Z</time>
      </trkpt>
      <trkpt lat="42.517858000" lon="-2.432146000">
        <ele>482.20</ele>
        <time>2016-10-15T06:00:28Z</time>
      </trkpt>
      <trkpt lat="42.517889000" lon="-2.432132000">
        <ele>482.20</ele>
        <time>2016-10-15T06:00:29Z</time>
      </trkpt>
      <trkpt lat="42.517919000" lon="-2.432110000">
        <ele>482.20</ele>
        <time>2016-10-15T06:00:30Z</time>
      </trkpt>
      <trkpt lat="42.517944000" lon="-2.432090000">
        <ele>482.40</ele>
        <time>2016-10-15T06:00:31Z</time>
      </trkpt>
      <trkpt lat="42.517972000" lon="-2.432069000">
        <ele>482.50</ele>
        <time>2016-10-15T06:00:32Z</time>
      </trkpt>
      <trkpt lat="42.518003000" lon="-2.432048000">
        <ele>482.70</ele>
        <time>2016-10-15T06:00:33Z</time>
      </trkpt>
      <trkpt lat="42.518035000" lon="-2.432031000">
        <ele>482.80</ele>
        <time>2016-10-15T06:00:34Z</time>
      </trkpt>
      <trkpt lat="42.518064000" lon="-2.432012000">
        <ele>483.00</ele>
        <time>2016-10-15T06:00:35Z</time>
      </trkpt>
      <trkpt lat="42.518093000" lon="-2.431992000">
        <ele>483.00</ele>
        <time>2016-10-15T06:00:36Z</time>
      </trkpt>
      <trkpt lat="42.518122000" lon="-2.431975000">
        <ele>483.10</ele>
        <time>2016-10-15T06:00:37Z</time>
      </trkpt>
      <trkpt lat="42.518148000" lon="-2.431954000">
        <ele>483.20</ele>
        <time>2016-10-15T06:00:38Z</time>
      </trkpt>
      <trkpt lat="42.518177000" lon="-2.431935000">
        <ele>483.50</ele>
        <time>2016-10-15T06:00:39Z</time>
      </trkpt>
      <trkpt lat="42.518206000" lon="-2.431914000">
        <ele>483.70</ele>
        <time>2016-10-15T06:00:40Z</time>
      </trkpt>
      <trkpt lat="42.518236000" lon="-2.431898000">
        <ele>483.90</ele>
        <time>2016-10-15T06:00:41Z</time>
      </trkpt>
      <trkpt lat="42.518266000" lon="-2.431879000">
        <ele>484.00</ele>
        <time>2016-10-15T06:00:42Z</time>
      </trkpt>
      <trkpt lat="42.518299000" lon="-2.431858000">
        <ele>483.90</ele>
        <time>2016-10-15T06:00:43Z</time>
      </trkpt>
      <trkpt lat="42.518331000" lon="-2.431843000">
        <ele>483.90</ele>
        <time>2016-10-15T06:00:44Z</time>
      </trkpt>
      <trkpt lat="42.518394000" lon="-2.431815000">
        <ele>483.90</ele>
        <time>2016-10-15T06:00:46Z</time>
      </trkpt>
      <trkpt lat="42.518425000" lon="-2.431801000">
        <ele>483.90</ele>
        <time>2016-10-15T06:00:47Z</time>
      </trkpt>
      <trkpt lat="42.518458000" lon="-2.431785000">
        <ele>483.90</ele>
        <time>2016-10-15T06:00:48Z</time>
      </trkpt>
      <trkpt lat="42.518490000" lon="-2.431773000">
        <ele>484.10</ele>
        <time>2016-10-15T06:00:49Z</time>
      </trkpt>
      <trkpt lat="42.518520000" lon="-2.431770000">
        <ele>484.20</ele>
        <time>2016-10-15T06:00:50Z</time>
      </trkpt>
      <trkpt lat="42.518551000" lon="-2.431764000">
        <ele>484.30</ele>
        <time>2016-10-15T06:00:51Z</time>
      </trkpt>
      <trkpt lat="42.518580000" lon="-2.431757000">
        <ele>484.40</ele>
        <time>2016-10-15T06:00:52Z</time>
      </trkpt>
      <trkpt lat="42.518610000" lon="-2.431751000">
        <ele>484.40</ele>
        <time>2016-10-15T06:00:53Z</time>
      </trkpt>
      <trkpt lat="42.518640000" lon="-2.431744000">
        <ele>484.50</ele>
        <time>2016-10-15T06:00:54Z</time>
      </trkpt>
      <trkpt lat="42.518671000" lon="-2.431737000">
        <ele>484.60</ele>
        <time>2016-10-15T06:00:55Z</time>
      </trkpt>
      <trkpt lat="42.518702000" lon="-2.431737000">
        <ele>484.70</ele>
        <time>2016-10-15T06:00:56Z</time>
      </trkpt>
      <trkpt lat="42.518732000" lon="-2.431736000">
        <ele>484.80</ele>
        <time>2016-10-15T06:00:57Z</time>
      </trkpt>
      <trkpt lat="42.518761000" lon="-2.431738000">
        <ele>485.00</ele>
        <time>2016-10-15T06:00:58Z</time>
      </trkpt>
      <trkpt lat="42.518790000" lon="-2.431739000">
        <ele>485.20</ele>
        <time>2016-10-15T06:00:59Z</time>
      </trkpt>
      <trkpt lat="42.518819000" lon="-2.431734000">
        <ele>485.40</ele>
        <time>2016-10-15T06:01:00Z</time>
      </trkpt>
      <trkpt lat="42.518845000" lon="-2.431726000">
        <ele>485.50</ele>
        <time>2016-10-15T06:01:01Z</time>
      </trkpt>
      <trkpt lat="42.518871000" lon="-2.431724000">
        <ele>485.60</ele>
        <time>2016-10-15T06:01:02Z</time>
      </trkpt>
      <trkpt lat="42.518897000" lon="-2.431723000">
        <ele>485.80</ele>
        <time>2016-10-15T06:01:03Z</time>
      </trkpt>
      <trkpt lat="42.518924000" lon="-2.431721000">
        <ele>485.90</ele>
        <time>2016-10-15T06:01:04Z</time>
      </trkpt>
      <trkpt lat="42.518953000" lon="-2.431721000">
        <ele>486.00</ele>
        <time>2016-10-15T06:01:05Z</time>
      </trkpt>
      <trkpt lat="42.518980000" lon="-2.431720000">
        <ele>486.00</ele>
        <time>2016-10-15T06:01:06Z</time>
      </trkpt>
      <trkpt lat="42.519008000" lon="-2.431711000">
        <ele>486.20</ele>
        <time>2016-10-15T06:01:07Z</time>
      </trkpt>
      <trkpt lat="42.519034000" lon="-2.431709000">
        <ele>486.30</ele>
        <time>2016-10-15T06:01:08Z</time>
      </trkpt>
      <trkpt lat="42.519063000" lon="-2.431707000">
        <ele>486.40</ele>
        <time>2016-10-15T06:01:09Z</time>
      </trkpt>
      <trkpt lat="42.519086000" lon="-2.431705000">
        <ele>486.40</ele>
        <time>2016-10-15T06:01:10Z</time>
      </trkpt>
      <trkpt lat="42.519112000" lon="-2.431704000">
        <ele>486.60</ele>
        <time>2016-10-15T06:01:11Z</time>
      </trkpt>
      <trkpt lat="42.519137000" lon="-2.431701000">
        <ele>486.60</ele>
        <time>2016-10-15T06:01:12Z</time>
      </trkpt>
      <trkpt lat="42.519157000" lon="-2.431695000">
        <ele>486.80</ele>
        <time>2016-10-15T06:01:13Z</time>
      </trkpt>
      <trkpt lat="42.519180000" lon="-2.431691000">
        <ele>487.00</ele>
        <time>2016-10-15T06:01:14Z</time>
      </trkpt>
      <trkpt lat="42.519203000" lon="-2.431686000">
        <ele>487.20</ele>
        <time>2016-10-15T06:01:15Z</time>
      </trkpt>
      <trkpt lat="42.519225000" lon="-2.431684000">
        <ele>487.30</ele>
        <time>2016-10-15T06:01:16Z</time>
      </trkpt>
      <trkpt lat="42.519249000" lon="-2.431680000">
        <ele>487.50</ele>
        <time>2016-10-15T06:01:17Z</time>
      </trkpt>
      <trkpt lat="42.519271000" lon="-2.431677000">
        <ele>487.60</ele>
        <time>2016-10-15T06:01:18Z</time>
      </trkpt>
      <trkpt lat="42.519295000" lon="-2.431669000">
        <ele>487.70</ele>
        <time>2016-10-15T06:01:19Z</time>
      </trkpt>
      <trkpt lat="42.519317000" lon="-2.431664000">
        <ele>487.70</ele>
        <time>2016-10-15T06:01:20Z</time>
      </trkpt>
      <trkpt lat="42.519339000" lon="-2.431664000">
        <ele>487.80</ele>
        <time>2016-10-15T06:01:21Z</time>
      </trkpt>
      <trkpt lat="42.519358000" lon="-2.431662000">
        <ele>487.80</ele>
        <time>2016-10-15T06:01:22Z</time>
      </trkpt>
      <trkpt lat="42.519379000" lon="-2.431659000">
        <ele>488.00</ele>
        <time>2016-10-15T06:01:23Z</time>
      </trkpt>
      <trkpt lat="42.519400000" lon="-2.431653000">
        <ele>488.10</ele>
        <time>2016-10-15T06:01:24Z</time>
      </trkpt>
      <trkpt lat="42.519421000" lon="-2.431647000">
        <ele>488.30</ele>
        <time>2016-10-15T06:01:25Z</time>
      </trkpt>
      <trkpt lat="42.519442000" lon="-2.431642000">
        <ele>488.50</ele>
        <time>2016-10-15T06:01:26Z</time>
      </trkpt>
      <trkpt lat="42.519463000" lon="-2.431638000">
        <ele>488.90</ele>
        <time>2016-10-15T06:01:27Z</time>
      </trkpt>
      <trkpt lat="42.519485000" lon="-2.431635000">
        <ele>489.30</ele>
        <time>2016-10-15T06:01:28Z</time>
      </trkpt>
      <trkpt lat="42.519508000" lon="-2.431629000">
        <ele>489.70</ele>
        <time>2016-10-15T06:01:29Z</time>
      </trkpt>
      <trkpt lat="42.519532000" lon="-2.431630000">
        <ele>490.00</ele>
        <time>2016-10-15T06:01:30Z</time>
      </trkpt>
      <trkpt lat="42.519555000" lon="-2.431629000">
        <ele>490.20</ele>
        <time>2016-10-15T06:01:31Z</time>
      </trkpt>
      <trkpt lat="42.519576000" lon="-2.431626000">
        <ele>490.30</ele>
        <time>2016-10-15T06:01:32Z</time>
      </trkpt>
      <trkpt lat="42.519597000" lon="-2.431627000">
        <ele>490.60</ele>
        <time>2016-10-15T06:01:33Z</time>
      </trkpt>
      <trkpt lat="42.519619000" lon="-2.431624000">
        <ele>490.80</ele>
        <time>2016-10-15T06:01:34Z</time>
      </trkpt>
      <trkpt lat="42.519644000" lon="-2.431615000">
        <ele>491.30</ele>
        <time>2016-10-15T06:01:35Z</time>
      </trkpt>
      <trkpt lat="42.519667000" lon="-2.431612000">
        <ele>491.80</ele>
        <time>2016-10-15T06:01:36Z</time>
      </trkpt>
      <trkpt lat="42.519688000" lon="-2.431612000">
        <ele>492.40</ele>
        <time>2016-10-15T06:01:37Z</time>
      </trkpt>
      <trkpt lat="42.519706000" lon="-2.431612000">
        <ele>492.80</ele>
        <time>2016-10-15T06:01:38Z</time>
      </trkpt>
      <trkpt lat="42.519728000" lon="-2.431607000">
        <ele>493.20</ele>
        <time>2016-10-15T06:01:39Z</time>
      </trkpt>
      <trkpt lat="42.519746000" lon="-2.431603000">
        <ele>493.50</ele>
        <time>2016-10-15T06:01:40Z</time>
      </trkpt>
      <trkpt lat="42.519760000" lon="-2.431598000">
        <ele>493.90</ele>
        <time>2016-10-15T06:01:41Z</time>
      </trkpt>
      <trkpt lat="42.519777000" lon="-2.431598000">
        <ele>494.30</ele>
        <time>2016-10-15T06:01:42Z</time>
      </trkpt>
      <trkpt lat="42.519794000" lon="-2.431597000">
        <ele>494.60</ele>
        <time>2016-10-15T06:01:43Z</time>
      </trkpt>
      <trkpt lat="42.519813000" lon="-2.431595000">
        <ele>494.90</ele>
        <time>2016-10-15T06:01:44Z</time>
      </trkpt>
      <trkpt lat="42.519833000" lon="-2.431589000">
        <ele>495.20</ele>
        <time>2016-10-15T06:01:45Z</time>
      </trkpt>
      <trkpt lat="42.519868000" lon="-2.431584000">
        <ele>495.70</ele>
        <time>2016-10-15T06:01:47Z</time>
      </trkpt>
      <trkpt lat="42.519882000" lon="-2.431589000">
        <ele>496.00</ele>
        <time>2016-10-15T06:01:48Z</time>
      </trkpt>
      <trkpt lat="42.519896000" lon="-2.431586000">
        <ele>496.20</ele>
        <time>2016-10-15T06:01:49Z</time>
      </trkpt>
      <trkpt lat="42.519912000" lon="-2.431584000">
        <ele>496.40</ele>
        <time>2016-10-15T06:01:50Z</time>
      </trkpt>
      <trkpt lat="42.519932000" lon="-2.431585000">
        <ele>496.70</ele>
        <time>2016-10-15T06:01:51Z</time>
      </trkpt>
      <trkpt lat="42.519949000" lon="-2.431584000">
        <ele>496.90</ele>
        <time>2016-10-15T06:01:52Z</time>
      </trkpt>
      <trkpt lat="42.519967000" lon="-2.431588000">
        <ele>497.20</ele>
        <time>2016-10-15T06:01:53Z</time>
      </trkpt>
      <trkpt lat="42.519987000" lon="-2.431588000">
        <ele>497.50</ele>
        <time>2016-10-15T06:01:54Z</time>
      </trkpt>
      <trkpt lat="42.520008000" lon="-2.431587000">
        <ele>497.60</ele>
        <time>2016-10-15T06:01:55Z</time>
      </trkpt>
      <trkpt lat="42.520031000" lon="-2.431590000">
        <ele>497.80</ele>
        <time>2016-10-15T06:01:56Z</time>
      </trkpt>
      <trkpt lat="42.520054000" lon="-2.431592000">
        <ele>498.00</ele>
        <time>2016-10-15T06:01:57Z</time>
      </trkpt>
      <trkpt lat="42.520074000" lon="-2.431590000">
        <ele>498.20</ele>
        <time>2016-10-15T06:01:58Z</time>
      </trkpt>
      <trkpt lat="42.520098000" lon="-2.431590000">
        <ele>498.40</ele>
        <time>2016-10-15T06:01:59Z</time>
      </trkpt>
      <trkpt lat="42.520121000" lon="-2.431593000">
        <ele>498.60</ele>
        <time>2016-10-15T06:02:00Z</time>
      </trkpt>
      <trkpt lat="42.520141000" lon="-2.431593000">
        <ele>498.70</ele>
        <time>2016-10-15T06:02:01Z</time>
      </trkpt>
      <trkpt lat="42.520162000" lon="-2.431593000">
        <ele>498.80</ele>
        <time>2016-10-15T06:02:02Z</time>
      </trkpt>
      <trkpt lat="42.520186000" lon="-2.431598000">
        <ele>499.00</ele>
        <time>2016-10-15T06:02:03Z</time>
      </trkpt>
      <trkpt lat="42.520210000" lon="-2.431600000">
        <ele>499.10</ele>
        <time>2016-10-15T06:02:04Z</time>
      </trkpt>
      <trkpt lat="42.520231000" lon="-2.431602000">
        <ele>499.10</ele>
        <time>2016-10-15T06:02:05Z</time>
      </trkpt>
      <trkpt lat="42.520251000" lon="-2.431602000">
        <ele>499.10</ele>
        <time>2016-10-15T06:02:06Z</time>
      </trkpt>
      <trkpt lat="42.520272000" lon="-2.431601000">
        <ele>499.20</ele>
        <time>2016-10-15T06:02:07Z</time>
      </trkpt>
      <trkpt lat="42.520293000" lon="-2.431601000">
        <ele>499.20</ele>
        <time>2016-10-15T06:02:08Z</time>
      </trkpt>
      <trkpt lat="42.520314000" lon="-2.431604000">
        <ele>499.20</ele>
        <time>2016-10-15T06:02:09Z</time>
      </trkpt>
      <trkpt lat="42.520335000" lon="-2.431608000">
        <ele>499.20</ele>
        <time>2016-10-15T06:02:10Z</time>
      </trkpt>
      <trkpt lat="42.520357000" lon="-2.431609000">
        <ele>499.30</ele>
        <time>2016-10-15T06:02:11Z</time>
      </trkpt>
      <trkpt lat="42.520378000" lon="-2.431613000">
        <ele>499.40</ele>
        <time>2016-10-15T06:02:12Z</time>
      </trkpt>
      <trkpt lat="42.520401000" lon="-2.431619000">
        <ele>499.50</ele>
        <time>2016-10-15T06:02:13Z</time>
      </trkpt>
      <trkpt lat="42.520423000" lon="-2.431624000">
        <ele>499.60</ele>
        <time>2016-10-15T06:02:14Z</time>
      </trkpt>
      <trkpt lat="42.520447000" lon="-2.431628000">
        <ele>499.80</ele>
        <time>2016-10-15T06:02:15Z</time>
      </trkpt>
      <trkpt lat="42.520467000" lon="-2.431633000">
        <ele>500.00</ele>
        <time>2016-10-15T06:02:16Z</time>
      </trkpt>
      <trkpt lat="42.520492000" lon="-2.431637000">
        <ele>500.20</ele>
        <time>2016-10-15T06:02:17Z</time>
      </trkpt>
      <trkpt lat="42.520513000" lon="-2.431643000">
        <ele>500.30</ele>
        <time>2016-10-15T06:02:18Z</time>
      </trkpt>
      <trkpt lat="42.520537000" lon="-2.431649000">
        <ele>500.30</ele>
        <time>2016-10-15T06:02:19Z</time>
      </trkpt>
      <trkpt lat="42.520561000" lon="-2.431653000">
        <ele>500.40</ele>
        <time>2016-10-15T06:02:20Z</time>
      </trkpt>
      <trkpt lat="42.520583000" lon="-2.431659000">
        <ele>500.50</ele>
        <time>2016-10-15T06:02:21Z</time>
      </trkpt>
      <trkpt lat="42.520603000" lon="-2.431670000">
        <ele>500.60</ele>
        <time>2016-10-15T06:02:22Z</time>
      </trkpt>
      <trkpt lat="42.520623000" lon="-2.431681000">
        <ele>500.80</ele>
        <time>2016-10-15T06:02:23Z</time>
      </trkpt>
      <trkpt lat="42.520639000" lon="-2.431686000">
        <ele>500.90</ele>
        <time>2016-10-15T06:02:24Z</time>
      </trkpt>
      <trkpt lat="42.520655000" lon="-2.431693000">
        <ele>501.10</ele>
        <time>2016-10-15T06:02:25Z</time>
      </trkpt>
      <trkpt lat="42.520673000" lon="-2.431706000">
        <ele>501.30</ele>
        <time>2016-10-15T06:02:26Z</time>
      </trkpt>
      <trkpt lat="42.520694000" lon="-2.431715000">
        <ele>501.40</ele>
        <time>2016-10-15T06:02:27Z</time>
      </trkpt>
      <trkpt lat="42.520714000" lon="-2.431721000">
        <ele>501.50</ele>
        <time>2016-10-15T06:02:28Z</time>
      </trkpt>
      <trkpt lat="42.520734000" lon="-2.431730000">
        <ele>501.60</ele>
        <time>2016-10-15T06:02:29Z</time>
      </trkpt>
      <trkpt lat="42.520756000" lon="-2.431739000">
        <ele>501.60</ele>
        <time>2016-10-15T06:02:30Z</time>
      </trkpt>
      <trkpt lat="42.520775000" lon="-2.431755000">
        <ele>501.70</ele>
        <time>2016-10-15T06:02:31Z</time>
      </trkpt>
      <trkpt lat="42.520793000" lon="-2.431769000">
        <ele>501.80</ele>
        <time>2016-10-15T06:02:32Z</time>
      </trkpt>
      <trkpt lat="42.520811000" lon="-2.431783000">
        <ele>502.00</ele>
        <time>2016-10-15T06:02:33Z</time>
      </trkpt>
      <trkpt lat="42.520830000" lon="-2.431796000">
        <ele>502.20</ele>
        <time>2016-10-15T06:02:34Z</time>
      </trkpt>
      <trkpt lat="42.520848000" lon="-2.431810000">
        <ele>502.40</ele>
        <time>2016-10-15T06:02:35Z</time>
      </trkpt>
      <trkpt lat="42.520866000" lon="-2.431821000">
        <ele>502.60</ele>
        <time>2016-10-15T06:02:36Z</time>
      </trkpt>
      <trkpt lat="42.520881000" lon="-2.431836000">
        <ele>502.80</ele>
        <time>2016-10-15T06:02:37Z</time>
      </trkpt>
      <trkpt lat="42.520899000" lon="-2.431851000">
        <ele>502.90</ele>
        <time>2016-10-15T06:02:38Z</time>
      </trkpt>
      <trkpt lat="42.520920000" lon="-2.431869000">
        <ele>503.00</ele>
        <time>2016-10-15T06:02:39Z</time>
      </trkpt>
      <trkpt lat="42.520938000" lon="-2.431887000">
        <ele>503.10</ele>
        <time>2016-10-15T06:02:40Z</time>
      </trkpt>
      <trkpt lat="42.520958000" lon="-2.431905000">
        <ele>503.20</ele>
        <time>2016-10-15T06:02:41Z</time>
      </trkpt>
      <trkpt lat="42.520975000" lon="-2.431920000">
        <ele>503.20</ele>
        <time>2016-10-15T06:02:42Z</time>
      </trkpt>
      <trkpt lat="42.520994000" lon="-2.431935000">
        <ele>503.30</ele>
        <time>2016-10-15T06:02:43Z</time>
      </trkpt>
      <trkpt lat="42.521015000" lon="-2.431948000">
        <ele>503.40</ele>
        <time>2016-10-15T06:02:44Z</time>
      </trkpt>
      <trkpt lat="42.521035000" lon="-2.431960000">
        <ele>503.60</ele>
        <time>2016-10-15T06:02:45Z</time>
      </trkpt>
      <trkpt lat="42.521056000" lon="-2.431973000">
        <ele>503.80</ele>
        <time>2016-10-15T06:02:46Z</time>
      </trkpt>
      <trkpt lat="42.521092000" lon="-2.431999000">
        <ele>504.10</ele>
        <time>2016-10-15T06:02:48Z</time>
      </trkpt>
      <trkpt lat="42.521109000" lon="-2.432012000">
        <ele>504.20</ele>
        <time>2016-10-15T06:02:49Z</time>
      </trkpt>
      <trkpt lat="42.521129000" lon="-2.432025000">
        <ele>504.20</ele>
        <time>2016-10-15T06:02:50Z</time>
      </trkpt>
      <trkpt lat="42.521149000" lon="-2.432032000">
        <ele>504.30</ele>
        <time>2016-10-15T06:02:51Z</time>
      </trkpt>
      <trkpt lat="42.521170000" lon="-2.432044000">
        <ele>504.30</ele>
        <time>2016-10-15T06:02:52Z</time>
      </trkpt>
      <trkpt lat="42.521190000" lon="-2.432055000">
        <ele>504.40</ele>
        <time>2016-10-15T06:02:53Z</time>
      </trkpt>
      <trkpt lat="42.521210000" lon="-2.432072000">
        <ele>504.40</ele>
        <time>2016-10-15T06:02:54Z</time>
      </trkpt>
      <trkpt lat="42.521228000" lon="-2.432089000">
        <ele>504.50</ele>
        <time>2016-10-15T06:02:55Z</time>
      </trkpt>
      <trkpt lat="42.521248000" lon="-2.432100000">
        <ele>504.50</ele>
        <time>2016-10-15T06:02:56Z</time>
      </trkpt>
      <trkpt lat="42.521265000" lon="-2.432121000">
        <ele>504.60</ele>
        <time>2016-10-15T06:02:57Z</time>
      </trkpt>
      <trkpt lat="42.521283000" lon="-2.432144000">
        <ele>504.60</ele>
        <time>2016-10-15T06:02:58Z</time>
      </trkpt>
      <trkpt lat="42.521298000" lon="-2.432168000">
        <ele>504.70</ele>
        <time>2016-10-15T06:02:59Z</time>
      </trkpt>
      <trkpt lat="42.521315000" lon="-2.432190000">
        <ele>504.70</ele>
        <time>2016-10-15T06:03:00Z</time>
      </trkpt>
      <trkpt lat="42.521335000" lon="-2.432209000">
        <ele>504.70</ele>
        <time>2016-10-15T06:03:01Z</time>
      </trkpt>
      <trkpt lat="42.521351000" lon="-2.432232000">
        <ele>504.70</ele>
        <time>2016-10-15T06:03:02Z</time>
      </trkpt>
      <trkpt lat="42.521364000" lon="-2.432257000">
        <ele>504.80</ele>
        <time>2016-10-15T06:03:03Z</time>
      </trkpt>
      <trkpt lat="42.521377000" lon="-2.432279000">
        <ele>504.90</ele>
        <time>2016-10-15T06:03:04Z</time>
      </trkpt>
      <trkpt lat="42.521388000" lon="-2.432302000">
        <ele>504.90</ele>
        <time>2016-10-15T06:03:05Z</time>
      </trkpt>
      <trkpt lat="42.521401000" lon="-2.432317000">
        <ele>505.00</ele>
        <time>2016-10-15T06:03:06Z</time>
      </trkpt>
      <trkpt lat="42.521412000" lon="-2.432336000">
        <ele>505.10</ele>
        <time>2016-10-15T06:03:07Z</time>
      </trkpt>
      <trkpt lat="42.521423000" lon="-2.432354000">
        <ele>505.10</ele>
        <time>2016-10-15T06:03:08Z</time>
      </trkpt>
      <trkpt lat="42.521434000" lon="-2.432379000">
        <ele>505.30</ele>
        <time>2016-10-15T06:03:09Z</time>
      </trkpt>
      <trkpt lat="42.521443000" lon="-2.432404000">
        <ele>505.50</ele>
        <time>2016-10-15T06:03:10Z</time>
      </trkpt>
      <trkpt lat="42.521451000" lon="-2.432424000">
        <ele>505.70</ele>
        <time>2016-10-15T06:03:11Z</time>
      </trkpt>
      <trkpt lat="42.521461000" lon="-2.432441000">
        <ele>505.80</ele>
        <time>2016-10-15T06:03:12Z</time>
      </trkpt>
      <trkpt lat="42.521469000" lon="-2.432458000">
        <ele>505.90</ele>
        <time>2016-10-15T06:03:13Z</time>
      </trkpt>
      <trkpt lat="42.521477000" lon="-2.432481000">
        <ele>506.00</ele>
        <time>2016-10-15T06:03:14Z</time>
      </trkpt>
      <trkpt lat="42.521486000" lon="-2.432503000">
        <ele>506.20</ele>
        <time>2016-10-15T06:03:15Z</time>
      </trkpt>
      <trkpt lat="42.521495000" lon="-2.432527000">
        <ele>506.40</ele>
        <time>2016-10-15T06:03:16Z</time>
      </trkpt>
      <trkpt lat="42.521502000" lon="-2.432545000">
        <ele>506.60</ele>
        <time>2016-10-15T06:03:17Z</time>
      </trkpt>
      <trkpt lat="42.521509000" lon="-2.432570000">
        <ele>506.70</ele>
        <time>2016-10-15T06:03:18Z</time>
      </trkpt>
      <trkpt lat="42.521519000" lon="-2.432597000">
        <ele>507.00</ele>
        <time>2016-10-15T06:03:19Z</time>
      </trkpt>
      <trkpt lat="42.521525000" lon="-2.432622000">
        <ele>507.20</ele>
        <time>2016-10-15T06:03:20Z</time>
      </trkpt>
      <trkpt lat="42.521538000" lon="-2.432640000">
        <ele>507.30</ele>
        <time>2016-10-15T06:03:21Z</time>
      </trkpt>
      <trkpt lat="42.521549000" lon="-2.432659000">
        <ele>507.40</ele>
        <time>2016-10-15T06:03:22Z</time>
      </trkpt>
      <trkpt lat="42.521560000" lon="-2.432680000">
        <ele>507.70</ele>
        <time>2016-10-15T06:03:23Z</time>
      </trkpt>
      <trkpt lat="42.521574000" lon="-2.432697000">
        <ele>508.00</ele>
        <time>2016-10-15T06:03:24Z</time>
      </trkpt>
      <trkpt lat="42.521584000" lon="-2.432719000">
        <ele>508.30</ele>
        <time>2016-10-15T06:03:25Z</time>
      </trkpt>
      <trkpt lat="42.521593000" lon="-2.432743000">
        <ele>508.60</ele>
        <time>2016-10-15T06:03:26Z</time>
      </trkpt>
      <trkpt lat="42.521602000" lon="-2.432768000">
        <ele>508.80</ele>
        <time>2016-10-15T06:03:27Z</time>
      </trkpt>
      <trkpt lat="42.521613000" lon="-2.432796000">
        <ele>509.00</ele>
        <time>2016-10-15T06:03:28Z</time>
      </trkpt>
      <trkpt lat="42.521622000" lon="-2.432818000">
        <ele>509.30</ele>
        <time>2016-10-15T06:03:29Z</time>
      </trkpt>
      <trkpt lat="42.521635000" lon="-2.432840000">
        <ele>509.60</ele>
        <time>2016-10-15T06:03:30Z</time>
      </trkpt>
      <trkpt lat="42.521646000" lon="-2.432864000">
        <ele>509.80</ele>
        <time>2016-10-15T06:03:31Z</time>
      </trkpt>
      <trkpt lat="42.521659000" lon="-2.432883000">
        <ele>509.90</ele>
        <time>2016-10-15T06:03:32Z</time>
      </trkpt>
      <trkpt lat="42.521670000" lon="-2.432903000">
        <ele>510.00</ele>
        <time>2016-10-15T06:03:33Z</time>
      </trkpt>
      <trkpt lat="42.521681000" lon="-2.432923000">
        <ele>510.10</ele>
        <time>2016-10-15T06:03:34Z</time>
      </trkpt>
      <trkpt lat="42.521690000" lon="-2.432943000">
        <ele>510.30</ele>
        <time>2016-10-15T06:03:35Z</time>
      </trkpt>
      <trkpt lat="42.521702000" lon="-2.432964000">
        <ele>510.40</ele>
        <time>2016-10-15T06:03:36Z</time>
      </trkpt>
      <trkpt lat="42.521716000" lon="-2.432983000">
        <ele>510.60</ele>
        <time>2016-10-15T06:03:37Z</time>
      </trkpt>
      <trkpt lat="42.521727000" lon="-2.433008000">
        <ele>510.60</ele>
        <time>2016-10-15T06:03:38Z</time>
      </trkpt>
      <trkpt lat="42.521739000" lon="-2.433032000">
        <ele>510.70</ele>
        <time>2016-10-15T06:03:39Z</time>
      </trkpt>
      <trkpt lat="42.521756000" lon="-2.433048000">
        <ele>510.60</ele>
        <time>2016-10-15T06:03:40Z</time>
      </trkpt>
      <trkpt lat="42.521772000" lon="-2.433068000">
        <ele>510.60</ele>
        <time>2016-10-15T06:03:41Z</time>
      </trkpt>
      <trkpt lat="42.521785000" lon="-2.433094000">
        <ele>510.80</ele>
        <time>2016-10-15T06:03:42Z</time>
      </trkpt>
      <trkpt lat="42.521798000" lon="-2.433116000">
        <ele>511.00</ele>
        <time>2016-10-15T06:03:43Z</time>
      </trkpt>
      <trkpt lat="42.521814000" lon="-2.433135000">
        <ele>510.90</ele>
        <time>2016-10-15T06:03:44Z</time>
      </trkpt>
      <trkpt lat="42.521829000" lon="-2.433155000">
        <ele>510.90</ele>
        <time>2016-10-15T06:03:45Z</time>
      </trkpt>
      <trkpt lat="42.521841000" lon="-2.433174000">
        <ele>511.00</ele>
        <time>2016-10-15T06:03:46Z</time>
      </trkpt>
      <trkpt lat="42.521851000" lon="-2.433195000">
        <ele>511.00</ele>
        <time>2016-10-15T06:03:47Z</time>
      </trkpt>
      <trkpt lat="42.521880000" lon="-2.433233000">
        <ele>511.10</ele>
        <time>2016-10-15T06:03:49Z</time>
      </trkpt>
      <trkpt lat="42.521895000" lon="-2.433254000">
        <ele>511.10</ele>
        <time>2016-10-15T06:03:50Z</time>
      </trkpt>
      <trkpt lat="42.521907000" lon="-2.433276000">
        <ele>511.10</ele>
        <time>2016-10-15T06:03:51Z</time>
      </trkpt>
      <trkpt lat="42.521920000" lon="-2.433295000">
        <ele>511.30</ele>
        <time>2016-10-15T06:03:52Z</time>
      </trkpt>
      <trkpt lat="42.521938000" lon="-2.433318000">
        <ele>511.40</ele>
        <time>2016-10-15T06:03:53Z</time>
      </trkpt>
      <trkpt lat="42.521952000" lon="-2.433340000">
        <ele>511.50</ele>
        <time>2016-10-15T06:03:54Z</time>
      </trkpt>
      <trkpt lat="42.521966000" lon="-2.433359000">
        <ele>511.50</ele>
        <time>2016-10-15T06:03:55Z</time>
      </trkpt>
      <trkpt lat="42.521981000" lon="-2.433376000">
        <ele>511.90</ele>
        <time>2016-10-15T06:03:56Z</time>
      </trkpt>
      <trkpt lat="42.521997000" lon="-2.433397000">
        <ele>512.10</ele>
        <time>2016-10-15T06:03:57Z</time>
      </trkpt>
      <trkpt lat="42.522013000" lon="-2.433421000">
        <ele>512.30</ele>
        <time>2016-10-15T06:03:58Z</time>
      </trkpt>
      <trkpt lat="42.522028000" lon="-2.433443000">
        <ele>512.40</ele>
        <time>2016-10-15T06:03:59Z</time>
      </trkpt>
      <trkpt lat="42.522045000" lon="-2.433463000">
        <ele>512.20</ele>
        <time>2016-10-15T06:04:00Z</time>
      </trkpt>
      <trkpt lat="42.522059000" lon="-2.433485000">
        <ele>512.10</ele>
        <time>2016-10-15T06:04:01Z</time>
      </trkpt>
      <trkpt lat="42.522073000" lon="-2.433507000">
        <ele>512.00</ele>
        <time>2016-10-15T06:04:02Z</time>
      </trkpt>
      <trkpt lat="42.522089000" lon="-2.433531000">
        <ele>511.90</ele>
        <time>2016-10-15T06:04:03Z</time>
      </trkpt>
      <trkpt lat="42.522108000" lon="-2.433555000">
        <ele>512.00</ele>
        <time>2016-10-15T06:04:04Z</time>
      </trkpt>
      <trkpt lat="42.522126000" lon="-2.433580000">
        <ele>512.10</ele>
        <time>2016-10-15T06:04:05Z</time>
      </trkpt>
      <trkpt lat="42.522143000" lon="-2.433608000">
        <ele>512.10</ele>
        <time>2016-10-15T06:04:06Z</time>
      </trkpt>
      <trkpt lat="42.522159000" lon="-2.433634000">
        <ele>512.20</ele>
        <time>2016-10-15T06:04:07Z</time>
      </trkpt>
      <trkpt lat="42.522177000" lon="-2.433662000">
        <ele>512.20</ele>
        <time>2016-10-15T06:04:08Z</time>
      </trkpt>
      <trkpt lat="42.522197000" lon="-2.433688000">
        <ele>512.20</ele>
        <time>2016-10-15T06:04:09Z</time>
      </trkpt>
      <trkpt lat="42.522219000" lon="-2.433715000">
        <ele>512.10</ele>
        <time>2016-10-15T06:04:10Z</time>
      </trkpt>
      <trkpt lat="42.522240000" lon="-2.433743000">
        <ele>512.10</ele>
        <time>2016-10-15T06:04:11Z</time>
      </trkpt>
      <trkpt lat="42.522259000" lon="-2.433772000">
        <ele>512.10</ele>
        <time>2016-10-15T06:04:12Z</time>
      </trkpt>
      <trkpt lat="42.522280000" lon="-2.433801000">
        <ele>512.10</ele>
        <time>2016-10-15T06:04:13Z</time>
      </trkpt>
      <trkpt lat="42.522301000" lon="-2.433829000">
        <ele>512.00</ele>
        <time>2016-10-15T06:04:14Z</time>
      </trkpt>
      <trkpt lat="42.522320000" lon="-2.433856000">
        <ele>512.00</ele>
        <time>2016-10-15T06:04:15Z</time>
      </trkpt>
      <trkpt lat="42.522336000" lon="-2.433888000">
        <ele>512.10</ele>
        <time>2016-10-15T06:04:16Z</time>
      </trkpt>
      <trkpt lat="42.522356000" lon="-2.433920000">
        <ele>512.10</ele>
        <time>2016-10-15T06:04:17Z</time>
      </trkpt>
      <trkpt lat="42.522375000" lon="-2.433951000">
        <ele>512.10</ele>
        <time>2016-10-15T06:04:18Z</time>
      </trkpt>
      <trkpt lat="42.522395000" lon="-2.433982000">
        <ele>512.10</ele>
        <time>2016-10-15T06:04:19Z</time>
      </trkpt>
      <trkpt lat="42.522415000" lon="-2.434013000">
        <ele>512.10</ele>
        <time>2016-10-15T06:04:20Z</time>
      </trkpt>
      <trkpt lat="42.522438000" lon="-2.434046000">
        <ele>512.10</ele>
        <time>2016-10-15T06:04:21Z</time>
      </trkpt>
      <trkpt lat="42.522461000" lon="-2.434086000">
        <ele>512.10</ele>
        <time>2016-10-15T06:04:22Z</time>
      </trkpt>
      <trkpt lat="42.522484000" lon="-2.434134000">
        <ele>512.10</ele>
        <time>2016-10-15T06:04:23Z</time>
      </trkpt>
      <trkpt lat="42.522508000" lon="-2.434181000">
        <ele>512.00</ele>
        <time>2016-10-15T06:04:24Z</time>
      </trkpt>
      <trkpt lat="42.522530000" lon="-2.434229000">
        <ele>512.00</ele>
        <time>2016-10-15T06:04:25Z</time>
      </trkpt>
      <trkpt lat="42.522549000" lon="-2.434287000">
        <ele>511.70</ele>
        <time>2016-10-15T06:04:26Z</time>
      </trkpt>
      <trkpt lat="42.522566000" lon="-2.434350000">
        <ele>511.60</ele>
        <time>2016-10-15T06:04:27Z</time>
      </trkpt>
      <trkpt lat="42.522597000" lon="-2.434410000">
        <ele>511.40</ele>
        <time>2016-10-15T06:04:28Z</time>
      </trkpt>
      <trkpt lat="42.522634000" lon="-2.434469000">
        <ele>511.20</ele>
        <time>2016-10-15T06:04:29Z</time>
      </trkpt>
      <trkpt lat="42.522673000" lon="-2.434526000">
        <ele>511.00</ele>
        <time>2016-10-15T06:04:30Z</time>
      </trkpt>
      <trkpt lat="42.522715000" lon="-2.434579000">
        <ele>510.80</ele>
        <time>2016-10-15T06:04:31Z</time>
      </trkpt>
      <trkpt lat="42.522761000" lon="-2.434629000">
        <ele>510.50</ele>
        <time>2016-10-15T06:04:32Z</time>
      </trkpt>
      <trkpt lat="42.522805000" lon="-2.434677000">
        <ele>510.40</ele>
        <time>2016-10-15T06:04:33Z</time>
      </trkpt>
      <trkpt lat="42.522849000" lon="-2.434717000">
        <ele>510.10</ele>
        <time>2016-10-15T06:04:34Z</time>
      </trkpt>
      <trkpt lat="42.522889000" lon="-2.434763000">
        <ele>509.90</ele>
        <time>2016-10-15T06:04:35Z</time>
      </trkpt>
      <trkpt lat="42.522927000" lon="-2.434806000">
        <ele>509.70</ele>
        <time>2016-10-15T06:04:36Z</time>
      </trkpt>
      <trkpt lat="42.522966000" lon="-2.434847000">
        <ele>509.60</ele>
        <time>2016-10-15T06:04:37Z</time>
      </trkpt>
      <trkpt lat="42.523004000" lon="-2.434885000">
        <ele>509.40</ele>
        <time>2016-10-15T06:04:38Z</time>
      </trkpt>
      <trkpt lat="42.523043000" lon="-2.434924000">
        <ele>509.20</ele>
        <time>2016-10-15T06:04:39Z</time>
      </trkpt>
      <trkpt lat="42.523083000" lon="-2.434964000">
        <ele>509.20</ele>
        <time>2016-10-15T06:04:40Z</time>
      </trkpt>
      <trkpt lat="42.523122000" lon="-2.435004000">
        <ele>509.10</ele>
        <time>2016-10-15T06:04:41Z</time>
      </trkpt>
      <trkpt lat="42.523158000" lon="-2.435048000">
        <ele>509.00</ele>
        <time>2016-10-15T06:04:42Z</time>
      </trkpt>
      <trkpt lat="42.523194000" lon="-2.435089000">
        <ele>509.00</ele>
        <time>2016-10-15T06:04:43Z</time>
      </trkpt>
      <trkpt lat="42.523230000" lon="-2.435123000">
        <ele>509.00</ele>
        <time>2016-10-15T06:04:44Z</time>
      </trkpt>
      <trkpt lat="42.523267000" lon="-2.435153000">
        <ele>509.00</ele>
        <time>2016-10-15T06:04:45Z</time>
      </trkpt>
      <trkpt lat="42.523302000" lon="-2.435178000">
        <ele>508.90</ele>
        <time>2016-10-15T06:04:46Z</time>
      </trkpt>
      <trkpt lat="42.523336000" lon="-2.435199000">
        <ele>508.80</ele>
        <time>2016-10-15T06:04:47Z</time>
      </trkpt>
      <trkpt lat="42.523367000" lon="-2.435217000">
        <ele>508.80</ele>
        <time>2016-10-15T06:04:48Z</time>
      </trkpt>
      <trkpt lat="42.523435000" lon="-2.435258000">
        <ele>508.70</ele>
        <time>2016-10-15T06:04:50Z</time>
      </trkpt>
      <trkpt lat="42.523474000" lon="-2.435273000">
        <ele>508.60</ele>
        <time>2016-10-15T06:04:51Z</time>
      </trkpt>
      <trkpt lat="42.523514000" lon="-2.435278000">
        <ele>508.60</ele>
        <time>2016-10-15T06:04:52Z</time>
      </trkpt>
      <trkpt lat="42.523552000" lon="-2.435285000">
        <ele>508.60</ele>
        <time>2016-10-15T06:04:53Z</time>
      </trkpt>
      <trkpt lat="42.523587000" lon="-2.435288000">
        <ele>508.40</ele>
        <time>2016-10-15T06:04:54Z</time>
      </trkpt>
      <trkpt lat="42.523621000" lon="-2.435290000">
        <ele>508.20</ele>
        <time>2016-10-15T06:04:55Z</time>
      </trkpt>
      <trkpt lat="42.523656000" lon="-2.435298000">
        <ele>508.10</ele>
        <time>2016-10-15T06:04:56Z</time>
      </trkpt>
      <trkpt lat="42.523690000" lon="-2.435307000">
        <ele>508.00</ele>
        <time>2016-10-15T06:04:57Z</time>
      </trkpt>
      <trkpt lat="42.523723000" lon="-2.435318000">
        <ele>508.00</ele>
        <time>2016-10-15T06:04:58Z</time>
      </trkpt>
      <trkpt lat="42.523757000" lon="-2.435330000">
        <ele>507.90</ele>
        <time>2016-10-15T06:04:59Z</time>
      </trkpt>
      <trkpt lat="42.523793000" lon="-2.435342000">
        <ele>508.20</ele>
        <time>2016-10-15T06:05:00Z</time>
      </trkpt>
      <trkpt lat="42.523825000" lon="-2.435358000">
        <ele>508.30</ele>
        <time>2016-10-15T06:05:01Z</time>
      </trkpt>
      <trkpt lat="42.523857000" lon="-2.435373000">
        <ele>508.50</ele>
        <time>2016-10-15T06:05:02Z</time>
      </trkpt>
      <trkpt lat="42.523891000" lon="-2.435388000">
        <ele>508.70</ele>
        <time>2016-10-15T06:05:03Z</time>
      </trkpt>
      <trkpt lat="42.523925000" lon="-2.435400000">
        <ele>508.80</ele>
        <time>2016-10-15T06:05:04Z</time>
      </trkpt>
      <trkpt lat="42.523963000" lon="-2.435412000">
        <ele>508.90</ele>
        <time>2016-10-15T06:05:05Z</time>
      </trkpt>
      <trkpt lat="42.524002000" lon="-2.435428000">
        <ele>508.80</ele>
        <time>2016-10-15T06:05:06Z</time>
      </trkpt>
      <trkpt lat="42.524041000" lon="-2.435453000">
        <ele>508.70</ele>
        <time>2016-10-15T06:05:07Z</time>
      </trkpt>
      <trkpt lat="42.524083000" lon="-2.435485000">
        <ele>508.60</ele>
        <time>2016-10-15T06:05:08Z</time>
      </trkpt>
      <trkpt lat="42.524124000" lon="-2.435521000">
        <ele>508.60</ele>
        <time>2016-10-15T06:05:09Z</time>
      </trkpt>
      <trkpt lat="42.524166000" lon="-2.435556000">
        <ele>508.40</ele>
        <time>2016-10-15T06:05:10Z</time>
      </trkpt>
      <trkpt lat="42.524210000" lon="-2.435597000">
        <ele>508.30</ele>
        <time>2016-10-15T06:05:11Z</time>
      </trkpt>
      <trkpt lat="42.524255000" lon="-2.435641000">
        <ele>508.00</ele>
        <time>2016-10-15T06:05:12Z</time>
      </trkpt>
      <trkpt lat="42.524299000" lon="-2.435694000">
        <ele>507.70</ele>
        <time>2016-10-15T06:05:13Z</time>
      </trkpt>
      <trkpt lat="42.524345000" lon="-2.435746000">
        <ele>507.30</ele>
        <time>2016-10-15T06:05:14Z</time>
      </trkpt>
      <trkpt lat="42.524395000" lon="-2.435798000">
        <ele>507.10</ele>
        <time>2016-10-15T06:05:15Z</time>
      </trkpt>
      <trkpt lat="42.524444000" lon="-2.435847000">
        <ele>506.90</ele>
        <time>2016-10-15T06:05:16Z</time>
      </trkpt>
      <trkpt lat="42.524493000" lon="-2.435898000">
        <ele>506.70</ele>
        <time>2016-10-15T06:05:17Z</time>
      </trkpt>
      <trkpt lat="42.524544000" lon="-2.435943000">
        <ele>506.50</ele>
        <time>2016-10-15T06:05:18Z</time>
      </trkpt>
      <trkpt lat="42.524596000" lon="-2.435984000">
        <ele>506.20</ele>
        <time>2016-10-15T06:05:19Z</time>
      </trkpt>
      <trkpt lat="42.524652000" lon="-2.436025000">
        <ele>506.10</ele>
        <time>2016-10-15T06:05:20Z</time>
      </trkpt>
      <trkpt lat="42.524705000" lon="-2.436055000">
        <ele>506.00</ele>
        <time>2016-10-15T06:05:21Z</time>
      </trkpt>
      <trkpt lat="42.524758000" lon="-2.436071000">
        <ele>505.80</ele>
        <time>2016-10-15T06:05:22Z</time>
      </trkpt>
      <trkpt lat="42.524814000" lon="-2.436077000">
        <ele>505.60</ele>
        <time>2016-10-15T06:05:23Z</time>
      </trkpt>
      <trkpt lat="42.524867000" lon="-2.436075000">
        <ele>505.30</ele>
        <time>2016-10-15T06:05:24Z</time>
      </trkpt>
      <trkpt lat="42.524914000" lon="-2.436076000">
        <ele>505.10</ele>
        <time>2016-10-15T06:05:25Z</time>
      </trkpt>
      <trkpt lat="42.524958000" lon="-2.436082000">
        <ele>504.90</ele>
        <time>2016-10-15T06:05:26Z</time>
      </trkpt>
      <trkpt lat="42.525001000" lon="-2.436090000">
        <ele>504.80</ele>
        <time>2016-10-15T06:05:27Z</time>
      </trkpt>
      <trkpt lat="42.525044000" lon="-2.436098000">
        <ele>504.80</ele>
        <time>2016-10-15T06:05:28Z</time>
      </trkpt>
      <trkpt lat="42.525085000" lon="-2.436103000">
        <ele>504.80</ele>
        <time>2016-10-15T06:05:29Z</time>
      </trkpt>
      <trkpt lat="42.525119000" lon="-2.436102000">
        <ele>504.80</ele>
        <time>2016-10-15T06:05:30Z</time>
      </trkpt>
      <trkpt lat="42.525153000" lon="-2.436099000">
        <ele>504.90</ele>
        <time>2016-10-15T06:05:31Z</time>
      </trkpt>
      <trkpt lat="42.525185000" lon="-2.436095000">
        <ele>504.90</ele>
        <time>2016-10-15T06:05:32Z</time>
      </trkpt>
      <trkpt lat="42.525217000" lon="-2.436091000">
        <ele>504.90</ele>
        <time>2016-10-15T06:05:33Z</time>
      </trkpt>
      <trkpt lat="42.525250000" lon="-2.436080000">
        <ele>505.10</ele>
        <time>2016-10-15T06:05:34Z</time>
      </trkpt>
      <trkpt lat="42.525277000" lon="-2.436073000">
        <ele>505.40</ele>
        <time>2016-10-15T06:05:35Z</time>
      </trkpt>
      <trkpt lat="42.525305000" lon="-2.436069000">
        <ele>505.60</ele>
        <time>2016-10-15T06:05:36Z</time>
      </trkpt>
      <trkpt lat="42.525335000" lon="-2.436066000">
        <ele>505.80</ele>
        <time>2016-10-15T06:05:37Z</time>
      </trkpt>
      <trkpt lat="42.525365000" lon="-2.436069000">
        <ele>505.90</ele>
        <time>2016-10-15T06:05:38Z</time>
      </trkpt>
      <trkpt lat="42.525395000" lon="-2.436071000">
        <ele>505.90</ele>
        <time>2016-10-15T06:05:39Z</time>
      </trkpt>
      <trkpt lat="42.525425000" lon="-2.436070000">
        <ele>506.00</ele>
        <time>2016-10-15T06:05:40Z</time>
      </trkpt>
      <trkpt lat="42.525456000" lon="-2.436072000">
        <ele>506.10</ele>
        <time>2016-10-15T06:05:41Z</time>
      </trkpt>
      <trkpt lat="42.525490000" lon="-2.436082000">
        <ele>506.20</ele>
        <time>2016-10-15T06:05:42Z</time>
      </trkpt>
      <trkpt lat="42.525525000" lon="-2.436090000">
        <ele>506.20</ele>
        <time>2016-10-15T06:05:43Z</time>
      </trkpt>
      <trkpt lat="42.525557000" lon="-2.436097000">
        <ele>506.20</ele>
        <time>2016-10-15T06:05:44Z</time>
      </trkpt>
      <trkpt lat="42.525590000" lon="-2.436108000">
        <ele>506.20</ele>
        <time>2016-10-15T06:05:45Z</time>
      </trkpt>
      <trkpt lat="42.525622000" lon="-2.436117000">
        <ele>506.30</ele>
        <time>2016-10-15T06:05:46Z</time>
      </trkpt>
      <trkpt lat="42.525654000" lon="-2.436129000">
        <ele>506.30</ele>
        <time>2016-10-15T06:05:47Z</time>
      </trkpt>
      <trkpt lat="42.525686000" lon="-2.436145000">
        <ele>506.30</ele>
        <time>2016-10-15T06:05:48Z</time>
      </trkpt>
      <trkpt lat="42.525717000" lon="-2.436160000">
        <ele>506.30</ele>
        <time>2016-10-15T06:05:49Z</time>
      </trkpt>
      <trkpt lat="42.525783000" lon="-2.436197000">
        <ele>506.30</ele>
        <time>2016-10-15T06:05:51Z</time>
      </trkpt>
      <trkpt lat="42.525819000" lon="-2.436221000">
        <ele>506.30</ele>
        <time>2016-10-15T06:05:52Z</time>
      </trkpt>
      <trkpt lat="42.525854000" lon="-2.436249000">
        <ele>506.30</ele>
        <time>2016-10-15T06:05:53Z</time>
      </trkpt>
      <trkpt lat="42.525891000" lon="-2.436273000">
        <ele>506.20</ele>
        <time>2016-10-15T06:05:54Z</time>
      </trkpt>
      <trkpt lat="42.525929000" lon="-2.436295000">
        <ele>506.20</ele>
        <time>2016-10-15T06:05:55Z</time>
      </trkpt>
      <trkpt lat="42.525966000" lon="-2.436316000">
        <ele>506.20</ele>
        <time>2016-10-15T06:05:56Z</time>
      </trkpt>
      <trkpt lat="42.526002000" lon="-2.436334000">
        <ele>506.10</ele>
        <time>2016-10-15T06:05:57Z</time>
      </trkpt>
      <trkpt lat="42.526041000" lon="-2.436347000">
        <ele>506.10</ele>
        <time>2016-10-15T06:05:58Z</time>
      </trkpt>
      <trkpt lat="42.526082000" lon="-2.436358000">
        <ele>506.10</ele>
        <time>2016-10-15T06:05:59Z</time>
      </trkpt>
      <trkpt lat="42.526120000" lon="-2.436365000">
        <ele>506.10</ele>
        <time>2016-10-15T06:06:00Z</time>
      </trkpt>
      <trkpt lat="42.526159000" lon="-2.436370000">
        <ele>506.10</ele>
        <time>2016-10-15T06:06:01Z</time>
      </trkpt>
      <trkpt lat="42.526194000" lon="-2.436369000">
        <ele>506.10</ele>
        <time>2016-10-15T06:06:02Z</time>
      </trkpt>
      <trkpt lat="42.526228000" lon="-2.436366000">
        <ele>506.10</ele>
        <time>2016-10-15T06:06:03Z</time>
      </trkpt>
      <trkpt lat="42.526261000" lon="-2.436364000">
        <ele>506.10</ele>
        <time>2016-10-15T06:06:04Z</time>
      </trkpt>
      <trkpt lat="42.526292000" lon="-2.436359000">
        <ele>506.10</ele>
        <time>2016-10-15T06:06:05Z</time>
      </trkpt>
      <trkpt lat="42.526320000" lon="-2.436355000">
        <ele>506.00</ele>
        <time>2016-10-15T06:06:06Z</time>
      </trkpt>
      <trkpt lat="42.526347000" lon="-2.436352000">
        <ele>506.00</ele>
        <time>2016-10-15T06:06:07Z</time>
      </trkpt>
      <trkpt lat="42.526374000" lon="-2.436347000">
        <ele>506.20</ele>
        <time>2016-10-15T06:06:08Z</time>
      </trkpt>
      <trkpt lat="42.526403000" lon="-2.436346000">
        <ele>506.40</ele>
        <time>2016-10-15T06:06:09Z</time>
      </trkpt>
      <trkpt lat="42.526430000" lon="-2.436347000">
        <ele>506.40</ele>
        <time>2016-10-15T06:06:10Z</time>
      </trkpt>
      <trkpt lat="42.526457000" lon="-2.436351000">
        <ele>506.50</ele>
        <time>2016-10-15T06:06:11Z</time>
      </trkpt>
      <trkpt lat="42.526481000" lon="-2.436354000">
        <ele>506.60</ele>
        <time>2016-10-15T06:06:12Z</time>
      </trkpt>
      <trkpt lat="42.526509000" lon="-2.436361000">
        <ele>506.70</ele>
        <time>2016-10-15T06:06:13Z</time>
      </trkpt>
      <trkpt lat="42.526538000" lon="-2.436369000">
        <ele>506.80</ele>
        <time>2016-10-15T06:06:14Z</time>
      </trkpt>
      <trkpt lat="42.526568000" lon="-2.436377000">
        <ele>506.90</ele>
        <time>2016-10-15T06:06:15Z</time>
      </trkpt>
      <trkpt lat="42.526593000" lon="-2.436385000">
        <ele>507.20</ele>
        <time>2016-10-15T06:06:16Z</time>
      </trkpt>
      <trkpt lat="42.526621000" lon="-2.436393000">
        <ele>507.50</ele>
        <time>2016-10-15T06:06:17Z</time>
      </trkpt>
      <trkpt lat="42.526648000" lon="-2.436397000">
        <ele>507.70</ele>
        <time>2016-10-15T06:06:18Z</time>
      </trkpt>
      <trkpt lat="42.526672000" lon="-2.436400000">
        <ele>507.90</ele>
        <time>2016-10-15T06:06:19Z</time>
      </trkpt>
      <trkpt lat="42.526698000" lon="-2.436400000">
        <ele>508.00</ele>
        <time>2016-10-15T06:06:20Z</time>
      </trkpt>
      <trkpt lat="42.526718000" lon="-2.436408000">
        <ele>508.20</ele>
        <time>2016-10-15T06:06:21Z</time>
      </trkpt>
      <trkpt lat="42.526742000" lon="-2.436414000">
        <ele>508.40</ele>
        <time>2016-10-15T06:06:22Z</time>
      </trkpt>
      <trkpt lat="42.526769000" lon="-2.436422000">
        <ele>508.60</ele>
        <time>2016-10-15T06:06:23Z</time>
      </trkpt>
      <trkpt lat="42.526795000" lon="-2.436434000">
        <ele>508.70</ele>
        <time>2016-10-15T06:06:24Z</time>
      </trkpt>
      <trkpt lat="42.526818000" lon="-2.436453000">
        <ele>508.80</ele>
        <time>2016-10-15T06:06:25Z</time>
      </trkpt>
      <trkpt lat="42.526842000" lon="-2.436472000">
        <ele>509.00</ele>
        <time>2016-10-15T06:06:26Z</time>
      </trkpt>
      <trkpt lat="42.526862000" lon="-2.436493000">
        <ele>509.20</ele>
        <time>2016-10-15T06:06:27Z</time>
      </trkpt>
      <trkpt lat="42.526882000" lon="-2.436517000">
        <ele>509.50</ele>
        <time>2016-10-15T06:06:28Z</time>
      </trkpt>
      <trkpt lat="42.526897000" lon="-2.436545000">
        <ele>509.70</ele>
        <time>2016-10-15T06:06:29Z</time>
      </trkpt>
      <trkpt lat="42.526909000" lon="-2.436574000">
        <ele>509.90</ele>
        <time>2016-10-15T06:06:30Z</time>
      </trkpt>
      <trkpt lat="42.526918000" lon="-2.436603000">
        <ele>510.00</ele>
        <time>2016-10-15T06:06:31Z</time>
      </trkpt>
      <trkpt lat="42.526930000" lon="-2.436633000">
        <ele>510.20</ele>
        <time>2016-10-15T06:06:32Z</time>
      </trkpt>
      <trkpt lat="42.526939000" lon="-2.436664000">
        <ele>510.30</ele>
        <time>2016-10-15T06:06:33Z</time>
      </trkpt>
      <trkpt lat="42.526951000" lon="-2.436694000">
        <ele>510.50</ele>
        <time>2016-10-15T06:06:34Z</time>
      </trkpt>
      <trkpt lat="42.526960000" lon="-2.436725000">
        <ele>510.70</ele>
        <time>2016-10-15T06:06:35Z</time>
      </trkpt>
      <trkpt lat="42.526974000" lon="-2.436753000">
        <ele>510.80</ele>
        <time>2016-10-15T06:06:36Z</time>
      </trkpt>
      <trkpt lat="42.526987000" lon="-2.436780000">
        <ele>510.90</ele>
        <time>2016-10-15T06:06:37Z</time>
      </trkpt>
      <trkpt lat="42.527004000" lon="-2.436805000">
        <ele>511.10</ele>
        <time>2016-10-15T06:06:38Z</time>
      </trkpt>
      <trkpt lat="42.527022000" lon="-2.436831000">
        <ele>511.30</ele>
        <time>2016-10-15T06:06:39Z</time>
      </trkpt>
      <trkpt lat="42.527039000" lon="-2.436854000">
        <ele>511.60</ele>
        <time>2016-10-15T06:06:40Z</time>
      </trkpt>
      <trkpt lat="42.527062000" lon="-2.436872000">
        <ele>511.80</ele>
        <time>2016-10-15T06:06:41Z</time>
      </trkpt>
      <trkpt lat="42.527083000" lon="-2.436888000">
        <ele>512.10</ele>
        <time>2016-10-15T06:06:42Z</time>
      </trkpt>
      <trkpt lat="42.527101000" lon="-2.436900000">
        <ele>512.30</ele>
        <time>2016-10-15T06:06:43Z</time>
      </trkpt>
      <trkpt lat="42.527121000" lon="-2.436911000">
        <ele>512.60</ele>
        <time>2016-10-15T06:06:44Z</time>
      </trkpt>
      <trkpt lat="42.527140000" lon="-2.436911000">
        <ele>512.80</ele>
        <time>2016-10-15T06:06:45Z</time>
      </trkpt>
      <trkpt lat="42.527157000" lon="-2.436913000">
        <ele>513.30</ele>
        <time>2016-10-15T06:06:46Z</time>
      </trkpt>
      <trkpt lat="42.527172000" lon="-2.436915000">
        <ele>513.60</ele>
        <time>2016-10-15T06:06:47Z</time>
      </trkpt>
      <trkpt lat="42.527190000" lon="-2.436914000">
        <ele>514.00</ele>
        <time>2016-10-15T06:06:48Z</time>
      </trkpt>
      <trkpt lat="42.527206000" lon="-2.436914000">
        <ele>514.20</ele>
        <time>2016-10-15T06:06:49Z</time>
      </trkpt>
      <trkpt lat="42.527224000" lon="-2.436913000">
        <ele>514.40</ele>
        <time>2016-10-15T06:06:50Z</time>
      </trkpt>
      <trkpt lat="42.527258000" lon="-2.436912000">
        <ele>514.80</ele>
        <time>2016-10-15T06:06:52Z</time>
      </trkpt>
      <trkpt lat="42.527279000" lon="-2.436907000">
        <ele>515.00</ele>
        <time>2016-10-15T06:06:53Z</time>
      </trkpt>
      <trkpt lat="42.527297000" lon="-2.436905000">
        <ele>515.40</ele>
        <time>2016-10-15T06:06:54Z</time>
      </trkpt>
      <trkpt lat="42.527317000" lon="-2.436906000">
        <ele>515.80</ele>
        <time>2016-10-15T06:06:55Z</time>
      </trkpt>
      <trkpt lat="42.527336000" lon="-2.436903000">
        <ele>516.00</ele>
        <time>2016-10-15T06:06:56Z</time>
      </trkpt>
      <trkpt lat="42.527357000" lon="-2.436903000">
        <ele>516.20</ele>
        <time>2016-10-15T06:06:57Z</time>
      </trkpt>
      <trkpt lat="42.527383000" lon="-2.436907000">
        <ele>516.40</ele>
        <time>2016-10-15T06:06:58Z</time>
      </trkpt>
      <trkpt lat="42.527407000" lon="-2.436909000">
        <ele>516.50</ele>
        <time>2016-10-15T06:06:59Z</time>
      </trkpt>
      <trkpt lat="42.527430000" lon="-2.436903000">
        <ele>516.60</ele>
        <time>2016-10-15T06:07:00Z</time>
      </trkpt>
      <trkpt lat="42.527452000" lon="-2.436898000">
        <ele>516.60</ele>
        <time>2016-10-15T06:07:01Z</time>
      </trkpt>
      <trkpt lat="42.527477000" lon="-2.436894000">
        <ele>516.70</ele>
        <time>2016-10-15T06:07:02Z</time>
      </trkpt>
      <trkpt lat="42.527504000" lon="-2.436892000">
        <ele>516.80</ele>
        <time>2016-10-15T06:07:03Z</time>
      </trkpt>
      <trkpt lat="42.527537000" lon="-2.436891000">
        <ele>516.90</ele>
        <time>2016-10-15T06:07:04Z</time>
      </trkpt>
      <trkpt lat="42.527571000" lon="-2.436893000">
        <ele>516.90</ele>
        <time>2016-10-15T06:07:05Z</time>
      </trkpt>
      <trkpt lat="42.527609000" lon="-2.436890000">
        <ele>516.90</ele>
        <time>2016-10-15T06:07:06Z</time>
      </trkpt>
      <trkpt lat="42.527650000" lon="-2.436892000">
        <ele>516.90</ele>
        <time>2016-10-15T06:07:07Z</time>
      </trkpt>
      <trkpt lat="42.527690000" lon="-2.436892000">
        <ele>516.70</ele>
        <time>2016-10-15T06:07:08Z</time>
      </trkpt>
      <trkpt lat="42.527731000" lon="-2.436893000">
        <ele>516.50</ele>
        <time>2016-10-15T06:07:09Z</time>
      </trkpt>
      <trkpt lat="42.527769000" lon="-2.436893000">
        <ele>516.40</ele>
        <time>2016-10-15T06:07:10Z</time>
      </trkpt>
      <trkpt lat="42.527808000" lon="-2.436885000">
        <ele>516.30</ele>
        <time>2016-10-15T06:07:11Z</time>
      </trkpt>
      <trkpt lat="42.527845000" lon="-2.436882000">
        <ele>516.20</ele>
        <time>2016-10-15T06:07:12Z</time>
      </trkpt>
      <trkpt lat="42.527880000" lon="-2.436880000">
        <ele>516.20</ele>
        <time>2016-10-15T06:07:13Z</time>
      </trkpt>
      <trkpt lat="42.527913000" lon="-2.436879000">
        <ele>516.10</ele>
        <time>2016-10-15T06:07:14Z</time>
      </trkpt>
      <trkpt lat="42.527942000" lon="-2.436877000">
        <ele>516.10</ele>
        <time>2016-10-15T06:07:15Z</time>
      </trkpt>
      <trkpt lat="42.527971000" lon="-2.436871000">
        <ele>516.10</ele>
        <time>2016-10-15T06:07:16Z</time>
      </trkpt>
      <trkpt lat="42.528003000" lon="-2.436866000">
        <ele>516.10</ele>
        <time>2016-10-15T06:07:17Z</time>
      </trkpt>
      <trkpt lat="42.528035000" lon="-2.436863000">
        <ele>516.10</ele>
        <time>2016-10-15T06:07:18Z</time>
      </trkpt>
      <trkpt lat="42.528068000" lon="-2.436860000">
        <ele>516.10</ele>
        <time>2016-10-15T06:07:19Z</time>
      </trkpt>
      <trkpt lat="42.528105000" lon="-2.436860000">
        <ele>516.00</ele>
        <time>2016-10-15T06:07:20Z</time>
      </trkpt>
      <trkpt lat="42.528138000" lon="-2.436859000">
        <ele>515.90</ele>
        <time>2016-10-15T06:07:21Z</time>
      </trkpt>
      <trkpt lat="42.528173000" lon="-2.436861000">
        <ele>515.90</ele>
        <time>2016-10-15T06:07:22Z</time>
      </trkpt>
      <trkpt lat="42.528206000" lon="-2.436861000">
        <ele>515.90</ele>
        <time>2016-10-15T06:07:23Z</time>
      </trkpt>
      <trkpt lat="42.528237000" lon="-2.436863000">
        <ele>515.80</ele>
        <time>2016-10-15T06:07:24Z</time>
      </trkpt>
      <trkpt lat="42.528270000" lon="-2.436866000">
        <ele>515.80</ele>
        <time>2016-10-15T06:07:25Z</time>
      </trkpt>
      <trkpt lat="42.528306000" lon="-2.436868000">
        <ele>515.80</ele>
        <time>2016-10-15T06:07:26Z</time>
      </trkpt>
      <trkpt lat="42.528339000" lon="-2.436872000">
        <ele>515.80</ele>
        <time>2016-10-15T06:07:27Z</time>
      </trkpt>
      <trkpt lat="42.528371000" lon="-2.436880000">
        <ele>515.80</ele>
        <time>2016-10-15T06:07:28Z</time>
      </trkpt>
      <trkpt lat="42.528397000" lon="-2.436880000">
        <ele>515.80</ele>
        <time>2016-10-15T06:07:29Z</time>
      </trkpt>
      <trkpt lat="42.528426000" lon="-2.436877000">
        <ele>515.70</ele>
        <time>2016-10-15T06:07:30Z</time>
      </trkpt>
      <trkpt lat="42.528454000" lon="-2.436882000">
        <ele>515.70</ele>
        <time>2016-10-15T06:07:31Z</time>
      </trkpt>
      <trkpt lat="42.528484000" lon="-2.436891000">
        <ele>515.50</ele>
        <time>2016-10-15T06:07:32Z</time>
      </trkpt>
      <trkpt lat="42.528513000" lon="-2.436906000">
        <ele>515.40</ele>
        <time>2016-10-15T06:07:33Z</time>
      </trkpt>
      <trkpt lat="42.528542000" lon="-2.436921000">
        <ele>515.30</ele>
        <time>2016-10-15T06:07:34Z</time>
      </trkpt>
      <trkpt lat="42.528572000" lon="-2.436941000">
        <ele>515.20</ele>
        <time>2016-10-15T06:07:35Z</time>
      </trkpt>
      <trkpt lat="42.528598000" lon="-2.436960000">
        <ele>515.40</ele>
        <time>2016-10-15T06:07:36Z</time>
      </trkpt>
      <trkpt lat="42.528626000" lon="-2.436979000">
        <ele>515.60</ele>
        <time>2016-10-15T06:07:37Z</time>
      </trkpt>
      <trkpt lat="42.528651000" lon="-2.436998000">
        <ele>515.70</ele>
        <time>2016-10-15T06:07:38Z</time>
      </trkpt>
      <trkpt lat="42.528679000" lon="-2.437015000">
        <ele>515.80</ele>
        <time>2016-10-15T06:07:39Z</time>
      </trkpt>
      <trkpt lat="42.528704000" lon="-2.437038000">
        <ele>515.80</ele>
        <time>2016-10-15T06:07:40Z</time>
      </trkpt>
      <trkpt lat="42.528727000" lon="-2.437061000">
        <ele>515.80</ele>
        <time>2016-10-15T06:07:41Z</time>
      </trkpt>
      <trkpt lat="42.528750000" lon="-2.437086000">
        <ele>515.80</ele>
        <time>2016-10-15T06:07:42Z</time>
      </trkpt>
      <trkpt lat="42.528776000" lon="-2.437107000">
        <ele>515.80</ele>
        <time>2016-10-15T06:07:43Z</time>
      </trkpt>
      <trkpt lat="42.528800000" lon="-2.437124000">
        <ele>516.10</ele>
        <time>2016-10-15T06:07:44Z</time>
      </trkpt>
      <trkpt lat="42.528826000" lon="-2.437142000">
        <ele>516.30</ele>
        <time>2016-10-15T06:07:45Z</time>
      </trkpt>
      <trkpt lat="42.528853000" lon="-2.437160000">
        <ele>516.70</ele>
        <time>2016-10-15T06:07:46Z</time>
      </trkpt>
      <trkpt lat="42.528877000" lon="-2.437178000">
        <ele>517.00</ele>
        <time>2016-10-15T06:07:47Z</time>
      </trkpt>
      <trkpt lat="42.528901000" lon="-2.437194000">
        <ele>517.20</ele>
        <time>2016-10-15T06:07:48Z</time>
      </trkpt>
      <trkpt lat="42.528925000" lon="-2.437207000">
        <ele>517.40</ele>
        <time>2016-10-15T06:07:49Z</time>
      </trkpt>
      <trkpt lat="42.528953000" lon="-2.437217000">
        <ele>517.60</ele>
        <time>2016-10-15T06:07:50Z</time>
      </trkpt>
      <trkpt lat="42.528979000" lon="-2.437221000">
        <ele>517.80</ele>
        <time>2016-10-15T06:07:51Z</time>
      </trkpt>
      <trkpt lat="42.529036000" lon="-2.437221000">
        <ele>518.20</ele>
        <time>2016-10-15T06:07:53Z</time>
      </trkpt>
      <trkpt lat="42.529065000" lon="-2.437223000">
        <ele>518.50</ele>
        <time>2016-10-15T06:07:54Z</time>
      </trkpt>
      <trkpt lat="42.529093000" lon="-2.437227000">
        <ele>518.70</ele>
        <time>2016-10-15T06:07:55Z</time>
      </trkpt>
      <trkpt lat="42.529125000" lon="-2.437227000">
        <ele>518.90</ele>
        <time>2016-10-15T06:07:56Z</time>
      </trkpt>
      <trkpt lat="42.529150000" lon="-2.437229000">
        <ele>519.00</ele>
        <time>2016-10-15T06:07:57Z</time>
      </trkpt>
      <trkpt lat="42.529180000" lon="-2.437233000">
        <ele>519.10</ele>
        <time>2016-10-15T06:07:58Z</time>
      </trkpt>
      <trkpt lat="42.529209000" lon="-2.437235000">
        <ele>519.10</ele>
        <time>2016-10-15T06:07:59Z</time>
      </trkpt>
      <trkpt lat="42.529239000" lon="-2.437237000">
        <ele>519.10</ele>
        <time>2016-10-15T06:08:00Z</time>
      </trkpt>
      <trkpt lat="42.529272000" lon="-2.437235000">
        <ele>519.10</ele>
        <time>2016-10-15T06:08:01Z</time>
      </trkpt>
      <trkpt lat="42.529302000" lon="-2.437235000">
        <ele>519.10</ele>
        <time>2016-10-15T06:08:02Z</time>
      </trkpt>
      <trkpt lat="42.529336000" lon="-2.437234000">
        <ele>519.00</ele>
        <time>2016-10-15T06:08:03Z</time>
      </trkpt>
      <trkpt lat="42.529366000" lon="-2.437235000">
        <ele>519.10</ele>
        <time>2016-10-15T06:08:04Z</time>
      </trkpt>
      <trkpt lat="42.529397000" lon="-2.437236000">
        <ele>519.20</ele>
        <time>2016-10-15T06:08:05Z</time>
      </trkpt>
      <trkpt lat="42.529425000" lon="-2.437238000">
        <ele>519.30</ele>
        <time>2016-10-15T06:08:06Z</time>
      </trkpt>
      <trkpt lat="42.529452000" lon="-2.437232000">
        <ele>519.40</ele>
        <time>2016-10-15T06:08:07Z</time>
      </trkpt>
      <trkpt lat="42.529483000" lon="-2.437222000">
        <ele>519.50</ele>
        <time>2016-10-15T06:08:08Z</time>
      </trkpt>
      <trkpt lat="42.529515000" lon="-2.437217000">
        <ele>519.50</ele>
        <time>2016-10-15T06:08:09Z</time>
      </trkpt>
      <trkpt lat="42.529547000" lon="-2.437212000">
        <ele>519.50</ele>
        <time>2016-10-15T06:08:10Z</time>
      </trkpt>
      <trkpt lat="42.529577000" lon="-2.437208000">
        <ele>519.50</ele>
        <time>2016-10-15T06:08:11Z</time>
      </trkpt>
      <trkpt lat="42.529607000" lon="-2.437193000">
        <ele>519.50</ele>
        <time>2016-10-15T06:08:12Z</time>
      </trkpt>
      <trkpt lat="42.529638000" lon="-2.437184000">
        <ele>519.50</ele>
        <time>2016-10-15T06:08:13Z</time>
      </trkpt>
      <trkpt lat="42.529667000" lon="-2.437183000">
        <ele>519.60</ele>
        <time>2016-10-15T06:08:14Z</time>
      </trkpt>
      <trkpt lat="42.529698000" lon="-2.437174000">
        <ele>519.70</ele>
        <time>2016-10-15T06:08:15Z</time>
      </trkpt>
      <trkpt lat="42.529727000" lon="-2.437166000">
        <ele>519.90</ele>
        <time>2016-10-15T06:08:16Z</time>
      </trkpt>
      <trkpt lat="42.529757000" lon="-2.437160000">
        <ele>520.00</ele>
        <time>2016-10-15T06:08:17Z</time>
      </trkpt>
      <trkpt lat="42.529788000" lon="-2.437153000">
        <ele>520.20</ele>
        <time>2016-10-15T06:08:18Z</time>
      </trkpt>
      <trkpt lat="42.529820000" lon="-2.437146000">
        <ele>520.20</ele>
        <time>2016-10-15T06:08:19Z</time>
      </trkpt>
      <trkpt lat="42.529847000" lon="-2.437143000">
        <ele>520.20</ele>
        <time>2016-10-15T06:08:20Z</time>
      </trkpt>
      <trkpt lat="42.529877000" lon="-2.437140000">
        <ele>520.20</ele>
        <time>2016-10-15T06:08:21Z</time>
      </trkpt>
      <trkpt lat="42.529910000" lon="-2.437136000">
        <ele>520.00</ele>
        <time>2016-10-15T06:08:22Z</time>
      </trkpt>
      <trkpt lat="42.529944000" lon="-2.437133000">
        <ele>519.90</ele>
        <time>2016-10-15T06:08:23Z</time>
      </trkpt>
      <trkpt lat="42.529975000" lon="-2.437132000">
        <ele>519.80</ele>
        <time>2016-10-15T06:08:24Z</time>
      </trkpt>
      <trkpt lat="42.530009000" lon="-2.437133000">
        <ele>519.70</ele>
        <time>2016-10-15T06:08:25Z</time>
      </trkpt>
      <trkpt lat="42.530046000" lon="-2.437138000">
        <ele>519.60</ele>
        <time>2016-10-15T06:08:26Z</time>
      </trkpt>
      <trkpt lat="42.530084000" lon="-2.437149000">
        <ele>519.40</ele>
        <time>2016-10-15T06:08:27Z</time>
      </trkpt>
      <trkpt lat="42.530124000" lon="-2.437159000">
        <ele>519.30</ele>
        <time>2016-10-15T06:08:28Z</time>
      </trkpt>
      <trkpt lat="42.530169000" lon="-2.437173000">
        <ele>519.20</ele>
        <time>2016-10-15T06:08:29Z</time>
      </trkpt>
      <trkpt lat="42.530214000" lon="-2.437198000">
        <ele>519.10</ele>
        <time>2016-10-15T06:08:30Z</time>
      </trkpt>
      <trkpt lat="42.530261000" lon="-2.437227000">
        <ele>519.00</ele>
        <time>2016-10-15T06:08:31Z</time>
      </trkpt>
      <trkpt lat="42.530310000" lon="-2.437258000">
        <ele>518.90</ele>
        <time>2016-10-15T06:08:32Z</time>
      </trkpt>
      <trkpt lat="42.530361000" lon="-2.437292000">
        <ele>518.70</ele>
        <time>2016-10-15T06:08:33Z</time>
      </trkpt>
      <trkpt lat="42.530412000" lon="-2.437329000">
        <ele>518.50</ele>
        <time>2016-10-15T06:08:34Z</time>
      </trkpt>
      <trkpt lat="42.530462000" lon="-2.437366000">
        <ele>518.40</ele>
        <time>2016-10-15T06:08:35Z</time>
      </trkpt>
      <trkpt lat="42.530513000" lon="-2.437405000">
        <ele>518.30</ele>
        <time>2016-10-15T06:08:36Z</time>
      </trkpt>
      <trkpt lat="42.530564000" lon="-2.437439000">
        <ele>518.00</ele>
        <time>2016-10-15T06:08:37Z</time>
      </trkpt>
      <trkpt lat="42.530613000" lon="-2.437476000">
        <ele>517.80</ele>
        <time>2016-10-15T06:08:38Z</time>
      </trkpt>
      <trkpt lat="42.530660000" lon="-2.437517000">
        <ele>517.60</ele>
        <time>2016-10-15T06:08:39Z</time>
      </trkpt>
      <trkpt lat="42.530703000" lon="-2.437561000">
        <ele>517.50</ele>
        <time>2016-10-15T06:08:40Z</time>
      </trkpt>
      <trkpt lat="42.530745000" lon="-2.437599000">
        <ele>517.00</ele>
        <time>2016-10-15T06:08:41Z</time>
      </trkpt>
      <trkpt lat="42.530784000" lon="-2.437636000">
        <ele>516.70</ele>
        <time>2016-10-15T06:08:42Z</time>
      </trkpt>
      <trkpt lat="42.530828000" lon="-2.437668000">
        <ele>516.40</ele>
        <time>2016-10-15T06:08:43Z</time>
      </trkpt>
      <trkpt lat="42.530869000" lon="-2.437698000">
        <ele>516.20</ele>
        <time>2016-10-15T06:08:44Z</time>
      </trkpt>
      <trkpt lat="42.530909000" lon="-2.437727000">
        <ele>516.20</ele>
        <time>2016-10-15T06:08:45Z</time>
      </trkpt>
      <trkpt lat="42.530949000" lon="-2.437754000">
        <ele>516.20</ele>
        <time>2016-10-15T06:08:46Z</time>
      </trkpt>
      <trkpt lat="42.530990000" lon="-2.437777000">
        <ele>516.30</ele>
        <time>2016-10-15T06:08:47Z</time>
      </trkpt>
      <trkpt lat="42.531029000" lon="-2.437798000">
        <ele>516.40</ele>
        <time>2016-10-15T06:08:48Z</time>
      </trkpt>
      <trkpt lat="42.531065000" lon="-2.437820000">
        <ele>516.50</ele>
        <time>2016-10-15T06:08:49Z</time>
      </trkpt>
      <trkpt lat="42.531103000" lon="-2.437842000">
        <ele>516.60</ele>
        <time>2016-10-15T06:08:50Z</time>
      </trkpt>
      <trkpt lat="42.531141000" lon="-2.437857000">
        <ele>516.80</ele>
        <time>2016-10-15T06:08:51Z</time>
      </trkpt>
      <trkpt lat="42.531179000" lon="-2.437871000">
        <ele>517.00</ele>
        <time>2016-10-15T06:08:52Z</time>
      </trkpt>
      <trkpt lat="42.531245000" lon="-2.437886000">
        <ele>517.20</ele>
        <time>2016-10-15T06:08:54Z</time>
      </trkpt>
      <trkpt lat="42.531279000" lon="-2.437887000">
        <ele>517.20</ele>
        <time>2016-10-15T06:08:55Z</time>
      </trkpt>
      <trkpt lat="42.531307000" lon="-2.437888000">
        <ele>517.30</ele>
        <time>2016-10-15T06:08:56Z</time>
      </trkpt>
      <trkpt lat="42.531338000" lon="-2.437885000">
        <ele>517.30</ele>
        <time>2016-10-15T06:08:57Z</time>
      </trkpt>
      <trkpt lat="42.531369000" lon="-2.437878000">
        <ele>517.30</ele>
        <time>2016-10-15T06:08:58Z</time>
      </trkpt>
      <trkpt lat="42.531399000" lon="-2.437870000">
        <ele>517.60</ele>
        <time>2016-10-15T06:08:59Z</time>
      </trkpt>
      <trkpt lat="42.531431000" lon="-2.437861000">
        <ele>517.80</ele>
        <time>2016-10-15T06:09:00Z</time>
      </trkpt>
      <trkpt lat="42.531460000" lon="-2.437850000">
        <ele>518.10</ele>
        <time>2016-10-15T06:09:01Z</time>
      </trkpt>
      <trkpt lat="42.531487000" lon="-2.437839000">
        <ele>518.30</ele>
        <time>2016-10-15T06:09:02Z</time>
      </trkpt>
      <trkpt lat="42.531515000" lon="-2.437827000">
        <ele>518.50</ele>
        <time>2016-10-15T06:09:03Z</time>
      </trkpt>
      <trkpt lat="42.531539000" lon="-2.437813000">
        <ele>518.60</ele>
        <time>2016-10-15T06:09:04Z</time>
      </trkpt>
      <trkpt lat="42.531563000" lon="-2.437797000">
        <ele>518.90</ele>
        <time>2016-10-15T06:09:05Z</time>
      </trkpt>
      <trkpt lat="42.531589000" lon="-2.437777000">
        <ele>519.00</ele>
        <time>2016-10-15T06:09:06Z</time>
      </trkpt>
      <trkpt lat="42.531614000" lon="-2.437763000">
        <ele>519.20</ele>
        <time>2016-10-15T06:09:07Z</time>
      </trkpt>
      <trkpt lat="42.531640000" lon="-2.437751000">
        <ele>519.40</ele>
        <time>2016-10-15T06:09:08Z</time>
      </trkpt>
      <trkpt lat="42.531666000" lon="-2.437737000">
        <ele>519.60</ele>
        <time>2016-10-15T06:09:09Z</time>
      </trkpt>
      <trkpt lat="42.531694000" lon="-2.437719000">
        <ele>519.80</ele>
        <time>2016-10-15T06:09:10Z</time>
      </trkpt>
      <trkpt lat="42.531719000" lon="-2.437709000">
        <ele>520.00</ele>
        <time>2016-10-15T06:09:11Z</time>
      </trkpt>
      <trkpt lat="42.531745000" lon="-2.437699000">
        <ele>520.20</ele>
        <time>2016-10-15T06:09:12Z</time>
      </trkpt>
      <trkpt lat="42.531769000" lon="-2.437690000">
        <ele>520.30</ele>
        <time>2016-10-15T06:09:13Z</time>
      </trkpt>
      <trkpt lat="42.531795000" lon="-2.437681000">
        <ele>520.40</ele>
        <time>2016-10-15T06:09:14Z</time>
      </trkpt>
      <trkpt lat="42.531823000" lon="-2.437678000">
        <ele>520.50</ele>
        <time>2016-10-15T06:09:15Z</time>
      </trkpt>
      <trkpt lat="42.531854000" lon="-2.437678000">
        <ele>520.60</ele>
        <time>2016-10-15T06:09:16Z</time>
      </trkpt>
      <trkpt lat="42.531886000" lon="-2.437679000">
        <ele>520.60</ele>
        <time>2016-10-15T06:09:17Z</time>
      </trkpt>
      <trkpt lat="42.531918000" lon="-2.437685000">
        <ele>520.50</ele>
        <time>2016-10-15T06:09:18Z</time>
      </trkpt>
      <trkpt lat="42.531950000" lon="-2.437687000">
        <ele>520.60</ele>
        <time>2016-10-15T06:09:19Z</time>
      </trkpt>
      <trkpt lat="42.531983000" lon="-2.437697000">
        <ele>520.60</ele>
        <time>2016-10-15T06:09:20Z</time>
      </trkpt>
      <trkpt lat="42.532016000" lon="-2.437708000">
        <ele>520.60</ele>
        <time>2016-10-15T06:09:21Z</time>
      </trkpt>
      <trkpt lat="42.532051000" lon="-2.437722000">
        <ele>520.60</ele>
        <time>2016-10-15T06:09:22Z</time>
      </trkpt>
      <trkpt lat="42.532084000" lon="-2.437740000">
        <ele>520.60</ele>
        <time>2016-10-15T06:09:23Z</time>
      </trkpt>
      <trkpt lat="42.532116000" lon="-2.437752000">
        <ele>520.60</ele>
        <time>2016-10-15T06:09:24Z</time>
      </trkpt>
      <trkpt lat="42.532147000" lon="-2.437761000">
        <ele>520.50</ele>
        <time>2016-10-15T06:09:25Z</time>
      </trkpt>
      <trkpt lat="42.532182000" lon="-2.437773000">
        <ele>520.50</ele>
        <time>2016-10-15T06:09:26Z</time>
      </trkpt>
      <trkpt lat="42.532214000" lon="-2.437786000">
        <ele>520.50</ele>
        <time>2016-10-15T06:09:27Z</time>
      </trkpt>
      <trkpt lat="42.532245000" lon="-2.437798000">
        <ele>520.50</ele>
        <time>2016-10-15T06:09:28Z</time>
      </trkpt>
      <trkpt lat="42.532281000" lon="-2.437810000">
        <ele>520.40</ele>
        <time>2016-10-15T06:09:29Z</time>
      </trkpt>
      <trkpt lat="42.532317000" lon="-2.437823000">
        <ele>520.40</ele>
        <time>2016-10-15T06:09:30Z</time>
      </trkpt>
      <trkpt lat="42.532354000" lon="-2.437836000">
        <ele>520.40</ele>
        <time>2016-10-15T06:09:31Z</time>
      </trkpt>
      <trkpt lat="42.532390000" lon="-2.437851000">
        <ele>520.40</ele>
        <time>2016-10-15T06:09:32Z</time>
      </trkpt>
      <trkpt lat="42.532423000" lon="-2.437870000">
        <ele>520.30</ele>
        <time>2016-10-15T06:09:33Z</time>
      </trkpt>
      <trkpt lat="42.532462000" lon="-2.437886000">
        <ele>520.20</ele>
        <time>2016-10-15T06:09:34Z</time>
      </trkpt>
      <trkpt lat="42.532504000" lon="-2.437898000">
        <ele>520.10</ele>
        <time>2016-10-15T06:09:35Z</time>
      </trkpt>
      <trkpt lat="42.532543000" lon="-2.437921000">
        <ele>520.10</ele>
        <time>2016-10-15T06:09:36Z</time>
      </trkpt>
      <trkpt lat="42.532584000" lon="-2.437941000">
        <ele>520.00</ele>
        <time>2016-10-15T06:09:37Z</time>
      </trkpt>
      <trkpt lat="42.532622000" lon="-2.437961000">
        <ele>520.00</ele>
        <time>2016-10-15T06:09:38Z</time>
      </trkpt>
      <trkpt lat="42.532658000" lon="-2.437974000">
        <ele>519.80</ele>
        <time>2016-10-15T06:09:39Z</time>
      </trkpt>
      <trkpt lat="42.532696000" lon="-2.437983000">
        <ele>519.70</ele>
        <time>2016-10-15T06:09:40Z</time>
      </trkpt>
      <trkpt lat="42.532733000" lon="-2.437997000">
        <ele>519.60</ele>
        <time>2016-10-15T06:09:41Z</time>
      </trkpt>
      <trkpt lat="42.532767000" lon="-2.438006000">
        <ele>519.50</ele>
        <time>2016-10-15T06:09:42Z</time>
      </trkpt>
      <trkpt lat="42.532801000" lon="-2.438011000">
        <ele>519.50</ele>
        <time>2016-10-15T06:09:43Z</time>
      </trkpt>
      <trkpt lat="42.532836000" lon="-2.438020000">
        <ele>519.50</ele>
        <time>2016-10-15T06:09:44Z</time>
      </trkpt>
      <trkpt lat="42.532872000" lon="-2.438027000">
        <ele>519.40</ele>
        <time>2016-10-15T06:09:45Z</time>
      </trkpt>
      <trkpt lat="42.532907000" lon="-2.438031000">
        <ele>519.40</ele>
        <time>2016-10-15T06:09:46Z</time>
      </trkpt>
      <trkpt lat="42.532941000" lon="-2.438033000">
        <ele>519.60</ele>
        <time>2016-10-15T06:09:47Z</time>
      </trkpt>
      <trkpt lat="42.532976000" lon="-2.438032000">
        <ele>519.70</ele>
        <time>2016-10-15T06:09:48Z</time>
      </trkpt>
      <trkpt lat="42.533011000" lon="-2.438038000">
        <ele>519.80</ele>
        <time>2016-10-15T06:09:49Z</time>
      </trkpt>
      <trkpt lat="42.533049000" lon="-2.438041000">
        <ele>519.90</ele>
        <time>2016-10-15T06:09:50Z</time>
      </trkpt>
      <trkpt lat="42.533085000" lon="-2.438042000">
        <ele>520.00</ele>
        <time>2016-10-15T06:09:51Z</time>
      </trkpt>
      <trkpt lat="42.533120000" lon="-2.438046000">
        <ele>520.10</ele>
        <time>2016-10-15T06:09:52Z</time>
      </trkpt>
      <trkpt lat="42.533154000" lon="-2.438052000">
        <ele>520.20</ele>
        <time>2016-10-15T06:09:53Z</time>
      </trkpt>
      <trkpt lat="42.533224000" lon="-2.438069000">
        <ele>520.30</ele>
        <time>2016-10-15T06:09:55Z</time>
      </trkpt>
      <trkpt lat="42.533260000" lon="-2.438081000">
        <ele>520.30</ele>
        <time>2016-10-15T06:09:56Z</time>
      </trkpt>
      <trkpt lat="42.533300000" lon="-2.438091000">
        <ele>520.20</ele>
        <time>2016-10-15T06:09:57Z</time>
      </trkpt>
      <trkpt lat="42.533337000" lon="-2.438101000">
        <ele>520.00</ele>
        <time>2016-10-15T06:09:58Z</time>
      </trkpt>
      <trkpt lat="42.533377000" lon="-2.438111000">
        <ele>520.00</ele>
        <time>2016-10-15T06:09:59Z</time>
      </trkpt>
      <trkpt lat="42.533416000" lon="-2.438117000">
        <ele>519.90</ele>
        <time>2016-10-15T06:10:00Z</time>
      </trkpt>
      <trkpt lat="42.533453000" lon="-2.438120000">
        <ele>519.80</ele>
        <time>2016-10-15T06:10:01Z</time>
      </trkpt>
      <trkpt lat="42.533488000" lon="-2.438133000">
        <ele>519.80</ele>
        <time>2016-10-15T06:10:02Z</time>
      </trkpt>
      <trkpt lat="42.533522000" lon="-2.438138000">
        <ele>519.80</ele>
        <time>2016-10-15T06:10:03Z</time>
      </trkpt>
      <trkpt lat="42.533557000" lon="-2.438142000">
        <ele>519.80</ele>
        <time>2016-10-15T06:10:04Z</time>
      </trkpt>
      <trkpt lat="42.533592000" lon="-2.438142000">
        <ele>519.70</ele>
        <time>2016-10-15T06:10:05Z</time>
      </trkpt>
      <trkpt lat="42.533627000" lon="-2.438141000">
        <ele>519.70</ele>
        <time>2016-10-15T06:10:06Z</time>
      </trkpt>
      <trkpt lat="42.533662000" lon="-2.438139000">
        <ele>519.80</ele>
        <time>2016-10-15T06:10:07Z</time>
      </trkpt>
      <trkpt lat="42.533696000" lon="-2.438137000">
        <ele>519.80</ele>
        <time>2016-10-15T06:10:08Z</time>
      </trkpt>
      <trkpt lat="42.533726000" lon="-2.438130000">
        <ele>520.00</ele>
        <time>2016-10-15T06:10:09Z</time>
      </trkpt>
      <trkpt lat="42.533755000" lon="-2.438124000">
        <ele>520.10</ele>
        <time>2016-10-15T06:10:10Z</time>
      </trkpt>
      <trkpt lat="42.533786000" lon="-2.438114000">
        <ele>520.20</ele>
        <time>2016-10-15T06:10:11Z</time>
      </trkpt>
      <trkpt lat="42.533816000" lon="-2.438107000">
        <ele>520.30</ele>
        <time>2016-10-15T06:10:12Z</time>
      </trkpt>
      <trkpt lat="42.533846000" lon="-2.438101000">
        <ele>520.30</ele>
        <time>2016-10-15T06:10:13Z</time>
      </trkpt>
      <trkpt lat="42.533878000" lon="-2.438084000">
        <ele>520.40</ele>
        <time>2016-10-15T06:10:14Z</time>
      </trkpt>
      <trkpt lat="42.533911000" lon="-2.438079000">
        <ele>520.40</ele>
        <time>2016-10-15T06:10:15Z</time>
      </trkpt>
      <trkpt lat="42.533945000" lon="-2.438074000">
        <ele>520.30</ele>
        <time>2016-10-15T06:10:16Z</time>
      </trkpt>
      <trkpt lat="42.533977000" lon="-2.438069000">
        <ele>520.30</ele>
        <time>2016-10-15T06:10:17Z</time>
      </trkpt>
      <trkpt lat="42.534011000" lon="-2.438072000">
        <ele>520.30</ele>
        <time>2016-10-15T06:10:18Z</time>
      </trkpt>
      <trkpt lat="42.534044000" lon="-2.438076000">
        <ele>520.30</ele>
        <time>2016-10-15T06:10:19Z</time>
      </trkpt>
      <trkpt lat="42.534074000" lon="-2.438079000">
        <ele>520.20</ele>
        <time>2016-10-15T06:10:20Z</time>
      </trkpt>
      <trkpt lat="42.534102000" lon="-2.438086000">
        <ele>520.20</ele>
        <time>2016-10-15T06:10:21Z</time>
      </trkpt>
      <trkpt lat="42.534131000" lon="-2.438096000">
        <ele>520.10</ele>
        <time>2016-10-15T06:10:22Z</time>
      </trkpt>
      <trkpt lat="42.534161000" lon="-2.438106000">
        <ele>520.30</ele>
        <time>2016-10-15T06:10:23Z</time>
      </trkpt>
      <trkpt lat="42.534193000" lon="-2.438118000">
        <ele>520.40</ele>
        <time>2016-10-15T06:10:24Z</time>
      </trkpt>
      <trkpt lat="42.534220000" lon="-2.438135000">
        <ele>520.60</ele>
        <time>2016-10-15T06:10:25Z</time>
      </trkpt>
      <trkpt lat="42.534248000" lon="-2.438154000">
        <ele>520.80</ele>
        <time>2016-10-15T06:10:26Z</time>
      </trkpt>
      <trkpt lat="42.534278000" lon="-2.438176000">
        <ele>520.90</ele>
        <time>2016-10-15T06:10:27Z</time>
      </trkpt>
      <trkpt lat="42.534306000" lon="-2.438206000">
        <ele>521.00</ele>
        <time>2016-10-15T06:10:28Z</time>
      </trkpt>
      <trkpt lat="42.534336000" lon="-2.438226000">
        <ele>520.90</ele>
        <time>2016-10-15T06:10:29Z</time>
      </trkpt>
      <trkpt lat="42.534369000" lon="-2.438246000">
        <ele>520.80</ele>
        <time>2016-10-15T06:10:30Z</time>
      </trkpt>
      <trkpt lat="42.534400000" lon="-2.438268000">
        <ele>520.70</ele>
        <time>2016-10-15T06:10:31Z</time>
      </trkpt>
      <trkpt lat="42.534433000" lon="-2.438286000">
        <ele>520.70</ele>
        <time>2016-10-15T06:10:32Z</time>
      </trkpt>
      <trkpt lat="42.534467000" lon="-2.438302000">
        <ele>520.60</ele>
        <time>2016-10-15T06:10:33Z</time>
      </trkpt>
      <trkpt lat="42.534499000" lon="-2.438321000">
        <ele>520.60</ele>
        <time>2016-10-15T06:10:34Z</time>
      </trkpt>
      <trkpt lat="42.534531000" lon="-2.438339000">
        <ele>520.50</ele>
        <time>2016-10-15T06:10:35Z</time>
      </trkpt>
      <trkpt lat="42.534566000" lon="-2.438352000">
        <ele>520.50</ele>
        <time>2016-10-15T06:10:36Z</time>
      </trkpt>
      <trkpt lat="42.534601000" lon="-2.438355000">
        <ele>520.40</ele>
        <time>2016-10-15T06:10:37Z</time>
      </trkpt>
      <trkpt lat="42.534636000" lon="-2.438358000">
        <ele>520.40</ele>
        <time>2016-10-15T06:10:38Z</time>
      </trkpt>
      <trkpt lat="42.534671000" lon="-2.438360000">
        <ele>520.40</ele>
        <time>2016-10-15T06:10:39Z</time>
      </trkpt>
      <trkpt lat="42.534711000" lon="-2.438358000">
        <ele>520.40</ele>
        <time>2016-10-15T06:10:40Z</time>
      </trkpt>
      <trkpt lat="42.534750000" lon="-2.438358000">
        <ele>520.40</ele>
        <time>2016-10-15T06:10:41Z</time>
      </trkpt>
      <trkpt lat="42.534787000" lon="-2.438358000">
        <ele>520.40</ele>
        <time>2016-10-15T06:10:42Z</time>
      </trkpt>
      <trkpt lat="42.534828000" lon="-2.438355000">
        <ele>520.50</ele>
        <time>2016-10-15T06:10:43Z</time>
      </trkpt>
      <trkpt lat="42.534867000" lon="-2.438348000">
        <ele>520.50</ele>
        <time>2016-10-15T06:10:44Z</time>
      </trkpt>
      <trkpt lat="42.534903000" lon="-2.438345000">
        <ele>520.60</ele>
        <time>2016-10-15T06:10:45Z</time>
      </trkpt>
      <trkpt lat="42.534939000" lon="-2.438341000">
        <ele>520.60</ele>
        <time>2016-10-15T06:10:46Z</time>
      </trkpt>
      <trkpt lat="42.534974000" lon="-2.438338000">
        <ele>520.60</ele>
        <time>2016-10-15T06:10:47Z</time>
      </trkpt>
      <trkpt lat="42.535008000" lon="-2.438335000">
        <ele>520.70</ele>
        <time>2016-10-15T06:10:48Z</time>
      </trkpt>
      <trkpt lat="42.535043000" lon="-2.438331000">
        <ele>520.70</ele>
        <time>2016-10-15T06:10:49Z</time>
      </trkpt>
      <trkpt lat="42.535076000" lon="-2.438328000">
        <ele>520.70</ele>
        <time>2016-10-15T06:10:50Z</time>
      </trkpt>
      <trkpt lat="42.535110000" lon="-2.438325000">
        <ele>521.00</ele>
        <time>2016-10-15T06:10:51Z</time>
      </trkpt>
      <trkpt lat="42.535143000" lon="-2.438320000">
        <ele>521.20</ele>
        <time>2016-10-15T06:10:52Z</time>
      </trkpt>
      <trkpt lat="42.535178000" lon="-2.438316000">
        <ele>521.40</ele>
        <time>2016-10-15T06:10:53Z</time>
      </trkpt>
      <trkpt lat="42.535216000" lon="-2.438317000">
        <ele>521.50</ele>
        <time>2016-10-15T06:10:54Z</time>
      </trkpt>
      <trkpt lat="42.535286000" lon="-2.438313000">
        <ele>521.80</ele>
        <time>2016-10-15T06:10:56Z</time>
      </trkpt>
      <trkpt lat="42.535322000" lon="-2.438311000">
        <ele>521.80</ele>
        <time>2016-10-15T06:10:57Z</time>
      </trkpt>
      <trkpt lat="42.535356000" lon="-2.438319000">
        <ele>521.70</ele>
        <time>2016-10-15T06:10:58Z</time>
      </trkpt>
      <trkpt lat="42.535391000" lon="-2.438325000">
        <ele>521.70</ele>
        <time>2016-10-15T06:10:59Z</time>
      </trkpt>
      <trkpt lat="42.535427000" lon="-2.438328000">
        <ele>521.70</ele>
        <time>2016-10-15T06:11:00Z</time>
      </trkpt>
      <trkpt lat="42.535463000" lon="-2.438332000">
        <ele>521.50</ele>
        <time>2016-10-15T06:11:01Z</time>
      </trkpt>
      <trkpt lat="42.535496000" lon="-2.438346000">
        <ele>521.40</ele>
        <time>2016-10-15T06:11:02Z</time>
      </trkpt>
      <trkpt lat="42.535530000" lon="-2.438360000">
        <ele>521.30</ele>
        <time>2016-10-15T06:11:03Z</time>
      </trkpt>
      <trkpt lat="42.535562000" lon="-2.438377000">
        <ele>521.30</ele>
        <time>2016-10-15T06:11:04Z</time>
      </trkpt>
      <trkpt lat="42.535593000" lon="-2.438397000">
        <ele>521.20</ele>
        <time>2016-10-15T06:11:05Z</time>
      </trkpt>
      <trkpt lat="42.535625000" lon="-2.438426000">
        <ele>521.20</ele>
        <time>2016-10-15T06:11:06Z</time>
      </trkpt>
      <trkpt lat="42.535657000" lon="-2.438455000">
        <ele>521.20</ele>
        <time>2016-10-15T06:11:07Z</time>
      </trkpt>
      <trkpt lat="42.535692000" lon="-2.438484000">
        <ele>521.20</ele>
        <time>2016-10-15T06:11:08Z</time>
      </trkpt>
      <trkpt lat="42.535726000" lon="-2.438514000">
        <ele>521.00</ele>
        <time>2016-10-15T06:11:09Z</time>
      </trkpt>
      <trkpt lat="42.535764000" lon="-2.438543000">
        <ele>520.90</ele>
        <time>2016-10-15T06:11:10Z</time>
      </trkpt>
      <trkpt lat="42.535800000" lon="-2.438578000">
        <ele>520.80</ele>
        <time>2016-10-15T06:11:11Z</time>
      </trkpt>
      <trkpt lat="42.535836000" lon="-2.438608000">
        <ele>520.60</ele>
        <time>2016-10-15T06:11:12Z</time>
      </trkpt>
      <trkpt lat="42.535880000" lon="-2.438632000">
        <ele>520.50</ele>
        <time>2016-10-15T06:11:13Z</time>
      </trkpt>
      <trkpt lat="42.535927000" lon="-2.438651000">
        <ele>520.50</ele>
        <time>2016-10-15T06:11:14Z</time>
      </trkpt>
      <trkpt lat="42.535974000" lon="-2.438669000">
        <ele>520.30</ele>
        <time>2016-10-15T06:11:15Z</time>
      </trkpt>
      <trkpt lat="42.536023000" lon="-2.438685000">
        <ele>520.20</ele>
        <time>2016-10-15T06:11:16Z</time>
      </trkpt>
      <trkpt lat="42.536072000" lon="-2.438698000">
        <ele>520.20</ele>
        <time>2016-10-15T06:11:17Z</time>
      </trkpt>
      <trkpt lat="42.536121000" lon="-2.438710000">
        <ele>520.10</ele>
        <time>2016-10-15T06:11:18Z</time>
      </trkpt>
      <trkpt lat="42.536171000" lon="-2.438722000">
        <ele>520.10</ele>
        <time>2016-10-15T06:11:19Z</time>
      </trkpt>
      <trkpt lat="42.536218000" lon="-2.438732000">
        <ele>520.20</ele>
        <time>2016-10-15T06:11:20Z</time>
      </trkpt>
      <trkpt lat="42.536267000" lon="-2.438740000">
        <ele>520.20</ele>
        <time>2016-10-15T06:11:21Z</time>
      </trkpt>
      <trkpt lat="42.536315000" lon="-2.438747000">
        <ele>520.20</ele>
        <time>2016-10-15T06:11:22Z</time>
      </trkpt>
      <trkpt lat="42.536364000" lon="-2.438752000">
        <ele>520.10</ele>
        <time>2016-10-15T06:11:23Z</time>
      </trkpt>
      <trkpt lat="42.536411000" lon="-2.438757000">
        <ele>520.10</ele>
        <time>2016-10-15T06:11:24Z</time>
      </trkpt>
      <trkpt lat="42.536458000" lon="-2.438761000">
        <ele>520.10</ele>
        <time>2016-10-15T06:11:25Z</time>
      </trkpt>
      <trkpt lat="42.536502000" lon="-2.438768000">
        <ele>520.00</ele>
        <time>2016-10-15T06:11:26Z</time>
      </trkpt>
      <trkpt lat="42.536546000" lon="-2.438774000">
        <ele>520.00</ele>
        <time>2016-10-15T06:11:27Z</time>
      </trkpt>
      <trkpt lat="42.536591000" lon="-2.438781000">
        <ele>520.00</ele>
        <time>2016-10-15T06:11:28Z</time>
      </trkpt>
      <trkpt lat="42.536638000" lon="-2.438782000">
        <ele>520.00</ele>
        <time>2016-10-15T06:11:29Z</time>
      </trkpt>
      <trkpt lat="42.536685000" lon="-2.438779000">
        <ele>519.90</ele>
        <time>2016-10-15T06:11:30Z</time>
      </trkpt>
      <trkpt lat="42.536730000" lon="-2.438778000">
        <ele>519.90</ele>
        <time>2016-10-15T06:11:31Z</time>
      </trkpt>
      <trkpt lat="42.536774000" lon="-2.438777000">
        <ele>519.90</ele>
        <time>2016-10-15T06:11:32Z</time>
      </trkpt>
      <trkpt lat="42.536815000" lon="-2.438770000">
        <ele>519.80</ele>
        <time>2016-10-15T06:11:33Z</time>
      </trkpt>
      <trkpt lat="42.536857000" lon="-2.438759000">
        <ele>519.80</ele>
        <time>2016-10-15T06:11:34Z</time>
      </trkpt>
      <trkpt lat="42.536899000" lon="-2.438756000">
        <ele>519.80</ele>
        <time>2016-10-15T06:11:35Z</time>
      </trkpt>
      <trkpt lat="42.536937000" lon="-2.438749000">
        <ele>519.80</ele>
        <time>2016-10-15T06:11:36Z</time>
      </trkpt>
      <trkpt lat="42.536978000" lon="-2.438743000">
        <ele>519.80</ele>
        <time>2016-10-15T06:11:37Z</time>
      </trkpt>
      <trkpt lat="42.537016000" lon="-2.438739000">
        <ele>519.80</ele>
        <time>2016-10-15T06:11:38Z</time>
      </trkpt>
      <trkpt lat="42.537054000" lon="-2.438734000">
        <ele>519.80</ele>
        <time>2016-10-15T06:11:39Z</time>
      </trkpt>
      <trkpt lat="42.537092000" lon="-2.438723000">
        <ele>519.80</ele>
        <time>2016-10-15T06:11:40Z</time>
      </trkpt>
      <trkpt lat="42.537127000" lon="-2.438711000">
        <ele>519.90</ele>
        <time>2016-10-15T06:11:41Z</time>
      </trkpt>
      <trkpt lat="42.537164000" lon="-2.438698000">
        <ele>520.00</ele>
        <time>2016-10-15T06:11:42Z</time>
      </trkpt>
      <trkpt lat="42.537200000" lon="-2.438686000">
        <ele>520.00</ele>
        <time>2016-10-15T06:11:43Z</time>
      </trkpt>
      <trkpt lat="42.537234000" lon="-2.438675000">
        <ele>520.00</ele>
        <time>2016-10-15T06:11:44Z</time>
      </trkpt>
      <trkpt lat="42.537269000" lon="-2.438666000">
        <ele>520.00</ele>
        <time>2016-10-15T06:11:45Z</time>
      </trkpt>
      <trkpt lat="42.537305000" lon="-2.438656000">
        <ele>520.00</ele>
        <time>2016-10-15T06:11:46Z</time>
      </trkpt>
      <trkpt lat="42.537336000" lon="-2.438644000">
        <ele>519.80</ele>
        <time>2016-10-15T06:11:47Z</time>
      </trkpt>
      <trkpt lat="42.537367000" lon="-2.438633000">
        <ele>519.70</ele>
        <time>2016-10-15T06:11:48Z</time>
      </trkpt>
      <trkpt lat="42.537403000" lon="-2.438622000">
        <ele>519.60</ele>
        <time>2016-10-15T06:11:49Z</time>
      </trkpt>
      <trkpt lat="42.537436000" lon="-2.438610000">
        <ele>519.50</ele>
        <time>2016-10-15T06:11:50Z</time>
      </trkpt>
      <trkpt lat="42.537469000" lon="-2.438599000">
        <ele>519.50</ele>
        <time>2016-10-15T06:11:51Z</time>
      </trkpt>
      <trkpt lat="42.537503000" lon="-2.438585000">
        <ele>519.60</ele>
        <time>2016-10-15T06:11:52Z</time>
      </trkpt>
      <trkpt lat="42.537537000" lon="-2.438574000">
        <ele>519.60</ele>
        <time>2016-10-15T06:11:53Z</time>
      </trkpt>
      <trkpt lat="42.537570000" lon="-2.438557000">
        <ele>519.70</ele>
        <time>2016-10-15T06:11:54Z</time>
      </trkpt>
      <trkpt lat="42.537606000" lon="-2.438545000">
        <ele>519.70</ele>
        <time>2016-10-15T06:11:55Z</time>
      </trkpt>
      <trkpt lat="42.537674000" lon="-2.438518000">
        <ele>519.70</ele>
        <time>2016-10-15T06:11:57Z</time>
      </trkpt>
      <trkpt lat="42.537707000" lon="-2.438506000">
        <ele>519.70</ele>
        <time>2016-10-15T06:11:58Z</time>
      </trkpt>
      <trkpt lat="42.537740000" lon="-2.438494000">
        <ele>520.00</ele>
        <time>2016-10-15T06:11:59Z</time>
      </trkpt>
      <trkpt lat="42.537773000" lon="-2.438482000">
        <ele>520.20</ele>
        <time>2016-10-15T06:12:00Z</time>
      </trkpt>
      <trkpt lat="42.537805000" lon="-2.438468000">
        <ele>520.20</ele>
        <time>2016-10-15T06:12:01Z</time>
      </trkpt>
      <trkpt lat="42.537837000" lon="-2.438454000">
        <ele>520.20</ele>
        <time>2016-10-15T06:12:02Z</time>
      </trkpt>
      <trkpt lat="42.537871000" lon="-2.438448000">
        <ele>520.30</ele>
        <time>2016-10-15T06:12:03Z</time>
      </trkpt>
      <trkpt lat="42.537903000" lon="-2.438435000">
        <ele>520.40</ele>
        <time>2016-10-15T06:12:04Z</time>
      </trkpt>
      <trkpt lat="42.537937000" lon="-2.438431000">
        <ele>520.40</ele>
        <time>2016-10-15T06:12:05Z</time>
      </trkpt>
      <trkpt lat="42.537970000" lon="-2.438430000">
        <ele>520.40</ele>
        <time>2016-10-15T06:12:06Z</time>
      </trkpt>
      <trkpt lat="42.538005000" lon="-2.438428000">
        <ele>520.50</ele>
        <time>2016-10-15T06:12:07Z</time>
      </trkpt>
      <trkpt lat="42.538039000" lon="-2.438433000">
        <ele>520.60</ele>
        <time>2016-10-15T06:12:08Z</time>
      </trkpt>
      <trkpt lat="42.538073000" lon="-2.438442000">
        <ele>520.70</ele>
        <time>2016-10-15T06:12:09Z</time>
      </trkpt>
      <trkpt lat="42.538105000" lon="-2.438446000">
        <ele>520.90</ele>
        <time>2016-10-15T06:12:10Z</time>
      </trkpt>
      <trkpt lat="42.538137000" lon="-2.438452000">
        <ele>521.00</ele>
        <time>2016-10-15T06:12:11Z</time>
      </trkpt>
      <trkpt lat="42.538169000" lon="-2.438463000">
        <ele>521.20</ele>
        <time>2016-10-15T06:12:12Z</time>
      </trkpt>
      <trkpt lat="42.538199000" lon="-2.438478000">
        <ele>521.30</ele>
        <time>2016-10-15T06:12:13Z</time>
      </trkpt>
      <trkpt lat="42.538229000" lon="-2.438493000">
        <ele>521.40</ele>
        <time>2016-10-15T06:12:14Z</time>
      </trkpt>
      <trkpt lat="42.538258000" lon="-2.438508000">
        <ele>521.50</ele>
        <time>2016-10-15T06:12:15Z</time>
      </trkpt>
      <trkpt lat="42.538284000" lon="-2.438525000">
        <ele>521.60</ele>
        <time>2016-10-15T06:12:16Z</time>
      </trkpt>
      <trkpt lat="42.538311000" lon="-2.438545000">
        <ele>521.70</ele>
        <time>2016-10-15T06:12:17Z</time>
      </trkpt>
      <trkpt lat="42.538339000" lon="-2.438564000">
        <ele>521.70</ele>
        <time>2016-10-15T06:12:18Z</time>
      </trkpt>
      <trkpt lat="42.538367000" lon="-2.438585000">
        <ele>521.90</ele>
        <time>2016-10-15T06:12:19Z</time>
      </trkpt>
      <trkpt lat="42.538396000" lon="-2.438603000">
        <ele>522.00</ele>
        <time>2016-10-15T06:12:20Z</time>
      </trkpt>
      <trkpt lat="42.538424000" lon="-2.438623000">
        <ele>522.10</ele>
        <time>2016-10-15T06:12:21Z</time>
      </trkpt>
      <trkpt lat="42.538451000" lon="-2.438638000">
        <ele>522.10</ele>
        <time>2016-10-15T06:12:22Z</time>
      </trkpt>
      <trkpt lat="42.538477000" lon="-2.438658000">
        <ele>522.20</ele>
        <time>2016-10-15T06:12:23Z</time>
      </trkpt>
      <trkpt lat="42.538503000" lon="-2.438678000">
        <ele>522.30</ele>
        <time>2016-10-15T06:12:24Z</time>
      </trkpt>
      <trkpt lat="42.538528000" lon="-2.438697000">
        <ele>522.50</ele>
        <time>2016-10-15T06:12:25Z</time>
      </trkpt>
      <trkpt lat="42.538551000" lon="-2.438719000">
        <ele>522.60</ele>
        <time>2016-10-15T06:12:26Z</time>
      </trkpt>
      <trkpt lat="42.538575000" lon="-2.438737000">
        <ele>522.70</ele>
        <time>2016-10-15T06:12:27Z</time>
      </trkpt>
      <trkpt lat="42.538600000" lon="-2.438756000">
        <ele>522.80</ele>
        <time>2016-10-15T06:12:28Z</time>
      </trkpt>
      <trkpt lat="42.538627000" lon="-2.438776000">
        <ele>523.00</ele>
        <time>2016-10-15T06:12:29Z</time>
      </trkpt>
      <trkpt lat="42.538653000" lon="-2.438796000">
        <ele>523.20</ele>
        <time>2016-10-15T06:12:30Z</time>
      </trkpt>
      <trkpt lat="42.538677000" lon="-2.438815000">
        <ele>523.40</ele>
        <time>2016-10-15T06:12:31Z</time>
      </trkpt>
      <trkpt lat="42.538701000" lon="-2.438834000">
        <ele>523.50</ele>
        <time>2016-10-15T06:12:32Z</time>
      </trkpt>
      <trkpt lat="42.538727000" lon="-2.438854000">
        <ele>523.70</ele>
        <time>2016-10-15T06:12:33Z</time>
      </trkpt>
      <trkpt lat="42.538753000" lon="-2.438871000">
        <ele>523.80</ele>
        <time>2016-10-15T06:12:34Z</time>
      </trkpt>
      <trkpt lat="42.538778000" lon="-2.438887000">
        <ele>523.90</ele>
        <time>2016-10-15T06:12:35Z</time>
      </trkpt>
      <trkpt lat="42.538802000" lon="-2.438904000">
        <ele>524.00</ele>
        <time>2016-10-15T06:12:36Z</time>
      </trkpt>
      <trkpt lat="42.538824000" lon="-2.438919000">
        <ele>524.10</ele>
        <time>2016-10-15T06:12:37Z</time>
      </trkpt>
      <trkpt lat="42.538848000" lon="-2.438936000">
        <ele>524.30</ele>
        <time>2016-10-15T06:12:38Z</time>
      </trkpt>
      <trkpt lat="42.538871000" lon="-2.438953000">
        <ele>524.60</ele>
        <time>2016-10-15T06:12:39Z</time>
      </trkpt>
      <trkpt lat="42.538892000" lon="-2.438967000">
        <ele>524.80</ele>
        <time>2016-10-15T06:12:40Z</time>
      </trkpt>
      <trkpt lat="42.538913000" lon="-2.438986000">
        <ele>524.90</ele>
        <time>2016-10-15T06:12:41Z</time>
      </trkpt>
      <trkpt lat="42.538938000" lon="-2.439002000">
        <ele>525.00</ele>
        <time>2016-10-15T06:12:42Z</time>
      </trkpt>
      <trkpt lat="42.538958000" lon="-2.439020000">
        <ele>525.30</ele>
        <time>2016-10-15T06:12:43Z</time>
      </trkpt>
      <trkpt lat="42.538981000" lon="-2.439039000">
        <ele>525.60</ele>
        <time>2016-10-15T06:12:44Z</time>
      </trkpt>
      <trkpt lat="42.539006000" lon="-2.439056000">
        <ele>525.80</ele>
        <time>2016-10-15T06:12:45Z</time>
      </trkpt>
      <trkpt lat="42.539031000" lon="-2.439073000">
        <ele>525.90</ele>
        <time>2016-10-15T06:12:46Z</time>
      </trkpt>
      <trkpt lat="42.539055000" lon="-2.439091000">
        <ele>526.10</ele>
        <time>2016-10-15T06:12:47Z</time>
      </trkpt>
      <trkpt lat="42.539080000" lon="-2.439107000">
        <ele>526.20</ele>
        <time>2016-10-15T06:12:48Z</time>
      </trkpt>
      <trkpt lat="42.539104000" lon="-2.439123000">
        <ele>526.40</ele>
        <time>2016-10-15T06:12:49Z</time>
      </trkpt>
      <trkpt lat="42.539131000" lon="-2.439140000">
        <ele>526.50</ele>
        <time>2016-10-15T06:12:50Z</time>
      </trkpt>
      <trkpt lat="42.539156000" lon="-2.439155000">
        <ele>526.60</ele>
        <time>2016-10-15T06:12:51Z</time>
      </trkpt>
      <trkpt lat="42.539182000" lon="-2.439171000">
        <ele>526.70</ele>
        <time>2016-10-15T06:12:52Z</time>
      </trkpt>
      <trkpt lat="42.539207000" lon="-2.439189000">
        <ele>526.80</ele>
        <time>2016-10-15T06:12:53Z</time>
      </trkpt>
      <trkpt lat="42.539234000" lon="-2.439201000">
        <ele>526.90</ele>
        <time>2016-10-15T06:12:54Z</time>
      </trkpt>
      <trkpt lat="42.539262000" lon="-2.439215000">
        <ele>527.10</ele>
        <time>2016-10-15T06:12:55Z</time>
      </trkpt>
      <trkpt lat="42.539289000" lon="-2.439226000">
        <ele>527.30</ele>
        <time>2016-10-15T06:12:56Z</time>
      </trkpt>
      <trkpt lat="42.539342000" lon="-2.439252000">
        <ele>527.60</ele>
        <time>2016-10-15T06:12:58Z</time>
      </trkpt>
      <trkpt lat="42.539371000" lon="-2.439264000">
        <ele>527.50</ele>
        <time>2016-10-15T06:12:59Z</time>
      </trkpt>
      <trkpt lat="42.539398000" lon="-2.439276000">
        <ele>527.40</ele>
        <time>2016-10-15T06:13:00Z</time>
      </trkpt>
      <trkpt lat="42.539423000" lon="-2.439289000">
        <ele>527.30</ele>
        <time>2016-10-15T06:13:01Z</time>
      </trkpt>
      <trkpt lat="42.539451000" lon="-2.439300000">
        <ele>527.10</ele>
        <time>2016-10-15T06:13:02Z</time>
      </trkpt>
      <trkpt lat="42.539481000" lon="-2.439312000">
        <ele>527.00</ele>
        <time>2016-10-15T06:13:03Z</time>
      </trkpt>
      <trkpt lat="42.539509000" lon="-2.439322000">
        <ele>526.90</ele>
        <time>2016-10-15T06:13:04Z</time>
      </trkpt>
      <trkpt lat="42.539537000" lon="-2.439332000">
        <ele>527.10</ele>
        <time>2016-10-15T06:13:05Z</time>
      </trkpt>
      <trkpt lat="42.539569000" lon="-2.439341000">
        <ele>527.20</ele>
        <time>2016-10-15T06:13:06Z</time>
      </trkpt>
      <trkpt lat="42.539601000" lon="-2.439352000">
        <ele>527.30</ele>
        <time>2016-10-15T06:13:07Z</time>
      </trkpt>
      <trkpt lat="42.539630000" lon="-2.439364000">
        <ele>527.30</ele>
        <time>2016-10-15T06:13:08Z</time>
      </trkpt>
      <trkpt lat="42.539661000" lon="-2.439373000">
        <ele>527.30</ele>
        <time>2016-10-15T06:13:09Z</time>
      </trkpt>
      <trkpt lat="42.539696000" lon="-2.439384000">
        <ele>527.20</ele>
        <time>2016-10-15T06:13:10Z</time>
      </trkpt>
      <trkpt lat="42.539730000" lon="-2.439394000">
        <ele>527.20</ele>
        <time>2016-10-15T06:13:11Z</time>
      </trkpt>
      <trkpt lat="42.539760000" lon="-2.439403000">
        <ele>527.10</ele>
        <time>2016-10-15T06:13:12Z</time>
      </trkpt>
      <trkpt lat="42.539794000" lon="-2.439415000">
        <ele>527.10</ele>
        <time>2016-10-15T06:13:13Z</time>
      </trkpt>
      <trkpt lat="42.539827000" lon="-2.439428000">
        <ele>527.10</ele>
        <time>2016-10-15T06:13:14Z</time>
      </trkpt>
      <trkpt lat="42.539859000" lon="-2.439437000">
        <ele>527.00</ele>
        <time>2016-10-15T06:13:15Z</time>
      </trkpt>
      <trkpt lat="42.539892000" lon="-2.439449000">
        <ele>527.00</ele>
        <time>2016-10-15T06:13:16Z</time>
      </trkpt>
      <trkpt lat="42.539927000" lon="-2.439462000">
        <ele>527.00</ele>
        <time>2016-10-15T06:13:17Z</time>
      </trkpt>
      <trkpt lat="42.539963000" lon="-2.439473000">
        <ele>527.00</ele>
        <time>2016-10-15T06:13:18Z</time>
      </trkpt>
      <trkpt lat="42.539999000" lon="-2.439484000">
        <ele>527.00</ele>
        <time>2016-10-15T06:13:19Z</time>
      </trkpt>
      <trkpt lat="42.540037000" lon="-2.439494000">
        <ele>527.00</ele>
        <time>2016-10-15T06:13:20Z</time>
      </trkpt>
      <trkpt lat="42.540073000" lon="-2.439506000">
        <ele>527.00</ele>
        <time>2016-10-15T06:13:21Z</time>
      </trkpt>
      <trkpt lat="42.540109000" lon="-2.439514000">
        <ele>527.00</ele>
        <time>2016-10-15T06:13:22Z</time>
      </trkpt>
      <trkpt lat="42.540146000" lon="-2.439527000">
        <ele>527.00</ele>
        <time>2016-10-15T06:13:23Z</time>
      </trkpt>
      <trkpt lat="42.540180000" lon="-2.439539000">
        <ele>527.00</ele>
        <time>2016-10-15T06:13:24Z</time>
      </trkpt>
      <trkpt lat="42.540215000" lon="-2.439552000">
        <ele>527.00</ele>
        <time>2016-10-15T06:13:25Z</time>
      </trkpt>
      <trkpt lat="42.540249000" lon="-2.439561000">
        <ele>527.10</ele>
        <time>2016-10-15T06:13:26Z</time>
      </trkpt>
      <trkpt lat="42.540282000" lon="-2.439571000">
        <ele>527.10</ele>
        <time>2016-10-15T06:13:27Z</time>
      </trkpt>
      <trkpt lat="42.540315000" lon="-2.439584000">
        <ele>527.10</ele>
        <time>2016-10-15T06:13:28Z</time>
      </trkpt>
      <trkpt lat="42.540347000" lon="-2.439594000">
        <ele>527.10</ele>
        <time>2016-10-15T06:13:29Z</time>
      </trkpt>
      <trkpt lat="42.540379000" lon="-2.439610000">
        <ele>527.10</ele>
        <time>2016-10-15T06:13:30Z</time>
      </trkpt>
      <trkpt lat="42.540411000" lon="-2.439624000">
        <ele>527.10</ele>
        <time>2016-10-15T06:13:31Z</time>
      </trkpt>
      <trkpt lat="42.540443000" lon="-2.439640000">
        <ele>527.10</ele>
        <time>2016-10-15T06:13:32Z</time>
      </trkpt>
      <trkpt lat="42.540473000" lon="-2.439659000">
        <ele>527.20</ele>
        <time>2016-10-15T06:13:33Z</time>
      </trkpt>
      <trkpt lat="42.540504000" lon="-2.439679000">
        <ele>527.20</ele>
        <time>2016-10-15T06:13:34Z</time>
      </trkpt>
      <trkpt lat="42.540531000" lon="-2.439704000">
        <ele>527.20</ele>
        <time>2016-10-15T06:13:35Z</time>
      </trkpt>
      <trkpt lat="42.540555000" lon="-2.439729000">
        <ele>527.20</ele>
        <time>2016-10-15T06:13:36Z</time>
      </trkpt>
      <trkpt lat="42.540577000" lon="-2.439755000">
        <ele>527.20</ele>
        <time>2016-10-15T06:13:37Z</time>
      </trkpt>
      <trkpt lat="42.540598000" lon="-2.439780000">
        <ele>527.20</ele>
        <time>2016-10-15T06:13:38Z</time>
      </trkpt>
      <trkpt lat="42.540616000" lon="-2.439805000">
        <ele>527.50</ele>
        <time>2016-10-15T06:13:39Z</time>
      </trkpt>
      <trkpt lat="42.540634000" lon="-2.439830000">
        <ele>527.70</ele>
        <time>2016-10-15T06:13:40Z</time>
      </trkpt>
      <trkpt lat="42.540650000" lon="-2.439856000">
        <ele>528.10</ele>
        <time>2016-10-15T06:13:41Z</time>
      </trkpt>
      <trkpt lat="42.540667000" lon="-2.439880000">
        <ele>528.40</ele>
        <time>2016-10-15T06:13:42Z</time>
      </trkpt>
      <trkpt lat="42.540683000" lon="-2.439906000">
        <ele>528.60</ele>
        <time>2016-10-15T06:13:43Z</time>
      </trkpt>
      <trkpt lat="42.540699000" lon="-2.439933000">
        <ele>528.80</ele>
        <time>2016-10-15T06:13:44Z</time>
      </trkpt>
      <trkpt lat="42.540713000" lon="-2.439965000">
        <ele>529.10</ele>
        <time>2016-10-15T06:13:45Z</time>
      </trkpt>
      <trkpt lat="42.540730000" lon="-2.439996000">
        <ele>529.30</ele>
        <time>2016-10-15T06:13:46Z</time>
      </trkpt>
      <trkpt lat="42.540743000" lon="-2.440027000">
        <ele>529.40</ele>
        <time>2016-10-15T06:13:47Z</time>
      </trkpt>
      <trkpt lat="42.540759000" lon="-2.440054000">
        <ele>529.50</ele>
        <time>2016-10-15T06:13:48Z</time>
      </trkpt>
      <trkpt lat="42.540774000" lon="-2.440084000">
        <ele>529.90</ele>
        <time>2016-10-15T06:13:49Z</time>
      </trkpt>
      <trkpt lat="42.540786000" lon="-2.440111000">
        <ele>530.10</ele>
        <time>2016-10-15T06:13:50Z</time>
      </trkpt>
      <trkpt lat="42.540800000" lon="-2.440138000">
        <ele>530.40</ele>
        <time>2016-10-15T06:13:51Z</time>
      </trkpt>
      <trkpt lat="42.540818000" lon="-2.440166000">
        <ele>530.60</ele>
        <time>2016-10-15T06:13:52Z</time>
      </trkpt>
      <trkpt lat="42.540833000" lon="-2.440194000">
        <ele>530.70</ele>
        <time>2016-10-15T06:13:53Z</time>
      </trkpt>
      <trkpt lat="42.540847000" lon="-2.440222000">
        <ele>530.90</ele>
        <time>2016-10-15T06:13:54Z</time>
      </trkpt>
      <trkpt lat="42.540860000" lon="-2.440254000">
        <ele>531.10</ele>
        <time>2016-10-15T06:13:55Z</time>
      </trkpt>
      <trkpt lat="42.540875000" lon="-2.440280000">
        <ele>531.20</ele>
        <time>2016-10-15T06:13:56Z</time>
      </trkpt>
      <trkpt lat="42.540891000" lon="-2.440305000">
        <ele>531.40</ele>
        <time>2016-10-15T06:13:57Z</time>
      </trkpt>
      <trkpt lat="42.540923000" lon="-2.440354000">
        <ele>531.70</ele>
        <time>2016-10-15T06:13:59Z</time>
      </trkpt>
      <trkpt lat="42.540942000" lon="-2.440378000">
        <ele>531.90</ele>
        <time>2016-10-15T06:14:00Z</time>
      </trkpt>
      <trkpt lat="42.540959000" lon="-2.440401000">
        <ele>532.10</ele>
        <time>2016-10-15T06:14:01Z</time>
      </trkpt>
      <trkpt lat="42.540976000" lon="-2.440417000">
        <ele>532.30</ele>
        <time>2016-10-15T06:14:02Z</time>
      </trkpt>
      <trkpt lat="42.540993000" lon="-2.440441000">
        <ele>532.40</ele>
        <time>2016-10-15T06:14:03Z</time>
      </trkpt>
      <trkpt lat="42.541010000" lon="-2.440464000">
        <ele>532.50</ele>
        <time>2016-10-15T06:14:04Z</time>
      </trkpt>
      <trkpt lat="42.541032000" lon="-2.440482000">
        <ele>532.70</ele>
        <time>2016-10-15T06:14:05Z</time>
      </trkpt>
      <trkpt lat="42.541054000" lon="-2.440499000">
        <ele>532.80</ele>
        <time>2016-10-15T06:14:06Z</time>
      </trkpt>
      <trkpt lat="42.541071000" lon="-2.440516000">
        <ele>533.00</ele>
        <time>2016-10-15T06:14:07Z</time>
      </trkpt>
      <trkpt lat="42.541085000" lon="-2.440528000">
        <ele>533.20</ele>
        <time>2016-10-15T06:14:08Z</time>
      </trkpt>
      <trkpt lat="42.541102000" lon="-2.440538000">
        <ele>533.40</ele>
        <time>2016-10-15T06:14:09Z</time>
      </trkpt>
      <trkpt lat="42.541122000" lon="-2.440553000">
        <ele>533.60</ele>
        <time>2016-10-15T06:14:10Z</time>
      </trkpt>
      <trkpt lat="42.541143000" lon="-2.440563000">
        <ele>533.90</ele>
        <time>2016-10-15T06:14:11Z</time>
      </trkpt>
      <trkpt lat="42.541164000" lon="-2.440573000">
        <ele>534.10</ele>
        <time>2016-10-15T06:14:12Z</time>
      </trkpt>
      <trkpt lat="42.541186000" lon="-2.440583000">
        <ele>534.30</ele>
        <time>2016-10-15T06:14:13Z</time>
      </trkpt>
      <trkpt lat="42.541209000" lon="-2.440591000">
        <ele>534.40</ele>
        <time>2016-10-15T06:14:14Z</time>
      </trkpt>
      <trkpt lat="42.541230000" lon="-2.440595000">
        <ele>534.50</ele>
        <time>2016-10-15T06:14:15Z</time>
      </trkpt>
      <trkpt lat="42.541254000" lon="-2.440596000">
        <ele>534.60</ele>
        <time>2016-10-15T06:14:16Z</time>
      </trkpt>
      <trkpt lat="42.541277000" lon="-2.440598000">
        <ele>534.60</ele>
        <time>2016-10-15T06:14:17Z</time>
      </trkpt>
      <trkpt lat="42.541298000" lon="-2.440602000">
        <ele>534.70</ele>
        <time>2016-10-15T06:14:18Z</time>
      </trkpt>
      <trkpt lat="42.541321000" lon="-2.440608000">
        <ele>534.70</ele>
        <time>2016-10-15T06:14:19Z</time>
      </trkpt>
      <trkpt lat="42.541345000" lon="-2.440613000">
        <ele>534.70</ele>
        <time>2016-10-15T06:14:20Z</time>
      </trkpt>
      <trkpt lat="42.541370000" lon="-2.440613000">
        <ele>534.90</ele>
        <time>2016-10-15T06:14:21Z</time>
      </trkpt>
      <trkpt lat="42.541393000" lon="-2.440618000">
        <ele>535.00</ele>
        <time>2016-10-15T06:14:22Z</time>
      </trkpt>
      <trkpt lat="42.541418000" lon="-2.440623000">
        <ele>535.10</ele>
        <time>2016-10-15T06:14:23Z</time>
      </trkpt>
      <trkpt lat="42.541443000" lon="-2.440628000">
        <ele>535.20</ele>
        <time>2016-10-15T06:14:24Z</time>
      </trkpt>
      <trkpt lat="42.541469000" lon="-2.440634000">
        <ele>535.50</ele>
        <time>2016-10-15T06:14:25Z</time>
      </trkpt>
      <trkpt lat="42.541496000" lon="-2.440640000">
        <ele>535.60</ele>
        <time>2016-10-15T06:14:26Z</time>
      </trkpt>
      <trkpt lat="42.541522000" lon="-2.440645000">
        <ele>535.70</ele>
        <time>2016-10-15T06:14:27Z</time>
      </trkpt>
      <trkpt lat="42.541549000" lon="-2.440652000">
        <ele>535.80</ele>
        <time>2016-10-15T06:14:28Z</time>
      </trkpt>
      <trkpt lat="42.541574000" lon="-2.440657000">
        <ele>535.80</ele>
        <time>2016-10-15T06:14:29Z</time>
      </trkpt>
      <trkpt lat="42.541598000" lon="-2.440664000">
        <ele>535.80</ele>
        <time>2016-10-15T06:14:30Z</time>
      </trkpt>
      <trkpt lat="42.541623000" lon="-2.440670000">
        <ele>535.80</ele>
        <time>2016-10-15T06:14:31Z</time>
      </trkpt>
      <trkpt lat="42.541648000" lon="-2.440681000">
        <ele>535.80</ele>
        <time>2016-10-15T06:14:32Z</time>
      </trkpt>
      <trkpt lat="42.541672000" lon="-2.440694000">
        <ele>535.80</ele>
        <time>2016-10-15T06:14:33Z</time>
      </trkpt>
      <trkpt lat="42.541698000" lon="-2.440709000">
        <ele>535.80</ele>
        <time>2016-10-15T06:14:34Z</time>
      </trkpt>
      <trkpt lat="42.541724000" lon="-2.440721000">
        <ele>535.80</ele>
        <time>2016-10-15T06:14:35Z</time>
      </trkpt>
      <trkpt lat="42.541751000" lon="-2.440731000">
        <ele>535.80</ele>
        <time>2016-10-15T06:14:36Z</time>
      </trkpt>
      <trkpt lat="42.541779000" lon="-2.440741000">
        <ele>535.80</ele>
        <time>2016-10-15T06:14:37Z</time>
      </trkpt>
      <trkpt lat="42.541810000" lon="-2.440752000">
        <ele>535.80</ele>
        <time>2016-10-15T06:14:38Z</time>
      </trkpt>
      <trkpt lat="42.541842000" lon="-2.440767000">
        <ele>535.80</ele>
        <time>2016-10-15T06:14:39Z</time>
      </trkpt>
      <trkpt lat="42.541876000" lon="-2.440783000">
        <ele>535.70</ele>
        <time>2016-10-15T06:14:40Z</time>
      </trkpt>
      <trkpt lat="42.541910000" lon="-2.440800000">
        <ele>535.60</ele>
        <time>2016-10-15T06:14:41Z</time>
      </trkpt>
      <trkpt lat="42.541945000" lon="-2.440813000">
        <ele>535.40</ele>
        <time>2016-10-15T06:14:42Z</time>
      </trkpt>
      <trkpt lat="42.541978000" lon="-2.440829000">
        <ele>535.30</ele>
        <time>2016-10-15T06:14:43Z</time>
      </trkpt>
      <trkpt lat="42.542012000" lon="-2.440844000">
        <ele>535.30</ele>
        <time>2016-10-15T06:14:44Z</time>
      </trkpt>
      <trkpt lat="42.542046000" lon="-2.440865000">
        <ele>535.20</ele>
        <time>2016-10-15T06:14:45Z</time>
      </trkpt>
      <trkpt lat="42.542076000" lon="-2.440885000">
        <ele>535.20</ele>
        <time>2016-10-15T06:14:46Z</time>
      </trkpt>
      <trkpt lat="42.542110000" lon="-2.440905000">
        <ele>535.10</ele>
        <time>2016-10-15T06:14:47Z</time>
      </trkpt>
      <trkpt lat="42.542143000" lon="-2.440921000">
        <ele>535.10</ele>
        <time>2016-10-15T06:14:48Z</time>
      </trkpt>
      <trkpt lat="42.542176000" lon="-2.440932000">
        <ele>535.10</ele>
        <time>2016-10-15T06:14:49Z</time>
      </trkpt>
      <trkpt lat="42.542206000" lon="-2.440949000">
        <ele>535.10</ele>
        <time>2016-10-15T06:14:50Z</time>
      </trkpt>
      <trkpt lat="42.542238000" lon="-2.440961000">
        <ele>535.00</ele>
        <time>2016-10-15T06:14:51Z</time>
      </trkpt>
      <trkpt lat="42.542272000" lon="-2.440973000">
        <ele>534.90</ele>
        <time>2016-10-15T06:14:52Z</time>
      </trkpt>
      <trkpt lat="42.542305000" lon="-2.440987000">
        <ele>534.90</ele>
        <time>2016-10-15T06:14:53Z</time>
      </trkpt>
      <trkpt lat="42.542335000" lon="-2.441002000">
        <ele>534.90</ele>
        <time>2016-10-15T06:14:54Z</time>
      </trkpt>
      <trkpt lat="42.542366000" lon="-2.441017000">
        <ele>534.90</ele>
        <time>2016-10-15T06:14:55Z</time>
      </trkpt>
      <trkpt lat="42.542397000" lon="-2.441033000">
        <ele>534.90</ele>
        <time>2016-10-15T06:14:56Z</time>
      </trkpt>
      <trkpt lat="42.542426000" lon="-2.441051000">
        <ele>534.90</ele>
        <time>2016-10-15T06:14:57Z</time>
      </trkpt>
      <trkpt lat="42.542458000" lon="-2.441066000">
        <ele>534.90</ele>
        <time>2016-10-15T06:14:58Z</time>
      </trkpt>
      <trkpt lat="42.542520000" lon="-2.441093000">
        <ele>535.50</ele>
        <time>2016-10-15T06:15:00Z</time>
      </trkpt>
      <trkpt lat="42.542550000" lon="-2.441107000">
        <ele>535.70</ele>
        <time>2016-10-15T06:15:01Z</time>
      </trkpt>
      <trkpt lat="42.542580000" lon="-2.441121000">
        <ele>535.90</ele>
        <time>2016-10-15T06:15:02Z</time>
      </trkpt>
      <trkpt lat="42.542610000" lon="-2.441135000">
        <ele>536.00</ele>
        <time>2016-10-15T06:15:03Z</time>
      </trkpt>
      <trkpt lat="42.542637000" lon="-2.441153000">
        <ele>536.10</ele>
        <time>2016-10-15T06:15:04Z</time>
      </trkpt>
      <trkpt lat="42.542665000" lon="-2.441167000">
        <ele>536.30</ele>
        <time>2016-10-15T06:15:05Z</time>
      </trkpt>
      <trkpt lat="42.542692000" lon="-2.441181000">
        <ele>536.40</ele>
        <time>2016-10-15T06:15:06Z</time>
      </trkpt>
      <trkpt lat="42.542720000" lon="-2.441198000">
        <ele>536.50</ele>
        <time>2016-10-15T06:15:07Z</time>
      </trkpt>
      <trkpt lat="42.542746000" lon="-2.441211000">
        <ele>536.50</ele>
        <time>2016-10-15T06:15:08Z</time>
      </trkpt>
      <trkpt lat="42.542771000" lon="-2.441222000">
        <ele>536.70</ele>
        <time>2016-10-15T06:15:09Z</time>
      </trkpt>
      <trkpt lat="42.542795000" lon="-2.441236000">
        <ele>536.80</ele>
        <time>2016-10-15T06:15:10Z</time>
      </trkpt>
      <trkpt lat="42.542821000" lon="-2.441249000">
        <ele>537.00</ele>
        <time>2016-10-15T06:15:11Z</time>
      </trkpt>
      <trkpt lat="42.542848000" lon="-2.441262000">
        <ele>537.20</ele>
        <time>2016-10-15T06:15:12Z</time>
      </trkpt>
      <trkpt lat="42.542874000" lon="-2.441278000">
        <ele>537.40</ele>
        <time>2016-10-15T06:15:13Z</time>
      </trkpt>
      <trkpt lat="42.542898000" lon="-2.441288000">
        <ele>537.60</ele>
        <time>2016-10-15T06:15:14Z</time>
      </trkpt>
      <trkpt lat="42.542923000" lon="-2.441302000">
        <ele>537.90</ele>
        <time>2016-10-15T06:15:15Z</time>
      </trkpt>
      <trkpt lat="42.542945000" lon="-2.441316000">
        <ele>538.10</ele>
        <time>2016-10-15T06:15:16Z</time>
      </trkpt>
      <trkpt lat="42.542971000" lon="-2.441326000">
        <ele>538.30</ele>
        <time>2016-10-15T06:15:17Z</time>
      </trkpt>
      <trkpt lat="42.542994000" lon="-2.441337000">
        <ele>538.40</ele>
        <time>2016-10-15T06:15:18Z</time>
      </trkpt>
      <trkpt lat="42.543017000" lon="-2.441351000">
        <ele>538.60</ele>
        <time>2016-10-15T06:15:19Z</time>
      </trkpt>
      <trkpt lat="42.543040000" lon="-2.441368000">
        <ele>538.80</ele>
        <time>2016-10-15T06:15:20Z</time>
      </trkpt>
      <trkpt lat="42.543064000" lon="-2.441376000">
        <ele>539.00</ele>
        <time>2016-10-15T06:15:21Z</time>
      </trkpt>
      <trkpt lat="42.543092000" lon="-2.441392000">
        <ele>539.10</ele>
        <time>2016-10-15T06:15:22Z</time>
      </trkpt>
      <trkpt lat="42.543112000" lon="-2.441406000">
        <ele>539.40</ele>
        <time>2016-10-15T06:15:23Z</time>
      </trkpt>
      <trkpt lat="42.543137000" lon="-2.441416000">
        <ele>539.60</ele>
        <time>2016-10-15T06:15:24Z</time>
      </trkpt>
      <trkpt lat="42.543162000" lon="-2.441431000">
        <ele>539.70</ele>
        <time>2016-10-15T06:15:25Z</time>
      </trkpt>
      <trkpt lat="42.543190000" lon="-2.441431000">
        <ele>539.80</ele>
        <time>2016-10-15T06:15:26Z</time>
      </trkpt>
      <trkpt lat="42.543216000" lon="-2.441440000">
        <ele>539.90</ele>
        <time>2016-10-15T06:15:27Z</time>
      </trkpt>
      <trkpt lat="42.543243000" lon="-2.441456000">
        <ele>540.00</ele>
        <time>2016-10-15T06:15:28Z</time>
      </trkpt>
      <trkpt lat="42.543266000" lon="-2.441470000">
        <ele>540.10</ele>
        <time>2016-10-15T06:15:29Z</time>
      </trkpt>
      <trkpt lat="42.543285000" lon="-2.441484000">
        <ele>540.20</ele>
        <time>2016-10-15T06:15:30Z</time>
      </trkpt>
      <trkpt lat="42.543307000" lon="-2.441498000">
        <ele>540.20</ele>
        <time>2016-10-15T06:15:31Z</time>
      </trkpt>
      <trkpt lat="42.543328000" lon="-2.441507000">
        <ele>540.30</ele>
        <time>2016-10-15T06:15:32Z</time>
      </trkpt>
      <trkpt lat="42.543349000" lon="-2.441517000">
        <ele>540.30</ele>
        <time>2016-10-15T06:15:33Z</time>
      </trkpt>
      <trkpt lat="42.543370000" lon="-2.441530000">
        <ele>540.40</ele>
        <time>2016-10-15T06:15:34Z</time>
      </trkpt>
      <trkpt lat="42.543391000" lon="-2.441538000">
        <ele>540.50</ele>
        <time>2016-10-15T06:15:35Z</time>
      </trkpt>
      <trkpt lat="42.543410000" lon="-2.441549000">
        <ele>540.70</ele>
        <time>2016-10-15T06:15:36Z</time>
      </trkpt>
      <trkpt lat="42.543429000" lon="-2.441555000">
        <ele>540.90</ele>
        <time>2016-10-15T06:15:37Z</time>
      </trkpt>
      <trkpt lat="42.543449000" lon="-2.441562000">
        <ele>541.00</ele>
        <time>2016-10-15T06:15:38Z</time>
      </trkpt>
      <trkpt lat="42.543467000" lon="-2.441570000">
        <ele>541.20</ele>
        <time>2016-10-15T06:15:39Z</time>
      </trkpt>
      <trkpt lat="42.543485000" lon="-2.441572000">
        <ele>541.30</ele>
        <time>2016-10-15T06:15:40Z</time>
      </trkpt>
      <trkpt lat="42.543505000" lon="-2.441576000">
        <ele>541.50</ele>
        <time>2016-10-15T06:15:41Z</time>
      </trkpt>
      <trkpt lat="42.543527000" lon="-2.441581000">
        <ele>541.60</ele>
        <time>2016-10-15T06:15:42Z</time>
      </trkpt>
      <trkpt lat="42.543549000" lon="-2.441586000">
        <ele>541.80</ele>
        <time>2016-10-15T06:15:43Z</time>
      </trkpt>
      <trkpt lat="42.543572000" lon="-2.441589000">
        <ele>541.90</ele>
        <time>2016-10-15T06:15:44Z</time>
      </trkpt>
      <trkpt lat="42.543594000" lon="-2.441590000">
        <ele>542.00</ele>
        <time>2016-10-15T06:15:45Z</time>
      </trkpt>
      <trkpt lat="42.543618000" lon="-2.441591000">
        <ele>542.00</ele>
        <time>2016-10-15T06:15:46Z</time>
      </trkpt>
      <trkpt lat="42.543640000" lon="-2.441590000">
        <ele>542.10</ele>
        <time>2016-10-15T06:15:47Z</time>
      </trkpt>
      <trkpt lat="42.543661000" lon="-2.441590000">
        <ele>542.20</ele>
        <time>2016-10-15T06:15:48Z</time>
      </trkpt>
      <trkpt lat="42.543682000" lon="-2.441589000">
        <ele>542.40</ele>
        <time>2016-10-15T06:15:49Z</time>
      </trkpt>
      <trkpt lat="42.543702000" lon="-2.441583000">
        <ele>542.60</ele>
        <time>2016-10-15T06:15:50Z</time>
      </trkpt>
      <trkpt lat="42.543724000" lon="-2.441576000">
        <ele>542.80</ele>
        <time>2016-10-15T06:15:51Z</time>
      </trkpt>
      <trkpt lat="42.543746000" lon="-2.441568000">
        <ele>542.90</ele>
        <time>2016-10-15T06:15:52Z</time>
      </trkpt>
      <trkpt lat="42.543766000" lon="-2.441560000">
        <ele>543.20</ele>
        <time>2016-10-15T06:15:53Z</time>
      </trkpt>
      <trkpt lat="42.543791000" lon="-2.441553000">
        <ele>543.50</ele>
        <time>2016-10-15T06:15:54Z</time>
      </trkpt>
      <trkpt lat="42.543813000" lon="-2.441545000">
        <ele>543.70</ele>
        <time>2016-10-15T06:15:55Z</time>
      </trkpt>
      <trkpt lat="42.543835000" lon="-2.441536000">
        <ele>543.80</ele>
        <time>2016-10-15T06:15:56Z</time>
      </trkpt>
      <trkpt lat="42.543858000" lon="-2.441528000">
        <ele>543.80</ele>
        <time>2016-10-15T06:15:57Z</time>
      </trkpt>
      <trkpt lat="42.543878000" lon="-2.441514000">
        <ele>543.80</ele>
        <time>2016-10-15T06:15:58Z</time>
      </trkpt>
      <trkpt lat="42.543899000" lon="-2.441502000">
        <ele>543.80</ele>
        <time>2016-10-15T06:15:59Z</time>
      </trkpt>
      <trkpt lat="42.543944000" lon="-2.441479000">
        <ele>543.80</ele>
        <time>2016-10-15T06:16:01Z</time>
      </trkpt>
      <trkpt lat="42.543966000" lon="-2.441470000">
        <ele>543.90</ele>
        <time>2016-10-15T06:16:02Z</time>
      </trkpt>
      <trkpt lat="42.543990000" lon="-2.441460000">
        <ele>544.20</ele>
        <time>2016-10-15T06:16:03Z</time>
      </trkpt>
      <trkpt lat="42.544011000" lon="-2.441452000">
        <ele>544.40</ele>
        <time>2016-10-15T06:16:04Z</time>
      </trkpt>
      <trkpt lat="42.544038000" lon="-2.441442000">
        <ele>544.60</ele>
        <time>2016-10-15T06:16:05Z</time>
      </trkpt>
      <trkpt lat="42.544063000" lon="-2.441435000">
        <ele>544.70</ele>
        <time>2016-10-15T06:16:06Z</time>
      </trkpt>
      <trkpt lat="42.544089000" lon="-2.441425000">
        <ele>544.80</ele>
        <time>2016-10-15T06:16:07Z</time>
      </trkpt>
      <trkpt lat="42.544111000" lon="-2.441419000">
        <ele>544.80</ele>
        <time>2016-10-15T06:16:08Z</time>
      </trkpt>
      <trkpt lat="42.544135000" lon="-2.441411000">
        <ele>545.10</ele>
        <time>2016-10-15T06:16:09Z</time>
      </trkpt>
      <trkpt lat="42.544159000" lon="-2.441404000">
        <ele>545.20</ele>
        <time>2016-10-15T06:16:10Z</time>
      </trkpt>
      <trkpt lat="42.544182000" lon="-2.441396000">
        <ele>545.50</ele>
        <time>2016-10-15T06:16:11Z</time>
      </trkpt>
      <trkpt lat="42.544205000" lon="-2.441392000">
        <ele>545.60</ele>
        <time>2016-10-15T06:16:12Z</time>
      </trkpt>
      <trkpt lat="42.544228000" lon="-2.441387000">
        <ele>545.80</ele>
        <time>2016-10-15T06:16:13Z</time>
      </trkpt>
      <trkpt lat="42.544251000" lon="-2.441384000">
        <ele>546.00</ele>
        <time>2016-10-15T06:16:14Z</time>
      </trkpt>
      <trkpt lat="42.544278000" lon="-2.441381000">
        <ele>546.10</ele>
        <time>2016-10-15T06:16:15Z</time>
      </trkpt>
      <trkpt lat="42.544304000" lon="-2.441376000">
        <ele>546.20</ele>
        <time>2016-10-15T06:16:16Z</time>
      </trkpt>
      <trkpt lat="42.544329000" lon="-2.441371000">
        <ele>546.30</ele>
        <time>2016-10-15T06:16:17Z</time>
      </trkpt>
      <trkpt lat="42.544355000" lon="-2.441365000">
        <ele>546.30</ele>
        <time>2016-10-15T06:16:18Z</time>
      </trkpt>
      <trkpt lat="42.544381000" lon="-2.441358000">
        <ele>546.50</ele>
        <time>2016-10-15T06:16:19Z</time>
      </trkpt>
      <trkpt lat="42.544406000" lon="-2.441357000">
        <ele>546.70</ele>
        <time>2016-10-15T06:16:20Z</time>
      </trkpt>
      <trkpt lat="42.544432000" lon="-2.441350000">
        <ele>546.80</ele>
        <time>2016-10-15T06:16:21Z</time>
      </trkpt>
      <trkpt lat="42.544458000" lon="-2.441347000">
        <ele>546.90</ele>
        <time>2016-10-15T06:16:22Z</time>
      </trkpt>
      <trkpt lat="42.544485000" lon="-2.441346000">
        <ele>547.00</ele>
        <time>2016-10-15T06:16:23Z</time>
      </trkpt>
      <trkpt lat="42.544510000" lon="-2.441344000">
        <ele>547.10</ele>
        <time>2016-10-15T06:16:24Z</time>
      </trkpt>
      <trkpt lat="42.544536000" lon="-2.441342000">
        <ele>547.10</ele>
        <time>2016-10-15T06:16:25Z</time>
      </trkpt>
      <trkpt lat="42.544560000" lon="-2.441344000">
        <ele>547.10</ele>
        <time>2016-10-15T06:16:26Z</time>
      </trkpt>
      <trkpt lat="42.544587000" lon="-2.441339000">
        <ele>547.30</ele>
        <time>2016-10-15T06:16:27Z</time>
      </trkpt>
      <trkpt lat="42.544614000" lon="-2.441339000">
        <ele>547.40</ele>
        <time>2016-10-15T06:16:28Z</time>
      </trkpt>
      <trkpt lat="42.544642000" lon="-2.441339000">
        <ele>547.50</ele>
        <time>2016-10-15T06:16:29Z</time>
      </trkpt>
      <trkpt lat="42.544668000" lon="-2.441339000">
        <ele>547.50</ele>
        <time>2016-10-15T06:16:30Z</time>
      </trkpt>
      <trkpt lat="42.544694000" lon="-2.441339000">
        <ele>547.60</ele>
        <time>2016-10-15T06:16:31Z</time>
      </trkpt>
      <trkpt lat="42.544720000" lon="-2.441344000">
        <ele>547.60</ele>
        <time>2016-10-15T06:16:32Z</time>
      </trkpt>
      <trkpt lat="42.544745000" lon="-2.441342000">
        <ele>547.70</ele>
        <time>2016-10-15T06:16:33Z</time>
      </trkpt>
      <trkpt lat="42.544773000" lon="-2.441341000">
        <ele>547.80</ele>
        <time>2016-10-15T06:16:34Z</time>
      </trkpt>
      <trkpt lat="42.544801000" lon="-2.441342000">
        <ele>547.90</ele>
        <time>2016-10-15T06:16:35Z</time>
      </trkpt>
      <trkpt lat="42.544829000" lon="-2.441339000">
        <ele>548.10</ele>
        <time>2016-10-15T06:16:36Z</time>
      </trkpt>
      <trkpt lat="42.544858000" lon="-2.441334000">
        <ele>548.20</ele>
        <time>2016-10-15T06:16:37Z</time>
      </trkpt>
      <trkpt lat="42.544884000" lon="-2.441328000">
        <ele>548.30</ele>
        <time>2016-10-15T06:16:38Z</time>
      </trkpt>
      <trkpt lat="42.544909000" lon="-2.441320000">
        <ele>548.20</ele>
        <time>2016-10-15T06:16:39Z</time>
      </trkpt>
      <trkpt lat="42.544936000" lon="-2.441313000">
        <ele>548.20</ele>
        <time>2016-10-15T06:16:40Z</time>
      </trkpt>
      <trkpt lat="42.544962000" lon="-2.441304000">
        <ele>548.20</ele>
        <time>2016-10-15T06:16:41Z</time>
      </trkpt>
      <trkpt lat="42.544986000" lon="-2.441291000">
        <ele>548.10</ele>
        <time>2016-10-15T06:16:42Z</time>
      </trkpt>
      <trkpt lat="42.545009000" lon="-2.441276000">
        <ele>548.10</ele>
        <time>2016-10-15T06:16:43Z</time>
      </trkpt>
      <trkpt lat="42.545034000" lon="-2.441258000">
        <ele>548.00</ele>
        <time>2016-10-15T06:16:44Z</time>
      </trkpt>
      <trkpt lat="42.545055000" lon="-2.441236000">
        <ele>548.20</ele>
        <time>2016-10-15T06:16:45Z</time>
      </trkpt>
      <trkpt lat="42.545076000" lon="-2.441212000">
        <ele>548.40</ele>
        <time>2016-10-15T06:16:46Z</time>
      </trkpt>
      <trkpt lat="42.545094000" lon="-2.441186000">
        <ele>548.50</ele>
        <time>2016-10-15T06:16:47Z</time>
      </trkpt>
      <trkpt lat="42.545111000" lon="-2.441160000">
        <ele>548.50</ele>
        <time>2016-10-15T06:16:48Z</time>
      </trkpt>
      <trkpt lat="42.545128000" lon="-2.441136000">
        <ele>548.60</ele>
        <time>2016-10-15T06:16:49Z</time>
      </trkpt>
      <trkpt lat="42.545146000" lon="-2.441111000">
        <ele>548.60</ele>
        <time>2016-10-15T06:16:50Z</time>
      </trkpt>
      <trkpt lat="42.545163000" lon="-2.441082000">
        <ele>548.70</ele>
        <time>2016-10-15T06:16:51Z</time>
      </trkpt>
      <trkpt lat="42.545180000" lon="-2.441052000">
        <ele>548.70</ele>
        <time>2016-10-15T06:16:52Z</time>
      </trkpt>
      <trkpt lat="42.545198000" lon="-2.441024000">
        <ele>548.60</ele>
        <time>2016-10-15T06:16:53Z</time>
      </trkpt>
      <trkpt lat="42.545214000" lon="-2.440993000">
        <ele>548.60</ele>
        <time>2016-10-15T06:16:54Z</time>
      </trkpt>
      <trkpt lat="42.545231000" lon="-2.440958000">
        <ele>548.50</ele>
        <time>2016-10-15T06:16:55Z</time>
      </trkpt>
      <trkpt lat="42.545247000" lon="-2.440925000">
        <ele>548.40</ele>
        <time>2016-10-15T06:16:56Z</time>
      </trkpt>
      <trkpt lat="42.545258000" lon="-2.440886000">
        <ele>548.40</ele>
        <time>2016-10-15T06:16:57Z</time>
      </trkpt>
      <trkpt lat="42.545273000" lon="-2.440847000">
        <ele>548.30</ele>
        <time>2016-10-15T06:16:58Z</time>
      </trkpt>
      <trkpt lat="42.545284000" lon="-2.440809000">
        <ele>548.40</ele>
        <time>2016-10-15T06:16:59Z</time>
      </trkpt>
      <trkpt lat="42.545293000" lon="-2.440769000">
        <ele>548.50</ele>
        <time>2016-10-15T06:17:00Z</time>
      </trkpt>
      <trkpt lat="42.545317000" lon="-2.440688000">
        <ele>548.60</ele>
        <time>2016-10-15T06:17:02Z</time>
      </trkpt>
      <trkpt lat="42.545328000" lon="-2.440641000">
        <ele>548.50</ele>
        <time>2016-10-15T06:17:03Z</time>
      </trkpt>
      <trkpt lat="42.545339000" lon="-2.440593000">
        <ele>548.30</ele>
        <time>2016-10-15T06:17:04Z</time>
      </trkpt>
      <trkpt lat="42.545348000" lon="-2.440543000">
        <ele>548.20</ele>
        <time>2016-10-15T06:17:05Z</time>
      </trkpt>
      <trkpt lat="42.545357000" lon="-2.440488000">
        <ele>548.20</ele>
        <time>2016-10-15T06:17:06Z</time>
      </trkpt>
      <trkpt lat="42.545365000" lon="-2.440433000">
        <ele>548.10</ele>
        <time>2016-10-15T06:17:07Z</time>
      </trkpt>
      <trkpt lat="42.545373000" lon="-2.440374000">
        <ele>548.10</ele>
        <time>2016-10-15T06:17:08Z</time>
      </trkpt>
      <trkpt lat="42.545380000" lon="-2.440312000">
        <ele>547.80</ele>
        <time>2016-10-15T06:17:09Z</time>
      </trkpt>
      <trkpt lat="42.545389000" lon="-2.440247000">
        <ele>547.70</ele>
        <time>2016-10-15T06:17:10Z</time>
      </trkpt>
      <trkpt lat="42.545396000" lon="-2.440179000">
        <ele>547.50</ele>
        <time>2016-10-15T06:17:11Z</time>
      </trkpt>
      <trkpt lat="42.545401000" lon="-2.440108000">
        <ele>547.40</ele>
        <time>2016-10-15T06:17:12Z</time>
      </trkpt>
      <trkpt lat="42.545404000" lon="-2.440035000">
        <ele>547.20</ele>
        <time>2016-10-15T06:17:13Z</time>
      </trkpt>
      <trkpt lat="42.545406000" lon="-2.439963000">
        <ele>547.10</ele>
        <time>2016-10-15T06:17:14Z</time>
      </trkpt>
      <trkpt lat="42.545406000" lon="-2.439891000">
        <ele>546.90</ele>
        <time>2016-10-15T06:17:15Z</time>
      </trkpt>
      <trkpt lat="42.545411000" lon="-2.439820000">
        <ele>546.80</ele>
        <time>2016-10-15T06:17:16Z</time>
      </trkpt>
      <trkpt lat="42.545414000" lon="-2.439752000">
        <ele>546.80</ele>
        <time>2016-10-15T06:17:17Z</time>
      </trkpt>
      <trkpt lat="42.545412000" lon="-2.439686000">
        <ele>546.80</ele>
        <time>2016-10-15T06:17:18Z</time>
      </trkpt>
      <trkpt lat="42.545411000" lon="-2.439622000">
        <ele>546.60</ele>
        <time>2016-10-15T06:17:19Z</time>
      </trkpt>
      <trkpt lat="42.545409000" lon="-2.439561000">
        <ele>546.40</ele>
        <time>2016-10-15T06:17:20Z</time>
      </trkpt>
      <trkpt lat="42.545409000" lon="-2.439500000">
        <ele>546.40</ele>
        <time>2016-10-15T06:17:21Z</time>
      </trkpt>
      <trkpt lat="42.545411000" lon="-2.439438000">
        <ele>546.40</ele>
        <time>2016-10-15T06:17:22Z</time>
      </trkpt>
      <trkpt lat="42.545415000" lon="-2.439379000">
        <ele>546.40</ele>
        <time>2016-10-15T06:17:23Z</time>
      </trkpt>
      <trkpt lat="42.545422000" lon="-2.439324000">
        <ele>546.40</ele>
        <time>2016-10-15T06:17:24Z</time>
      </trkpt>
      <trkpt lat="42.545429000" lon="-2.439273000">
        <ele>546.50</ele>
        <time>2016-10-15T06:17:25Z</time>
      </trkpt>
      <trkpt lat="42.545437000" lon="-2.439225000">
        <ele>546.50</ele>
        <time>2016-10-15T06:17:26Z</time>
      </trkpt>
      <trkpt lat="42.545444000" lon="-2.439177000">
        <ele>546.30</ele>
        <time>2016-10-15T06:17:27Z</time>
      </trkpt>
      <trkpt lat="42.545452000" lon="-2.439131000">
        <ele>546.20</ele>
        <time>2016-10-15T06:17:28Z</time>
      </trkpt>
      <trkpt lat="42.545461000" lon="-2.439086000">
        <ele>546.20</ele>
        <time>2016-10-15T06:17:29Z</time>
      </trkpt>
      <trkpt lat="42.545471000" lon="-2.439043000">
        <ele>546.10</ele>
        <time>2016-10-15T06:17:30Z</time>
      </trkpt>
      <trkpt lat="42.545481000" lon="-2.439000000">
        <ele>546.30</ele>
        <time>2016-10-15T06:17:31Z</time>
      </trkpt>
      <trkpt lat="42.545490000" lon="-2.438961000">
        <ele>546.40</ele>
        <time>2016-10-15T06:17:32Z</time>
      </trkpt>
      <trkpt lat="42.545502000" lon="-2.438921000">
        <ele>546.60</ele>
        <time>2016-10-15T06:17:33Z</time>
      </trkpt>
      <trkpt lat="42.545510000" lon="-2.438884000">
        <ele>546.70</ele>
        <time>2016-10-15T06:17:34Z</time>
      </trkpt>
      <trkpt lat="42.545520000" lon="-2.438845000">
        <ele>546.80</ele>
        <time>2016-10-15T06:17:35Z</time>
      </trkpt>
      <trkpt lat="42.545534000" lon="-2.438811000">
        <ele>546.90</ele>
        <time>2016-10-15T06:17:36Z</time>
      </trkpt>
      <trkpt lat="42.545543000" lon="-2.438784000">
        <ele>547.20</ele>
        <time>2016-10-15T06:17:37Z</time>
      </trkpt>
      <trkpt lat="42.545553000" lon="-2.438754000">
        <ele>547.40</ele>
        <time>2016-10-15T06:17:38Z</time>
      </trkpt>
      <trkpt lat="42.545560000" lon="-2.438726000">
        <ele>547.60</ele>
        <time>2016-10-15T06:17:39Z</time>
      </trkpt>
      <trkpt lat="42.545567000" lon="-2.438703000">
        <ele>547.70</ele>
        <time>2016-10-15T06:17:40Z</time>
      </trkpt>
      <trkpt lat="42.545576000" lon="-2.438682000">
        <ele>547.90</ele>
        <time>2016-10-15T06:17:41Z</time>
      </trkpt>
      <trkpt lat="42.545587000" lon="-2.438662000">
        <ele>548.00</ele>
        <time>2016-10-15T06:17:42Z</time>
      </trkpt>
      <trkpt lat="42.545596000" lon="-2.438643000">
        <ele>548.10</ele>
        <time>2016-10-15T06:17:43Z</time>
      </trkpt>
      <trkpt lat="42.545605000" lon="-2.438624000">
        <ele>548.10</ele>
        <time>2016-10-15T06:17:44Z</time>
      </trkpt>
      <trkpt lat="42.545615000" lon="-2.438608000">
        <ele>548.40</ele>
        <time>2016-10-15T06:17:45Z</time>
      </trkpt>
      <trkpt lat="42.545626000" lon="-2.438593000">
        <ele>548.60</ele>
        <time>2016-10-15T06:17:46Z</time>
      </trkpt>
      <trkpt lat="42.545631000" lon="-2.438579000">
        <ele>548.90</ele>
        <time>2016-10-15T06:17:47Z</time>
      </trkpt>
      <trkpt lat="42.545639000" lon="-2.438564000">
        <ele>549.20</ele>
        <time>2016-10-15T06:17:48Z</time>
      </trkpt>
      <trkpt lat="42.545651000" lon="-2.438551000">
        <ele>549.40</ele>
        <time>2016-10-15T06:17:49Z</time>
      </trkpt>
      <trkpt lat="42.545658000" lon="-2.438538000">
        <ele>549.50</ele>
        <time>2016-10-15T06:17:50Z</time>
      </trkpt>
      <trkpt lat="42.545668000" lon="-2.438532000">
        <ele>549.70</ele>
        <time>2016-10-15T06:17:51Z</time>
      </trkpt>
      <trkpt lat="42.545673000" lon="-2.438533000">
        <ele>549.80</ele>
        <time>2016-10-15T06:17:52Z</time>
      </trkpt>
      <trkpt lat="42.545678000" lon="-2.438523000">
        <ele>549.90</ele>
        <time>2016-10-15T06:17:53Z</time>
      </trkpt>
      <trkpt lat="42.545690000" lon="-2.438523000">
        <ele>549.90</ele>
        <time>2016-10-15T06:17:54Z</time>
      </trkpt>
      <trkpt lat="42.545697000" lon="-2.438535000">
        <ele>549.90</ele>
        <time>2016-10-15T06:17:55Z</time>
      </trkpt>
      <trkpt lat="42.545702000" lon="-2.438547000">
        <ele>549.90</ele>
        <time>2016-10-15T06:17:56Z</time>
      </trkpt>
      <trkpt lat="42.545704000" lon="-2.438553000">
        <ele>549.90</ele>
        <time>2016-10-15T06:17:57Z</time>
      </trkpt>
      <trkpt lat="42.545707000" lon="-2.438557000">
        <ele>550.00</ele>
        <time>2016-10-15T06:17:58Z</time>
      </trkpt>
      <trkpt lat="42.545709000" lon="-2.438560000">
        <ele>549.90</ele>
        <time>2016-10-15T06:17:59Z</time>
      </trkpt>
      <trkpt lat="42.545712000" lon="-2.438564000">
        <ele>549.90</ele>
        <time>2016-10-15T06:18:00Z</time>
      </trkpt>
      <trkpt lat="42.545713000" lon="-2.438564000">
        <ele>549.80</ele>
        <time>2016-10-15T06:18:01Z</time>
      </trkpt>
      <trkpt lat="42.545716000" lon="-2.438562000">
        <ele>549.60</ele>
        <time>2016-10-15T06:18:03Z</time>
      </trkpt>
      <trkpt lat="42.545719000" lon="-2.438563000">
        <ele>549.50</ele>
        <time>2016-10-15T06:18:04Z</time>
      </trkpt>
      <trkpt lat="42.545721000" lon="-2.438562000">
        <ele>549.40</ele>
        <time>2016-10-15T06:18:05Z</time>
      </trkpt>
      <trkpt lat="42.545722000" lon="-2.438562000">
        <ele>549.40</ele>
        <time>2016-10-15T06:18:06Z</time>
      </trkpt>
      <trkpt lat="42.545722000" lon="-2.438562000">
        <ele>549.40</ele>
        <time>2016-10-15T06:18:07Z</time>
      </trkpt>
      <trkpt lat="42.545722000" lon="-2.438561000">
        <ele>549.40</ele>
        <time>2016-10-15T06:18:08Z</time>
      </trkpt>
      <trkpt lat="42.545722000" lon="-2.438561000">
        <ele>549.40</ele>
        <time>2016-10-15T06:18:09Z</time>
      </trkpt>
      <trkpt lat="42.545722000" lon="-2.438561000">
        <ele>549.40</ele>
        <time>2016-10-15T06:18:10Z</time>
      </trkpt>
      <trkpt lat="42.545722000" lon="-2.438561000">
        <ele>549.50</ele>
        <time>2016-10-15T06:18:11Z</time>
      </trkpt>
      <trkpt lat="42.545722000" lon="-2.438561000">
        <ele>549.60</ele>
        <time>2016-10-15T06:18:12Z</time>
      </trkpt>
      <trkpt lat="42.545721000" lon="-2.438562000">
        <ele>549.50</ele>
        <time>2016-10-15T06:18:13Z</time>
      </trkpt>
      <trkpt lat="42.545721000" lon="-2.438563000">
        <ele>549.50</ele>
        <time>2016-10-15T06:18:14Z</time>
      </trkpt>
      <trkpt lat="42.545721000" lon="-2.438563000">
        <ele>549.40</ele>
        <time>2016-10-15T06:18:15Z</time>
      </trkpt>
      <trkpt lat="42.545722000" lon="-2.438562000">
        <ele>549.40</ele>
        <time>2016-10-15T06:18:16Z</time>
      </trkpt>
      <trkpt lat="42.545722000" lon="-2.438562000">
        <ele>549.30</ele>
        <time>2016-10-15T06:18:17Z</time>
      </trkpt>
      <trkpt lat="42.545723000" lon="-2.438563000">
        <ele>549.30</ele>
        <time>2016-10-15T06:18:18Z</time>
      </trkpt>
      <trkpt lat="42.545723000" lon="-2.438563000">
        <ele>549.40</ele>
        <time>2016-10-15T06:18:19Z</time>
      </trkpt>
      <trkpt lat="42.545723000" lon="-2.438563000">
        <ele>549.40</ele>
        <time>2016-10-15T06:18:20Z</time>
      </trkpt>
      <trkpt lat="42.545723000" lon="-2.438563000">
        <ele>549.60</ele>
        <time>2016-10-15T06:18:21Z</time>
      </trkpt>
      <trkpt lat="42.545723000" lon="-2.438563000">
        <ele>549.60</ele>
        <time>2016-10-15T06:18:22Z</time>
      </trkpt>
      <trkpt lat="42.545724000" lon="-2.438563000">
        <ele>549.70</ele>
        <time>2016-10-15T06:18:23Z</time>
      </trkpt>
      <trkpt lat="42.545725000" lon="-2.438562000">
        <ele>549.70</ele>
        <time>2016-10-15T06:18:24Z</time>
      </trkpt>
      <trkpt lat="42.545726000" lon="-2.438562000">
        <ele>549.80</ele>
        <time>2016-10-15T06:18:25Z</time>
      </trkpt>
      <trkpt lat="42.545726000" lon="-2.438562000">
        <ele>549.80</ele>
        <time>2016-10-15T06:18:26Z</time>
      </trkpt>
      <trkpt lat="42.545727000" lon="-2.438562000">
        <ele>549.80</ele>
        <time>2016-10-15T06:18:27Z</time>
      </trkpt>
      <trkpt lat="42.545727000" lon="-2.438561000">
        <ele>549.80</ele>
        <time>2016-10-15T06:18:28Z</time>
      </trkpt>
      <trkpt lat="42.545728000" lon="-2.438561000">
        <ele>549.90</ele>
        <time>2016-10-15T06:18:29Z</time>
      </trkpt>
      <trkpt lat="42.545728000" lon="-2.438560000">
        <ele>549.90</ele>
        <time>2016-10-15T06:18:30Z</time>
      </trkpt>
      <trkpt lat="42.545728000" lon="-2.438560000">
        <ele>549.90</ele>
        <time>2016-10-15T06:18:31Z</time>
      </trkpt>
      <trkpt lat="42.545729000" lon="-2.438559000">
        <ele>549.90</ele>
        <time>2016-10-15T06:18:32Z</time>
      </trkpt>
      <trkpt lat="42.545730000" lon="-2.438559000">
        <ele>549.90</ele>
        <time>2016-10-15T06:18:33Z</time>
      </trkpt>
      <trkpt lat="42.545730000" lon="-2.438559000">
        <ele>549.90</ele>
        <time>2016-10-15T06:18:34Z</time>
      </trkpt>
      <trkpt lat="42.545731000" lon="-2.438559000">
        <ele>550.00</ele>
        <time>2016-10-15T06:18:35Z</time>
      </trkpt>
      <trkpt lat="42.545731000" lon="-2.438559000">
        <ele>550.10</ele>
        <time>2016-10-15T06:18:36Z</time>
      </trkpt>
      <trkpt lat="42.545732000" lon="-2.438559000">
        <ele>550.30</ele>
        <time>2016-10-15T06:18:37Z</time>
      </trkpt>
      <trkpt lat="42.545732000" lon="-2.438559000">
        <ele>550.40</ele>
        <time>2016-10-15T06:18:38Z</time>
      </trkpt>
      <trkpt lat="42.545732000" lon="-2.438559000">
        <ele>550.40</ele>
        <time>2016-10-15T06:18:39Z</time>
      </trkpt>
      <trkpt lat="42.545732000" lon="-2.438558000">
        <ele>550.40</ele>
        <time>2016-10-15T06:18:40Z</time>
      </trkpt>
      <trkpt lat="42.545732000" lon="-2.438558000">
        <ele>550.30</ele>
        <time>2016-10-15T06:18:41Z</time>
      </trkpt>
      <trkpt lat="42.545732000" lon="-2.438558000">
        <ele>550.20</ele>
        <time>2016-10-15T06:18:42Z</time>
      </trkpt>
      <trkpt lat="42.545732000" lon="-2.438558000">
        <ele>550.10</ele>
        <time>2016-10-15T06:18:43Z</time>
      </trkpt>
      <trkpt lat="42.545732000" lon="-2.438558000">
        <ele>550.00</ele>
        <time>2016-10-15T06:18:44Z</time>
      </trkpt>
      <trkpt lat="42.545732000" lon="-2.438557000">
        <ele>549.90</ele>
        <time>2016-10-15T06:18:45Z</time>
      </trkpt>
      <trkpt lat="42.545732000" lon="-2.438557000">
        <ele>549.90</ele>
        <time>2016-10-15T06:18:46Z</time>
      </trkpt>
      <trkpt lat="42.545731000" lon="-2.438557000">
        <ele>549.70</ele>
        <time>2016-10-15T06:18:47Z</time>
      </trkpt>
      <trkpt lat="42.545731000" lon="-2.438557000">
        <ele>549.60</ele>
        <time>2016-10-15T06:18:48Z</time>
      </trkpt>
      <trkpt lat="42.545731000" lon="-2.438557000">
        <ele>549.60</ele>
        <time>2016-10-15T06:18:49Z</time>
      </trkpt>
      <trkpt lat="42.545731000" lon="-2.438557000">
        <ele>549.60</ele>
        <time>2016-10-15T06:18:50Z</time>
      </trkpt>
      <trkpt lat="42.545731000" lon="-2.438557000">
        <ele>549.70</ele>
        <time>2016-10-15T06:18:51Z</time>
      </trkpt>
      <trkpt lat="42.545730000" lon="-2.438558000">
        <ele>549.70</ele>
        <time>2016-10-15T06:18:52Z</time>
      </trkpt>
      <trkpt lat="42.545729000" lon="-2.438559000">
        <ele>549.80</ele>
        <time>2016-10-15T06:18:53Z</time>
      </trkpt>
      <trkpt lat="42.545730000" lon="-2.438559000">
        <ele>549.80</ele>
        <time>2016-10-15T06:18:54Z</time>
      </trkpt>
      <trkpt lat="42.545740000" lon="-2.438564000">
        <ele>549.80</ele>
        <time>2016-10-15T06:18:55Z</time>
      </trkpt>
      <trkpt lat="42.545752000" lon="-2.438574000">
        <ele>549.80</ele>
        <time>2016-10-15T06:18:56Z</time>
      </trkpt>
      <trkpt lat="42.545767000" lon="-2.438587000">
        <ele>549.90</ele>
        <time>2016-10-15T06:18:57Z</time>
      </trkpt>
      <trkpt lat="42.545781000" lon="-2.438598000">
        <ele>549.90</ele>
        <time>2016-10-15T06:18:58Z</time>
      </trkpt>
      <trkpt lat="42.545791000" lon="-2.438612000">
        <ele>549.80</ele>
        <time>2016-10-15T06:18:59Z</time>
      </trkpt>
      <trkpt lat="42.545804000" lon="-2.438623000">
        <ele>549.80</ele>
        <time>2016-10-15T06:19:00Z</time>
      </trkpt>
      <trkpt lat="42.545817000" lon="-2.438633000">
        <ele>549.70</ele>
        <time>2016-10-15T06:19:01Z</time>
      </trkpt>
      <trkpt lat="42.545833000" lon="-2.438645000">
        <ele>549.70</ele>
        <time>2016-10-15T06:19:02Z</time>
      </trkpt>
      <trkpt lat="42.545870000" lon="-2.438662000">
        <ele>549.70</ele>
        <time>2016-10-15T06:19:04Z</time>
      </trkpt>
      <trkpt lat="42.545890000" lon="-2.438671000">
        <ele>549.70</ele>
        <time>2016-10-15T06:19:05Z</time>
      </trkpt>
      <trkpt lat="42.545912000" lon="-2.438680000">
        <ele>549.70</ele>
        <time>2016-10-15T06:19:06Z</time>
      </trkpt>
      <trkpt lat="42.545931000" lon="-2.438691000">
        <ele>549.80</ele>
        <time>2016-10-15T06:19:07Z</time>
      </trkpt>
      <trkpt lat="42.545952000" lon="-2.438699000">
        <ele>549.80</ele>
        <time>2016-10-15T06:19:08Z</time>
      </trkpt>
      <trkpt lat="42.545975000" lon="-2.438710000">
        <ele>549.90</ele>
        <time>2016-10-15T06:19:09Z</time>
      </trkpt>
      <trkpt lat="42.545996000" lon="-2.438722000">
        <ele>550.00</ele>
        <time>2016-10-15T06:19:10Z</time>
      </trkpt>
      <trkpt lat="42.546017000" lon="-2.438736000">
        <ele>550.20</ele>
        <time>2016-10-15T06:19:11Z</time>
      </trkpt>
      <trkpt lat="42.546040000" lon="-2.438747000">
        <ele>550.40</ele>
        <time>2016-10-15T06:19:12Z</time>
      </trkpt>
      <trkpt lat="42.546063000" lon="-2.438759000">
        <ele>550.50</ele>
        <time>2016-10-15T06:19:13Z</time>
      </trkpt>
      <trkpt lat="42.546084000" lon="-2.438776000">
        <ele>550.60</ele>
        <time>2016-10-15T06:19:14Z</time>
      </trkpt>
      <trkpt lat="42.546106000" lon="-2.438792000">
        <ele>550.70</ele>
        <time>2016-10-15T06:19:15Z</time>
      </trkpt>
      <trkpt lat="42.546129000" lon="-2.438806000">
        <ele>550.70</ele>
        <time>2016-10-15T06:19:16Z</time>
      </trkpt>
      <trkpt lat="42.546152000" lon="-2.438819000">
        <ele>550.60</ele>
        <time>2016-10-15T06:19:17Z</time>
      </trkpt>
      <trkpt lat="42.546175000" lon="-2.438832000">
        <ele>550.60</ele>
        <time>2016-10-15T06:19:18Z</time>
      </trkpt>
      <trkpt lat="42.546199000" lon="-2.438845000">
        <ele>550.50</ele>
        <time>2016-10-15T06:19:19Z</time>
      </trkpt>
      <trkpt lat="42.546222000" lon="-2.438857000">
        <ele>550.40</ele>
        <time>2016-10-15T06:19:20Z</time>
      </trkpt>
      <trkpt lat="42.546246000" lon="-2.438872000">
        <ele>550.30</ele>
        <time>2016-10-15T06:19:21Z</time>
      </trkpt>
      <trkpt lat="42.546270000" lon="-2.438887000">
        <ele>550.30</ele>
        <time>2016-10-15T06:19:22Z</time>
      </trkpt>
      <trkpt lat="42.546294000" lon="-2.438900000">
        <ele>550.40</ele>
        <time>2016-10-15T06:19:23Z</time>
      </trkpt>
      <trkpt lat="42.546317000" lon="-2.438911000">
        <ele>550.50</ele>
        <time>2016-10-15T06:19:24Z</time>
      </trkpt>
      <trkpt lat="42.546340000" lon="-2.438928000">
        <ele>550.50</ele>
        <time>2016-10-15T06:19:25Z</time>
      </trkpt>
      <trkpt lat="42.546363000" lon="-2.438944000">
        <ele>550.60</ele>
        <time>2016-10-15T06:19:26Z</time>
      </trkpt>
      <trkpt lat="42.546383000" lon="-2.438960000">
        <ele>550.60</ele>
        <time>2016-10-15T06:19:27Z</time>
      </trkpt>
      <trkpt lat="42.546406000" lon="-2.438976000">
        <ele>550.60</ele>
        <time>2016-10-15T06:19:28Z</time>
      </trkpt>
      <trkpt lat="42.546431000" lon="-2.438988000">
        <ele>550.80</ele>
        <time>2016-10-15T06:19:29Z</time>
      </trkpt>
      <trkpt lat="42.546459000" lon="-2.439001000">
        <ele>550.90</ele>
        <time>2016-10-15T06:19:30Z</time>
      </trkpt>
      <trkpt lat="42.546489000" lon="-2.439016000">
        <ele>551.00</ele>
        <time>2016-10-15T06:19:31Z</time>
      </trkpt>
      <trkpt lat="42.546529000" lon="-2.439036000">
        <ele>551.20</ele>
        <time>2016-10-15T06:19:32Z</time>
      </trkpt>
      <trkpt lat="42.546565000" lon="-2.439056000">
        <ele>551.30</ele>
        <time>2016-10-15T06:19:33Z</time>
      </trkpt>
      <trkpt lat="42.546599000" lon="-2.439075000">
        <ele>551.30</ele>
        <time>2016-10-15T06:19:34Z</time>
      </trkpt>
      <trkpt lat="42.546627000" lon="-2.439091000">
        <ele>551.40</ele>
        <time>2016-10-15T06:19:35Z</time>
      </trkpt>
      <trkpt lat="42.546656000" lon="-2.439107000">
        <ele>551.40</ele>
        <time>2016-10-15T06:19:36Z</time>
      </trkpt>
      <trkpt lat="42.546683000" lon="-2.439122000">
        <ele>551.90</ele>
        <time>2016-10-15T06:19:37Z</time>
      </trkpt>
      <trkpt lat="42.546710000" lon="-2.439137000">
        <ele>552.20</ele>
        <time>2016-10-15T06:19:38Z</time>
      </trkpt>
      <trkpt lat="42.546735000" lon="-2.439154000">
        <ele>552.40</ele>
        <time>2016-10-15T06:19:39Z</time>
      </trkpt>
      <trkpt lat="42.546758000" lon="-2.439171000">
        <ele>552.60</ele>
        <time>2016-10-15T06:19:40Z</time>
      </trkpt>
      <trkpt lat="42.546783000" lon="-2.439187000">
        <ele>552.70</ele>
        <time>2016-10-15T06:19:41Z</time>
      </trkpt>
      <trkpt lat="42.546808000" lon="-2.439205000">
        <ele>552.80</ele>
        <time>2016-10-15T06:19:42Z</time>
      </trkpt>
      <trkpt lat="42.546832000" lon="-2.439221000">
        <ele>553.00</ele>
        <time>2016-10-15T06:19:43Z</time>
      </trkpt>
      <trkpt lat="42.546855000" lon="-2.439239000">
        <ele>553.10</ele>
        <time>2016-10-15T06:19:44Z</time>
      </trkpt>
      <trkpt lat="42.546879000" lon="-2.439260000">
        <ele>553.40</ele>
        <time>2016-10-15T06:19:45Z</time>
      </trkpt>
      <trkpt lat="42.546905000" lon="-2.439279000">
        <ele>553.60</ele>
        <time>2016-10-15T06:19:46Z</time>
      </trkpt>
      <trkpt lat="42.546930000" lon="-2.439300000">
        <ele>553.60</ele>
        <time>2016-10-15T06:19:47Z</time>
      </trkpt>
      <trkpt lat="42.546953000" lon="-2.439323000">
        <ele>553.50</ele>
        <time>2016-10-15T06:19:48Z</time>
      </trkpt>
      <trkpt lat="42.546977000" lon="-2.439346000">
        <ele>553.70</ele>
        <time>2016-10-15T06:19:49Z</time>
      </trkpt>
      <trkpt lat="42.547001000" lon="-2.439368000">
        <ele>553.90</ele>
        <time>2016-10-15T06:19:50Z</time>
      </trkpt>
      <trkpt lat="42.547023000" lon="-2.439394000">
        <ele>554.20</ele>
        <time>2016-10-15T06:19:51Z</time>
      </trkpt>
      <trkpt lat="42.547041000" lon="-2.439422000">
        <ele>554.40</ele>
        <time>2016-10-15T06:19:52Z</time>
      </trkpt>
      <trkpt lat="42.547060000" lon="-2.439452000">
        <ele>554.60</ele>
        <time>2016-10-15T06:19:53Z</time>
      </trkpt>
      <trkpt lat="42.547078000" lon="-2.439480000">
        <ele>554.80</ele>
        <time>2016-10-15T06:19:54Z</time>
      </trkpt>
      <trkpt lat="42.547093000" lon="-2.439512000">
        <ele>555.10</ele>
        <time>2016-10-15T06:19:55Z</time>
      </trkpt>
      <trkpt lat="42.547109000" lon="-2.439541000">
        <ele>555.30</ele>
        <time>2016-10-15T06:19:56Z</time>
      </trkpt>
      <trkpt lat="42.547121000" lon="-2.439570000">
        <ele>555.60</ele>
        <time>2016-10-15T06:19:57Z</time>
      </trkpt>
      <trkpt lat="42.547131000" lon="-2.439600000">
        <ele>555.90</ele>
        <time>2016-10-15T06:19:58Z</time>
      </trkpt>
      <trkpt lat="42.547145000" lon="-2.439629000">
        <ele>556.10</ele>
        <time>2016-10-15T06:19:59Z</time>
      </trkpt>
      <trkpt lat="42.547154000" lon="-2.439661000">
        <ele>556.30</ele>
        <time>2016-10-15T06:20:00Z</time>
      </trkpt>
      <trkpt lat="42.547164000" lon="-2.439693000">
        <ele>556.40</ele>
        <time>2016-10-15T06:20:01Z</time>
      </trkpt>
      <trkpt lat="42.547174000" lon="-2.439723000">
        <ele>556.50</ele>
        <time>2016-10-15T06:20:02Z</time>
      </trkpt>
      <trkpt lat="42.547186000" lon="-2.439752000">
        <ele>556.90</ele>
        <time>2016-10-15T06:20:03Z</time>
      </trkpt>
      <trkpt lat="42.547208000" lon="-2.439819000">
        <ele>557.40</ele>
        <time>2016-10-15T06:20:05Z</time>
      </trkpt>
      <trkpt lat="42.547223000" lon="-2.439849000">
        <ele>557.60</ele>
        <time>2016-10-15T06:20:06Z</time>
      </trkpt>
      <trkpt lat="42.547239000" lon="-2.439877000">
        <ele>557.90</ele>
        <time>2016-10-15T06:20:07Z</time>
      </trkpt>
      <trkpt lat="42.547257000" lon="-2.439907000">
        <ele>558.10</ele>
        <time>2016-10-15T06:20:08Z</time>
      </trkpt>
      <trkpt lat="42.547274000" lon="-2.439935000">
        <ele>558.30</ele>
        <time>2016-10-15T06:20:09Z</time>
      </trkpt>
      <trkpt lat="42.547291000" lon="-2.439964000">
        <ele>558.50</ele>
        <time>2016-10-15T06:20:10Z</time>
      </trkpt>
      <trkpt lat="42.547312000" lon="-2.439992000">
        <ele>558.80</ele>
        <time>2016-10-15T06:20:11Z</time>
      </trkpt>
      <trkpt lat="42.547333000" lon="-2.440018000">
        <ele>559.10</ele>
        <time>2016-10-15T06:20:12Z</time>
      </trkpt>
      <trkpt lat="42.547355000" lon="-2.440039000">
        <ele>559.30</ele>
        <time>2016-10-15T06:20:13Z</time>
      </trkpt>
      <trkpt lat="42.547376000" lon="-2.440061000">
        <ele>559.50</ele>
        <time>2016-10-15T06:20:14Z</time>
      </trkpt>
      <trkpt lat="42.547399000" lon="-2.440082000">
        <ele>559.60</ele>
        <time>2016-10-15T06:20:15Z</time>
      </trkpt>
      <trkpt lat="42.547421000" lon="-2.440102000">
        <ele>559.80</ele>
        <time>2016-10-15T06:20:16Z</time>
      </trkpt>
      <trkpt lat="42.547444000" lon="-2.440120000">
        <ele>560.10</ele>
        <time>2016-10-15T06:20:17Z</time>
      </trkpt>
      <trkpt lat="42.547464000" lon="-2.440137000">
        <ele>560.30</ele>
        <time>2016-10-15T06:20:18Z</time>
      </trkpt>
      <trkpt lat="42.547484000" lon="-2.440151000">
        <ele>560.50</ele>
        <time>2016-10-15T06:20:19Z</time>
      </trkpt>
      <trkpt lat="42.547507000" lon="-2.440164000">
        <ele>560.60</ele>
        <time>2016-10-15T06:20:20Z</time>
      </trkpt>
      <trkpt lat="42.547529000" lon="-2.440180000">
        <ele>560.70</ele>
        <time>2016-10-15T06:20:21Z</time>
      </trkpt>
      <trkpt lat="42.547552000" lon="-2.440194000">
        <ele>560.80</ele>
        <time>2016-10-15T06:20:22Z</time>
      </trkpt>
      <trkpt lat="42.547575000" lon="-2.440211000">
        <ele>560.90</ele>
        <time>2016-10-15T06:20:23Z</time>
      </trkpt>
      <trkpt lat="42.547598000" lon="-2.440229000">
        <ele>561.00</ele>
        <time>2016-10-15T06:20:24Z</time>
      </trkpt>
      <trkpt lat="42.547622000" lon="-2.440248000">
        <ele>561.10</ele>
        <time>2016-10-15T06:20:25Z</time>
      </trkpt>
      <trkpt lat="42.547647000" lon="-2.440263000">
        <ele>561.20</ele>
        <time>2016-10-15T06:20:26Z</time>
      </trkpt>
      <trkpt lat="42.547671000" lon="-2.440278000">
        <ele>561.20</ele>
        <time>2016-10-15T06:20:27Z</time>
      </trkpt>
      <trkpt lat="42.547696000" lon="-2.440294000">
        <ele>561.20</ele>
        <time>2016-10-15T06:20:28Z</time>
      </trkpt>
      <trkpt lat="42.547722000" lon="-2.440308000">
        <ele>561.30</ele>
        <time>2016-10-15T06:20:29Z</time>
      </trkpt>
      <trkpt lat="42.547747000" lon="-2.440324000">
        <ele>561.40</ele>
        <time>2016-10-15T06:20:30Z</time>
      </trkpt>
      <trkpt lat="42.547770000" lon="-2.440341000">
        <ele>561.40</ele>
        <time>2016-10-15T06:20:31Z</time>
      </trkpt>
      <trkpt lat="42.547793000" lon="-2.440357000">
        <ele>561.50</ele>
        <time>2016-10-15T06:20:32Z</time>
      </trkpt>
      <trkpt lat="42.547817000" lon="-2.440375000">
        <ele>561.70</ele>
        <time>2016-10-15T06:20:33Z</time>
      </trkpt>
      <trkpt lat="42.547843000" lon="-2.440394000">
        <ele>561.80</ele>
        <time>2016-10-15T06:20:34Z</time>
      </trkpt>
      <trkpt lat="42.547866000" lon="-2.440410000">
        <ele>561.90</ele>
        <time>2016-10-15T06:20:35Z</time>
      </trkpt>
      <trkpt lat="42.547892000" lon="-2.440429000">
        <ele>562.00</ele>
        <time>2016-10-15T06:20:36Z</time>
      </trkpt>
      <trkpt lat="42.547919000" lon="-2.440445000">
        <ele>562.20</ele>
        <time>2016-10-15T06:20:37Z</time>
      </trkpt>
      <trkpt lat="42.547944000" lon="-2.440460000">
        <ele>562.40</ele>
        <time>2016-10-15T06:20:38Z</time>
      </trkpt>
      <trkpt lat="42.547969000" lon="-2.440475000">
        <ele>562.80</ele>
        <time>2016-10-15T06:20:39Z</time>
      </trkpt>
      <trkpt lat="42.547996000" lon="-2.440494000">
        <ele>563.00</ele>
        <time>2016-10-15T06:20:40Z</time>
      </trkpt>
      <trkpt lat="42.548021000" lon="-2.440512000">
        <ele>563.20</ele>
        <time>2016-10-15T06:20:41Z</time>
      </trkpt>
      <trkpt lat="42.548045000" lon="-2.440527000">
        <ele>563.40</ele>
        <time>2016-10-15T06:20:42Z</time>
      </trkpt>
      <trkpt lat="42.548071000" lon="-2.440543000">
        <ele>563.50</ele>
        <time>2016-10-15T06:20:43Z</time>
      </trkpt>
      <trkpt lat="42.548096000" lon="-2.440559000">
        <ele>563.60</ele>
        <time>2016-10-15T06:20:44Z</time>
      </trkpt>
      <trkpt lat="42.548121000" lon="-2.440574000">
        <ele>563.70</ele>
        <time>2016-10-15T06:20:45Z</time>
      </trkpt>
      <trkpt lat="42.548147000" lon="-2.440589000">
        <ele>563.80</ele>
        <time>2016-10-15T06:20:46Z</time>
      </trkpt>
      <trkpt lat="42.548173000" lon="-2.440606000">
        <ele>563.90</ele>
        <time>2016-10-15T06:20:47Z</time>
      </trkpt>
      <trkpt lat="42.548198000" lon="-2.440629000">
        <ele>564.00</ele>
        <time>2016-10-15T06:20:48Z</time>
      </trkpt>
      <trkpt lat="42.548222000" lon="-2.440650000">
        <ele>564.20</ele>
        <time>2016-10-15T06:20:49Z</time>
      </trkpt>
      <trkpt lat="42.548246000" lon="-2.440671000">
        <ele>564.30</ele>
        <time>2016-10-15T06:20:50Z</time>
      </trkpt>
      <trkpt lat="42.548269000" lon="-2.440696000">
        <ele>564.40</ele>
        <time>2016-10-15T06:20:51Z</time>
      </trkpt>
      <trkpt lat="42.548292000" lon="-2.440716000">
        <ele>564.50</ele>
        <time>2016-10-15T06:20:52Z</time>
      </trkpt>
      <trkpt lat="42.548313000" lon="-2.440742000">
        <ele>564.60</ele>
        <time>2016-10-15T06:20:53Z</time>
      </trkpt>
      <trkpt lat="42.548331000" lon="-2.440764000">
        <ele>564.70</ele>
        <time>2016-10-15T06:20:54Z</time>
      </trkpt>
      <trkpt lat="42.548352000" lon="-2.440788000">
        <ele>564.80</ele>
        <time>2016-10-15T06:20:55Z</time>
      </trkpt>
      <trkpt lat="42.548372000" lon="-2.440813000">
        <ele>564.90</ele>
        <time>2016-10-15T06:20:56Z</time>
      </trkpt>
      <trkpt lat="42.548391000" lon="-2.440838000">
        <ele>565.00</ele>
        <time>2016-10-15T06:20:57Z</time>
      </trkpt>
      <trkpt lat="42.548409000" lon="-2.440861000">
        <ele>565.20</ele>
        <time>2016-10-15T06:20:58Z</time>
      </trkpt>
      <trkpt lat="42.548424000" lon="-2.440883000">
        <ele>565.20</ele>
        <time>2016-10-15T06:20:59Z</time>
      </trkpt>
      <trkpt lat="42.548434000" lon="-2.440902000">
        <ele>565.20</ele>
        <time>2016-10-15T06:21:00Z</time>
      </trkpt>
      <trkpt lat="42.548444000" lon="-2.440919000">
        <ele>565.30</ele>
        <time>2016-10-15T06:21:01Z</time>
      </trkpt>
      <trkpt lat="42.548456000" lon="-2.440941000">
        <ele>565.40</ele>
        <time>2016-10-15T06:21:02Z</time>
      </trkpt>
      <trkpt lat="42.548472000" lon="-2.440964000">
        <ele>565.50</ele>
        <time>2016-10-15T06:21:03Z</time>
      </trkpt>
      <trkpt lat="42.548488000" lon="-2.440992000">
        <ele>565.60</ele>
        <time>2016-10-15T06:21:04Z</time>
      </trkpt>
      <trkpt lat="42.548515000" lon="-2.441044000">
        <ele>566.10</ele>
        <time>2016-10-15T06:21:06Z</time>
      </trkpt>
      <trkpt lat="42.548530000" lon="-2.441072000">
        <ele>566.30</ele>
        <time>2016-10-15T06:21:07Z</time>
      </trkpt>
      <trkpt lat="42.548545000" lon="-2.441097000">
        <ele>566.50</ele>
        <time>2016-10-15T06:21:08Z</time>
      </trkpt>
      <trkpt lat="42.548561000" lon="-2.441121000">
        <ele>566.50</ele>
        <time>2016-10-15T06:21:09Z</time>
      </trkpt>
      <trkpt lat="42.548575000" lon="-2.441143000">
        <ele>566.60</ele>
        <time>2016-10-15T06:21:10Z</time>
      </trkpt>
      <trkpt lat="42.548588000" lon="-2.441170000">
        <ele>566.60</ele>
        <time>2016-10-15T06:21:11Z</time>
      </trkpt>
      <trkpt lat="42.548602000" lon="-2.441195000">
        <ele>566.60</ele>
        <time>2016-10-15T06:21:12Z</time>
      </trkpt>
      <trkpt lat="42.548616000" lon="-2.441221000">
        <ele>566.70</ele>
        <time>2016-10-15T06:21:13Z</time>
      </trkpt>
      <trkpt lat="42.548630000" lon="-2.441243000">
        <ele>566.80</ele>
        <time>2016-10-15T06:21:14Z</time>
      </trkpt>
      <trkpt lat="42.548647000" lon="-2.441263000">
        <ele>567.00</ele>
        <time>2016-10-15T06:21:15Z</time>
      </trkpt>
      <trkpt lat="42.548664000" lon="-2.441285000">
        <ele>567.20</ele>
        <time>2016-10-15T06:21:16Z</time>
      </trkpt>
      <trkpt lat="42.548680000" lon="-2.441310000">
        <ele>567.30</ele>
        <time>2016-10-15T06:21:17Z</time>
      </trkpt>
      <trkpt lat="42.548695000" lon="-2.441336000">
        <ele>567.40</ele>
        <time>2016-10-15T06:21:18Z</time>
      </trkpt>
      <trkpt lat="42.548709000" lon="-2.441362000">
        <ele>567.50</ele>
        <time>2016-10-15T06:21:19Z</time>
      </trkpt>
      <trkpt lat="42.548724000" lon="-2.441387000">
        <ele>567.60</ele>
        <time>2016-10-15T06:21:20Z</time>
      </trkpt>
      <trkpt lat="42.548738000" lon="-2.441413000">
        <ele>567.90</ele>
        <time>2016-10-15T06:21:21Z</time>
      </trkpt>
      <trkpt lat="42.548751000" lon="-2.441441000">
        <ele>568.20</ele>
        <time>2016-10-15T06:21:22Z</time>
      </trkpt>
      <trkpt lat="42.548770000" lon="-2.441464000">
        <ele>568.40</ele>
        <time>2016-10-15T06:21:23Z</time>
      </trkpt>
      <trkpt lat="42.548785000" lon="-2.441487000">
        <ele>568.60</ele>
        <time>2016-10-15T06:21:24Z</time>
      </trkpt>
      <trkpt lat="42.548800000" lon="-2.441509000">
        <ele>568.60</ele>
        <time>2016-10-15T06:21:25Z</time>
      </trkpt>
      <trkpt lat="42.548815000" lon="-2.441532000">
        <ele>568.60</ele>
        <time>2016-10-15T06:21:26Z</time>
      </trkpt>
      <trkpt lat="42.548833000" lon="-2.441558000">
        <ele>568.60</ele>
        <time>2016-10-15T06:21:27Z</time>
      </trkpt>
      <trkpt lat="42.548848000" lon="-2.441580000">
        <ele>568.60</ele>
        <time>2016-10-15T06:21:28Z</time>
      </trkpt>
      <trkpt lat="42.548862000" lon="-2.441605000">
        <ele>568.80</ele>
        <time>2016-10-15T06:21:29Z</time>
      </trkpt>
      <trkpt lat="42.548880000" lon="-2.441629000">
        <ele>569.00</ele>
        <time>2016-10-15T06:21:30Z</time>
      </trkpt>
      <trkpt lat="42.548897000" lon="-2.441652000">
        <ele>569.20</ele>
        <time>2016-10-15T06:21:31Z</time>
      </trkpt>
      <trkpt lat="42.548917000" lon="-2.441675000">
        <ele>569.30</ele>
        <time>2016-10-15T06:21:32Z</time>
      </trkpt>
      <trkpt lat="42.548934000" lon="-2.441696000">
        <ele>569.30</ele>
        <time>2016-10-15T06:21:33Z</time>
      </trkpt>
      <trkpt lat="42.548949000" lon="-2.441716000">
        <ele>569.30</ele>
        <time>2016-10-15T06:21:34Z</time>
      </trkpt>
      <trkpt lat="42.548965000" lon="-2.441732000">
        <ele>569.30</ele>
        <time>2016-10-15T06:21:35Z</time>
      </trkpt>
      <trkpt lat="42.548981000" lon="-2.441750000">
        <ele>569.30</ele>
        <time>2016-10-15T06:21:36Z</time>
      </trkpt>
      <trkpt lat="42.548995000" lon="-2.441763000">
        <ele>569.50</ele>
        <time>2016-10-15T06:21:37Z</time>
      </trkpt>
      <trkpt lat="42.549012000" lon="-2.441772000">
        <ele>569.70</ele>
        <time>2016-10-15T06:21:38Z</time>
      </trkpt>
      <trkpt lat="42.549028000" lon="-2.441781000">
        <ele>569.80</ele>
        <time>2016-10-15T06:21:39Z</time>
      </trkpt>
      <trkpt lat="42.549045000" lon="-2.441790000">
        <ele>569.90</ele>
        <time>2016-10-15T06:21:40Z</time>
      </trkpt>
      <trkpt lat="42.549065000" lon="-2.441799000">
        <ele>569.90</ele>
        <time>2016-10-15T06:21:41Z</time>
      </trkpt>
      <trkpt lat="42.549085000" lon="-2.441811000">
        <ele>570.00</ele>
        <time>2016-10-15T06:21:42Z</time>
      </trkpt>
      <trkpt lat="42.549104000" lon="-2.441820000">
        <ele>570.00</ele>
        <time>2016-10-15T06:21:43Z</time>
      </trkpt>
      <trkpt lat="42.549124000" lon="-2.441827000">
        <ele>570.00</ele>
        <time>2016-10-15T06:21:44Z</time>
      </trkpt>
      <trkpt lat="42.549144000" lon="-2.441831000">
        <ele>570.20</ele>
        <time>2016-10-15T06:21:45Z</time>
      </trkpt>
      <trkpt lat="42.549165000" lon="-2.441837000">
        <ele>570.30</ele>
        <time>2016-10-15T06:21:46Z</time>
      </trkpt>
      <trkpt lat="42.549188000" lon="-2.441841000">
        <ele>570.50</ele>
        <time>2016-10-15T06:21:47Z</time>
      </trkpt>
      <trkpt lat="42.549211000" lon="-2.441845000">
        <ele>570.60</ele>
        <time>2016-10-15T06:21:48Z</time>
      </trkpt>
      <trkpt lat="42.549238000" lon="-2.441844000">
        <ele>570.80</ele>
        <time>2016-10-15T06:21:49Z</time>
      </trkpt>
      <trkpt lat="42.549267000" lon="-2.441845000">
        <ele>571.00</ele>
        <time>2016-10-15T06:21:50Z</time>
      </trkpt>
      <trkpt lat="42.549296000" lon="-2.441845000">
        <ele>571.10</ele>
        <time>2016-10-15T06:21:51Z</time>
      </trkpt>
      <trkpt lat="42.549324000" lon="-2.441840000">
        <ele>571.30</ele>
        <time>2016-10-15T06:21:52Z</time>
      </trkpt>
      <trkpt lat="42.549349000" lon="-2.441835000">
        <ele>571.50</ele>
        <time>2016-10-15T06:21:53Z</time>
      </trkpt>
      <trkpt lat="42.549376000" lon="-2.441825000">
        <ele>571.70</ele>
        <time>2016-10-15T06:21:54Z</time>
      </trkpt>
      <trkpt lat="42.549399000" lon="-2.441820000">
        <ele>572.00</ele>
        <time>2016-10-15T06:21:55Z</time>
      </trkpt>
      <trkpt lat="42.549421000" lon="-2.441817000">
        <ele>572.30</ele>
        <time>2016-10-15T06:21:56Z</time>
      </trkpt>
      <trkpt lat="42.549444000" lon="-2.441811000">
        <ele>572.60</ele>
        <time>2016-10-15T06:21:57Z</time>
      </trkpt>
      <trkpt lat="42.549466000" lon="-2.441804000">
        <ele>572.80</ele>
        <time>2016-10-15T06:21:58Z</time>
      </trkpt>
      <trkpt lat="42.549485000" lon="-2.441800000">
        <ele>573.10</ele>
        <time>2016-10-15T06:21:59Z</time>
      </trkpt>
      <trkpt lat="42.549508000" lon="-2.441793000">
        <ele>573.30</ele>
        <time>2016-10-15T06:22:00Z</time>
      </trkpt>
      <trkpt lat="42.549530000" lon="-2.441787000">
        <ele>573.50</ele>
        <time>2016-10-15T06:22:01Z</time>
      </trkpt>
      <trkpt lat="42.549552000" lon="-2.441782000">
        <ele>573.60</ele>
        <time>2016-10-15T06:22:02Z</time>
      </trkpt>
      <trkpt lat="42.549571000" lon="-2.441774000">
        <ele>573.70</ele>
        <time>2016-10-15T06:22:03Z</time>
      </trkpt>
      <trkpt lat="42.549591000" lon="-2.441765000">
        <ele>573.80</ele>
        <time>2016-10-15T06:22:04Z</time>
      </trkpt>
      <trkpt lat="42.549613000" lon="-2.441757000">
        <ele>574.00</ele>
        <time>2016-10-15T06:22:05Z</time>
      </trkpt>
      <trkpt lat="42.549654000" lon="-2.441743000">
        <ele>574.30</ele>
        <time>2016-10-15T06:22:07Z</time>
      </trkpt>
      <trkpt lat="42.549672000" lon="-2.441732000">
        <ele>574.50</ele>
        <time>2016-10-15T06:22:08Z</time>
      </trkpt>
      <trkpt lat="42.549693000" lon="-2.441722000">
        <ele>574.80</ele>
        <time>2016-10-15T06:22:09Z</time>
      </trkpt>
      <trkpt lat="42.549714000" lon="-2.441715000">
        <ele>575.00</ele>
        <time>2016-10-15T06:22:10Z</time>
      </trkpt>
      <trkpt lat="42.549737000" lon="-2.441707000">
        <ele>575.40</ele>
        <time>2016-10-15T06:22:11Z</time>
      </trkpt>
      <trkpt lat="42.549757000" lon="-2.441699000">
        <ele>575.70</ele>
        <time>2016-10-15T06:22:12Z</time>
      </trkpt>
      <trkpt lat="42.549778000" lon="-2.441689000">
        <ele>576.00</ele>
        <time>2016-10-15T06:22:13Z</time>
      </trkpt>
      <trkpt lat="42.549800000" lon="-2.441679000">
        <ele>576.10</ele>
        <time>2016-10-15T06:22:14Z</time>
      </trkpt>
      <trkpt lat="42.549822000" lon="-2.441668000">
        <ele>576.30</ele>
        <time>2016-10-15T06:22:15Z</time>
      </trkpt>
      <trkpt lat="42.549842000" lon="-2.441659000">
        <ele>576.50</ele>
        <time>2016-10-15T06:22:16Z</time>
      </trkpt>
      <trkpt lat="42.549864000" lon="-2.441653000">
        <ele>576.60</ele>
        <time>2016-10-15T06:22:17Z</time>
      </trkpt>
      <trkpt lat="42.549888000" lon="-2.441645000">
        <ele>576.70</ele>
        <time>2016-10-15T06:22:18Z</time>
      </trkpt>
      <trkpt lat="42.549911000" lon="-2.441640000">
        <ele>576.80</ele>
        <time>2016-10-15T06:22:19Z</time>
      </trkpt>
      <trkpt lat="42.549934000" lon="-2.441633000">
        <ele>576.90</ele>
        <time>2016-10-15T06:22:20Z</time>
      </trkpt>
      <trkpt lat="42.549956000" lon="-2.441624000">
        <ele>577.10</ele>
        <time>2016-10-15T06:22:21Z</time>
      </trkpt>
      <trkpt lat="42.549976000" lon="-2.441617000">
        <ele>577.20</ele>
        <time>2016-10-15T06:22:22Z</time>
      </trkpt>
      <trkpt lat="42.549996000" lon="-2.441609000">
        <ele>577.50</ele>
        <time>2016-10-15T06:22:23Z</time>
      </trkpt>
      <trkpt lat="42.550016000" lon="-2.441602000">
        <ele>577.70</ele>
        <time>2016-10-15T06:22:24Z</time>
      </trkpt>
      <trkpt lat="42.550036000" lon="-2.441593000">
        <ele>577.80</ele>
        <time>2016-10-15T06:22:25Z</time>
      </trkpt>
      <trkpt lat="42.550056000" lon="-2.441584000">
        <ele>577.90</ele>
        <time>2016-10-15T06:22:26Z</time>
      </trkpt>
      <trkpt lat="42.550076000" lon="-2.441577000">
        <ele>578.30</ele>
        <time>2016-10-15T06:22:27Z</time>
      </trkpt>
      <trkpt lat="42.550099000" lon="-2.441571000">
        <ele>578.60</ele>
        <time>2016-10-15T06:22:28Z</time>
      </trkpt>
      <trkpt lat="42.550119000" lon="-2.441560000">
        <ele>578.90</ele>
        <time>2016-10-15T06:22:29Z</time>
      </trkpt>
      <trkpt lat="42.550140000" lon="-2.441549000">
        <ele>579.00</ele>
        <time>2016-10-15T06:22:30Z</time>
      </trkpt>
      <trkpt lat="42.550161000" lon="-2.441539000">
        <ele>579.20</ele>
        <time>2016-10-15T06:22:31Z</time>
      </trkpt>
      <trkpt lat="42.550182000" lon="-2.441532000">
        <ele>579.30</ele>
        <time>2016-10-15T06:22:32Z</time>
      </trkpt>
      <trkpt lat="42.550202000" lon="-2.441521000">
        <ele>579.30</ele>
        <time>2016-10-15T06:22:33Z</time>
      </trkpt>
      <trkpt lat="42.550224000" lon="-2.441512000">
        <ele>579.40</ele>
        <time>2016-10-15T06:22:34Z</time>
      </trkpt>
      <trkpt lat="42.550243000" lon="-2.441504000">
        <ele>579.70</ele>
        <time>2016-10-15T06:22:35Z</time>
      </trkpt>
      <trkpt lat="42.550267000" lon="-2.441497000">
        <ele>579.90</ele>
        <time>2016-10-15T06:22:36Z</time>
      </trkpt>
      <trkpt lat="42.550290000" lon="-2.441489000">
        <ele>580.10</ele>
        <time>2016-10-15T06:22:37Z</time>
      </trkpt>
      <trkpt lat="42.550313000" lon="-2.441484000">
        <ele>580.20</ele>
        <time>2016-10-15T06:22:38Z</time>
      </trkpt>
      <trkpt lat="42.550335000" lon="-2.441477000">
        <ele>580.30</ele>
        <time>2016-10-15T06:22:39Z</time>
      </trkpt>
      <trkpt lat="42.550357000" lon="-2.441469000">
        <ele>580.40</ele>
        <time>2016-10-15T06:22:40Z</time>
      </trkpt>
      <trkpt lat="42.550382000" lon="-2.441462000">
        <ele>580.60</ele>
        <time>2016-10-15T06:22:41Z</time>
      </trkpt>
      <trkpt lat="42.550408000" lon="-2.441460000">
        <ele>580.80</ele>
        <time>2016-10-15T06:22:42Z</time>
      </trkpt>
      <trkpt lat="42.550432000" lon="-2.441454000">
        <ele>581.10</ele>
        <time>2016-10-15T06:22:43Z</time>
      </trkpt>
      <trkpt lat="42.550458000" lon="-2.441453000">
        <ele>581.30</ele>
        <time>2016-10-15T06:22:44Z</time>
      </trkpt>
      <trkpt lat="42.550484000" lon="-2.441451000">
        <ele>581.60</ele>
        <time>2016-10-15T06:22:45Z</time>
      </trkpt>
      <trkpt lat="42.550511000" lon="-2.441449000">
        <ele>581.90</ele>
        <time>2016-10-15T06:22:46Z</time>
      </trkpt>
      <trkpt lat="42.550534000" lon="-2.441452000">
        <ele>582.10</ele>
        <time>2016-10-15T06:22:47Z</time>
      </trkpt>
      <trkpt lat="42.550560000" lon="-2.441452000">
        <ele>582.30</ele>
        <time>2016-10-15T06:22:48Z</time>
      </trkpt>
      <trkpt lat="42.550588000" lon="-2.441453000">
        <ele>582.50</ele>
        <time>2016-10-15T06:22:49Z</time>
      </trkpt>
      <trkpt lat="42.550615000" lon="-2.441461000">
        <ele>582.70</ele>
        <time>2016-10-15T06:22:50Z</time>
      </trkpt>
      <trkpt lat="42.550641000" lon="-2.441466000">
        <ele>582.80</ele>
        <time>2016-10-15T06:22:51Z</time>
      </trkpt>
      <trkpt lat="42.550668000" lon="-2.441471000">
        <ele>582.90</ele>
        <time>2016-10-15T06:22:52Z</time>
      </trkpt>
      <trkpt lat="42.550694000" lon="-2.441475000">
        <ele>582.90</ele>
        <time>2016-10-15T06:22:53Z</time>
      </trkpt>
      <trkpt lat="42.550721000" lon="-2.441482000">
        <ele>582.90</ele>
        <time>2016-10-15T06:22:54Z</time>
      </trkpt>
      <trkpt lat="42.550745000" lon="-2.441490000">
        <ele>582.90</ele>
        <time>2016-10-15T06:22:55Z</time>
      </trkpt>
      <trkpt lat="42.550769000" lon="-2.441500000">
        <ele>582.90</ele>
        <time>2016-10-15T06:22:56Z</time>
      </trkpt>
      <trkpt lat="42.550791000" lon="-2.441509000">
        <ele>583.10</ele>
        <time>2016-10-15T06:22:57Z</time>
      </trkpt>
      <trkpt lat="42.550813000" lon="-2.441522000">
        <ele>583.20</ele>
        <time>2016-10-15T06:22:58Z</time>
      </trkpt>
      <trkpt lat="42.550839000" lon="-2.441534000">
        <ele>583.40</ele>
        <time>2016-10-15T06:22:59Z</time>
      </trkpt>
      <trkpt lat="42.550864000" lon="-2.441544000">
        <ele>583.40</ele>
        <time>2016-10-15T06:23:00Z</time>
      </trkpt>
      <trkpt lat="42.550889000" lon="-2.441557000">
        <ele>583.40</ele>
        <time>2016-10-15T06:23:01Z</time>
      </trkpt>
      <trkpt lat="42.550910000" lon="-2.441571000">
        <ele>583.40</ele>
        <time>2016-10-15T06:23:02Z</time>
      </trkpt>
      <trkpt lat="42.550933000" lon="-2.441587000">
        <ele>583.40</ele>
        <time>2016-10-15T06:23:03Z</time>
      </trkpt>
      <trkpt lat="42.550956000" lon="-2.441601000">
        <ele>583.40</ele>
        <time>2016-10-15T06:23:04Z</time>
      </trkpt>
      <trkpt lat="42.550978000" lon="-2.441618000">
        <ele>583.50</ele>
        <time>2016-10-15T06:23:05Z</time>
      </trkpt>
      <trkpt lat="42.551001000" lon="-2.441635000">
        <ele>583.50</ele>
        <time>2016-10-15T06:23:06Z</time>
      </trkpt>
      <trkpt lat="42.551047000" lon="-2.441669000">
        <ele>583.70</ele>
        <time>2016-10-15T06:23:08Z</time>
      </trkpt>
      <trkpt lat="42.551071000" lon="-2.441686000">
        <ele>583.80</ele>
        <time>2016-10-15T06:23:09Z</time>
      </trkpt>
      <trkpt lat="42.551093000" lon="-2.441708000">
        <ele>583.80</ele>
        <time>2016-10-15T06:23:10Z</time>
      </trkpt>
      <trkpt lat="42.551117000" lon="-2.441726000">
        <ele>583.90</ele>
        <time>2016-10-15T06:23:11Z</time>
      </trkpt>
      <trkpt lat="42.551142000" lon="-2.441746000">
        <ele>583.90</ele>
        <time>2016-10-15T06:23:12Z</time>
      </trkpt>
      <trkpt lat="42.551164000" lon="-2.441765000">
        <ele>584.00</ele>
        <time>2016-10-15T06:23:13Z</time>
      </trkpt>
      <trkpt lat="42.551187000" lon="-2.441783000">
        <ele>584.00</ele>
        <time>2016-10-15T06:23:14Z</time>
      </trkpt>
      <trkpt lat="42.551210000" lon="-2.441803000">
        <ele>584.10</ele>
        <time>2016-10-15T06:23:15Z</time>
      </trkpt>
      <trkpt lat="42.551233000" lon="-2.441825000">
        <ele>584.20</ele>
        <time>2016-10-15T06:23:16Z</time>
      </trkpt>
      <trkpt lat="42.551256000" lon="-2.441845000">
        <ele>584.40</ele>
        <time>2016-10-15T06:23:17Z</time>
      </trkpt>
      <trkpt lat="42.551279000" lon="-2.441864000">
        <ele>584.50</ele>
        <time>2016-10-15T06:23:18Z</time>
      </trkpt>
      <trkpt lat="42.551302000" lon="-2.441884000">
        <ele>584.60</ele>
        <time>2016-10-15T06:23:19Z</time>
      </trkpt>
      <trkpt lat="42.551323000" lon="-2.441900000">
        <ele>584.70</ele>
        <time>2016-10-15T06:23:20Z</time>
      </trkpt>
      <trkpt lat="42.551347000" lon="-2.441922000">
        <ele>584.80</ele>
        <time>2016-10-15T06:23:21Z</time>
      </trkpt>
      <trkpt lat="42.551371000" lon="-2.441942000">
        <ele>584.90</ele>
        <time>2016-10-15T06:23:22Z</time>
      </trkpt>
      <trkpt lat="42.551395000" lon="-2.441959000">
        <ele>585.10</ele>
        <time>2016-10-15T06:23:23Z</time>
      </trkpt>
      <trkpt lat="42.551417000" lon="-2.441978000">
        <ele>585.20</ele>
        <time>2016-10-15T06:23:24Z</time>
      </trkpt>
      <trkpt lat="42.551435000" lon="-2.441995000">
        <ele>585.30</ele>
        <time>2016-10-15T06:23:25Z</time>
      </trkpt>
      <trkpt lat="42.551456000" lon="-2.442015000">
        <ele>585.40</ele>
        <time>2016-10-15T06:23:26Z</time>
      </trkpt>
      <trkpt lat="42.551476000" lon="-2.442033000">
        <ele>585.50</ele>
        <time>2016-10-15T06:23:27Z</time>
      </trkpt>
      <trkpt lat="42.551495000" lon="-2.442053000">
        <ele>585.60</ele>
        <time>2016-10-15T06:23:28Z</time>
      </trkpt>
      <trkpt lat="42.551517000" lon="-2.442073000">
        <ele>585.70</ele>
        <time>2016-10-15T06:23:29Z</time>
      </trkpt>
      <trkpt lat="42.551540000" lon="-2.442094000">
        <ele>585.70</ele>
        <time>2016-10-15T06:23:30Z</time>
      </trkpt>
      <trkpt lat="42.551563000" lon="-2.442114000">
        <ele>586.00</ele>
        <time>2016-10-15T06:23:31Z</time>
      </trkpt>
      <trkpt lat="42.551585000" lon="-2.442134000">
        <ele>586.30</ele>
        <time>2016-10-15T06:23:32Z</time>
      </trkpt>
      <trkpt lat="42.551608000" lon="-2.442150000">
        <ele>586.40</ele>
        <time>2016-10-15T06:23:33Z</time>
      </trkpt>
      <trkpt lat="42.551628000" lon="-2.442169000">
        <ele>586.60</ele>
        <time>2016-10-15T06:23:34Z</time>
      </trkpt>
      <trkpt lat="42.551650000" lon="-2.442185000">
        <ele>586.70</ele>
        <time>2016-10-15T06:23:35Z</time>
      </trkpt>
      <trkpt lat="42.551672000" lon="-2.442204000">
        <ele>586.80</ele>
        <time>2016-10-15T06:23:36Z</time>
      </trkpt>
      <trkpt lat="42.551692000" lon="-2.442224000">
        <ele>586.90</ele>
        <time>2016-10-15T06:23:37Z</time>
      </trkpt>
      <trkpt lat="42.551714000" lon="-2.442242000">
        <ele>587.00</ele>
        <time>2016-10-15T06:23:38Z</time>
      </trkpt>
      <trkpt lat="42.551734000" lon="-2.442262000">
        <ele>587.20</ele>
        <time>2016-10-15T06:23:39Z</time>
      </trkpt>
      <trkpt lat="42.551755000" lon="-2.442281000">
        <ele>587.40</ele>
        <time>2016-10-15T06:23:40Z</time>
      </trkpt>
      <trkpt lat="42.551774000" lon="-2.442298000">
        <ele>587.50</ele>
        <time>2016-10-15T06:23:41Z</time>
      </trkpt>
      <trkpt lat="42.551795000" lon="-2.442313000">
        <ele>587.70</ele>
        <time>2016-10-15T06:23:42Z</time>
      </trkpt>
      <trkpt lat="42.551815000" lon="-2.442330000">
        <ele>587.80</ele>
        <time>2016-10-15T06:23:43Z</time>
      </trkpt>
      <trkpt lat="42.551833000" lon="-2.442348000">
        <ele>587.90</ele>
        <time>2016-10-15T06:23:44Z</time>
      </trkpt>
      <trkpt lat="42.551850000" lon="-2.442363000">
        <ele>588.10</ele>
        <time>2016-10-15T06:23:45Z</time>
      </trkpt>
      <trkpt lat="42.551865000" lon="-2.442382000">
        <ele>588.20</ele>
        <time>2016-10-15T06:23:46Z</time>
      </trkpt>
      <trkpt lat="42.551884000" lon="-2.442401000">
        <ele>588.40</ele>
        <time>2016-10-15T06:23:47Z</time>
      </trkpt>
      <trkpt lat="42.551904000" lon="-2.442417000">
        <ele>588.60</ele>
        <time>2016-10-15T06:23:48Z</time>
      </trkpt>
      <trkpt lat="42.551924000" lon="-2.442436000">
        <ele>588.70</ele>
        <time>2016-10-15T06:23:49Z</time>
      </trkpt>
      <trkpt lat="42.551943000" lon="-2.442456000">
        <ele>588.80</ele>
        <time>2016-10-15T06:23:50Z</time>
      </trkpt>
      <trkpt lat="42.551963000" lon="-2.442477000">
        <ele>588.90</ele>
        <time>2016-10-15T06:23:51Z</time>
      </trkpt>
      <trkpt lat="42.551981000" lon="-2.442498000">
        <ele>589.00</ele>
        <time>2016-10-15T06:23:52Z</time>
      </trkpt>
      <trkpt lat="42.552000000" lon="-2.442519000">
        <ele>589.20</ele>
        <time>2016-10-15T06:23:53Z</time>
      </trkpt>
      <trkpt lat="42.552019000" lon="-2.442542000">
        <ele>589.40</ele>
        <time>2016-10-15T06:23:54Z</time>
      </trkpt>
      <trkpt lat="42.552038000" lon="-2.442564000">
        <ele>589.50</ele>
        <time>2016-10-15T06:23:55Z</time>
      </trkpt>
      <trkpt lat="42.552059000" lon="-2.442584000">
        <ele>589.60</ele>
        <time>2016-10-15T06:23:56Z</time>
      </trkpt>
      <trkpt lat="42.552082000" lon="-2.442605000">
        <ele>589.70</ele>
        <time>2016-10-15T06:23:57Z</time>
      </trkpt>
      <trkpt lat="42.552103000" lon="-2.442626000">
        <ele>589.80</ele>
        <time>2016-10-15T06:23:58Z</time>
      </trkpt>
      <trkpt lat="42.552125000" lon="-2.442646000">
        <ele>589.80</ele>
        <time>2016-10-15T06:23:59Z</time>
      </trkpt>
      <trkpt lat="42.552147000" lon="-2.442668000">
        <ele>589.90</ele>
        <time>2016-10-15T06:24:00Z</time>
      </trkpt>
      <trkpt lat="42.552169000" lon="-2.442692000">
        <ele>589.90</ele>
        <time>2016-10-15T06:24:01Z</time>
      </trkpt>
      <trkpt lat="42.552193000" lon="-2.442713000">
        <ele>590.00</ele>
        <time>2016-10-15T06:24:02Z</time>
      </trkpt>
      <trkpt lat="42.552215000" lon="-2.442736000">
        <ele>590.00</ele>
        <time>2016-10-15T06:24:03Z</time>
      </trkpt>
      <trkpt lat="42.552238000" lon="-2.442758000">
        <ele>590.10</ele>
        <time>2016-10-15T06:24:04Z</time>
      </trkpt>
      <trkpt lat="42.552259000" lon="-2.442780000">
        <ele>590.10</ele>
        <time>2016-10-15T06:24:05Z</time>
      </trkpt>
      <trkpt lat="42.552281000" lon="-2.442800000">
        <ele>590.10</ele>
        <time>2016-10-15T06:24:06Z</time>
      </trkpt>
      <trkpt lat="42.552305000" lon="-2.442821000">
        <ele>590.30</ele>
        <time>2016-10-15T06:24:07Z</time>
      </trkpt>
      <trkpt lat="42.552353000" lon="-2.442865000">
        <ele>590.40</ele>
        <time>2016-10-15T06:24:09Z</time>
      </trkpt>
      <trkpt lat="42.552377000" lon="-2.442890000">
        <ele>590.40</ele>
        <time>2016-10-15T06:24:10Z</time>
      </trkpt>
      <trkpt lat="42.552402000" lon="-2.442912000">
        <ele>590.50</ele>
        <time>2016-10-15T06:24:11Z</time>
      </trkpt>
      <trkpt lat="42.552427000" lon="-2.442935000">
        <ele>590.60</ele>
        <time>2016-10-15T06:24:12Z</time>
      </trkpt>
      <trkpt lat="42.552449000" lon="-2.442959000">
        <ele>590.70</ele>
        <time>2016-10-15T06:24:13Z</time>
      </trkpt>
      <trkpt lat="42.552475000" lon="-2.442984000">
        <ele>590.80</ele>
        <time>2016-10-15T06:24:14Z</time>
      </trkpt>
      <trkpt lat="42.552501000" lon="-2.443005000">
        <ele>590.90</ele>
        <time>2016-10-15T06:24:15Z</time>
      </trkpt>
      <trkpt lat="42.552525000" lon="-2.443028000">
        <ele>590.90</ele>
        <time>2016-10-15T06:24:16Z</time>
      </trkpt>
      <trkpt lat="42.552550000" lon="-2.443050000">
        <ele>590.80</ele>
        <time>2016-10-15T06:24:17Z</time>
      </trkpt>
      <trkpt lat="42.552576000" lon="-2.443074000">
        <ele>590.70</ele>
        <time>2016-10-15T06:24:18Z</time>
      </trkpt>
      <trkpt lat="42.552604000" lon="-2.443100000">
        <ele>590.60</ele>
        <time>2016-10-15T06:24:19Z</time>
      </trkpt>
      <trkpt lat="42.552635000" lon="-2.443125000">
        <ele>590.50</ele>
        <time>2016-10-15T06:24:20Z</time>
      </trkpt>
      <trkpt lat="42.552666000" lon="-2.443151000">
        <ele>590.30</ele>
        <time>2016-10-15T06:24:21Z</time>
      </trkpt>
      <trkpt lat="42.552699000" lon="-2.443179000">
        <ele>590.20</ele>
        <time>2016-10-15T06:24:22Z</time>
      </trkpt>
      <trkpt lat="42.552730000" lon="-2.443210000">
        <ele>590.00</ele>
        <time>2016-10-15T06:24:23Z</time>
      </trkpt>
      <trkpt lat="42.552761000" lon="-2.443240000">
        <ele>589.80</ele>
        <time>2016-10-15T06:24:24Z</time>
      </trkpt>
      <trkpt lat="42.552794000" lon="-2.443267000">
        <ele>589.60</ele>
        <time>2016-10-15T06:24:25Z</time>
      </trkpt>
      <trkpt lat="42.552827000" lon="-2.443293000">
        <ele>589.50</ele>
        <time>2016-10-15T06:24:26Z</time>
      </trkpt>
      <trkpt lat="42.552858000" lon="-2.443321000">
        <ele>589.50</ele>
        <time>2016-10-15T06:24:27Z</time>
      </trkpt>
      <trkpt lat="42.552890000" lon="-2.443352000">
        <ele>589.40</ele>
        <time>2016-10-15T06:24:28Z</time>
      </trkpt>
      <trkpt lat="42.552921000" lon="-2.443385000">
        <ele>589.40</ele>
        <time>2016-10-15T06:24:29Z</time>
      </trkpt>
      <trkpt lat="42.552952000" lon="-2.443421000">
        <ele>589.30</ele>
        <time>2016-10-15T06:24:30Z</time>
      </trkpt>
      <trkpt lat="42.552982000" lon="-2.443454000">
        <ele>589.20</ele>
        <time>2016-10-15T06:24:31Z</time>
      </trkpt>
      <trkpt lat="42.553009000" lon="-2.443486000">
        <ele>589.10</ele>
        <time>2016-10-15T06:24:32Z</time>
      </trkpt>
      <trkpt lat="42.553039000" lon="-2.443518000">
        <ele>589.00</ele>
        <time>2016-10-15T06:24:33Z</time>
      </trkpt>
      <trkpt lat="42.553067000" lon="-2.443550000">
        <ele>589.00</ele>
        <time>2016-10-15T06:24:34Z</time>
      </trkpt>
      <trkpt lat="42.553097000" lon="-2.443582000">
        <ele>589.00</ele>
        <time>2016-10-15T06:24:35Z</time>
      </trkpt>
      <trkpt lat="42.553125000" lon="-2.443611000">
        <ele>589.10</ele>
        <time>2016-10-15T06:24:36Z</time>
      </trkpt>
      <trkpt lat="42.553154000" lon="-2.443644000">
        <ele>589.10</ele>
        <time>2016-10-15T06:24:37Z</time>
      </trkpt>
      <trkpt lat="42.553184000" lon="-2.443678000">
        <ele>589.10</ele>
        <time>2016-10-15T06:24:38Z</time>
      </trkpt>
      <trkpt lat="42.553213000" lon="-2.443712000">
        <ele>588.90</ele>
        <time>2016-10-15T06:24:39Z</time>
      </trkpt>
      <trkpt lat="42.553241000" lon="-2.443746000">
        <ele>588.70</ele>
        <time>2016-10-15T06:24:40Z</time>
      </trkpt>
      <trkpt lat="42.553262000" lon="-2.443774000">
        <ele>588.60</ele>
        <time>2016-10-15T06:24:41Z</time>
      </trkpt>
      <trkpt lat="42.553283000" lon="-2.443802000">
        <ele>588.40</ele>
        <time>2016-10-15T06:24:42Z</time>
      </trkpt>
      <trkpt lat="42.553304000" lon="-2.443830000">
        <ele>588.40</ele>
        <time>2016-10-15T06:24:43Z</time>
      </trkpt>
      <trkpt lat="42.553326000" lon="-2.443859000">
        <ele>588.40</ele>
        <time>2016-10-15T06:24:44Z</time>
      </trkpt>
      <trkpt lat="42.553352000" lon="-2.443885000">
        <ele>588.30</ele>
        <time>2016-10-15T06:24:45Z</time>
      </trkpt>
      <trkpt lat="42.553372000" lon="-2.443913000">
        <ele>588.30</ele>
        <time>2016-10-15T06:24:46Z</time>
      </trkpt>
      <trkpt lat="42.553396000" lon="-2.443944000">
        <ele>588.40</ele>
        <time>2016-10-15T06:24:47Z</time>
      </trkpt>
      <trkpt lat="42.553421000" lon="-2.443975000">
        <ele>588.50</ele>
        <time>2016-10-15T06:24:48Z</time>
      </trkpt>
      <trkpt lat="42.553447000" lon="-2.444007000">
        <ele>588.50</ele>
        <time>2016-10-15T06:24:49Z</time>
      </trkpt>
      <trkpt lat="42.553472000" lon="-2.444037000">
        <ele>588.50</ele>
        <time>2016-10-15T06:24:50Z</time>
      </trkpt>
      <trkpt lat="42.553496000" lon="-2.444068000">
        <ele>588.60</ele>
        <time>2016-10-15T06:24:51Z</time>
      </trkpt>
      <trkpt lat="42.553520000" lon="-2.444101000">
        <ele>588.60</ele>
        <time>2016-10-15T06:24:52Z</time>
      </trkpt>
      <trkpt lat="42.553547000" lon="-2.444131000">
        <ele>588.50</ele>
        <time>2016-10-15T06:24:53Z</time>
      </trkpt>
      <trkpt lat="42.553574000" lon="-2.444164000">
        <ele>588.50</ele>
        <time>2016-10-15T06:24:54Z</time>
      </trkpt>
      <trkpt lat="42.553602000" lon="-2.444198000">
        <ele>588.60</ele>
        <time>2016-10-15T06:24:55Z</time>
      </trkpt>
      <trkpt lat="42.553627000" lon="-2.444226000">
        <ele>588.60</ele>
        <time>2016-10-15T06:24:56Z</time>
      </trkpt>
      <trkpt lat="42.553655000" lon="-2.444256000">
        <ele>588.60</ele>
        <time>2016-10-15T06:24:57Z</time>
      </trkpt>
      <trkpt lat="42.553679000" lon="-2.444284000">
        <ele>588.50</ele>
        <time>2016-10-15T06:24:58Z</time>
      </trkpt>
      <trkpt lat="42.553704000" lon="-2.444314000">
        <ele>588.40</ele>
        <time>2016-10-15T06:24:59Z</time>
      </trkpt>
      <trkpt lat="42.553728000" lon="-2.444346000">
        <ele>588.40</ele>
        <time>2016-10-15T06:25:00Z</time>
      </trkpt>
      <trkpt lat="42.553754000" lon="-2.444376000">
        <ele>588.30</ele>
        <time>2016-10-15T06:25:01Z</time>
      </trkpt>
      <trkpt lat="42.553777000" lon="-2.444405000">
        <ele>588.30</ele>
        <time>2016-10-15T06:25:02Z</time>
      </trkpt>
      <trkpt lat="42.553804000" lon="-2.444434000">
        <ele>588.50</ele>
        <time>2016-10-15T06:25:03Z</time>
      </trkpt>
      <trkpt lat="42.553824000" lon="-2.444459000">
        <ele>588.70</ele>
        <time>2016-10-15T06:25:04Z</time>
      </trkpt>
      <trkpt lat="42.553850000" lon="-2.444485000">
        <ele>588.80</ele>
        <time>2016-10-15T06:25:05Z</time>
      </trkpt>
      <trkpt lat="42.553870000" lon="-2.444515000">
        <ele>588.90</ele>
        <time>2016-10-15T06:25:06Z</time>
      </trkpt>
      <trkpt lat="42.553891000" lon="-2.444540000">
        <ele>589.00</ele>
        <time>2016-10-15T06:25:07Z</time>
      </trkpt>
      <trkpt lat="42.553911000" lon="-2.444566000">
        <ele>589.00</ele>
        <time>2016-10-15T06:25:08Z</time>
      </trkpt>
      <trkpt lat="42.553961000" lon="-2.444615000">
        <ele>589.20</ele>
        <time>2016-10-15T06:25:10Z</time>
      </trkpt>
      <trkpt lat="42.553982000" lon="-2.444640000">
        <ele>589.30</ele>
        <time>2016-10-15T06:25:11Z</time>
      </trkpt>
      <trkpt lat="42.554005000" lon="-2.444666000">
        <ele>589.30</ele>
        <time>2016-10-15T06:25:12Z</time>
      </trkpt>
      <trkpt lat="42.554029000" lon="-2.444692000">
        <ele>589.30</ele>
        <time>2016-10-15T06:25:13Z</time>
      </trkpt>
      <trkpt lat="42.554048000" lon="-2.444714000">
        <ele>589.40</ele>
        <time>2016-10-15T06:25:14Z</time>
      </trkpt>
      <trkpt lat="42.554073000" lon="-2.444742000">
        <ele>589.30</ele>
        <time>2016-10-15T06:25:15Z</time>
      </trkpt>
      <trkpt lat="42.554092000" lon="-2.444767000">
        <ele>589.30</ele>
        <time>2016-10-15T06:25:16Z</time>
      </trkpt>
      <trkpt lat="42.554113000" lon="-2.444791000">
        <ele>589.30</ele>
        <time>2016-10-15T06:25:17Z</time>
      </trkpt>
      <trkpt lat="42.554133000" lon="-2.444816000">
        <ele>589.30</ele>
        <time>2016-10-15T06:25:18Z</time>
      </trkpt>
      <trkpt lat="42.554154000" lon="-2.444843000">
        <ele>589.00</ele>
        <time>2016-10-15T06:25:19Z</time>
      </trkpt>
      <trkpt lat="42.554177000" lon="-2.444871000">
        <ele>588.80</ele>
        <time>2016-10-15T06:25:20Z</time>
      </trkpt>
      <trkpt lat="42.554202000" lon="-2.444901000">
        <ele>588.70</ele>
        <time>2016-10-15T06:25:21Z</time>
      </trkpt>
      <trkpt lat="42.554230000" lon="-2.444932000">
        <ele>588.60</ele>
        <time>2016-10-15T06:25:22Z</time>
      </trkpt>
      <trkpt lat="42.554258000" lon="-2.444966000">
        <ele>588.50</ele>
        <time>2016-10-15T06:25:23Z</time>
      </trkpt>
      <trkpt lat="42.554291000" lon="-2.445002000">
        <ele>588.50</ele>
        <time>2016-10-15T06:25:24Z</time>
      </trkpt>
      <trkpt lat="42.554325000" lon="-2.445040000">
        <ele>588.40</ele>
        <time>2016-10-15T06:25:25Z</time>
      </trkpt>
      <trkpt lat="42.554363000" lon="-2.445082000">
        <ele>588.40</ele>
        <time>2016-10-15T06:25:26Z</time>
      </trkpt>
      <trkpt lat="42.554405000" lon="-2.445122000">
        <ele>588.40</ele>
        <time>2016-10-15T06:25:27Z</time>
      </trkpt>
      <trkpt lat="42.554449000" lon="-2.445168000">
        <ele>588.30</ele>
        <time>2016-10-15T06:25:28Z</time>
      </trkpt>
      <trkpt lat="42.554493000" lon="-2.445220000">
        <ele>588.20</ele>
        <time>2016-10-15T06:25:29Z</time>
      </trkpt>
      <trkpt lat="42.554541000" lon="-2.445278000">
        <ele>588.10</ele>
        <time>2016-10-15T06:25:30Z</time>
      </trkpt>
      <trkpt lat="42.554581000" lon="-2.445345000">
        <ele>587.70</ele>
        <time>2016-10-15T06:25:31Z</time>
      </trkpt>
      <trkpt lat="42.554612000" lon="-2.445411000">
        <ele>587.40</ele>
        <time>2016-10-15T06:25:32Z</time>
      </trkpt>
      <trkpt lat="42.554631000" lon="-2.445466000">
        <ele>587.00</ele>
        <time>2016-10-15T06:25:33Z</time>
      </trkpt>
      <trkpt lat="42.554638000" lon="-2.445506000">
        <ele>586.70</ele>
        <time>2016-10-15T06:25:34Z</time>
      </trkpt>
      <trkpt lat="42.554642000" lon="-2.445541000">
        <ele>586.50</ele>
        <time>2016-10-15T06:25:35Z</time>
      </trkpt>
      <trkpt lat="42.554648000" lon="-2.445578000">
        <ele>586.40</ele>
        <time>2016-10-15T06:25:36Z</time>
      </trkpt>
      <trkpt lat="42.554657000" lon="-2.445617000">
        <ele>586.60</ele>
        <time>2016-10-15T06:25:37Z</time>
      </trkpt>
      <trkpt lat="42.554662000" lon="-2.445654000">
        <ele>586.90</ele>
        <time>2016-10-15T06:25:38Z</time>
      </trkpt>
      <trkpt lat="42.554667000" lon="-2.445690000">
        <ele>587.00</ele>
        <time>2016-10-15T06:25:39Z</time>
      </trkpt>
      <trkpt lat="42.554671000" lon="-2.445730000">
        <ele>587.10</ele>
        <time>2016-10-15T06:25:40Z</time>
      </trkpt>
      <trkpt lat="42.554676000" lon="-2.445770000">
        <ele>587.20</ele>
        <time>2016-10-15T06:25:41Z</time>
      </trkpt>
      <trkpt lat="42.554686000" lon="-2.445806000">
        <ele>587.30</ele>
        <time>2016-10-15T06:25:42Z</time>
      </trkpt>
      <trkpt lat="42.554698000" lon="-2.445838000">
        <ele>587.50</ele>
        <time>2016-10-15T06:25:43Z</time>
      </trkpt>
      <trkpt lat="42.554711000" lon="-2.445870000">
        <ele>587.70</ele>
        <time>2016-10-15T06:25:44Z</time>
      </trkpt>
      <trkpt lat="42.554726000" lon="-2.445900000">
        <ele>588.00</ele>
        <time>2016-10-15T06:25:45Z</time>
      </trkpt>
      <trkpt lat="42.554744000" lon="-2.445930000">
        <ele>588.20</ele>
        <time>2016-10-15T06:25:46Z</time>
      </trkpt>
      <trkpt lat="42.554760000" lon="-2.445961000">
        <ele>588.40</ele>
        <time>2016-10-15T06:25:47Z</time>
      </trkpt>
      <trkpt lat="42.554778000" lon="-2.445988000">
        <ele>588.50</ele>
        <time>2016-10-15T06:25:48Z</time>
      </trkpt>
      <trkpt lat="42.554795000" lon="-2.446015000">
        <ele>588.80</ele>
        <time>2016-10-15T06:25:49Z</time>
      </trkpt>
      <trkpt lat="42.554816000" lon="-2.446039000">
        <ele>589.00</ele>
        <time>2016-10-15T06:25:50Z</time>
      </trkpt>
      <trkpt lat="42.554835000" lon="-2.446061000">
        <ele>589.20</ele>
        <time>2016-10-15T06:25:51Z</time>
      </trkpt>
      <trkpt lat="42.554855000" lon="-2.446086000">
        <ele>589.40</ele>
        <time>2016-10-15T06:25:52Z</time>
      </trkpt>
      <trkpt lat="42.554872000" lon="-2.446110000">
        <ele>589.70</ele>
        <time>2016-10-15T06:25:53Z</time>
      </trkpt>
      <trkpt lat="42.554890000" lon="-2.446135000">
        <ele>589.80</ele>
        <time>2016-10-15T06:25:54Z</time>
      </trkpt>
      <trkpt lat="42.554911000" lon="-2.446157000">
        <ele>589.90</ele>
        <time>2016-10-15T06:25:55Z</time>
      </trkpt>
      <trkpt lat="42.554930000" lon="-2.446181000">
        <ele>590.00</ele>
        <time>2016-10-15T06:25:56Z</time>
      </trkpt>
      <trkpt lat="42.554951000" lon="-2.446205000">
        <ele>590.30</ele>
        <time>2016-10-15T06:25:57Z</time>
      </trkpt>
      <trkpt lat="42.554970000" lon="-2.446229000">
        <ele>590.50</ele>
        <time>2016-10-15T06:25:58Z</time>
      </trkpt>
      <trkpt lat="42.554991000" lon="-2.446253000">
        <ele>590.70</ele>
        <time>2016-10-15T06:25:59Z</time>
      </trkpt>
      <trkpt lat="42.555015000" lon="-2.446276000">
        <ele>590.80</ele>
        <time>2016-10-15T06:26:00Z</time>
      </trkpt>
      <trkpt lat="42.555038000" lon="-2.446296000">
        <ele>591.00</ele>
        <time>2016-10-15T06:26:01Z</time>
      </trkpt>
      <trkpt lat="42.555059000" lon="-2.446320000">
        <ele>591.10</ele>
        <time>2016-10-15T06:26:02Z</time>
      </trkpt>
      <trkpt lat="42.555080000" lon="-2.446343000">
        <ele>591.30</ele>
        <time>2016-10-15T06:26:03Z</time>
      </trkpt>
      <trkpt lat="42.555101000" lon="-2.446363000">
        <ele>591.50</ele>
        <time>2016-10-15T06:26:04Z</time>
      </trkpt>
      <trkpt lat="42.555121000" lon="-2.446385000">
        <ele>591.60</ele>
        <time>2016-10-15T06:26:05Z</time>
      </trkpt>
      <trkpt lat="42.555141000" lon="-2.446407000">
        <ele>591.70</ele>
        <time>2016-10-15T06:26:06Z</time>
      </trkpt>
      <trkpt lat="42.555161000" lon="-2.446428000">
        <ele>592.00</ele>
        <time>2016-10-15T06:26:07Z</time>
      </trkpt>
      <trkpt lat="42.555182000" lon="-2.446448000">
        <ele>592.20</ele>
        <time>2016-10-15T06:26:08Z</time>
      </trkpt>
      <trkpt lat="42.555202000" lon="-2.446468000">
        <ele>592.20</ele>
        <time>2016-10-15T06:26:09Z</time>
      </trkpt>
      <trkpt lat="42.555244000" lon="-2.446511000">
        <ele>592.40</ele>
        <time>2016-10-15T06:26:11Z</time>
      </trkpt>
      <trkpt lat="42.555262000" lon="-2.446533000">
        <ele>592.50</ele>
        <time>2016-10-15T06:26:12Z</time>
      </trkpt>
      <trkpt lat="42.555281000" lon="-2.446552000">
        <ele>592.70</ele>
        <time>2016-10-15T06:26:13Z</time>
      </trkpt>
      <trkpt lat="42.555300000" lon="-2.446575000">
        <ele>592.90</ele>
        <time>2016-10-15T06:26:14Z</time>
      </trkpt>
      <trkpt lat="42.555318000" lon="-2.446592000">
        <ele>593.10</ele>
        <time>2016-10-15T06:26:15Z</time>
      </trkpt>
      <trkpt lat="42.555337000" lon="-2.446611000">
        <ele>593.20</ele>
        <time>2016-10-15T06:26:16Z</time>
      </trkpt>
      <trkpt lat="42.555357000" lon="-2.446634000">
        <ele>593.40</ele>
        <time>2016-10-15T06:26:17Z</time>
      </trkpt>
      <trkpt lat="42.555378000" lon="-2.446656000">
        <ele>593.50</ele>
        <time>2016-10-15T06:26:18Z</time>
      </trkpt>
      <trkpt lat="42.555398000" lon="-2.446678000">
        <ele>593.80</ele>
        <time>2016-10-15T06:26:19Z</time>
      </trkpt>
      <trkpt lat="42.555418000" lon="-2.446699000">
        <ele>594.10</ele>
        <time>2016-10-15T06:26:20Z</time>
      </trkpt>
      <trkpt lat="42.555437000" lon="-2.446719000">
        <ele>594.30</ele>
        <time>2016-10-15T06:26:21Z</time>
      </trkpt>
      <trkpt lat="42.555456000" lon="-2.446738000">
        <ele>594.50</ele>
        <time>2016-10-15T06:26:22Z</time>
      </trkpt>
      <trkpt lat="42.555477000" lon="-2.446758000">
        <ele>594.70</ele>
        <time>2016-10-15T06:26:23Z</time>
      </trkpt>
      <trkpt lat="42.555498000" lon="-2.446776000">
        <ele>594.90</ele>
        <time>2016-10-15T06:26:24Z</time>
      </trkpt>
      <trkpt lat="42.555519000" lon="-2.446797000">
        <ele>595.10</ele>
        <time>2016-10-15T06:26:25Z</time>
      </trkpt>
      <trkpt lat="42.555541000" lon="-2.446821000">
        <ele>595.30</ele>
        <time>2016-10-15T06:26:26Z</time>
      </trkpt>
      <trkpt lat="42.555562000" lon="-2.446842000">
        <ele>595.40</ele>
        <time>2016-10-15T06:26:27Z</time>
      </trkpt>
      <trkpt lat="42.555583000" lon="-2.446864000">
        <ele>595.40</ele>
        <time>2016-10-15T06:26:28Z</time>
      </trkpt>
      <trkpt lat="42.555604000" lon="-2.446882000">
        <ele>595.70</ele>
        <time>2016-10-15T06:26:29Z</time>
      </trkpt>
      <trkpt lat="42.555623000" lon="-2.446902000">
        <ele>595.90</ele>
        <time>2016-10-15T06:26:30Z</time>
      </trkpt>
      <trkpt lat="42.555645000" lon="-2.446922000">
        <ele>596.10</ele>
        <time>2016-10-15T06:26:31Z</time>
      </trkpt>
      <trkpt lat="42.555666000" lon="-2.446944000">
        <ele>596.30</ele>
        <time>2016-10-15T06:26:32Z</time>
      </trkpt>
      <trkpt lat="42.555687000" lon="-2.446961000">
        <ele>596.50</ele>
        <time>2016-10-15T06:26:33Z</time>
      </trkpt>
      <trkpt lat="42.555710000" lon="-2.446982000">
        <ele>596.60</ele>
        <time>2016-10-15T06:26:34Z</time>
      </trkpt>
      <trkpt lat="42.555731000" lon="-2.447005000">
        <ele>596.70</ele>
        <time>2016-10-15T06:26:35Z</time>
      </trkpt>
      <trkpt lat="42.555753000" lon="-2.447028000">
        <ele>596.80</ele>
        <time>2016-10-15T06:26:36Z</time>
      </trkpt>
      <trkpt lat="42.555774000" lon="-2.447047000">
        <ele>596.90</ele>
        <time>2016-10-15T06:26:37Z</time>
      </trkpt>
      <trkpt lat="42.555794000" lon="-2.447068000">
        <ele>596.90</ele>
        <time>2016-10-15T06:26:38Z</time>
      </trkpt>
      <trkpt lat="42.555818000" lon="-2.447083000">
        <ele>597.00</ele>
        <time>2016-10-15T06:26:39Z</time>
      </trkpt>
      <trkpt lat="42.555843000" lon="-2.447103000">
        <ele>597.10</ele>
        <time>2016-10-15T06:26:40Z</time>
      </trkpt>
      <trkpt lat="42.555867000" lon="-2.447126000">
        <ele>597.30</ele>
        <time>2016-10-15T06:26:41Z</time>
      </trkpt>
      <trkpt lat="42.555891000" lon="-2.447147000">
        <ele>597.40</ele>
        <time>2016-10-15T06:26:42Z</time>
      </trkpt>
      <trkpt lat="42.555915000" lon="-2.447167000">
        <ele>597.50</ele>
        <time>2016-10-15T06:26:43Z</time>
      </trkpt>
      <trkpt lat="42.555939000" lon="-2.447186000">
        <ele>597.60</ele>
        <time>2016-10-15T06:26:44Z</time>
      </trkpt>
      <trkpt lat="42.555963000" lon="-2.447205000">
        <ele>597.80</ele>
        <time>2016-10-15T06:26:45Z</time>
      </trkpt>
      <trkpt lat="42.555986000" lon="-2.447224000">
        <ele>598.00</ele>
        <time>2016-10-15T06:26:46Z</time>
      </trkpt>
      <trkpt lat="42.556008000" lon="-2.447242000">
        <ele>598.20</ele>
        <time>2016-10-15T06:26:47Z</time>
      </trkpt>
      <trkpt lat="42.556033000" lon="-2.447259000">
        <ele>598.40</ele>
        <time>2016-10-15T06:26:48Z</time>
      </trkpt>
      <trkpt lat="42.556057000" lon="-2.447276000">
        <ele>598.50</ele>
        <time>2016-10-15T06:26:49Z</time>
      </trkpt>
      <trkpt lat="42.556079000" lon="-2.447292000">
        <ele>598.50</ele>
        <time>2016-10-15T06:26:50Z</time>
      </trkpt>
      <trkpt lat="42.556100000" lon="-2.447311000">
        <ele>598.60</ele>
        <time>2016-10-15T06:26:51Z</time>
      </trkpt>
      <trkpt lat="42.556123000" lon="-2.447330000">
        <ele>598.70</ele>
        <time>2016-10-15T06:26:52Z</time>
      </trkpt>
      <trkpt lat="42.556145000" lon="-2.447349000">
        <ele>598.80</ele>
        <time>2016-10-15T06:26:53Z</time>
      </trkpt>
      <trkpt lat="42.556169000" lon="-2.447369000">
        <ele>598.80</ele>
        <time>2016-10-15T06:26:54Z</time>
      </trkpt>
      <trkpt lat="42.556190000" lon="-2.447387000">
        <ele>598.90</ele>
        <time>2016-10-15T06:26:55Z</time>
      </trkpt>
      <trkpt lat="42.556215000" lon="-2.447403000">
        <ele>598.90</ele>
        <time>2016-10-15T06:26:56Z</time>
      </trkpt>
      <trkpt lat="42.556239000" lon="-2.447417000">
        <ele>598.90</ele>
        <time>2016-10-15T06:26:57Z</time>
      </trkpt>
      <trkpt lat="42.556265000" lon="-2.447436000">
        <ele>598.90</ele>
        <time>2016-10-15T06:26:58Z</time>
      </trkpt>
      <trkpt lat="42.556290000" lon="-2.447454000">
        <ele>598.90</ele>
        <time>2016-10-15T06:26:59Z</time>
      </trkpt>
      <trkpt lat="42.556315000" lon="-2.447475000">
        <ele>598.90</ele>
        <time>2016-10-15T06:27:00Z</time>
      </trkpt>
      <trkpt lat="42.556341000" lon="-2.447492000">
        <ele>599.00</ele>
        <time>2016-10-15T06:27:01Z</time>
      </trkpt>
      <trkpt lat="42.556365000" lon="-2.447512000">
        <ele>599.00</ele>
        <time>2016-10-15T06:27:02Z</time>
      </trkpt>
      <trkpt lat="42.556387000" lon="-2.447531000">
        <ele>599.10</ele>
        <time>2016-10-15T06:27:03Z</time>
      </trkpt>
      <trkpt lat="42.556413000" lon="-2.447545000">
        <ele>599.20</ele>
        <time>2016-10-15T06:27:04Z</time>
      </trkpt>
      <trkpt lat="42.556438000" lon="-2.447563000">
        <ele>599.20</ele>
        <time>2016-10-15T06:27:05Z</time>
      </trkpt>
      <trkpt lat="42.556462000" lon="-2.447579000">
        <ele>599.30</ele>
        <time>2016-10-15T06:27:06Z</time>
      </trkpt>
      <trkpt lat="42.556486000" lon="-2.447595000">
        <ele>599.30</ele>
        <time>2016-10-15T06:27:07Z</time>
      </trkpt>
      <trkpt lat="42.556511000" lon="-2.447610000">
        <ele>599.40</ele>
        <time>2016-10-15T06:27:08Z</time>
      </trkpt>
      <trkpt lat="42.556534000" lon="-2.447623000">
        <ele>599.40</ele>
        <time>2016-10-15T06:27:09Z</time>
      </trkpt>
      <trkpt lat="42.556560000" lon="-2.447636000">
        <ele>599.50</ele>
        <time>2016-10-15T06:27:10Z</time>
      </trkpt>
      <trkpt lat="42.556604000" lon="-2.447668000">
        <ele>599.80</ele>
        <time>2016-10-15T06:27:12Z</time>
      </trkpt>
      <trkpt lat="42.556629000" lon="-2.447678000">
        <ele>599.80</ele>
        <time>2016-10-15T06:27:13Z</time>
      </trkpt>
      <trkpt lat="42.556655000" lon="-2.447690000">
        <ele>599.90</ele>
        <time>2016-10-15T06:27:14Z</time>
      </trkpt>
      <trkpt lat="42.556682000" lon="-2.447696000">
        <ele>600.00</ele>
        <time>2016-10-15T06:27:15Z</time>
      </trkpt>
      <trkpt lat="42.556711000" lon="-2.447701000">
        <ele>600.00</ele>
        <time>2016-10-15T06:27:16Z</time>
      </trkpt>
      <trkpt lat="42.556740000" lon="-2.447705000">
        <ele>600.10</ele>
        <time>2016-10-15T06:27:17Z</time>
      </trkpt>
      <trkpt lat="42.556768000" lon="-2.447713000">
        <ele>600.20</ele>
        <time>2016-10-15T06:27:18Z</time>
      </trkpt>
      <trkpt lat="42.556796000" lon="-2.447720000">
        <ele>600.30</ele>
        <time>2016-10-15T06:27:19Z</time>
      </trkpt>
      <trkpt lat="42.556823000" lon="-2.447723000">
        <ele>600.30</ele>
        <time>2016-10-15T06:27:20Z</time>
      </trkpt>
      <trkpt lat="42.556851000" lon="-2.447727000">
        <ele>600.40</ele>
        <time>2016-10-15T06:27:21Z</time>
      </trkpt>
      <trkpt lat="42.556877000" lon="-2.447727000">
        <ele>600.40</ele>
        <time>2016-10-15T06:27:22Z</time>
      </trkpt>
      <trkpt lat="42.556903000" lon="-2.447733000">
        <ele>600.40</ele>
        <time>2016-10-15T06:27:23Z</time>
      </trkpt>
      <trkpt lat="42.556927000" lon="-2.447733000">
        <ele>600.40</ele>
        <time>2016-10-15T06:27:24Z</time>
      </trkpt>
      <trkpt lat="42.556952000" lon="-2.447735000">
        <ele>600.70</ele>
        <time>2016-10-15T06:27:25Z</time>
      </trkpt>
      <trkpt lat="42.556976000" lon="-2.447733000">
        <ele>600.90</ele>
        <time>2016-10-15T06:27:26Z</time>
      </trkpt>
      <trkpt lat="42.557001000" lon="-2.447732000">
        <ele>601.00</ele>
        <time>2016-10-15T06:27:27Z</time>
      </trkpt>
      <trkpt lat="42.557025000" lon="-2.447733000">
        <ele>601.10</ele>
        <time>2016-10-15T06:27:28Z</time>
      </trkpt>
      <trkpt lat="42.557047000" lon="-2.447735000">
        <ele>601.20</ele>
        <time>2016-10-15T06:27:29Z</time>
      </trkpt>
      <trkpt lat="42.557071000" lon="-2.447736000">
        <ele>601.30</ele>
        <time>2016-10-15T06:27:30Z</time>
      </trkpt>
      <trkpt lat="42.557094000" lon="-2.447735000">
        <ele>601.30</ele>
        <time>2016-10-15T06:27:31Z</time>
      </trkpt>
      <trkpt lat="42.557117000" lon="-2.447740000">
        <ele>601.40</ele>
        <time>2016-10-15T06:27:32Z</time>
      </trkpt>
      <trkpt lat="42.557140000" lon="-2.447744000">
        <ele>601.40</ele>
        <time>2016-10-15T06:27:33Z</time>
      </trkpt>
      <trkpt lat="42.557162000" lon="-2.447746000">
        <ele>601.40</ele>
        <time>2016-10-15T06:27:34Z</time>
      </trkpt>
      <trkpt lat="42.557184000" lon="-2.447745000">
        <ele>601.50</ele>
        <time>2016-10-15T06:27:35Z</time>
      </trkpt>
      <trkpt lat="42.557206000" lon="-2.447748000">
        <ele>601.60</ele>
        <time>2016-10-15T06:27:36Z</time>
      </trkpt>
      <trkpt lat="42.557228000" lon="-2.447750000">
        <ele>601.70</ele>
        <time>2016-10-15T06:27:37Z</time>
      </trkpt>
      <trkpt lat="42.557250000" lon="-2.447753000">
        <ele>601.70</ele>
        <time>2016-10-15T06:27:38Z</time>
      </trkpt>
      <trkpt lat="42.557272000" lon="-2.447757000">
        <ele>601.90</ele>
        <time>2016-10-15T06:27:39Z</time>
      </trkpt>
      <trkpt lat="42.557295000" lon="-2.447755000">
        <ele>602.00</ele>
        <time>2016-10-15T06:27:40Z</time>
      </trkpt>
      <trkpt lat="42.557314000" lon="-2.447761000">
        <ele>602.20</ele>
        <time>2016-10-15T06:27:41Z</time>
      </trkpt>
      <trkpt lat="42.557335000" lon="-2.447760000">
        <ele>602.30</ele>
        <time>2016-10-15T06:27:42Z</time>
      </trkpt>
      <trkpt lat="42.557353000" lon="-2.447767000">
        <ele>602.50</ele>
        <time>2016-10-15T06:27:43Z</time>
      </trkpt>
      <trkpt lat="42.557376000" lon="-2.447768000">
        <ele>602.60</ele>
        <time>2016-10-15T06:27:44Z</time>
      </trkpt>
      <trkpt lat="42.557394000" lon="-2.447775000">
        <ele>602.70</ele>
        <time>2016-10-15T06:27:45Z</time>
      </trkpt>
      <trkpt lat="42.557416000" lon="-2.447776000">
        <ele>602.70</ele>
        <time>2016-10-15T06:27:46Z</time>
      </trkpt>
      <trkpt lat="42.557436000" lon="-2.447783000">
        <ele>602.80</ele>
        <time>2016-10-15T06:27:47Z</time>
      </trkpt>
      <trkpt lat="42.557458000" lon="-2.447789000">
        <ele>602.80</ele>
        <time>2016-10-15T06:27:48Z</time>
      </trkpt>
      <trkpt lat="42.557479000" lon="-2.447791000">
        <ele>602.90</ele>
        <time>2016-10-15T06:27:49Z</time>
      </trkpt>
      <trkpt lat="42.557499000" lon="-2.447795000">
        <ele>603.00</ele>
        <time>2016-10-15T06:27:50Z</time>
      </trkpt>
      <trkpt lat="42.557516000" lon="-2.447798000">
        <ele>603.00</ele>
        <time>2016-10-15T06:27:51Z</time>
      </trkpt>
      <trkpt lat="42.557534000" lon="-2.447803000">
        <ele>603.10</ele>
        <time>2016-10-15T06:27:52Z</time>
      </trkpt>
      <trkpt lat="42.557554000" lon="-2.447807000">
        <ele>603.30</ele>
        <time>2016-10-15T06:27:53Z</time>
      </trkpt>
      <trkpt lat="42.557577000" lon="-2.447808000">
        <ele>603.40</ele>
        <time>2016-10-15T06:27:54Z</time>
      </trkpt>
      <trkpt lat="42.557593000" lon="-2.447813000">
        <ele>603.60</ele>
        <time>2016-10-15T06:27:55Z</time>
      </trkpt>
      <trkpt lat="42.557609000" lon="-2.447821000">
        <ele>603.70</ele>
        <time>2016-10-15T06:27:56Z</time>
      </trkpt>
      <trkpt lat="42.557628000" lon="-2.447826000">
        <ele>603.90</ele>
        <time>2016-10-15T06:27:57Z</time>
      </trkpt>
      <trkpt lat="42.557645000" lon="-2.447830000">
        <ele>604.00</ele>
        <time>2016-10-15T06:27:58Z</time>
      </trkpt>
      <trkpt lat="42.557664000" lon="-2.447834000">
        <ele>604.10</ele>
        <time>2016-10-15T06:27:59Z</time>
      </trkpt>
      <trkpt lat="42.557684000" lon="-2.447837000">
        <ele>604.20</ele>
        <time>2016-10-15T06:28:00Z</time>
      </trkpt>
      <trkpt lat="42.557704000" lon="-2.447843000">
        <ele>604.40</ele>
        <time>2016-10-15T06:28:01Z</time>
      </trkpt>
      <trkpt lat="42.557724000" lon="-2.447850000">
        <ele>604.50</ele>
        <time>2016-10-15T06:28:02Z</time>
      </trkpt>
      <trkpt lat="42.557742000" lon="-2.447854000">
        <ele>604.50</ele>
        <time>2016-10-15T06:28:03Z</time>
      </trkpt>
      <trkpt lat="42.557762000" lon="-2.447859000">
        <ele>604.60</ele>
        <time>2016-10-15T06:28:04Z</time>
      </trkpt>
      <trkpt lat="42.557782000" lon="-2.447860000">
        <ele>604.70</ele>
        <time>2016-10-15T06:28:05Z</time>
      </trkpt>
      <trkpt lat="42.557804000" lon="-2.447863000">
        <ele>604.70</ele>
        <time>2016-10-15T06:28:06Z</time>
      </trkpt>
      <trkpt lat="42.557825000" lon="-2.447870000">
        <ele>604.70</ele>
        <time>2016-10-15T06:28:07Z</time>
      </trkpt>
      <trkpt lat="42.557845000" lon="-2.447878000">
        <ele>604.70</ele>
        <time>2016-10-15T06:28:08Z</time>
      </trkpt>
      <trkpt lat="42.557865000" lon="-2.447885000">
        <ele>604.80</ele>
        <time>2016-10-15T06:28:09Z</time>
      </trkpt>
      <trkpt lat="42.557889000" lon="-2.447892000">
        <ele>604.90</ele>
        <time>2016-10-15T06:28:10Z</time>
      </trkpt>
      <trkpt lat="42.557909000" lon="-2.447897000">
        <ele>605.10</ele>
        <time>2016-10-15T06:28:11Z</time>
      </trkpt>
      <trkpt lat="42.557946000" lon="-2.447909000">
        <ele>605.30</ele>
        <time>2016-10-15T06:28:13Z</time>
      </trkpt>
      <trkpt lat="42.557968000" lon="-2.447915000">
        <ele>605.40</ele>
        <time>2016-10-15T06:28:14Z</time>
      </trkpt>
      <trkpt lat="42.557989000" lon="-2.447918000">
        <ele>605.50</ele>
        <time>2016-10-15T06:28:15Z</time>
      </trkpt>
      <trkpt lat="42.558012000" lon="-2.447923000">
        <ele>605.70</ele>
        <time>2016-10-15T06:28:16Z</time>
      </trkpt>
      <trkpt lat="42.558031000" lon="-2.447930000">
        <ele>606.00</ele>
        <time>2016-10-15T06:28:17Z</time>
      </trkpt>
      <trkpt lat="42.558049000" lon="-2.447937000">
        <ele>606.20</ele>
        <time>2016-10-15T06:28:18Z</time>
      </trkpt>
      <trkpt lat="42.558070000" lon="-2.447947000">
        <ele>606.40</ele>
        <time>2016-10-15T06:28:19Z</time>
      </trkpt>
      <trkpt lat="42.558091000" lon="-2.447954000">
        <ele>606.50</ele>
        <time>2016-10-15T06:28:20Z</time>
      </trkpt>
      <trkpt lat="42.558110000" lon="-2.447958000">
        <ele>606.70</ele>
        <time>2016-10-15T06:28:21Z</time>
      </trkpt>
      <trkpt lat="42.558128000" lon="-2.447964000">
        <ele>606.80</ele>
        <time>2016-10-15T06:28:22Z</time>
      </trkpt>
      <trkpt lat="42.558146000" lon="-2.447974000">
        <ele>606.90</ele>
        <time>2016-10-15T06:28:23Z</time>
      </trkpt>
      <trkpt lat="42.558166000" lon="-2.447981000">
        <ele>606.90</ele>
        <time>2016-10-15T06:28:24Z</time>
      </trkpt>
      <trkpt lat="42.558187000" lon="-2.447986000">
        <ele>606.90</ele>
        <time>2016-10-15T06:28:25Z</time>
      </trkpt>
      <trkpt lat="42.558204000" lon="-2.447992000">
        <ele>606.90</ele>
        <time>2016-10-15T06:28:26Z</time>
      </trkpt>
      <trkpt lat="42.558225000" lon="-2.447994000">
        <ele>606.90</ele>
        <time>2016-10-15T06:28:27Z</time>
      </trkpt>
      <trkpt lat="42.558246000" lon="-2.448000000">
        <ele>607.00</ele>
        <time>2016-10-15T06:28:28Z</time>
      </trkpt>
      <trkpt lat="42.558265000" lon="-2.448006000">
        <ele>607.20</ele>
        <time>2016-10-15T06:28:29Z</time>
      </trkpt>
      <trkpt lat="42.558284000" lon="-2.448016000">
        <ele>607.40</ele>
        <time>2016-10-15T06:28:30Z</time>
      </trkpt>
      <trkpt lat="42.558304000" lon="-2.448021000">
        <ele>607.60</ele>
        <time>2016-10-15T06:28:31Z</time>
      </trkpt>
      <trkpt lat="42.558322000" lon="-2.448030000">
        <ele>607.70</ele>
        <time>2016-10-15T06:28:32Z</time>
      </trkpt>
      <trkpt lat="42.558341000" lon="-2.448037000">
        <ele>607.80</ele>
        <time>2016-10-15T06:28:33Z</time>
      </trkpt>
      <trkpt lat="42.558363000" lon="-2.448042000">
        <ele>607.90</ele>
        <time>2016-10-15T06:28:34Z</time>
      </trkpt>
      <trkpt lat="42.558381000" lon="-2.448051000">
        <ele>608.00</ele>
        <time>2016-10-15T06:28:35Z</time>
      </trkpt>
      <trkpt lat="42.558400000" lon="-2.448059000">
        <ele>608.20</ele>
        <time>2016-10-15T06:28:36Z</time>
      </trkpt>
      <trkpt lat="42.558418000" lon="-2.448065000">
        <ele>608.30</ele>
        <time>2016-10-15T06:28:37Z</time>
      </trkpt>
      <trkpt lat="42.558439000" lon="-2.448073000">
        <ele>608.40</ele>
        <time>2016-10-15T06:28:38Z</time>
      </trkpt>
      <trkpt lat="42.558458000" lon="-2.448078000">
        <ele>608.40</ele>
        <time>2016-10-15T06:28:39Z</time>
      </trkpt>
      <trkpt lat="42.558477000" lon="-2.448085000">
        <ele>608.50</ele>
        <time>2016-10-15T06:28:40Z</time>
      </trkpt>
      <trkpt lat="42.558497000" lon="-2.448092000">
        <ele>608.50</ele>
        <time>2016-10-15T06:28:41Z</time>
      </trkpt>
      <trkpt lat="42.558515000" lon="-2.448097000">
        <ele>608.60</ele>
        <time>2016-10-15T06:28:42Z</time>
      </trkpt>
      <trkpt lat="42.558534000" lon="-2.448108000">
        <ele>608.70</ele>
        <time>2016-10-15T06:28:43Z</time>
      </trkpt>
      <trkpt lat="42.558552000" lon="-2.448112000">
        <ele>608.70</ele>
        <time>2016-10-15T06:28:44Z</time>
      </trkpt>
      <trkpt lat="42.558573000" lon="-2.448117000">
        <ele>608.80</ele>
        <time>2016-10-15T06:28:45Z</time>
      </trkpt>
      <trkpt lat="42.558592000" lon="-2.448123000">
        <ele>608.80</ele>
        <time>2016-10-15T06:28:46Z</time>
      </trkpt>
      <trkpt lat="42.558611000" lon="-2.448127000">
        <ele>608.90</ele>
        <time>2016-10-15T06:28:47Z</time>
      </trkpt>
      <trkpt lat="42.558632000" lon="-2.448134000">
        <ele>608.90</ele>
        <time>2016-10-15T06:28:48Z</time>
      </trkpt>
      <trkpt lat="42.558652000" lon="-2.448142000">
        <ele>609.10</ele>
        <time>2016-10-15T06:28:49Z</time>
      </trkpt>
      <trkpt lat="42.558673000" lon="-2.448150000">
        <ele>609.30</ele>
        <time>2016-10-15T06:28:50Z</time>
      </trkpt>
      <trkpt lat="42.558696000" lon="-2.448156000">
        <ele>609.60</ele>
        <time>2016-10-15T06:28:51Z</time>
      </trkpt>
      <trkpt lat="42.558715000" lon="-2.448166000">
        <ele>609.80</ele>
        <time>2016-10-15T06:28:52Z</time>
      </trkpt>
      <trkpt lat="42.558736000" lon="-2.448172000">
        <ele>609.80</ele>
        <time>2016-10-15T06:28:53Z</time>
      </trkpt>
      <trkpt lat="42.558757000" lon="-2.448177000">
        <ele>609.80</ele>
        <time>2016-10-15T06:28:54Z</time>
      </trkpt>
      <trkpt lat="42.558779000" lon="-2.448186000">
        <ele>609.80</ele>
        <time>2016-10-15T06:28:55Z</time>
      </trkpt>
      <trkpt lat="42.558799000" lon="-2.448195000">
        <ele>609.80</ele>
        <time>2016-10-15T06:28:56Z</time>
      </trkpt>
      <trkpt lat="42.558820000" lon="-2.448201000">
        <ele>609.80</ele>
        <time>2016-10-15T06:28:57Z</time>
      </trkpt>
      <trkpt lat="42.558841000" lon="-2.448204000">
        <ele>609.80</ele>
        <time>2016-10-15T06:28:58Z</time>
      </trkpt>
      <trkpt lat="42.558861000" lon="-2.448212000">
        <ele>610.00</ele>
        <time>2016-10-15T06:28:59Z</time>
      </trkpt>
      <trkpt lat="42.558881000" lon="-2.448221000">
        <ele>610.20</ele>
        <time>2016-10-15T06:29:00Z</time>
      </trkpt>
      <trkpt lat="42.558901000" lon="-2.448228000">
        <ele>610.30</ele>
        <time>2016-10-15T06:29:01Z</time>
      </trkpt>
      <trkpt lat="42.558922000" lon="-2.448234000">
        <ele>610.40</ele>
        <time>2016-10-15T06:29:02Z</time>
      </trkpt>
      <trkpt lat="42.558943000" lon="-2.448241000">
        <ele>610.50</ele>
        <time>2016-10-15T06:29:03Z</time>
      </trkpt>
      <trkpt lat="42.558963000" lon="-2.448248000">
        <ele>610.60</ele>
        <time>2016-10-15T06:29:04Z</time>
      </trkpt>
      <trkpt lat="42.558983000" lon="-2.448256000">
        <ele>610.70</ele>
        <time>2016-10-15T06:29:05Z</time>
      </trkpt>
      <trkpt lat="42.559004000" lon="-2.448264000">
        <ele>610.80</ele>
        <time>2016-10-15T06:29:06Z</time>
      </trkpt>
      <trkpt lat="42.559026000" lon="-2.448270000">
        <ele>610.80</ele>
        <time>2016-10-15T06:29:07Z</time>
      </trkpt>
      <trkpt lat="42.559048000" lon="-2.448278000">
        <ele>610.80</ele>
        <time>2016-10-15T06:29:08Z</time>
      </trkpt>
      <trkpt lat="42.559071000" lon="-2.448286000">
        <ele>610.90</ele>
        <time>2016-10-15T06:29:09Z</time>
      </trkpt>
      <trkpt lat="42.559092000" lon="-2.448294000">
        <ele>611.00</ele>
        <time>2016-10-15T06:29:10Z</time>
      </trkpt>
      <trkpt lat="42.559113000" lon="-2.448301000">
        <ele>611.20</ele>
        <time>2016-10-15T06:29:11Z</time>
      </trkpt>
      <trkpt lat="42.559134000" lon="-2.448307000">
        <ele>611.30</ele>
        <time>2016-10-15T06:29:12Z</time>
      </trkpt>
      <trkpt lat="42.559177000" lon="-2.448323000">
        <ele>611.50</ele>
        <time>2016-10-15T06:29:14Z</time>
      </trkpt>
      <trkpt lat="42.559199000" lon="-2.448330000">
        <ele>611.70</ele>
        <time>2016-10-15T06:29:15Z</time>
      </trkpt>
      <trkpt lat="42.559220000" lon="-2.448338000">
        <ele>611.90</ele>
        <time>2016-10-15T06:29:16Z</time>
      </trkpt>
      <trkpt lat="42.559242000" lon="-2.448345000">
        <ele>612.00</ele>
        <time>2016-10-15T06:29:17Z</time>
      </trkpt>
      <trkpt lat="42.559265000" lon="-2.448350000">
        <ele>612.20</ele>
        <time>2016-10-15T06:29:18Z</time>
      </trkpt>
      <trkpt lat="42.559288000" lon="-2.448358000">
        <ele>612.10</ele>
        <time>2016-10-15T06:29:19Z</time>
      </trkpt>
      <trkpt lat="42.559310000" lon="-2.448366000">
        <ele>612.10</ele>
        <time>2016-10-15T06:29:20Z</time>
      </trkpt>
      <trkpt lat="42.559332000" lon="-2.448376000">
        <ele>612.00</ele>
        <time>2016-10-15T06:29:21Z</time>
      </trkpt>
      <trkpt lat="42.559356000" lon="-2.448385000">
        <ele>612.00</ele>
        <time>2016-10-15T06:29:22Z</time>
      </trkpt>
      <trkpt lat="42.559377000" lon="-2.448393000">
        <ele>612.20</ele>
        <time>2016-10-15T06:29:23Z</time>
      </trkpt>
      <trkpt lat="42.559400000" lon="-2.448403000">
        <ele>612.40</ele>
        <time>2016-10-15T06:29:24Z</time>
      </trkpt>
      <trkpt lat="42.559423000" lon="-2.448411000">
        <ele>612.50</ele>
        <time>2016-10-15T06:29:25Z</time>
      </trkpt>
      <trkpt lat="42.559446000" lon="-2.448418000">
        <ele>612.60</ele>
        <time>2016-10-15T06:29:26Z</time>
      </trkpt>
      <trkpt lat="42.559469000" lon="-2.448424000">
        <ele>612.60</ele>
        <time>2016-10-15T06:29:27Z</time>
      </trkpt>
      <trkpt lat="42.559492000" lon="-2.448434000">
        <ele>612.60</ele>
        <time>2016-10-15T06:29:28Z</time>
      </trkpt>
      <trkpt lat="42.559514000" lon="-2.448440000">
        <ele>612.60</ele>
        <time>2016-10-15T06:29:29Z</time>
      </trkpt>
      <trkpt lat="42.559533000" lon="-2.448448000">
        <ele>612.60</ele>
        <time>2016-10-15T06:29:30Z</time>
      </trkpt>
      <trkpt lat="42.559553000" lon="-2.448454000">
        <ele>612.80</ele>
        <time>2016-10-15T06:29:31Z</time>
      </trkpt>
      <trkpt lat="42.559575000" lon="-2.448462000">
        <ele>613.00</ele>
        <time>2016-10-15T06:29:32Z</time>
      </trkpt>
      <trkpt lat="42.559595000" lon="-2.448469000">
        <ele>613.10</ele>
        <time>2016-10-15T06:29:33Z</time>
      </trkpt>
      <trkpt lat="42.559619000" lon="-2.448476000">
        <ele>613.20</ele>
        <time>2016-10-15T06:29:34Z</time>
      </trkpt>
      <trkpt lat="42.559642000" lon="-2.448485000">
        <ele>613.40</ele>
        <time>2016-10-15T06:29:35Z</time>
      </trkpt>
      <trkpt lat="42.559665000" lon="-2.448494000">
        <ele>613.50</ele>
        <time>2016-10-15T06:29:36Z</time>
      </trkpt>
      <trkpt lat="42.559686000" lon="-2.448507000">
        <ele>613.70</ele>
        <time>2016-10-15T06:29:37Z</time>
      </trkpt>
      <trkpt lat="42.559708000" lon="-2.448514000">
        <ele>613.90</ele>
        <time>2016-10-15T06:29:38Z</time>
      </trkpt>
      <trkpt lat="42.559729000" lon="-2.448522000">
        <ele>614.10</ele>
        <time>2016-10-15T06:29:39Z</time>
      </trkpt>
      <trkpt lat="42.559751000" lon="-2.448527000">
        <ele>614.20</ele>
        <time>2016-10-15T06:29:40Z</time>
      </trkpt>
      <trkpt lat="42.559772000" lon="-2.448534000">
        <ele>614.30</ele>
        <time>2016-10-15T06:29:41Z</time>
      </trkpt>
      <trkpt lat="42.559792000" lon="-2.448541000">
        <ele>614.40</ele>
        <time>2016-10-15T06:29:42Z</time>
      </trkpt>
      <trkpt lat="42.559813000" lon="-2.448546000">
        <ele>614.40</ele>
        <time>2016-10-15T06:29:43Z</time>
      </trkpt>
      <trkpt lat="42.559837000" lon="-2.448554000">
        <ele>614.50</ele>
        <time>2016-10-15T06:29:44Z</time>
      </trkpt>
      <trkpt lat="42.559860000" lon="-2.448565000">
        <ele>614.50</ele>
        <time>2016-10-15T06:29:45Z</time>
      </trkpt>
      <trkpt lat="42.559882000" lon="-2.448573000">
        <ele>614.60</ele>
        <time>2016-10-15T06:29:46Z</time>
      </trkpt>
      <trkpt lat="42.559906000" lon="-2.448581000">
        <ele>614.60</ele>
        <time>2016-10-15T06:29:47Z</time>
      </trkpt>
      <trkpt lat="42.559929000" lon="-2.448587000">
        <ele>614.60</ele>
        <time>2016-10-15T06:29:48Z</time>
      </trkpt>
      <trkpt lat="42.559951000" lon="-2.448597000">
        <ele>614.60</ele>
        <time>2016-10-15T06:29:49Z</time>
      </trkpt>
      <trkpt lat="42.559974000" lon="-2.448605000">
        <ele>614.70</ele>
        <time>2016-10-15T06:29:50Z</time>
      </trkpt>
      <trkpt lat="42.559994000" lon="-2.448615000">
        <ele>614.70</ele>
        <time>2016-10-15T06:29:51Z</time>
      </trkpt>
      <trkpt lat="42.560015000" lon="-2.448623000">
        <ele>614.70</ele>
        <time>2016-10-15T06:29:52Z</time>
      </trkpt>
      <trkpt lat="42.560037000" lon="-2.448631000">
        <ele>614.90</ele>
        <time>2016-10-15T06:29:53Z</time>
      </trkpt>
      <trkpt lat="42.560058000" lon="-2.448640000">
        <ele>615.00</ele>
        <time>2016-10-15T06:29:54Z</time>
      </trkpt>
      <trkpt lat="42.560081000" lon="-2.448648000">
        <ele>615.20</ele>
        <time>2016-10-15T06:29:55Z</time>
      </trkpt>
      <trkpt lat="42.560106000" lon="-2.448654000">
        <ele>615.40</ele>
        <time>2016-10-15T06:29:56Z</time>
      </trkpt>
      <trkpt lat="42.560129000" lon="-2.448660000">
        <ele>615.60</ele>
        <time>2016-10-15T06:29:57Z</time>
      </trkpt>
      <trkpt lat="42.560151000" lon="-2.448668000">
        <ele>615.70</ele>
        <time>2016-10-15T06:29:58Z</time>
      </trkpt>
      <trkpt lat="42.560173000" lon="-2.448676000">
        <ele>615.80</ele>
        <time>2016-10-15T06:29:59Z</time>
      </trkpt>
      <trkpt lat="42.560196000" lon="-2.448685000">
        <ele>615.80</ele>
        <time>2016-10-15T06:30:00Z</time>
      </trkpt>
      <trkpt lat="42.560219000" lon="-2.448692000">
        <ele>616.00</ele>
        <time>2016-10-15T06:30:01Z</time>
      </trkpt>
      <trkpt lat="42.560242000" lon="-2.448697000">
        <ele>616.10</ele>
        <time>2016-10-15T06:30:02Z</time>
      </trkpt>
      <trkpt lat="42.560264000" lon="-2.448701000">
        <ele>616.30</ele>
        <time>2016-10-15T06:30:03Z</time>
      </trkpt>
      <trkpt lat="42.560286000" lon="-2.448705000">
        <ele>616.40</ele>
        <time>2016-10-15T06:30:04Z</time>
      </trkpt>
      <trkpt lat="42.560310000" lon="-2.448708000">
        <ele>616.40</ele>
        <time>2016-10-15T06:30:05Z</time>
      </trkpt>
      <trkpt lat="42.560332000" lon="-2.448711000">
        <ele>616.40</ele>
        <time>2016-10-15T06:30:06Z</time>
      </trkpt>
      <trkpt lat="42.560356000" lon="-2.448713000">
        <ele>616.50</ele>
        <time>2016-10-15T06:30:07Z</time>
      </trkpt>
      <trkpt lat="42.560379000" lon="-2.448717000">
        <ele>616.60</ele>
        <time>2016-10-15T06:30:08Z</time>
      </trkpt>
      <trkpt lat="42.560401000" lon="-2.448719000">
        <ele>616.70</ele>
        <time>2016-10-15T06:30:09Z</time>
      </trkpt>
      <trkpt lat="42.560422000" lon="-2.448717000">
        <ele>616.80</ele>
        <time>2016-10-15T06:30:10Z</time>
      </trkpt>
      <trkpt lat="42.560443000" lon="-2.448721000">
        <ele>617.00</ele>
        <time>2016-10-15T06:30:11Z</time>
      </trkpt>
      <trkpt lat="42.560467000" lon="-2.448723000">
        <ele>617.10</ele>
        <time>2016-10-15T06:30:12Z</time>
      </trkpt>
      <trkpt lat="42.560492000" lon="-2.448724000">
        <ele>617.20</ele>
        <time>2016-10-15T06:30:13Z</time>
      </trkpt>
      <trkpt lat="42.560541000" lon="-2.448719000">
        <ele>617.30</ele>
        <time>2016-10-15T06:30:15Z</time>
      </trkpt>
      <trkpt lat="42.560565000" lon="-2.448714000">
        <ele>617.30</ele>
        <time>2016-10-15T06:30:16Z</time>
      </trkpt>
      <trkpt lat="42.560586000" lon="-2.448709000">
        <ele>617.30</ele>
        <time>2016-10-15T06:30:17Z</time>
      </trkpt>
      <trkpt lat="42.560609000" lon="-2.448701000">
        <ele>617.30</ele>
        <time>2016-10-15T06:30:18Z</time>
      </trkpt>
      <trkpt lat="42.560632000" lon="-2.448695000">
        <ele>617.30</ele>
        <time>2016-10-15T06:30:19Z</time>
      </trkpt>
      <trkpt lat="42.560655000" lon="-2.448685000">
        <ele>617.30</ele>
        <time>2016-10-15T06:30:20Z</time>
      </trkpt>
      <trkpt lat="42.560679000" lon="-2.448674000">
        <ele>617.30</ele>
        <time>2016-10-15T06:30:21Z</time>
      </trkpt>
      <trkpt lat="42.560701000" lon="-2.448665000">
        <ele>617.30</ele>
        <time>2016-10-15T06:30:22Z</time>
      </trkpt>
      <trkpt lat="42.560720000" lon="-2.448656000">
        <ele>617.30</ele>
        <time>2016-10-15T06:30:23Z</time>
      </trkpt>
      <trkpt lat="42.560740000" lon="-2.448642000">
        <ele>617.40</ele>
        <time>2016-10-15T06:30:24Z</time>
      </trkpt>
      <trkpt lat="42.560760000" lon="-2.448627000">
        <ele>617.50</ele>
        <time>2016-10-15T06:30:25Z</time>
      </trkpt>
      <trkpt lat="42.560779000" lon="-2.448613000">
        <ele>617.60</ele>
        <time>2016-10-15T06:30:26Z</time>
      </trkpt>
      <trkpt lat="42.560798000" lon="-2.448596000">
        <ele>617.70</ele>
        <time>2016-10-15T06:30:27Z</time>
      </trkpt>
      <trkpt lat="42.560815000" lon="-2.448580000">
        <ele>617.80</ele>
        <time>2016-10-15T06:30:28Z</time>
      </trkpt>
      <trkpt lat="42.560833000" lon="-2.448564000">
        <ele>617.90</ele>
        <time>2016-10-15T06:30:29Z</time>
      </trkpt>
      <trkpt lat="42.560848000" lon="-2.448548000">
        <ele>618.10</ele>
        <time>2016-10-15T06:30:30Z</time>
      </trkpt>
      <trkpt lat="42.560863000" lon="-2.448531000">
        <ele>618.20</ele>
        <time>2016-10-15T06:30:31Z</time>
      </trkpt>
      <trkpt lat="42.560880000" lon="-2.448514000">
        <ele>618.60</ele>
        <time>2016-10-15T06:30:32Z</time>
      </trkpt>
      <trkpt lat="42.560895000" lon="-2.448497000">
        <ele>618.90</ele>
        <time>2016-10-15T06:30:33Z</time>
      </trkpt>
      <trkpt lat="42.560912000" lon="-2.448480000">
        <ele>619.30</ele>
        <time>2016-10-15T06:30:34Z</time>
      </trkpt>
      <trkpt lat="42.560924000" lon="-2.448463000">
        <ele>619.50</ele>
        <time>2016-10-15T06:30:35Z</time>
      </trkpt>
      <trkpt lat="42.560936000" lon="-2.448445000">
        <ele>619.70</ele>
        <time>2016-10-15T06:30:36Z</time>
      </trkpt>
      <trkpt lat="42.560949000" lon="-2.448428000">
        <ele>619.90</ele>
        <time>2016-10-15T06:30:37Z</time>
      </trkpt>
      <trkpt lat="42.560961000" lon="-2.448407000">
        <ele>620.00</ele>
        <time>2016-10-15T06:30:38Z</time>
      </trkpt>
      <trkpt lat="42.560973000" lon="-2.448390000">
        <ele>620.10</ele>
        <time>2016-10-15T06:30:39Z</time>
      </trkpt>
      <trkpt lat="42.560982000" lon="-2.448378000">
        <ele>620.20</ele>
        <time>2016-10-15T06:30:40Z</time>
      </trkpt>
      <trkpt lat="42.560995000" lon="-2.448369000">
        <ele>620.20</ele>
        <time>2016-10-15T06:30:41Z</time>
      </trkpt>
      <trkpt lat="42.561007000" lon="-2.448352000">
        <ele>620.50</ele>
        <time>2016-10-15T06:30:42Z</time>
      </trkpt>
      <trkpt lat="42.561016000" lon="-2.448334000">
        <ele>620.70</ele>
        <time>2016-10-15T06:30:43Z</time>
      </trkpt>
      <trkpt lat="42.561029000" lon="-2.448315000">
        <ele>620.80</ele>
        <time>2016-10-15T06:30:44Z</time>
      </trkpt>
      <trkpt lat="42.561040000" lon="-2.448297000">
        <ele>620.90</ele>
        <time>2016-10-15T06:30:45Z</time>
      </trkpt>
      <trkpt lat="42.561051000" lon="-2.448282000">
        <ele>621.00</ele>
        <time>2016-10-15T06:30:46Z</time>
      </trkpt>
      <trkpt lat="42.561062000" lon="-2.448266000">
        <ele>621.10</ele>
        <time>2016-10-15T06:30:47Z</time>
      </trkpt>
      <trkpt lat="42.561073000" lon="-2.448251000">
        <ele>621.20</ele>
        <time>2016-10-15T06:30:48Z</time>
      </trkpt>
      <trkpt lat="42.561086000" lon="-2.448234000">
        <ele>621.40</ele>
        <time>2016-10-15T06:30:49Z</time>
      </trkpt>
      <trkpt lat="42.561099000" lon="-2.448224000">
        <ele>621.60</ele>
        <time>2016-10-15T06:30:50Z</time>
      </trkpt>
      <trkpt lat="42.561111000" lon="-2.448212000">
        <ele>621.80</ele>
        <time>2016-10-15T06:30:51Z</time>
      </trkpt>
      <trkpt lat="42.561126000" lon="-2.448199000">
        <ele>621.90</ele>
        <time>2016-10-15T06:30:52Z</time>
      </trkpt>
      <trkpt lat="42.561139000" lon="-2.448187000">
        <ele>622.00</ele>
        <time>2016-10-15T06:30:53Z</time>
      </trkpt>
      <trkpt lat="42.561153000" lon="-2.448178000">
        <ele>622.10</ele>
        <time>2016-10-15T06:30:54Z</time>
      </trkpt>
      <trkpt lat="42.561170000" lon="-2.448173000">
        <ele>622.20</ele>
        <time>2016-10-15T06:30:55Z</time>
      </trkpt>
      <trkpt lat="42.561184000" lon="-2.448162000">
        <ele>622.70</ele>
        <time>2016-10-15T06:30:56Z</time>
      </trkpt>
      <trkpt lat="42.561199000" lon="-2.448155000">
        <ele>623.00</ele>
        <time>2016-10-15T06:30:57Z</time>
      </trkpt>
      <trkpt lat="42.561213000" lon="-2.448145000">
        <ele>623.20</ele>
        <time>2016-10-15T06:30:58Z</time>
      </trkpt>
      <trkpt lat="42.561229000" lon="-2.448142000">
        <ele>623.40</ele>
        <time>2016-10-15T06:30:59Z</time>
      </trkpt>
      <trkpt lat="42.561243000" lon="-2.448139000">
        <ele>623.60</ele>
        <time>2016-10-15T06:31:00Z</time>
      </trkpt>
      <trkpt lat="42.561260000" lon="-2.448137000">
        <ele>623.80</ele>
        <time>2016-10-15T06:31:01Z</time>
      </trkpt>
      <trkpt lat="42.561278000" lon="-2.448135000">
        <ele>624.00</ele>
        <time>2016-10-15T06:31:02Z</time>
      </trkpt>
      <trkpt lat="42.561294000" lon="-2.448134000">
        <ele>624.10</ele>
        <time>2016-10-15T06:31:03Z</time>
      </trkpt>
      <trkpt lat="42.561311000" lon="-2.448137000">
        <ele>624.40</ele>
        <time>2016-10-15T06:31:04Z</time>
      </trkpt>
      <trkpt lat="42.561326000" lon="-2.448137000">
        <ele>624.60</ele>
        <time>2016-10-15T06:31:05Z</time>
      </trkpt>
      <trkpt lat="42.561341000" lon="-2.448135000">
        <ele>624.90</ele>
        <time>2016-10-15T06:31:06Z</time>
      </trkpt>
      <trkpt lat="42.561357000" lon="-2.448137000">
        <ele>625.10</ele>
        <time>2016-10-15T06:31:07Z</time>
      </trkpt>
      <trkpt lat="42.561372000" lon="-2.448141000">
        <ele>625.40</ele>
        <time>2016-10-15T06:31:08Z</time>
      </trkpt>
      <trkpt lat="42.561387000" lon="-2.448149000">
        <ele>625.60</ele>
        <time>2016-10-15T06:31:09Z</time>
      </trkpt>
      <trkpt lat="42.561404000" lon="-2.448157000">
        <ele>625.90</ele>
        <time>2016-10-15T06:31:10Z</time>
      </trkpt>
      <trkpt lat="42.561420000" lon="-2.448160000">
        <ele>626.20</ele>
        <time>2016-10-15T06:31:11Z</time>
      </trkpt>
      <trkpt lat="42.561433000" lon="-2.448163000">
        <ele>626.40</ele>
        <time>2016-10-15T06:31:12Z</time>
      </trkpt>
      <trkpt lat="42.561445000" lon="-2.448166000">
        <ele>626.60</ele>
        <time>2016-10-15T06:31:13Z</time>
      </trkpt>
      <trkpt lat="42.561459000" lon="-2.448176000">
        <ele>626.90</ele>
        <time>2016-10-15T06:31:14Z</time>
      </trkpt>
      <trkpt lat="42.561493000" lon="-2.448207000">
        <ele>627.30</ele>
        <time>2016-10-15T06:31:16Z</time>
      </trkpt>
      <trkpt lat="42.561513000" lon="-2.448220000">
        <ele>627.50</ele>
        <time>2016-10-15T06:31:17Z</time>
      </trkpt>
      <trkpt lat="42.561532000" lon="-2.448227000">
        <ele>627.60</ele>
        <time>2016-10-15T06:31:18Z</time>
      </trkpt>
      <trkpt lat="42.561550000" lon="-2.448236000">
        <ele>627.80</ele>
        <time>2016-10-15T06:31:19Z</time>
      </trkpt>
      <trkpt lat="42.561567000" lon="-2.448249000">
        <ele>627.90</ele>
        <time>2016-10-15T06:31:20Z</time>
      </trkpt>
      <trkpt lat="42.561584000" lon="-2.448260000">
        <ele>627.90</ele>
        <time>2016-10-15T06:31:21Z</time>
      </trkpt>
      <trkpt lat="42.561597000" lon="-2.448270000">
        <ele>628.10</ele>
        <time>2016-10-15T06:31:22Z</time>
      </trkpt>
      <trkpt lat="42.561613000" lon="-2.448277000">
        <ele>628.30</ele>
        <time>2016-10-15T06:31:23Z</time>
      </trkpt>
      <trkpt lat="42.561629000" lon="-2.448285000">
        <ele>628.40</ele>
        <time>2016-10-15T06:31:24Z</time>
      </trkpt>
      <trkpt lat="42.561646000" lon="-2.448293000">
        <ele>628.40</ele>
        <time>2016-10-15T06:31:25Z</time>
      </trkpt>
      <trkpt lat="42.561663000" lon="-2.448304000">
        <ele>628.70</ele>
        <time>2016-10-15T06:31:26Z</time>
      </trkpt>
      <trkpt lat="42.561679000" lon="-2.448313000">
        <ele>628.90</ele>
        <time>2016-10-15T06:31:27Z</time>
      </trkpt>
      <trkpt lat="42.561695000" lon="-2.448323000">
        <ele>629.10</ele>
        <time>2016-10-15T06:31:28Z</time>
      </trkpt>
      <trkpt lat="42.561708000" lon="-2.448328000">
        <ele>629.30</ele>
        <time>2016-10-15T06:31:29Z</time>
      </trkpt>
      <trkpt lat="42.561725000" lon="-2.448334000">
        <ele>629.40</ele>
        <time>2016-10-15T06:31:30Z</time>
      </trkpt>
      <trkpt lat="42.561741000" lon="-2.448341000">
        <ele>629.50</ele>
        <time>2016-10-15T06:31:31Z</time>
      </trkpt>
      <trkpt lat="42.561758000" lon="-2.448351000">
        <ele>629.50</ele>
        <time>2016-10-15T06:31:32Z</time>
      </trkpt>
      <trkpt lat="42.561776000" lon="-2.448358000">
        <ele>629.60</ele>
        <time>2016-10-15T06:31:33Z</time>
      </trkpt>
      <trkpt lat="42.561793000" lon="-2.448366000">
        <ele>629.70</ele>
        <time>2016-10-15T06:31:34Z</time>
      </trkpt>
      <trkpt lat="42.561807000" lon="-2.448378000">
        <ele>629.80</ele>
        <time>2016-10-15T06:31:35Z</time>
      </trkpt>
      <trkpt lat="42.561824000" lon="-2.448385000">
        <ele>630.00</ele>
        <time>2016-10-15T06:31:36Z</time>
      </trkpt>
      <trkpt lat="42.561842000" lon="-2.448394000">
        <ele>630.10</ele>
        <time>2016-10-15T06:31:37Z</time>
      </trkpt>
      <trkpt lat="42.561857000" lon="-2.448406000">
        <ele>630.30</ele>
        <time>2016-10-15T06:31:38Z</time>
      </trkpt>
      <trkpt lat="42.561876000" lon="-2.448416000">
        <ele>630.40</ele>
        <time>2016-10-15T06:31:39Z</time>
      </trkpt>
      <trkpt lat="42.561894000" lon="-2.448429000">
        <ele>630.50</ele>
        <time>2016-10-15T06:31:40Z</time>
      </trkpt>
      <trkpt lat="42.561914000" lon="-2.448437000">
        <ele>630.60</ele>
        <time>2016-10-15T06:31:41Z</time>
      </trkpt>
      <trkpt lat="42.561931000" lon="-2.448447000">
        <ele>630.70</ele>
        <time>2016-10-15T06:31:42Z</time>
      </trkpt>
      <trkpt lat="42.561948000" lon="-2.448457000">
        <ele>630.80</ele>
        <time>2016-10-15T06:31:43Z</time>
      </trkpt>
      <trkpt lat="42.561966000" lon="-2.448466000">
        <ele>631.10</ele>
        <time>2016-10-15T06:31:44Z</time>
      </trkpt>
      <trkpt lat="42.561984000" lon="-2.448477000">
        <ele>631.40</ele>
        <time>2016-10-15T06:31:45Z</time>
      </trkpt>
      <trkpt lat="42.562000000" lon="-2.448487000">
        <ele>631.70</ele>
        <time>2016-10-15T06:31:46Z</time>
      </trkpt>
      <trkpt lat="42.562017000" lon="-2.448495000">
        <ele>631.90</ele>
        <time>2016-10-15T06:31:47Z</time>
      </trkpt>
      <trkpt lat="42.562036000" lon="-2.448506000">
        <ele>632.10</ele>
        <time>2016-10-15T06:31:48Z</time>
      </trkpt>
      <trkpt lat="42.562054000" lon="-2.448512000">
        <ele>632.30</ele>
        <time>2016-10-15T06:31:49Z</time>
      </trkpt>
      <trkpt lat="42.562073000" lon="-2.448520000">
        <ele>632.40</ele>
        <time>2016-10-15T06:31:50Z</time>
      </trkpt>
      <trkpt lat="42.562091000" lon="-2.448528000">
        <ele>632.40</ele>
        <time>2016-10-15T06:31:51Z</time>
      </trkpt>
      <trkpt lat="42.562110000" lon="-2.448537000">
        <ele>632.60</ele>
        <time>2016-10-15T06:31:52Z</time>
      </trkpt>
      <trkpt lat="42.562130000" lon="-2.448548000">
        <ele>632.70</ele>
        <time>2016-10-15T06:31:53Z</time>
      </trkpt>
      <trkpt lat="42.562151000" lon="-2.448555000">
        <ele>632.80</ele>
        <time>2016-10-15T06:31:54Z</time>
      </trkpt>
      <trkpt lat="42.562171000" lon="-2.448563000">
        <ele>632.80</ele>
        <time>2016-10-15T06:31:55Z</time>
      </trkpt>
      <trkpt lat="42.562190000" lon="-2.448569000">
        <ele>632.90</ele>
        <time>2016-10-15T06:31:56Z</time>
      </trkpt>
      <trkpt lat="42.562208000" lon="-2.448574000">
        <ele>632.90</ele>
        <time>2016-10-15T06:31:57Z</time>
      </trkpt>
      <trkpt lat="42.562228000" lon="-2.448578000">
        <ele>633.00</ele>
        <time>2016-10-15T06:31:58Z</time>
      </trkpt>
      <trkpt lat="42.562249000" lon="-2.448582000">
        <ele>633.10</ele>
        <time>2016-10-15T06:31:59Z</time>
      </trkpt>
      <trkpt lat="42.562270000" lon="-2.448585000">
        <ele>633.20</ele>
        <time>2016-10-15T06:32:00Z</time>
      </trkpt>
      <trkpt lat="42.562293000" lon="-2.448585000">
        <ele>633.30</ele>
        <time>2016-10-15T06:32:01Z</time>
      </trkpt>
      <trkpt lat="42.562313000" lon="-2.448587000">
        <ele>633.40</ele>
        <time>2016-10-15T06:32:02Z</time>
      </trkpt>
      <trkpt lat="42.562335000" lon="-2.448587000">
        <ele>633.50</ele>
        <time>2016-10-15T06:32:03Z</time>
      </trkpt>
      <trkpt lat="42.562357000" lon="-2.448586000">
        <ele>633.70</ele>
        <time>2016-10-15T06:32:04Z</time>
      </trkpt>
      <trkpt lat="42.562379000" lon="-2.448586000">
        <ele>633.90</ele>
        <time>2016-10-15T06:32:05Z</time>
      </trkpt>
      <trkpt lat="42.562399000" lon="-2.448585000">
        <ele>634.00</ele>
        <time>2016-10-15T06:32:06Z</time>
      </trkpt>
      <trkpt lat="42.562420000" lon="-2.448584000">
        <ele>634.20</ele>
        <time>2016-10-15T06:32:07Z</time>
      </trkpt>
      <trkpt lat="42.562440000" lon="-2.448580000">
        <ele>634.30</ele>
        <time>2016-10-15T06:32:08Z</time>
      </trkpt>
      <trkpt lat="42.562462000" lon="-2.448580000">
        <ele>634.40</ele>
        <time>2016-10-15T06:32:09Z</time>
      </trkpt>
      <trkpt lat="42.562482000" lon="-2.448580000">
        <ele>634.60</ele>
        <time>2016-10-15T06:32:10Z</time>
      </trkpt>
      <trkpt lat="42.562502000" lon="-2.448581000">
        <ele>634.70</ele>
        <time>2016-10-15T06:32:11Z</time>
      </trkpt>
      <trkpt lat="42.562523000" lon="-2.448582000">
        <ele>634.80</ele>
        <time>2016-10-15T06:32:12Z</time>
      </trkpt>
      <trkpt lat="42.562543000" lon="-2.448586000">
        <ele>634.80</ele>
        <time>2016-10-15T06:32:13Z</time>
      </trkpt>
      <trkpt lat="42.562564000" lon="-2.448591000">
        <ele>635.00</ele>
        <time>2016-10-15T06:32:14Z</time>
      </trkpt>
      <trkpt lat="42.562583000" lon="-2.448598000">
        <ele>635.10</ele>
        <time>2016-10-15T06:32:15Z</time>
      </trkpt>
      <trkpt lat="42.562622000" lon="-2.448614000">
        <ele>635.40</ele>
        <time>2016-10-15T06:32:17Z</time>
      </trkpt>
      <trkpt lat="42.562642000" lon="-2.448624000">
        <ele>635.60</ele>
        <time>2016-10-15T06:32:18Z</time>
      </trkpt>
      <trkpt lat="42.562660000" lon="-2.448633000">
        <ele>635.60</ele>
        <time>2016-10-15T06:32:19Z</time>
      </trkpt>
      <trkpt lat="42.562678000" lon="-2.448643000">
        <ele>635.70</ele>
        <time>2016-10-15T06:32:20Z</time>
      </trkpt>
      <trkpt lat="42.562697000" lon="-2.448658000">
        <ele>635.80</ele>
        <time>2016-10-15T06:32:21Z</time>
      </trkpt>
      <trkpt lat="42.562715000" lon="-2.448674000">
        <ele>635.80</ele>
        <time>2016-10-15T06:32:22Z</time>
      </trkpt>
      <trkpt lat="42.562734000" lon="-2.448690000">
        <ele>635.90</ele>
        <time>2016-10-15T06:32:23Z</time>
      </trkpt>
      <trkpt lat="42.562753000" lon="-2.448703000">
        <ele>635.90</ele>
        <time>2016-10-15T06:32:24Z</time>
      </trkpt>
      <trkpt lat="42.562772000" lon="-2.448717000">
        <ele>635.90</ele>
        <time>2016-10-15T06:32:25Z</time>
      </trkpt>
      <trkpt lat="42.562789000" lon="-2.448737000">
        <ele>636.00</ele>
        <time>2016-10-15T06:32:26Z</time>
      </trkpt>
      <trkpt lat="42.562805000" lon="-2.448754000">
        <ele>636.10</ele>
        <time>2016-10-15T06:32:27Z</time>
      </trkpt>
      <trkpt lat="42.562824000" lon="-2.448772000">
        <ele>636.30</ele>
        <time>2016-10-15T06:32:28Z</time>
      </trkpt>
      <trkpt lat="42.562841000" lon="-2.448788000">
        <ele>636.40</ele>
        <time>2016-10-15T06:32:29Z</time>
      </trkpt>
      <trkpt lat="42.562858000" lon="-2.448806000">
        <ele>636.60</ele>
        <time>2016-10-15T06:32:30Z</time>
      </trkpt>
      <trkpt lat="42.562876000" lon="-2.448824000">
        <ele>636.70</ele>
        <time>2016-10-15T06:32:31Z</time>
      </trkpt>
      <trkpt lat="42.562888000" lon="-2.448841000">
        <ele>636.70</ele>
        <time>2016-10-15T06:32:32Z</time>
      </trkpt>
      <trkpt lat="42.562898000" lon="-2.448861000">
        <ele>636.80</ele>
        <time>2016-10-15T06:32:33Z</time>
      </trkpt>
      <trkpt lat="42.562913000" lon="-2.448876000">
        <ele>636.80</ele>
        <time>2016-10-15T06:32:34Z</time>
      </trkpt>
      <trkpt lat="42.562928000" lon="-2.448895000">
        <ele>636.90</ele>
        <time>2016-10-15T06:32:35Z</time>
      </trkpt>
      <trkpt lat="42.562942000" lon="-2.448916000">
        <ele>637.20</ele>
        <time>2016-10-15T06:32:36Z</time>
      </trkpt>
      <trkpt lat="42.562958000" lon="-2.448937000">
        <ele>637.50</ele>
        <time>2016-10-15T06:32:37Z</time>
      </trkpt>
      <trkpt lat="42.562974000" lon="-2.448957000">
        <ele>637.60</ele>
        <time>2016-10-15T06:32:38Z</time>
      </trkpt>
      <trkpt lat="42.562988000" lon="-2.448979000">
        <ele>637.80</ele>
        <time>2016-10-15T06:32:39Z</time>
      </trkpt>
      <trkpt lat="42.563003000" lon="-2.449002000">
        <ele>638.00</ele>
        <time>2016-10-15T06:32:40Z</time>
      </trkpt>
      <trkpt lat="42.563021000" lon="-2.449022000">
        <ele>638.10</ele>
        <time>2016-10-15T06:32:41Z</time>
      </trkpt>
      <trkpt lat="42.563041000" lon="-2.449038000">
        <ele>638.50</ele>
        <time>2016-10-15T06:32:42Z</time>
      </trkpt>
      <trkpt lat="42.563061000" lon="-2.449058000">
        <ele>638.70</ele>
        <time>2016-10-15T06:32:43Z</time>
      </trkpt>
      <trkpt lat="42.563080000" lon="-2.449082000">
        <ele>639.10</ele>
        <time>2016-10-15T06:32:44Z</time>
      </trkpt>
      <trkpt lat="42.563095000" lon="-2.449102000">
        <ele>639.30</ele>
        <time>2016-10-15T06:32:45Z</time>
      </trkpt>
      <trkpt lat="42.563111000" lon="-2.449118000">
        <ele>639.60</ele>
        <time>2016-10-15T06:32:46Z</time>
      </trkpt>
      <trkpt lat="42.563127000" lon="-2.449136000">
        <ele>639.80</ele>
        <time>2016-10-15T06:32:47Z</time>
      </trkpt>
      <trkpt lat="42.563140000" lon="-2.449157000">
        <ele>640.00</ele>
        <time>2016-10-15T06:32:48Z</time>
      </trkpt>
      <trkpt lat="42.563154000" lon="-2.449176000">
        <ele>640.20</ele>
        <time>2016-10-15T06:32:49Z</time>
      </trkpt>
      <trkpt lat="42.563167000" lon="-2.449194000">
        <ele>640.60</ele>
        <time>2016-10-15T06:32:50Z</time>
      </trkpt>
      <trkpt lat="42.563180000" lon="-2.449215000">
        <ele>641.00</ele>
        <time>2016-10-15T06:32:51Z</time>
      </trkpt>
      <trkpt lat="42.563194000" lon="-2.449233000">
        <ele>641.20</ele>
        <time>2016-10-15T06:32:52Z</time>
      </trkpt>
      <trkpt lat="42.563205000" lon="-2.449247000">
        <ele>641.40</ele>
        <time>2016-10-15T06:32:53Z</time>
      </trkpt>
      <trkpt lat="42.563213000" lon="-2.449261000">
        <ele>641.50</ele>
        <time>2016-10-15T06:32:54Z</time>
      </trkpt>
      <trkpt lat="42.563224000" lon="-2.449267000">
        <ele>641.60</ele>
        <time>2016-10-15T06:32:55Z</time>
      </trkpt>
      <trkpt lat="42.563228000" lon="-2.449282000">
        <ele>641.80</ele>
        <time>2016-10-15T06:32:56Z</time>
      </trkpt>
      <trkpt lat="42.563225000" lon="-2.449289000">
        <ele>641.90</ele>
        <time>2016-10-15T06:32:57Z</time>
      </trkpt>
      <trkpt lat="42.563229000" lon="-2.449293000">
        <ele>642.10</ele>
        <time>2016-10-15T06:32:58Z</time>
      </trkpt>
      <trkpt lat="42.563234000" lon="-2.449295000">
        <ele>642.30</ele>
        <time>2016-10-15T06:32:59Z</time>
      </trkpt>
      <trkpt lat="42.563238000" lon="-2.449295000">
        <ele>642.30</ele>
        <time>2016-10-15T06:33:00Z</time>
      </trkpt>
      <trkpt lat="42.563241000" lon="-2.449297000">
        <ele>642.30</ele>
        <time>2016-10-15T06:33:01Z</time>
      </trkpt>
      <trkpt lat="42.563244000" lon="-2.449299000">
        <ele>642.40</ele>
        <time>2016-10-15T06:33:02Z</time>
      </trkpt>
      <trkpt lat="42.563247000" lon="-2.449301000">
        <ele>642.50</ele>
        <time>2016-10-15T06:33:03Z</time>
      </trkpt>
      <trkpt lat="42.563247000" lon="-2.449299000">
        <ele>642.40</ele>
        <time>2016-10-15T06:33:04Z</time>
      </trkpt>
      <trkpt lat="42.563249000" lon="-2.449298000">
        <ele>642.40</ele>
        <time>2016-10-15T06:33:05Z</time>
      </trkpt>
      <trkpt lat="42.563251000" lon="-2.449300000">
        <ele>642.50</ele>
        <time>2016-10-15T06:33:06Z</time>
      </trkpt>
      <trkpt lat="42.563252000" lon="-2.449300000">
        <ele>642.50</ele>
        <time>2016-10-15T06:33:07Z</time>
      </trkpt>
      <trkpt lat="42.563255000" lon="-2.449302000">
        <ele>642.70</ele>
        <time>2016-10-15T06:33:08Z</time>
      </trkpt>
      <trkpt lat="42.563256000" lon="-2.449302000">
        <ele>642.80</ele>
        <time>2016-10-15T06:33:09Z</time>
      </trkpt>
      <trkpt lat="42.563258000" lon="-2.449305000">
        <ele>642.90</ele>
        <time>2016-10-15T06:33:10Z</time>
      </trkpt>
      <trkpt lat="42.563261000" lon="-2.449306000">
        <ele>643.00</ele>
        <time>2016-10-15T06:33:11Z</time>
      </trkpt>
      <trkpt lat="42.563262000" lon="-2.449303000">
        <ele>643.00</ele>
        <time>2016-10-15T06:33:12Z</time>
      </trkpt>
      <trkpt lat="42.563261000" lon="-2.449304000">
        <ele>643.00</ele>
        <time>2016-10-15T06:33:13Z</time>
      </trkpt>
      <trkpt lat="42.563262000" lon="-2.449303000">
        <ele>643.00</ele>
        <time>2016-10-15T06:33:14Z</time>
      </trkpt>
      <trkpt lat="42.563262000" lon="-2.449304000">
        <ele>643.00</ele>
        <time>2016-10-15T06:33:15Z</time>
      </trkpt>
      <trkpt lat="42.563264000" lon="-2.449306000">
        <ele>643.00</ele>
        <time>2016-10-15T06:33:16Z</time>
      </trkpt>
      <trkpt lat="42.563266000" lon="-2.449303000">
        <ele>642.90</ele>
        <time>2016-10-15T06:33:18Z</time>
      </trkpt>
      <trkpt lat="42.563268000" lon="-2.449303000">
        <ele>642.80</ele>
        <time>2016-10-15T06:33:19Z</time>
      </trkpt>
      <trkpt lat="42.563267000" lon="-2.449303000">
        <ele>642.80</ele>
        <time>2016-10-15T06:33:20Z</time>
      </trkpt>
      <trkpt lat="42.563265000" lon="-2.449303000">
        <ele>642.70</ele>
        <time>2016-10-15T06:33:21Z</time>
      </trkpt>
      <trkpt lat="42.563265000" lon="-2.449304000">
        <ele>642.60</ele>
        <time>2016-10-15T06:33:22Z</time>
      </trkpt>
      <trkpt lat="42.563269000" lon="-2.449303000">
        <ele>642.60</ele>
        <time>2016-10-15T06:33:23Z</time>
      </trkpt>
      <trkpt lat="42.563270000" lon="-2.449302000">
        <ele>642.60</ele>
        <time>2016-10-15T06:33:24Z</time>
      </trkpt>
      <trkpt lat="42.563268000" lon="-2.449299000">
        <ele>642.60</ele>
        <time>2016-10-15T06:33:25Z</time>
      </trkpt>
      <trkpt lat="42.563266000" lon="-2.449294000">
        <ele>642.60</ele>
        <time>2016-10-15T06:33:26Z</time>
      </trkpt>
      <trkpt lat="42.563265000" lon="-2.449292000">
        <ele>642.60</ele>
        <time>2016-10-15T06:33:27Z</time>
      </trkpt>
      <trkpt lat="42.563262000" lon="-2.449293000">
        <ele>642.70</ele>
        <time>2016-10-15T06:33:28Z</time>
      </trkpt>
      <trkpt lat="42.563263000" lon="-2.449294000">
        <ele>642.70</ele>
        <time>2016-10-15T06:33:29Z</time>
      </trkpt>
      <trkpt lat="42.563262000" lon="-2.449296000">
        <ele>642.60</ele>
        <time>2016-10-15T06:33:30Z</time>
      </trkpt>
      <trkpt lat="42.563262000" lon="-2.449297000">
        <ele>642.60</ele>
        <time>2016-10-15T06:33:31Z</time>
      </trkpt>
      <trkpt lat="42.563265000" lon="-2.449300000">
        <ele>642.60</ele>
        <time>2016-10-15T06:33:32Z</time>
      </trkpt>
      <trkpt lat="42.563265000" lon="-2.449301000">
        <ele>642.60</ele>
        <time>2016-10-15T06:33:33Z</time>
      </trkpt>
      <trkpt lat="42.563265000" lon="-2.449302000">
        <ele>642.70</ele>
        <time>2016-10-15T06:33:34Z</time>
      </trkpt>
      <trkpt lat="42.563264000" lon="-2.449302000">
        <ele>642.70</ele>
        <time>2016-10-15T06:33:35Z</time>
      </trkpt>
      <trkpt lat="42.563261000" lon="-2.449302000">
        <ele>642.80</ele>
        <time>2016-10-15T06:33:36Z</time>
      </trkpt>
      <trkpt lat="42.563260000" lon="-2.449300000">
        <ele>642.80</ele>
        <time>2016-10-15T06:33:37Z</time>
      </trkpt>
      <trkpt lat="42.563261000" lon="-2.449301000">
        <ele>642.90</ele>
        <time>2016-10-15T06:33:38Z</time>
      </trkpt>
      <trkpt lat="42.563260000" lon="-2.449303000">
        <ele>642.90</ele>
        <time>2016-10-15T06:33:39Z</time>
      </trkpt>
      <trkpt lat="42.563259000" lon="-2.449307000">
        <ele>642.80</ele>
        <time>2016-10-15T06:33:40Z</time>
      </trkpt>
      <trkpt lat="42.563259000" lon="-2.449306000">
        <ele>642.70</ele>
        <time>2016-10-15T06:33:41Z</time>
      </trkpt>
      <trkpt lat="42.563255000" lon="-2.449318000">
        <ele>642.50</ele>
        <time>2016-10-15T06:33:42Z</time>
      </trkpt>
      <trkpt lat="42.563256000" lon="-2.449334000">
        <ele>642.40</ele>
        <time>2016-10-15T06:33:43Z</time>
      </trkpt>
      <trkpt lat="42.563250000" lon="-2.449340000">
        <ele>642.30</ele>
        <time>2016-10-15T06:33:44Z</time>
      </trkpt>
      <trkpt lat="42.563241000" lon="-2.449339000">
        <ele>642.20</ele>
        <time>2016-10-15T06:33:45Z</time>
      </trkpt>
      <trkpt lat="42.563239000" lon="-2.449338000">
        <ele>642.20</ele>
        <time>2016-10-15T06:33:46Z</time>
      </trkpt>
      <trkpt lat="42.563236000" lon="-2.449337000">
        <ele>642.20</ele>
        <time>2016-10-15T06:33:47Z</time>
      </trkpt>
      <trkpt lat="42.563234000" lon="-2.449336000">
        <ele>642.20</ele>
        <time>2016-10-15T06:33:48Z</time>
      </trkpt>
      <trkpt lat="42.563233000" lon="-2.449332000">
        <ele>642.20</ele>
        <time>2016-10-15T06:33:49Z</time>
      </trkpt>
      <trkpt lat="42.563232000" lon="-2.449331000">
        <ele>642.20</ele>
        <time>2016-10-15T06:33:50Z</time>
      </trkpt>
      <trkpt lat="42.563231000" lon="-2.449335000">
        <ele>642.20</ele>
        <time>2016-10-15T06:33:51Z</time>
      </trkpt>
      <trkpt lat="42.563228000" lon="-2.449334000">
        <ele>642.30</ele>
        <time>2016-10-15T06:33:52Z</time>
      </trkpt>
      <trkpt lat="42.563226000" lon="-2.449334000">
        <ele>642.40</ele>
        <time>2016-10-15T06:33:53Z</time>
      </trkpt>
      <trkpt lat="42.563225000" lon="-2.449336000">
        <ele>642.50</ele>
        <time>2016-10-15T06:33:54Z</time>
      </trkpt>
      <trkpt lat="42.563223000" lon="-2.449340000">
        <ele>642.50</ele>
        <time>2016-10-15T06:33:55Z</time>
      </trkpt>
      <trkpt lat="42.563221000" lon="-2.449340000">
        <ele>642.60</ele>
        <time>2016-10-15T06:33:56Z</time>
      </trkpt>
      <trkpt lat="42.563221000" lon="-2.449340000">
        <ele>642.60</ele>
        <time>2016-10-15T06:33:57Z</time>
      </trkpt>
      <trkpt lat="42.563220000" lon="-2.449339000">
        <ele>642.50</ele>
        <time>2016-10-15T06:33:58Z</time>
      </trkpt>
      <trkpt lat="42.563218000" lon="-2.449339000">
        <ele>642.50</ele>
        <time>2016-10-15T06:33:59Z</time>
      </trkpt>
      <trkpt lat="42.563218000" lon="-2.449343000">
        <ele>642.60</ele>
        <time>2016-10-15T06:34:00Z</time>
      </trkpt>
      <trkpt lat="42.563217000" lon="-2.449343000">
        <ele>642.60</ele>
        <time>2016-10-15T06:34:01Z</time>
      </trkpt>
      <trkpt lat="42.563215000" lon="-2.449339000">
        <ele>642.40</ele>
        <time>2016-10-15T06:34:02Z</time>
      </trkpt>
      <trkpt lat="42.563213000" lon="-2.449337000">
        <ele>642.30</ele>
        <time>2016-10-15T06:34:03Z</time>
      </trkpt>
      <trkpt lat="42.563210000" lon="-2.449333000">
        <ele>642.20</ele>
        <time>2016-10-15T06:34:04Z</time>
      </trkpt>
      <trkpt lat="42.563208000" lon="-2.449330000">
        <ele>642.20</ele>
        <time>2016-10-15T06:34:05Z</time>
      </trkpt>
      <trkpt lat="42.563208000" lon="-2.449329000">
        <ele>642.10</ele>
        <time>2016-10-15T06:34:06Z</time>
      </trkpt>
      <trkpt lat="42.563208000" lon="-2.449329000">
        <ele>642.10</ele>
        <time>2016-10-15T06:34:07Z</time>
      </trkpt>
      <trkpt lat="42.563206000" lon="-2.449328000">
        <ele>642.10</ele>
        <time>2016-10-15T06:34:08Z</time>
      </trkpt>
      <trkpt lat="42.563207000" lon="-2.449328000">
        <ele>642.10</ele>
        <time>2016-10-15T06:34:09Z</time>
      </trkpt>
      <trkpt lat="42.563207000" lon="-2.449328000">
        <ele>642.20</ele>
        <time>2016-10-15T06:34:10Z</time>
      </trkpt>
      <trkpt lat="42.563205000" lon="-2.449328000">
        <ele>642.30</ele>
        <time>2016-10-15T06:34:11Z</time>
      </trkpt>
      <trkpt lat="42.563206000" lon="-2.449328000">
        <ele>642.30</ele>
        <time>2016-10-15T06:34:12Z</time>
      </trkpt>
      <trkpt lat="42.563206000" lon="-2.449330000">
        <ele>642.30</ele>
        <time>2016-10-15T06:34:13Z</time>
      </trkpt>
      <trkpt lat="42.563206000" lon="-2.449326000">
        <ele>642.40</ele>
        <time>2016-10-15T06:34:14Z</time>
      </trkpt>
      <trkpt lat="42.563206000" lon="-2.449324000">
        <ele>642.40</ele>
        <time>2016-10-15T06:34:15Z</time>
      </trkpt>
      <trkpt lat="42.563207000" lon="-2.449324000">
        <ele>642.50</ele>
        <time>2016-10-15T06:34:16Z</time>
      </trkpt>
      <trkpt lat="42.563210000" lon="-2.449323000">
        <ele>642.50</ele>
        <time>2016-10-15T06:34:17Z</time>
      </trkpt>
      <trkpt lat="42.563212000" lon="-2.449321000">
        <ele>642.60</ele>
        <time>2016-10-15T06:34:19Z</time>
      </trkpt>
      <trkpt lat="42.563215000" lon="-2.449322000">
        <ele>642.60</ele>
        <time>2016-10-15T06:34:20Z</time>
      </trkpt>
      <trkpt lat="42.563215000" lon="-2.449324000">
        <ele>642.60</ele>
        <time>2016-10-15T06:34:21Z</time>
      </trkpt>
      <trkpt lat="42.563212000" lon="-2.449321000">
        <ele>642.50</ele>
        <time>2016-10-15T06:34:22Z</time>
      </trkpt>
      <trkpt lat="42.563209000" lon="-2.449317000">
        <ele>642.50</ele>
        <time>2016-10-15T06:34:23Z</time>
      </trkpt>
      <trkpt lat="42.563204000" lon="-2.449315000">
        <ele>642.40</ele>
        <time>2016-10-15T06:34:24Z</time>
      </trkpt>
      <trkpt lat="42.563200000" lon="-2.449314000">
        <ele>642.40</ele>
        <time>2016-10-15T06:34:25Z</time>
      </trkpt>
      <trkpt lat="42.563196000" lon="-2.449311000">
        <ele>642.30</ele>
        <time>2016-10-15T06:34:26Z</time>
      </trkpt>
      <trkpt lat="42.563198000" lon="-2.449311000">
        <ele>642.30</ele>
        <time>2016-10-15T06:34:27Z</time>
      </trkpt>
      <trkpt lat="42.563199000" lon="-2.449312000">
        <ele>642.30</ele>
        <time>2016-10-15T06:34:28Z</time>
      </trkpt>
      <trkpt lat="42.563198000" lon="-2.449314000">
        <ele>642.30</ele>
        <time>2016-10-15T06:34:29Z</time>
      </trkpt>
      <trkpt lat="42.563199000" lon="-2.449320000">
        <ele>642.40</ele>
        <time>2016-10-15T06:34:30Z</time>
      </trkpt>
      <trkpt lat="42.563199000" lon="-2.449322000">
        <ele>642.50</ele>
        <time>2016-10-15T06:34:31Z</time>
      </trkpt>
      <trkpt lat="42.563201000" lon="-2.449325000">
        <ele>642.50</ele>
        <time>2016-10-15T06:34:32Z</time>
      </trkpt>
      <trkpt lat="42.563202000" lon="-2.449325000">
        <ele>642.60</ele>
        <time>2016-10-15T06:34:33Z</time>
      </trkpt>
      <trkpt lat="42.563204000" lon="-2.449325000">
        <ele>642.60</ele>
        <time>2016-10-15T06:34:34Z</time>
      </trkpt>
      <trkpt lat="42.563206000" lon="-2.449328000">
        <ele>642.60</ele>
        <time>2016-10-15T06:34:35Z</time>
      </trkpt>
      <trkpt lat="42.563205000" lon="-2.449326000">
        <ele>642.60</ele>
        <time>2016-10-15T06:34:36Z</time>
      </trkpt>
      <trkpt lat="42.563204000" lon="-2.449325000">
        <ele>642.60</ele>
        <time>2016-10-15T06:34:37Z</time>
      </trkpt>
      <trkpt lat="42.563204000" lon="-2.449328000">
        <ele>642.50</ele>
        <time>2016-10-15T06:34:38Z</time>
      </trkpt>
      <trkpt lat="42.563206000" lon="-2.449330000">
        <ele>642.50</ele>
        <time>2016-10-15T06:34:39Z</time>
      </trkpt>
      <trkpt lat="42.563204000" lon="-2.449333000">
        <ele>642.40</ele>
        <time>2016-10-15T06:34:40Z</time>
      </trkpt>
      <trkpt lat="42.563203000" lon="-2.449333000">
        <ele>642.40</ele>
        <time>2016-10-15T06:34:41Z</time>
      </trkpt>
      <trkpt lat="42.563206000" lon="-2.449334000">
        <ele>642.40</ele>
        <time>2016-10-15T06:34:42Z</time>
      </trkpt>
      <trkpt lat="42.563208000" lon="-2.449333000">
        <ele>642.50</ele>
        <time>2016-10-15T06:34:43Z</time>
      </trkpt>
      <trkpt lat="42.563208000" lon="-2.449332000">
        <ele>642.50</ele>
        <time>2016-10-15T06:34:44Z</time>
      </trkpt>
      <trkpt lat="42.563208000" lon="-2.449331000">
        <ele>642.60</ele>
        <time>2016-10-15T06:34:45Z</time>
      </trkpt>
      <trkpt lat="42.563209000" lon="-2.449332000">
        <ele>642.60</ele>
        <time>2016-10-15T06:34:46Z</time>
      </trkpt>
      <trkpt lat="42.563210000" lon="-2.449334000">
        <ele>642.60</ele>
        <time>2016-10-15T06:34:47Z</time>
      </trkpt>
      <trkpt lat="42.563209000" lon="-2.449335000">
        <ele>642.60</ele>
        <time>2016-10-15T06:34:48Z</time>
      </trkpt>
      <trkpt lat="42.563209000" lon="-2.449335000">
        <ele>642.50</ele>
        <time>2016-10-15T06:34:49Z</time>
      </trkpt>
      <trkpt lat="42.563209000" lon="-2.449333000">
        <ele>642.50</ele>
        <time>2016-10-15T06:34:50Z</time>
      </trkpt>
      <trkpt lat="42.563205000" lon="-2.449331000">
        <ele>642.50</ele>
        <time>2016-10-15T06:34:51Z</time>
      </trkpt>
      <trkpt lat="42.563204000" lon="-2.449331000">
        <ele>642.40</ele>
        <time>2016-10-15T06:34:52Z</time>
      </trkpt>
      <trkpt lat="42.563202000" lon="-2.449331000">
        <ele>642.40</ele>
        <time>2016-10-15T06:34:53Z</time>
      </trkpt>
      <trkpt lat="42.563201000" lon="-2.449330000">
        <ele>642.30</ele>
        <time>2016-10-15T06:34:54Z</time>
      </trkpt>
      <trkpt lat="42.563202000" lon="-2.449329000">
        <ele>642.30</ele>
        <time>2016-10-15T06:34:55Z</time>
      </trkpt>
      <trkpt lat="42.563202000" lon="-2.449330000">
        <ele>642.30</ele>
        <time>2016-10-15T06:34:56Z</time>
      </trkpt>
      <trkpt lat="42.563202000" lon="-2.449329000">
        <ele>642.30</ele>
        <time>2016-10-15T06:34:57Z</time>
      </trkpt>
      <trkpt lat="42.563199000" lon="-2.449330000">
        <ele>642.30</ele>
        <time>2016-10-15T06:34:58Z</time>
      </trkpt>
      <trkpt lat="42.563201000" lon="-2.449333000">
        <ele>642.30</ele>
        <time>2016-10-15T06:34:59Z</time>
      </trkpt>
      <trkpt lat="42.563202000" lon="-2.449336000">
        <ele>642.40</ele>
        <time>2016-10-15T06:35:00Z</time>
      </trkpt>
      <trkpt lat="42.563204000" lon="-2.449336000">
        <ele>642.40</ele>
        <time>2016-10-15T06:35:01Z</time>
      </trkpt>
      <trkpt lat="42.563205000" lon="-2.449337000">
        <ele>642.40</ele>
        <time>2016-10-15T06:35:02Z</time>
      </trkpt>
      <trkpt lat="42.563209000" lon="-2.449337000">
        <ele>642.40</ele>
        <time>2016-10-15T06:35:03Z</time>
      </trkpt>
      <trkpt lat="42.563211000" lon="-2.449337000">
        <ele>642.50</ele>
        <time>2016-10-15T06:35:04Z</time>
      </trkpt>
      <trkpt lat="42.563212000" lon="-2.449337000">
        <ele>642.60</ele>
        <time>2016-10-15T06:35:05Z</time>
      </trkpt>
      <trkpt lat="42.563214000" lon="-2.449338000">
        <ele>642.70</ele>
        <time>2016-10-15T06:35:06Z</time>
      </trkpt>
      <trkpt lat="42.563215000" lon="-2.449338000">
        <ele>642.80</ele>
        <time>2016-10-15T06:35:07Z</time>
      </trkpt>
      <trkpt lat="42.563214000" lon="-2.449340000">
        <ele>642.90</ele>
        <time>2016-10-15T06:35:08Z</time>
      </trkpt>
      <trkpt lat="42.563214000" lon="-2.449340000">
        <ele>643.00</ele>
        <time>2016-10-15T06:35:09Z</time>
      </trkpt>
      <trkpt lat="42.563214000" lon="-2.449342000">
        <ele>643.10</ele>
        <time>2016-10-15T06:35:10Z</time>
      </trkpt>
      <trkpt lat="42.563215000" lon="-2.449342000">
        <ele>643.10</ele>
        <time>2016-10-15T06:35:11Z</time>
      </trkpt>
      <trkpt lat="42.563215000" lon="-2.449341000">
        <ele>643.20</ele>
        <time>2016-10-15T06:35:12Z</time>
      </trkpt>
      <trkpt lat="42.563215000" lon="-2.449339000">
        <ele>643.20</ele>
        <time>2016-10-15T06:35:13Z</time>
      </trkpt>
      <trkpt lat="42.563214000" lon="-2.449337000">
        <ele>643.20</ele>
        <time>2016-10-15T06:35:14Z</time>
      </trkpt>
      <trkpt lat="42.563213000" lon="-2.449336000">
        <ele>643.20</ele>
        <time>2016-10-15T06:35:15Z</time>
      </trkpt>
      <trkpt lat="42.563212000" lon="-2.449334000">
        <ele>643.00</ele>
        <time>2016-10-15T06:35:16Z</time>
      </trkpt>
      <trkpt lat="42.563211000" lon="-2.449334000">
        <ele>642.80</ele>
        <time>2016-10-15T06:35:17Z</time>
      </trkpt>
      <trkpt lat="42.563209000" lon="-2.449333000">
        <ele>642.70</ele>
        <time>2016-10-15T06:35:18Z</time>
      </trkpt>
      <trkpt lat="42.563207000" lon="-2.449335000">
        <ele>642.50</ele>
        <time>2016-10-15T06:35:20Z</time>
      </trkpt>
      <trkpt lat="42.563208000" lon="-2.449334000">
        <ele>642.50</ele>
        <time>2016-10-15T06:35:21Z</time>
      </trkpt>
      <trkpt lat="42.563209000" lon="-2.449332000">
        <ele>642.60</ele>
        <time>2016-10-15T06:35:22Z</time>
      </trkpt>
      <trkpt lat="42.563211000" lon="-2.449330000">
        <ele>642.60</ele>
        <time>2016-10-15T06:35:23Z</time>
      </trkpt>
      <trkpt lat="42.563212000" lon="-2.449331000">
        <ele>642.70</ele>
        <time>2016-10-15T06:35:24Z</time>
      </trkpt>
      <trkpt lat="42.563212000" lon="-2.449333000">
        <ele>642.70</ele>
        <time>2016-10-15T06:35:25Z</time>
      </trkpt>
      <trkpt lat="42.563212000" lon="-2.449333000">
        <ele>642.70</ele>
        <time>2016-10-15T06:35:26Z</time>
      </trkpt>
      <trkpt lat="42.563212000" lon="-2.449333000">
        <ele>642.70</ele>
        <time>2016-10-15T06:35:27Z</time>
      </trkpt>
      <trkpt lat="42.563213000" lon="-2.449336000">
        <ele>642.70</ele>
        <time>2016-10-15T06:35:28Z</time>
      </trkpt>
      <trkpt lat="42.563214000" lon="-2.449333000">
        <ele>642.60</ele>
        <time>2016-10-15T06:35:29Z</time>
      </trkpt>
      <trkpt lat="42.563216000" lon="-2.449332000">
        <ele>642.60</ele>
        <time>2016-10-15T06:35:30Z</time>
      </trkpt>
      <trkpt lat="42.563216000" lon="-2.449331000">
        <ele>642.60</ele>
        <time>2016-10-15T06:35:31Z</time>
      </trkpt>
      <trkpt lat="42.563217000" lon="-2.449331000">
        <ele>642.60</ele>
        <time>2016-10-15T06:35:32Z</time>
      </trkpt>
      <trkpt lat="42.563219000" lon="-2.449332000">
        <ele>642.50</ele>
        <time>2016-10-15T06:35:33Z</time>
      </trkpt>
      <trkpt lat="42.563217000" lon="-2.449331000">
        <ele>642.60</ele>
        <time>2016-10-15T06:35:34Z</time>
      </trkpt>
      <trkpt lat="42.563219000" lon="-2.449331000">
        <ele>642.70</ele>
        <time>2016-10-15T06:35:35Z</time>
      </trkpt>
      <trkpt lat="42.563217000" lon="-2.449332000">
        <ele>642.70</ele>
        <time>2016-10-15T06:35:36Z</time>
      </trkpt>
      <trkpt lat="42.563218000" lon="-2.449333000">
        <ele>642.80</ele>
        <time>2016-10-15T06:35:37Z</time>
      </trkpt>
      <trkpt lat="42.563219000" lon="-2.449335000">
        <ele>642.80</ele>
        <time>2016-10-15T06:35:38Z</time>
      </trkpt>
      <trkpt lat="42.563218000" lon="-2.449336000">
        <ele>642.80</ele>
        <time>2016-10-15T06:35:39Z</time>
      </trkpt>
      <trkpt lat="42.563217000" lon="-2.449337000">
        <ele>642.80</ele>
        <time>2016-10-15T06:35:40Z</time>
      </trkpt>
      <trkpt lat="42.563216000" lon="-2.449336000">
        <ele>642.80</ele>
        <time>2016-10-15T06:35:41Z</time>
      </trkpt>
      <trkpt lat="42.563216000" lon="-2.449334000">
        <ele>642.70</ele>
        <time>2016-10-15T06:35:42Z</time>
      </trkpt>
      <trkpt lat="42.563216000" lon="-2.449337000">
        <ele>642.70</ele>
        <time>2016-10-15T06:35:43Z</time>
      </trkpt>
      <trkpt lat="42.563216000" lon="-2.449337000">
        <ele>642.60</ele>
        <time>2016-10-15T06:35:44Z</time>
      </trkpt>
      <trkpt lat="42.563218000" lon="-2.449336000">
        <ele>642.50</ele>
        <time>2016-10-15T06:35:45Z</time>
      </trkpt>
      <trkpt lat="42.563220000" lon="-2.449335000">
        <ele>642.50</ele>
        <time>2016-10-15T06:35:46Z</time>
      </trkpt>
      <trkpt lat="42.563223000" lon="-2.449335000">
        <ele>642.60</ele>
        <time>2016-10-15T06:35:47Z</time>
      </trkpt>
      <trkpt lat="42.563225000" lon="-2.449331000">
        <ele>642.50</ele>
        <time>2016-10-15T06:35:48Z</time>
      </trkpt>
      <trkpt lat="42.563225000" lon="-2.449327000">
        <ele>642.50</ele>
        <time>2016-10-15T06:35:49Z</time>
      </trkpt>
      <trkpt lat="42.563228000" lon="-2.449329000">
        <ele>642.50</ele>
        <time>2016-10-15T06:35:50Z</time>
      </trkpt>
      <trkpt lat="42.563231000" lon="-2.449328000">
        <ele>642.50</ele>
        <time>2016-10-15T06:35:51Z</time>
      </trkpt>
      <trkpt lat="42.563231000" lon="-2.449327000">
        <ele>642.60</ele>
        <time>2016-10-15T06:35:52Z</time>
      </trkpt>
      <trkpt lat="42.563231000" lon="-2.449328000">
        <ele>642.70</ele>
        <time>2016-10-15T06:35:53Z</time>
      </trkpt>
      <trkpt lat="42.563224000" lon="-2.449331000">
        <ele>642.70</ele>
        <time>2016-10-15T06:35:54Z</time>
      </trkpt>
      <trkpt lat="42.563220000" lon="-2.449332000">
        <ele>642.70</ele>
        <time>2016-10-15T06:35:55Z</time>
      </trkpt>
      <trkpt lat="42.563218000" lon="-2.449331000">
        <ele>642.80</ele>
        <time>2016-10-15T06:35:56Z</time>
      </trkpt>
      <trkpt lat="42.563215000" lon="-2.449329000">
        <ele>642.90</ele>
        <time>2016-10-15T06:35:57Z</time>
      </trkpt>
      <trkpt lat="42.563214000" lon="-2.449329000">
        <ele>643.00</ele>
        <time>2016-10-15T06:35:58Z</time>
      </trkpt>
      <trkpt lat="42.563210000" lon="-2.449325000">
        <ele>643.00</ele>
        <time>2016-10-15T06:35:59Z</time>
      </trkpt>
      <trkpt lat="42.563205000" lon="-2.449325000">
        <ele>642.80</ele>
        <time>2016-10-15T06:36:00Z</time>
      </trkpt>
      <trkpt lat="42.563202000" lon="-2.449323000">
        <ele>642.70</ele>
        <time>2016-10-15T06:36:01Z</time>
      </trkpt>
      <trkpt lat="42.563199000" lon="-2.449322000">
        <ele>642.60</ele>
        <time>2016-10-15T06:36:02Z</time>
      </trkpt>
      <trkpt lat="42.563196000" lon="-2.449321000">
        <ele>642.50</ele>
        <time>2016-10-15T06:36:03Z</time>
      </trkpt>
      <trkpt lat="42.563197000" lon="-2.449322000">
        <ele>642.50</ele>
        <time>2016-10-15T06:36:04Z</time>
      </trkpt>
      <trkpt lat="42.563198000" lon="-2.449324000">
        <ele>642.50</ele>
        <time>2016-10-15T06:36:05Z</time>
      </trkpt>
      <trkpt lat="42.563198000" lon="-2.449325000">
        <ele>642.70</ele>
        <time>2016-10-15T06:36:06Z</time>
      </trkpt>
      <trkpt lat="42.563200000" lon="-2.449325000">
        <ele>642.80</ele>
        <time>2016-10-15T06:36:07Z</time>
      </trkpt>
      <trkpt lat="42.563202000" lon="-2.449326000">
        <ele>642.90</ele>
        <time>2016-10-15T06:36:08Z</time>
      </trkpt>
      <trkpt lat="42.563202000" lon="-2.449327000">
        <ele>643.00</ele>
        <time>2016-10-15T06:36:09Z</time>
      </trkpt>
      <trkpt lat="42.563201000" lon="-2.449329000">
        <ele>643.10</ele>
        <time>2016-10-15T06:36:10Z</time>
      </trkpt>
      <trkpt lat="42.563200000" lon="-2.449330000">
        <ele>643.20</ele>
        <time>2016-10-15T06:36:11Z</time>
      </trkpt>
      <trkpt lat="42.563198000" lon="-2.449332000">
        <ele>643.30</ele>
        <time>2016-10-15T06:36:12Z</time>
      </trkpt>
      <trkpt lat="42.563195000" lon="-2.449332000">
        <ele>643.30</ele>
        <time>2016-10-15T06:36:13Z</time>
      </trkpt>
      <trkpt lat="42.563194000" lon="-2.449331000">
        <ele>643.20</ele>
        <time>2016-10-15T06:36:14Z</time>
      </trkpt>
      <trkpt lat="42.563196000" lon="-2.449329000">
        <ele>643.20</ele>
        <time>2016-10-15T06:36:15Z</time>
      </trkpt>
      <trkpt lat="42.563197000" lon="-2.449328000">
        <ele>643.10</ele>
        <time>2016-10-15T06:36:16Z</time>
      </trkpt>
      <trkpt lat="42.563200000" lon="-2.449326000">
        <ele>643.10</ele>
        <time>2016-10-15T06:36:17Z</time>
      </trkpt>
      <trkpt lat="42.563201000" lon="-2.449327000">
        <ele>642.90</ele>
        <time>2016-10-15T06:36:18Z</time>
      </trkpt>
      <trkpt lat="42.563205000" lon="-2.449324000">
        <ele>642.70</ele>
        <time>2016-10-15T06:36:19Z</time>
      </trkpt>
      <trkpt lat="42.563206000" lon="-2.449320000">
        <ele>642.80</ele>
        <time>2016-10-15T06:36:21Z</time>
      </trkpt>
      <trkpt lat="42.563206000" lon="-2.449326000">
        <ele>642.70</ele>
        <time>2016-10-15T06:36:22Z</time>
      </trkpt>
      <trkpt lat="42.563206000" lon="-2.449329000">
        <ele>642.60</ele>
        <time>2016-10-15T06:36:23Z</time>
      </trkpt>
      <trkpt lat="42.563208000" lon="-2.449332000">
        <ele>642.70</ele>
        <time>2016-10-15T06:36:24Z</time>
      </trkpt>
      <trkpt lat="42.563208000" lon="-2.449334000">
        <ele>642.80</ele>
        <time>2016-10-15T06:36:25Z</time>
      </trkpt>
      <trkpt lat="42.563208000" lon="-2.449337000">
        <ele>642.70</ele>
        <time>2016-10-15T06:36:26Z</time>
      </trkpt>
      <trkpt lat="42.563208000" lon="-2.449338000">
        <ele>642.60</ele>
        <time>2016-10-15T06:36:27Z</time>
      </trkpt>
      <trkpt lat="42.563207000" lon="-2.449338000">
        <ele>642.70</ele>
        <time>2016-10-15T06:36:28Z</time>
      </trkpt>
      <trkpt lat="42.563209000" lon="-2.449338000">
        <ele>642.80</ele>
        <time>2016-10-15T06:36:29Z</time>
      </trkpt>
      <trkpt lat="42.563210000" lon="-2.449338000">
        <ele>642.80</ele>
        <time>2016-10-15T06:36:30Z</time>
      </trkpt>
      <trkpt lat="42.563208000" lon="-2.449335000">
        <ele>642.80</ele>
        <time>2016-10-15T06:36:31Z</time>
      </trkpt>
      <trkpt lat="42.563209000" lon="-2.449332000">
        <ele>642.90</ele>
        <time>2016-10-15T06:36:32Z</time>
      </trkpt>
      <trkpt lat="42.563209000" lon="-2.449330000">
        <ele>642.90</ele>
        <time>2016-10-15T06:36:33Z</time>
      </trkpt>
      <trkpt lat="42.563210000" lon="-2.449327000">
        <ele>642.90</ele>
        <time>2016-10-15T06:36:34Z</time>
      </trkpt>
      <trkpt lat="42.563212000" lon="-2.449327000">
        <ele>642.90</ele>
        <time>2016-10-15T06:36:35Z</time>
      </trkpt>
      <trkpt lat="42.563212000" lon="-2.449325000">
        <ele>642.90</ele>
        <time>2016-10-15T06:36:36Z</time>
      </trkpt>
      <trkpt lat="42.563210000" lon="-2.449324000">
        <ele>642.80</ele>
        <time>2016-10-15T06:36:37Z</time>
      </trkpt>
      <trkpt lat="42.563210000" lon="-2.449322000">
        <ele>642.90</ele>
        <time>2016-10-15T06:36:38Z</time>
      </trkpt>
      <trkpt lat="42.563209000" lon="-2.449323000">
        <ele>642.90</ele>
        <time>2016-10-15T06:36:39Z</time>
      </trkpt>
      <trkpt lat="42.563205000" lon="-2.449321000">
        <ele>643.00</ele>
        <time>2016-10-15T06:36:40Z</time>
      </trkpt>
      <trkpt lat="42.563202000" lon="-2.449321000">
        <ele>643.00</ele>
        <time>2016-10-15T06:36:41Z</time>
      </trkpt>
      <trkpt lat="42.563199000" lon="-2.449321000">
        <ele>643.00</ele>
        <time>2016-10-15T06:36:42Z</time>
      </trkpt>
      <trkpt lat="42.563201000" lon="-2.449320000">
        <ele>643.00</ele>
        <time>2016-10-15T06:36:43Z</time>
      </trkpt>
      <trkpt lat="42.563201000" lon="-2.449320000">
        <ele>643.00</ele>
        <time>2016-10-15T06:36:44Z</time>
      </trkpt>
      <trkpt lat="42.563200000" lon="-2.449320000">
        <ele>643.00</ele>
        <time>2016-10-15T06:36:45Z</time>
      </trkpt>
      <trkpt lat="42.563200000" lon="-2.449320000">
        <ele>643.00</ele>
        <time>2016-10-15T06:36:46Z</time>
      </trkpt>
      <trkpt lat="42.563203000" lon="-2.449320000">
        <ele>643.00</ele>
        <time>2016-10-15T06:36:47Z</time>
      </trkpt>
      <trkpt lat="42.563204000" lon="-2.449320000">
        <ele>643.00</ele>
        <time>2016-10-15T06:36:48Z</time>
      </trkpt>
      <trkpt lat="42.563205000" lon="-2.449320000">
        <ele>643.00</ele>
        <time>2016-10-15T06:36:49Z</time>
      </trkpt>
      <trkpt lat="42.563204000" lon="-2.449320000">
        <ele>643.00</ele>
        <time>2016-10-15T06:36:50Z</time>
      </trkpt>
      <trkpt lat="42.563204000" lon="-2.449320000">
        <ele>643.00</ele>
        <time>2016-10-15T06:36:51Z</time>
      </trkpt>
      <trkpt lat="42.563206000" lon="-2.449323000">
        <ele>643.00</ele>
        <time>2016-10-15T06:36:52Z</time>
      </trkpt>
      <trkpt lat="42.563206000" lon="-2.449323000">
        <ele>642.90</ele>
        <time>2016-10-15T06:36:53Z</time>
      </trkpt>
      <trkpt lat="42.563208000" lon="-2.449322000">
        <ele>642.90</ele>
        <time>2016-10-15T06:36:54Z</time>
      </trkpt>
      <trkpt lat="42.563211000" lon="-2.449322000">
        <ele>642.80</ele>
        <time>2016-10-15T06:36:55Z</time>
      </trkpt>
      <trkpt lat="42.563214000" lon="-2.449324000">
        <ele>642.80</ele>
        <time>2016-10-15T06:36:56Z</time>
      </trkpt>
      <trkpt lat="42.563216000" lon="-2.449325000">
        <ele>642.80</ele>
        <time>2016-10-15T06:36:57Z</time>
      </trkpt>
      <trkpt lat="42.563220000" lon="-2.449326000">
        <ele>642.80</ele>
        <time>2016-10-15T06:36:58Z</time>
      </trkpt>
      <trkpt lat="42.563222000" lon="-2.449326000">
        <ele>642.80</ele>
        <time>2016-10-15T06:36:59Z</time>
      </trkpt>
      <trkpt lat="42.563221000" lon="-2.449328000">
        <ele>642.80</ele>
        <time>2016-10-15T06:37:00Z</time>
      </trkpt>
      <trkpt lat="42.563221000" lon="-2.449326000">
        <ele>642.80</ele>
        <time>2016-10-15T06:37:01Z</time>
      </trkpt>
      <trkpt lat="42.563224000" lon="-2.449327000">
        <ele>642.80</ele>
        <time>2016-10-15T06:37:02Z</time>
      </trkpt>
      <trkpt lat="42.563225000" lon="-2.449326000">
        <ele>642.80</ele>
        <time>2016-10-15T06:37:03Z</time>
      </trkpt>
      <trkpt lat="42.563224000" lon="-2.449324000">
        <ele>642.70</ele>
        <time>2016-10-15T06:37:04Z</time>
      </trkpt>
      <trkpt lat="42.563223000" lon="-2.449324000">
        <ele>642.70</ele>
        <time>2016-10-15T06:37:05Z</time>
      </trkpt>
      <trkpt lat="42.563227000" lon="-2.449323000">
        <ele>642.60</ele>
        <time>2016-10-15T06:37:06Z</time>
      </trkpt>
      <trkpt lat="42.563231000" lon="-2.449323000">
        <ele>642.60</ele>
        <time>2016-10-15T06:37:07Z</time>
      </trkpt>
      <trkpt lat="42.563237000" lon="-2.449326000">
        <ele>642.60</ele>
        <time>2016-10-15T06:37:08Z</time>
      </trkpt>
      <trkpt lat="42.563240000" lon="-2.449328000">
        <ele>642.60</ele>
        <time>2016-10-15T06:37:09Z</time>
      </trkpt>
      <trkpt lat="42.563243000" lon="-2.449331000">
        <ele>642.60</ele>
        <time>2016-10-15T06:37:10Z</time>
      </trkpt>
      <trkpt lat="42.563243000" lon="-2.449332000">
        <ele>642.70</ele>
        <time>2016-10-15T06:37:11Z</time>
      </trkpt>
      <trkpt lat="42.563244000" lon="-2.449337000">
        <ele>642.80</ele>
        <time>2016-10-15T06:37:12Z</time>
      </trkpt>
      <trkpt lat="42.563241000" lon="-2.449337000">
        <ele>642.90</ele>
        <time>2016-10-15T06:37:13Z</time>
      </trkpt>
      <trkpt lat="42.563239000" lon="-2.449337000">
        <ele>642.90</ele>
        <time>2016-10-15T06:37:14Z</time>
      </trkpt>
      <trkpt lat="42.563239000" lon="-2.449335000">
        <ele>643.00</ele>
        <time>2016-10-15T06:37:15Z</time>
      </trkpt>
      <trkpt lat="42.563238000" lon="-2.449333000">
        <ele>643.00</ele>
        <time>2016-10-15T06:37:16Z</time>
      </trkpt>
      <trkpt lat="42.563239000" lon="-2.449332000">
        <ele>643.00</ele>
        <time>2016-10-15T06:37:17Z</time>
      </trkpt>
      <trkpt lat="42.563243000" lon="-2.449332000">
        <ele>643.10</ele>
        <time>2016-10-15T06:37:18Z</time>
      </trkpt>
      <trkpt lat="42.563242000" lon="-2.449330000">
        <ele>643.10</ele>
        <time>2016-10-15T06:37:19Z</time>
      </trkpt>
      <trkpt lat="42.563243000" lon="-2.449333000">
        <ele>643.10</ele>
        <time>2016-10-15T06:37:20Z</time>
      </trkpt>
      <trkpt lat="42.563250000" lon="-2.449333000">
        <ele>643.00</ele>
        <time>2016-10-15T06:37:22Z</time>
      </trkpt>
      <trkpt lat="42.563254000" lon="-2.449335000">
        <ele>643.00</ele>
        <time>2016-10-15T06:37:23Z</time>
      </trkpt>
      <trkpt lat="42.563255000" lon="-2.449337000">
        <ele>643.00</ele>
        <time>2016-10-15T06:37:24Z</time>
      </trkpt>
      <trkpt lat="42.563252000" lon="-2.449338000">
        <ele>643.00</ele>
        <time>2016-10-15T06:37:25Z</time>
      </trkpt>
      <trkpt lat="42.563248000" lon="-2.449335000">
        <ele>643.10</ele>
        <time>2016-10-15T06:37:26Z</time>
      </trkpt>
      <trkpt lat="42.563245000" lon="-2.449334000">
        <ele>643.10</ele>
        <time>2016-10-15T06:37:27Z</time>
      </trkpt>
      <trkpt lat="42.563243000" lon="-2.449335000">
        <ele>643.10</ele>
        <time>2016-10-15T06:37:28Z</time>
      </trkpt>
      <trkpt lat="42.563240000" lon="-2.449336000">
        <ele>643.10</ele>
        <time>2016-10-15T06:37:29Z</time>
      </trkpt>
      <trkpt lat="42.563238000" lon="-2.449332000">
        <ele>643.10</ele>
        <time>2016-10-15T06:37:30Z</time>
      </trkpt>
      <trkpt lat="42.563237000" lon="-2.449335000">
        <ele>643.10</ele>
        <time>2016-10-15T06:37:31Z</time>
      </trkpt>
      <trkpt lat="42.563237000" lon="-2.449336000">
        <ele>643.00</ele>
        <time>2016-10-15T06:37:32Z</time>
      </trkpt>
      <trkpt lat="42.563237000" lon="-2.449337000">
        <ele>643.00</ele>
        <time>2016-10-15T06:37:33Z</time>
      </trkpt>
      <trkpt lat="42.563236000" lon="-2.449334000">
        <ele>643.00</ele>
        <time>2016-10-15T06:37:34Z</time>
      </trkpt>
      <trkpt lat="42.563236000" lon="-2.449334000">
        <ele>643.00</ele>
        <time>2016-10-15T06:37:35Z</time>
      </trkpt>
      <trkpt lat="42.563235000" lon="-2.449332000">
        <ele>643.10</ele>
        <time>2016-10-15T06:37:36Z</time>
      </trkpt>
      <trkpt lat="42.563236000" lon="-2.449329000">
        <ele>643.10</ele>
        <time>2016-10-15T06:37:37Z</time>
      </trkpt>
      <trkpt lat="42.563237000" lon="-2.449328000">
        <ele>643.10</ele>
        <time>2016-10-15T06:37:38Z</time>
      </trkpt>
      <trkpt lat="42.563239000" lon="-2.449329000">
        <ele>643.10</ele>
        <time>2016-10-15T06:37:39Z</time>
      </trkpt>
      <trkpt lat="42.563242000" lon="-2.449330000">
        <ele>643.00</ele>
        <time>2016-10-15T06:37:40Z</time>
      </trkpt>
      <trkpt lat="42.563245000" lon="-2.449333000">
        <ele>642.90</ele>
        <time>2016-10-15T06:37:41Z</time>
      </trkpt>
      <trkpt lat="42.563246000" lon="-2.449335000">
        <ele>642.90</ele>
        <time>2016-10-15T06:37:42Z</time>
      </trkpt>
      <trkpt lat="42.563248000" lon="-2.449338000">
        <ele>642.80</ele>
        <time>2016-10-15T06:37:43Z</time>
      </trkpt>
      <trkpt lat="42.563248000" lon="-2.449339000">
        <ele>642.80</ele>
        <time>2016-10-15T06:37:44Z</time>
      </trkpt>
      <trkpt lat="42.563248000" lon="-2.449341000">
        <ele>642.90</ele>
        <time>2016-10-15T06:37:45Z</time>
      </trkpt>
      <trkpt lat="42.563250000" lon="-2.449341000">
        <ele>642.90</ele>
        <time>2016-10-15T06:37:46Z</time>
      </trkpt>
      <trkpt lat="42.563251000" lon="-2.449339000">
        <ele>642.90</ele>
        <time>2016-10-15T06:37:47Z</time>
      </trkpt>
      <trkpt lat="42.563249000" lon="-2.449338000">
        <ele>642.90</ele>
        <time>2016-10-15T06:37:48Z</time>
      </trkpt>
      <trkpt lat="42.563248000" lon="-2.449337000">
        <ele>642.90</ele>
        <time>2016-10-15T06:37:49Z</time>
      </trkpt>
      <trkpt lat="42.563247000" lon="-2.449332000">
        <ele>642.90</ele>
        <time>2016-10-15T06:37:50Z</time>
      </trkpt>
      <trkpt lat="42.563244000" lon="-2.449329000">
        <ele>643.00</ele>
        <time>2016-10-15T06:37:51Z</time>
      </trkpt>
      <trkpt lat="42.563240000" lon="-2.449326000">
        <ele>643.00</ele>
        <time>2016-10-15T06:37:52Z</time>
      </trkpt>
      <trkpt lat="42.563236000" lon="-2.449322000">
        <ele>643.10</ele>
        <time>2016-10-15T06:37:53Z</time>
      </trkpt>
      <trkpt lat="42.563236000" lon="-2.449322000">
        <ele>643.20</ele>
        <time>2016-10-15T06:37:54Z</time>
      </trkpt>
      <trkpt lat="42.563236000" lon="-2.449321000">
        <ele>643.20</ele>
        <time>2016-10-15T06:37:55Z</time>
      </trkpt>
      <trkpt lat="42.563235000" lon="-2.449320000">
        <ele>643.20</ele>
        <time>2016-10-15T06:37:56Z</time>
      </trkpt>
      <trkpt lat="42.563235000" lon="-2.449318000">
        <ele>643.20</ele>
        <time>2016-10-15T06:37:57Z</time>
      </trkpt>
      <trkpt lat="42.563232000" lon="-2.449316000">
        <ele>643.10</ele>
        <time>2016-10-15T06:37:58Z</time>
      </trkpt>
      <trkpt lat="42.563229000" lon="-2.449316000">
        <ele>643.10</ele>
        <time>2016-10-15T06:37:59Z</time>
      </trkpt>
      <trkpt lat="42.563225000" lon="-2.449315000">
        <ele>643.10</ele>
        <time>2016-10-15T06:38:00Z</time>
      </trkpt>
      <trkpt lat="42.563224000" lon="-2.449317000">
        <ele>643.10</ele>
        <time>2016-10-15T06:38:01Z</time>
      </trkpt>
      <trkpt lat="42.563221000" lon="-2.449321000">
        <ele>643.10</ele>
        <time>2016-10-15T06:38:02Z</time>
      </trkpt>
      <trkpt lat="42.563220000" lon="-2.449323000">
        <ele>643.10</ele>
        <time>2016-10-15T06:38:03Z</time>
      </trkpt>
      <trkpt lat="42.563225000" lon="-2.449333000">
        <ele>643.10</ele>
        <time>2016-10-15T06:38:04Z</time>
      </trkpt>
      <trkpt lat="42.563231000" lon="-2.449340000">
        <ele>643.00</ele>
        <time>2016-10-15T06:38:05Z</time>
      </trkpt>
      <trkpt lat="42.563233000" lon="-2.449345000">
        <ele>643.00</ele>
        <time>2016-10-15T06:38:06Z</time>
      </trkpt>
      <trkpt lat="42.563235000" lon="-2.449349000">
        <ele>642.90</ele>
        <time>2016-10-15T06:38:07Z</time>
      </trkpt>
      <trkpt lat="42.563237000" lon="-2.449349000">
        <ele>643.00</ele>
        <time>2016-10-15T06:38:08Z</time>
      </trkpt>
      <trkpt lat="42.563240000" lon="-2.449352000">
        <ele>643.00</ele>
        <time>2016-10-15T06:38:09Z</time>
      </trkpt>
      <trkpt lat="42.563245000" lon="-2.449352000">
        <ele>643.10</ele>
        <time>2016-10-15T06:38:10Z</time>
      </trkpt>
      <trkpt lat="42.563248000" lon="-2.449350000">
        <ele>643.20</ele>
        <time>2016-10-15T06:38:11Z</time>
      </trkpt>
      <trkpt lat="42.563251000" lon="-2.449348000">
        <ele>643.20</ele>
        <time>2016-10-15T06:38:12Z</time>
      </trkpt>
      <trkpt lat="42.563254000" lon="-2.449345000">
        <ele>643.30</ele>
        <time>2016-10-15T06:38:13Z</time>
      </trkpt>
      <trkpt lat="42.563257000" lon="-2.449343000">
        <ele>643.10</ele>
        <time>2016-10-15T06:38:14Z</time>
      </trkpt>
      <trkpt lat="42.563261000" lon="-2.449341000">
        <ele>643.00</ele>
        <time>2016-10-15T06:38:15Z</time>
      </trkpt>
      <trkpt lat="42.563263000" lon="-2.449342000">
        <ele>642.90</ele>
        <time>2016-10-15T06:38:16Z</time>
      </trkpt>
      <trkpt lat="42.563262000" lon="-2.449342000">
        <ele>642.90</ele>
        <time>2016-10-15T06:38:17Z</time>
      </trkpt>
      <trkpt lat="42.563264000" lon="-2.449343000">
        <ele>642.70</ele>
        <time>2016-10-15T06:38:18Z</time>
      </trkpt>
      <trkpt lat="42.563264000" lon="-2.449342000">
        <ele>642.60</ele>
        <time>2016-10-15T06:38:19Z</time>
      </trkpt>
      <trkpt lat="42.563264000" lon="-2.449344000">
        <ele>642.60</ele>
        <time>2016-10-15T06:38:20Z</time>
      </trkpt>
      <trkpt lat="42.563263000" lon="-2.449342000">
        <ele>642.60</ele>
        <time>2016-10-15T06:38:21Z</time>
      </trkpt>
      <trkpt lat="42.563263000" lon="-2.449342000">
        <ele>642.60</ele>
        <time>2016-10-15T06:38:23Z</time>
      </trkpt>
      <trkpt lat="42.563264000" lon="-2.449344000">
        <ele>642.70</ele>
        <time>2016-10-15T06:38:24Z</time>
      </trkpt>
      <trkpt lat="42.563266000" lon="-2.449343000">
        <ele>642.80</ele>
        <time>2016-10-15T06:38:25Z</time>
      </trkpt>
      <trkpt lat="42.563264000" lon="-2.449344000">
        <ele>642.80</ele>
        <time>2016-10-15T06:38:26Z</time>
      </trkpt>
      <trkpt lat="42.563264000" lon="-2.449345000">
        <ele>642.80</ele>
        <time>2016-10-15T06:38:27Z</time>
      </trkpt>
      <trkpt lat="42.563265000" lon="-2.449344000">
        <ele>642.80</ele>
        <time>2016-10-15T06:38:28Z</time>
      </trkpt>
      <trkpt lat="42.563264000" lon="-2.449344000">
        <ele>642.80</ele>
        <time>2016-10-15T06:38:29Z</time>
      </trkpt>
      <trkpt lat="42.563263000" lon="-2.449344000">
        <ele>642.70</ele>
        <time>2016-10-15T06:38:30Z</time>
      </trkpt>
      <trkpt lat="42.563262000" lon="-2.449343000">
        <ele>642.70</ele>
        <time>2016-10-15T06:38:31Z</time>
      </trkpt>
      <trkpt lat="42.563261000" lon="-2.449341000">
        <ele>642.60</ele>
        <time>2016-10-15T06:38:32Z</time>
      </trkpt>
      <trkpt lat="42.563262000" lon="-2.449339000">
        <ele>642.60</ele>
        <time>2016-10-15T06:38:33Z</time>
      </trkpt>
      <trkpt lat="42.563264000" lon="-2.449337000">
        <ele>642.50</ele>
        <time>2016-10-15T06:38:34Z</time>
      </trkpt>
      <trkpt lat="42.563265000" lon="-2.449339000">
        <ele>642.40</ele>
        <time>2016-10-15T06:38:35Z</time>
      </trkpt>
      <trkpt lat="42.563267000" lon="-2.449342000">
        <ele>642.30</ele>
        <time>2016-10-15T06:38:36Z</time>
      </trkpt>
      <trkpt lat="42.563267000" lon="-2.449341000">
        <ele>642.20</ele>
        <time>2016-10-15T06:38:37Z</time>
      </trkpt>
      <trkpt lat="42.563265000" lon="-2.449344000">
        <ele>642.20</ele>
        <time>2016-10-15T06:38:38Z</time>
      </trkpt>
      <trkpt lat="42.563266000" lon="-2.449344000">
        <ele>642.20</ele>
        <time>2016-10-15T06:38:39Z</time>
      </trkpt>
      <trkpt lat="42.563264000" lon="-2.449344000">
        <ele>642.20</ele>
        <time>2016-10-15T06:38:40Z</time>
      </trkpt>
      <trkpt lat="42.563263000" lon="-2.449346000">
        <ele>642.20</ele>
        <time>2016-10-15T06:38:41Z</time>
      </trkpt>
      <trkpt lat="42.563263000" lon="-2.449346000">
        <ele>642.20</ele>
        <time>2016-10-15T06:38:42Z</time>
      </trkpt>
      <trkpt lat="42.563259000" lon="-2.449346000">
        <ele>642.20</ele>
        <time>2016-10-15T06:38:43Z</time>
      </trkpt>
      <trkpt lat="42.563265000" lon="-2.449346000">
        <ele>642.20</ele>
        <time>2016-10-15T06:38:44Z</time>
      </trkpt>
      <trkpt lat="42.563273000" lon="-2.449346000">
        <ele>642.20</ele>
        <time>2016-10-15T06:38:45Z</time>
      </trkpt>
      <trkpt lat="42.563279000" lon="-2.449345000">
        <ele>642.30</ele>
        <time>2016-10-15T06:38:46Z</time>
      </trkpt>
      <trkpt lat="42.563290000" lon="-2.449342000">
        <ele>642.30</ele>
        <time>2016-10-15T06:38:47Z</time>
      </trkpt>
      <trkpt lat="42.563299000" lon="-2.449339000">
        <ele>642.40</ele>
        <time>2016-10-15T06:38:48Z</time>
      </trkpt>
      <trkpt lat="42.563309000" lon="-2.449339000">
        <ele>642.40</ele>
        <time>2016-10-15T06:38:49Z</time>
      </trkpt>
      <trkpt lat="42.563325000" lon="-2.449342000">
        <ele>642.50</ele>
        <time>2016-10-15T06:38:50Z</time>
      </trkpt>
      <trkpt lat="42.563339000" lon="-2.449343000">
        <ele>642.60</ele>
        <time>2016-10-15T06:38:51Z</time>
      </trkpt>
      <trkpt lat="42.563354000" lon="-2.449346000">
        <ele>642.60</ele>
        <time>2016-10-15T06:38:52Z</time>
      </trkpt>
      <trkpt lat="42.563366000" lon="-2.449350000">
        <ele>642.70</ele>
        <time>2016-10-15T06:38:53Z</time>
      </trkpt>
      <trkpt lat="42.563379000" lon="-2.449354000">
        <ele>642.80</ele>
        <time>2016-10-15T06:38:54Z</time>
      </trkpt>
      <trkpt lat="42.563395000" lon="-2.449361000">
        <ele>642.90</ele>
        <time>2016-10-15T06:38:55Z</time>
      </trkpt>
      <trkpt lat="42.563409000" lon="-2.449364000">
        <ele>643.00</ele>
        <time>2016-10-15T06:38:56Z</time>
      </trkpt>
      <trkpt lat="42.563426000" lon="-2.449371000">
        <ele>643.10</ele>
        <time>2016-10-15T06:38:57Z</time>
      </trkpt>
      <trkpt lat="42.563440000" lon="-2.449380000">
        <ele>643.30</ele>
        <time>2016-10-15T06:38:58Z</time>
      </trkpt>
      <trkpt lat="42.563456000" lon="-2.449383000">
        <ele>643.40</ele>
        <time>2016-10-15T06:38:59Z</time>
      </trkpt>
      <trkpt lat="42.563471000" lon="-2.449381000">
        <ele>643.50</ele>
        <time>2016-10-15T06:39:00Z</time>
      </trkpt>
      <trkpt lat="42.563485000" lon="-2.449380000">
        <ele>643.60</ele>
        <time>2016-10-15T06:39:01Z</time>
      </trkpt>
      <trkpt lat="42.563501000" lon="-2.449379000">
        <ele>643.90</ele>
        <time>2016-10-15T06:39:02Z</time>
      </trkpt>
      <trkpt lat="42.563518000" lon="-2.449384000">
        <ele>644.20</ele>
        <time>2016-10-15T06:39:03Z</time>
      </trkpt>
      <trkpt lat="42.563534000" lon="-2.449388000">
        <ele>644.40</ele>
        <time>2016-10-15T06:39:04Z</time>
      </trkpt>
      <trkpt lat="42.563552000" lon="-2.449392000">
        <ele>644.60</ele>
        <time>2016-10-15T06:39:05Z</time>
      </trkpt>
      <trkpt lat="42.563567000" lon="-2.449396000">
        <ele>644.80</ele>
        <time>2016-10-15T06:39:06Z</time>
      </trkpt>
      <trkpt lat="42.563581000" lon="-2.449399000">
        <ele>645.00</ele>
        <time>2016-10-15T06:39:07Z</time>
      </trkpt>
      <trkpt lat="42.563594000" lon="-2.449402000">
        <ele>645.20</ele>
        <time>2016-10-15T06:39:08Z</time>
      </trkpt>
      <trkpt lat="42.563608000" lon="-2.449408000">
        <ele>645.30</ele>
        <time>2016-10-15T06:39:09Z</time>
      </trkpt>
      <trkpt lat="42.563623000" lon="-2.449408000">
        <ele>645.50</ele>
        <time>2016-10-15T06:39:10Z</time>
      </trkpt>
      <trkpt lat="42.563635000" lon="-2.449409000">
        <ele>645.60</ele>
        <time>2016-10-15T06:39:11Z</time>
      </trkpt>
      <trkpt lat="42.563650000" lon="-2.449412000">
        <ele>645.90</ele>
        <time>2016-10-15T06:39:12Z</time>
      </trkpt>
      <trkpt lat="42.563666000" lon="-2.449419000">
        <ele>646.10</ele>
        <time>2016-10-15T06:39:13Z</time>
      </trkpt>
      <trkpt lat="42.563681000" lon="-2.449419000">
        <ele>646.30</ele>
        <time>2016-10-15T06:39:14Z</time>
      </trkpt>
      <trkpt lat="42.563694000" lon="-2.449417000">
        <ele>646.40</ele>
        <time>2016-10-15T06:39:15Z</time>
      </trkpt>
      <trkpt lat="42.563709000" lon="-2.449421000">
        <ele>646.50</ele>
        <time>2016-10-15T06:39:16Z</time>
      </trkpt>
      <trkpt lat="42.563726000" lon="-2.449423000">
        <ele>646.60</ele>
        <time>2016-10-15T06:39:17Z</time>
      </trkpt>
      <trkpt lat="42.563743000" lon="-2.449424000">
        <ele>646.80</ele>
        <time>2016-10-15T06:39:18Z</time>
      </trkpt>
      <trkpt lat="42.563760000" lon="-2.449425000">
        <ele>647.00</ele>
        <time>2016-10-15T06:39:19Z</time>
      </trkpt>
      <trkpt lat="42.563776000" lon="-2.449428000">
        <ele>647.10</ele>
        <time>2016-10-15T06:39:20Z</time>
      </trkpt>
      <trkpt lat="42.563793000" lon="-2.449428000">
        <ele>647.10</ele>
        <time>2016-10-15T06:39:21Z</time>
      </trkpt>
      <trkpt lat="42.563810000" lon="-2.449430000">
        <ele>647.30</ele>
        <time>2016-10-15T06:39:22Z</time>
      </trkpt>
      <trkpt lat="42.563842000" lon="-2.449434000">
        <ele>647.60</ele>
        <time>2016-10-15T06:39:24Z</time>
      </trkpt>
      <trkpt lat="42.563859000" lon="-2.449434000">
        <ele>647.70</ele>
        <time>2016-10-15T06:39:25Z</time>
      </trkpt>
      <trkpt lat="42.563873000" lon="-2.449434000">
        <ele>648.00</ele>
        <time>2016-10-15T06:39:26Z</time>
      </trkpt>
      <trkpt lat="42.563888000" lon="-2.449428000">
        <ele>648.30</ele>
        <time>2016-10-15T06:39:27Z</time>
      </trkpt>
      <trkpt lat="42.563904000" lon="-2.449427000">
        <ele>648.50</ele>
        <time>2016-10-15T06:39:28Z</time>
      </trkpt>
      <trkpt lat="42.563919000" lon="-2.449427000">
        <ele>648.70</ele>
        <time>2016-10-15T06:39:29Z</time>
      </trkpt>
      <trkpt lat="42.563934000" lon="-2.449430000">
        <ele>648.90</ele>
        <time>2016-10-15T06:39:30Z</time>
      </trkpt>
      <trkpt lat="42.563948000" lon="-2.449428000">
        <ele>649.00</ele>
        <time>2016-10-15T06:39:31Z</time>
      </trkpt>
      <trkpt lat="42.563965000" lon="-2.449425000">
        <ele>649.30</ele>
        <time>2016-10-15T06:39:32Z</time>
      </trkpt>
      <trkpt lat="42.563980000" lon="-2.449421000">
        <ele>649.60</ele>
        <time>2016-10-15T06:39:33Z</time>
      </trkpt>
      <trkpt lat="42.563996000" lon="-2.449419000">
        <ele>649.90</ele>
        <time>2016-10-15T06:39:34Z</time>
      </trkpt>
      <trkpt lat="42.564012000" lon="-2.449422000">
        <ele>650.20</ele>
        <time>2016-10-15T06:39:35Z</time>
      </trkpt>
      <trkpt lat="42.564029000" lon="-2.449422000">
        <ele>650.40</ele>
        <time>2016-10-15T06:39:36Z</time>
      </trkpt>
      <trkpt lat="42.564045000" lon="-2.449421000">
        <ele>650.60</ele>
        <time>2016-10-15T06:39:37Z</time>
      </trkpt>
      <trkpt lat="42.564061000" lon="-2.449423000">
        <ele>650.70</ele>
        <time>2016-10-15T06:39:38Z</time>
      </trkpt>
      <trkpt lat="42.564076000" lon="-2.449422000">
        <ele>650.80</ele>
        <time>2016-10-15T06:39:39Z</time>
      </trkpt>
      <trkpt lat="42.564091000" lon="-2.449422000">
        <ele>650.80</ele>
        <time>2016-10-15T06:39:40Z</time>
      </trkpt>
      <trkpt lat="42.564107000" lon="-2.449422000">
        <ele>650.90</ele>
        <time>2016-10-15T06:39:41Z</time>
      </trkpt>
      <trkpt lat="42.564123000" lon="-2.449425000">
        <ele>651.00</ele>
        <time>2016-10-15T06:39:42Z</time>
      </trkpt>
      <trkpt lat="42.564139000" lon="-2.449424000">
        <ele>651.00</ele>
        <time>2016-10-15T06:39:43Z</time>
      </trkpt>
      <trkpt lat="42.564155000" lon="-2.449424000">
        <ele>651.40</ele>
        <time>2016-10-15T06:39:44Z</time>
      </trkpt>
      <trkpt lat="42.564171000" lon="-2.449422000">
        <ele>651.60</ele>
        <time>2016-10-15T06:39:45Z</time>
      </trkpt>
      <trkpt lat="42.564187000" lon="-2.449418000">
        <ele>651.90</ele>
        <time>2016-10-15T06:39:46Z</time>
      </trkpt>
      <trkpt lat="42.564202000" lon="-2.449414000">
        <ele>652.10</ele>
        <time>2016-10-15T06:39:47Z</time>
      </trkpt>
      <trkpt lat="42.564215000" lon="-2.449413000">
        <ele>652.40</ele>
        <time>2016-10-15T06:39:48Z</time>
      </trkpt>
      <trkpt lat="42.564229000" lon="-2.449410000">
        <ele>652.60</ele>
        <time>2016-10-15T06:39:49Z</time>
      </trkpt>
      <trkpt lat="42.564243000" lon="-2.449408000">
        <ele>652.80</ele>
        <time>2016-10-15T06:39:50Z</time>
      </trkpt>
      <trkpt lat="42.564259000" lon="-2.449405000">
        <ele>653.00</ele>
        <time>2016-10-15T06:39:51Z</time>
      </trkpt>
      <trkpt lat="42.564276000" lon="-2.449402000">
        <ele>653.10</ele>
        <time>2016-10-15T06:39:52Z</time>
      </trkpt>
      <trkpt lat="42.564291000" lon="-2.449400000">
        <ele>653.20</ele>
        <time>2016-10-15T06:39:53Z</time>
      </trkpt>
      <trkpt lat="42.564307000" lon="-2.449399000">
        <ele>653.20</ele>
        <time>2016-10-15T06:39:54Z</time>
      </trkpt>
      <trkpt lat="42.564324000" lon="-2.449399000">
        <ele>653.30</ele>
        <time>2016-10-15T06:39:55Z</time>
      </trkpt>
      <trkpt lat="42.564341000" lon="-2.449397000">
        <ele>653.40</ele>
        <time>2016-10-15T06:39:56Z</time>
      </trkpt>
      <trkpt lat="42.564355000" lon="-2.449393000">
        <ele>653.50</ele>
        <time>2016-10-15T06:39:57Z</time>
      </trkpt>
      <trkpt lat="42.564370000" lon="-2.449387000">
        <ele>653.60</ele>
        <time>2016-10-15T06:39:58Z</time>
      </trkpt>
      <trkpt lat="42.564386000" lon="-2.449384000">
        <ele>653.70</ele>
        <time>2016-10-15T06:39:59Z</time>
      </trkpt>
      <trkpt lat="42.564401000" lon="-2.449377000">
        <ele>653.90</ele>
        <time>2016-10-15T06:40:00Z</time>
      </trkpt>
      <trkpt lat="42.564419000" lon="-2.449376000">
        <ele>654.00</ele>
        <time>2016-10-15T06:40:01Z</time>
      </trkpt>
      <trkpt lat="42.564434000" lon="-2.449373000">
        <ele>654.10</ele>
        <time>2016-10-15T06:40:02Z</time>
      </trkpt>
      <trkpt lat="42.564449000" lon="-2.449364000">
        <ele>654.20</ele>
        <time>2016-10-15T06:40:03Z</time>
      </trkpt>
      <trkpt lat="42.564461000" lon="-2.449359000">
        <ele>654.40</ele>
        <time>2016-10-15T06:40:04Z</time>
      </trkpt>
      <trkpt lat="42.564475000" lon="-2.449359000">
        <ele>654.40</ele>
        <time>2016-10-15T06:40:05Z</time>
      </trkpt>
      <trkpt lat="42.564490000" lon="-2.449354000">
        <ele>654.60</ele>
        <time>2016-10-15T06:40:06Z</time>
      </trkpt>
      <trkpt lat="42.564503000" lon="-2.449347000">
        <ele>654.70</ele>
        <time>2016-10-15T06:40:07Z</time>
      </trkpt>
      <trkpt lat="42.564518000" lon="-2.449343000">
        <ele>654.80</ele>
        <time>2016-10-15T06:40:08Z</time>
      </trkpt>
      <trkpt lat="42.564533000" lon="-2.449333000">
        <ele>654.80</ele>
        <time>2016-10-15T06:40:09Z</time>
      </trkpt>
      <trkpt lat="42.564548000" lon="-2.449328000">
        <ele>654.90</ele>
        <time>2016-10-15T06:40:10Z</time>
      </trkpt>
      <trkpt lat="42.564564000" lon="-2.449322000">
        <ele>655.00</ele>
        <time>2016-10-15T06:40:11Z</time>
      </trkpt>
      <trkpt lat="42.564579000" lon="-2.449315000">
        <ele>655.20</ele>
        <time>2016-10-15T06:40:12Z</time>
      </trkpt>
      <trkpt lat="42.564593000" lon="-2.449306000">
        <ele>655.30</ele>
        <time>2016-10-15T06:40:13Z</time>
      </trkpt>
      <trkpt lat="42.564609000" lon="-2.449298000">
        <ele>655.30</ele>
        <time>2016-10-15T06:40:14Z</time>
      </trkpt>
      <trkpt lat="42.564619000" lon="-2.449291000">
        <ele>655.40</ele>
        <time>2016-10-15T06:40:15Z</time>
      </trkpt>
      <trkpt lat="42.564633000" lon="-2.449283000">
        <ele>655.70</ele>
        <time>2016-10-15T06:40:16Z</time>
      </trkpt>
      <trkpt lat="42.564647000" lon="-2.449275000">
        <ele>655.90</ele>
        <time>2016-10-15T06:40:17Z</time>
      </trkpt>
      <trkpt lat="42.564663000" lon="-2.449266000">
        <ele>656.10</ele>
        <time>2016-10-15T06:40:18Z</time>
      </trkpt>
      <trkpt lat="42.564679000" lon="-2.449262000">
        <ele>656.20</ele>
        <time>2016-10-15T06:40:19Z</time>
      </trkpt>
      <trkpt lat="42.564696000" lon="-2.449253000">
        <ele>656.30</ele>
        <time>2016-10-15T06:40:20Z</time>
      </trkpt>
      <trkpt lat="42.564713000" lon="-2.449242000">
        <ele>656.40</ele>
        <time>2016-10-15T06:40:21Z</time>
      </trkpt>
      <trkpt lat="42.564728000" lon="-2.449231000">
        <ele>656.40</ele>
        <time>2016-10-15T06:40:22Z</time>
      </trkpt>
      <trkpt lat="42.564742000" lon="-2.449219000">
        <ele>656.50</ele>
        <time>2016-10-15T06:40:23Z</time>
      </trkpt>
      <trkpt lat="42.564772000" lon="-2.449201000">
        <ele>656.50</ele>
        <time>2016-10-15T06:40:25Z</time>
      </trkpt>
      <trkpt lat="42.564788000" lon="-2.449190000">
        <ele>656.70</ele>
        <time>2016-10-15T06:40:26Z</time>
      </trkpt>
      <trkpt lat="42.564804000" lon="-2.449180000">
        <ele>656.80</ele>
        <time>2016-10-15T06:40:27Z</time>
      </trkpt>
      <trkpt lat="42.564819000" lon="-2.449168000">
        <ele>657.00</ele>
        <time>2016-10-15T06:40:28Z</time>
      </trkpt>
      <trkpt lat="42.564832000" lon="-2.449155000">
        <ele>657.10</ele>
        <time>2016-10-15T06:40:29Z</time>
      </trkpt>
      <trkpt lat="42.564849000" lon="-2.449146000">
        <ele>657.20</ele>
        <time>2016-10-15T06:40:30Z</time>
      </trkpt>
      <trkpt lat="42.564868000" lon="-2.449136000">
        <ele>657.30</ele>
        <time>2016-10-15T06:40:31Z</time>
      </trkpt>
      <trkpt lat="42.564887000" lon="-2.449125000">
        <ele>657.40</ele>
        <time>2016-10-15T06:40:32Z</time>
      </trkpt>
      <trkpt lat="42.564907000" lon="-2.449118000">
        <ele>657.40</ele>
        <time>2016-10-15T06:40:33Z</time>
      </trkpt>
      <trkpt lat="42.564926000" lon="-2.449108000">
        <ele>657.60</ele>
        <time>2016-10-15T06:40:34Z</time>
      </trkpt>
      <trkpt lat="42.564944000" lon="-2.449099000">
        <ele>657.70</ele>
        <time>2016-10-15T06:40:35Z</time>
      </trkpt>
      <trkpt lat="42.564961000" lon="-2.449092000">
        <ele>657.90</ele>
        <time>2016-10-15T06:40:36Z</time>
      </trkpt>
      <trkpt lat="42.564978000" lon="-2.449084000">
        <ele>658.00</ele>
        <time>2016-10-15T06:40:37Z</time>
      </trkpt>
      <trkpt lat="42.564999000" lon="-2.449077000">
        <ele>658.20</ele>
        <time>2016-10-15T06:40:38Z</time>
      </trkpt>
      <trkpt lat="42.565018000" lon="-2.449071000">
        <ele>658.30</ele>
        <time>2016-10-15T06:40:39Z</time>
      </trkpt>
      <trkpt lat="42.565036000" lon="-2.449063000">
        <ele>658.50</ele>
        <time>2016-10-15T06:40:40Z</time>
      </trkpt>
      <trkpt lat="42.565053000" lon="-2.449053000">
        <ele>658.60</ele>
        <time>2016-10-15T06:40:41Z</time>
      </trkpt>
      <trkpt lat="42.565074000" lon="-2.449048000">
        <ele>658.70</ele>
        <time>2016-10-15T06:40:42Z</time>
      </trkpt>
      <trkpt lat="42.565088000" lon="-2.449042000">
        <ele>658.70</ele>
        <time>2016-10-15T06:40:43Z</time>
      </trkpt>
      <trkpt lat="42.565107000" lon="-2.449036000">
        <ele>658.80</ele>
        <time>2016-10-15T06:40:44Z</time>
      </trkpt>
      <trkpt lat="42.565125000" lon="-2.449031000">
        <ele>658.80</ele>
        <time>2016-10-15T06:40:45Z</time>
      </trkpt>
      <trkpt lat="42.565144000" lon="-2.449027000">
        <ele>658.90</ele>
        <time>2016-10-15T06:40:46Z</time>
      </trkpt>
      <trkpt lat="42.565163000" lon="-2.449022000">
        <ele>659.00</ele>
        <time>2016-10-15T06:40:47Z</time>
      </trkpt>
      <trkpt lat="42.565181000" lon="-2.449020000">
        <ele>659.30</ele>
        <time>2016-10-15T06:40:48Z</time>
      </trkpt>
      <trkpt lat="42.565199000" lon="-2.449017000">
        <ele>659.40</ele>
        <time>2016-10-15T06:40:49Z</time>
      </trkpt>
      <trkpt lat="42.565218000" lon="-2.449019000">
        <ele>659.50</ele>
        <time>2016-10-15T06:40:50Z</time>
      </trkpt>
      <trkpt lat="42.565233000" lon="-2.449016000">
        <ele>659.60</ele>
        <time>2016-10-15T06:40:51Z</time>
      </trkpt>
      <trkpt lat="42.565248000" lon="-2.449011000">
        <ele>659.70</ele>
        <time>2016-10-15T06:40:52Z</time>
      </trkpt>
      <trkpt lat="42.565265000" lon="-2.449009000">
        <ele>659.70</ele>
        <time>2016-10-15T06:40:53Z</time>
      </trkpt>
      <trkpt lat="42.565281000" lon="-2.449009000">
        <ele>659.70</ele>
        <time>2016-10-15T06:40:54Z</time>
      </trkpt>
      <trkpt lat="42.565297000" lon="-2.449010000">
        <ele>659.70</ele>
        <time>2016-10-15T06:40:55Z</time>
      </trkpt>
      <trkpt lat="42.565312000" lon="-2.449008000">
        <ele>659.70</ele>
        <time>2016-10-15T06:40:56Z</time>
      </trkpt>
      <trkpt lat="42.565329000" lon="-2.449009000">
        <ele>659.80</ele>
        <time>2016-10-15T06:40:57Z</time>
      </trkpt>
      <trkpt lat="42.565345000" lon="-2.449009000">
        <ele>659.80</ele>
        <time>2016-10-15T06:40:58Z</time>
      </trkpt>
      <trkpt lat="42.565360000" lon="-2.449007000">
        <ele>659.80</ele>
        <time>2016-10-15T06:40:59Z</time>
      </trkpt>
      <trkpt lat="42.565375000" lon="-2.449002000">
        <ele>660.00</ele>
        <time>2016-10-15T06:41:00Z</time>
      </trkpt>
      <trkpt lat="42.565391000" lon="-2.449004000">
        <ele>660.10</ele>
        <time>2016-10-15T06:41:01Z</time>
      </trkpt>
      <trkpt lat="42.565408000" lon="-2.449002000">
        <ele>660.20</ele>
        <time>2016-10-15T06:41:02Z</time>
      </trkpt>
      <trkpt lat="42.565423000" lon="-2.449003000">
        <ele>660.20</ele>
        <time>2016-10-15T06:41:03Z</time>
      </trkpt>
      <trkpt lat="42.565442000" lon="-2.449004000">
        <ele>660.30</ele>
        <time>2016-10-15T06:41:04Z</time>
      </trkpt>
      <trkpt lat="42.565459000" lon="-2.449002000">
        <ele>660.30</ele>
        <time>2016-10-15T06:41:05Z</time>
      </trkpt>
      <trkpt lat="42.565476000" lon="-2.449005000">
        <ele>660.30</ele>
        <time>2016-10-15T06:41:06Z</time>
      </trkpt>
      <trkpt lat="42.565496000" lon="-2.449007000">
        <ele>660.40</ele>
        <time>2016-10-15T06:41:07Z</time>
      </trkpt>
      <trkpt lat="42.565512000" lon="-2.449011000">
        <ele>660.60</ele>
        <time>2016-10-15T06:41:08Z</time>
      </trkpt>
      <trkpt lat="42.565531000" lon="-2.449010000">
        <ele>660.70</ele>
        <time>2016-10-15T06:41:09Z</time>
      </trkpt>
      <trkpt lat="42.565547000" lon="-2.449010000">
        <ele>660.90</ele>
        <time>2016-10-15T06:41:10Z</time>
      </trkpt>
      <trkpt lat="42.565563000" lon="-2.449009000">
        <ele>661.10</ele>
        <time>2016-10-15T06:41:11Z</time>
      </trkpt>
      <trkpt lat="42.565578000" lon="-2.449009000">
        <ele>661.40</ele>
        <time>2016-10-15T06:41:12Z</time>
      </trkpt>
      <trkpt lat="42.565592000" lon="-2.449010000">
        <ele>661.60</ele>
        <time>2016-10-15T06:41:13Z</time>
      </trkpt>
      <trkpt lat="42.565606000" lon="-2.449012000">
        <ele>661.80</ele>
        <time>2016-10-15T06:41:14Z</time>
      </trkpt>
      <trkpt lat="42.565622000" lon="-2.449014000">
        <ele>662.00</ele>
        <time>2016-10-15T06:41:15Z</time>
      </trkpt>
      <trkpt lat="42.565638000" lon="-2.449014000">
        <ele>662.20</ele>
        <time>2016-10-15T06:41:16Z</time>
      </trkpt>
      <trkpt lat="42.565650000" lon="-2.449015000">
        <ele>662.30</ele>
        <time>2016-10-15T06:41:17Z</time>
      </trkpt>
      <trkpt lat="42.565666000" lon="-2.449011000">
        <ele>662.40</ele>
        <time>2016-10-15T06:41:18Z</time>
      </trkpt>
      <trkpt lat="42.565679000" lon="-2.449008000">
        <ele>662.50</ele>
        <time>2016-10-15T06:41:19Z</time>
      </trkpt>
      <trkpt lat="42.565695000" lon="-2.449009000">
        <ele>662.60</ele>
        <time>2016-10-15T06:41:20Z</time>
      </trkpt>
      <trkpt lat="42.565708000" lon="-2.449009000">
        <ele>662.60</ele>
        <time>2016-10-15T06:41:21Z</time>
      </trkpt>
      <trkpt lat="42.565724000" lon="-2.449007000">
        <ele>662.70</ele>
        <time>2016-10-15T06:41:22Z</time>
      </trkpt>
      <trkpt lat="42.565739000" lon="-2.449007000">
        <ele>662.80</ele>
        <time>2016-10-15T06:41:23Z</time>
      </trkpt>
      <trkpt lat="42.565752000" lon="-2.449008000">
        <ele>662.90</ele>
        <time>2016-10-15T06:41:24Z</time>
      </trkpt>
      <trkpt lat="42.565781000" lon="-2.449008000">
        <ele>663.20</ele>
        <time>2016-10-15T06:41:26Z</time>
      </trkpt>
      <trkpt lat="42.565792000" lon="-2.449005000">
        <ele>663.30</ele>
        <time>2016-10-15T06:41:27Z</time>
      </trkpt>
      <trkpt lat="42.565805000" lon="-2.449005000">
        <ele>663.50</ele>
        <time>2016-10-15T06:41:28Z</time>
      </trkpt>
      <trkpt lat="42.565817000" lon="-2.449003000">
        <ele>663.70</ele>
        <time>2016-10-15T06:41:29Z</time>
      </trkpt>
      <trkpt lat="42.565831000" lon="-2.449003000">
        <ele>663.80</ele>
        <time>2016-10-15T06:41:30Z</time>
      </trkpt>
      <trkpt lat="42.565844000" lon="-2.449003000">
        <ele>664.00</ele>
        <time>2016-10-15T06:41:31Z</time>
      </trkpt>
      <trkpt lat="42.565858000" lon="-2.449002000">
        <ele>664.40</ele>
        <time>2016-10-15T06:41:32Z</time>
      </trkpt>
      <trkpt lat="42.565872000" lon="-2.448999000">
        <ele>664.80</ele>
        <time>2016-10-15T06:41:33Z</time>
      </trkpt>
      <trkpt lat="42.565885000" lon="-2.448998000">
        <ele>665.10</ele>
        <time>2016-10-15T06:41:34Z</time>
      </trkpt>
      <trkpt lat="42.565897000" lon="-2.448999000">
        <ele>665.20</ele>
        <time>2016-10-15T06:41:35Z</time>
      </trkpt>
      <trkpt lat="42.565910000" lon="-2.449001000">
        <ele>665.50</ele>
        <time>2016-10-15T06:41:36Z</time>
      </trkpt>
      <trkpt lat="42.565924000" lon="-2.449002000">
        <ele>665.60</ele>
        <time>2016-10-15T06:41:37Z</time>
      </trkpt>
      <trkpt lat="42.565936000" lon="-2.449005000">
        <ele>665.80</ele>
        <time>2016-10-15T06:41:38Z</time>
      </trkpt>
      <trkpt lat="42.565949000" lon="-2.449010000">
        <ele>666.00</ele>
        <time>2016-10-15T06:41:39Z</time>
      </trkpt>
      <trkpt lat="42.565966000" lon="-2.449016000">
        <ele>666.10</ele>
        <time>2016-10-15T06:41:40Z</time>
      </trkpt>
      <trkpt lat="42.565983000" lon="-2.449018000">
        <ele>666.10</ele>
        <time>2016-10-15T06:41:41Z</time>
      </trkpt>
      <trkpt lat="42.566000000" lon="-2.449018000">
        <ele>666.30</ele>
        <time>2016-10-15T06:41:42Z</time>
      </trkpt>
      <trkpt lat="42.566013000" lon="-2.449022000">
        <ele>666.40</ele>
        <time>2016-10-15T06:41:43Z</time>
      </trkpt>
      <trkpt lat="42.566028000" lon="-2.449021000">
        <ele>666.80</ele>
        <time>2016-10-15T06:41:44Z</time>
      </trkpt>
      <trkpt lat="42.566043000" lon="-2.449022000">
        <ele>667.10</ele>
        <time>2016-10-15T06:41:45Z</time>
      </trkpt>
      <trkpt lat="42.566058000" lon="-2.449022000">
        <ele>667.30</ele>
        <time>2016-10-15T06:41:46Z</time>
      </trkpt>
      <trkpt lat="42.566070000" lon="-2.449025000">
        <ele>667.50</ele>
        <time>2016-10-15T06:41:47Z</time>
      </trkpt>
      <trkpt lat="42.566084000" lon="-2.449024000">
        <ele>667.60</ele>
        <time>2016-10-15T06:41:48Z</time>
      </trkpt>
      <trkpt lat="42.566099000" lon="-2.449025000">
        <ele>667.70</ele>
        <time>2016-10-15T06:41:49Z</time>
      </trkpt>
      <trkpt lat="42.566113000" lon="-2.449029000">
        <ele>667.80</ele>
        <time>2016-10-15T06:41:50Z</time>
      </trkpt>
      <trkpt lat="42.566129000" lon="-2.449034000">
        <ele>667.90</ele>
        <time>2016-10-15T06:41:51Z</time>
      </trkpt>
      <trkpt lat="42.566145000" lon="-2.449037000">
        <ele>668.00</ele>
        <time>2016-10-15T06:41:52Z</time>
      </trkpt>
      <trkpt lat="42.566162000" lon="-2.449040000">
        <ele>668.10</ele>
        <time>2016-10-15T06:41:53Z</time>
      </trkpt>
      <trkpt lat="42.566174000" lon="-2.449044000">
        <ele>668.10</ele>
        <time>2016-10-15T06:41:54Z</time>
      </trkpt>
      <trkpt lat="42.566187000" lon="-2.449049000">
        <ele>668.10</ele>
        <time>2016-10-15T06:41:55Z</time>
      </trkpt>
      <trkpt lat="42.566203000" lon="-2.449053000">
        <ele>668.20</ele>
        <time>2016-10-15T06:41:56Z</time>
      </trkpt>
      <trkpt lat="42.566218000" lon="-2.449059000">
        <ele>668.30</ele>
        <time>2016-10-15T06:41:57Z</time>
      </trkpt>
      <trkpt lat="42.566233000" lon="-2.449063000">
        <ele>668.60</ele>
        <time>2016-10-15T06:41:58Z</time>
      </trkpt>
      <trkpt lat="42.566249000" lon="-2.449071000">
        <ele>668.90</ele>
        <time>2016-10-15T06:41:59Z</time>
      </trkpt>
      <trkpt lat="42.566266000" lon="-2.449080000">
        <ele>669.10</ele>
        <time>2016-10-15T06:42:00Z</time>
      </trkpt>
      <trkpt lat="42.566281000" lon="-2.449088000">
        <ele>669.20</ele>
        <time>2016-10-15T06:42:01Z</time>
      </trkpt>
      <trkpt lat="42.566296000" lon="-2.449095000">
        <ele>669.20</ele>
        <time>2016-10-15T06:42:02Z</time>
      </trkpt>
      <trkpt lat="42.566311000" lon="-2.449103000">
        <ele>669.20</ele>
        <time>2016-10-15T06:42:03Z</time>
      </trkpt>
      <trkpt lat="42.566325000" lon="-2.449110000">
        <ele>669.20</ele>
        <time>2016-10-15T06:42:04Z</time>
      </trkpt>
      <trkpt lat="42.566342000" lon="-2.449116000">
        <ele>669.20</ele>
        <time>2016-10-15T06:42:05Z</time>
      </trkpt>
      <trkpt lat="42.566357000" lon="-2.449126000">
        <ele>669.40</ele>
        <time>2016-10-15T06:42:06Z</time>
      </trkpt>
      <trkpt lat="42.566372000" lon="-2.449133000">
        <ele>669.50</ele>
        <time>2016-10-15T06:42:07Z</time>
      </trkpt>
      <trkpt lat="42.566389000" lon="-2.449139000">
        <ele>669.60</ele>
        <time>2016-10-15T06:42:08Z</time>
      </trkpt>
      <trkpt lat="42.566407000" lon="-2.449147000">
        <ele>669.70</ele>
        <time>2016-10-15T06:42:09Z</time>
      </trkpt>
      <trkpt lat="42.566425000" lon="-2.449157000">
        <ele>669.80</ele>
        <time>2016-10-15T06:42:10Z</time>
      </trkpt>
      <trkpt lat="42.566439000" lon="-2.449166000">
        <ele>669.80</ele>
        <time>2016-10-15T06:42:11Z</time>
      </trkpt>
      <trkpt lat="42.566455000" lon="-2.449174000">
        <ele>669.80</ele>
        <time>2016-10-15T06:42:12Z</time>
      </trkpt>
      <trkpt lat="42.566471000" lon="-2.449180000">
        <ele>669.90</ele>
        <time>2016-10-15T06:42:13Z</time>
      </trkpt>
      <trkpt lat="42.566486000" lon="-2.449189000">
        <ele>670.00</ele>
        <time>2016-10-15T06:42:14Z</time>
      </trkpt>
      <trkpt lat="42.566501000" lon="-2.449197000">
        <ele>670.10</ele>
        <time>2016-10-15T06:42:15Z</time>
      </trkpt>
      <trkpt lat="42.566513000" lon="-2.449201000">
        <ele>670.30</ele>
        <time>2016-10-15T06:42:16Z</time>
      </trkpt>
      <trkpt lat="42.566526000" lon="-2.449208000">
        <ele>670.50</ele>
        <time>2016-10-15T06:42:17Z</time>
      </trkpt>
      <trkpt lat="42.566539000" lon="-2.449214000">
        <ele>670.60</ele>
        <time>2016-10-15T06:42:18Z</time>
      </trkpt>
      <trkpt lat="42.566553000" lon="-2.449219000">
        <ele>670.70</ele>
        <time>2016-10-15T06:42:19Z</time>
      </trkpt>
      <trkpt lat="42.566567000" lon="-2.449224000">
        <ele>670.80</ele>
        <time>2016-10-15T06:42:20Z</time>
      </trkpt>
      <trkpt lat="42.566581000" lon="-2.449232000">
        <ele>670.80</ele>
        <time>2016-10-15T06:42:21Z</time>
      </trkpt>
      <trkpt lat="42.566597000" lon="-2.449240000">
        <ele>671.00</ele>
        <time>2016-10-15T06:42:22Z</time>
      </trkpt>
      <trkpt lat="42.566613000" lon="-2.449248000">
        <ele>671.10</ele>
        <time>2016-10-15T06:42:23Z</time>
      </trkpt>
      <trkpt lat="42.566627000" lon="-2.449258000">
        <ele>671.20</ele>
        <time>2016-10-15T06:42:24Z</time>
      </trkpt>
      <trkpt lat="42.566641000" lon="-2.449267000">
        <ele>671.30</ele>
        <time>2016-10-15T06:42:25Z</time>
      </trkpt>
      <trkpt lat="42.566671000" lon="-2.449282000">
        <ele>671.40</ele>
        <time>2016-10-15T06:42:27Z</time>
      </trkpt>
      <trkpt lat="42.566687000" lon="-2.449287000">
        <ele>671.40</ele>
        <time>2016-10-15T06:42:28Z</time>
      </trkpt>
      <trkpt lat="42.566702000" lon="-2.449296000">
        <ele>671.40</ele>
        <time>2016-10-15T06:42:29Z</time>
      </trkpt>
      <trkpt lat="42.566716000" lon="-2.449305000">
        <ele>671.40</ele>
        <time>2016-10-15T06:42:30Z</time>
      </trkpt>
      <trkpt lat="42.566731000" lon="-2.449314000">
        <ele>671.40</ele>
        <time>2016-10-15T06:42:31Z</time>
      </trkpt>
      <trkpt lat="42.566748000" lon="-2.449322000">
        <ele>671.40</ele>
        <time>2016-10-15T06:42:32Z</time>
      </trkpt>
      <trkpt lat="42.566766000" lon="-2.449328000">
        <ele>671.40</ele>
        <time>2016-10-15T06:42:33Z</time>
      </trkpt>
      <trkpt lat="42.566781000" lon="-2.449338000">
        <ele>671.40</ele>
        <time>2016-10-15T06:42:34Z</time>
      </trkpt>
      <trkpt lat="42.566797000" lon="-2.449345000">
        <ele>671.40</ele>
        <time>2016-10-15T06:42:35Z</time>
      </trkpt>
      <trkpt lat="42.566812000" lon="-2.449348000">
        <ele>671.40</ele>
        <time>2016-10-15T06:42:36Z</time>
      </trkpt>
      <trkpt lat="42.566827000" lon="-2.449357000">
        <ele>671.50</ele>
        <time>2016-10-15T06:42:37Z</time>
      </trkpt>
      <trkpt lat="42.566844000" lon="-2.449365000">
        <ele>671.60</ele>
        <time>2016-10-15T06:42:38Z</time>
      </trkpt>
      <trkpt lat="42.566862000" lon="-2.449374000">
        <ele>671.80</ele>
        <time>2016-10-15T06:42:39Z</time>
      </trkpt>
      <trkpt lat="42.566876000" lon="-2.449379000">
        <ele>672.00</ele>
        <time>2016-10-15T06:42:40Z</time>
      </trkpt>
      <trkpt lat="42.566890000" lon="-2.449384000">
        <ele>672.10</ele>
        <time>2016-10-15T06:42:41Z</time>
      </trkpt>
      <trkpt lat="42.566905000" lon="-2.449392000">
        <ele>672.20</ele>
        <time>2016-10-15T06:42:42Z</time>
      </trkpt>
      <trkpt lat="42.566921000" lon="-2.449398000">
        <ele>672.30</ele>
        <time>2016-10-15T06:42:43Z</time>
      </trkpt>
      <trkpt lat="42.566936000" lon="-2.449410000">
        <ele>672.30</ele>
        <time>2016-10-15T06:42:44Z</time>
      </trkpt>
      <trkpt lat="42.566954000" lon="-2.449417000">
        <ele>672.40</ele>
        <time>2016-10-15T06:42:45Z</time>
      </trkpt>
      <trkpt lat="42.566972000" lon="-2.449424000">
        <ele>672.40</ele>
        <time>2016-10-15T06:42:46Z</time>
      </trkpt>
      <trkpt lat="42.566987000" lon="-2.449430000">
        <ele>672.40</ele>
        <time>2016-10-15T06:42:47Z</time>
      </trkpt>
      <trkpt lat="42.567001000" lon="-2.449440000">
        <ele>672.60</ele>
        <time>2016-10-15T06:42:48Z</time>
      </trkpt>
      <trkpt lat="42.567018000" lon="-2.449447000">
        <ele>672.70</ele>
        <time>2016-10-15T06:42:49Z</time>
      </trkpt>
      <trkpt lat="42.567034000" lon="-2.449454000">
        <ele>672.80</ele>
        <time>2016-10-15T06:42:50Z</time>
      </trkpt>
      <trkpt lat="42.567049000" lon="-2.449463000">
        <ele>672.90</ele>
        <time>2016-10-15T06:42:51Z</time>
      </trkpt>
      <trkpt lat="42.567064000" lon="-2.449470000">
        <ele>673.00</ele>
        <time>2016-10-15T06:42:52Z</time>
      </trkpt>
      <trkpt lat="42.567078000" lon="-2.449477000">
        <ele>673.10</ele>
        <time>2016-10-15T06:42:53Z</time>
      </trkpt>
      <trkpt lat="42.567093000" lon="-2.449487000">
        <ele>673.20</ele>
        <time>2016-10-15T06:42:54Z</time>
      </trkpt>
      <trkpt lat="42.567108000" lon="-2.449495000">
        <ele>673.30</ele>
        <time>2016-10-15T06:42:55Z</time>
      </trkpt>
      <trkpt lat="42.567123000" lon="-2.449504000">
        <ele>673.30</ele>
        <time>2016-10-15T06:42:56Z</time>
      </trkpt>
      <trkpt lat="42.567138000" lon="-2.449509000">
        <ele>673.30</ele>
        <time>2016-10-15T06:42:57Z</time>
      </trkpt>
      <trkpt lat="42.567153000" lon="-2.449516000">
        <ele>673.60</ele>
        <time>2016-10-15T06:42:58Z</time>
      </trkpt>
      <trkpt lat="42.567166000" lon="-2.449524000">
        <ele>673.80</ele>
        <time>2016-10-15T06:42:59Z</time>
      </trkpt>
      <trkpt lat="42.567181000" lon="-2.449532000">
        <ele>674.00</ele>
        <time>2016-10-15T06:43:00Z</time>
      </trkpt>
      <trkpt lat="42.567196000" lon="-2.449538000">
        <ele>674.10</ele>
        <time>2016-10-15T06:43:01Z</time>
      </trkpt>
      <trkpt lat="42.567210000" lon="-2.449545000">
        <ele>674.20</ele>
        <time>2016-10-15T06:43:02Z</time>
      </trkpt>
      <trkpt lat="42.567225000" lon="-2.449550000">
        <ele>674.40</ele>
        <time>2016-10-15T06:43:03Z</time>
      </trkpt>
      <trkpt lat="42.567240000" lon="-2.449556000">
        <ele>674.50</ele>
        <time>2016-10-15T06:43:04Z</time>
      </trkpt>
      <trkpt lat="42.567254000" lon="-2.449563000">
        <ele>674.50</ele>
        <time>2016-10-15T06:43:05Z</time>
      </trkpt>
      <trkpt lat="42.567269000" lon="-2.449569000">
        <ele>674.60</ele>
        <time>2016-10-15T06:43:06Z</time>
      </trkpt>
      <trkpt lat="42.567283000" lon="-2.449575000">
        <ele>674.60</ele>
        <time>2016-10-15T06:43:07Z</time>
      </trkpt>
      <trkpt lat="42.567297000" lon="-2.449582000">
        <ele>674.70</ele>
        <time>2016-10-15T06:43:08Z</time>
      </trkpt>
      <trkpt lat="42.567311000" lon="-2.449589000">
        <ele>674.80</ele>
        <time>2016-10-15T06:43:09Z</time>
      </trkpt>
      <trkpt lat="42.567326000" lon="-2.449596000">
        <ele>674.90</ele>
        <time>2016-10-15T06:43:10Z</time>
      </trkpt>
      <trkpt lat="42.567344000" lon="-2.449602000">
        <ele>675.00</ele>
        <time>2016-10-15T06:43:11Z</time>
      </trkpt>
      <trkpt lat="42.567359000" lon="-2.449610000">
        <ele>675.20</ele>
        <time>2016-10-15T06:43:12Z</time>
      </trkpt>
      <trkpt lat="42.567375000" lon="-2.449619000">
        <ele>675.40</ele>
        <time>2016-10-15T06:43:13Z</time>
      </trkpt>
      <trkpt lat="42.567390000" lon="-2.449626000">
        <ele>675.50</ele>
        <time>2016-10-15T06:43:14Z</time>
      </trkpt>
      <trkpt lat="42.567406000" lon="-2.449633000">
        <ele>675.60</ele>
        <time>2016-10-15T06:43:15Z</time>
      </trkpt>
      <trkpt lat="42.567420000" lon="-2.449641000">
        <ele>675.80</ele>
        <time>2016-10-15T06:43:16Z</time>
      </trkpt>
      <trkpt lat="42.567435000" lon="-2.449650000">
        <ele>675.90</ele>
        <time>2016-10-15T06:43:17Z</time>
      </trkpt>
      <trkpt lat="42.567450000" lon="-2.449658000">
        <ele>675.80</ele>
        <time>2016-10-15T06:43:18Z</time>
      </trkpt>
      <trkpt lat="42.567467000" lon="-2.449668000">
        <ele>675.80</ele>
        <time>2016-10-15T06:43:19Z</time>
      </trkpt>
      <trkpt lat="42.567484000" lon="-2.449676000">
        <ele>676.00</ele>
        <time>2016-10-15T06:43:20Z</time>
      </trkpt>
      <trkpt lat="42.567498000" lon="-2.449685000">
        <ele>676.10</ele>
        <time>2016-10-15T06:43:21Z</time>
      </trkpt>
      <trkpt lat="42.567511000" lon="-2.449691000">
        <ele>676.30</ele>
        <time>2016-10-15T06:43:22Z</time>
      </trkpt>
      <trkpt lat="42.567523000" lon="-2.449698000">
        <ele>676.50</ele>
        <time>2016-10-15T06:43:23Z</time>
      </trkpt>
      <trkpt lat="42.567537000" lon="-2.449705000">
        <ele>676.70</ele>
        <time>2016-10-15T06:43:24Z</time>
      </trkpt>
      <trkpt lat="42.567554000" lon="-2.449711000">
        <ele>676.80</ele>
        <time>2016-10-15T06:43:25Z</time>
      </trkpt>
      <trkpt lat="42.567573000" lon="-2.449716000">
        <ele>676.90</ele>
        <time>2016-10-15T06:43:26Z</time>
      </trkpt>
      <trkpt lat="42.567607000" lon="-2.449728000">
        <ele>677.10</ele>
        <time>2016-10-15T06:43:28Z</time>
      </trkpt>
      <trkpt lat="42.567622000" lon="-2.449735000">
        <ele>677.30</ele>
        <time>2016-10-15T06:43:29Z</time>
      </trkpt>
      <trkpt lat="42.567637000" lon="-2.449741000">
        <ele>677.30</ele>
        <time>2016-10-15T06:43:30Z</time>
      </trkpt>
      <trkpt lat="42.567653000" lon="-2.449746000">
        <ele>677.40</ele>
        <time>2016-10-15T06:43:31Z</time>
      </trkpt>
      <trkpt lat="42.567670000" lon="-2.449748000">
        <ele>677.50</ele>
        <time>2016-10-15T06:43:32Z</time>
      </trkpt>
      <trkpt lat="42.567685000" lon="-2.449753000">
        <ele>677.60</ele>
        <time>2016-10-15T06:43:33Z</time>
      </trkpt>
      <trkpt lat="42.567701000" lon="-2.449757000">
        <ele>677.70</ele>
        <time>2016-10-15T06:43:34Z</time>
      </trkpt>
      <trkpt lat="42.567715000" lon="-2.449762000">
        <ele>677.80</ele>
        <time>2016-10-15T06:43:35Z</time>
      </trkpt>
      <trkpt lat="42.567731000" lon="-2.449766000">
        <ele>677.80</ele>
        <time>2016-10-15T06:43:36Z</time>
      </trkpt>
      <trkpt lat="42.567746000" lon="-2.449768000">
        <ele>677.90</ele>
        <time>2016-10-15T06:43:37Z</time>
      </trkpt>
      <trkpt lat="42.567763000" lon="-2.449773000">
        <ele>678.20</ele>
        <time>2016-10-15T06:43:38Z</time>
      </trkpt>
      <trkpt lat="42.567779000" lon="-2.449777000">
        <ele>678.40</ele>
        <time>2016-10-15T06:43:39Z</time>
      </trkpt>
      <trkpt lat="42.567794000" lon="-2.449783000">
        <ele>678.70</ele>
        <time>2016-10-15T06:43:40Z</time>
      </trkpt>
      <trkpt lat="42.567807000" lon="-2.449783000">
        <ele>678.90</ele>
        <time>2016-10-15T06:43:41Z</time>
      </trkpt>
      <trkpt lat="42.567824000" lon="-2.449785000">
        <ele>679.10</ele>
        <time>2016-10-15T06:43:42Z</time>
      </trkpt>
      <trkpt lat="42.567841000" lon="-2.449788000">
        <ele>679.20</ele>
        <time>2016-10-15T06:43:43Z</time>
      </trkpt>
      <trkpt lat="42.567857000" lon="-2.449789000">
        <ele>679.40</ele>
        <time>2016-10-15T06:43:44Z</time>
      </trkpt>
      <trkpt lat="42.567873000" lon="-2.449790000">
        <ele>679.50</ele>
        <time>2016-10-15T06:43:45Z</time>
      </trkpt>
      <trkpt lat="42.567888000" lon="-2.449787000">
        <ele>679.60</ele>
        <time>2016-10-15T06:43:46Z</time>
      </trkpt>
      <trkpt lat="42.567903000" lon="-2.449786000">
        <ele>679.70</ele>
        <time>2016-10-15T06:43:47Z</time>
      </trkpt>
      <trkpt lat="42.567919000" lon="-2.449783000">
        <ele>679.80</ele>
        <time>2016-10-15T06:43:48Z</time>
      </trkpt>
      <trkpt lat="42.567935000" lon="-2.449781000">
        <ele>679.80</ele>
        <time>2016-10-15T06:43:49Z</time>
      </trkpt>
      <trkpt lat="42.567951000" lon="-2.449779000">
        <ele>680.10</ele>
        <time>2016-10-15T06:43:50Z</time>
      </trkpt>
      <trkpt lat="42.567967000" lon="-2.449778000">
        <ele>680.30</ele>
        <time>2016-10-15T06:43:51Z</time>
      </trkpt>
      <trkpt lat="42.567981000" lon="-2.449774000">
        <ele>680.40</ele>
        <time>2016-10-15T06:43:52Z</time>
      </trkpt>
      <trkpt lat="42.567997000" lon="-2.449769000">
        <ele>680.50</ele>
        <time>2016-10-15T06:43:53Z</time>
      </trkpt>
      <trkpt lat="42.568013000" lon="-2.449767000">
        <ele>680.40</ele>
        <time>2016-10-15T06:43:54Z</time>
      </trkpt>
      <trkpt lat="42.568029000" lon="-2.449763000">
        <ele>680.40</ele>
        <time>2016-10-15T06:43:55Z</time>
      </trkpt>
      <trkpt lat="42.568043000" lon="-2.449758000">
        <ele>680.40</ele>
        <time>2016-10-15T06:43:56Z</time>
      </trkpt>
      <trkpt lat="42.568060000" lon="-2.449750000">
        <ele>680.30</ele>
        <time>2016-10-15T06:43:57Z</time>
      </trkpt>
      <trkpt lat="42.568074000" lon="-2.449742000">
        <ele>680.60</ele>
        <time>2016-10-15T06:43:58Z</time>
      </trkpt>
      <trkpt lat="42.568092000" lon="-2.449738000">
        <ele>680.80</ele>
        <time>2016-10-15T06:43:59Z</time>
      </trkpt>
      <trkpt lat="42.568108000" lon="-2.449729000">
        <ele>681.00</ele>
        <time>2016-10-15T06:44:00Z</time>
      </trkpt>
      <trkpt lat="42.568122000" lon="-2.449724000">
        <ele>681.10</ele>
        <time>2016-10-15T06:44:01Z</time>
      </trkpt>
      <trkpt lat="42.568136000" lon="-2.449719000">
        <ele>681.30</ele>
        <time>2016-10-15T06:44:02Z</time>
      </trkpt>
      <trkpt lat="42.568151000" lon="-2.449713000">
        <ele>681.40</ele>
        <time>2016-10-15T06:44:03Z</time>
      </trkpt>
      <trkpt lat="42.568167000" lon="-2.449707000">
        <ele>681.60</ele>
        <time>2016-10-15T06:44:04Z</time>
      </trkpt>
      <trkpt lat="42.568182000" lon="-2.449700000">
        <ele>681.60</ele>
        <time>2016-10-15T06:44:05Z</time>
      </trkpt>
      <trkpt lat="42.568197000" lon="-2.449694000">
        <ele>681.60</ele>
        <time>2016-10-15T06:44:06Z</time>
      </trkpt>
      <trkpt lat="42.568209000" lon="-2.449685000">
        <ele>681.70</ele>
        <time>2016-10-15T06:44:07Z</time>
      </trkpt>
      <trkpt lat="42.568222000" lon="-2.449673000">
        <ele>681.70</ele>
        <time>2016-10-15T06:44:08Z</time>
      </trkpt>
      <trkpt lat="42.568236000" lon="-2.449665000">
        <ele>681.70</ele>
        <time>2016-10-15T06:44:09Z</time>
      </trkpt>
      <trkpt lat="42.568251000" lon="-2.449658000">
        <ele>681.70</ele>
        <time>2016-10-15T06:44:10Z</time>
      </trkpt>
      <trkpt lat="42.568268000" lon="-2.449653000">
        <ele>681.70</ele>
        <time>2016-10-15T06:44:11Z</time>
      </trkpt>
      <trkpt lat="42.568283000" lon="-2.449646000">
        <ele>681.70</ele>
        <time>2016-10-15T06:44:12Z</time>
      </trkpt>
      <trkpt lat="42.568297000" lon="-2.449641000">
        <ele>681.80</ele>
        <time>2016-10-15T06:44:13Z</time>
      </trkpt>
      <trkpt lat="42.568313000" lon="-2.449635000">
        <ele>681.90</ele>
        <time>2016-10-15T06:44:14Z</time>
      </trkpt>
      <trkpt lat="42.568330000" lon="-2.449629000">
        <ele>682.10</ele>
        <time>2016-10-15T06:44:15Z</time>
      </trkpt>
      <trkpt lat="42.568343000" lon="-2.449624000">
        <ele>682.20</ele>
        <time>2016-10-15T06:44:16Z</time>
      </trkpt>
      <trkpt lat="42.568358000" lon="-2.449621000">
        <ele>682.30</ele>
        <time>2016-10-15T06:44:17Z</time>
      </trkpt>
      <trkpt lat="42.568378000" lon="-2.449617000">
        <ele>682.40</ele>
        <time>2016-10-15T06:44:18Z</time>
      </trkpt>
      <trkpt lat="42.568397000" lon="-2.449611000">
        <ele>682.50</ele>
        <time>2016-10-15T06:44:19Z</time>
      </trkpt>
      <trkpt lat="42.568414000" lon="-2.449605000">
        <ele>682.60</ele>
        <time>2016-10-15T06:44:20Z</time>
      </trkpt>
      <trkpt lat="42.568431000" lon="-2.449599000">
        <ele>682.60</ele>
        <time>2016-10-15T06:44:21Z</time>
      </trkpt>
      <trkpt lat="42.568446000" lon="-2.449593000">
        <ele>682.80</ele>
        <time>2016-10-15T06:44:22Z</time>
      </trkpt>
      <trkpt lat="42.568462000" lon="-2.449588000">
        <ele>682.90</ele>
        <time>2016-10-15T06:44:23Z</time>
      </trkpt>
      <trkpt lat="42.568476000" lon="-2.449582000">
        <ele>683.00</ele>
        <time>2016-10-15T06:44:24Z</time>
      </trkpt>
      <trkpt lat="42.568496000" lon="-2.449577000">
        <ele>683.00</ele>
        <time>2016-10-15T06:44:25Z</time>
      </trkpt>
      <trkpt lat="42.568514000" lon="-2.449573000">
        <ele>683.00</ele>
        <time>2016-10-15T06:44:26Z</time>
      </trkpt>
      <trkpt lat="42.568532000" lon="-2.449571000">
        <ele>683.10</ele>
        <time>2016-10-15T06:44:27Z</time>
      </trkpt>
      <trkpt lat="42.568566000" lon="-2.449560000">
        <ele>683.10</ele>
        <time>2016-10-15T06:44:29Z</time>
      </trkpt>
      <trkpt lat="42.568583000" lon="-2.449555000">
        <ele>683.10</ele>
        <time>2016-10-15T06:44:30Z</time>
      </trkpt>
      <trkpt lat="42.568600000" lon="-2.449554000">
        <ele>683.10</ele>
        <time>2016-10-15T06:44:31Z</time>
      </trkpt>
      <trkpt lat="42.568617000" lon="-2.449551000">
        <ele>683.20</ele>
        <time>2016-10-15T06:44:32Z</time>
      </trkpt>
      <trkpt lat="42.568634000" lon="-2.449549000">
        <ele>683.20</ele>
        <time>2016-10-15T06:44:33Z</time>
      </trkpt>
      <trkpt lat="42.568651000" lon="-2.449545000">
        <ele>683.40</ele>
        <time>2016-10-15T06:44:34Z</time>
      </trkpt>
      <trkpt lat="42.568668000" lon="-2.449537000">
        <ele>683.50</ele>
        <time>2016-10-15T06:44:35Z</time>
      </trkpt>
      <trkpt lat="42.568685000" lon="-2.449535000">
        <ele>683.60</ele>
        <time>2016-10-15T06:44:36Z</time>
      </trkpt>
      <trkpt lat="42.568701000" lon="-2.449532000">
        <ele>683.70</ele>
        <time>2016-10-15T06:44:37Z</time>
      </trkpt>
      <trkpt lat="42.568717000" lon="-2.449527000">
        <ele>683.70</ele>
        <time>2016-10-15T06:44:38Z</time>
      </trkpt>
      <trkpt lat="42.568734000" lon="-2.449525000">
        <ele>683.80</ele>
        <time>2016-10-15T06:44:39Z</time>
      </trkpt>
      <trkpt lat="42.568751000" lon="-2.449524000">
        <ele>683.90</ele>
        <time>2016-10-15T06:44:40Z</time>
      </trkpt>
      <trkpt lat="42.568768000" lon="-2.449523000">
        <ele>684.00</ele>
        <time>2016-10-15T06:44:41Z</time>
      </trkpt>
      <trkpt lat="42.568784000" lon="-2.449521000">
        <ele>684.00</ele>
        <time>2016-10-15T06:44:42Z</time>
      </trkpt>
      <trkpt lat="42.568801000" lon="-2.449513000">
        <ele>684.10</ele>
        <time>2016-10-15T06:44:43Z</time>
      </trkpt>
      <trkpt lat="42.568818000" lon="-2.449508000">
        <ele>684.20</ele>
        <time>2016-10-15T06:44:44Z</time>
      </trkpt>
      <trkpt lat="42.568836000" lon="-2.449507000">
        <ele>684.30</ele>
        <time>2016-10-15T06:44:45Z</time>
      </trkpt>
      <trkpt lat="42.568853000" lon="-2.449504000">
        <ele>684.40</ele>
        <time>2016-10-15T06:44:46Z</time>
      </trkpt>
      <trkpt lat="42.568870000" lon="-2.449502000">
        <ele>684.50</ele>
        <time>2016-10-15T06:44:47Z</time>
      </trkpt>
      <trkpt lat="42.568889000" lon="-2.449500000">
        <ele>684.60</ele>
        <time>2016-10-15T06:44:48Z</time>
      </trkpt>
      <trkpt lat="42.568906000" lon="-2.449498000">
        <ele>684.70</ele>
        <time>2016-10-15T06:44:49Z</time>
      </trkpt>
      <trkpt lat="42.568926000" lon="-2.449499000">
        <ele>684.80</ele>
        <time>2016-10-15T06:44:50Z</time>
      </trkpt>
      <trkpt lat="42.568944000" lon="-2.449499000">
        <ele>684.80</ele>
        <time>2016-10-15T06:44:51Z</time>
      </trkpt>
      <trkpt lat="42.568963000" lon="-2.449498000">
        <ele>685.00</ele>
        <time>2016-10-15T06:44:52Z</time>
      </trkpt>
      <trkpt lat="42.568978000" lon="-2.449495000">
        <ele>685.10</ele>
        <time>2016-10-15T06:44:53Z</time>
      </trkpt>
      <trkpt lat="42.568996000" lon="-2.449496000">
        <ele>685.20</ele>
        <time>2016-10-15T06:44:54Z</time>
      </trkpt>
      <trkpt lat="42.569016000" lon="-2.449498000">
        <ele>685.30</ele>
        <time>2016-10-15T06:44:55Z</time>
      </trkpt>
      <trkpt lat="42.569036000" lon="-2.449501000">
        <ele>685.30</ele>
        <time>2016-10-15T06:44:56Z</time>
      </trkpt>
      <trkpt lat="42.569054000" lon="-2.449498000">
        <ele>685.30</ele>
        <time>2016-10-15T06:44:57Z</time>
      </trkpt>
      <trkpt lat="42.569072000" lon="-2.449499000">
        <ele>685.40</ele>
        <time>2016-10-15T06:44:58Z</time>
      </trkpt>
      <trkpt lat="42.569090000" lon="-2.449502000">
        <ele>685.40</ele>
        <time>2016-10-15T06:44:59Z</time>
      </trkpt>
      <trkpt lat="42.569110000" lon="-2.449506000">
        <ele>685.40</ele>
        <time>2016-10-15T06:45:00Z</time>
      </trkpt>
      <trkpt lat="42.569130000" lon="-2.449507000">
        <ele>685.40</ele>
        <time>2016-10-15T06:45:01Z</time>
      </trkpt>
      <trkpt lat="42.569150000" lon="-2.449510000">
        <ele>685.50</ele>
        <time>2016-10-15T06:45:02Z</time>
      </trkpt>
      <trkpt lat="42.569168000" lon="-2.449518000">
        <ele>685.50</ele>
        <time>2016-10-15T06:45:03Z</time>
      </trkpt>
      <trkpt lat="42.569188000" lon="-2.449520000">
        <ele>685.60</ele>
        <time>2016-10-15T06:45:04Z</time>
      </trkpt>
      <trkpt lat="42.569202000" lon="-2.449522000">
        <ele>685.60</ele>
        <time>2016-10-15T06:45:05Z</time>
      </trkpt>
      <trkpt lat="42.569216000" lon="-2.449528000">
        <ele>685.70</ele>
        <time>2016-10-15T06:45:06Z</time>
      </trkpt>
      <trkpt lat="42.569230000" lon="-2.449535000">
        <ele>685.80</ele>
        <time>2016-10-15T06:45:07Z</time>
      </trkpt>
      <trkpt lat="42.569245000" lon="-2.449542000">
        <ele>685.80</ele>
        <time>2016-10-15T06:45:08Z</time>
      </trkpt>
      <trkpt lat="42.569258000" lon="-2.449548000">
        <ele>685.80</ele>
        <time>2016-10-15T06:45:09Z</time>
      </trkpt>
      <trkpt lat="42.569273000" lon="-2.449555000">
        <ele>686.00</ele>
        <time>2016-10-15T06:45:10Z</time>
      </trkpt>
      <trkpt lat="42.569290000" lon="-2.449556000">
        <ele>686.10</ele>
        <time>2016-10-15T06:45:11Z</time>
      </trkpt>
      <trkpt lat="42.569306000" lon="-2.449571000">
        <ele>686.20</ele>
        <time>2016-10-15T06:45:12Z</time>
      </trkpt>
      <trkpt lat="42.569325000" lon="-2.449581000">
        <ele>686.20</ele>
        <time>2016-10-15T06:45:13Z</time>
      </trkpt>
      <trkpt lat="42.569338000" lon="-2.449591000">
        <ele>686.20</ele>
        <time>2016-10-15T06:45:14Z</time>
      </trkpt>
      <trkpt lat="42.569354000" lon="-2.449598000">
        <ele>686.20</ele>
        <time>2016-10-15T06:45:15Z</time>
      </trkpt>
      <trkpt lat="42.569367000" lon="-2.449610000">
        <ele>686.20</ele>
        <time>2016-10-15T06:45:16Z</time>
      </trkpt>
      <trkpt lat="42.569382000" lon="-2.449618000">
        <ele>686.20</ele>
        <time>2016-10-15T06:45:17Z</time>
      </trkpt>
      <trkpt lat="42.569397000" lon="-2.449631000">
        <ele>686.20</ele>
        <time>2016-10-15T06:45:18Z</time>
      </trkpt>
      <trkpt lat="42.569417000" lon="-2.449642000">
        <ele>686.10</ele>
        <time>2016-10-15T06:45:19Z</time>
      </trkpt>
      <trkpt lat="42.569437000" lon="-2.449651000">
        <ele>686.10</ele>
        <time>2016-10-15T06:45:20Z</time>
      </trkpt>
      <trkpt lat="42.569454000" lon="-2.449658000">
        <ele>686.10</ele>
        <time>2016-10-15T06:45:21Z</time>
      </trkpt>
      <trkpt lat="42.569469000" lon="-2.449670000">
        <ele>686.30</ele>
        <time>2016-10-15T06:45:22Z</time>
      </trkpt>
      <trkpt lat="42.569486000" lon="-2.449680000">
        <ele>686.50</ele>
        <time>2016-10-15T06:45:23Z</time>
      </trkpt>
      <trkpt lat="42.569502000" lon="-2.449690000">
        <ele>686.40</ele>
        <time>2016-10-15T06:45:24Z</time>
      </trkpt>
      <trkpt lat="42.569516000" lon="-2.449702000">
        <ele>686.40</ele>
        <time>2016-10-15T06:45:25Z</time>
      </trkpt>
      <trkpt lat="42.569536000" lon="-2.449711000">
        <ele>686.60</ele>
        <time>2016-10-15T06:45:26Z</time>
      </trkpt>
      <trkpt lat="42.569559000" lon="-2.449717000">
        <ele>686.70</ele>
        <time>2016-10-15T06:45:27Z</time>
      </trkpt>
      <trkpt lat="42.569580000" lon="-2.449725000">
        <ele>686.80</ele>
        <time>2016-10-15T06:45:28Z</time>
      </trkpt>
      <trkpt lat="42.569615000" lon="-2.449737000">
        <ele>687.10</ele>
        <time>2016-10-15T06:45:30Z</time>
      </trkpt>
      <trkpt lat="42.569632000" lon="-2.449743000">
        <ele>687.20</ele>
        <time>2016-10-15T06:45:31Z</time>
      </trkpt>
      <trkpt lat="42.569650000" lon="-2.449747000">
        <ele>687.30</ele>
        <time>2016-10-15T06:45:32Z</time>
      </trkpt>
      <trkpt lat="42.569667000" lon="-2.449753000">
        <ele>687.40</ele>
        <time>2016-10-15T06:45:33Z</time>
      </trkpt>
      <trkpt lat="42.569683000" lon="-2.449759000">
        <ele>687.50</ele>
        <time>2016-10-15T06:45:34Z</time>
      </trkpt>
      <trkpt lat="42.569699000" lon="-2.449767000">
        <ele>687.50</ele>
        <time>2016-10-15T06:45:35Z</time>
      </trkpt>
      <trkpt lat="42.569713000" lon="-2.449774000">
        <ele>687.60</ele>
        <time>2016-10-15T06:45:36Z</time>
      </trkpt>
      <trkpt lat="42.569728000" lon="-2.449782000">
        <ele>687.70</ele>
        <time>2016-10-15T06:45:37Z</time>
      </trkpt>
      <trkpt lat="42.569742000" lon="-2.449790000">
        <ele>687.80</ele>
        <time>2016-10-15T06:45:38Z</time>
      </trkpt>
      <trkpt lat="42.569761000" lon="-2.449797000">
        <ele>687.90</ele>
        <time>2016-10-15T06:45:39Z</time>
      </trkpt>
      <trkpt lat="42.569783000" lon="-2.449802000">
        <ele>688.00</ele>
        <time>2016-10-15T06:45:40Z</time>
      </trkpt>
      <trkpt lat="42.569804000" lon="-2.449810000">
        <ele>688.00</ele>
        <time>2016-10-15T06:45:41Z</time>
      </trkpt>
      <trkpt lat="42.569826000" lon="-2.449819000">
        <ele>688.10</ele>
        <time>2016-10-15T06:45:42Z</time>
      </trkpt>
      <trkpt lat="42.569845000" lon="-2.449829000">
        <ele>688.10</ele>
        <time>2016-10-15T06:45:43Z</time>
      </trkpt>
      <trkpt lat="42.569864000" lon="-2.449838000">
        <ele>688.10</ele>
        <time>2016-10-15T06:45:44Z</time>
      </trkpt>
      <trkpt lat="42.569882000" lon="-2.449847000">
        <ele>688.10</ele>
        <time>2016-10-15T06:45:44Z</time>
      </trkpt>
      <trkpt lat="42.569898000" lon="-2.449857000">
        <ele>688.20</ele>
        <time>2016-10-15T06:45:46Z</time>
      </trkpt>
      <trkpt lat="42.569916000" lon="-2.449867000">
        <ele>688.30</ele>
        <time>2016-10-15T06:45:47Z</time>
      </trkpt>
      <trkpt lat="42.569932000" lon="-2.449878000">
        <ele>688.40</ele>
        <time>2016-10-15T06:45:48Z</time>
      </trkpt>
      <trkpt lat="42.569947000" lon="-2.449888000">
        <ele>688.50</ele>
        <time>2016-10-15T06:45:49Z</time>
      </trkpt>
      <trkpt lat="42.569964000" lon="-2.449897000">
        <ele>688.70</ele>
        <time>2016-10-15T06:45:50Z</time>
      </trkpt>
      <trkpt lat="42.569981000" lon="-2.449903000">
        <ele>688.90</ele>
        <time>2016-10-15T06:45:51Z</time>
      </trkpt>
      <trkpt lat="42.569996000" lon="-2.449915000">
        <ele>689.10</ele>
        <time>2016-10-15T06:45:52Z</time>
      </trkpt>
      <trkpt lat="42.570010000" lon="-2.449925000">
        <ele>689.20</ele>
        <time>2016-10-15T06:45:53Z</time>
      </trkpt>
      <trkpt lat="42.570025000" lon="-2.449934000">
        <ele>689.30</ele>
        <time>2016-10-15T06:45:54Z</time>
      </trkpt>
      <trkpt lat="42.570040000" lon="-2.449940000">
        <ele>689.30</ele>
        <time>2016-10-15T06:45:55Z</time>
      </trkpt>
      <trkpt lat="42.570054000" lon="-2.449948000">
        <ele>689.40</ele>
        <time>2016-10-15T06:45:56Z</time>
      </trkpt>
      <trkpt lat="42.570068000" lon="-2.449956000">
        <ele>689.40</ele>
        <time>2016-10-15T06:45:57Z</time>
      </trkpt>
      <trkpt lat="42.570081000" lon="-2.449963000">
        <ele>689.60</ele>
        <time>2016-10-15T06:45:58Z</time>
      </trkpt>
      <trkpt lat="42.570095000" lon="-2.449973000">
        <ele>689.70</ele>
        <time>2016-10-15T06:45:59Z</time>
      </trkpt>
      <trkpt lat="42.570108000" lon="-2.449981000">
        <ele>689.80</ele>
        <time>2016-10-15T06:46:00Z</time>
      </trkpt>
      <trkpt lat="42.570121000" lon="-2.449989000">
        <ele>689.80</ele>
        <time>2016-10-15T06:46:01Z</time>
      </trkpt>
      <trkpt lat="42.570132000" lon="-2.449999000">
        <ele>690.00</ele>
        <time>2016-10-15T06:46:02Z</time>
      </trkpt>
      <trkpt lat="42.570144000" lon="-2.450007000">
        <ele>690.10</ele>
        <time>2016-10-15T06:46:03Z</time>
      </trkpt>
      <trkpt lat="42.570158000" lon="-2.450019000">
        <ele>690.10</ele>
        <time>2016-10-15T06:46:04Z</time>
      </trkpt>
      <trkpt lat="42.570170000" lon="-2.450030000">
        <ele>690.20</ele>
        <time>2016-10-15T06:46:05Z</time>
      </trkpt>
      <trkpt lat="42.570186000" lon="-2.450041000">
        <ele>690.50</ele>
        <time>2016-10-15T06:46:06Z</time>
      </trkpt>
      <trkpt lat="42.570199000" lon="-2.450049000">
        <ele>690.80</ele>
        <time>2016-10-15T06:46:07Z</time>
      </trkpt>
      <trkpt lat="42.570213000" lon="-2.450058000">
        <ele>691.10</ele>
        <time>2016-10-15T06:46:08Z</time>
      </trkpt>
      <trkpt lat="42.570230000" lon="-2.450071000">
        <ele>691.30</ele>
        <time>2016-10-15T06:46:09Z</time>
      </trkpt>
      <trkpt lat="42.570244000" lon="-2.450083000">
        <ele>691.50</ele>
        <time>2016-10-15T06:46:10Z</time>
      </trkpt>
      <trkpt lat="42.570261000" lon="-2.450096000">
        <ele>691.70</ele>
        <time>2016-10-15T06:46:11Z</time>
      </trkpt>
      <trkpt lat="42.570279000" lon="-2.450107000">
        <ele>691.90</ele>
        <time>2016-10-15T06:46:12Z</time>
      </trkpt>
      <trkpt lat="42.570296000" lon="-2.450117000">
        <ele>692.00</ele>
        <time>2016-10-15T06:46:13Z</time>
      </trkpt>
      <trkpt lat="42.570311000" lon="-2.450125000">
        <ele>692.10</ele>
        <time>2016-10-15T06:46:14Z</time>
      </trkpt>
      <trkpt lat="42.570326000" lon="-2.450138000">
        <ele>692.20</ele>
        <time>2016-10-15T06:46:15Z</time>
      </trkpt>
      <trkpt lat="42.570342000" lon="-2.450147000">
        <ele>692.40</ele>
        <time>2016-10-15T06:46:16Z</time>
      </trkpt>
      <trkpt lat="42.570357000" lon="-2.450154000">
        <ele>692.60</ele>
        <time>2016-10-15T06:46:17Z</time>
      </trkpt>
      <trkpt lat="42.570372000" lon="-2.450159000">
        <ele>692.70</ele>
        <time>2016-10-15T06:46:18Z</time>
      </trkpt>
      <trkpt lat="42.570387000" lon="-2.450166000">
        <ele>692.70</ele>
        <time>2016-10-15T06:46:19Z</time>
      </trkpt>
      <trkpt lat="42.570404000" lon="-2.450172000">
        <ele>693.00</ele>
        <time>2016-10-15T06:46:20Z</time>
      </trkpt>
      <trkpt lat="42.570422000" lon="-2.450179000">
        <ele>693.10</ele>
        <time>2016-10-15T06:46:21Z</time>
      </trkpt>
      <trkpt lat="42.570444000" lon="-2.450185000">
        <ele>693.20</ele>
        <time>2016-10-15T06:46:22Z</time>
      </trkpt>
      <trkpt lat="42.570467000" lon="-2.450189000">
        <ele>693.30</ele>
        <time>2016-10-15T06:46:23Z</time>
      </trkpt>
      <trkpt lat="42.570487000" lon="-2.450199000">
        <ele>693.50</ele>
        <time>2016-10-15T06:46:24Z</time>
      </trkpt>
      <trkpt lat="42.570510000" lon="-2.450203000">
        <ele>693.60</ele>
        <time>2016-10-15T06:46:25Z</time>
      </trkpt>
      <trkpt lat="42.570534000" lon="-2.450209000">
        <ele>693.60</ele>
        <time>2016-10-15T06:46:26Z</time>
      </trkpt>
      <trkpt lat="42.570559000" lon="-2.450214000">
        <ele>693.60</ele>
        <time>2016-10-15T06:46:27Z</time>
      </trkpt>
      <trkpt lat="42.570580000" lon="-2.450219000">
        <ele>693.70</ele>
        <time>2016-10-15T06:46:28Z</time>
      </trkpt>
      <trkpt lat="42.570601000" lon="-2.450224000">
        <ele>693.70</ele>
        <time>2016-10-15T06:46:29Z</time>
      </trkpt>
      <trkpt lat="42.570644000" lon="-2.450233000">
        <ele>694.00</ele>
        <time>2016-10-15T06:46:31Z</time>
      </trkpt>
      <trkpt lat="42.570665000" lon="-2.450238000">
        <ele>694.10</ele>
        <time>2016-10-15T06:46:32Z</time>
      </trkpt>
      <trkpt lat="42.570688000" lon="-2.450244000">
        <ele>694.20</ele>
        <time>2016-10-15T06:46:33Z</time>
      </trkpt>
      <trkpt lat="42.570710000" lon="-2.450246000">
        <ele>694.30</ele>
        <time>2016-10-15T06:46:34Z</time>
      </trkpt>
      <trkpt lat="42.570731000" lon="-2.450246000">
        <ele>694.30</ele>
        <time>2016-10-15T06:46:35Z</time>
      </trkpt>
      <trkpt lat="42.570753000" lon="-2.450248000">
        <ele>694.10</ele>
        <time>2016-10-15T06:46:36Z</time>
      </trkpt>
      <trkpt lat="42.570777000" lon="-2.450251000">
        <ele>694.00</ele>
        <time>2016-10-15T06:46:37Z</time>
      </trkpt>
      <trkpt lat="42.570800000" lon="-2.450253000">
        <ele>693.90</ele>
        <time>2016-10-15T06:46:38Z</time>
      </trkpt>
      <trkpt lat="42.570822000" lon="-2.450257000">
        <ele>693.80</ele>
        <time>2016-10-15T06:46:39Z</time>
      </trkpt>
      <trkpt lat="42.570844000" lon="-2.450260000">
        <ele>693.80</ele>
        <time>2016-10-15T06:46:40Z</time>
      </trkpt>
      <trkpt lat="42.570866000" lon="-2.450262000">
        <ele>693.90</ele>
        <time>2016-10-15T06:46:41Z</time>
      </trkpt>
      <trkpt lat="42.570891000" lon="-2.450265000">
        <ele>694.10</ele>
        <time>2016-10-15T06:46:42Z</time>
      </trkpt>
      <trkpt lat="42.570913000" lon="-2.450267000">
        <ele>694.20</ele>
        <time>2016-10-15T06:46:43Z</time>
      </trkpt>
      <trkpt lat="42.570937000" lon="-2.450271000">
        <ele>694.30</ele>
        <time>2016-10-15T06:46:44Z</time>
      </trkpt>
      <trkpt lat="42.570958000" lon="-2.450270000">
        <ele>694.40</ele>
        <time>2016-10-15T06:46:45Z</time>
      </trkpt>
      <trkpt lat="42.570979000" lon="-2.450268000">
        <ele>694.50</ele>
        <time>2016-10-15T06:46:46Z</time>
      </trkpt>
      <trkpt lat="42.571003000" lon="-2.450272000">
        <ele>694.50</ele>
        <time>2016-10-15T06:46:47Z</time>
      </trkpt>
      <trkpt lat="42.571022000" lon="-2.450272000">
        <ele>694.60</ele>
        <time>2016-10-15T06:46:48Z</time>
      </trkpt>
      <trkpt lat="42.571041000" lon="-2.450276000">
        <ele>694.70</ele>
        <time>2016-10-15T06:46:49Z</time>
      </trkpt>
      <trkpt lat="42.571059000" lon="-2.450277000">
        <ele>694.80</ele>
        <time>2016-10-15T06:46:50Z</time>
      </trkpt>
      <trkpt lat="42.571078000" lon="-2.450282000">
        <ele>694.80</ele>
        <time>2016-10-15T06:46:51Z</time>
      </trkpt>
      <trkpt lat="42.571099000" lon="-2.450290000">
        <ele>694.90</ele>
        <time>2016-10-15T06:46:52Z</time>
      </trkpt>
      <trkpt lat="42.571118000" lon="-2.450297000">
        <ele>694.90</ele>
        <time>2016-10-15T06:46:53Z</time>
      </trkpt>
      <trkpt lat="42.571137000" lon="-2.450306000">
        <ele>695.00</ele>
        <time>2016-10-15T06:46:54Z</time>
      </trkpt>
      <trkpt lat="42.571156000" lon="-2.450315000">
        <ele>695.10</ele>
        <time>2016-10-15T06:46:55Z</time>
      </trkpt>
      <trkpt lat="42.571175000" lon="-2.450326000">
        <ele>695.20</ele>
        <time>2016-10-15T06:46:56Z</time>
      </trkpt>
      <trkpt lat="42.571196000" lon="-2.450340000">
        <ele>695.20</ele>
        <time>2016-10-15T06:46:57Z</time>
      </trkpt>
      <trkpt lat="42.571214000" lon="-2.450353000">
        <ele>695.30</ele>
        <time>2016-10-15T06:46:58Z</time>
      </trkpt>
      <trkpt lat="42.571232000" lon="-2.450366000">
        <ele>695.30</ele>
        <time>2016-10-15T06:46:59Z</time>
      </trkpt>
      <trkpt lat="42.571249000" lon="-2.450381000">
        <ele>695.30</ele>
        <time>2016-10-15T06:47:00Z</time>
      </trkpt>
      <trkpt lat="42.571267000" lon="-2.450394000">
        <ele>695.30</ele>
        <time>2016-10-15T06:47:01Z</time>
      </trkpt>
      <trkpt lat="42.571285000" lon="-2.450411000">
        <ele>695.40</ele>
        <time>2016-10-15T06:47:02Z</time>
      </trkpt>
      <trkpt lat="42.571303000" lon="-2.450429000">
        <ele>695.40</ele>
        <time>2016-10-15T06:47:03Z</time>
      </trkpt>
      <trkpt lat="42.571321000" lon="-2.450449000">
        <ele>695.40</ele>
        <time>2016-10-15T06:47:04Z</time>
      </trkpt>
      <trkpt lat="42.571340000" lon="-2.450467000">
        <ele>695.40</ele>
        <time>2016-10-15T06:47:05Z</time>
      </trkpt>
      <trkpt lat="42.571358000" lon="-2.450487000">
        <ele>695.60</ele>
        <time>2016-10-15T06:47:06Z</time>
      </trkpt>
      <trkpt lat="42.571375000" lon="-2.450506000">
        <ele>695.70</ele>
        <time>2016-10-15T06:47:07Z</time>
      </trkpt>
      <trkpt lat="42.571392000" lon="-2.450524000">
        <ele>696.00</ele>
        <time>2016-10-15T06:47:08Z</time>
      </trkpt>
      <trkpt lat="42.571414000" lon="-2.450541000">
        <ele>696.20</ele>
        <time>2016-10-15T06:47:09Z</time>
      </trkpt>
      <trkpt lat="42.571434000" lon="-2.450563000">
        <ele>696.30</ele>
        <time>2016-10-15T06:47:10Z</time>
      </trkpt>
      <trkpt lat="42.571455000" lon="-2.450585000">
        <ele>696.40</ele>
        <time>2016-10-15T06:47:11Z</time>
      </trkpt>
      <trkpt lat="42.571481000" lon="-2.450606000">
        <ele>696.40</ele>
        <time>2016-10-15T06:47:12Z</time>
      </trkpt>
      <trkpt lat="42.571504000" lon="-2.450628000">
        <ele>696.30</ele>
        <time>2016-10-15T06:47:13Z</time>
      </trkpt>
      <trkpt lat="42.571526000" lon="-2.450653000">
        <ele>696.30</ele>
        <time>2016-10-15T06:47:14Z</time>
      </trkpt>
      <trkpt lat="42.571549000" lon="-2.450680000">
        <ele>696.30</ele>
        <time>2016-10-15T06:47:15Z</time>
      </trkpt>
      <trkpt lat="42.571573000" lon="-2.450708000">
        <ele>696.30</ele>
        <time>2016-10-15T06:47:16Z</time>
      </trkpt>
      <trkpt lat="42.571598000" lon="-2.450733000">
        <ele>696.40</ele>
        <time>2016-10-15T06:47:17Z</time>
      </trkpt>
      <trkpt lat="42.571622000" lon="-2.450755000">
        <ele>696.40</ele>
        <time>2016-10-15T06:47:18Z</time>
      </trkpt>
      <trkpt lat="42.571650000" lon="-2.450778000">
        <ele>696.40</ele>
        <time>2016-10-15T06:47:19Z</time>
      </trkpt>
      <trkpt lat="42.571676000" lon="-2.450799000">
        <ele>696.40</ele>
        <time>2016-10-15T06:47:20Z</time>
      </trkpt>
      <trkpt lat="42.571702000" lon="-2.450820000">
        <ele>696.30</ele>
        <time>2016-10-15T06:47:21Z</time>
      </trkpt>
      <trkpt lat="42.571728000" lon="-2.450839000">
        <ele>696.30</ele>
        <time>2016-10-15T06:47:22Z</time>
      </trkpt>
      <trkpt lat="42.571757000" lon="-2.450858000">
        <ele>696.30</ele>
        <time>2016-10-15T06:47:23Z</time>
      </trkpt>
      <trkpt lat="42.571783000" lon="-2.450877000">
        <ele>696.20</ele>
        <time>2016-10-15T06:47:24Z</time>
      </trkpt>
      <trkpt lat="42.571808000" lon="-2.450892000">
        <ele>696.20</ele>
        <time>2016-10-15T06:47:25Z</time>
      </trkpt>
      <trkpt lat="42.571834000" lon="-2.450905000">
        <ele>696.30</ele>
        <time>2016-10-15T06:47:26Z</time>
      </trkpt>
      <trkpt lat="42.571858000" lon="-2.450922000">
        <ele>696.30</ele>
        <time>2016-10-15T06:47:27Z</time>
      </trkpt>
      <trkpt lat="42.571880000" lon="-2.450937000">
        <ele>696.40</ele>
        <time>2016-10-15T06:47:28Z</time>
      </trkpt>
      <trkpt lat="42.571902000" lon="-2.450947000">
        <ele>696.40</ele>
        <time>2016-10-15T06:47:29Z</time>
      </trkpt>
      <trkpt lat="42.571925000" lon="-2.450959000">
        <ele>696.50</ele>
        <time>2016-10-15T06:47:30Z</time>
      </trkpt>
      <trkpt lat="42.571970000" lon="-2.450988000">
        <ele>696.70</ele>
        <time>2016-10-15T06:47:32Z</time>
      </trkpt>
      <trkpt lat="42.571991000" lon="-2.451001000">
        <ele>696.80</ele>
        <time>2016-10-15T06:47:33Z</time>
      </trkpt>
      <trkpt lat="42.572013000" lon="-2.451017000">
        <ele>696.90</ele>
        <time>2016-10-15T06:47:34Z</time>
      </trkpt>
      <trkpt lat="42.572035000" lon="-2.451033000">
        <ele>697.00</ele>
        <time>2016-10-15T06:47:35Z</time>
      </trkpt>
      <trkpt lat="42.572055000" lon="-2.451047000">
        <ele>697.10</ele>
        <time>2016-10-15T06:47:36Z</time>
      </trkpt>
      <trkpt lat="42.572077000" lon="-2.451065000">
        <ele>697.20</ele>
        <time>2016-10-15T06:47:37Z</time>
      </trkpt>
      <trkpt lat="42.572095000" lon="-2.451085000">
        <ele>697.20</ele>
        <time>2016-10-15T06:47:38Z</time>
      </trkpt>
      <trkpt lat="42.572114000" lon="-2.451102000">
        <ele>697.30</ele>
        <time>2016-10-15T06:47:39Z</time>
      </trkpt>
      <trkpt lat="42.572133000" lon="-2.451123000">
        <ele>697.30</ele>
        <time>2016-10-15T06:47:40Z</time>
      </trkpt>
      <trkpt lat="42.572154000" lon="-2.451142000">
        <ele>697.40</ele>
        <time>2016-10-15T06:47:41Z</time>
      </trkpt>
      <trkpt lat="42.572171000" lon="-2.451162000">
        <ele>697.50</ele>
        <time>2016-10-15T06:47:42Z</time>
      </trkpt>
      <trkpt lat="42.572188000" lon="-2.451183000">
        <ele>697.50</ele>
        <time>2016-10-15T06:47:43Z</time>
      </trkpt>
      <trkpt lat="42.572204000" lon="-2.451203000">
        <ele>697.80</ele>
        <time>2016-10-15T06:47:44Z</time>
      </trkpt>
      <trkpt lat="42.572222000" lon="-2.451226000">
        <ele>698.00</ele>
        <time>2016-10-15T06:47:45Z</time>
      </trkpt>
      <trkpt lat="42.572241000" lon="-2.451244000">
        <ele>698.20</ele>
        <time>2016-10-15T06:47:46Z</time>
      </trkpt>
      <trkpt lat="42.572260000" lon="-2.451266000">
        <ele>698.30</ele>
        <time>2016-10-15T06:47:47Z</time>
      </trkpt>
      <trkpt lat="42.572277000" lon="-2.451287000">
        <ele>698.40</ele>
        <time>2016-10-15T06:47:48Z</time>
      </trkpt>
      <trkpt lat="42.572296000" lon="-2.451308000">
        <ele>698.50</ele>
        <time>2016-10-15T06:47:49Z</time>
      </trkpt>
      <trkpt lat="42.572315000" lon="-2.451331000">
        <ele>698.50</ele>
        <time>2016-10-15T06:47:50Z</time>
      </trkpt>
      <trkpt lat="42.572335000" lon="-2.451353000">
        <ele>698.50</ele>
        <time>2016-10-15T06:47:51Z</time>
      </trkpt>
      <trkpt lat="42.572356000" lon="-2.451373000">
        <ele>698.50</ele>
        <time>2016-10-15T06:47:52Z</time>
      </trkpt>
      <trkpt lat="42.572375000" lon="-2.451394000">
        <ele>698.40</ele>
        <time>2016-10-15T06:47:53Z</time>
      </trkpt>
      <trkpt lat="42.572395000" lon="-2.451414000">
        <ele>698.40</ele>
        <time>2016-10-15T06:47:54Z</time>
      </trkpt>
      <trkpt lat="42.572414000" lon="-2.451433000">
        <ele>698.40</ele>
        <time>2016-10-15T06:47:55Z</time>
      </trkpt>
      <trkpt lat="42.572433000" lon="-2.451451000">
        <ele>698.50</ele>
        <time>2016-10-15T06:47:56Z</time>
      </trkpt>
      <trkpt lat="42.572453000" lon="-2.451465000">
        <ele>698.60</ele>
        <time>2016-10-15T06:47:57Z</time>
      </trkpt>
      <trkpt lat="42.572475000" lon="-2.451486000">
        <ele>698.60</ele>
        <time>2016-10-15T06:47:58Z</time>
      </trkpt>
      <trkpt lat="42.572495000" lon="-2.451506000">
        <ele>698.60</ele>
        <time>2016-10-15T06:47:59Z</time>
      </trkpt>
      <trkpt lat="42.572516000" lon="-2.451524000">
        <ele>698.80</ele>
        <time>2016-10-15T06:48:00Z</time>
      </trkpt>
      <trkpt lat="42.572536000" lon="-2.451539000">
        <ele>699.00</ele>
        <time>2016-10-15T06:48:01Z</time>
      </trkpt>
      <trkpt lat="42.572559000" lon="-2.451556000">
        <ele>699.00</ele>
        <time>2016-10-15T06:48:02Z</time>
      </trkpt>
      <trkpt lat="42.572581000" lon="-2.451571000">
        <ele>699.00</ele>
        <time>2016-10-15T06:48:03Z</time>
      </trkpt>
      <trkpt lat="42.572602000" lon="-2.451588000">
        <ele>699.30</ele>
        <time>2016-10-15T06:48:04Z</time>
      </trkpt>
      <trkpt lat="42.572629000" lon="-2.451605000">
        <ele>699.40</ele>
        <time>2016-10-15T06:48:05Z</time>
      </trkpt>
      <trkpt lat="42.572652000" lon="-2.451620000">
        <ele>699.60</ele>
        <time>2016-10-15T06:48:06Z</time>
      </trkpt>
      <trkpt lat="42.572670000" lon="-2.451631000">
        <ele>699.70</ele>
        <time>2016-10-15T06:48:07Z</time>
      </trkpt>
      <trkpt lat="42.572691000" lon="-2.451645000">
        <ele>699.70</ele>
        <time>2016-10-15T06:48:08Z</time>
      </trkpt>
      <trkpt lat="42.572712000" lon="-2.451662000">
        <ele>699.80</ele>
        <time>2016-10-15T06:48:09Z</time>
      </trkpt>
      <trkpt lat="42.572733000" lon="-2.451677000">
        <ele>699.80</ele>
        <time>2016-10-15T06:48:10Z</time>
      </trkpt>
      <trkpt lat="42.572758000" lon="-2.451694000">
        <ele>699.90</ele>
        <time>2016-10-15T06:48:11Z</time>
      </trkpt>
      <trkpt lat="42.572780000" lon="-2.451710000">
        <ele>700.00</ele>
        <time>2016-10-15T06:48:12Z</time>
      </trkpt>
      <trkpt lat="42.572804000" lon="-2.451723000">
        <ele>700.10</ele>
        <time>2016-10-15T06:48:13Z</time>
      </trkpt>
      <trkpt lat="42.572828000" lon="-2.451738000">
        <ele>700.20</ele>
        <time>2016-10-15T06:48:14Z</time>
      </trkpt>
      <trkpt lat="42.572850000" lon="-2.451751000">
        <ele>700.20</ele>
        <time>2016-10-15T06:48:15Z</time>
      </trkpt>
      <trkpt lat="42.572874000" lon="-2.451761000">
        <ele>700.30</ele>
        <time>2016-10-15T06:48:16Z</time>
      </trkpt>
      <trkpt lat="42.572896000" lon="-2.451772000">
        <ele>700.40</ele>
        <time>2016-10-15T06:48:17Z</time>
      </trkpt>
      <trkpt lat="42.572915000" lon="-2.451780000">
        <ele>700.50</ele>
        <time>2016-10-15T06:48:18Z</time>
      </trkpt>
      <trkpt lat="42.572934000" lon="-2.451788000">
        <ele>700.50</ele>
        <time>2016-10-15T06:48:19Z</time>
      </trkpt>
      <trkpt lat="42.572955000" lon="-2.451794000">
        <ele>700.80</ele>
        <time>2016-10-15T06:48:20Z</time>
      </trkpt>
      <trkpt lat="42.572977000" lon="-2.451801000">
        <ele>700.90</ele>
        <time>2016-10-15T06:48:21Z</time>
      </trkpt>
      <trkpt lat="42.573002000" lon="-2.451813000">
        <ele>701.10</ele>
        <time>2016-10-15T06:48:22Z</time>
      </trkpt>
      <trkpt lat="42.573026000" lon="-2.451822000">
        <ele>701.20</ele>
        <time>2016-10-15T06:48:23Z</time>
      </trkpt>
      <trkpt lat="42.573048000" lon="-2.451831000">
        <ele>701.20</ele>
        <time>2016-10-15T06:48:24Z</time>
      </trkpt>
      <trkpt lat="42.573068000" lon="-2.451842000">
        <ele>701.30</ele>
        <time>2016-10-15T06:48:25Z</time>
      </trkpt>
      <trkpt lat="42.573090000" lon="-2.451851000">
        <ele>701.50</ele>
        <time>2016-10-15T06:48:26Z</time>
      </trkpt>
      <trkpt lat="42.573114000" lon="-2.451854000">
        <ele>701.60</ele>
        <time>2016-10-15T06:48:27Z</time>
      </trkpt>
      <trkpt lat="42.573141000" lon="-2.451862000">
        <ele>701.90</ele>
        <time>2016-10-15T06:48:28Z</time>
      </trkpt>
      <trkpt lat="42.573165000" lon="-2.451864000">
        <ele>702.20</ele>
        <time>2016-10-15T06:48:29Z</time>
      </trkpt>
      <trkpt lat="42.573186000" lon="-2.451868000">
        <ele>702.40</ele>
        <time>2016-10-15T06:48:30Z</time>
      </trkpt>
      <trkpt lat="42.573208000" lon="-2.451875000">
        <ele>702.50</ele>
        <time>2016-10-15T06:48:31Z</time>
      </trkpt>
      <trkpt lat="42.573247000" lon="-2.451882000">
        <ele>703.00</ele>
        <time>2016-10-15T06:48:33Z</time>
      </trkpt>
      <trkpt lat="42.573269000" lon="-2.451887000">
        <ele>703.30</ele>
        <time>2016-10-15T06:48:34Z</time>
      </trkpt>
      <trkpt lat="42.573290000" lon="-2.451890000">
        <ele>703.60</ele>
        <time>2016-10-15T06:48:35Z</time>
      </trkpt>
      <trkpt lat="42.573308000" lon="-2.451893000">
        <ele>703.70</ele>
        <time>2016-10-15T06:48:36Z</time>
      </trkpt>
      <trkpt lat="42.573326000" lon="-2.451896000">
        <ele>703.90</ele>
        <time>2016-10-15T06:48:37Z</time>
      </trkpt>
      <trkpt lat="42.573342000" lon="-2.451900000">
        <ele>704.10</ele>
        <time>2016-10-15T06:48:38Z</time>
      </trkpt>
      <trkpt lat="42.573359000" lon="-2.451905000">
        <ele>704.20</ele>
        <time>2016-10-15T06:48:39Z</time>
      </trkpt>
      <trkpt lat="42.573376000" lon="-2.451907000">
        <ele>704.40</ele>
        <time>2016-10-15T06:48:40Z</time>
      </trkpt>
      <trkpt lat="42.573392000" lon="-2.451912000">
        <ele>704.50</ele>
        <time>2016-10-15T06:48:41Z</time>
      </trkpt>
      <trkpt lat="42.573409000" lon="-2.451917000">
        <ele>704.60</ele>
        <time>2016-10-15T06:48:42Z</time>
      </trkpt>
      <trkpt lat="42.573426000" lon="-2.451923000">
        <ele>704.60</ele>
        <time>2016-10-15T06:48:43Z</time>
      </trkpt>
      <trkpt lat="42.573444000" lon="-2.451930000">
        <ele>704.90</ele>
        <time>2016-10-15T06:48:44Z</time>
      </trkpt>
      <trkpt lat="42.573461000" lon="-2.451938000">
        <ele>705.10</ele>
        <time>2016-10-15T06:48:45Z</time>
      </trkpt>
      <trkpt lat="42.573476000" lon="-2.451948000">
        <ele>705.30</ele>
        <time>2016-10-15T06:48:46Z</time>
      </trkpt>
      <trkpt lat="42.573490000" lon="-2.451958000">
        <ele>705.40</ele>
        <time>2016-10-15T06:48:47Z</time>
      </trkpt>
      <trkpt lat="42.573503000" lon="-2.451966000">
        <ele>705.60</ele>
        <time>2016-10-15T06:48:48Z</time>
      </trkpt>
      <trkpt lat="42.573519000" lon="-2.451975000">
        <ele>705.70</ele>
        <time>2016-10-15T06:48:49Z</time>
      </trkpt>
      <trkpt lat="42.573531000" lon="-2.451983000">
        <ele>706.00</ele>
        <time>2016-10-15T06:48:50Z</time>
      </trkpt>
      <trkpt lat="42.573545000" lon="-2.451990000">
        <ele>706.20</ele>
        <time>2016-10-15T06:48:51Z</time>
      </trkpt>
      <trkpt lat="42.573560000" lon="-2.451999000">
        <ele>706.60</ele>
        <time>2016-10-15T06:48:52Z</time>
      </trkpt>
      <trkpt lat="42.573571000" lon="-2.452009000">
        <ele>706.90</ele>
        <time>2016-10-15T06:48:53Z</time>
      </trkpt>
      <trkpt lat="42.573580000" lon="-2.452021000">
        <ele>707.10</ele>
        <time>2016-10-15T06:48:54Z</time>
      </trkpt>
      <trkpt lat="42.573593000" lon="-2.452032000">
        <ele>707.20</ele>
        <time>2016-10-15T06:48:55Z</time>
      </trkpt>
      <trkpt lat="42.573611000" lon="-2.452043000">
        <ele>707.50</ele>
        <time>2016-10-15T06:48:56Z</time>
      </trkpt>
      <trkpt lat="42.573628000" lon="-2.452053000">
        <ele>707.80</ele>
        <time>2016-10-15T06:48:57Z</time>
      </trkpt>
      <trkpt lat="42.573646000" lon="-2.452062000">
        <ele>708.00</ele>
        <time>2016-10-15T06:48:58Z</time>
      </trkpt>
      <trkpt lat="42.573661000" lon="-2.452075000">
        <ele>708.20</ele>
        <time>2016-10-15T06:48:59Z</time>
      </trkpt>
      <trkpt lat="42.573676000" lon="-2.452092000">
        <ele>708.30</ele>
        <time>2016-10-15T06:49:00Z</time>
      </trkpt>
      <trkpt lat="42.573693000" lon="-2.452109000">
        <ele>708.50</ele>
        <time>2016-10-15T06:49:01Z</time>
      </trkpt>
      <trkpt lat="42.573708000" lon="-2.452125000">
        <ele>708.60</ele>
        <time>2016-10-15T06:49:02Z</time>
      </trkpt>
      <trkpt lat="42.573716000" lon="-2.452141000">
        <ele>708.60</ele>
        <time>2016-10-15T06:49:03Z</time>
      </trkpt>
      <trkpt lat="42.573725000" lon="-2.452155000">
        <ele>708.80</ele>
        <time>2016-10-15T06:49:04Z</time>
      </trkpt>
      <trkpt lat="42.573738000" lon="-2.452168000">
        <ele>709.00</ele>
        <time>2016-10-15T06:49:05Z</time>
      </trkpt>
      <trkpt lat="42.573750000" lon="-2.452179000">
        <ele>709.20</ele>
        <time>2016-10-15T06:49:06Z</time>
      </trkpt>
      <trkpt lat="42.573763000" lon="-2.452190000">
        <ele>709.30</ele>
        <time>2016-10-15T06:49:07Z</time>
      </trkpt>
      <trkpt lat="42.573778000" lon="-2.452205000">
        <ele>709.40</ele>
        <time>2016-10-15T06:49:08Z</time>
      </trkpt>
      <trkpt lat="42.573792000" lon="-2.452217000">
        <ele>709.50</ele>
        <time>2016-10-15T06:49:09Z</time>
      </trkpt>
      <trkpt lat="42.573803000" lon="-2.452233000">
        <ele>709.50</ele>
        <time>2016-10-15T06:49:10Z</time>
      </trkpt>
      <trkpt lat="42.573816000" lon="-2.452246000">
        <ele>709.50</ele>
        <time>2016-10-15T06:49:11Z</time>
      </trkpt>
      <trkpt lat="42.573828000" lon="-2.452264000">
        <ele>709.60</ele>
        <time>2016-10-15T06:49:12Z</time>
      </trkpt>
      <trkpt lat="42.573841000" lon="-2.452277000">
        <ele>709.60</ele>
        <time>2016-10-15T06:49:13Z</time>
      </trkpt>
      <trkpt lat="42.573849000" lon="-2.452293000">
        <ele>709.60</ele>
        <time>2016-10-15T06:49:14Z</time>
      </trkpt>
      <trkpt lat="42.573861000" lon="-2.452308000">
        <ele>709.60</ele>
        <time>2016-10-15T06:49:15Z</time>
      </trkpt>
      <trkpt lat="42.573874000" lon="-2.452324000">
        <ele>709.70</ele>
        <time>2016-10-15T06:49:16Z</time>
      </trkpt>
      <trkpt lat="42.573887000" lon="-2.452338000">
        <ele>709.80</ele>
        <time>2016-10-15T06:49:17Z</time>
      </trkpt>
      <trkpt lat="42.573900000" lon="-2.452352000">
        <ele>710.00</ele>
        <time>2016-10-15T06:49:18Z</time>
      </trkpt>
      <trkpt lat="42.573914000" lon="-2.452369000">
        <ele>710.10</ele>
        <time>2016-10-15T06:49:19Z</time>
      </trkpt>
      <trkpt lat="42.573928000" lon="-2.452381000">
        <ele>710.30</ele>
        <time>2016-10-15T06:49:20Z</time>
      </trkpt>
      <trkpt lat="42.573936000" lon="-2.452397000">
        <ele>710.40</ele>
        <time>2016-10-15T06:49:21Z</time>
      </trkpt>
      <trkpt lat="42.573943000" lon="-2.452410000">
        <ele>710.60</ele>
        <time>2016-10-15T06:49:22Z</time>
      </trkpt>
      <trkpt lat="42.573952000" lon="-2.452424000">
        <ele>710.70</ele>
        <time>2016-10-15T06:49:23Z</time>
      </trkpt>
      <trkpt lat="42.573960000" lon="-2.452440000">
        <ele>710.90</ele>
        <time>2016-10-15T06:49:24Z</time>
      </trkpt>
      <trkpt lat="42.573972000" lon="-2.452455000">
        <ele>711.00</ele>
        <time>2016-10-15T06:49:25Z</time>
      </trkpt>
      <trkpt lat="42.573986000" lon="-2.452469000">
        <ele>711.00</ele>
        <time>2016-10-15T06:49:26Z</time>
      </trkpt>
      <trkpt lat="42.574000000" lon="-2.452484000">
        <ele>711.10</ele>
        <time>2016-10-15T06:49:27Z</time>
      </trkpt>
      <trkpt lat="42.574016000" lon="-2.452496000">
        <ele>711.30</ele>
        <time>2016-10-15T06:49:28Z</time>
      </trkpt>
      <trkpt lat="42.574034000" lon="-2.452507000">
        <ele>711.40</ele>
        <time>2016-10-15T06:49:29Z</time>
      </trkpt>
      <trkpt lat="42.574056000" lon="-2.452518000">
        <ele>711.60</ele>
        <time>2016-10-15T06:49:30Z</time>
      </trkpt>
      <trkpt lat="42.574074000" lon="-2.452532000">
        <ele>711.70</ele>
        <time>2016-10-15T06:49:31Z</time>
      </trkpt>
      <trkpt lat="42.574092000" lon="-2.452540000">
        <ele>711.80</ele>
        <time>2016-10-15T06:49:32Z</time>
      </trkpt>
      <trkpt lat="42.574133000" lon="-2.452559000">
        <ele>711.90</ele>
        <time>2016-10-15T06:49:34Z</time>
      </trkpt>
      <trkpt lat="42.574152000" lon="-2.452569000">
        <ele>711.90</ele>
        <time>2016-10-15T06:49:35Z</time>
      </trkpt>
      <trkpt lat="42.574172000" lon="-2.452582000">
        <ele>711.90</ele>
        <time>2016-10-15T06:49:36Z</time>
      </trkpt>
      <trkpt lat="42.574189000" lon="-2.452589000">
        <ele>712.00</ele>
        <time>2016-10-15T06:49:37Z</time>
      </trkpt>
      <trkpt lat="42.574211000" lon="-2.452600000">
        <ele>712.00</ele>
        <time>2016-10-15T06:49:38Z</time>
      </trkpt>
      <trkpt lat="42.574230000" lon="-2.452609000">
        <ele>712.00</ele>
        <time>2016-10-15T06:49:39Z</time>
      </trkpt>
      <trkpt lat="42.574249000" lon="-2.452620000">
        <ele>712.00</ele>
        <time>2016-10-15T06:49:40Z</time>
      </trkpt>
      <trkpt lat="42.574269000" lon="-2.452633000">
        <ele>712.00</ele>
        <time>2016-10-15T06:49:41Z</time>
      </trkpt>
      <trkpt lat="42.574288000" lon="-2.452645000">
        <ele>712.00</ele>
        <time>2016-10-15T06:49:42Z</time>
      </trkpt>
      <trkpt lat="42.574308000" lon="-2.452656000">
        <ele>712.00</ele>
        <time>2016-10-15T06:49:43Z</time>
      </trkpt>
      <trkpt lat="42.574328000" lon="-2.452670000">
        <ele>711.90</ele>
        <time>2016-10-15T06:49:44Z</time>
      </trkpt>
      <trkpt lat="42.574346000" lon="-2.452684000">
        <ele>711.80</ele>
        <time>2016-10-15T06:49:45Z</time>
      </trkpt>
      <trkpt lat="42.574365000" lon="-2.452700000">
        <ele>711.80</ele>
        <time>2016-10-15T06:49:46Z</time>
      </trkpt>
      <trkpt lat="42.574385000" lon="-2.452715000">
        <ele>711.70</ele>
        <time>2016-10-15T06:49:47Z</time>
      </trkpt>
      <trkpt lat="42.574405000" lon="-2.452733000">
        <ele>711.70</ele>
        <time>2016-10-15T06:49:48Z</time>
      </trkpt>
      <trkpt lat="42.574428000" lon="-2.452749000">
        <ele>711.70</ele>
        <time>2016-10-15T06:49:49Z</time>
      </trkpt>
      <trkpt lat="42.574453000" lon="-2.452767000">
        <ele>711.70</ele>
        <time>2016-10-15T06:49:50Z</time>
      </trkpt>
      <trkpt lat="42.574474000" lon="-2.452774000">
        <ele>711.70</ele>
        <time>2016-10-15T06:49:51Z</time>
      </trkpt>
      <trkpt lat="42.574496000" lon="-2.452785000">
        <ele>711.70</ele>
        <time>2016-10-15T06:49:52Z</time>
      </trkpt>
      <trkpt lat="42.574523000" lon="-2.452789000">
        <ele>711.70</ele>
        <time>2016-10-15T06:49:53Z</time>
      </trkpt>
      <trkpt lat="42.574558000" lon="-2.452786000">
        <ele>711.70</ele>
        <time>2016-10-15T06:49:54Z</time>
      </trkpt>
      <trkpt lat="42.574592000" lon="-2.452775000">
        <ele>711.60</ele>
        <time>2016-10-15T06:49:55Z</time>
      </trkpt>
      <trkpt lat="42.574635000" lon="-2.452750000">
        <ele>711.50</ele>
        <time>2016-10-15T06:49:56Z</time>
      </trkpt>
      <trkpt lat="42.574679000" lon="-2.452717000">
        <ele>711.40</ele>
        <time>2016-10-15T06:49:57Z</time>
      </trkpt>
      <trkpt lat="42.574727000" lon="-2.452689000">
        <ele>711.20</ele>
        <time>2016-10-15T06:49:58Z</time>
      </trkpt>
      <trkpt lat="42.574780000" lon="-2.452664000">
        <ele>711.10</ele>
        <time>2016-10-15T06:49:59Z</time>
      </trkpt>
      <trkpt lat="42.574832000" lon="-2.452642000">
        <ele>710.90</ele>
        <time>2016-10-15T06:50:00Z</time>
      </trkpt>
      <trkpt lat="42.574884000" lon="-2.452620000">
        <ele>710.70</ele>
        <time>2016-10-15T06:50:01Z</time>
      </trkpt>
      <trkpt lat="42.574929000" lon="-2.452602000">
        <ele>710.30</ele>
        <time>2016-10-15T06:50:02Z</time>
      </trkpt>
      <trkpt lat="42.574971000" lon="-2.452587000">
        <ele>710.10</ele>
        <time>2016-10-15T06:50:03Z</time>
      </trkpt>
      <trkpt lat="42.575014000" lon="-2.452575000">
        <ele>709.80</ele>
        <time>2016-10-15T06:50:04Z</time>
      </trkpt>
      <trkpt lat="42.575056000" lon="-2.452567000">
        <ele>709.70</ele>
        <time>2016-10-15T06:50:05Z</time>
      </trkpt>
      <trkpt lat="42.575094000" lon="-2.452564000">
        <ele>709.50</ele>
        <time>2016-10-15T06:50:06Z</time>
      </trkpt>
      <trkpt lat="42.575133000" lon="-2.452559000">
        <ele>709.30</ele>
        <time>2016-10-15T06:50:07Z</time>
      </trkpt>
      <trkpt lat="42.575171000" lon="-2.452565000">
        <ele>709.30</ele>
        <time>2016-10-15T06:50:08Z</time>
      </trkpt>
      <trkpt lat="42.575207000" lon="-2.452566000">
        <ele>709.30</ele>
        <time>2016-10-15T06:50:09Z</time>
      </trkpt>
      <trkpt lat="42.575240000" lon="-2.452561000">
        <ele>709.20</ele>
        <time>2016-10-15T06:50:10Z</time>
      </trkpt>
      <trkpt lat="42.575272000" lon="-2.452562000">
        <ele>709.20</ele>
        <time>2016-10-15T06:50:11Z</time>
      </trkpt>
      <trkpt lat="42.575302000" lon="-2.452560000">
        <ele>709.20</ele>
        <time>2016-10-15T06:50:12Z</time>
      </trkpt>
      <trkpt lat="42.575334000" lon="-2.452558000">
        <ele>709.20</ele>
        <time>2016-10-15T06:50:13Z</time>
      </trkpt>
      <trkpt lat="42.575366000" lon="-2.452561000">
        <ele>709.20</ele>
        <time>2016-10-15T06:50:14Z</time>
      </trkpt>
      <trkpt lat="42.575396000" lon="-2.452562000">
        <ele>709.20</ele>
        <time>2016-10-15T06:50:15Z</time>
      </trkpt>
      <trkpt lat="42.575428000" lon="-2.452563000">
        <ele>709.20</ele>
        <time>2016-10-15T06:50:16Z</time>
      </trkpt>
      <trkpt lat="42.575458000" lon="-2.452571000">
        <ele>709.30</ele>
        <time>2016-10-15T06:50:17Z</time>
      </trkpt>
      <trkpt lat="42.575489000" lon="-2.452577000">
        <ele>709.30</ele>
        <time>2016-10-15T06:50:18Z</time>
      </trkpt>
      <trkpt lat="42.575520000" lon="-2.452586000">
        <ele>709.40</ele>
        <time>2016-10-15T06:50:19Z</time>
      </trkpt>
      <trkpt lat="42.575551000" lon="-2.452598000">
        <ele>709.40</ele>
        <time>2016-10-15T06:50:20Z</time>
      </trkpt>
      <trkpt lat="42.575584000" lon="-2.452609000">
        <ele>709.50</ele>
        <time>2016-10-15T06:50:21Z</time>
      </trkpt>
      <trkpt lat="42.575616000" lon="-2.452623000">
        <ele>709.50</ele>
        <time>2016-10-15T06:50:22Z</time>
      </trkpt>
      <trkpt lat="42.575645000" lon="-2.452636000">
        <ele>709.50</ele>
        <time>2016-10-15T06:50:23Z</time>
      </trkpt>
      <trkpt lat="42.575670000" lon="-2.452651000">
        <ele>709.50</ele>
        <time>2016-10-15T06:50:24Z</time>
      </trkpt>
      <trkpt lat="42.575694000" lon="-2.452668000">
        <ele>709.60</ele>
        <time>2016-10-15T06:50:25Z</time>
      </trkpt>
      <trkpt lat="42.575717000" lon="-2.452687000">
        <ele>709.60</ele>
        <time>2016-10-15T06:50:26Z</time>
      </trkpt>
      <trkpt lat="42.575740000" lon="-2.452708000">
        <ele>709.60</ele>
        <time>2016-10-15T06:50:27Z</time>
      </trkpt>
      <trkpt lat="42.575763000" lon="-2.452724000">
        <ele>709.50</ele>
        <time>2016-10-15T06:50:28Z</time>
      </trkpt>
      <trkpt lat="42.575783000" lon="-2.452749000">
        <ele>709.50</ele>
        <time>2016-10-15T06:50:29Z</time>
      </trkpt>
      <trkpt lat="42.575804000" lon="-2.452770000">
        <ele>709.50</ele>
        <time>2016-10-15T06:50:30Z</time>
      </trkpt>
      <trkpt lat="42.575826000" lon="-2.452782000">
        <ele>709.50</ele>
        <time>2016-10-15T06:50:31Z</time>
      </trkpt>
      <trkpt lat="42.575846000" lon="-2.452800000">
        <ele>709.50</ele>
        <time>2016-10-15T06:50:32Z</time>
      </trkpt>
      <trkpt lat="42.575866000" lon="-2.452816000">
        <ele>709.50</ele>
        <time>2016-10-15T06:50:33Z</time>
      </trkpt>
      <trkpt lat="42.575910000" lon="-2.452853000">
        <ele>709.70</ele>
        <time>2016-10-15T06:50:35Z</time>
      </trkpt>
      <trkpt lat="42.575931000" lon="-2.452872000">
        <ele>709.90</ele>
        <time>2016-10-15T06:50:36Z</time>
      </trkpt>
      <trkpt lat="42.575954000" lon="-2.452889000">
        <ele>710.00</ele>
        <time>2016-10-15T06:50:37Z</time>
      </trkpt>
      <trkpt lat="42.575977000" lon="-2.452904000">
        <ele>710.30</ele>
        <time>2016-10-15T06:50:38Z</time>
      </trkpt>
      <trkpt lat="42.576001000" lon="-2.452915000">
        <ele>710.40</ele>
        <time>2016-10-15T06:50:39Z</time>
      </trkpt>
      <trkpt lat="42.576024000" lon="-2.452926000">
        <ele>710.50</ele>
        <time>2016-10-15T06:50:40Z</time>
      </trkpt>
      <trkpt lat="42.576045000" lon="-2.452939000">
        <ele>710.60</ele>
        <time>2016-10-15T06:50:41Z</time>
      </trkpt>
      <trkpt lat="42.576069000" lon="-2.452946000">
        <ele>710.70</ele>
        <time>2016-10-15T06:50:42Z</time>
      </trkpt>
      <trkpt lat="42.576093000" lon="-2.452957000">
        <ele>710.80</ele>
        <time>2016-10-15T06:50:43Z</time>
      </trkpt>
      <trkpt lat="42.576118000" lon="-2.452965000">
        <ele>710.80</ele>
        <time>2016-10-15T06:50:44Z</time>
      </trkpt>
      <trkpt lat="42.576141000" lon="-2.452977000">
        <ele>710.80</ele>
        <time>2016-10-15T06:50:45Z</time>
      </trkpt>
      <trkpt lat="42.576163000" lon="-2.452987000">
        <ele>710.90</ele>
        <time>2016-10-15T06:50:46Z</time>
      </trkpt>
      <trkpt lat="42.576184000" lon="-2.452993000">
        <ele>711.00</ele>
        <time>2016-10-15T06:50:47Z</time>
      </trkpt>
      <trkpt lat="42.576207000" lon="-2.453001000">
        <ele>711.00</ele>
        <time>2016-10-15T06:50:48Z</time>
      </trkpt>
      <trkpt lat="42.576233000" lon="-2.453012000">
        <ele>711.10</ele>
        <time>2016-10-15T06:50:49Z</time>
      </trkpt>
      <trkpt lat="42.576260000" lon="-2.453024000">
        <ele>711.30</ele>
        <time>2016-10-15T06:50:50Z</time>
      </trkpt>
      <trkpt lat="42.576286000" lon="-2.453035000">
        <ele>711.60</ele>
        <time>2016-10-15T06:50:51Z</time>
      </trkpt>
      <trkpt lat="42.576311000" lon="-2.453047000">
        <ele>711.70</ele>
        <time>2016-10-15T06:50:52Z</time>
      </trkpt>
      <trkpt lat="42.576336000" lon="-2.453060000">
        <ele>711.80</ele>
        <time>2016-10-15T06:50:53Z</time>
      </trkpt>
      <trkpt lat="42.576362000" lon="-2.453073000">
        <ele>711.90</ele>
        <time>2016-10-15T06:50:54Z</time>
      </trkpt>
      <trkpt lat="42.576387000" lon="-2.453084000">
        <ele>712.00</ele>
        <time>2016-10-15T06:50:55Z</time>
      </trkpt>
      <trkpt lat="42.576412000" lon="-2.453090000">
        <ele>712.00</ele>
        <time>2016-10-15T06:50:56Z</time>
      </trkpt>
      <trkpt lat="42.576437000" lon="-2.453096000">
        <ele>712.10</ele>
        <time>2016-10-15T06:50:57Z</time>
      </trkpt>
      <trkpt lat="42.576460000" lon="-2.453105000">
        <ele>712.10</ele>
        <time>2016-10-15T06:50:58Z</time>
      </trkpt>
      <trkpt lat="42.576485000" lon="-2.453113000">
        <ele>712.10</ele>
        <time>2016-10-15T06:50:59Z</time>
      </trkpt>
      <trkpt lat="42.576510000" lon="-2.453122000">
        <ele>712.20</ele>
        <time>2016-10-15T06:51:00Z</time>
      </trkpt>
      <trkpt lat="42.576534000" lon="-2.453132000">
        <ele>712.20</ele>
        <time>2016-10-15T06:51:01Z</time>
      </trkpt>
      <trkpt lat="42.576557000" lon="-2.453143000">
        <ele>712.20</ele>
        <time>2016-10-15T06:51:02Z</time>
      </trkpt>
      <trkpt lat="42.576584000" lon="-2.453153000">
        <ele>712.30</ele>
        <time>2016-10-15T06:51:03Z</time>
      </trkpt>
      <trkpt lat="42.576612000" lon="-2.453161000">
        <ele>712.50</ele>
        <time>2016-10-15T06:51:04Z</time>
      </trkpt>
      <trkpt lat="42.576637000" lon="-2.453171000">
        <ele>712.70</ele>
        <time>2016-10-15T06:51:05Z</time>
      </trkpt>
      <trkpt lat="42.576661000" lon="-2.453184000">
        <ele>712.80</ele>
        <time>2016-10-15T06:51:06Z</time>
      </trkpt>
      <trkpt lat="42.576686000" lon="-2.453191000">
        <ele>712.90</ele>
        <time>2016-10-15T06:51:07Z</time>
      </trkpt>
      <trkpt lat="42.576713000" lon="-2.453197000">
        <ele>713.00</ele>
        <time>2016-10-15T06:51:08Z</time>
      </trkpt>
      <trkpt lat="42.576737000" lon="-2.453206000">
        <ele>713.10</ele>
        <time>2016-10-15T06:51:09Z</time>
      </trkpt>
      <trkpt lat="42.576763000" lon="-2.453214000">
        <ele>713.10</ele>
        <time>2016-10-15T06:51:10Z</time>
      </trkpt>
      <trkpt lat="42.576786000" lon="-2.453222000">
        <ele>713.10</ele>
        <time>2016-10-15T06:51:11Z</time>
      </trkpt>
      <trkpt lat="42.576811000" lon="-2.453228000">
        <ele>713.10</ele>
        <time>2016-10-15T06:51:12Z</time>
      </trkpt>
      <trkpt lat="42.576834000" lon="-2.453229000">
        <ele>713.20</ele>
        <time>2016-10-15T06:51:13Z</time>
      </trkpt>
      <trkpt lat="42.576857000" lon="-2.453229000">
        <ele>713.40</ele>
        <time>2016-10-15T06:51:14Z</time>
      </trkpt>
      <trkpt lat="42.576880000" lon="-2.453231000">
        <ele>713.60</ele>
        <time>2016-10-15T06:51:15Z</time>
      </trkpt>
      <trkpt lat="42.576903000" lon="-2.453233000">
        <ele>713.70</ele>
        <time>2016-10-15T06:51:16Z</time>
      </trkpt>
      <trkpt lat="42.576922000" lon="-2.453228000">
        <ele>713.80</ele>
        <time>2016-10-15T06:51:17Z</time>
      </trkpt>
      <trkpt lat="42.576942000" lon="-2.453221000">
        <ele>714.20</ele>
        <time>2016-10-15T06:51:18Z</time>
      </trkpt>
      <trkpt lat="42.576963000" lon="-2.453208000">
        <ele>714.50</ele>
        <time>2016-10-15T06:51:19Z</time>
      </trkpt>
      <trkpt lat="42.576983000" lon="-2.453197000">
        <ele>714.80</ele>
        <time>2016-10-15T06:51:20Z</time>
      </trkpt>
      <trkpt lat="42.577002000" lon="-2.453180000">
        <ele>715.00</ele>
        <time>2016-10-15T06:51:21Z</time>
      </trkpt>
      <trkpt lat="42.577020000" lon="-2.453160000">
        <ele>715.20</ele>
        <time>2016-10-15T06:51:22Z</time>
      </trkpt>
      <trkpt lat="42.577035000" lon="-2.453139000">
        <ele>715.30</ele>
        <time>2016-10-15T06:51:23Z</time>
      </trkpt>
      <trkpt lat="42.577049000" lon="-2.453118000">
        <ele>715.40</ele>
        <time>2016-10-15T06:51:24Z</time>
      </trkpt>
      <trkpt lat="42.577060000" lon="-2.453094000">
        <ele>715.60</ele>
        <time>2016-10-15T06:51:25Z</time>
      </trkpt>
      <trkpt lat="42.577069000" lon="-2.453070000">
        <ele>715.80</ele>
        <time>2016-10-15T06:51:26Z</time>
      </trkpt>
      <trkpt lat="42.577076000" lon="-2.453044000">
        <ele>716.00</ele>
        <time>2016-10-15T06:51:27Z</time>
      </trkpt>
      <trkpt lat="42.577082000" lon="-2.453013000">
        <ele>716.10</ele>
        <time>2016-10-15T06:51:28Z</time>
      </trkpt>
      <trkpt lat="42.577091000" lon="-2.452985000">
        <ele>716.30</ele>
        <time>2016-10-15T06:51:29Z</time>
      </trkpt>
      <trkpt lat="42.577103000" lon="-2.452959000">
        <ele>716.40</ele>
        <time>2016-10-15T06:51:30Z</time>
      </trkpt>
      <trkpt lat="42.577115000" lon="-2.452932000">
        <ele>716.50</ele>
        <time>2016-10-15T06:51:31Z</time>
      </trkpt>
      <trkpt lat="42.577127000" lon="-2.452903000">
        <ele>716.80</ele>
        <time>2016-10-15T06:51:32Z</time>
      </trkpt>
      <trkpt lat="42.577139000" lon="-2.452874000">
        <ele>717.10</ele>
        <time>2016-10-15T06:51:33Z</time>
      </trkpt>
      <trkpt lat="42.577152000" lon="-2.452847000">
        <ele>717.30</ele>
        <time>2016-10-15T06:51:34Z</time>
      </trkpt>
      <trkpt lat="42.577175000" lon="-2.452796000">
        <ele>717.90</ele>
        <time>2016-10-15T06:51:36Z</time>
      </trkpt>
      <trkpt lat="42.577190000" lon="-2.452773000">
        <ele>718.20</ele>
        <time>2016-10-15T06:51:37Z</time>
      </trkpt>
      <trkpt lat="42.577204000" lon="-2.452750000">
        <ele>718.60</ele>
        <time>2016-10-15T06:51:38Z</time>
      </trkpt>
      <trkpt lat="42.577217000" lon="-2.452727000">
        <ele>718.80</ele>
        <time>2016-10-15T06:51:39Z</time>
      </trkpt>
      <trkpt lat="42.577231000" lon="-2.452701000">
        <ele>719.10</ele>
        <time>2016-10-15T06:51:40Z</time>
      </trkpt>
      <trkpt lat="42.577245000" lon="-2.452678000">
        <ele>719.30</ele>
        <time>2016-10-15T06:51:41Z</time>
      </trkpt>
      <trkpt lat="42.577261000" lon="-2.452655000">
        <ele>719.50</ele>
        <time>2016-10-15T06:51:42Z</time>
      </trkpt>
      <trkpt lat="42.577274000" lon="-2.452631000">
        <ele>719.60</ele>
        <time>2016-10-15T06:51:43Z</time>
      </trkpt>
      <trkpt lat="42.577288000" lon="-2.452608000">
        <ele>719.70</ele>
        <time>2016-10-15T06:51:44Z</time>
      </trkpt>
      <trkpt lat="42.577298000" lon="-2.452587000">
        <ele>719.80</ele>
        <time>2016-10-15T06:51:45Z</time>
      </trkpt>
      <trkpt lat="42.577312000" lon="-2.452564000">
        <ele>719.90</ele>
        <time>2016-10-15T06:51:46Z</time>
      </trkpt>
      <trkpt lat="42.577327000" lon="-2.452540000">
        <ele>720.00</ele>
        <time>2016-10-15T06:51:47Z</time>
      </trkpt>
      <trkpt lat="42.577343000" lon="-2.452519000">
        <ele>720.00</ele>
        <time>2016-10-15T06:51:48Z</time>
      </trkpt>
      <trkpt lat="42.577358000" lon="-2.452499000">
        <ele>720.00</ele>
        <time>2016-10-15T06:51:49Z</time>
      </trkpt>
      <trkpt lat="42.577374000" lon="-2.452484000">
        <ele>720.00</ele>
        <time>2016-10-15T06:51:50Z</time>
      </trkpt>
      <trkpt lat="42.577387000" lon="-2.452466000">
        <ele>720.10</ele>
        <time>2016-10-15T06:51:51Z</time>
      </trkpt>
      <trkpt lat="42.577401000" lon="-2.452453000">
        <ele>720.20</ele>
        <time>2016-10-15T06:51:52Z</time>
      </trkpt>
      <trkpt lat="42.577419000" lon="-2.452443000">
        <ele>720.30</ele>
        <time>2016-10-15T06:51:53Z</time>
      </trkpt>
      <trkpt lat="42.577433000" lon="-2.452435000">
        <ele>720.40</ele>
        <time>2016-10-15T06:51:54Z</time>
      </trkpt>
      <trkpt lat="42.577450000" lon="-2.452424000">
        <ele>720.50</ele>
        <time>2016-10-15T06:51:55Z</time>
      </trkpt>
      <trkpt lat="42.577471000" lon="-2.452414000">
        <ele>720.60</ele>
        <time>2016-10-15T06:51:56Z</time>
      </trkpt>
      <trkpt lat="42.577497000" lon="-2.452405000">
        <ele>720.70</ele>
        <time>2016-10-15T06:51:57Z</time>
      </trkpt>
      <trkpt lat="42.577526000" lon="-2.452402000">
        <ele>720.70</ele>
        <time>2016-10-15T06:51:58Z</time>
      </trkpt>
      <trkpt lat="42.577554000" lon="-2.452398000">
        <ele>720.70</ele>
        <time>2016-10-15T06:51:59Z</time>
      </trkpt>
      <trkpt lat="42.577582000" lon="-2.452396000">
        <ele>720.70</ele>
        <time>2016-10-15T06:52:00Z</time>
      </trkpt>
      <trkpt lat="42.577611000" lon="-2.452395000">
        <ele>720.70</ele>
        <time>2016-10-15T06:52:01Z</time>
      </trkpt>
      <trkpt lat="42.577640000" lon="-2.452390000">
        <ele>720.60</ele>
        <time>2016-10-15T06:52:02Z</time>
      </trkpt>
      <trkpt lat="42.577668000" lon="-2.452383000">
        <ele>720.60</ele>
        <time>2016-10-15T06:52:03Z</time>
      </trkpt>
      <trkpt lat="42.577695000" lon="-2.452377000">
        <ele>720.60</ele>
        <time>2016-10-15T06:52:04Z</time>
      </trkpt>
      <trkpt lat="42.577723000" lon="-2.452371000">
        <ele>720.50</ele>
        <time>2016-10-15T06:52:05Z</time>
      </trkpt>
      <trkpt lat="42.577750000" lon="-2.452366000">
        <ele>720.50</ele>
        <time>2016-10-15T06:52:06Z</time>
      </trkpt>
      <trkpt lat="42.577777000" lon="-2.452360000">
        <ele>720.50</ele>
        <time>2016-10-15T06:52:07Z</time>
      </trkpt>
      <trkpt lat="42.577800000" lon="-2.452354000">
        <ele>720.60</ele>
        <time>2016-10-15T06:52:08Z</time>
      </trkpt>
      <trkpt lat="42.577822000" lon="-2.452348000">
        <ele>720.70</ele>
        <time>2016-10-15T06:52:09Z</time>
      </trkpt>
      <trkpt lat="42.577843000" lon="-2.452339000">
        <ele>720.70</ele>
        <time>2016-10-15T06:52:10Z</time>
      </trkpt>
      <trkpt lat="42.577866000" lon="-2.452332000">
        <ele>720.70</ele>
        <time>2016-10-15T06:52:11Z</time>
      </trkpt>
      <trkpt lat="42.577886000" lon="-2.452323000">
        <ele>720.80</ele>
        <time>2016-10-15T06:52:12Z</time>
      </trkpt>
      <trkpt lat="42.577905000" lon="-2.452312000">
        <ele>720.80</ele>
        <time>2016-10-15T06:52:13Z</time>
      </trkpt>
      <trkpt lat="42.577925000" lon="-2.452302000">
        <ele>720.80</ele>
        <time>2016-10-15T06:52:14Z</time>
      </trkpt>
      <trkpt lat="42.577946000" lon="-2.452290000">
        <ele>720.80</ele>
        <time>2016-10-15T06:52:15Z</time>
      </trkpt>
      <trkpt lat="42.577967000" lon="-2.452277000">
        <ele>720.80</ele>
        <time>2016-10-15T06:52:16Z</time>
      </trkpt>
      <trkpt lat="42.577988000" lon="-2.452265000">
        <ele>720.70</ele>
        <time>2016-10-15T06:52:17Z</time>
      </trkpt>
      <trkpt lat="42.578007000" lon="-2.452247000">
        <ele>720.70</ele>
        <time>2016-10-15T06:52:18Z</time>
      </trkpt>
      <trkpt lat="42.578031000" lon="-2.452237000">
        <ele>720.70</ele>
        <time>2016-10-15T06:52:19Z</time>
      </trkpt>
      <trkpt lat="42.578053000" lon="-2.452228000">
        <ele>721.10</ele>
        <time>2016-10-15T06:52:20Z</time>
      </trkpt>
      <trkpt lat="42.578074000" lon="-2.452215000">
        <ele>721.30</ele>
        <time>2016-10-15T06:52:21Z</time>
      </trkpt>
      <trkpt lat="42.578091000" lon="-2.452203000">
        <ele>721.60</ele>
        <time>2016-10-15T06:52:22Z</time>
      </trkpt>
      <trkpt lat="42.578103000" lon="-2.452185000">
        <ele>721.70</ele>
        <time>2016-10-15T06:52:23Z</time>
      </trkpt>
      <trkpt lat="42.578123000" lon="-2.452172000">
        <ele>721.70</ele>
        <time>2016-10-15T06:52:24Z</time>
      </trkpt>
      <trkpt lat="42.578142000" lon="-2.452155000">
        <ele>721.70</ele>
        <time>2016-10-15T06:52:25Z</time>
      </trkpt>
      <trkpt lat="42.578162000" lon="-2.452142000">
        <ele>721.70</ele>
        <time>2016-10-15T06:52:26Z</time>
      </trkpt>
      <trkpt lat="42.578181000" lon="-2.452127000">
        <ele>721.70</ele>
        <time>2016-10-15T06:52:27Z</time>
      </trkpt>
      <trkpt lat="42.578200000" lon="-2.452113000">
        <ele>721.90</ele>
        <time>2016-10-15T06:52:28Z</time>
      </trkpt>
      <trkpt lat="42.578221000" lon="-2.452098000">
        <ele>722.10</ele>
        <time>2016-10-15T06:52:29Z</time>
      </trkpt>
      <trkpt lat="42.578240000" lon="-2.452082000">
        <ele>722.20</ele>
        <time>2016-10-15T06:52:30Z</time>
      </trkpt>
      <trkpt lat="42.578259000" lon="-2.452066000">
        <ele>722.30</ele>
        <time>2016-10-15T06:52:31Z</time>
      </trkpt>
      <trkpt lat="42.578276000" lon="-2.452053000">
        <ele>722.30</ele>
        <time>2016-10-15T06:52:32Z</time>
      </trkpt>
      <trkpt lat="42.578296000" lon="-2.452037000">
        <ele>722.20</ele>
        <time>2016-10-15T06:52:33Z</time>
      </trkpt>
      <trkpt lat="42.578314000" lon="-2.452018000">
        <ele>722.20</ele>
        <time>2016-10-15T06:52:34Z</time>
      </trkpt>
      <trkpt lat="42.578333000" lon="-2.452002000">
        <ele>722.20</ele>
        <time>2016-10-15T06:52:35Z</time>
      </trkpt>
      <trkpt lat="42.578370000" lon="-2.451974000">
        <ele>722.10</ele>
        <time>2016-10-15T06:52:37Z</time>
      </trkpt>
      <trkpt lat="42.578387000" lon="-2.451959000">
        <ele>722.10</ele>
        <time>2016-10-15T06:52:38Z</time>
      </trkpt>
      <trkpt lat="42.578403000" lon="-2.451942000">
        <ele>722.10</ele>
        <time>2016-10-15T06:52:39Z</time>
      </trkpt>
      <trkpt lat="42.578422000" lon="-2.451929000">
        <ele>722.10</ele>
        <time>2016-10-15T06:52:40Z</time>
      </trkpt>
      <trkpt lat="42.578439000" lon="-2.451915000">
        <ele>722.20</ele>
        <time>2016-10-15T06:52:41Z</time>
      </trkpt>
      <trkpt lat="42.578455000" lon="-2.451899000">
        <ele>722.30</ele>
        <time>2016-10-15T06:52:42Z</time>
      </trkpt>
      <trkpt lat="42.578473000" lon="-2.451884000">
        <ele>722.30</ele>
        <time>2016-10-15T06:52:43Z</time>
      </trkpt>
      <trkpt lat="42.578491000" lon="-2.451868000">
        <ele>722.50</ele>
        <time>2016-10-15T06:52:44Z</time>
      </trkpt>
      <trkpt lat="42.578509000" lon="-2.451853000">
        <ele>722.50</ele>
        <time>2016-10-15T06:52:45Z</time>
      </trkpt>
      <trkpt lat="42.578524000" lon="-2.451838000">
        <ele>722.80</ele>
        <time>2016-10-15T06:52:46Z</time>
      </trkpt>
      <trkpt lat="42.578539000" lon="-2.451824000">
        <ele>723.00</ele>
        <time>2016-10-15T06:52:47Z</time>
      </trkpt>
      <trkpt lat="42.578557000" lon="-2.451814000">
        <ele>723.10</ele>
        <time>2016-10-15T06:52:48Z</time>
      </trkpt>
      <trkpt lat="42.578575000" lon="-2.451799000">
        <ele>723.20</ele>
        <time>2016-10-15T06:52:49Z</time>
      </trkpt>
      <trkpt lat="42.578591000" lon="-2.451784000">
        <ele>723.20</ele>
        <time>2016-10-15T06:52:50Z</time>
      </trkpt>
      <trkpt lat="42.578606000" lon="-2.451770000">
        <ele>723.20</ele>
        <time>2016-10-15T06:52:51Z</time>
      </trkpt>
      <trkpt lat="42.578622000" lon="-2.451755000">
        <ele>723.20</ele>
        <time>2016-10-15T06:52:52Z</time>
      </trkpt>
      <trkpt lat="42.578639000" lon="-2.451742000">
        <ele>723.20</ele>
        <time>2016-10-15T06:52:53Z</time>
      </trkpt>
      <trkpt lat="42.578652000" lon="-2.451727000">
        <ele>723.50</ele>
        <time>2016-10-15T06:52:54Z</time>
      </trkpt>
      <trkpt lat="42.578668000" lon="-2.451714000">
        <ele>723.70</ele>
        <time>2016-10-15T06:52:55Z</time>
      </trkpt>
      <trkpt lat="42.578682000" lon="-2.451704000">
        <ele>723.90</ele>
        <time>2016-10-15T06:52:56Z</time>
      </trkpt>
      <trkpt lat="42.578697000" lon="-2.451691000">
        <ele>724.00</ele>
        <time>2016-10-15T06:52:57Z</time>
      </trkpt>
      <trkpt lat="42.578711000" lon="-2.451675000">
        <ele>724.10</ele>
        <time>2016-10-15T06:52:58Z</time>
      </trkpt>
      <trkpt lat="42.578725000" lon="-2.451662000">
        <ele>724.20</ele>
        <time>2016-10-15T06:52:59Z</time>
      </trkpt>
      <trkpt lat="42.578741000" lon="-2.451653000">
        <ele>724.30</ele>
        <time>2016-10-15T06:53:00Z</time>
      </trkpt>
      <trkpt lat="42.578756000" lon="-2.451643000">
        <ele>724.40</ele>
        <time>2016-10-15T06:53:01Z</time>
      </trkpt>
      <trkpt lat="42.578771000" lon="-2.451635000">
        <ele>724.60</ele>
        <time>2016-10-15T06:53:02Z</time>
      </trkpt>
      <trkpt lat="42.578785000" lon="-2.451627000">
        <ele>724.70</ele>
        <time>2016-10-15T06:53:03Z</time>
      </trkpt>
      <trkpt lat="42.578801000" lon="-2.451615000">
        <ele>724.90</ele>
        <time>2016-10-15T06:53:04Z</time>
      </trkpt>
      <trkpt lat="42.578815000" lon="-2.451604000">
        <ele>725.00</ele>
        <time>2016-10-15T06:53:05Z</time>
      </trkpt>
      <trkpt lat="42.578828000" lon="-2.451593000">
        <ele>725.10</ele>
        <time>2016-10-15T06:53:06Z</time>
      </trkpt>
      <trkpt lat="42.578841000" lon="-2.451584000">
        <ele>725.20</ele>
        <time>2016-10-15T06:53:07Z</time>
      </trkpt>
      <trkpt lat="42.578852000" lon="-2.451574000">
        <ele>725.30</ele>
        <time>2016-10-15T06:53:08Z</time>
      </trkpt>
      <trkpt lat="42.578866000" lon="-2.451567000">
        <ele>725.40</ele>
        <time>2016-10-15T06:53:09Z</time>
      </trkpt>
      <trkpt lat="42.578881000" lon="-2.451556000">
        <ele>725.50</ele>
        <time>2016-10-15T06:53:10Z</time>
      </trkpt>
      <trkpt lat="42.578893000" lon="-2.451545000">
        <ele>725.60</ele>
        <time>2016-10-15T06:53:11Z</time>
      </trkpt>
      <trkpt lat="42.578906000" lon="-2.451535000">
        <ele>725.70</ele>
        <time>2016-10-15T06:53:12Z</time>
      </trkpt>
      <trkpt lat="42.578921000" lon="-2.451528000">
        <ele>725.80</ele>
        <time>2016-10-15T06:53:13Z</time>
      </trkpt>
      <trkpt lat="42.578934000" lon="-2.451522000">
        <ele>725.80</ele>
        <time>2016-10-15T06:53:14Z</time>
      </trkpt>
      <trkpt lat="42.578949000" lon="-2.451514000">
        <ele>725.90</ele>
        <time>2016-10-15T06:53:15Z</time>
      </trkpt>
      <trkpt lat="42.578967000" lon="-2.451506000">
        <ele>726.10</ele>
        <time>2016-10-15T06:53:16Z</time>
      </trkpt>
      <trkpt lat="42.578985000" lon="-2.451497000">
        <ele>726.30</ele>
        <time>2016-10-15T06:53:17Z</time>
      </trkpt>
      <trkpt lat="42.579002000" lon="-2.451483000">
        <ele>726.40</ele>
        <time>2016-10-15T06:53:18Z</time>
      </trkpt>
      <trkpt lat="42.579013000" lon="-2.451472000">
        <ele>726.60</ele>
        <time>2016-10-15T06:53:19Z</time>
      </trkpt>
      <trkpt lat="42.579026000" lon="-2.451459000">
        <ele>726.60</ele>
        <time>2016-10-15T06:53:20Z</time>
      </trkpt>
      <trkpt lat="42.579040000" lon="-2.451449000">
        <ele>726.70</ele>
        <time>2016-10-15T06:53:21Z</time>
      </trkpt>
      <trkpt lat="42.579054000" lon="-2.451441000">
        <ele>726.80</ele>
        <time>2016-10-15T06:53:22Z</time>
      </trkpt>
      <trkpt lat="42.579072000" lon="-2.451425000">
        <ele>726.80</ele>
        <time>2016-10-15T06:53:23Z</time>
      </trkpt>
      <trkpt lat="42.579088000" lon="-2.451413000">
        <ele>727.10</ele>
        <time>2016-10-15T06:53:24Z</time>
      </trkpt>
      <trkpt lat="42.579104000" lon="-2.451402000">
        <ele>727.40</ele>
        <time>2016-10-15T06:53:25Z</time>
      </trkpt>
      <trkpt lat="42.579121000" lon="-2.451391000">
        <ele>727.60</ele>
        <time>2016-10-15T06:53:26Z</time>
      </trkpt>
      <trkpt lat="42.579138000" lon="-2.451382000">
        <ele>727.70</ele>
        <time>2016-10-15T06:53:27Z</time>
      </trkpt>
      <trkpt lat="42.579156000" lon="-2.451372000">
        <ele>727.80</ele>
        <time>2016-10-15T06:53:28Z</time>
      </trkpt>
      <trkpt lat="42.579176000" lon="-2.451361000">
        <ele>727.90</ele>
        <time>2016-10-15T06:53:29Z</time>
      </trkpt>
      <trkpt lat="42.579195000" lon="-2.451350000">
        <ele>728.00</ele>
        <time>2016-10-15T06:53:30Z</time>
      </trkpt>
      <trkpt lat="42.579214000" lon="-2.451339000">
        <ele>728.00</ele>
        <time>2016-10-15T06:53:31Z</time>
      </trkpt>
      <trkpt lat="42.579232000" lon="-2.451329000">
        <ele>728.10</ele>
        <time>2016-10-15T06:53:32Z</time>
      </trkpt>
      <trkpt lat="42.579248000" lon="-2.451321000">
        <ele>728.20</ele>
        <time>2016-10-15T06:53:33Z</time>
      </trkpt>
      <trkpt lat="42.579266000" lon="-2.451312000">
        <ele>728.30</ele>
        <time>2016-10-15T06:53:34Z</time>
      </trkpt>
      <trkpt lat="42.579283000" lon="-2.451304000">
        <ele>728.40</ele>
        <time>2016-10-15T06:53:35Z</time>
      </trkpt>
      <trkpt lat="42.579298000" lon="-2.451295000">
        <ele>728.50</ele>
        <time>2016-10-15T06:53:36Z</time>
      </trkpt>
      <trkpt lat="42.579329000" lon="-2.451280000">
        <ele>728.60</ele>
        <time>2016-10-15T06:53:38Z</time>
      </trkpt>
      <trkpt lat="42.579348000" lon="-2.451269000">
        <ele>728.60</ele>
        <time>2016-10-15T06:53:39Z</time>
      </trkpt>
      <trkpt lat="42.579365000" lon="-2.451258000">
        <ele>728.90</ele>
        <time>2016-10-15T06:53:40Z</time>
      </trkpt>
      <trkpt lat="42.579384000" lon="-2.451254000">
        <ele>729.10</ele>
        <time>2016-10-15T06:53:41Z</time>
      </trkpt>
      <trkpt lat="42.579401000" lon="-2.451245000">
        <ele>729.20</ele>
        <time>2016-10-15T06:53:42Z</time>
      </trkpt>
      <trkpt lat="42.579416000" lon="-2.451235000">
        <ele>729.30</ele>
        <time>2016-10-15T06:53:43Z</time>
      </trkpt>
      <trkpt lat="42.579433000" lon="-2.451227000">
        <ele>729.40</ele>
        <time>2016-10-15T06:53:44Z</time>
      </trkpt>
      <trkpt lat="42.579450000" lon="-2.451216000">
        <ele>729.50</ele>
        <time>2016-10-15T06:53:45Z</time>
      </trkpt>
      <trkpt lat="42.579467000" lon="-2.451206000">
        <ele>729.50</ele>
        <time>2016-10-15T06:53:46Z</time>
      </trkpt>
      <trkpt lat="42.579482000" lon="-2.451197000">
        <ele>729.60</ele>
        <time>2016-10-15T06:53:47Z</time>
      </trkpt>
      <trkpt lat="42.579499000" lon="-2.451186000">
        <ele>729.60</ele>
        <time>2016-10-15T06:53:48Z</time>
      </trkpt>
      <trkpt lat="42.579515000" lon="-2.451172000">
        <ele>729.60</ele>
        <time>2016-10-15T06:53:49Z</time>
      </trkpt>
      <trkpt lat="42.579530000" lon="-2.451163000">
        <ele>729.60</ele>
        <time>2016-10-15T06:53:50Z</time>
      </trkpt>
      <trkpt lat="42.579546000" lon="-2.451152000">
        <ele>729.70</ele>
        <time>2016-10-15T06:53:51Z</time>
      </trkpt>
      <trkpt lat="42.579564000" lon="-2.451146000">
        <ele>729.80</ele>
        <time>2016-10-15T06:53:52Z</time>
      </trkpt>
      <trkpt lat="42.579580000" lon="-2.451141000">
        <ele>729.90</ele>
        <time>2016-10-15T06:53:53Z</time>
      </trkpt>
      <trkpt lat="42.579594000" lon="-2.451132000">
        <ele>730.00</ele>
        <time>2016-10-15T06:53:54Z</time>
      </trkpt>
      <trkpt lat="42.579604000" lon="-2.451121000">
        <ele>730.10</ele>
        <time>2016-10-15T06:53:55Z</time>
      </trkpt>
      <trkpt lat="42.579618000" lon="-2.451115000">
        <ele>730.30</ele>
        <time>2016-10-15T06:53:56Z</time>
      </trkpt>
      <trkpt lat="42.579634000" lon="-2.451108000">
        <ele>730.40</ele>
        <time>2016-10-15T06:53:57Z</time>
      </trkpt>
      <trkpt lat="42.579650000" lon="-2.451101000">
        <ele>730.60</ele>
        <time>2016-10-15T06:53:58Z</time>
      </trkpt>
      <trkpt lat="42.579665000" lon="-2.451096000">
        <ele>730.70</ele>
        <time>2016-10-15T06:53:59Z</time>
      </trkpt>
      <trkpt lat="42.579680000" lon="-2.451088000">
        <ele>730.90</ele>
        <time>2016-10-15T06:54:00Z</time>
      </trkpt>
      <trkpt lat="42.579695000" lon="-2.451080000">
        <ele>730.90</ele>
        <time>2016-10-15T06:54:01Z</time>
      </trkpt>
      <trkpt lat="42.579712000" lon="-2.451071000">
        <ele>731.00</ele>
        <time>2016-10-15T06:54:02Z</time>
      </trkpt>
      <trkpt lat="42.579726000" lon="-2.451062000">
        <ele>731.10</ele>
        <time>2016-10-15T06:54:03Z</time>
      </trkpt>
      <trkpt lat="42.579741000" lon="-2.451053000">
        <ele>731.20</ele>
        <time>2016-10-15T06:54:04Z</time>
      </trkpt>
      <trkpt lat="42.579758000" lon="-2.451040000">
        <ele>731.40</ele>
        <time>2016-10-15T06:54:05Z</time>
      </trkpt>
      <trkpt lat="42.579772000" lon="-2.451033000">
        <ele>731.50</ele>
        <time>2016-10-15T06:54:06Z</time>
      </trkpt>
      <trkpt lat="42.579789000" lon="-2.451023000">
        <ele>731.50</ele>
        <time>2016-10-15T06:54:07Z</time>
      </trkpt>
      <trkpt lat="42.579806000" lon="-2.451015000">
        <ele>731.60</ele>
        <time>2016-10-15T06:54:08Z</time>
      </trkpt>
      <trkpt lat="42.579822000" lon="-2.451010000">
        <ele>731.60</ele>
        <time>2016-10-15T06:54:09Z</time>
      </trkpt>
      <trkpt lat="42.579838000" lon="-2.451003000">
        <ele>731.60</ele>
        <time>2016-10-15T06:54:10Z</time>
      </trkpt>
      <trkpt lat="42.579851000" lon="-2.450994000">
        <ele>731.60</ele>
        <time>2016-10-15T06:54:11Z</time>
      </trkpt>
      <trkpt lat="42.579866000" lon="-2.450985000">
        <ele>731.80</ele>
        <time>2016-10-15T06:54:12Z</time>
      </trkpt>
      <trkpt lat="42.579882000" lon="-2.450976000">
        <ele>732.00</ele>
        <time>2016-10-15T06:54:13Z</time>
      </trkpt>
      <trkpt lat="42.579897000" lon="-2.450966000">
        <ele>732.10</ele>
        <time>2016-10-15T06:54:14Z</time>
      </trkpt>
      <trkpt lat="42.579914000" lon="-2.450955000">
        <ele>732.20</ele>
        <time>2016-10-15T06:54:15Z</time>
      </trkpt>
      <trkpt lat="42.579930000" lon="-2.450946000">
        <ele>732.30</ele>
        <time>2016-10-15T06:54:16Z</time>
      </trkpt>
      <trkpt lat="42.579948000" lon="-2.450937000">
        <ele>732.30</ele>
        <time>2016-10-15T06:54:17Z</time>
      </trkpt>
      <trkpt lat="42.579961000" lon="-2.450927000">
        <ele>732.40</ele>
        <time>2016-10-15T06:54:18Z</time>
      </trkpt>
      <trkpt lat="42.579978000" lon="-2.450920000">
        <ele>732.50</ele>
        <time>2016-10-15T06:54:19Z</time>
      </trkpt>
      <trkpt lat="42.579996000" lon="-2.450910000">
        <ele>732.60</ele>
        <time>2016-10-15T06:54:20Z</time>
      </trkpt>
      <trkpt lat="42.580016000" lon="-2.450906000">
        <ele>732.70</ele>
        <time>2016-10-15T06:54:21Z</time>
      </trkpt>
      <trkpt lat="42.580034000" lon="-2.450899000">
        <ele>732.90</ele>
        <time>2016-10-15T06:54:22Z</time>
      </trkpt>
      <trkpt lat="42.580050000" lon="-2.450890000">
        <ele>733.00</ele>
        <time>2016-10-15T06:54:23Z</time>
      </trkpt>
      <trkpt lat="42.580067000" lon="-2.450885000">
        <ele>733.30</ele>
        <time>2016-10-15T06:54:24Z</time>
      </trkpt>
      <trkpt lat="42.580084000" lon="-2.450880000">
        <ele>733.60</ele>
        <time>2016-10-15T06:54:25Z</time>
      </trkpt>
      <trkpt lat="42.580101000" lon="-2.450868000">
        <ele>733.70</ele>
        <time>2016-10-15T06:54:26Z</time>
      </trkpt>
      <trkpt lat="42.580120000" lon="-2.450856000">
        <ele>733.90</ele>
        <time>2016-10-15T06:54:27Z</time>
      </trkpt>
      <trkpt lat="42.580138000" lon="-2.450849000">
        <ele>734.00</ele>
        <time>2016-10-15T06:54:28Z</time>
      </trkpt>
      <trkpt lat="42.580153000" lon="-2.450842000">
        <ele>734.00</ele>
        <time>2016-10-15T06:54:29Z</time>
      </trkpt>
      <trkpt lat="42.580172000" lon="-2.450831000">
        <ele>734.20</ele>
        <time>2016-10-15T06:54:30Z</time>
      </trkpt>
      <trkpt lat="42.580186000" lon="-2.450822000">
        <ele>734.20</ele>
        <time>2016-10-15T06:54:31Z</time>
      </trkpt>
      <trkpt lat="42.580203000" lon="-2.450816000">
        <ele>734.40</ele>
        <time>2016-10-15T06:54:32Z</time>
      </trkpt>
      <trkpt lat="42.580219000" lon="-2.450811000">
        <ele>734.60</ele>
        <time>2016-10-15T06:54:33Z</time>
      </trkpt>
      <trkpt lat="42.580235000" lon="-2.450805000">
        <ele>734.80</ele>
        <time>2016-10-15T06:54:34Z</time>
      </trkpt>
      <trkpt lat="42.580249000" lon="-2.450795000">
        <ele>735.00</ele>
        <time>2016-10-15T06:54:35Z</time>
      </trkpt>
      <trkpt lat="42.580266000" lon="-2.450788000">
        <ele>735.20</ele>
        <time>2016-10-15T06:54:36Z</time>
      </trkpt>
      <trkpt lat="42.580282000" lon="-2.450778000">
        <ele>735.40</ele>
        <time>2016-10-15T06:54:37Z</time>
      </trkpt>
      <trkpt lat="42.580311000" lon="-2.450758000">
        <ele>735.70</ele>
        <time>2016-10-15T06:54:39Z</time>
      </trkpt>
      <trkpt lat="42.580327000" lon="-2.450746000">
        <ele>735.80</ele>
        <time>2016-10-15T06:54:40Z</time>
      </trkpt>
      <trkpt lat="42.580343000" lon="-2.450733000">
        <ele>735.90</ele>
        <time>2016-10-15T06:54:41Z</time>
      </trkpt>
      <trkpt lat="42.580359000" lon="-2.450720000">
        <ele>736.00</ele>
        <time>2016-10-15T06:54:42Z</time>
      </trkpt>
      <trkpt lat="42.580374000" lon="-2.450707000">
        <ele>736.10</ele>
        <time>2016-10-15T06:54:43Z</time>
      </trkpt>
      <trkpt lat="42.580387000" lon="-2.450694000">
        <ele>736.20</ele>
        <time>2016-10-15T06:54:44Z</time>
      </trkpt>
      <trkpt lat="42.580400000" lon="-2.450681000">
        <ele>736.20</ele>
        <time>2016-10-15T06:54:45Z</time>
      </trkpt>
      <trkpt lat="42.580410000" lon="-2.450667000">
        <ele>736.30</ele>
        <time>2016-10-15T06:54:46Z</time>
      </trkpt>
      <trkpt lat="42.580426000" lon="-2.450656000">
        <ele>736.30</ele>
        <time>2016-10-15T06:54:47Z</time>
      </trkpt>
      <trkpt lat="42.580440000" lon="-2.450644000">
        <ele>736.40</ele>
        <time>2016-10-15T06:54:48Z</time>
      </trkpt>
      <trkpt lat="42.580454000" lon="-2.450635000">
        <ele>736.50</ele>
        <time>2016-10-15T06:54:49Z</time>
      </trkpt>
      <trkpt lat="42.580470000" lon="-2.450626000">
        <ele>736.50</ele>
        <time>2016-10-15T06:54:50Z</time>
      </trkpt>
      <trkpt lat="42.580486000" lon="-2.450620000">
        <ele>736.60</ele>
        <time>2016-10-15T06:54:51Z</time>
      </trkpt>
      <trkpt lat="42.580502000" lon="-2.450610000">
        <ele>736.60</ele>
        <time>2016-10-15T06:54:52Z</time>
      </trkpt>
      <trkpt lat="42.580515000" lon="-2.450598000">
        <ele>736.70</ele>
        <time>2016-10-15T06:54:53Z</time>
      </trkpt>
      <trkpt lat="42.580528000" lon="-2.450589000">
        <ele>736.80</ele>
        <time>2016-10-15T06:54:54Z</time>
      </trkpt>
      <trkpt lat="42.580543000" lon="-2.450582000">
        <ele>736.90</ele>
        <time>2016-10-15T06:54:55Z</time>
      </trkpt>
      <trkpt lat="42.580559000" lon="-2.450574000">
        <ele>737.10</ele>
        <time>2016-10-15T06:54:56Z</time>
      </trkpt>
      <trkpt lat="42.580574000" lon="-2.450565000">
        <ele>737.20</ele>
        <time>2016-10-15T06:54:57Z</time>
      </trkpt>
      <trkpt lat="42.580586000" lon="-2.450554000">
        <ele>737.50</ele>
        <time>2016-10-15T06:54:58Z</time>
      </trkpt>
      <trkpt lat="42.580598000" lon="-2.450545000">
        <ele>737.60</ele>
        <time>2016-10-15T06:54:59Z</time>
      </trkpt>
      <trkpt lat="42.580614000" lon="-2.450536000">
        <ele>737.80</ele>
        <time>2016-10-15T06:55:00Z</time>
      </trkpt>
      <trkpt lat="42.580630000" lon="-2.450531000">
        <ele>737.90</ele>
        <time>2016-10-15T06:55:01Z</time>
      </trkpt>
      <trkpt lat="42.580647000" lon="-2.450526000">
        <ele>738.00</ele>
        <time>2016-10-15T06:55:02Z</time>
      </trkpt>
      <trkpt lat="42.580661000" lon="-2.450520000">
        <ele>738.00</ele>
        <time>2016-10-15T06:55:03Z</time>
      </trkpt>
      <trkpt lat="42.580677000" lon="-2.450516000">
        <ele>738.30</ele>
        <time>2016-10-15T06:55:04Z</time>
      </trkpt>
      <trkpt lat="42.580693000" lon="-2.450509000">
        <ele>738.40</ele>
        <time>2016-10-15T06:55:05Z</time>
      </trkpt>
      <trkpt lat="42.580709000" lon="-2.450507000">
        <ele>738.70</ele>
        <time>2016-10-15T06:55:06Z</time>
      </trkpt>
      <trkpt lat="42.580728000" lon="-2.450508000">
        <ele>738.90</ele>
        <time>2016-10-15T06:55:07Z</time>
      </trkpt>
      <trkpt lat="42.580744000" lon="-2.450506000">
        <ele>739.10</ele>
        <time>2016-10-15T06:55:08Z</time>
      </trkpt>
      <trkpt lat="42.580762000" lon="-2.450511000">
        <ele>739.30</ele>
        <time>2016-10-15T06:55:09Z</time>
      </trkpt>
      <trkpt lat="42.580778000" lon="-2.450519000">
        <ele>739.60</ele>
        <time>2016-10-15T06:55:10Z</time>
      </trkpt>
      <trkpt lat="42.580794000" lon="-2.450523000">
        <ele>739.80</ele>
        <time>2016-10-15T06:55:11Z</time>
      </trkpt>
      <trkpt lat="42.580812000" lon="-2.450529000">
        <ele>739.90</ele>
        <time>2016-10-15T06:55:12Z</time>
      </trkpt>
      <trkpt lat="42.580830000" lon="-2.450533000">
        <ele>740.00</ele>
        <time>2016-10-15T06:55:13Z</time>
      </trkpt>
      <trkpt lat="42.580846000" lon="-2.450541000">
        <ele>740.20</ele>
        <time>2016-10-15T06:55:14Z</time>
      </trkpt>
      <trkpt lat="42.580863000" lon="-2.450546000">
        <ele>740.40</ele>
        <time>2016-10-15T06:55:15Z</time>
      </trkpt>
      <trkpt lat="42.580880000" lon="-2.450552000">
        <ele>740.60</ele>
        <time>2016-10-15T06:55:16Z</time>
      </trkpt>
      <trkpt lat="42.580898000" lon="-2.450561000">
        <ele>740.70</ele>
        <time>2016-10-15T06:55:17Z</time>
      </trkpt>
      <trkpt lat="42.580916000" lon="-2.450570000">
        <ele>740.90</ele>
        <time>2016-10-15T06:55:18Z</time>
      </trkpt>
      <trkpt lat="42.580928000" lon="-2.450570000">
        <ele>741.10</ele>
        <time>2016-10-15T06:55:19Z</time>
      </trkpt>
      <trkpt lat="42.580943000" lon="-2.450573000">
        <ele>741.20</ele>
        <time>2016-10-15T06:55:20Z</time>
      </trkpt>
      <trkpt lat="42.580960000" lon="-2.450577000">
        <ele>741.30</ele>
        <time>2016-10-15T06:55:21Z</time>
      </trkpt>
      <trkpt lat="42.580976000" lon="-2.450584000">
        <ele>741.40</ele>
        <time>2016-10-15T06:55:22Z</time>
      </trkpt>
      <trkpt lat="42.580993000" lon="-2.450591000">
        <ele>741.50</ele>
        <time>2016-10-15T06:55:23Z</time>
      </trkpt>
      <trkpt lat="42.581010000" lon="-2.450599000">
        <ele>741.60</ele>
        <time>2016-10-15T06:55:24Z</time>
      </trkpt>
      <trkpt lat="42.581028000" lon="-2.450608000">
        <ele>741.60</ele>
        <time>2016-10-15T06:55:25Z</time>
      </trkpt>
      <trkpt lat="42.581049000" lon="-2.450615000">
        <ele>741.80</ele>
        <time>2016-10-15T06:55:26Z</time>
      </trkpt>
      <trkpt lat="42.581073000" lon="-2.450621000">
        <ele>741.90</ele>
        <time>2016-10-15T06:55:27Z</time>
      </trkpt>
      <trkpt lat="42.581096000" lon="-2.450629000">
        <ele>742.00</ele>
        <time>2016-10-15T06:55:28Z</time>
      </trkpt>
      <trkpt lat="42.581119000" lon="-2.450635000">
        <ele>742.10</ele>
        <time>2016-10-15T06:55:29Z</time>
      </trkpt>
      <trkpt lat="42.581143000" lon="-2.450642000">
        <ele>742.20</ele>
        <time>2016-10-15T06:55:30Z</time>
      </trkpt>
      <trkpt lat="42.581167000" lon="-2.450646000">
        <ele>742.20</ele>
        <time>2016-10-15T06:55:31Z</time>
      </trkpt>
      <trkpt lat="42.581191000" lon="-2.450647000">
        <ele>742.30</ele>
        <time>2016-10-15T06:55:32Z</time>
      </trkpt>
      <trkpt lat="42.581214000" lon="-2.450648000">
        <ele>742.30</ele>
        <time>2016-10-15T06:55:33Z</time>
      </trkpt>
      <trkpt lat="42.581234000" lon="-2.450650000">
        <ele>742.30</ele>
        <time>2016-10-15T06:55:34Z</time>
      </trkpt>
      <trkpt lat="42.581256000" lon="-2.450656000">
        <ele>742.30</ele>
        <time>2016-10-15T06:55:35Z</time>
      </trkpt>
      <trkpt lat="42.581284000" lon="-2.450664000">
        <ele>742.40</ele>
        <time>2016-10-15T06:55:36Z</time>
      </trkpt>
      <trkpt lat="42.581308000" lon="-2.450679000">
        <ele>742.40</ele>
        <time>2016-10-15T06:55:37Z</time>
      </trkpt>
      <trkpt lat="42.581334000" lon="-2.450684000">
        <ele>742.30</ele>
        <time>2016-10-15T06:55:38Z</time>
      </trkpt>
      <trkpt lat="42.581386000" lon="-2.450694000">
        <ele>742.20</ele>
        <time>2016-10-15T06:55:40Z</time>
      </trkpt>
      <trkpt lat="42.581412000" lon="-2.450703000">
        <ele>742.20</ele>
        <time>2016-10-15T06:55:41Z</time>
      </trkpt>
      <trkpt lat="42.581438000" lon="-2.450709000">
        <ele>742.10</ele>
        <time>2016-10-15T06:55:42Z</time>
      </trkpt>
      <trkpt lat="42.581465000" lon="-2.450711000">
        <ele>742.10</ele>
        <time>2016-10-15T06:55:43Z</time>
      </trkpt>
      <trkpt lat="42.581490000" lon="-2.450712000">
        <ele>742.10</ele>
        <time>2016-10-15T06:55:44Z</time>
      </trkpt>
      <trkpt lat="42.581514000" lon="-2.450712000">
        <ele>742.20</ele>
        <time>2016-10-15T06:55:45Z</time>
      </trkpt>
      <trkpt lat="42.581535000" lon="-2.450718000">
        <ele>742.20</ele>
        <time>2016-10-15T06:55:46Z</time>
      </trkpt>
      <trkpt lat="42.581558000" lon="-2.450718000">
        <ele>742.20</ele>
        <time>2016-10-15T06:55:47Z</time>
      </trkpt>
      <trkpt lat="42.581582000" lon="-2.450713000">
        <ele>742.30</ele>
        <time>2016-10-15T06:55:48Z</time>
      </trkpt>
      <trkpt lat="42.581603000" lon="-2.450709000">
        <ele>742.40</ele>
        <time>2016-10-15T06:55:49Z</time>
      </trkpt>
      <trkpt lat="42.581628000" lon="-2.450708000">
        <ele>742.50</ele>
        <time>2016-10-15T06:55:50Z</time>
      </trkpt>
      <trkpt lat="42.581651000" lon="-2.450708000">
        <ele>742.60</ele>
        <time>2016-10-15T06:55:51Z</time>
      </trkpt>
      <trkpt lat="42.581674000" lon="-2.450709000">
        <ele>742.80</ele>
        <time>2016-10-15T06:55:52Z</time>
      </trkpt>
      <trkpt lat="42.581695000" lon="-2.450707000">
        <ele>742.90</ele>
        <time>2016-10-15T06:55:53Z</time>
      </trkpt>
      <trkpt lat="42.581716000" lon="-2.450704000">
        <ele>743.00</ele>
        <time>2016-10-15T06:55:54Z</time>
      </trkpt>
      <trkpt lat="42.581736000" lon="-2.450696000">
        <ele>743.10</ele>
        <time>2016-10-15T06:55:55Z</time>
      </trkpt>
      <trkpt lat="42.581756000" lon="-2.450692000">
        <ele>743.20</ele>
        <time>2016-10-15T06:55:56Z</time>
      </trkpt>
      <trkpt lat="42.581778000" lon="-2.450686000">
        <ele>743.30</ele>
        <time>2016-10-15T06:55:57Z</time>
      </trkpt>
      <trkpt lat="42.581800000" lon="-2.450683000">
        <ele>743.30</ele>
        <time>2016-10-15T06:55:58Z</time>
      </trkpt>
      <trkpt lat="42.581822000" lon="-2.450681000">
        <ele>743.40</ele>
        <time>2016-10-15T06:55:59Z</time>
      </trkpt>
      <trkpt lat="42.581842000" lon="-2.450680000">
        <ele>743.20</ele>
        <time>2016-10-15T06:56:00Z</time>
      </trkpt>
      <trkpt lat="42.581861000" lon="-2.450677000">
        <ele>743.10</ele>
        <time>2016-10-15T06:56:01Z</time>
      </trkpt>
      <trkpt lat="42.581879000" lon="-2.450669000">
        <ele>743.20</ele>
        <time>2016-10-15T06:56:02Z</time>
      </trkpt>
      <trkpt lat="42.581895000" lon="-2.450663000">
        <ele>743.30</ele>
        <time>2016-10-15T06:56:03Z</time>
      </trkpt>
      <trkpt lat="42.581914000" lon="-2.450659000">
        <ele>743.30</ele>
        <time>2016-10-15T06:56:04Z</time>
      </trkpt>
      <trkpt lat="42.581934000" lon="-2.450653000">
        <ele>743.30</ele>
        <time>2016-10-15T06:56:05Z</time>
      </trkpt>
      <trkpt lat="42.581954000" lon="-2.450645000">
        <ele>743.40</ele>
        <time>2016-10-15T06:56:06Z</time>
      </trkpt>
      <trkpt lat="42.581972000" lon="-2.450637000">
        <ele>743.50</ele>
        <time>2016-10-15T06:56:07Z</time>
      </trkpt>
      <trkpt lat="42.581991000" lon="-2.450629000">
        <ele>743.80</ele>
        <time>2016-10-15T06:56:08Z</time>
      </trkpt>
      <trkpt lat="42.582010000" lon="-2.450620000">
        <ele>744.00</ele>
        <time>2016-10-15T06:56:09Z</time>
      </trkpt>
      <trkpt lat="42.582028000" lon="-2.450610000">
        <ele>744.20</ele>
        <time>2016-10-15T06:56:10Z</time>
      </trkpt>
      <trkpt lat="42.582048000" lon="-2.450599000">
        <ele>744.40</ele>
        <time>2016-10-15T06:56:11Z</time>
      </trkpt>
      <trkpt lat="42.582064000" lon="-2.450588000">
        <ele>744.50</ele>
        <time>2016-10-15T06:56:12Z</time>
      </trkpt>
      <trkpt lat="42.582085000" lon="-2.450583000">
        <ele>744.60</ele>
        <time>2016-10-15T06:56:13Z</time>
      </trkpt>
      <trkpt lat="42.582105000" lon="-2.450575000">
        <ele>744.80</ele>
        <time>2016-10-15T06:56:14Z</time>
      </trkpt>
      <trkpt lat="42.582119000" lon="-2.450570000">
        <ele>745.00</ele>
        <time>2016-10-15T06:56:15Z</time>
      </trkpt>
      <trkpt lat="42.582139000" lon="-2.450567000">
        <ele>745.10</ele>
        <time>2016-10-15T06:56:16Z</time>
      </trkpt>
      <trkpt lat="42.582158000" lon="-2.450563000">
        <ele>745.20</ele>
        <time>2016-10-15T06:56:17Z</time>
      </trkpt>
      <trkpt lat="42.582179000" lon="-2.450564000">
        <ele>745.20</ele>
        <time>2016-10-15T06:56:18Z</time>
      </trkpt>
      <trkpt lat="42.582201000" lon="-2.450570000">
        <ele>745.30</ele>
        <time>2016-10-15T06:56:19Z</time>
      </trkpt>
      <trkpt lat="42.582223000" lon="-2.450573000">
        <ele>745.30</ele>
        <time>2016-10-15T06:56:20Z</time>
      </trkpt>
      <trkpt lat="42.582245000" lon="-2.450577000">
        <ele>745.40</ele>
        <time>2016-10-15T06:56:21Z</time>
      </trkpt>
      <trkpt lat="42.582266000" lon="-2.450582000">
        <ele>745.40</ele>
        <time>2016-10-15T06:56:22Z</time>
      </trkpt>
      <trkpt lat="42.582286000" lon="-2.450588000">
        <ele>745.40</ele>
        <time>2016-10-15T06:56:23Z</time>
      </trkpt>
      <trkpt lat="42.582308000" lon="-2.450594000">
        <ele>745.40</ele>
        <time>2016-10-15T06:56:24Z</time>
      </trkpt>
      <trkpt lat="42.582330000" lon="-2.450603000">
        <ele>745.40</ele>
        <time>2016-10-15T06:56:25Z</time>
      </trkpt>
      <trkpt lat="42.582351000" lon="-2.450612000">
        <ele>745.60</ele>
        <time>2016-10-15T06:56:26Z</time>
      </trkpt>
      <trkpt lat="42.582371000" lon="-2.450623000">
        <ele>745.70</ele>
        <time>2016-10-15T06:56:27Z</time>
      </trkpt>
      <trkpt lat="42.582390000" lon="-2.450635000">
        <ele>745.80</ele>
        <time>2016-10-15T06:56:28Z</time>
      </trkpt>
      <trkpt lat="42.582407000" lon="-2.450647000">
        <ele>745.90</ele>
        <time>2016-10-15T06:56:29Z</time>
      </trkpt>
      <trkpt lat="42.582425000" lon="-2.450656000">
        <ele>746.00</ele>
        <time>2016-10-15T06:56:30Z</time>
      </trkpt>
      <trkpt lat="42.582443000" lon="-2.450668000">
        <ele>746.00</ele>
        <time>2016-10-15T06:56:31Z</time>
      </trkpt>
      <trkpt lat="42.582460000" lon="-2.450676000">
        <ele>746.10</ele>
        <time>2016-10-15T06:56:32Z</time>
      </trkpt>
      <trkpt lat="42.582478000" lon="-2.450688000">
        <ele>746.10</ele>
        <time>2016-10-15T06:56:33Z</time>
      </trkpt>
      <trkpt lat="42.582495000" lon="-2.450701000">
        <ele>746.20</ele>
        <time>2016-10-15T06:56:34Z</time>
      </trkpt>
      <trkpt lat="42.582512000" lon="-2.450717000">
        <ele>746.30</ele>
        <time>2016-10-15T06:56:35Z</time>
      </trkpt>
      <trkpt lat="42.582532000" lon="-2.450728000">
        <ele>746.40</ele>
        <time>2016-10-15T06:56:36Z</time>
      </trkpt>
      <trkpt lat="42.582551000" lon="-2.450744000">
        <ele>746.50</ele>
        <time>2016-10-15T06:56:37Z</time>
      </trkpt>
      <trkpt lat="42.582572000" lon="-2.450755000">
        <ele>746.60</ele>
        <time>2016-10-15T06:56:38Z</time>
      </trkpt>
      <trkpt lat="42.582592000" lon="-2.450769000">
        <ele>746.60</ele>
        <time>2016-10-15T06:56:39Z</time>
      </trkpt>
      <trkpt lat="42.582633000" lon="-2.450792000">
        <ele>746.90</ele>
        <time>2016-10-15T06:56:41Z</time>
      </trkpt>
      <trkpt lat="42.582650000" lon="-2.450801000">
        <ele>747.20</ele>
        <time>2016-10-15T06:56:42Z</time>
      </trkpt>
      <trkpt lat="42.582669000" lon="-2.450811000">
        <ele>747.30</ele>
        <time>2016-10-15T06:56:43Z</time>
      </trkpt>
      <trkpt lat="42.582691000" lon="-2.450827000">
        <ele>747.50</ele>
        <time>2016-10-15T06:56:44Z</time>
      </trkpt>
      <trkpt lat="42.582708000" lon="-2.450837000">
        <ele>747.60</ele>
        <time>2016-10-15T06:56:45Z</time>
      </trkpt>
      <trkpt lat="42.582724000" lon="-2.450846000">
        <ele>747.80</ele>
        <time>2016-10-15T06:56:46Z</time>
      </trkpt>
      <trkpt lat="42.582742000" lon="-2.450858000">
        <ele>748.00</ele>
        <time>2016-10-15T06:56:47Z</time>
      </trkpt>
      <trkpt lat="42.582762000" lon="-2.450872000">
        <ele>748.10</ele>
        <time>2016-10-15T06:56:48Z</time>
      </trkpt>
      <trkpt lat="42.582783000" lon="-2.450886000">
        <ele>748.30</ele>
        <time>2016-10-15T06:56:49Z</time>
      </trkpt>
      <trkpt lat="42.582805000" lon="-2.450900000">
        <ele>748.30</ele>
        <time>2016-10-15T06:56:50Z</time>
      </trkpt>
      <trkpt lat="42.582827000" lon="-2.450913000">
        <ele>748.40</ele>
        <time>2016-10-15T06:56:51Z</time>
      </trkpt>
      <trkpt lat="42.582849000" lon="-2.450925000">
        <ele>748.40</ele>
        <time>2016-10-15T06:56:52Z</time>
      </trkpt>
      <trkpt lat="42.582867000" lon="-2.450939000">
        <ele>748.50</ele>
        <time>2016-10-15T06:56:53Z</time>
      </trkpt>
      <trkpt lat="42.582887000" lon="-2.450950000">
        <ele>748.60</ele>
        <time>2016-10-15T06:56:54Z</time>
      </trkpt>
      <trkpt lat="42.582910000" lon="-2.450960000">
        <ele>748.60</ele>
        <time>2016-10-15T06:56:55Z</time>
      </trkpt>
      <trkpt lat="42.582931000" lon="-2.450974000">
        <ele>748.70</ele>
        <time>2016-10-15T06:56:56Z</time>
      </trkpt>
      <trkpt lat="42.582949000" lon="-2.450987000">
        <ele>748.70</ele>
        <time>2016-10-15T06:56:57Z</time>
      </trkpt>
      <trkpt lat="42.582969000" lon="-2.450998000">
        <ele>748.80</ele>
        <time>2016-10-15T06:56:58Z</time>
      </trkpt>
      <trkpt lat="42.582991000" lon="-2.451011000">
        <ele>748.90</ele>
        <time>2016-10-15T06:56:59Z</time>
      </trkpt>
      <trkpt lat="42.583011000" lon="-2.451026000">
        <ele>749.00</ele>
        <time>2016-10-15T06:57:00Z</time>
      </trkpt>
      <trkpt lat="42.583034000" lon="-2.451039000">
        <ele>749.10</ele>
        <time>2016-10-15T06:57:01Z</time>
      </trkpt>
      <trkpt lat="42.583054000" lon="-2.451053000">
        <ele>749.10</ele>
        <time>2016-10-15T06:57:02Z</time>
      </trkpt>
      <trkpt lat="42.583074000" lon="-2.451063000">
        <ele>749.20</ele>
        <time>2016-10-15T06:57:03Z</time>
      </trkpt>
      <trkpt lat="42.583094000" lon="-2.451073000">
        <ele>749.20</ele>
        <time>2016-10-15T06:57:04Z</time>
      </trkpt>
      <trkpt lat="42.583115000" lon="-2.451083000">
        <ele>749.30</ele>
        <time>2016-10-15T06:57:05Z</time>
      </trkpt>
      <trkpt lat="42.583137000" lon="-2.451090000">
        <ele>749.30</ele>
        <time>2016-10-15T06:57:06Z</time>
      </trkpt>
      <trkpt lat="42.583158000" lon="-2.451101000">
        <ele>749.40</ele>
        <time>2016-10-15T06:57:07Z</time>
      </trkpt>
      <trkpt lat="42.583180000" lon="-2.451113000">
        <ele>749.40</ele>
        <time>2016-10-15T06:57:08Z</time>
      </trkpt>
      <trkpt lat="42.583200000" lon="-2.451127000">
        <ele>749.40</ele>
        <time>2016-10-15T06:57:09Z</time>
      </trkpt>
      <trkpt lat="42.583219000" lon="-2.451140000">
        <ele>749.60</ele>
        <time>2016-10-15T06:57:10Z</time>
      </trkpt>
      <trkpt lat="42.583237000" lon="-2.451152000">
        <ele>749.80</ele>
        <time>2016-10-15T06:57:11Z</time>
      </trkpt>
      <trkpt lat="42.583258000" lon="-2.451164000">
        <ele>749.90</ele>
        <time>2016-10-15T06:57:12Z</time>
      </trkpt>
      <trkpt lat="42.583275000" lon="-2.451178000">
        <ele>750.00</ele>
        <time>2016-10-15T06:57:13Z</time>
      </trkpt>
      <trkpt lat="42.583294000" lon="-2.451188000">
        <ele>750.20</ele>
        <time>2016-10-15T06:57:14Z</time>
      </trkpt>
      <trkpt lat="42.583308000" lon="-2.451198000">
        <ele>750.30</ele>
        <time>2016-10-15T06:57:15Z</time>
      </trkpt>
      <trkpt lat="42.583326000" lon="-2.451207000">
        <ele>750.40</ele>
        <time>2016-10-15T06:57:16Z</time>
      </trkpt>
      <trkpt lat="42.583344000" lon="-2.451216000">
        <ele>750.50</ele>
        <time>2016-10-15T06:57:17Z</time>
      </trkpt>
      <trkpt lat="42.583365000" lon="-2.451231000">
        <ele>750.60</ele>
        <time>2016-10-15T06:57:18Z</time>
      </trkpt>
      <trkpt lat="42.583388000" lon="-2.451244000">
        <ele>750.60</ele>
        <time>2016-10-15T06:57:19Z</time>
      </trkpt>
      <trkpt lat="42.583410000" lon="-2.451257000">
        <ele>750.70</ele>
        <time>2016-10-15T06:57:20Z</time>
      </trkpt>
      <trkpt lat="42.583429000" lon="-2.451273000">
        <ele>750.80</ele>
        <time>2016-10-15T06:57:21Z</time>
      </trkpt>
      <trkpt lat="42.583448000" lon="-2.451286000">
        <ele>750.90</ele>
        <time>2016-10-15T06:57:22Z</time>
      </trkpt>
      <trkpt lat="42.583470000" lon="-2.451300000">
        <ele>751.00</ele>
        <time>2016-10-15T06:57:23Z</time>
      </trkpt>
      <trkpt lat="42.583492000" lon="-2.451313000">
        <ele>751.20</ele>
        <time>2016-10-15T06:57:24Z</time>
      </trkpt>
      <trkpt lat="42.583514000" lon="-2.451325000">
        <ele>751.40</ele>
        <time>2016-10-15T06:57:25Z</time>
      </trkpt>
      <trkpt lat="42.583536000" lon="-2.451335000">
        <ele>751.50</ele>
        <time>2016-10-15T06:57:26Z</time>
      </trkpt>
      <trkpt lat="42.583557000" lon="-2.451348000">
        <ele>751.60</ele>
        <time>2016-10-15T06:57:27Z</time>
      </trkpt>
      <trkpt lat="42.583577000" lon="-2.451361000">
        <ele>751.80</ele>
        <time>2016-10-15T06:57:28Z</time>
      </trkpt>
      <trkpt lat="42.583598000" lon="-2.451371000">
        <ele>752.00</ele>
        <time>2016-10-15T06:57:29Z</time>
      </trkpt>
      <trkpt lat="42.583616000" lon="-2.451381000">
        <ele>752.10</ele>
        <time>2016-10-15T06:57:30Z</time>
      </trkpt>
      <trkpt lat="42.583636000" lon="-2.451394000">
        <ele>752.20</ele>
        <time>2016-10-15T06:57:31Z</time>
      </trkpt>
      <trkpt lat="42.583654000" lon="-2.451408000">
        <ele>752.30</ele>
        <time>2016-10-15T06:57:32Z</time>
      </trkpt>
      <trkpt lat="42.583673000" lon="-2.451423000">
        <ele>752.40</ele>
        <time>2016-10-15T06:57:33Z</time>
      </trkpt>
      <trkpt lat="42.583694000" lon="-2.451439000">
        <ele>752.50</ele>
        <time>2016-10-15T06:57:34Z</time>
      </trkpt>
      <trkpt lat="42.583715000" lon="-2.451453000">
        <ele>752.60</ele>
        <time>2016-10-15T06:57:35Z</time>
      </trkpt>
      <trkpt lat="42.583736000" lon="-2.451467000">
        <ele>752.60</ele>
        <time>2016-10-15T06:57:36Z</time>
      </trkpt>
      <trkpt lat="42.583755000" lon="-2.451483000">
        <ele>752.70</ele>
        <time>2016-10-15T06:57:37Z</time>
      </trkpt>
      <trkpt lat="42.583775000" lon="-2.451497000">
        <ele>752.80</ele>
        <time>2016-10-15T06:57:38Z</time>
      </trkpt>
      <trkpt lat="42.583790000" lon="-2.451509000">
        <ele>752.80</ele>
        <time>2016-10-15T06:57:39Z</time>
      </trkpt>
      <trkpt lat="42.583810000" lon="-2.451523000">
        <ele>753.00</ele>
        <time>2016-10-15T06:57:40Z</time>
      </trkpt>
      <trkpt lat="42.583852000" lon="-2.451548000">
        <ele>753.30</ele>
        <time>2016-10-15T06:57:42Z</time>
      </trkpt>
      <trkpt lat="42.583870000" lon="-2.451563000">
        <ele>753.50</ele>
        <time>2016-10-15T06:57:43Z</time>
      </trkpt>
      <trkpt lat="42.583891000" lon="-2.451577000">
        <ele>753.60</ele>
        <time>2016-10-15T06:57:44Z</time>
      </trkpt>
      <trkpt lat="42.583910000" lon="-2.451590000">
        <ele>753.80</ele>
        <time>2016-10-15T06:57:45Z</time>
      </trkpt>
      <trkpt lat="42.583929000" lon="-2.451601000">
        <ele>754.00</ele>
        <time>2016-10-15T06:57:46Z</time>
      </trkpt>
      <trkpt lat="42.583948000" lon="-2.451613000">
        <ele>754.20</ele>
        <time>2016-10-15T06:57:47Z</time>
      </trkpt>
      <trkpt lat="42.583968000" lon="-2.451624000">
        <ele>754.40</ele>
        <time>2016-10-15T06:57:48Z</time>
      </trkpt>
      <trkpt lat="42.583983000" lon="-2.451633000">
        <ele>754.60</ele>
        <time>2016-10-15T06:57:49Z</time>
      </trkpt>
      <trkpt lat="42.584005000" lon="-2.451644000">
        <ele>754.70</ele>
        <time>2016-10-15T06:57:50Z</time>
      </trkpt>
      <trkpt lat="42.584029000" lon="-2.451655000">
        <ele>754.90</ele>
        <time>2016-10-15T06:57:51Z</time>
      </trkpt>
      <trkpt lat="42.584049000" lon="-2.451669000">
        <ele>755.10</ele>
        <time>2016-10-15T06:57:52Z</time>
      </trkpt>
      <trkpt lat="42.584068000" lon="-2.451683000">
        <ele>755.20</ele>
        <time>2016-10-15T06:57:53Z</time>
      </trkpt>
      <trkpt lat="42.584088000" lon="-2.451694000">
        <ele>755.30</ele>
        <time>2016-10-15T06:57:54Z</time>
      </trkpt>
      <trkpt lat="42.584108000" lon="-2.451706000">
        <ele>755.30</ele>
        <time>2016-10-15T06:57:55Z</time>
      </trkpt>
      <trkpt lat="42.584128000" lon="-2.451721000">
        <ele>755.50</ele>
        <time>2016-10-15T06:57:56Z</time>
      </trkpt>
      <trkpt lat="42.584149000" lon="-2.451733000">
        <ele>755.60</ele>
        <time>2016-10-15T06:57:57Z</time>
      </trkpt>
      <trkpt lat="42.584168000" lon="-2.451744000">
        <ele>755.70</ele>
        <time>2016-10-15T06:57:58Z</time>
      </trkpt>
      <trkpt lat="42.584188000" lon="-2.451756000">
        <ele>755.70</ele>
        <time>2016-10-15T06:57:59Z</time>
      </trkpt>
      <trkpt lat="42.584207000" lon="-2.451768000">
        <ele>755.90</ele>
        <time>2016-10-15T06:58:00Z</time>
      </trkpt>
      <trkpt lat="42.584229000" lon="-2.451781000">
        <ele>755.90</ele>
        <time>2016-10-15T06:58:01Z</time>
      </trkpt>
      <trkpt lat="42.584250000" lon="-2.451793000">
        <ele>756.00</ele>
        <time>2016-10-15T06:58:02Z</time>
      </trkpt>
      <trkpt lat="42.584271000" lon="-2.451805000">
        <ele>756.10</ele>
        <time>2016-10-15T06:58:03Z</time>
      </trkpt>
      <trkpt lat="42.584292000" lon="-2.451819000">
        <ele>756.20</ele>
        <time>2016-10-15T06:58:04Z</time>
      </trkpt>
      <trkpt lat="42.584313000" lon="-2.451830000">
        <ele>756.20</ele>
        <time>2016-10-15T06:58:05Z</time>
      </trkpt>
      <trkpt lat="42.584332000" lon="-2.451844000">
        <ele>756.40</ele>
        <time>2016-10-15T06:58:06Z</time>
      </trkpt>
      <trkpt lat="42.584351000" lon="-2.451855000">
        <ele>756.60</ele>
        <time>2016-10-15T06:58:07Z</time>
      </trkpt>
      <trkpt lat="42.584374000" lon="-2.451866000">
        <ele>756.70</ele>
        <time>2016-10-15T06:58:08Z</time>
      </trkpt>
      <trkpt lat="42.584397000" lon="-2.451876000">
        <ele>756.80</ele>
        <time>2016-10-15T06:58:09Z</time>
      </trkpt>
      <trkpt lat="42.584422000" lon="-2.451888000">
        <ele>756.90</ele>
        <time>2016-10-15T06:58:10Z</time>
      </trkpt>
      <trkpt lat="42.584443000" lon="-2.451900000">
        <ele>756.90</ele>
        <time>2016-10-15T06:58:11Z</time>
      </trkpt>
      <trkpt lat="42.584464000" lon="-2.451909000">
        <ele>757.00</ele>
        <time>2016-10-15T06:58:12Z</time>
      </trkpt>
      <trkpt lat="42.584486000" lon="-2.451920000">
        <ele>757.00</ele>
        <time>2016-10-15T06:58:13Z</time>
      </trkpt>
      <trkpt lat="42.584509000" lon="-2.451932000">
        <ele>757.00</ele>
        <time>2016-10-15T06:58:14Z</time>
      </trkpt>
      <trkpt lat="42.584533000" lon="-2.451946000">
        <ele>757.00</ele>
        <time>2016-10-15T06:58:15Z</time>
      </trkpt>
      <trkpt lat="42.584557000" lon="-2.451954000">
        <ele>757.00</ele>
        <time>2016-10-15T06:58:16Z</time>
      </trkpt>
      <trkpt lat="42.584583000" lon="-2.451968000">
        <ele>756.90</ele>
        <time>2016-10-15T06:58:17Z</time>
      </trkpt>
      <trkpt lat="42.584605000" lon="-2.451976000">
        <ele>756.90</ele>
        <time>2016-10-15T06:58:18Z</time>
      </trkpt>
      <trkpt lat="42.584629000" lon="-2.451988000">
        <ele>756.90</ele>
        <time>2016-10-15T06:58:19Z</time>
      </trkpt>
      <trkpt lat="42.584656000" lon="-2.451999000">
        <ele>756.90</ele>
        <time>2016-10-15T06:58:20Z</time>
      </trkpt>
      <trkpt lat="42.584682000" lon="-2.452009000">
        <ele>756.80</ele>
        <time>2016-10-15T06:58:21Z</time>
      </trkpt>
      <trkpt lat="42.584708000" lon="-2.452020000">
        <ele>756.80</ele>
        <time>2016-10-15T06:58:22Z</time>
      </trkpt>
      <trkpt lat="42.584733000" lon="-2.452030000">
        <ele>756.90</ele>
        <time>2016-10-15T06:58:23Z</time>
      </trkpt>
      <trkpt lat="42.584759000" lon="-2.452041000">
        <ele>756.90</ele>
        <time>2016-10-15T06:58:24Z</time>
      </trkpt>
      <trkpt lat="42.584785000" lon="-2.452052000">
        <ele>757.00</ele>
        <time>2016-10-15T06:58:25Z</time>
      </trkpt>
      <trkpt lat="42.584811000" lon="-2.452065000">
        <ele>757.00</ele>
        <time>2016-10-15T06:58:26Z</time>
      </trkpt>
      <trkpt lat="42.584839000" lon="-2.452073000">
        <ele>757.10</ele>
        <time>2016-10-15T06:58:27Z</time>
      </trkpt>
      <trkpt lat="42.584867000" lon="-2.452079000">
        <ele>757.00</ele>
        <time>2016-10-15T06:58:28Z</time>
      </trkpt>
      <trkpt lat="42.584896000" lon="-2.452086000">
        <ele>756.90</ele>
        <time>2016-10-15T06:58:29Z</time>
      </trkpt>
      <trkpt lat="42.584923000" lon="-2.452090000">
        <ele>756.90</ele>
        <time>2016-10-15T06:58:30Z</time>
      </trkpt>
      <trkpt lat="42.584954000" lon="-2.452100000">
        <ele>756.80</ele>
        <time>2016-10-15T06:58:31Z</time>
      </trkpt>
      <trkpt lat="42.584983000" lon="-2.452106000">
        <ele>756.80</ele>
        <time>2016-10-15T06:58:32Z</time>
      </trkpt>
      <trkpt lat="42.585014000" lon="-2.452112000">
        <ele>756.80</ele>
        <time>2016-10-15T06:58:33Z</time>
      </trkpt>
      <trkpt lat="42.585041000" lon="-2.452113000">
        <ele>756.80</ele>
        <time>2016-10-15T06:58:34Z</time>
      </trkpt>
      <trkpt lat="42.585067000" lon="-2.452112000">
        <ele>756.80</ele>
        <time>2016-10-15T06:58:35Z</time>
      </trkpt>
      <trkpt lat="42.585094000" lon="-2.452110000">
        <ele>756.70</ele>
        <time>2016-10-15T06:58:36Z</time>
      </trkpt>
      <trkpt lat="42.585125000" lon="-2.452109000">
        <ele>756.70</ele>
        <time>2016-10-15T06:58:37Z</time>
      </trkpt>
      <trkpt lat="42.585159000" lon="-2.452108000">
        <ele>756.60</ele>
        <time>2016-10-15T06:58:38Z</time>
      </trkpt>
      <trkpt lat="42.585195000" lon="-2.452108000">
        <ele>756.60</ele>
        <time>2016-10-15T06:58:39Z</time>
      </trkpt>
      <trkpt lat="42.585230000" lon="-2.452106000">
        <ele>756.60</ele>
        <time>2016-10-15T06:58:40Z</time>
      </trkpt>
      <trkpt lat="42.585266000" lon="-2.452102000">
        <ele>756.60</ele>
        <time>2016-10-15T06:58:41Z</time>
      </trkpt>
      <trkpt lat="42.585337000" lon="-2.452089000">
        <ele>756.30</ele>
        <time>2016-10-15T06:58:43Z</time>
      </trkpt>
      <trkpt lat="42.585374000" lon="-2.452081000">
        <ele>756.30</ele>
        <time>2016-10-15T06:58:44Z</time>
      </trkpt>
      <trkpt lat="42.585411000" lon="-2.452071000">
        <ele>756.20</ele>
        <time>2016-10-15T06:58:45Z</time>
      </trkpt>
      <trkpt lat="42.585449000" lon="-2.452063000">
        <ele>756.30</ele>
        <time>2016-10-15T06:58:46Z</time>
      </trkpt>
      <trkpt lat="42.585488000" lon="-2.452050000">
        <ele>756.40</ele>
        <time>2016-10-15T06:58:47Z</time>
      </trkpt>
      <trkpt lat="42.585525000" lon="-2.452035000">
        <ele>756.50</ele>
        <time>2016-10-15T06:58:48Z</time>
      </trkpt>
      <trkpt lat="42.585558000" lon="-2.452022000">
        <ele>756.70</ele>
        <time>2016-10-15T06:58:49Z</time>
      </trkpt>
      <trkpt lat="42.585589000" lon="-2.452009000">
        <ele>756.80</ele>
        <time>2016-10-15T06:58:50Z</time>
      </trkpt>
      <trkpt lat="42.585614000" lon="-2.452000000">
        <ele>756.90</ele>
        <time>2016-10-15T06:58:51Z</time>
      </trkpt>
      <trkpt lat="42.585643000" lon="-2.451990000">
        <ele>756.90</ele>
        <time>2016-10-15T06:58:52Z</time>
      </trkpt>
      <trkpt lat="42.585670000" lon="-2.451977000">
        <ele>756.90</ele>
        <time>2016-10-15T06:58:53Z</time>
      </trkpt>
      <trkpt lat="42.585698000" lon="-2.451965000">
        <ele>756.90</ele>
        <time>2016-10-15T06:58:54Z</time>
      </trkpt>
      <trkpt lat="42.585728000" lon="-2.451952000">
        <ele>756.90</ele>
        <time>2016-10-15T06:58:55Z</time>
      </trkpt>
      <trkpt lat="42.585753000" lon="-2.451939000">
        <ele>756.90</ele>
        <time>2016-10-15T06:58:56Z</time>
      </trkpt>
      <trkpt lat="42.585780000" lon="-2.451924000">
        <ele>756.90</ele>
        <time>2016-10-15T06:58:57Z</time>
      </trkpt>
      <trkpt lat="42.585805000" lon="-2.451913000">
        <ele>757.00</ele>
        <time>2016-10-15T06:58:58Z</time>
      </trkpt>
      <trkpt lat="42.585832000" lon="-2.451905000">
        <ele>757.00</ele>
        <time>2016-10-15T06:58:59Z</time>
      </trkpt>
      <trkpt lat="42.585860000" lon="-2.451895000">
        <ele>757.20</ele>
        <time>2016-10-15T06:59:00Z</time>
      </trkpt>
      <trkpt lat="42.585885000" lon="-2.451886000">
        <ele>757.40</ele>
        <time>2016-10-15T06:59:01Z</time>
      </trkpt>
      <trkpt lat="42.585909000" lon="-2.451874000">
        <ele>757.70</ele>
        <time>2016-10-15T06:59:02Z</time>
      </trkpt>
      <trkpt lat="42.585934000" lon="-2.451862000">
        <ele>757.90</ele>
        <time>2016-10-15T06:59:03Z</time>
      </trkpt>
      <trkpt lat="42.585956000" lon="-2.451848000">
        <ele>758.20</ele>
        <time>2016-10-15T06:59:04Z</time>
      </trkpt>
      <trkpt lat="42.585978000" lon="-2.451837000">
        <ele>758.40</ele>
        <time>2016-10-15T06:59:05Z</time>
      </trkpt>
      <trkpt lat="42.586001000" lon="-2.451827000">
        <ele>758.70</ele>
        <time>2016-10-15T06:59:06Z</time>
      </trkpt>
      <trkpt lat="42.586025000" lon="-2.451815000">
        <ele>758.90</ele>
        <time>2016-10-15T06:59:07Z</time>
      </trkpt>
      <trkpt lat="42.586047000" lon="-2.451805000">
        <ele>759.40</ele>
        <time>2016-10-15T06:59:08Z</time>
      </trkpt>
      <trkpt lat="42.586069000" lon="-2.451797000">
        <ele>759.70</ele>
        <time>2016-10-15T06:59:09Z</time>
      </trkpt>
      <trkpt lat="42.586088000" lon="-2.451787000">
        <ele>760.00</ele>
        <time>2016-10-15T06:59:10Z</time>
      </trkpt>
      <trkpt lat="42.586109000" lon="-2.451777000">
        <ele>760.20</ele>
        <time>2016-10-15T06:59:11Z</time>
      </trkpt>
      <trkpt lat="42.586127000" lon="-2.451772000">
        <ele>760.70</ele>
        <time>2016-10-15T06:59:12Z</time>
      </trkpt>
      <trkpt lat="42.586145000" lon="-2.451768000">
        <ele>761.00</ele>
        <time>2016-10-15T06:59:13Z</time>
      </trkpt>
      <trkpt lat="42.586165000" lon="-2.451766000">
        <ele>761.30</ele>
        <time>2016-10-15T06:59:14Z</time>
      </trkpt>
      <trkpt lat="42.586184000" lon="-2.451762000">
        <ele>761.60</ele>
        <time>2016-10-15T06:59:15Z</time>
      </trkpt>
      <trkpt lat="42.586205000" lon="-2.451760000">
        <ele>762.00</ele>
        <time>2016-10-15T06:59:16Z</time>
      </trkpt>
      <trkpt lat="42.586225000" lon="-2.451759000">
        <ele>762.20</ele>
        <time>2016-10-15T06:59:17Z</time>
      </trkpt>
      <trkpt lat="42.586242000" lon="-2.451757000">
        <ele>762.50</ele>
        <time>2016-10-15T06:59:18Z</time>
      </trkpt>
      <trkpt lat="42.586258000" lon="-2.451758000">
        <ele>762.60</ele>
        <time>2016-10-15T06:59:19Z</time>
      </trkpt>
      <trkpt lat="42.586274000" lon="-2.451760000">
        <ele>763.10</ele>
        <time>2016-10-15T06:59:20Z</time>
      </trkpt>
      <trkpt lat="42.586290000" lon="-2.451764000">
        <ele>763.50</ele>
        <time>2016-10-15T06:59:21Z</time>
      </trkpt>
      <trkpt lat="42.586304000" lon="-2.451770000">
        <ele>763.80</ele>
        <time>2016-10-15T06:59:22Z</time>
      </trkpt>
      <trkpt lat="42.586315000" lon="-2.451779000">
        <ele>764.00</ele>
        <time>2016-10-15T06:59:23Z</time>
      </trkpt>
      <trkpt lat="42.586328000" lon="-2.451785000">
        <ele>764.00</ele>
        <time>2016-10-15T06:59:24Z</time>
      </trkpt>
      <trkpt lat="42.586346000" lon="-2.451794000">
        <ele>764.00</ele>
        <time>2016-10-15T06:59:25Z</time>
      </trkpt>
      <trkpt lat="42.586363000" lon="-2.451805000">
        <ele>764.00</ele>
        <time>2016-10-15T06:59:26Z</time>
      </trkpt>
      <trkpt lat="42.586381000" lon="-2.451811000">
        <ele>764.10</ele>
        <time>2016-10-15T06:59:27Z</time>
      </trkpt>
      <trkpt lat="42.586398000" lon="-2.451818000">
        <ele>764.40</ele>
        <time>2016-10-15T06:59:28Z</time>
      </trkpt>
      <trkpt lat="42.586417000" lon="-2.451831000">
        <ele>764.60</ele>
        <time>2016-10-15T06:59:29Z</time>
      </trkpt>
      <trkpt lat="42.586438000" lon="-2.451843000">
        <ele>764.90</ele>
        <time>2016-10-15T06:59:30Z</time>
      </trkpt>
      <trkpt lat="42.586458000" lon="-2.451856000">
        <ele>765.10</ele>
        <time>2016-10-15T06:59:31Z</time>
      </trkpt>
      <trkpt lat="42.586476000" lon="-2.451867000">
        <ele>765.30</ele>
        <time>2016-10-15T06:59:32Z</time>
      </trkpt>
      <trkpt lat="42.586495000" lon="-2.451879000">
        <ele>765.50</ele>
        <time>2016-10-15T06:59:33Z</time>
      </trkpt>
      <trkpt lat="42.586516000" lon="-2.451893000">
        <ele>765.80</ele>
        <time>2016-10-15T06:59:34Z</time>
      </trkpt>
      <trkpt lat="42.586538000" lon="-2.451907000">
        <ele>765.90</ele>
        <time>2016-10-15T06:59:35Z</time>
      </trkpt>
      <trkpt lat="42.586560000" lon="-2.451921000">
        <ele>766.20</ele>
        <time>2016-10-15T06:59:36Z</time>
      </trkpt>
      <trkpt lat="42.586581000" lon="-2.451936000">
        <ele>766.40</ele>
        <time>2016-10-15T06:59:37Z</time>
      </trkpt>
      <trkpt lat="42.586600000" lon="-2.451951000">
        <ele>766.50</ele>
        <time>2016-10-15T06:59:38Z</time>
      </trkpt>
      <trkpt lat="42.586621000" lon="-2.451965000">
        <ele>766.60</ele>
        <time>2016-10-15T06:59:39Z</time>
      </trkpt>
      <trkpt lat="42.586637000" lon="-2.451975000">
        <ele>766.80</ele>
        <time>2016-10-15T06:59:40Z</time>
      </trkpt>
      <trkpt lat="42.586655000" lon="-2.451988000">
        <ele>766.90</ele>
        <time>2016-10-15T06:59:41Z</time>
      </trkpt>
      <trkpt lat="42.586674000" lon="-2.452001000">
        <ele>767.10</ele>
        <time>2016-10-15T06:59:42Z</time>
      </trkpt>
      <trkpt lat="42.586713000" lon="-2.452032000">
        <ele>767.30</ele>
        <time>2016-10-15T06:59:44Z</time>
      </trkpt>
      <trkpt lat="42.586732000" lon="-2.452046000">
        <ele>767.40</ele>
        <time>2016-10-15T06:59:45Z</time>
      </trkpt>
      <trkpt lat="42.586754000" lon="-2.452062000">
        <ele>767.40</ele>
        <time>2016-10-15T06:59:46Z</time>
      </trkpt>
      <trkpt lat="42.586771000" lon="-2.452077000">
        <ele>767.50</ele>
        <time>2016-10-15T06:59:47Z</time>
      </trkpt>
      <trkpt lat="42.586790000" lon="-2.452088000">
        <ele>767.50</ele>
        <time>2016-10-15T06:59:48Z</time>
      </trkpt>
      <trkpt lat="42.586809000" lon="-2.452099000">
        <ele>767.50</ele>
        <time>2016-10-15T06:59:49Z</time>
      </trkpt>
      <trkpt lat="42.586830000" lon="-2.452113000">
        <ele>767.40</ele>
        <time>2016-10-15T06:59:50Z</time>
      </trkpt>
      <trkpt lat="42.586847000" lon="-2.452130000">
        <ele>767.30</ele>
        <time>2016-10-15T06:59:51Z</time>
      </trkpt>
      <trkpt lat="42.586866000" lon="-2.452147000">
        <ele>767.20</ele>
        <time>2016-10-15T06:59:52Z</time>
      </trkpt>
      <trkpt lat="42.586888000" lon="-2.452169000">
        <ele>767.20</ele>
        <time>2016-10-15T06:59:53Z</time>
      </trkpt>
      <trkpt lat="42.586910000" lon="-2.452188000">
        <ele>767.10</ele>
        <time>2016-10-15T06:59:54Z</time>
      </trkpt>
      <trkpt lat="42.586933000" lon="-2.452209000">
        <ele>767.00</ele>
        <time>2016-10-15T06:59:55Z</time>
      </trkpt>
      <trkpt lat="42.586957000" lon="-2.452227000">
        <ele>767.00</ele>
        <time>2016-10-15T06:59:56Z</time>
      </trkpt>
      <trkpt lat="42.586980000" lon="-2.452249000">
        <ele>766.90</ele>
        <time>2016-10-15T06:59:57Z</time>
      </trkpt>
      <trkpt lat="42.587003000" lon="-2.452271000">
        <ele>766.90</ele>
        <time>2016-10-15T06:59:58Z</time>
      </trkpt>
      <trkpt lat="42.587027000" lon="-2.452293000">
        <ele>767.00</ele>
        <time>2016-10-15T06:59:59Z</time>
      </trkpt>
      <trkpt lat="42.587050000" lon="-2.452316000">
        <ele>767.00</ele>
        <time>2016-10-15T07:00:00Z</time>
      </trkpt>
      <trkpt lat="42.587073000" lon="-2.452341000">
        <ele>767.00</ele>
        <time>2016-10-15T07:00:01Z</time>
      </trkpt>
      <trkpt lat="42.587095000" lon="-2.452363000">
        <ele>767.00</ele>
        <time>2016-10-15T07:00:02Z</time>
      </trkpt>
      <trkpt lat="42.587120000" lon="-2.452388000">
        <ele>767.00</ele>
        <time>2016-10-15T07:00:03Z</time>
      </trkpt>
      <trkpt lat="42.587144000" lon="-2.452416000">
        <ele>767.00</ele>
        <time>2016-10-15T07:00:04Z</time>
      </trkpt>
      <trkpt lat="42.587175000" lon="-2.452435000">
        <ele>767.00</ele>
        <time>2016-10-15T07:00:05Z</time>
      </trkpt>
      <trkpt lat="42.587200000" lon="-2.452456000">
        <ele>767.00</ele>
        <time>2016-10-15T07:00:06Z</time>
      </trkpt>
      <trkpt lat="42.587222000" lon="-2.452482000">
        <ele>767.00</ele>
        <time>2016-10-15T07:00:07Z</time>
      </trkpt>
      <trkpt lat="42.587246000" lon="-2.452505000">
        <ele>767.00</ele>
        <time>2016-10-15T07:00:08Z</time>
      </trkpt>
      <trkpt lat="42.587272000" lon="-2.452529000">
        <ele>767.00</ele>
        <time>2016-10-15T07:00:09Z</time>
      </trkpt>
      <trkpt lat="42.587296000" lon="-2.452548000">
        <ele>767.10</ele>
        <time>2016-10-15T07:00:10Z</time>
      </trkpt>
      <trkpt lat="42.587321000" lon="-2.452571000">
        <ele>767.20</ele>
        <time>2016-10-15T07:00:11Z</time>
      </trkpt>
      <trkpt lat="42.587347000" lon="-2.452593000">
        <ele>767.10</ele>
        <time>2016-10-15T07:00:12Z</time>
      </trkpt>
      <trkpt lat="42.587374000" lon="-2.452620000">
        <ele>767.10</ele>
        <time>2016-10-15T07:00:13Z</time>
      </trkpt>
      <trkpt lat="42.587403000" lon="-2.452648000">
        <ele>767.10</ele>
        <time>2016-10-15T07:00:14Z</time>
      </trkpt>
      <trkpt lat="42.587431000" lon="-2.452670000">
        <ele>767.20</ele>
        <time>2016-10-15T07:00:15Z</time>
      </trkpt>
      <trkpt lat="42.587457000" lon="-2.452692000">
        <ele>767.10</ele>
        <time>2016-10-15T07:00:16Z</time>
      </trkpt>
      <trkpt lat="42.587487000" lon="-2.452717000">
        <ele>767.10</ele>
        <time>2016-10-15T07:00:17Z</time>
      </trkpt>
      <trkpt lat="42.587516000" lon="-2.452740000">
        <ele>767.00</ele>
        <time>2016-10-15T07:00:18Z</time>
      </trkpt>
      <trkpt lat="42.587542000" lon="-2.452763000">
        <ele>767.00</ele>
        <time>2016-10-15T07:00:19Z</time>
      </trkpt>
      <trkpt lat="42.587569000" lon="-2.452789000">
        <ele>767.00</ele>
        <time>2016-10-15T07:00:20Z</time>
      </trkpt>
      <trkpt lat="42.587595000" lon="-2.452814000">
        <ele>766.90</ele>
        <time>2016-10-15T07:00:21Z</time>
      </trkpt>
      <trkpt lat="42.587621000" lon="-2.452840000">
        <ele>767.00</ele>
        <time>2016-10-15T07:00:22Z</time>
      </trkpt>
      <trkpt lat="42.587646000" lon="-2.452865000">
        <ele>767.00</ele>
        <time>2016-10-15T07:00:23Z</time>
      </trkpt>
      <trkpt lat="42.587671000" lon="-2.452890000">
        <ele>767.10</ele>
        <time>2016-10-15T07:00:24Z</time>
      </trkpt>
      <trkpt lat="42.587697000" lon="-2.452917000">
        <ele>767.20</ele>
        <time>2016-10-15T07:00:25Z</time>
      </trkpt>
      <trkpt lat="42.587721000" lon="-2.452943000">
        <ele>767.20</ele>
        <time>2016-10-15T07:00:26Z</time>
      </trkpt>
      <trkpt lat="42.587745000" lon="-2.452966000">
        <ele>767.30</ele>
        <time>2016-10-15T07:00:27Z</time>
      </trkpt>
      <trkpt lat="42.587768000" lon="-2.452991000">
        <ele>767.40</ele>
        <time>2016-10-15T07:00:28Z</time>
      </trkpt>
      <trkpt lat="42.587791000" lon="-2.453017000">
        <ele>767.50</ele>
        <time>2016-10-15T07:00:29Z</time>
      </trkpt>
      <trkpt lat="42.587813000" lon="-2.453040000">
        <ele>767.60</ele>
        <time>2016-10-15T07:00:30Z</time>
      </trkpt>
      <trkpt lat="42.587837000" lon="-2.453062000">
        <ele>767.80</ele>
        <time>2016-10-15T07:00:31Z</time>
      </trkpt>
      <trkpt lat="42.587862000" lon="-2.453086000">
        <ele>767.80</ele>
        <time>2016-10-15T07:00:32Z</time>
      </trkpt>
      <trkpt lat="42.587889000" lon="-2.453109000">
        <ele>767.70</ele>
        <time>2016-10-15T07:00:33Z</time>
      </trkpt>
      <trkpt lat="42.587913000" lon="-2.453126000">
        <ele>767.90</ele>
        <time>2016-10-15T07:00:34Z</time>
      </trkpt>
      <trkpt lat="42.587937000" lon="-2.453147000">
        <ele>768.10</ele>
        <time>2016-10-15T07:00:35Z</time>
      </trkpt>
      <trkpt lat="42.587964000" lon="-2.453167000">
        <ele>768.00</ele>
        <time>2016-10-15T07:00:36Z</time>
      </trkpt>
      <trkpt lat="42.587990000" lon="-2.453189000">
        <ele>767.90</ele>
        <time>2016-10-15T07:00:37Z</time>
      </trkpt>
      <trkpt lat="42.588015000" lon="-2.453213000">
        <ele>768.10</ele>
        <time>2016-10-15T07:00:38Z</time>
      </trkpt>
      <trkpt lat="42.588040000" lon="-2.453236000">
        <ele>768.20</ele>
        <time>2016-10-15T07:00:39Z</time>
      </trkpt>
      <trkpt lat="42.588065000" lon="-2.453256000">
        <ele>768.20</ele>
        <time>2016-10-15T07:00:40Z</time>
      </trkpt>
      <trkpt lat="42.588091000" lon="-2.453274000">
        <ele>768.20</ele>
        <time>2016-10-15T07:00:41Z</time>
      </trkpt>
      <trkpt lat="42.588119000" lon="-2.453291000">
        <ele>768.20</ele>
        <time>2016-10-15T07:00:42Z</time>
      </trkpt>
      <trkpt lat="42.588146000" lon="-2.453309000">
        <ele>768.20</ele>
        <time>2016-10-15T07:00:43Z</time>
      </trkpt>
      <trkpt lat="42.588173000" lon="-2.453321000">
        <ele>768.20</ele>
        <time>2016-10-15T07:00:44Z</time>
      </trkpt>
      <trkpt lat="42.588229000" lon="-2.453348000">
        <ele>768.40</ele>
        <time>2016-10-15T07:00:46Z</time>
      </trkpt>
      <trkpt lat="42.588258000" lon="-2.453361000">
        <ele>768.60</ele>
        <time>2016-10-15T07:00:47Z</time>
      </trkpt>
      <trkpt lat="42.588285000" lon="-2.453372000">
        <ele>768.80</ele>
        <time>2016-10-15T07:00:48Z</time>
      </trkpt>
      <trkpt lat="42.588312000" lon="-2.453381000">
        <ele>769.00</ele>
        <time>2016-10-15T07:00:49Z</time>
      </trkpt>
      <trkpt lat="42.588339000" lon="-2.453391000">
        <ele>769.10</ele>
        <time>2016-10-15T07:00:50Z</time>
      </trkpt>
      <trkpt lat="42.588369000" lon="-2.453404000">
        <ele>769.20</ele>
        <time>2016-10-15T07:00:51Z</time>
      </trkpt>
      <trkpt lat="42.588399000" lon="-2.453413000">
        <ele>769.30</ele>
        <time>2016-10-15T07:00:52Z</time>
      </trkpt>
      <trkpt lat="42.588431000" lon="-2.453419000">
        <ele>769.30</ele>
        <time>2016-10-15T07:00:53Z</time>
      </trkpt>
      <trkpt lat="42.588460000" lon="-2.453427000">
        <ele>769.40</ele>
        <time>2016-10-15T07:00:54Z</time>
      </trkpt>
      <trkpt lat="42.588489000" lon="-2.453437000">
        <ele>769.40</ele>
        <time>2016-10-15T07:00:55Z</time>
      </trkpt>
      <trkpt lat="42.588512000" lon="-2.453440000">
        <ele>769.40</ele>
        <time>2016-10-15T07:00:56Z</time>
      </trkpt>
      <trkpt lat="42.588539000" lon="-2.453449000">
        <ele>769.40</ele>
        <time>2016-10-15T07:00:57Z</time>
      </trkpt>
      <trkpt lat="42.588571000" lon="-2.453457000">
        <ele>769.60</ele>
        <time>2016-10-15T07:00:58Z</time>
      </trkpt>
      <trkpt lat="42.588601000" lon="-2.453465000">
        <ele>769.70</ele>
        <time>2016-10-15T07:00:59Z</time>
      </trkpt>
      <trkpt lat="42.588628000" lon="-2.453470000">
        <ele>769.80</ele>
        <time>2016-10-15T07:01:00Z</time>
      </trkpt>
      <trkpt lat="42.588656000" lon="-2.453474000">
        <ele>769.90</ele>
        <time>2016-10-15T07:01:01Z</time>
      </trkpt>
      <trkpt lat="42.588682000" lon="-2.453484000">
        <ele>770.10</ele>
        <time>2016-10-15T07:01:02Z</time>
      </trkpt>
      <trkpt lat="42.588707000" lon="-2.453492000">
        <ele>770.20</ele>
        <time>2016-10-15T07:01:03Z</time>
      </trkpt>
      <trkpt lat="42.588736000" lon="-2.453497000">
        <ele>770.30</ele>
        <time>2016-10-15T07:01:04Z</time>
      </trkpt>
      <trkpt lat="42.588766000" lon="-2.453502000">
        <ele>770.40</ele>
        <time>2016-10-15T07:01:05Z</time>
      </trkpt>
      <trkpt lat="42.588796000" lon="-2.453511000">
        <ele>770.50</ele>
        <time>2016-10-15T07:01:06Z</time>
      </trkpt>
      <trkpt lat="42.588829000" lon="-2.453520000">
        <ele>770.70</ele>
        <time>2016-10-15T07:01:07Z</time>
      </trkpt>
      <trkpt lat="42.588859000" lon="-2.453532000">
        <ele>770.50</ele>
        <time>2016-10-15T07:01:08Z</time>
      </trkpt>
      <trkpt lat="42.588890000" lon="-2.453536000">
        <ele>770.40</ele>
        <time>2016-10-15T07:01:09Z</time>
      </trkpt>
      <trkpt lat="42.588917000" lon="-2.453540000">
        <ele>770.40</ele>
        <time>2016-10-15T07:01:10Z</time>
      </trkpt>
      <trkpt lat="42.588942000" lon="-2.453549000">
        <ele>770.50</ele>
        <time>2016-10-15T07:01:11Z</time>
      </trkpt>
      <trkpt lat="42.588974000" lon="-2.453559000">
        <ele>770.50</ele>
        <time>2016-10-15T07:01:12Z</time>
      </trkpt>
      <trkpt lat="42.589008000" lon="-2.453573000">
        <ele>770.50</ele>
        <time>2016-10-15T07:01:13Z</time>
      </trkpt>
      <trkpt lat="42.589039000" lon="-2.453581000">
        <ele>770.50</ele>
        <time>2016-10-15T07:01:14Z</time>
      </trkpt>
      <trkpt lat="42.589067000" lon="-2.453589000">
        <ele>770.50</ele>
        <time>2016-10-15T07:01:15Z</time>
      </trkpt>
      <trkpt lat="42.589103000" lon="-2.453600000">
        <ele>770.50</ele>
        <time>2016-10-15T07:01:16Z</time>
      </trkpt>
      <trkpt lat="42.589137000" lon="-2.453605000">
        <ele>770.40</ele>
        <time>2016-10-15T07:01:17Z</time>
      </trkpt>
      <trkpt lat="42.589170000" lon="-2.453614000">
        <ele>770.40</ele>
        <time>2016-10-15T07:01:18Z</time>
      </trkpt>
      <trkpt lat="42.589207000" lon="-2.453620000">
        <ele>770.40</ele>
        <time>2016-10-15T07:01:19Z</time>
      </trkpt>
      <trkpt lat="42.589236000" lon="-2.453629000">
        <ele>770.40</ele>
        <time>2016-10-15T07:01:20Z</time>
      </trkpt>
      <trkpt lat="42.589268000" lon="-2.453635000">
        <ele>770.40</ele>
        <time>2016-10-15T07:01:21Z</time>
      </trkpt>
      <trkpt lat="42.589300000" lon="-2.453643000">
        <ele>770.50</ele>
        <time>2016-10-15T07:01:22Z</time>
      </trkpt>
      <trkpt lat="42.589329000" lon="-2.453647000">
        <ele>770.50</ele>
        <time>2016-10-15T07:01:23Z</time>
      </trkpt>
      <trkpt lat="42.589361000" lon="-2.453656000">
        <ele>770.40</ele>
        <time>2016-10-15T07:01:24Z</time>
      </trkpt>
      <trkpt lat="42.589389000" lon="-2.453660000">
        <ele>770.30</ele>
        <time>2016-10-15T07:01:25Z</time>
      </trkpt>
      <trkpt lat="42.589416000" lon="-2.453665000">
        <ele>770.20</ele>
        <time>2016-10-15T07:01:26Z</time>
      </trkpt>
      <trkpt lat="42.589446000" lon="-2.453675000">
        <ele>770.20</ele>
        <time>2016-10-15T07:01:27Z</time>
      </trkpt>
      <trkpt lat="42.589473000" lon="-2.453685000">
        <ele>770.30</ele>
        <time>2016-10-15T07:01:28Z</time>
      </trkpt>
      <trkpt lat="42.589502000" lon="-2.453694000">
        <ele>770.50</ele>
        <time>2016-10-15T07:01:29Z</time>
      </trkpt>
      <trkpt lat="42.589532000" lon="-2.453696000">
        <ele>770.50</ele>
        <time>2016-10-15T07:01:30Z</time>
      </trkpt>
      <trkpt lat="42.589564000" lon="-2.453708000">
        <ele>770.60</ele>
        <time>2016-10-15T07:01:31Z</time>
      </trkpt>
      <trkpt lat="42.589594000" lon="-2.453717000">
        <ele>770.50</ele>
        <time>2016-10-15T07:01:32Z</time>
      </trkpt>
      <trkpt lat="42.589626000" lon="-2.453731000">
        <ele>770.50</ele>
        <time>2016-10-15T07:01:33Z</time>
      </trkpt>
      <trkpt lat="42.589661000" lon="-2.453745000">
        <ele>770.40</ele>
        <time>2016-10-15T07:01:34Z</time>
      </trkpt>
      <trkpt lat="42.589695000" lon="-2.453756000">
        <ele>770.40</ele>
        <time>2016-10-15T07:01:35Z</time>
      </trkpt>
      <trkpt lat="42.589727000" lon="-2.453769000">
        <ele>770.50</ele>
        <time>2016-10-15T07:01:36Z</time>
      </trkpt>
      <trkpt lat="42.589758000" lon="-2.453782000">
        <ele>770.60</ele>
        <time>2016-10-15T07:01:37Z</time>
      </trkpt>
      <trkpt lat="42.589792000" lon="-2.453794000">
        <ele>770.70</ele>
        <time>2016-10-15T07:01:38Z</time>
      </trkpt>
      <trkpt lat="42.589823000" lon="-2.453804000">
        <ele>770.80</ele>
        <time>2016-10-15T07:01:39Z</time>
      </trkpt>
      <trkpt lat="42.589857000" lon="-2.453815000">
        <ele>770.90</ele>
        <time>2016-10-15T07:01:40Z</time>
      </trkpt>
      <trkpt lat="42.589888000" lon="-2.453826000">
        <ele>771.00</ele>
        <time>2016-10-15T07:01:41Z</time>
      </trkpt>
      <trkpt lat="42.589917000" lon="-2.453837000">
        <ele>771.10</ele>
        <time>2016-10-15T07:01:42Z</time>
      </trkpt>
      <trkpt lat="42.589949000" lon="-2.453852000">
        <ele>771.20</ele>
        <time>2016-10-15T07:01:43Z</time>
      </trkpt>
      <trkpt lat="42.589980000" lon="-2.453859000">
        <ele>771.20</ele>
        <time>2016-10-15T07:01:44Z</time>
      </trkpt>
      <trkpt lat="42.590011000" lon="-2.453868000">
        <ele>771.20</ele>
        <time>2016-10-15T07:01:45Z</time>
      </trkpt>
      <trkpt lat="42.590042000" lon="-2.453876000">
        <ele>771.20</ele>
        <time>2016-10-15T07:01:46Z</time>
      </trkpt>
      <trkpt lat="42.590103000" lon="-2.453895000">
        <ele>771.10</ele>
        <time>2016-10-15T07:01:48Z</time>
      </trkpt>
      <trkpt lat="42.590136000" lon="-2.453903000">
        <ele>771.20</ele>
        <time>2016-10-15T07:01:49Z</time>
      </trkpt>
      <trkpt lat="42.590165000" lon="-2.453910000">
        <ele>771.30</ele>
        <time>2016-10-15T07:01:50Z</time>
      </trkpt>
      <trkpt lat="42.590194000" lon="-2.453922000">
        <ele>771.40</ele>
        <time>2016-10-15T07:01:51Z</time>
      </trkpt>
      <trkpt lat="42.590222000" lon="-2.453930000">
        <ele>771.50</ele>
        <time>2016-10-15T07:01:52Z</time>
      </trkpt>
      <trkpt lat="42.590249000" lon="-2.453936000">
        <ele>771.50</ele>
        <time>2016-10-15T07:01:53Z</time>
      </trkpt>
      <trkpt lat="42.590275000" lon="-2.453945000">
        <ele>771.50</ele>
        <time>2016-10-15T07:01:54Z</time>
      </trkpt>
      <trkpt lat="42.590298000" lon="-2.453946000">
        <ele>771.50</ele>
        <time>2016-10-15T07:01:55Z</time>
      </trkpt>
      <trkpt lat="42.590323000" lon="-2.453955000">
        <ele>771.50</ele>
        <time>2016-10-15T07:01:56Z</time>
      </trkpt>
      <trkpt lat="42.590347000" lon="-2.453957000">
        <ele>771.50</ele>
        <time>2016-10-15T07:01:57Z</time>
      </trkpt>
      <trkpt lat="42.590369000" lon="-2.453969000">
        <ele>771.50</ele>
        <time>2016-10-15T07:01:58Z</time>
      </trkpt>
      <trkpt lat="42.590395000" lon="-2.453975000">
        <ele>771.50</ele>
        <time>2016-10-15T07:01:59Z</time>
      </trkpt>
      <trkpt lat="42.590420000" lon="-2.453980000">
        <ele>771.50</ele>
        <time>2016-10-15T07:02:00Z</time>
      </trkpt>
      <trkpt lat="42.590445000" lon="-2.453982000">
        <ele>771.60</ele>
        <time>2016-10-15T07:02:01Z</time>
      </trkpt>
      <trkpt lat="42.590469000" lon="-2.453990000">
        <ele>771.60</ele>
        <time>2016-10-15T07:02:02Z</time>
      </trkpt>
      <trkpt lat="42.590492000" lon="-2.453998000">
        <ele>771.60</ele>
        <time>2016-10-15T07:02:03Z</time>
      </trkpt>
      <trkpt lat="42.590517000" lon="-2.454006000">
        <ele>771.70</ele>
        <time>2016-10-15T07:02:04Z</time>
      </trkpt>
      <trkpt lat="42.590538000" lon="-2.454011000">
        <ele>771.70</ele>
        <time>2016-10-15T07:02:05Z</time>
      </trkpt>
      <trkpt lat="42.590564000" lon="-2.454019000">
        <ele>771.70</ele>
        <time>2016-10-15T07:02:06Z</time>
      </trkpt>
      <trkpt lat="42.590588000" lon="-2.454026000">
        <ele>771.80</ele>
        <time>2016-10-15T07:02:07Z</time>
      </trkpt>
      <trkpt lat="42.590611000" lon="-2.454035000">
        <ele>771.80</ele>
        <time>2016-10-15T07:02:08Z</time>
      </trkpt>
      <trkpt lat="42.590633000" lon="-2.454040000">
        <ele>771.90</ele>
        <time>2016-10-15T07:02:09Z</time>
      </trkpt>
      <trkpt lat="42.590655000" lon="-2.454042000">
        <ele>771.90</ele>
        <time>2016-10-15T07:02:10Z</time>
      </trkpt>
      <trkpt lat="42.590680000" lon="-2.454049000">
        <ele>772.00</ele>
        <time>2016-10-15T07:02:11Z</time>
      </trkpt>
      <trkpt lat="42.590704000" lon="-2.454052000">
        <ele>772.00</ele>
        <time>2016-10-15T07:02:12Z</time>
      </trkpt>
      <trkpt lat="42.590725000" lon="-2.454063000">
        <ele>772.00</ele>
        <time>2016-10-15T07:02:13Z</time>
      </trkpt>
      <trkpt lat="42.590746000" lon="-2.454071000">
        <ele>772.30</ele>
        <time>2016-10-15T07:02:14Z</time>
      </trkpt>
      <trkpt lat="42.590768000" lon="-2.454077000">
        <ele>772.50</ele>
        <time>2016-10-15T07:02:15Z</time>
      </trkpt>
      <trkpt lat="42.590791000" lon="-2.454085000">
        <ele>772.70</ele>
        <time>2016-10-15T07:02:16Z</time>
      </trkpt>
      <trkpt lat="42.590807000" lon="-2.454097000">
        <ele>772.80</ele>
        <time>2016-10-15T07:02:17Z</time>
      </trkpt>
      <trkpt lat="42.590829000" lon="-2.454103000">
        <ele>772.70</ele>
        <time>2016-10-15T07:02:18Z</time>
      </trkpt>
      <trkpt lat="42.590851000" lon="-2.454106000">
        <ele>772.60</ele>
        <time>2016-10-15T07:02:19Z</time>
      </trkpt>
      <trkpt lat="42.590873000" lon="-2.454112000">
        <ele>772.50</ele>
        <time>2016-10-15T07:02:20Z</time>
      </trkpt>
      <trkpt lat="42.590891000" lon="-2.454119000">
        <ele>772.50</ele>
        <time>2016-10-15T07:02:21Z</time>
      </trkpt>
      <trkpt lat="42.590915000" lon="-2.454124000">
        <ele>772.50</ele>
        <time>2016-10-15T07:02:22Z</time>
      </trkpt>
      <trkpt lat="42.590935000" lon="-2.454129000">
        <ele>772.50</ele>
        <time>2016-10-15T07:02:23Z</time>
      </trkpt>
      <trkpt lat="42.590955000" lon="-2.454138000">
        <ele>772.50</ele>
        <time>2016-10-15T07:02:24Z</time>
      </trkpt>
      <trkpt lat="42.590976000" lon="-2.454146000">
        <ele>772.50</ele>
        <time>2016-10-15T07:02:25Z</time>
      </trkpt>
      <trkpt lat="42.590997000" lon="-2.454144000">
        <ele>772.70</ele>
        <time>2016-10-15T07:02:26Z</time>
      </trkpt>
      <trkpt lat="42.591015000" lon="-2.454145000">
        <ele>772.90</ele>
        <time>2016-10-15T07:02:27Z</time>
      </trkpt>
      <trkpt lat="42.591035000" lon="-2.454154000">
        <ele>773.10</ele>
        <time>2016-10-15T07:02:28Z</time>
      </trkpt>
      <trkpt lat="42.591055000" lon="-2.454164000">
        <ele>773.20</ele>
        <time>2016-10-15T07:02:29Z</time>
      </trkpt>
      <trkpt lat="42.591075000" lon="-2.454170000">
        <ele>773.30</ele>
        <time>2016-10-15T07:02:30Z</time>
      </trkpt>
      <trkpt lat="42.591097000" lon="-2.454180000">
        <ele>773.40</ele>
        <time>2016-10-15T07:02:31Z</time>
      </trkpt>
      <trkpt lat="42.591120000" lon="-2.454186000">
        <ele>773.60</ele>
        <time>2016-10-15T07:02:32Z</time>
      </trkpt>
      <trkpt lat="42.591141000" lon="-2.454194000">
        <ele>773.70</ele>
        <time>2016-10-15T07:02:33Z</time>
      </trkpt>
      <trkpt lat="42.591162000" lon="-2.454199000">
        <ele>773.70</ele>
        <time>2016-10-15T07:02:34Z</time>
      </trkpt>
      <trkpt lat="42.591183000" lon="-2.454205000">
        <ele>773.70</ele>
        <time>2016-10-15T07:02:35Z</time>
      </trkpt>
      <trkpt lat="42.591204000" lon="-2.454214000">
        <ele>773.70</ele>
        <time>2016-10-15T07:02:36Z</time>
      </trkpt>
      <trkpt lat="42.591224000" lon="-2.454218000">
        <ele>773.60</ele>
        <time>2016-10-15T07:02:37Z</time>
      </trkpt>
      <trkpt lat="42.591245000" lon="-2.454222000">
        <ele>773.60</ele>
        <time>2016-10-15T07:02:38Z</time>
      </trkpt>
      <trkpt lat="42.591265000" lon="-2.454226000">
        <ele>773.60</ele>
        <time>2016-10-15T07:02:39Z</time>
      </trkpt>
      <trkpt lat="42.591287000" lon="-2.454233000">
        <ele>773.80</ele>
        <time>2016-10-15T07:02:40Z</time>
      </trkpt>
      <trkpt lat="42.591309000" lon="-2.454239000">
        <ele>773.90</ele>
        <time>2016-10-15T07:02:41Z</time>
      </trkpt>
      <trkpt lat="42.591332000" lon="-2.454245000">
        <ele>774.10</ele>
        <time>2016-10-15T07:02:42Z</time>
      </trkpt>
      <trkpt lat="42.591357000" lon="-2.454252000">
        <ele>774.20</ele>
        <time>2016-10-15T07:02:43Z</time>
      </trkpt>
      <trkpt lat="42.591379000" lon="-2.454251000">
        <ele>774.20</ele>
        <time>2016-10-15T07:02:44Z</time>
      </trkpt>
      <trkpt lat="42.591400000" lon="-2.454256000">
        <ele>774.30</ele>
        <time>2016-10-15T07:02:45Z</time>
      </trkpt>
      <trkpt lat="42.591425000" lon="-2.454259000">
        <ele>774.20</ele>
        <time>2016-10-15T07:02:46Z</time>
      </trkpt>
      <trkpt lat="42.591450000" lon="-2.454266000">
        <ele>774.20</ele>
        <time>2016-10-15T07:02:47Z</time>
      </trkpt>
      <trkpt lat="42.591497000" lon="-2.454279000">
        <ele>774.10</ele>
        <time>2016-10-15T07:02:49Z</time>
      </trkpt>
      <trkpt lat="42.591519000" lon="-2.454285000">
        <ele>774.40</ele>
        <time>2016-10-15T07:02:50Z</time>
      </trkpt>
      <trkpt lat="42.591541000" lon="-2.454290000">
        <ele>774.60</ele>
        <time>2016-10-15T07:02:51Z</time>
      </trkpt>
      <trkpt lat="42.591564000" lon="-2.454294000">
        <ele>774.70</ele>
        <time>2016-10-15T07:02:52Z</time>
      </trkpt>
      <trkpt lat="42.591587000" lon="-2.454297000">
        <ele>774.80</ele>
        <time>2016-10-15T07:02:53Z</time>
      </trkpt>
      <trkpt lat="42.591611000" lon="-2.454308000">
        <ele>774.60</ele>
        <time>2016-10-15T07:02:54Z</time>
      </trkpt>
      <trkpt lat="42.591639000" lon="-2.454317000">
        <ele>774.40</ele>
        <time>2016-10-15T07:02:55Z</time>
      </trkpt>
      <trkpt lat="42.591662000" lon="-2.454322000">
        <ele>774.30</ele>
        <time>2016-10-15T07:02:56Z</time>
      </trkpt>
      <trkpt lat="42.591685000" lon="-2.454331000">
        <ele>774.20</ele>
        <time>2016-10-15T07:02:57Z</time>
      </trkpt>
      <trkpt lat="42.591710000" lon="-2.454338000">
        <ele>774.20</ele>
        <time>2016-10-15T07:02:58Z</time>
      </trkpt>
      <trkpt lat="42.591736000" lon="-2.454347000">
        <ele>774.20</ele>
        <time>2016-10-15T07:02:59Z</time>
      </trkpt>
      <trkpt lat="42.591760000" lon="-2.454355000">
        <ele>774.30</ele>
        <time>2016-10-15T07:03:00Z</time>
      </trkpt>
      <trkpt lat="42.591784000" lon="-2.454360000">
        <ele>774.40</ele>
        <time>2016-10-15T07:03:01Z</time>
      </trkpt>
      <trkpt lat="42.591807000" lon="-2.454367000">
        <ele>774.50</ele>
        <time>2016-10-15T07:03:02Z</time>
      </trkpt>
      <trkpt lat="42.591829000" lon="-2.454373000">
        <ele>774.60</ele>
        <time>2016-10-15T07:03:03Z</time>
      </trkpt>
      <trkpt lat="42.591852000" lon="-2.454377000">
        <ele>774.70</ele>
        <time>2016-10-15T07:03:04Z</time>
      </trkpt>
      <trkpt lat="42.591876000" lon="-2.454386000">
        <ele>774.80</ele>
        <time>2016-10-15T07:03:05Z</time>
      </trkpt>
      <trkpt lat="42.591896000" lon="-2.454391000">
        <ele>774.90</ele>
        <time>2016-10-15T07:03:06Z</time>
      </trkpt>
      <trkpt lat="42.591918000" lon="-2.454400000">
        <ele>774.90</ele>
        <time>2016-10-15T07:03:07Z</time>
      </trkpt>
      <trkpt lat="42.591939000" lon="-2.454405000">
        <ele>774.90</ele>
        <time>2016-10-15T07:03:08Z</time>
      </trkpt>
      <trkpt lat="42.591961000" lon="-2.454408000">
        <ele>775.00</ele>
        <time>2016-10-15T07:03:09Z</time>
      </trkpt>
      <trkpt lat="42.591983000" lon="-2.454412000">
        <ele>775.00</ele>
        <time>2016-10-15T07:03:10Z</time>
      </trkpt>
      <trkpt lat="42.592007000" lon="-2.454419000">
        <ele>775.00</ele>
        <time>2016-10-15T07:03:11Z</time>
      </trkpt>
      <trkpt lat="42.592029000" lon="-2.454428000">
        <ele>775.00</ele>
        <time>2016-10-15T07:03:12Z</time>
      </trkpt>
      <trkpt lat="42.592050000" lon="-2.454433000">
        <ele>775.00</ele>
        <time>2016-10-15T07:03:13Z</time>
      </trkpt>
      <trkpt lat="42.592074000" lon="-2.454443000">
        <ele>775.30</ele>
        <time>2016-10-15T07:03:14Z</time>
      </trkpt>
      <trkpt lat="42.592097000" lon="-2.454449000">
        <ele>775.50</ele>
        <time>2016-10-15T07:03:15Z</time>
      </trkpt>
      <trkpt lat="42.592123000" lon="-2.454459000">
        <ele>775.70</ele>
        <time>2016-10-15T07:03:16Z</time>
      </trkpt>
      <trkpt lat="42.592145000" lon="-2.454466000">
        <ele>775.80</ele>
        <time>2016-10-15T07:03:17Z</time>
      </trkpt>
      <trkpt lat="42.592168000" lon="-2.454475000">
        <ele>775.90</ele>
        <time>2016-10-15T07:03:18Z</time>
      </trkpt>
      <trkpt lat="42.592187000" lon="-2.454478000">
        <ele>776.00</ele>
        <time>2016-10-15T07:03:19Z</time>
      </trkpt>
      <trkpt lat="42.592208000" lon="-2.454488000">
        <ele>776.00</ele>
        <time>2016-10-15T07:03:20Z</time>
      </trkpt>
      <trkpt lat="42.592232000" lon="-2.454490000">
        <ele>776.10</ele>
        <time>2016-10-15T07:03:21Z</time>
      </trkpt>
      <trkpt lat="42.592253000" lon="-2.454497000">
        <ele>776.10</ele>
        <time>2016-10-15T07:03:22Z</time>
      </trkpt>
      <trkpt lat="42.592275000" lon="-2.454498000">
        <ele>776.20</ele>
        <time>2016-10-15T07:03:23Z</time>
      </trkpt>
      <trkpt lat="42.592292000" lon="-2.454504000">
        <ele>776.20</ele>
        <time>2016-10-15T07:03:24Z</time>
      </trkpt>
      <trkpt lat="42.592311000" lon="-2.454510000">
        <ele>776.20</ele>
        <time>2016-10-15T07:03:25Z</time>
      </trkpt>
      <trkpt lat="42.592332000" lon="-2.454515000">
        <ele>776.40</ele>
        <time>2016-10-15T07:03:26Z</time>
      </trkpt>
      <trkpt lat="42.592353000" lon="-2.454518000">
        <ele>776.50</ele>
        <time>2016-10-15T07:03:27Z</time>
      </trkpt>
      <trkpt lat="42.592372000" lon="-2.454521000">
        <ele>776.80</ele>
        <time>2016-10-15T07:03:28Z</time>
      </trkpt>
      <trkpt lat="42.592389000" lon="-2.454525000">
        <ele>777.10</ele>
        <time>2016-10-15T07:03:29Z</time>
      </trkpt>
      <trkpt lat="42.592406000" lon="-2.454532000">
        <ele>777.30</ele>
        <time>2016-10-15T07:03:30Z</time>
      </trkpt>
      <trkpt lat="42.592427000" lon="-2.454533000">
        <ele>777.50</ele>
        <time>2016-10-15T07:03:31Z</time>
      </trkpt>
      <trkpt lat="42.592441000" lon="-2.454533000">
        <ele>777.60</ele>
        <time>2016-10-15T07:03:32Z</time>
      </trkpt>
      <trkpt lat="42.592455000" lon="-2.454532000">
        <ele>777.70</ele>
        <time>2016-10-15T07:03:33Z</time>
      </trkpt>
      <trkpt lat="42.592468000" lon="-2.454539000">
        <ele>777.80</ele>
        <time>2016-10-15T07:03:34Z</time>
      </trkpt>
      <trkpt lat="42.592482000" lon="-2.454553000">
        <ele>777.80</ele>
        <time>2016-10-15T07:03:35Z</time>
      </trkpt>
      <trkpt lat="42.592504000" lon="-2.454554000">
        <ele>777.90</ele>
        <time>2016-10-15T07:03:36Z</time>
      </trkpt>
      <trkpt lat="42.592526000" lon="-2.454559000">
        <ele>778.00</ele>
        <time>2016-10-15T07:03:37Z</time>
      </trkpt>
      <trkpt lat="42.592549000" lon="-2.454570000">
        <ele>778.00</ele>
        <time>2016-10-15T07:03:38Z</time>
      </trkpt>
      <trkpt lat="42.592573000" lon="-2.454573000">
        <ele>778.10</ele>
        <time>2016-10-15T07:03:39Z</time>
      </trkpt>
      <trkpt lat="42.592597000" lon="-2.454581000">
        <ele>778.20</ele>
        <time>2016-10-15T07:03:40Z</time>
      </trkpt>
      <trkpt lat="42.592622000" lon="-2.454588000">
        <ele>778.40</ele>
        <time>2016-10-15T07:03:41Z</time>
      </trkpt>
      <trkpt lat="42.592644000" lon="-2.454599000">
        <ele>778.50</ele>
        <time>2016-10-15T07:03:42Z</time>
      </trkpt>
      <trkpt lat="42.592665000" lon="-2.454608000">
        <ele>778.50</ele>
        <time>2016-10-15T07:03:43Z</time>
      </trkpt>
      <trkpt lat="42.592685000" lon="-2.454616000">
        <ele>778.60</ele>
        <time>2016-10-15T07:03:44Z</time>
      </trkpt>
      <trkpt lat="42.592707000" lon="-2.454622000">
        <ele>778.70</ele>
        <time>2016-10-15T07:03:45Z</time>
      </trkpt>
      <trkpt lat="42.592727000" lon="-2.454627000">
        <ele>779.00</ele>
        <time>2016-10-15T07:03:46Z</time>
      </trkpt>
      <trkpt lat="42.592744000" lon="-2.454633000">
        <ele>779.20</ele>
        <time>2016-10-15T07:03:47Z</time>
      </trkpt>
      <trkpt lat="42.592760000" lon="-2.454637000">
        <ele>779.60</ele>
        <time>2016-10-15T07:03:48Z</time>
      </trkpt>
      <trkpt lat="42.592793000" lon="-2.454645000">
        <ele>780.10</ele>
        <time>2016-10-15T07:03:50Z</time>
      </trkpt>
      <trkpt lat="42.592811000" lon="-2.454653000">
        <ele>780.20</ele>
        <time>2016-10-15T07:03:51Z</time>
      </trkpt>
      <trkpt lat="42.592830000" lon="-2.454659000">
        <ele>780.40</ele>
        <time>2016-10-15T07:03:52Z</time>
      </trkpt>
      <trkpt lat="42.592848000" lon="-2.454664000">
        <ele>780.50</ele>
        <time>2016-10-15T07:03:53Z</time>
      </trkpt>
      <trkpt lat="42.592867000" lon="-2.454671000">
        <ele>780.70</ele>
        <time>2016-10-15T07:03:54Z</time>
      </trkpt>
      <trkpt lat="42.592883000" lon="-2.454671000">
        <ele>780.80</ele>
        <time>2016-10-15T07:03:55Z</time>
      </trkpt>
      <trkpt lat="42.592899000" lon="-2.454676000">
        <ele>781.00</ele>
        <time>2016-10-15T07:03:56Z</time>
      </trkpt>
      <trkpt lat="42.592918000" lon="-2.454682000">
        <ele>781.10</ele>
        <time>2016-10-15T07:03:57Z</time>
      </trkpt>
      <trkpt lat="42.592937000" lon="-2.454684000">
        <ele>781.30</ele>
        <time>2016-10-15T07:03:58Z</time>
      </trkpt>
      <trkpt lat="42.592956000" lon="-2.454689000">
        <ele>781.50</ele>
        <time>2016-10-15T07:03:59Z</time>
      </trkpt>
      <trkpt lat="42.592973000" lon="-2.454694000">
        <ele>781.80</ele>
        <time>2016-10-15T07:04:00Z</time>
      </trkpt>
      <trkpt lat="42.592989000" lon="-2.454702000">
        <ele>781.90</ele>
        <time>2016-10-15T07:04:01Z</time>
      </trkpt>
      <trkpt lat="42.593008000" lon="-2.454706000">
        <ele>782.10</ele>
        <time>2016-10-15T07:04:02Z</time>
      </trkpt>
      <trkpt lat="42.593022000" lon="-2.454710000">
        <ele>782.20</ele>
        <time>2016-10-15T07:04:03Z</time>
      </trkpt>
      <trkpt lat="42.593038000" lon="-2.454710000">
        <ele>782.40</ele>
        <time>2016-10-15T07:04:04Z</time>
      </trkpt>
      <trkpt lat="42.593054000" lon="-2.454712000">
        <ele>782.60</ele>
        <time>2016-10-15T07:04:05Z</time>
      </trkpt>
      <trkpt lat="42.593068000" lon="-2.454715000">
        <ele>782.90</ele>
        <time>2016-10-15T07:04:06Z</time>
      </trkpt>
      <trkpt lat="42.593082000" lon="-2.454721000">
        <ele>783.10</ele>
        <time>2016-10-15T07:04:07Z</time>
      </trkpt>
      <trkpt lat="42.593097000" lon="-2.454726000">
        <ele>783.30</ele>
        <time>2016-10-15T07:04:08Z</time>
      </trkpt>
      <trkpt lat="42.593113000" lon="-2.454727000">
        <ele>783.50</ele>
        <time>2016-10-15T07:04:09Z</time>
      </trkpt>
      <trkpt lat="42.593129000" lon="-2.454732000">
        <ele>783.60</ele>
        <time>2016-10-15T07:04:10Z</time>
      </trkpt>
      <trkpt lat="42.593144000" lon="-2.454734000">
        <ele>783.60</ele>
        <time>2016-10-15T07:04:11Z</time>
      </trkpt>
      <trkpt lat="42.593159000" lon="-2.454732000">
        <ele>783.80</ele>
        <time>2016-10-15T07:04:12Z</time>
      </trkpt>
      <trkpt lat="42.593174000" lon="-2.454737000">
        <ele>783.90</ele>
        <time>2016-10-15T07:04:13Z</time>
      </trkpt>
      <trkpt lat="42.593188000" lon="-2.454742000">
        <ele>784.00</ele>
        <time>2016-10-15T07:04:14Z</time>
      </trkpt>
      <trkpt lat="42.593202000" lon="-2.454746000">
        <ele>784.10</ele>
        <time>2016-10-15T07:04:15Z</time>
      </trkpt>
      <trkpt lat="42.593217000" lon="-2.454750000">
        <ele>784.30</ele>
        <time>2016-10-15T07:04:16Z</time>
      </trkpt>
      <trkpt lat="42.593232000" lon="-2.454758000">
        <ele>784.40</ele>
        <time>2016-10-15T07:04:17Z</time>
      </trkpt>
      <trkpt lat="42.593246000" lon="-2.454763000">
        <ele>784.60</ele>
        <time>2016-10-15T07:04:18Z</time>
      </trkpt>
      <trkpt lat="42.593260000" lon="-2.454770000">
        <ele>784.70</ele>
        <time>2016-10-15T07:04:19Z</time>
      </trkpt>
      <trkpt lat="42.593274000" lon="-2.454775000">
        <ele>785.00</ele>
        <time>2016-10-15T07:04:20Z</time>
      </trkpt>
      <trkpt lat="42.593288000" lon="-2.454782000">
        <ele>785.20</ele>
        <time>2016-10-15T07:04:21Z</time>
      </trkpt>
      <trkpt lat="42.593305000" lon="-2.454783000">
        <ele>785.40</ele>
        <time>2016-10-15T07:04:22Z</time>
      </trkpt>
      <trkpt lat="42.593318000" lon="-2.454783000">
        <ele>785.60</ele>
        <time>2016-10-15T07:04:23Z</time>
      </trkpt>
      <trkpt lat="42.593332000" lon="-2.454790000">
        <ele>785.70</ele>
        <time>2016-10-15T07:04:24Z</time>
      </trkpt>
      <trkpt lat="42.593349000" lon="-2.454797000">
        <ele>785.80</ele>
        <time>2016-10-15T07:04:25Z</time>
      </trkpt>
      <trkpt lat="42.593363000" lon="-2.454804000">
        <ele>785.90</ele>
        <time>2016-10-15T07:04:26Z</time>
      </trkpt>
      <trkpt lat="42.593374000" lon="-2.454808000">
        <ele>785.90</ele>
        <time>2016-10-15T07:04:27Z</time>
      </trkpt>
      <trkpt lat="42.593386000" lon="-2.454808000">
        <ele>786.30</ele>
        <time>2016-10-15T07:04:28Z</time>
      </trkpt>
      <trkpt lat="42.593398000" lon="-2.454811000">
        <ele>786.50</ele>
        <time>2016-10-15T07:04:29Z</time>
      </trkpt>
      <trkpt lat="42.593409000" lon="-2.454815000">
        <ele>786.70</ele>
        <time>2016-10-15T07:04:30Z</time>
      </trkpt>
      <trkpt lat="42.593421000" lon="-2.454824000">
        <ele>786.80</ele>
        <time>2016-10-15T07:04:31Z</time>
      </trkpt>
      <trkpt lat="42.593437000" lon="-2.454828000">
        <ele>787.00</ele>
        <time>2016-10-15T07:04:32Z</time>
      </trkpt>
      <trkpt lat="42.593452000" lon="-2.454835000">
        <ele>787.10</ele>
        <time>2016-10-15T07:04:33Z</time>
      </trkpt>
      <trkpt lat="42.593463000" lon="-2.454840000">
        <ele>787.20</ele>
        <time>2016-10-15T07:04:34Z</time>
      </trkpt>
      <trkpt lat="42.593475000" lon="-2.454844000">
        <ele>787.30</ele>
        <time>2016-10-15T07:04:35Z</time>
      </trkpt>
      <trkpt lat="42.593489000" lon="-2.454844000">
        <ele>787.40</ele>
        <time>2016-10-15T07:04:36Z</time>
      </trkpt>
      <trkpt lat="42.593504000" lon="-2.454848000">
        <ele>787.40</ele>
        <time>2016-10-15T07:04:37Z</time>
      </trkpt>
      <trkpt lat="42.593520000" lon="-2.454852000">
        <ele>787.70</ele>
        <time>2016-10-15T07:04:38Z</time>
      </trkpt>
      <trkpt lat="42.593534000" lon="-2.454856000">
        <ele>787.90</ele>
        <time>2016-10-15T07:04:39Z</time>
      </trkpt>
      <trkpt lat="42.593551000" lon="-2.454860000">
        <ele>788.20</ele>
        <time>2016-10-15T07:04:40Z</time>
      </trkpt>
      <trkpt lat="42.593565000" lon="-2.454868000">
        <ele>788.30</ele>
        <time>2016-10-15T07:04:41Z</time>
      </trkpt>
      <trkpt lat="42.593583000" lon="-2.454873000">
        <ele>788.50</ele>
        <time>2016-10-15T07:04:42Z</time>
      </trkpt>
      <trkpt lat="42.593598000" lon="-2.454875000">
        <ele>788.60</ele>
        <time>2016-10-15T07:04:43Z</time>
      </trkpt>
      <trkpt lat="42.593611000" lon="-2.454872000">
        <ele>788.70</ele>
        <time>2016-10-15T07:04:44Z</time>
      </trkpt>
      <trkpt lat="42.593623000" lon="-2.454877000">
        <ele>788.70</ele>
        <time>2016-10-15T07:04:45Z</time>
      </trkpt>
      <trkpt lat="42.593637000" lon="-2.454881000">
        <ele>789.00</ele>
        <time>2016-10-15T07:04:46Z</time>
      </trkpt>
      <trkpt lat="42.593649000" lon="-2.454885000">
        <ele>789.30</ele>
        <time>2016-10-15T07:04:47Z</time>
      </trkpt>
      <trkpt lat="42.593663000" lon="-2.454890000">
        <ele>789.50</ele>
        <time>2016-10-15T07:04:48Z</time>
      </trkpt>
      <trkpt lat="42.593678000" lon="-2.454894000">
        <ele>789.60</ele>
        <time>2016-10-15T07:04:49Z</time>
      </trkpt>
      <trkpt lat="42.593709000" lon="-2.454906000">
        <ele>789.90</ele>
        <time>2016-10-15T07:04:51Z</time>
      </trkpt>
      <trkpt lat="42.593726000" lon="-2.454917000">
        <ele>790.10</ele>
        <time>2016-10-15T07:04:52Z</time>
      </trkpt>
      <trkpt lat="42.593740000" lon="-2.454919000">
        <ele>790.20</ele>
        <time>2016-10-15T07:04:53Z</time>
      </trkpt>
      <trkpt lat="42.593752000" lon="-2.454921000">
        <ele>790.30</ele>
        <time>2016-10-15T07:04:54Z</time>
      </trkpt>
      <trkpt lat="42.593766000" lon="-2.454921000">
        <ele>790.40</ele>
        <time>2016-10-15T07:04:55Z</time>
      </trkpt>
      <trkpt lat="42.593774000" lon="-2.454919000">
        <ele>790.50</ele>
        <time>2016-10-15T07:04:56Z</time>
      </trkpt>
      <trkpt lat="42.593785000" lon="-2.454922000">
        <ele>790.50</ele>
        <time>2016-10-15T07:04:57Z</time>
      </trkpt>
      <trkpt lat="42.593793000" lon="-2.454925000">
        <ele>790.50</ele>
        <time>2016-10-15T07:04:58Z</time>
      </trkpt>
      <trkpt lat="42.593805000" lon="-2.454928000">
        <ele>790.60</ele>
        <time>2016-10-15T07:04:59Z</time>
      </trkpt>
      <trkpt lat="42.593820000" lon="-2.454921000">
        <ele>790.60</ele>
        <time>2016-10-15T07:05:00Z</time>
      </trkpt>
      <trkpt lat="42.593830000" lon="-2.454924000">
        <ele>790.60</ele>
        <time>2016-10-15T07:05:01Z</time>
      </trkpt>
      <trkpt lat="42.593843000" lon="-2.454930000">
        <ele>790.90</ele>
        <time>2016-10-15T07:05:02Z</time>
      </trkpt>
      <trkpt lat="42.593855000" lon="-2.454934000">
        <ele>791.10</ele>
        <time>2016-10-15T07:05:03Z</time>
      </trkpt>
      <trkpt lat="42.593871000" lon="-2.454937000">
        <ele>791.30</ele>
        <time>2016-10-15T07:05:04Z</time>
      </trkpt>
      <trkpt lat="42.593887000" lon="-2.454945000">
        <ele>791.40</ele>
        <time>2016-10-15T07:05:05Z</time>
      </trkpt>
      <trkpt lat="42.593901000" lon="-2.454953000">
        <ele>791.70</ele>
        <time>2016-10-15T07:05:06Z</time>
      </trkpt>
      <trkpt lat="42.593914000" lon="-2.454955000">
        <ele>791.90</ele>
        <time>2016-10-15T07:05:07Z</time>
      </trkpt>
      <trkpt lat="42.593929000" lon="-2.454962000">
        <ele>792.10</ele>
        <time>2016-10-15T07:05:08Z</time>
      </trkpt>
      <trkpt lat="42.593946000" lon="-2.454970000">
        <ele>792.20</ele>
        <time>2016-10-15T07:05:09Z</time>
      </trkpt>
      <trkpt lat="42.593964000" lon="-2.454974000">
        <ele>792.40</ele>
        <time>2016-10-15T07:05:10Z</time>
      </trkpt>
      <trkpt lat="42.593981000" lon="-2.454976000">
        <ele>792.50</ele>
        <time>2016-10-15T07:05:11Z</time>
      </trkpt>
      <trkpt lat="42.594001000" lon="-2.454978000">
        <ele>792.60</ele>
        <time>2016-10-15T07:05:12Z</time>
      </trkpt>
      <trkpt lat="42.594016000" lon="-2.454981000">
        <ele>792.60</ele>
        <time>2016-10-15T07:05:13Z</time>
      </trkpt>
      <trkpt lat="42.594034000" lon="-2.454987000">
        <ele>792.70</ele>
        <time>2016-10-15T07:05:14Z</time>
      </trkpt>
      <trkpt lat="42.594052000" lon="-2.454989000">
        <ele>792.70</ele>
        <time>2016-10-15T07:05:15Z</time>
      </trkpt>
      <trkpt lat="42.594072000" lon="-2.454990000">
        <ele>792.90</ele>
        <time>2016-10-15T07:05:16Z</time>
      </trkpt>
      <trkpt lat="42.594093000" lon="-2.454990000">
        <ele>793.10</ele>
        <time>2016-10-15T07:05:17Z</time>
      </trkpt>
      <trkpt lat="42.594112000" lon="-2.454994000">
        <ele>793.00</ele>
        <time>2016-10-15T07:05:18Z</time>
      </trkpt>
      <trkpt lat="42.594131000" lon="-2.454994000">
        <ele>793.00</ele>
        <time>2016-10-15T07:05:19Z</time>
      </trkpt>
      <trkpt lat="42.594150000" lon="-2.454997000">
        <ele>793.30</ele>
        <time>2016-10-15T07:05:20Z</time>
      </trkpt>
      <trkpt lat="42.594171000" lon="-2.454995000">
        <ele>793.60</ele>
        <time>2016-10-15T07:05:21Z</time>
      </trkpt>
      <trkpt lat="42.594191000" lon="-2.454995000">
        <ele>793.40</ele>
        <time>2016-10-15T07:05:22Z</time>
      </trkpt>
      <trkpt lat="42.594212000" lon="-2.454995000">
        <ele>793.30</ele>
        <time>2016-10-15T07:05:23Z</time>
      </trkpt>
      <trkpt lat="42.594228000" lon="-2.454995000">
        <ele>793.50</ele>
        <time>2016-10-15T07:05:24Z</time>
      </trkpt>
      <trkpt lat="42.594250000" lon="-2.455000000">
        <ele>793.60</ele>
        <time>2016-10-15T07:05:25Z</time>
      </trkpt>
      <trkpt lat="42.594272000" lon="-2.455001000">
        <ele>793.70</ele>
        <time>2016-10-15T07:05:26Z</time>
      </trkpt>
      <trkpt lat="42.594294000" lon="-2.455002000">
        <ele>793.80</ele>
        <time>2016-10-15T07:05:27Z</time>
      </trkpt>
      <trkpt lat="42.594311000" lon="-2.454995000">
        <ele>793.90</ele>
        <time>2016-10-15T07:05:28Z</time>
      </trkpt>
      <trkpt lat="42.594328000" lon="-2.454990000">
        <ele>793.90</ele>
        <time>2016-10-15T07:05:29Z</time>
      </trkpt>
      <trkpt lat="42.594346000" lon="-2.454988000">
        <ele>794.00</ele>
        <time>2016-10-15T07:05:30Z</time>
      </trkpt>
      <trkpt lat="42.594368000" lon="-2.454982000">
        <ele>794.00</ele>
        <time>2016-10-15T07:05:31Z</time>
      </trkpt>
      <trkpt lat="42.594391000" lon="-2.454982000">
        <ele>794.00</ele>
        <time>2016-10-15T07:05:32Z</time>
      </trkpt>
      <trkpt lat="42.594414000" lon="-2.454978000">
        <ele>794.00</ele>
        <time>2016-10-15T07:05:33Z</time>
      </trkpt>
      <trkpt lat="42.594438000" lon="-2.454973000">
        <ele>794.00</ele>
        <time>2016-10-15T07:05:34Z</time>
      </trkpt>
      <trkpt lat="42.594461000" lon="-2.454963000">
        <ele>794.00</ele>
        <time>2016-10-15T07:05:35Z</time>
      </trkpt>
      <trkpt lat="42.594484000" lon="-2.454958000">
        <ele>794.10</ele>
        <time>2016-10-15T07:05:36Z</time>
      </trkpt>
      <trkpt lat="42.594506000" lon="-2.454962000">
        <ele>794.10</ele>
        <time>2016-10-15T07:05:37Z</time>
      </trkpt>
      <trkpt lat="42.594533000" lon="-2.454962000">
        <ele>794.10</ele>
        <time>2016-10-15T07:05:38Z</time>
      </trkpt>
      <trkpt lat="42.594559000" lon="-2.454961000">
        <ele>794.20</ele>
        <time>2016-10-15T07:05:39Z</time>
      </trkpt>
      <trkpt lat="42.594586000" lon="-2.454959000">
        <ele>794.20</ele>
        <time>2016-10-15T07:05:40Z</time>
      </trkpt>
      <trkpt lat="42.594609000" lon="-2.454958000">
        <ele>794.30</ele>
        <time>2016-10-15T07:05:41Z</time>
      </trkpt>
      <trkpt lat="42.594636000" lon="-2.454951000">
        <ele>794.30</ele>
        <time>2016-10-15T07:05:42Z</time>
      </trkpt>
      <trkpt lat="42.594660000" lon="-2.454947000">
        <ele>794.30</ele>
        <time>2016-10-15T07:05:43Z</time>
      </trkpt>
      <trkpt lat="42.594684000" lon="-2.454946000">
        <ele>794.40</ele>
        <time>2016-10-15T07:05:44Z</time>
      </trkpt>
      <trkpt lat="42.594710000" lon="-2.454951000">
        <ele>794.50</ele>
        <time>2016-10-15T07:05:45Z</time>
      </trkpt>
      <trkpt lat="42.594734000" lon="-2.454951000">
        <ele>794.60</ele>
        <time>2016-10-15T07:05:46Z</time>
      </trkpt>
      <trkpt lat="42.594758000" lon="-2.454953000">
        <ele>794.60</ele>
        <time>2016-10-15T07:05:47Z</time>
      </trkpt>
      <trkpt lat="42.594785000" lon="-2.454953000">
        <ele>794.60</ele>
        <time>2016-10-15T07:05:48Z</time>
      </trkpt>
      <trkpt lat="42.594810000" lon="-2.454950000">
        <ele>794.70</ele>
        <time>2016-10-15T07:05:49Z</time>
      </trkpt>
      <trkpt lat="42.594836000" lon="-2.454951000">
        <ele>794.80</ele>
        <time>2016-10-15T07:05:50Z</time>
      </trkpt>
      <trkpt lat="42.594888000" lon="-2.454952000">
        <ele>795.00</ele>
        <time>2016-10-15T07:05:52Z</time>
      </trkpt>
      <trkpt lat="42.594913000" lon="-2.454950000">
        <ele>795.00</ele>
        <time>2016-10-15T07:05:53Z</time>
      </trkpt>
      <trkpt lat="42.594939000" lon="-2.454947000">
        <ele>795.10</ele>
        <time>2016-10-15T07:05:54Z</time>
      </trkpt>
      <trkpt lat="42.594968000" lon="-2.454943000">
        <ele>795.10</ele>
        <time>2016-10-15T07:05:55Z</time>
      </trkpt>
      <trkpt lat="42.594996000" lon="-2.454943000">
        <ele>795.20</ele>
        <time>2016-10-15T07:05:56Z</time>
      </trkpt>
      <trkpt lat="42.595023000" lon="-2.454945000">
        <ele>795.20</ele>
        <time>2016-10-15T07:05:57Z</time>
      </trkpt>
      <trkpt lat="42.595049000" lon="-2.454944000">
        <ele>795.20</ele>
        <time>2016-10-15T07:05:58Z</time>
      </trkpt>
      <trkpt lat="42.595073000" lon="-2.454945000">
        <ele>795.20</ele>
        <time>2016-10-15T07:05:59Z</time>
      </trkpt>
      <trkpt lat="42.595094000" lon="-2.454943000">
        <ele>795.40</ele>
        <time>2016-10-15T07:06:00Z</time>
      </trkpt>
      <trkpt lat="42.595117000" lon="-2.454945000">
        <ele>795.50</ele>
        <time>2016-10-15T07:06:01Z</time>
      </trkpt>
      <trkpt lat="42.595141000" lon="-2.454942000">
        <ele>795.70</ele>
        <time>2016-10-15T07:06:02Z</time>
      </trkpt>
      <trkpt lat="42.595164000" lon="-2.454940000">
        <ele>795.90</ele>
        <time>2016-10-15T07:06:03Z</time>
      </trkpt>
      <trkpt lat="42.595189000" lon="-2.454939000">
        <ele>795.90</ele>
        <time>2016-10-15T07:06:04Z</time>
      </trkpt>
      <trkpt lat="42.595211000" lon="-2.454938000">
        <ele>795.90</ele>
        <time>2016-10-15T07:06:05Z</time>
      </trkpt>
      <trkpt lat="42.595233000" lon="-2.454937000">
        <ele>796.00</ele>
        <time>2016-10-15T07:06:06Z</time>
      </trkpt>
      <trkpt lat="42.595257000" lon="-2.454933000">
        <ele>796.10</ele>
        <time>2016-10-15T07:06:07Z</time>
      </trkpt>
      <trkpt lat="42.595280000" lon="-2.454931000">
        <ele>796.20</ele>
        <time>2016-10-15T07:06:08Z</time>
      </trkpt>
      <trkpt lat="42.595305000" lon="-2.454927000">
        <ele>796.20</ele>
        <time>2016-10-15T07:06:09Z</time>
      </trkpt>
      <trkpt lat="42.595331000" lon="-2.454925000">
        <ele>796.30</ele>
        <time>2016-10-15T07:06:10Z</time>
      </trkpt>
      <trkpt lat="42.595359000" lon="-2.454925000">
        <ele>796.40</ele>
        <time>2016-10-15T07:06:11Z</time>
      </trkpt>
      <trkpt lat="42.595380000" lon="-2.454925000">
        <ele>796.50</ele>
        <time>2016-10-15T07:06:12Z</time>
      </trkpt>
      <trkpt lat="42.595400000" lon="-2.454923000">
        <ele>796.50</ele>
        <time>2016-10-15T07:06:13Z</time>
      </trkpt>
      <trkpt lat="42.595420000" lon="-2.454922000">
        <ele>796.60</ele>
        <time>2016-10-15T07:06:14Z</time>
      </trkpt>
      <trkpt lat="42.595440000" lon="-2.454920000">
        <ele>796.70</ele>
        <time>2016-10-15T07:06:15Z</time>
      </trkpt>
      <trkpt lat="42.595461000" lon="-2.454918000">
        <ele>796.80</ele>
        <time>2016-10-15T07:06:16Z</time>
      </trkpt>
      <trkpt lat="42.595482000" lon="-2.454917000">
        <ele>796.90</ele>
        <time>2016-10-15T07:06:17Z</time>
      </trkpt>
      <trkpt lat="42.595504000" lon="-2.454918000">
        <ele>797.00</ele>
        <time>2016-10-15T07:06:18Z</time>
      </trkpt>
      <trkpt lat="42.595526000" lon="-2.454916000">
        <ele>797.10</ele>
        <time>2016-10-15T07:06:19Z</time>
      </trkpt>
      <trkpt lat="42.595547000" lon="-2.454917000">
        <ele>797.20</ele>
        <time>2016-10-15T07:06:20Z</time>
      </trkpt>
      <trkpt lat="42.595567000" lon="-2.454915000">
        <ele>797.30</ele>
        <time>2016-10-15T07:06:21Z</time>
      </trkpt>
      <trkpt lat="42.595591000" lon="-2.454917000">
        <ele>797.10</ele>
        <time>2016-10-15T07:06:22Z</time>
      </trkpt>
      <trkpt lat="42.595614000" lon="-2.454916000">
        <ele>797.00</ele>
        <time>2016-10-15T07:06:23Z</time>
      </trkpt>
      <trkpt lat="42.595640000" lon="-2.454918000">
        <ele>796.90</ele>
        <time>2016-10-15T07:06:24Z</time>
      </trkpt>
      <trkpt lat="42.595665000" lon="-2.454917000">
        <ele>796.90</ele>
        <time>2016-10-15T07:06:25Z</time>
      </trkpt>
      <trkpt lat="42.595692000" lon="-2.454919000">
        <ele>796.80</ele>
        <time>2016-10-15T07:06:26Z</time>
      </trkpt>
      <trkpt lat="42.595720000" lon="-2.454920000">
        <ele>796.80</ele>
        <time>2016-10-15T07:06:27Z</time>
      </trkpt>
      <trkpt lat="42.595746000" lon="-2.454920000">
        <ele>796.90</ele>
        <time>2016-10-15T07:06:28Z</time>
      </trkpt>
      <trkpt lat="42.595772000" lon="-2.454918000">
        <ele>797.00</ele>
        <time>2016-10-15T07:06:29Z</time>
      </trkpt>
      <trkpt lat="42.595796000" lon="-2.454915000">
        <ele>797.00</ele>
        <time>2016-10-15T07:06:30Z</time>
      </trkpt>
      <trkpt lat="42.595816000" lon="-2.454916000">
        <ele>797.10</ele>
        <time>2016-10-15T07:06:31Z</time>
      </trkpt>
      <trkpt lat="42.595841000" lon="-2.454920000">
        <ele>797.10</ele>
        <time>2016-10-15T07:06:32Z</time>
      </trkpt>
      <trkpt lat="42.595862000" lon="-2.454916000">
        <ele>797.20</ele>
        <time>2016-10-15T07:06:33Z</time>
      </trkpt>
      <trkpt lat="42.595887000" lon="-2.454913000">
        <ele>797.30</ele>
        <time>2016-10-15T07:06:34Z</time>
      </trkpt>
      <trkpt lat="42.595911000" lon="-2.454912000">
        <ele>797.40</ele>
        <time>2016-10-15T07:06:35Z</time>
      </trkpt>
      <trkpt lat="42.595932000" lon="-2.454905000">
        <ele>797.40</ele>
        <time>2016-10-15T07:06:36Z</time>
      </trkpt>
      <trkpt lat="42.595954000" lon="-2.454901000">
        <ele>797.40</ele>
        <time>2016-10-15T07:06:37Z</time>
      </trkpt>
      <trkpt lat="42.595974000" lon="-2.454898000">
        <ele>797.50</ele>
        <time>2016-10-15T07:06:38Z</time>
      </trkpt>
      <trkpt lat="42.595997000" lon="-2.454896000">
        <ele>797.60</ele>
        <time>2016-10-15T07:06:39Z</time>
      </trkpt>
      <trkpt lat="42.596023000" lon="-2.454895000">
        <ele>797.50</ele>
        <time>2016-10-15T07:06:40Z</time>
      </trkpt>
      <trkpt lat="42.596046000" lon="-2.454894000">
        <ele>797.50</ele>
        <time>2016-10-15T07:06:41Z</time>
      </trkpt>
      <trkpt lat="42.596068000" lon="-2.454892000">
        <ele>797.50</ele>
        <time>2016-10-15T07:06:42Z</time>
      </trkpt>
      <trkpt lat="42.596091000" lon="-2.454891000">
        <ele>797.50</ele>
        <time>2016-10-15T07:06:43Z</time>
      </trkpt>
      <trkpt lat="42.596116000" lon="-2.454889000">
        <ele>797.50</ele>
        <time>2016-10-15T07:06:44Z</time>
      </trkpt>
      <trkpt lat="42.596142000" lon="-2.454891000">
        <ele>797.50</ele>
        <time>2016-10-15T07:06:45Z</time>
      </trkpt>
      <trkpt lat="42.596166000" lon="-2.454888000">
        <ele>797.60</ele>
        <time>2016-10-15T07:06:46Z</time>
      </trkpt>
      <trkpt lat="42.596190000" lon="-2.454890000">
        <ele>797.70</ele>
        <time>2016-10-15T07:06:47Z</time>
      </trkpt>
      <trkpt lat="42.596216000" lon="-2.454892000">
        <ele>797.90</ele>
        <time>2016-10-15T07:06:48Z</time>
      </trkpt>
      <trkpt lat="42.596239000" lon="-2.454893000">
        <ele>798.00</ele>
        <time>2016-10-15T07:06:49Z</time>
      </trkpt>
      <trkpt lat="42.596263000" lon="-2.454892000">
        <ele>798.10</ele>
        <time>2016-10-15T07:06:50Z</time>
      </trkpt>
      <trkpt lat="42.596286000" lon="-2.454892000">
        <ele>798.20</ele>
        <time>2016-10-15T07:06:51Z</time>
      </trkpt>
      <trkpt lat="42.596336000" lon="-2.454890000">
        <ele>798.50</ele>
        <time>2016-10-15T07:06:53Z</time>
      </trkpt>
      <trkpt lat="42.596361000" lon="-2.454892000">
        <ele>798.60</ele>
        <time>2016-10-15T07:06:54Z</time>
      </trkpt>
      <trkpt lat="42.596384000" lon="-2.454890000">
        <ele>798.70</ele>
        <time>2016-10-15T07:06:55Z</time>
      </trkpt>
      <trkpt lat="42.596409000" lon="-2.454890000">
        <ele>798.80</ele>
        <time>2016-10-15T07:06:56Z</time>
      </trkpt>
      <trkpt lat="42.596435000" lon="-2.454889000">
        <ele>798.90</ele>
        <time>2016-10-15T07:06:57Z</time>
      </trkpt>
      <trkpt lat="42.596459000" lon="-2.454887000">
        <ele>798.70</ele>
        <time>2016-10-15T07:06:58Z</time>
      </trkpt>
      <trkpt lat="42.596482000" lon="-2.454887000">
        <ele>798.60</ele>
        <time>2016-10-15T07:06:59Z</time>
      </trkpt>
      <trkpt lat="42.596500000" lon="-2.454880000">
        <ele>798.60</ele>
        <time>2016-10-15T07:07:00Z</time>
      </trkpt>
      <trkpt lat="42.596519000" lon="-2.454876000">
        <ele>798.50</ele>
        <time>2016-10-15T07:07:01Z</time>
      </trkpt>
      <trkpt lat="42.596537000" lon="-2.454872000">
        <ele>798.70</ele>
        <time>2016-10-15T07:07:02Z</time>
      </trkpt>
      <trkpt lat="42.596553000" lon="-2.454870000">
        <ele>798.90</ele>
        <time>2016-10-15T07:07:03Z</time>
      </trkpt>
      <trkpt lat="42.596568000" lon="-2.454865000">
        <ele>799.20</ele>
        <time>2016-10-15T07:07:04Z</time>
      </trkpt>
      <trkpt lat="42.596584000" lon="-2.454859000">
        <ele>799.40</ele>
        <time>2016-10-15T07:07:05Z</time>
      </trkpt>
      <trkpt lat="42.596602000" lon="-2.454848000">
        <ele>799.60</ele>
        <time>2016-10-15T07:07:06Z</time>
      </trkpt>
      <trkpt lat="42.596620000" lon="-2.454844000">
        <ele>799.80</ele>
        <time>2016-10-15T07:07:07Z</time>
      </trkpt>
      <trkpt lat="42.596634000" lon="-2.454842000">
        <ele>799.90</ele>
        <time>2016-10-15T07:07:08Z</time>
      </trkpt>
      <trkpt lat="42.596648000" lon="-2.454835000">
        <ele>799.90</ele>
        <time>2016-10-15T07:07:09Z</time>
      </trkpt>
      <trkpt lat="42.596664000" lon="-2.454830000">
        <ele>800.00</ele>
        <time>2016-10-15T07:07:10Z</time>
      </trkpt>
      <trkpt lat="42.596679000" lon="-2.454823000">
        <ele>800.00</ele>
        <time>2016-10-15T07:07:11Z</time>
      </trkpt>
      <trkpt lat="42.596691000" lon="-2.454815000">
        <ele>800.10</ele>
        <time>2016-10-15T07:07:12Z</time>
      </trkpt>
      <trkpt lat="42.596703000" lon="-2.454809000">
        <ele>800.10</ele>
        <time>2016-10-15T07:07:13Z</time>
      </trkpt>
      <trkpt lat="42.596716000" lon="-2.454802000">
        <ele>800.20</ele>
        <time>2016-10-15T07:07:14Z</time>
      </trkpt>
      <trkpt lat="42.596726000" lon="-2.454799000">
        <ele>800.30</ele>
        <time>2016-10-15T07:07:15Z</time>
      </trkpt>
      <trkpt lat="42.596736000" lon="-2.454795000">
        <ele>800.40</ele>
        <time>2016-10-15T07:07:16Z</time>
      </trkpt>
      <trkpt lat="42.596744000" lon="-2.454793000">
        <ele>800.50</ele>
        <time>2016-10-15T07:07:17Z</time>
      </trkpt>
      <trkpt lat="42.596753000" lon="-2.454790000">
        <ele>800.50</ele>
        <time>2016-10-15T07:07:18Z</time>
      </trkpt>
      <trkpt lat="42.596761000" lon="-2.454796000">
        <ele>800.50</ele>
        <time>2016-10-15T07:07:19Z</time>
      </trkpt>
      <trkpt lat="42.596770000" lon="-2.454798000">
        <ele>800.60</ele>
        <time>2016-10-15T07:07:20Z</time>
      </trkpt>
      <trkpt lat="42.596778000" lon="-2.454801000">
        <ele>800.60</ele>
        <time>2016-10-15T07:07:21Z</time>
      </trkpt>
      <trkpt lat="42.596780000" lon="-2.454804000">
        <ele>800.50</ele>
        <time>2016-10-15T07:07:22Z</time>
      </trkpt>
      <trkpt lat="42.596782000" lon="-2.454803000">
        <ele>800.40</ele>
        <time>2016-10-15T07:07:23Z</time>
      </trkpt>
      <trkpt lat="42.596780000" lon="-2.454808000">
        <ele>800.30</ele>
        <time>2016-10-15T07:07:24Z</time>
      </trkpt>
      <trkpt lat="42.596775000" lon="-2.454807000">
        <ele>800.30</ele>
        <time>2016-10-15T07:07:25Z</time>
      </trkpt>
      <trkpt lat="42.596768000" lon="-2.454804000">
        <ele>800.30</ele>
        <time>2016-10-15T07:07:26Z</time>
      </trkpt>
      <trkpt lat="42.596764000" lon="-2.454799000">
        <ele>800.30</ele>
        <time>2016-10-15T07:07:27Z</time>
      </trkpt>
      <trkpt lat="42.596767000" lon="-2.454797000">
        <ele>800.20</ele>
        <time>2016-10-15T07:07:28Z</time>
      </trkpt>
      <trkpt lat="42.596774000" lon="-2.454791000">
        <ele>800.20</ele>
        <time>2016-10-15T07:07:29Z</time>
      </trkpt>
      <trkpt lat="42.596778000" lon="-2.454796000">
        <ele>800.20</ele>
        <time>2016-10-15T07:07:30Z</time>
      </trkpt>
      <trkpt lat="42.596779000" lon="-2.454798000">
        <ele>800.20</ele>
        <time>2016-10-15T07:07:31Z</time>
      </trkpt>
      <trkpt lat="42.596778000" lon="-2.454802000">
        <ele>800.20</ele>
        <time>2016-10-15T07:07:32Z</time>
      </trkpt>
      <trkpt lat="42.596775000" lon="-2.454803000">
        <ele>800.20</ele>
        <time>2016-10-15T07:07:33Z</time>
      </trkpt>
      <trkpt lat="42.596774000" lon="-2.454806000">
        <ele>800.20</ele>
        <time>2016-10-15T07:07:34Z</time>
      </trkpt>
      <trkpt lat="42.596772000" lon="-2.454807000">
        <ele>800.20</ele>
        <time>2016-10-15T07:07:35Z</time>
      </trkpt>
      <trkpt lat="42.596771000" lon="-2.454807000">
        <ele>800.30</ele>
        <time>2016-10-15T07:07:36Z</time>
      </trkpt>
      <trkpt lat="42.596770000" lon="-2.454812000">
        <ele>800.40</ele>
        <time>2016-10-15T07:07:37Z</time>
      </trkpt>
      <trkpt lat="42.596772000" lon="-2.454810000">
        <ele>800.50</ele>
        <time>2016-10-15T07:07:38Z</time>
      </trkpt>
      <trkpt lat="42.596769000" lon="-2.454806000">
        <ele>800.60</ele>
        <time>2016-10-15T07:07:39Z</time>
      </trkpt>
      <trkpt lat="42.596768000" lon="-2.454803000">
        <ele>800.60</ele>
        <time>2016-10-15T07:07:40Z</time>
      </trkpt>
      <trkpt lat="42.596765000" lon="-2.454800000">
        <ele>800.60</ele>
        <time>2016-10-15T07:07:41Z</time>
      </trkpt>
      <trkpt lat="42.596762000" lon="-2.454797000">
        <ele>800.60</ele>
        <time>2016-10-15T07:07:42Z</time>
      </trkpt>
      <trkpt lat="42.596761000" lon="-2.454796000">
        <ele>800.70</ele>
        <time>2016-10-15T07:07:43Z</time>
      </trkpt>
      <trkpt lat="42.596764000" lon="-2.454797000">
        <ele>800.70</ele>
        <time>2016-10-15T07:07:44Z</time>
      </trkpt>
      <trkpt lat="42.596763000" lon="-2.454801000">
        <ele>800.70</ele>
        <time>2016-10-15T07:07:45Z</time>
      </trkpt>
      <trkpt lat="42.596764000" lon="-2.454802000">
        <ele>800.80</ele>
        <time>2016-10-15T07:07:46Z</time>
      </trkpt>
      <trkpt lat="42.596763000" lon="-2.454802000">
        <ele>800.90</ele>
        <time>2016-10-15T07:07:47Z</time>
      </trkpt>
      <trkpt lat="42.596762000" lon="-2.454803000">
        <ele>801.00</ele>
        <time>2016-10-15T07:07:48Z</time>
      </trkpt>
      <trkpt lat="42.596762000" lon="-2.454804000">
        <ele>801.10</ele>
        <time>2016-10-15T07:07:49Z</time>
      </trkpt>
      <trkpt lat="42.596762000" lon="-2.454805000">
        <ele>801.00</ele>
        <time>2016-10-15T07:07:50Z</time>
      </trkpt>
      <trkpt lat="42.596760000" lon="-2.454809000">
        <ele>801.00</ele>
        <time>2016-10-15T07:07:51Z</time>
      </trkpt>
      <trkpt lat="42.596757000" lon="-2.454809000">
        <ele>800.90</ele>
        <time>2016-10-15T07:07:52Z</time>
      </trkpt>
      <trkpt lat="42.596755000" lon="-2.454808000">
        <ele>800.90</ele>
        <time>2016-10-15T07:07:54Z</time>
      </trkpt>
      <trkpt lat="42.596757000" lon="-2.454808000">
        <ele>801.00</ele>
        <time>2016-10-15T07:07:55Z</time>
      </trkpt>
      <trkpt lat="42.596759000" lon="-2.454807000">
        <ele>801.10</ele>
        <time>2016-10-15T07:07:56Z</time>
      </trkpt>
      <trkpt lat="42.596762000" lon="-2.454805000">
        <ele>801.20</ele>
        <time>2016-10-15T07:07:57Z</time>
      </trkpt>
      <trkpt lat="42.596764000" lon="-2.454803000">
        <ele>801.10</ele>
        <time>2016-10-15T07:07:58Z</time>
      </trkpt>
      <trkpt lat="42.596765000" lon="-2.454804000">
        <ele>801.10</ele>
        <time>2016-10-15T07:07:59Z</time>
      </trkpt>
      <trkpt lat="42.596772000" lon="-2.454804000">
        <ele>801.20</ele>
        <time>2016-10-15T07:08:00Z</time>
      </trkpt>
      <trkpt lat="42.596783000" lon="-2.454802000">
        <ele>801.30</ele>
        <time>2016-10-15T07:08:01Z</time>
      </trkpt>
      <trkpt lat="42.596795000" lon="-2.454804000">
        <ele>801.20</ele>
        <time>2016-10-15T07:08:02Z</time>
      </trkpt>
      <trkpt lat="42.596801000" lon="-2.454806000">
        <ele>801.10</ele>
        <time>2016-10-15T07:08:03Z</time>
      </trkpt>
      <trkpt lat="42.596815000" lon="-2.454809000">
        <ele>801.20</ele>
        <time>2016-10-15T07:08:04Z</time>
      </trkpt>
      <trkpt lat="42.596827000" lon="-2.454810000">
        <ele>801.30</ele>
        <time>2016-10-15T07:08:05Z</time>
      </trkpt>
      <trkpt lat="42.596839000" lon="-2.454817000">
        <ele>801.30</ele>
        <time>2016-10-15T07:08:06Z</time>
      </trkpt>
      <trkpt lat="42.596853000" lon="-2.454822000">
        <ele>801.40</ele>
        <time>2016-10-15T07:08:07Z</time>
      </trkpt>
      <trkpt lat="42.596866000" lon="-2.454825000">
        <ele>801.40</ele>
        <time>2016-10-15T07:08:08Z</time>
      </trkpt>
      <trkpt lat="42.596882000" lon="-2.454828000">
        <ele>801.50</ele>
        <time>2016-10-15T07:08:09Z</time>
      </trkpt>
      <trkpt lat="42.596900000" lon="-2.454827000">
        <ele>801.50</ele>
        <time>2016-10-15T07:08:10Z</time>
      </trkpt>
      <trkpt lat="42.596919000" lon="-2.454830000">
        <ele>801.50</ele>
        <time>2016-10-15T07:08:11Z</time>
      </trkpt>
      <trkpt lat="42.596938000" lon="-2.454832000">
        <ele>801.60</ele>
        <time>2016-10-15T07:08:12Z</time>
      </trkpt>
      <trkpt lat="42.596953000" lon="-2.454834000">
        <ele>801.60</ele>
        <time>2016-10-15T07:08:13Z</time>
      </trkpt>
      <trkpt lat="42.596967000" lon="-2.454836000">
        <ele>801.60</ele>
        <time>2016-10-15T07:08:14Z</time>
      </trkpt>
      <trkpt lat="42.596983000" lon="-2.454834000">
        <ele>801.60</ele>
        <time>2016-10-15T07:08:15Z</time>
      </trkpt>
      <trkpt lat="42.596999000" lon="-2.454833000">
        <ele>801.80</ele>
        <time>2016-10-15T07:08:16Z</time>
      </trkpt>
      <trkpt lat="42.597017000" lon="-2.454832000">
        <ele>801.90</ele>
        <time>2016-10-15T07:08:17Z</time>
      </trkpt>
      <trkpt lat="42.597036000" lon="-2.454829000">
        <ele>802.10</ele>
        <time>2016-10-15T07:08:18Z</time>
      </trkpt>
      <trkpt lat="42.597052000" lon="-2.454824000">
        <ele>802.30</ele>
        <time>2016-10-15T07:08:19Z</time>
      </trkpt>
      <trkpt lat="42.597069000" lon="-2.454819000">
        <ele>802.50</ele>
        <time>2016-10-15T07:08:20Z</time>
      </trkpt>
      <trkpt lat="42.597083000" lon="-2.454816000">
        <ele>802.70</ele>
        <time>2016-10-15T07:08:21Z</time>
      </trkpt>
      <trkpt lat="42.597095000" lon="-2.454813000">
        <ele>802.90</ele>
        <time>2016-10-15T07:08:22Z</time>
      </trkpt>
      <trkpt lat="42.597109000" lon="-2.454805000">
        <ele>803.00</ele>
        <time>2016-10-15T07:08:23Z</time>
      </trkpt>
      <trkpt lat="42.597126000" lon="-2.454801000">
        <ele>803.30</ele>
        <time>2016-10-15T07:08:24Z</time>
      </trkpt>
      <trkpt lat="42.597141000" lon="-2.454791000">
        <ele>803.50</ele>
        <time>2016-10-15T07:08:25Z</time>
      </trkpt>
      <trkpt lat="42.597157000" lon="-2.454781000">
        <ele>803.90</ele>
        <time>2016-10-15T07:08:26Z</time>
      </trkpt>
      <trkpt lat="42.597173000" lon="-2.454772000">
        <ele>804.20</ele>
        <time>2016-10-15T07:08:27Z</time>
      </trkpt>
      <trkpt lat="42.597190000" lon="-2.454766000">
        <ele>804.50</ele>
        <time>2016-10-15T07:08:28Z</time>
      </trkpt>
      <trkpt lat="42.597205000" lon="-2.454761000">
        <ele>804.70</ele>
        <time>2016-10-15T07:08:29Z</time>
      </trkpt>
      <trkpt lat="42.597220000" lon="-2.454755000">
        <ele>804.90</ele>
        <time>2016-10-15T07:08:30Z</time>
      </trkpt>
      <trkpt lat="42.597236000" lon="-2.454749000">
        <ele>805.00</ele>
        <time>2016-10-15T07:08:31Z</time>
      </trkpt>
      <trkpt lat="42.597255000" lon="-2.454742000">
        <ele>805.20</ele>
        <time>2016-10-15T07:08:32Z</time>
      </trkpt>
      <trkpt lat="42.597273000" lon="-2.454735000">
        <ele>805.40</ele>
        <time>2016-10-15T07:08:33Z</time>
      </trkpt>
      <trkpt lat="42.597290000" lon="-2.454725000">
        <ele>805.60</ele>
        <time>2016-10-15T07:08:34Z</time>
      </trkpt>
      <trkpt lat="42.597308000" lon="-2.454718000">
        <ele>805.70</ele>
        <time>2016-10-15T07:08:35Z</time>
      </trkpt>
      <trkpt lat="42.597324000" lon="-2.454702000">
        <ele>805.70</ele>
        <time>2016-10-15T07:08:36Z</time>
      </trkpt>
      <trkpt lat="42.597345000" lon="-2.454696000">
        <ele>805.80</ele>
        <time>2016-10-15T07:08:37Z</time>
      </trkpt>
      <trkpt lat="42.597363000" lon="-2.454686000">
        <ele>805.90</ele>
        <time>2016-10-15T07:08:38Z</time>
      </trkpt>
      <trkpt lat="42.597383000" lon="-2.454677000">
        <ele>806.00</ele>
        <time>2016-10-15T07:08:39Z</time>
      </trkpt>
      <trkpt lat="42.597400000" lon="-2.454669000">
        <ele>806.10</ele>
        <time>2016-10-15T07:08:40Z</time>
      </trkpt>
      <trkpt lat="42.597418000" lon="-2.454659000">
        <ele>806.10</ele>
        <time>2016-10-15T07:08:41Z</time>
      </trkpt>
      <trkpt lat="42.597437000" lon="-2.454652000">
        <ele>806.40</ele>
        <time>2016-10-15T07:08:42Z</time>
      </trkpt>
      <trkpt lat="42.597454000" lon="-2.454643000">
        <ele>806.60</ele>
        <time>2016-10-15T07:08:43Z</time>
      </trkpt>
      <trkpt lat="42.597473000" lon="-2.454633000">
        <ele>806.70</ele>
        <time>2016-10-15T07:08:44Z</time>
      </trkpt>
      <trkpt lat="42.597492000" lon="-2.454624000">
        <ele>806.80</ele>
        <time>2016-10-15T07:08:45Z</time>
      </trkpt>
      <trkpt lat="42.597512000" lon="-2.454617000">
        <ele>806.90</ele>
        <time>2016-10-15T07:08:46Z</time>
      </trkpt>
      <trkpt lat="42.597531000" lon="-2.454608000">
        <ele>806.90</ele>
        <time>2016-10-15T07:08:47Z</time>
      </trkpt>
      <trkpt lat="42.597551000" lon="-2.454600000">
        <ele>806.80</ele>
        <time>2016-10-15T07:08:48Z</time>
      </trkpt>
      <trkpt lat="42.597570000" lon="-2.454592000">
        <ele>806.70</ele>
        <time>2016-10-15T07:08:49Z</time>
      </trkpt>
      <trkpt lat="42.597590000" lon="-2.454584000">
        <ele>806.70</ele>
        <time>2016-10-15T07:08:50Z</time>
      </trkpt>
      <trkpt lat="42.597612000" lon="-2.454577000">
        <ele>806.70</ele>
        <time>2016-10-15T07:08:51Z</time>
      </trkpt>
      <trkpt lat="42.597633000" lon="-2.454573000">
        <ele>806.70</ele>
        <time>2016-10-15T07:08:52Z</time>
      </trkpt>
      <trkpt lat="42.597655000" lon="-2.454569000">
        <ele>806.60</ele>
        <time>2016-10-15T07:08:53Z</time>
      </trkpt>
      <trkpt lat="42.597676000" lon="-2.454565000">
        <ele>806.60</ele>
        <time>2016-10-15T07:08:54Z</time>
      </trkpt>
      <trkpt lat="42.597721000" lon="-2.454564000">
        <ele>806.60</ele>
        <time>2016-10-15T07:08:56Z</time>
      </trkpt>
      <trkpt lat="42.597741000" lon="-2.454561000">
        <ele>806.60</ele>
        <time>2016-10-15T07:08:57Z</time>
      </trkpt>
      <trkpt lat="42.597758000" lon="-2.454558000">
        <ele>806.60</ele>
        <time>2016-10-15T07:08:58Z</time>
      </trkpt>
      <trkpt lat="42.597779000" lon="-2.454554000">
        <ele>806.70</ele>
        <time>2016-10-15T07:08:59Z</time>
      </trkpt>
      <trkpt lat="42.597800000" lon="-2.454554000">
        <ele>806.80</ele>
        <time>2016-10-15T07:09:00Z</time>
      </trkpt>
      <trkpt lat="42.597819000" lon="-2.454557000">
        <ele>806.90</ele>
        <time>2016-10-15T07:09:01Z</time>
      </trkpt>
      <trkpt lat="42.597837000" lon="-2.454561000">
        <ele>807.00</ele>
        <time>2016-10-15T07:09:02Z</time>
      </trkpt>
      <trkpt lat="42.597856000" lon="-2.454565000">
        <ele>807.00</ele>
        <time>2016-10-15T07:09:03Z</time>
      </trkpt>
      <trkpt lat="42.597871000" lon="-2.454566000">
        <ele>807.20</ele>
        <time>2016-10-15T07:09:04Z</time>
      </trkpt>
      <trkpt lat="42.597888000" lon="-2.454575000">
        <ele>807.30</ele>
        <time>2016-10-15T07:09:05Z</time>
      </trkpt>
      <trkpt lat="42.597907000" lon="-2.454581000">
        <ele>807.40</ele>
        <time>2016-10-15T07:09:06Z</time>
      </trkpt>
      <trkpt lat="42.597925000" lon="-2.454587000">
        <ele>807.60</ele>
        <time>2016-10-15T07:09:07Z</time>
      </trkpt>
      <trkpt lat="42.597948000" lon="-2.454593000">
        <ele>807.60</ele>
        <time>2016-10-15T07:09:08Z</time>
      </trkpt>
      <trkpt lat="42.597966000" lon="-2.454604000">
        <ele>807.70</ele>
        <time>2016-10-15T07:09:09Z</time>
      </trkpt>
      <trkpt lat="42.597984000" lon="-2.454614000">
        <ele>807.90</ele>
        <time>2016-10-15T07:09:10Z</time>
      </trkpt>
      <trkpt lat="42.598001000" lon="-2.454623000">
        <ele>808.10</ele>
        <time>2016-10-15T07:09:11Z</time>
      </trkpt>
      <trkpt lat="42.598020000" lon="-2.454636000">
        <ele>808.20</ele>
        <time>2016-10-15T07:09:12Z</time>
      </trkpt>
      <trkpt lat="42.598036000" lon="-2.454648000">
        <ele>808.30</ele>
        <time>2016-10-15T07:09:13Z</time>
      </trkpt>
      <trkpt lat="42.598053000" lon="-2.454660000">
        <ele>808.30</ele>
        <time>2016-10-15T07:09:14Z</time>
      </trkpt>
      <trkpt lat="42.598069000" lon="-2.454669000">
        <ele>808.30</ele>
        <time>2016-10-15T07:09:15Z</time>
      </trkpt>
      <trkpt lat="42.598084000" lon="-2.454679000">
        <ele>808.30</ele>
        <time>2016-10-15T07:09:16Z</time>
      </trkpt>
      <trkpt lat="42.598102000" lon="-2.454692000">
        <ele>808.30</ele>
        <time>2016-10-15T07:09:17Z</time>
      </trkpt>
      <trkpt lat="42.598120000" lon="-2.454705000">
        <ele>808.50</ele>
        <time>2016-10-15T07:09:18Z</time>
      </trkpt>
      <trkpt lat="42.598136000" lon="-2.454721000">
        <ele>808.60</ele>
        <time>2016-10-15T07:09:19Z</time>
      </trkpt>
      <trkpt lat="42.598153000" lon="-2.454736000">
        <ele>808.70</ele>
        <time>2016-10-15T07:09:20Z</time>
      </trkpt>
      <trkpt lat="42.598170000" lon="-2.454751000">
        <ele>808.90</ele>
        <time>2016-10-15T07:09:21Z</time>
      </trkpt>
      <trkpt lat="42.598185000" lon="-2.454767000">
        <ele>809.20</ele>
        <time>2016-10-15T07:09:22Z</time>
      </trkpt>
      <trkpt lat="42.598199000" lon="-2.454782000">
        <ele>809.40</ele>
        <time>2016-10-15T07:09:23Z</time>
      </trkpt>
      <trkpt lat="42.598214000" lon="-2.454794000">
        <ele>809.60</ele>
        <time>2016-10-15T07:09:24Z</time>
      </trkpt>
      <trkpt lat="42.598232000" lon="-2.454807000">
        <ele>809.80</ele>
        <time>2016-10-15T07:09:25Z</time>
      </trkpt>
      <trkpt lat="42.598247000" lon="-2.454821000">
        <ele>810.00</ele>
        <time>2016-10-15T07:09:26Z</time>
      </trkpt>
      <trkpt lat="42.598263000" lon="-2.454834000">
        <ele>810.20</ele>
        <time>2016-10-15T07:09:27Z</time>
      </trkpt>
      <trkpt lat="42.598278000" lon="-2.454846000">
        <ele>810.40</ele>
        <time>2016-10-15T07:09:28Z</time>
      </trkpt>
      <trkpt lat="42.598293000" lon="-2.454859000">
        <ele>810.60</ele>
        <time>2016-10-15T07:09:29Z</time>
      </trkpt>
      <trkpt lat="42.598307000" lon="-2.454871000">
        <ele>811.10</ele>
        <time>2016-10-15T07:09:30Z</time>
      </trkpt>
      <trkpt lat="42.598322000" lon="-2.454886000">
        <ele>811.40</ele>
        <time>2016-10-15T07:09:31Z</time>
      </trkpt>
      <trkpt lat="42.598337000" lon="-2.454900000">
        <ele>811.70</ele>
        <time>2016-10-15T07:09:32Z</time>
      </trkpt>
      <trkpt lat="42.598348000" lon="-2.454915000">
        <ele>811.90</ele>
        <time>2016-10-15T07:09:33Z</time>
      </trkpt>
      <trkpt lat="42.598359000" lon="-2.454930000">
        <ele>812.10</ele>
        <time>2016-10-15T07:09:34Z</time>
      </trkpt>
      <trkpt lat="42.598371000" lon="-2.454942000">
        <ele>812.30</ele>
        <time>2016-10-15T07:09:35Z</time>
      </trkpt>
      <trkpt lat="42.598385000" lon="-2.454949000">
        <ele>812.60</ele>
        <time>2016-10-15T07:09:36Z</time>
      </trkpt>
      <trkpt lat="42.598397000" lon="-2.454956000">
        <ele>812.90</ele>
        <time>2016-10-15T07:09:37Z</time>
      </trkpt>
      <trkpt lat="42.598410000" lon="-2.454966000">
        <ele>813.00</ele>
        <time>2016-10-15T07:09:38Z</time>
      </trkpt>
      <trkpt lat="42.598418000" lon="-2.454977000">
        <ele>813.20</ele>
        <time>2016-10-15T07:09:39Z</time>
      </trkpt>
      <trkpt lat="42.598426000" lon="-2.454989000">
        <ele>813.30</ele>
        <time>2016-10-15T07:09:40Z</time>
      </trkpt>
      <trkpt lat="42.598437000" lon="-2.454999000">
        <ele>813.40</ele>
        <time>2016-10-15T07:09:41Z</time>
      </trkpt>
      <trkpt lat="42.598446000" lon="-2.455013000">
        <ele>813.60</ele>
        <time>2016-10-15T07:09:42Z</time>
      </trkpt>
      <trkpt lat="42.598455000" lon="-2.455025000">
        <ele>813.80</ele>
        <time>2016-10-15T07:09:43Z</time>
      </trkpt>
      <trkpt lat="42.598462000" lon="-2.455039000">
        <ele>814.10</ele>
        <time>2016-10-15T07:09:44Z</time>
      </trkpt>
      <trkpt lat="42.598470000" lon="-2.455058000">
        <ele>814.30</ele>
        <time>2016-10-15T07:09:45Z</time>
      </trkpt>
      <trkpt lat="42.598480000" lon="-2.455074000">
        <ele>814.70</ele>
        <time>2016-10-15T07:09:46Z</time>
      </trkpt>
      <trkpt lat="42.598493000" lon="-2.455089000">
        <ele>815.10</ele>
        <time>2016-10-15T07:09:47Z</time>
      </trkpt>
      <trkpt lat="42.598506000" lon="-2.455103000">
        <ele>815.40</ele>
        <time>2016-10-15T07:09:48Z</time>
      </trkpt>
      <trkpt lat="42.598518000" lon="-2.455121000">
        <ele>815.70</ele>
        <time>2016-10-15T07:09:49Z</time>
      </trkpt>
      <trkpt lat="42.598532000" lon="-2.455139000">
        <ele>816.10</ele>
        <time>2016-10-15T07:09:50Z</time>
      </trkpt>
      <trkpt lat="42.598548000" lon="-2.455153000">
        <ele>816.40</ele>
        <time>2016-10-15T07:09:51Z</time>
      </trkpt>
      <trkpt lat="42.598564000" lon="-2.455165000">
        <ele>816.70</ele>
        <time>2016-10-15T07:09:52Z</time>
      </trkpt>
      <trkpt lat="42.598580000" lon="-2.455178000">
        <ele>817.00</ele>
        <time>2016-10-15T07:09:53Z</time>
      </trkpt>
      <trkpt lat="42.598592000" lon="-2.455190000">
        <ele>817.20</ele>
        <time>2016-10-15T07:09:54Z</time>
      </trkpt>
      <trkpt lat="42.598607000" lon="-2.455201000">
        <ele>817.40</ele>
        <time>2016-10-15T07:09:55Z</time>
      </trkpt>
      <trkpt lat="42.598620000" lon="-2.455212000">
        <ele>817.60</ele>
        <time>2016-10-15T07:09:56Z</time>
      </trkpt>
      <trkpt lat="42.598648000" lon="-2.455240000">
        <ele>817.90</ele>
        <time>2016-10-15T07:09:58Z</time>
      </trkpt>
      <trkpt lat="42.598662000" lon="-2.455254000">
        <ele>818.00</ele>
        <time>2016-10-15T07:09:59Z</time>
      </trkpt>
      <trkpt lat="42.598676000" lon="-2.455268000">
        <ele>818.20</ele>
        <time>2016-10-15T07:10:00Z</time>
      </trkpt>
      <trkpt lat="42.598692000" lon="-2.455282000">
        <ele>818.40</ele>
        <time>2016-10-15T07:10:01Z</time>
      </trkpt>
      <trkpt lat="42.598705000" lon="-2.455293000">
        <ele>818.70</ele>
        <time>2016-10-15T07:10:02Z</time>
      </trkpt>
      <trkpt lat="42.598720000" lon="-2.455307000">
        <ele>819.00</ele>
        <time>2016-10-15T07:10:03Z</time>
      </trkpt>
      <trkpt lat="42.598736000" lon="-2.455319000">
        <ele>819.20</ele>
        <time>2016-10-15T07:10:04Z</time>
      </trkpt>
      <trkpt lat="42.598753000" lon="-2.455330000">
        <ele>819.30</ele>
        <time>2016-10-15T07:10:05Z</time>
      </trkpt>
      <trkpt lat="42.598771000" lon="-2.455339000">
        <ele>819.70</ele>
        <time>2016-10-15T07:10:06Z</time>
      </trkpt>
      <trkpt lat="42.598789000" lon="-2.455349000">
        <ele>819.90</ele>
        <time>2016-10-15T07:10:07Z</time>
      </trkpt>
      <trkpt lat="42.598807000" lon="-2.455354000">
        <ele>820.30</ele>
        <time>2016-10-15T07:10:08Z</time>
      </trkpt>
      <trkpt lat="42.598825000" lon="-2.455363000">
        <ele>820.50</ele>
        <time>2016-10-15T07:10:09Z</time>
      </trkpt>
      <trkpt lat="42.598843000" lon="-2.455370000">
        <ele>820.80</ele>
        <time>2016-10-15T07:10:10Z</time>
      </trkpt>
      <trkpt lat="42.598861000" lon="-2.455378000">
        <ele>820.90</ele>
        <time>2016-10-15T07:10:11Z</time>
      </trkpt>
      <trkpt lat="42.598880000" lon="-2.455383000">
        <ele>821.20</ele>
        <time>2016-10-15T07:10:12Z</time>
      </trkpt>
      <trkpt lat="42.598898000" lon="-2.455388000">
        <ele>821.30</ele>
        <time>2016-10-15T07:10:13Z</time>
      </trkpt>
      <trkpt lat="42.598914000" lon="-2.455395000">
        <ele>821.60</ele>
        <time>2016-10-15T07:10:14Z</time>
      </trkpt>
      <trkpt lat="42.598933000" lon="-2.455399000">
        <ele>821.80</ele>
        <time>2016-10-15T07:10:15Z</time>
      </trkpt>
      <trkpt lat="42.598947000" lon="-2.455399000">
        <ele>821.90</ele>
        <time>2016-10-15T07:10:16Z</time>
      </trkpt>
      <trkpt lat="42.598960000" lon="-2.455404000">
        <ele>822.00</ele>
        <time>2016-10-15T07:10:17Z</time>
      </trkpt>
      <trkpt lat="42.598974000" lon="-2.455402000">
        <ele>822.10</ele>
        <time>2016-10-15T07:10:18Z</time>
      </trkpt>
      <trkpt lat="42.598985000" lon="-2.455404000">
        <ele>822.20</ele>
        <time>2016-10-15T07:10:19Z</time>
      </trkpt>
      <trkpt lat="42.599001000" lon="-2.455411000">
        <ele>822.60</ele>
        <time>2016-10-15T07:10:20Z</time>
      </trkpt>
      <trkpt lat="42.599017000" lon="-2.455415000">
        <ele>823.00</ele>
        <time>2016-10-15T07:10:21Z</time>
      </trkpt>
      <trkpt lat="42.599033000" lon="-2.455420000">
        <ele>823.20</ele>
        <time>2016-10-15T07:10:22Z</time>
      </trkpt>
      <trkpt lat="42.599050000" lon="-2.455425000">
        <ele>823.40</ele>
        <time>2016-10-15T07:10:23Z</time>
      </trkpt>
      <trkpt lat="42.599066000" lon="-2.455433000">
        <ele>823.60</ele>
        <time>2016-10-15T07:10:24Z</time>
      </trkpt>
      <trkpt lat="42.599082000" lon="-2.455445000">
        <ele>823.70</ele>
        <time>2016-10-15T07:10:25Z</time>
      </trkpt>
      <trkpt lat="42.599098000" lon="-2.455449000">
        <ele>823.80</ele>
        <time>2016-10-15T07:10:26Z</time>
      </trkpt>
      <trkpt lat="42.599113000" lon="-2.455457000">
        <ele>823.90</ele>
        <time>2016-10-15T07:10:27Z</time>
      </trkpt>
      <trkpt lat="42.599129000" lon="-2.455463000">
        <ele>824.10</ele>
        <time>2016-10-15T07:10:28Z</time>
      </trkpt>
      <trkpt lat="42.599143000" lon="-2.455466000">
        <ele>824.20</ele>
        <time>2016-10-15T07:10:29Z</time>
      </trkpt>
      <trkpt lat="42.599158000" lon="-2.455473000">
        <ele>824.40</ele>
        <time>2016-10-15T07:10:30Z</time>
      </trkpt>
      <trkpt lat="42.599174000" lon="-2.455481000">
        <ele>824.60</ele>
        <time>2016-10-15T07:10:31Z</time>
      </trkpt>
      <trkpt lat="42.599187000" lon="-2.455487000">
        <ele>824.70</ele>
        <time>2016-10-15T07:10:32Z</time>
      </trkpt>
      <trkpt lat="42.599197000" lon="-2.455496000">
        <ele>824.80</ele>
        <time>2016-10-15T07:10:33Z</time>
      </trkpt>
      <trkpt lat="42.599209000" lon="-2.455499000">
        <ele>825.20</ele>
        <time>2016-10-15T07:10:34Z</time>
      </trkpt>
      <trkpt lat="42.599221000" lon="-2.455504000">
        <ele>825.40</ele>
        <time>2016-10-15T07:10:35Z</time>
      </trkpt>
      <trkpt lat="42.599234000" lon="-2.455510000">
        <ele>825.60</ele>
        <time>2016-10-15T07:10:36Z</time>
      </trkpt>
      <trkpt lat="42.599246000" lon="-2.455516000">
        <ele>825.80</ele>
        <time>2016-10-15T07:10:37Z</time>
      </trkpt>
      <trkpt lat="42.599258000" lon="-2.455516000">
        <ele>826.00</ele>
        <time>2016-10-15T07:10:38Z</time>
      </trkpt>
      <trkpt lat="42.599268000" lon="-2.455522000">
        <ele>826.20</ele>
        <time>2016-10-15T07:10:39Z</time>
      </trkpt>
      <trkpt lat="42.599279000" lon="-2.455527000">
        <ele>826.50</ele>
        <time>2016-10-15T07:10:40Z</time>
      </trkpt>
      <trkpt lat="42.599291000" lon="-2.455535000">
        <ele>826.60</ele>
        <time>2016-10-15T07:10:41Z</time>
      </trkpt>
      <trkpt lat="42.599303000" lon="-2.455541000">
        <ele>827.10</ele>
        <time>2016-10-15T07:10:42Z</time>
      </trkpt>
      <trkpt lat="42.599318000" lon="-2.455543000">
        <ele>827.40</ele>
        <time>2016-10-15T07:10:43Z</time>
      </trkpt>
      <trkpt lat="42.599333000" lon="-2.455550000">
        <ele>827.80</ele>
        <time>2016-10-15T07:10:44Z</time>
      </trkpt>
      <trkpt lat="42.599348000" lon="-2.455556000">
        <ele>828.00</ele>
        <time>2016-10-15T07:10:45Z</time>
      </trkpt>
      <trkpt lat="42.599363000" lon="-2.455564000">
        <ele>828.40</ele>
        <time>2016-10-15T07:10:46Z</time>
      </trkpt>
      <trkpt lat="42.599378000" lon="-2.455567000">
        <ele>828.60</ele>
        <time>2016-10-15T07:10:47Z</time>
      </trkpt>
      <trkpt lat="42.599391000" lon="-2.455571000">
        <ele>828.80</ele>
        <time>2016-10-15T07:10:48Z</time>
      </trkpt>
      <trkpt lat="42.599404000" lon="-2.455575000">
        <ele>828.90</ele>
        <time>2016-10-15T07:10:49Z</time>
      </trkpt>
      <trkpt lat="42.599417000" lon="-2.455583000">
        <ele>829.10</ele>
        <time>2016-10-15T07:10:50Z</time>
      </trkpt>
      <trkpt lat="42.599431000" lon="-2.455588000">
        <ele>829.30</ele>
        <time>2016-10-15T07:10:51Z</time>
      </trkpt>
      <trkpt lat="42.599445000" lon="-2.455592000">
        <ele>829.40</ele>
        <time>2016-10-15T07:10:52Z</time>
      </trkpt>
      <trkpt lat="42.599459000" lon="-2.455596000">
        <ele>829.60</ele>
        <time>2016-10-15T07:10:53Z</time>
      </trkpt>
      <trkpt lat="42.599473000" lon="-2.455601000">
        <ele>829.80</ele>
        <time>2016-10-15T07:10:54Z</time>
      </trkpt>
      <trkpt lat="42.599488000" lon="-2.455609000">
        <ele>829.90</ele>
        <time>2016-10-15T07:10:55Z</time>
      </trkpt>
      <trkpt lat="42.599502000" lon="-2.455611000">
        <ele>830.00</ele>
        <time>2016-10-15T07:10:56Z</time>
      </trkpt>
      <trkpt lat="42.599513000" lon="-2.455620000">
        <ele>830.10</ele>
        <time>2016-10-15T07:10:57Z</time>
      </trkpt>
      <trkpt lat="42.599525000" lon="-2.455624000">
        <ele>830.40</ele>
        <time>2016-10-15T07:10:58Z</time>
      </trkpt>
      <trkpt lat="42.599554000" lon="-2.455645000">
        <ele>830.90</ele>
        <time>2016-10-15T07:11:00Z</time>
      </trkpt>
      <trkpt lat="42.599569000" lon="-2.455653000">
        <ele>831.10</ele>
        <time>2016-10-15T07:11:01Z</time>
      </trkpt>
      <trkpt lat="42.599584000" lon="-2.455658000">
        <ele>831.20</ele>
        <time>2016-10-15T07:11:02Z</time>
      </trkpt>
      <trkpt lat="42.599598000" lon="-2.455664000">
        <ele>831.40</ele>
        <time>2016-10-15T07:11:03Z</time>
      </trkpt>
      <trkpt lat="42.599610000" lon="-2.455671000">
        <ele>831.50</ele>
        <time>2016-10-15T07:11:04Z</time>
      </trkpt>
      <trkpt lat="42.599624000" lon="-2.455676000">
        <ele>831.60</ele>
        <time>2016-10-15T07:11:05Z</time>
      </trkpt>
      <trkpt lat="42.599636000" lon="-2.455689000">
        <ele>831.70</ele>
        <time>2016-10-15T07:11:06Z</time>
      </trkpt>
      <trkpt lat="42.599647000" lon="-2.455701000">
        <ele>831.80</ele>
        <time>2016-10-15T07:11:07Z</time>
      </trkpt>
      <trkpt lat="42.599658000" lon="-2.455715000">
        <ele>832.00</ele>
        <time>2016-10-15T07:11:08Z</time>
      </trkpt>
      <trkpt lat="42.599669000" lon="-2.455727000">
        <ele>832.10</ele>
        <time>2016-10-15T07:11:09Z</time>
      </trkpt>
      <trkpt lat="42.599682000" lon="-2.455738000">
        <ele>832.50</ele>
        <time>2016-10-15T07:11:10Z</time>
      </trkpt>
      <trkpt lat="42.599694000" lon="-2.455749000">
        <ele>832.80</ele>
        <time>2016-10-15T07:11:11Z</time>
      </trkpt>
      <trkpt lat="42.599706000" lon="-2.455758000">
        <ele>833.00</ele>
        <time>2016-10-15T07:11:12Z</time>
      </trkpt>
      <trkpt lat="42.599720000" lon="-2.455769000">
        <ele>833.00</ele>
        <time>2016-10-15T07:11:13Z</time>
      </trkpt>
      <trkpt lat="42.599734000" lon="-2.455774000">
        <ele>833.20</ele>
        <time>2016-10-15T07:11:14Z</time>
      </trkpt>
      <trkpt lat="42.599748000" lon="-2.455781000">
        <ele>833.40</ele>
        <time>2016-10-15T07:11:15Z</time>
      </trkpt>
      <trkpt lat="42.599761000" lon="-2.455787000">
        <ele>833.50</ele>
        <time>2016-10-15T07:11:16Z</time>
      </trkpt>
      <trkpt lat="42.599773000" lon="-2.455793000">
        <ele>833.60</ele>
        <time>2016-10-15T07:11:17Z</time>
      </trkpt>
      <trkpt lat="42.599783000" lon="-2.455802000">
        <ele>834.00</ele>
        <time>2016-10-15T07:11:18Z</time>
      </trkpt>
      <trkpt lat="42.599795000" lon="-2.455809000">
        <ele>834.20</ele>
        <time>2016-10-15T07:11:19Z</time>
      </trkpt>
      <trkpt lat="42.599808000" lon="-2.455817000">
        <ele>834.40</ele>
        <time>2016-10-15T07:11:20Z</time>
      </trkpt>
      <trkpt lat="42.599822000" lon="-2.455826000">
        <ele>834.60</ele>
        <time>2016-10-15T07:11:21Z</time>
      </trkpt>
      <trkpt lat="42.599838000" lon="-2.455837000">
        <ele>834.80</ele>
        <time>2016-10-15T07:11:22Z</time>
      </trkpt>
      <trkpt lat="42.599852000" lon="-2.455843000">
        <ele>834.90</ele>
        <time>2016-10-15T07:11:23Z</time>
      </trkpt>
      <trkpt lat="42.599867000" lon="-2.455853000">
        <ele>835.10</ele>
        <time>2016-10-15T07:11:24Z</time>
      </trkpt>
      <trkpt lat="42.599879000" lon="-2.455868000">
        <ele>835.20</ele>
        <time>2016-10-15T07:11:25Z</time>
      </trkpt>
      <trkpt lat="42.599891000" lon="-2.455876000">
        <ele>835.40</ele>
        <time>2016-10-15T07:11:26Z</time>
      </trkpt>
      <trkpt lat="42.599902000" lon="-2.455885000">
        <ele>835.60</ele>
        <time>2016-10-15T07:11:27Z</time>
      </trkpt>
      <trkpt lat="42.599914000" lon="-2.455896000">
        <ele>835.90</ele>
        <time>2016-10-15T07:11:28Z</time>
      </trkpt>
      <trkpt lat="42.599929000" lon="-2.455904000">
        <ele>836.10</ele>
        <time>2016-10-15T07:11:29Z</time>
      </trkpt>
      <trkpt lat="42.599944000" lon="-2.455912000">
        <ele>836.50</ele>
        <time>2016-10-15T07:11:30Z</time>
      </trkpt>
      <trkpt lat="42.599960000" lon="-2.455923000">
        <ele>836.70</ele>
        <time>2016-10-15T07:11:31Z</time>
      </trkpt>
      <trkpt lat="42.599976000" lon="-2.455929000">
        <ele>837.10</ele>
        <time>2016-10-15T07:11:32Z</time>
      </trkpt>
      <trkpt lat="42.599992000" lon="-2.455936000">
        <ele>837.40</ele>
        <time>2016-10-15T07:11:33Z</time>
      </trkpt>
      <trkpt lat="42.600007000" lon="-2.455944000">
        <ele>837.80</ele>
        <time>2016-10-15T07:11:34Z</time>
      </trkpt>
      <trkpt lat="42.600023000" lon="-2.455952000">
        <ele>838.10</ele>
        <time>2016-10-15T07:11:35Z</time>
      </trkpt>
      <trkpt lat="42.600039000" lon="-2.455961000">
        <ele>838.30</ele>
        <time>2016-10-15T07:11:36Z</time>
      </trkpt>
      <trkpt lat="42.600055000" lon="-2.455969000">
        <ele>838.40</ele>
        <time>2016-10-15T07:11:37Z</time>
      </trkpt>
      <trkpt lat="42.600070000" lon="-2.455979000">
        <ele>838.60</ele>
        <time>2016-10-15T07:11:38Z</time>
      </trkpt>
      <trkpt lat="42.600086000" lon="-2.455986000">
        <ele>838.70</ele>
        <time>2016-10-15T07:11:39Z</time>
      </trkpt>
      <trkpt lat="42.600102000" lon="-2.455993000">
        <ele>839.10</ele>
        <time>2016-10-15T07:11:40Z</time>
      </trkpt>
      <trkpt lat="42.600116000" lon="-2.456001000">
        <ele>839.40</ele>
        <time>2016-10-15T07:11:41Z</time>
      </trkpt>
      <trkpt lat="42.600133000" lon="-2.456005000">
        <ele>839.90</ele>
        <time>2016-10-15T07:11:42Z</time>
      </trkpt>
      <trkpt lat="42.600147000" lon="-2.456009000">
        <ele>840.30</ele>
        <time>2016-10-15T07:11:43Z</time>
      </trkpt>
      <trkpt lat="42.600162000" lon="-2.456016000">
        <ele>840.60</ele>
        <time>2016-10-15T07:11:44Z</time>
      </trkpt>
      <trkpt lat="42.600178000" lon="-2.456023000">
        <ele>840.90</ele>
        <time>2016-10-15T07:11:45Z</time>
      </trkpt>
      <trkpt lat="42.600196000" lon="-2.456025000">
        <ele>841.20</ele>
        <time>2016-10-15T07:11:46Z</time>
      </trkpt>
      <trkpt lat="42.600210000" lon="-2.456029000">
        <ele>841.40</ele>
        <time>2016-10-15T07:11:47Z</time>
      </trkpt>
      <trkpt lat="42.600224000" lon="-2.456036000">
        <ele>841.50</ele>
        <time>2016-10-15T07:11:48Z</time>
      </trkpt>
      <trkpt lat="42.600237000" lon="-2.456041000">
        <ele>841.70</ele>
        <time>2016-10-15T07:11:49Z</time>
      </trkpt>
      <trkpt lat="42.600249000" lon="-2.456048000">
        <ele>842.20</ele>
        <time>2016-10-15T07:11:50Z</time>
      </trkpt>
      <trkpt lat="42.600264000" lon="-2.456057000">
        <ele>842.60</ele>
        <time>2016-10-15T07:11:51Z</time>
      </trkpt>
      <trkpt lat="42.600278000" lon="-2.456070000">
        <ele>843.00</ele>
        <time>2016-10-15T07:11:52Z</time>
      </trkpt>
      <trkpt lat="42.600289000" lon="-2.456082000">
        <ele>843.30</ele>
        <time>2016-10-15T07:11:53Z</time>
      </trkpt>
      <trkpt lat="42.600299000" lon="-2.456096000">
        <ele>843.70</ele>
        <time>2016-10-15T07:11:54Z</time>
      </trkpt>
      <trkpt lat="42.600311000" lon="-2.456111000">
        <ele>844.00</ele>
        <time>2016-10-15T07:11:55Z</time>
      </trkpt>
      <trkpt lat="42.600323000" lon="-2.456123000">
        <ele>844.20</ele>
        <time>2016-10-15T07:11:56Z</time>
      </trkpt>
      <trkpt lat="42.600336000" lon="-2.456133000">
        <ele>844.30</ele>
        <time>2016-10-15T07:11:57Z</time>
      </trkpt>
      <trkpt lat="42.600349000" lon="-2.456150000">
        <ele>844.70</ele>
        <time>2016-10-15T07:11:58Z</time>
      </trkpt>
      <trkpt lat="42.600359000" lon="-2.456164000">
        <ele>845.00</ele>
        <time>2016-10-15T07:11:59Z</time>
      </trkpt>
      <trkpt lat="42.600369000" lon="-2.456181000">
        <ele>845.40</ele>
        <time>2016-10-15T07:12:00Z</time>
      </trkpt>
      <trkpt lat="42.600382000" lon="-2.456217000">
        <ele>845.90</ele>
        <time>2016-10-15T07:12:02Z</time>
      </trkpt>
      <trkpt lat="42.600387000" lon="-2.456237000">
        <ele>846.00</ele>
        <time>2016-10-15T07:12:03Z</time>
      </trkpt>
      <trkpt lat="42.600390000" lon="-2.456257000">
        <ele>846.40</ele>
        <time>2016-10-15T07:12:04Z</time>
      </trkpt>
      <trkpt lat="42.600393000" lon="-2.456278000">
        <ele>846.70</ele>
        <time>2016-10-15T07:12:05Z</time>
      </trkpt>
      <trkpt lat="42.600398000" lon="-2.456300000">
        <ele>847.20</ele>
        <time>2016-10-15T07:12:06Z</time>
      </trkpt>
      <trkpt lat="42.600402000" lon="-2.456320000">
        <ele>847.50</ele>
        <time>2016-10-15T07:12:07Z</time>
      </trkpt>
      <trkpt lat="42.600404000" lon="-2.456343000">
        <ele>847.80</ele>
        <time>2016-10-15T07:12:08Z</time>
      </trkpt>
      <trkpt lat="42.600403000" lon="-2.456365000">
        <ele>848.00</ele>
        <time>2016-10-15T07:12:09Z</time>
      </trkpt>
      <trkpt lat="42.600405000" lon="-2.456388000">
        <ele>848.40</ele>
        <time>2016-10-15T07:12:10Z</time>
      </trkpt>
      <trkpt lat="42.600410000" lon="-2.456406000">
        <ele>848.60</ele>
        <time>2016-10-15T07:12:11Z</time>
      </trkpt>
      <trkpt lat="42.600414000" lon="-2.456424000">
        <ele>849.00</ele>
        <time>2016-10-15T07:12:12Z</time>
      </trkpt>
      <trkpt lat="42.600417000" lon="-2.456442000">
        <ele>849.30</ele>
        <time>2016-10-15T07:12:13Z</time>
      </trkpt>
      <trkpt lat="42.600418000" lon="-2.456461000">
        <ele>849.60</ele>
        <time>2016-10-15T07:12:14Z</time>
      </trkpt>
      <trkpt lat="42.600417000" lon="-2.456484000">
        <ele>849.80</ele>
        <time>2016-10-15T07:12:15Z</time>
      </trkpt>
      <trkpt lat="42.600412000" lon="-2.456503000">
        <ele>850.00</ele>
        <time>2016-10-15T07:12:16Z</time>
      </trkpt>
      <trkpt lat="42.600409000" lon="-2.456522000">
        <ele>850.20</ele>
        <time>2016-10-15T07:12:17Z</time>
      </trkpt>
      <trkpt lat="42.600409000" lon="-2.456543000">
        <ele>850.30</ele>
        <time>2016-10-15T07:12:18Z</time>
      </trkpt>
      <trkpt lat="42.600407000" lon="-2.456566000">
        <ele>850.40</ele>
        <time>2016-10-15T07:12:19Z</time>
      </trkpt>
      <trkpt lat="42.600404000" lon="-2.456588000">
        <ele>850.50</ele>
        <time>2016-10-15T07:12:20Z</time>
      </trkpt>
      <trkpt lat="42.600405000" lon="-2.456609000">
        <ele>850.60</ele>
        <time>2016-10-15T07:12:21Z</time>
      </trkpt>
      <trkpt lat="42.600402000" lon="-2.456627000">
        <ele>850.80</ele>
        <time>2016-10-15T07:12:22Z</time>
      </trkpt>
      <trkpt lat="42.600399000" lon="-2.456647000">
        <ele>850.90</ele>
        <time>2016-10-15T07:12:23Z</time>
      </trkpt>
      <trkpt lat="42.600398000" lon="-2.456668000">
        <ele>851.00</ele>
        <time>2016-10-15T07:12:24Z</time>
      </trkpt>
      <trkpt lat="42.600398000" lon="-2.456691000">
        <ele>851.20</ele>
        <time>2016-10-15T07:12:25Z</time>
      </trkpt>
      <trkpt lat="42.600395000" lon="-2.456712000">
        <ele>851.30</ele>
        <time>2016-10-15T07:12:26Z</time>
      </trkpt>
      <trkpt lat="42.600390000" lon="-2.456730000">
        <ele>851.30</ele>
        <time>2016-10-15T07:12:27Z</time>
      </trkpt>
      <trkpt lat="42.600387000" lon="-2.456756000">
        <ele>851.40</ele>
        <time>2016-10-15T07:12:28Z</time>
      </trkpt>
      <trkpt lat="42.600385000" lon="-2.456776000">
        <ele>851.40</ele>
        <time>2016-10-15T07:12:29Z</time>
      </trkpt>
      <trkpt lat="42.600384000" lon="-2.456800000">
        <ele>851.50</ele>
        <time>2016-10-15T07:12:30Z</time>
      </trkpt>
      <trkpt lat="42.600383000" lon="-2.456824000">
        <ele>851.50</ele>
        <time>2016-10-15T07:12:31Z</time>
      </trkpt>
      <trkpt lat="42.600382000" lon="-2.456847000">
        <ele>851.40</ele>
        <time>2016-10-15T07:12:32Z</time>
      </trkpt>
      <trkpt lat="42.600379000" lon="-2.456872000">
        <ele>851.30</ele>
        <time>2016-10-15T07:12:33Z</time>
      </trkpt>
      <trkpt lat="42.600376000" lon="-2.456894000">
        <ele>851.30</ele>
        <time>2016-10-15T07:12:34Z</time>
      </trkpt>
      <trkpt lat="42.600376000" lon="-2.456919000">
        <ele>851.20</ele>
        <time>2016-10-15T07:12:35Z</time>
      </trkpt>
      <trkpt lat="42.600374000" lon="-2.456946000">
        <ele>851.20</ele>
        <time>2016-10-15T07:12:36Z</time>
      </trkpt>
      <trkpt lat="42.600372000" lon="-2.456969000">
        <ele>851.20</ele>
        <time>2016-10-15T07:12:37Z</time>
      </trkpt>
      <trkpt lat="42.600368000" lon="-2.456992000">
        <ele>851.30</ele>
        <time>2016-10-15T07:12:38Z</time>
      </trkpt>
      <trkpt lat="42.600364000" lon="-2.457016000">
        <ele>851.40</ele>
        <time>2016-10-15T07:12:39Z</time>
      </trkpt>
      <trkpt lat="42.600360000" lon="-2.457039000">
        <ele>851.60</ele>
        <time>2016-10-15T07:12:40Z</time>
      </trkpt>
      <trkpt lat="42.600357000" lon="-2.457063000">
        <ele>851.70</ele>
        <time>2016-10-15T07:12:41Z</time>
      </trkpt>
      <trkpt lat="42.600354000" lon="-2.457086000">
        <ele>851.90</ele>
        <time>2016-10-15T07:12:42Z</time>
      </trkpt>
      <trkpt lat="42.600347000" lon="-2.457108000">
        <ele>852.00</ele>
        <time>2016-10-15T07:12:43Z</time>
      </trkpt>
      <trkpt lat="42.600344000" lon="-2.457130000">
        <ele>852.10</ele>
        <time>2016-10-15T07:12:44Z</time>
      </trkpt>
      <trkpt lat="42.600342000" lon="-2.457154000">
        <ele>852.10</ele>
        <time>2016-10-15T07:12:45Z</time>
      </trkpt>
      <trkpt lat="42.600338000" lon="-2.457177000">
        <ele>852.20</ele>
        <time>2016-10-15T07:12:46Z</time>
      </trkpt>
      <trkpt lat="42.600332000" lon="-2.457203000">
        <ele>852.20</ele>
        <time>2016-10-15T07:12:47Z</time>
      </trkpt>
      <trkpt lat="42.600330000" lon="-2.457227000">
        <ele>852.20</ele>
        <time>2016-10-15T07:12:48Z</time>
      </trkpt>
      <trkpt lat="42.600328000" lon="-2.457253000">
        <ele>852.20</ele>
        <time>2016-10-15T07:12:49Z</time>
      </trkpt>
      <trkpt lat="42.600323000" lon="-2.457277000">
        <ele>852.20</ele>
        <time>2016-10-15T07:12:50Z</time>
      </trkpt>
      <trkpt lat="42.600321000" lon="-2.457302000">
        <ele>852.30</ele>
        <time>2016-10-15T07:12:51Z</time>
      </trkpt>
      <trkpt lat="42.600317000" lon="-2.457327000">
        <ele>852.30</ele>
        <time>2016-10-15T07:12:52Z</time>
      </trkpt>
      <trkpt lat="42.600316000" lon="-2.457351000">
        <ele>852.30</ele>
        <time>2016-10-15T07:12:53Z</time>
      </trkpt>
      <trkpt lat="42.600315000" lon="-2.457375000">
        <ele>852.40</ele>
        <time>2016-10-15T07:12:54Z</time>
      </trkpt>
      <trkpt lat="42.600310000" lon="-2.457397000">
        <ele>852.40</ele>
        <time>2016-10-15T07:12:55Z</time>
      </trkpt>
      <trkpt lat="42.600309000" lon="-2.457420000">
        <ele>852.50</ele>
        <time>2016-10-15T07:12:56Z</time>
      </trkpt>
      <trkpt lat="42.600307000" lon="-2.457445000">
        <ele>852.50</ele>
        <time>2016-10-15T07:12:57Z</time>
      </trkpt>
      <trkpt lat="42.600304000" lon="-2.457471000">
        <ele>852.60</ele>
        <time>2016-10-15T07:12:58Z</time>
      </trkpt>
      <trkpt lat="42.600302000" lon="-2.457491000">
        <ele>852.60</ele>
        <time>2016-10-15T07:12:59Z</time>
      </trkpt>
      <trkpt lat="42.600299000" lon="-2.457516000">
        <ele>852.60</ele>
        <time>2016-10-15T07:13:00Z</time>
      </trkpt>
      <trkpt lat="42.600296000" lon="-2.457542000">
        <ele>852.60</ele>
        <time>2016-10-15T07:13:01Z</time>
      </trkpt>
      <trkpt lat="42.600294000" lon="-2.457570000">
        <ele>852.60</ele>
        <time>2016-10-15T07:13:02Z</time>
      </trkpt>
      <trkpt lat="42.600285000" lon="-2.457622000">
        <ele>852.60</ele>
        <time>2016-10-15T07:13:04Z</time>
      </trkpt>
      <trkpt lat="42.600282000" lon="-2.457646000">
        <ele>852.70</ele>
        <time>2016-10-15T07:13:05Z</time>
      </trkpt>
      <trkpt lat="42.600277000" lon="-2.457676000">
        <ele>852.70</ele>
        <time>2016-10-15T07:13:06Z</time>
      </trkpt>
      <trkpt lat="42.600274000" lon="-2.457706000">
        <ele>852.70</ele>
        <time>2016-10-15T07:13:07Z</time>
      </trkpt>
      <trkpt lat="42.600271000" lon="-2.457736000">
        <ele>852.80</ele>
        <time>2016-10-15T07:13:08Z</time>
      </trkpt>
      <trkpt lat="42.600269000" lon="-2.457766000">
        <ele>852.90</ele>
        <time>2016-10-15T07:13:09Z</time>
      </trkpt>
      <trkpt lat="42.600264000" lon="-2.457797000">
        <ele>853.00</ele>
        <time>2016-10-15T07:13:10Z</time>
      </trkpt>
      <trkpt lat="42.600258000" lon="-2.457829000">
        <ele>853.00</ele>
        <time>2016-10-15T07:13:11Z</time>
      </trkpt>
      <trkpt lat="42.600253000" lon="-2.457860000">
        <ele>853.10</ele>
        <time>2016-10-15T07:13:12Z</time>
      </trkpt>
      <trkpt lat="42.600246000" lon="-2.457891000">
        <ele>853.20</ele>
        <time>2016-10-15T07:13:13Z</time>
      </trkpt>
      <trkpt lat="42.600244000" lon="-2.457922000">
        <ele>853.30</ele>
        <time>2016-10-15T07:13:14Z</time>
      </trkpt>
      <trkpt lat="42.600241000" lon="-2.457955000">
        <ele>853.40</ele>
        <time>2016-10-15T07:13:15Z</time>
      </trkpt>
      <trkpt lat="42.600237000" lon="-2.457988000">
        <ele>853.40</ele>
        <time>2016-10-15T07:13:16Z</time>
      </trkpt>
      <trkpt lat="42.600235000" lon="-2.458021000">
        <ele>853.40</ele>
        <time>2016-10-15T07:13:17Z</time>
      </trkpt>
      <trkpt lat="42.600230000" lon="-2.458052000">
        <ele>853.50</ele>
        <time>2016-10-15T07:13:18Z</time>
      </trkpt>
      <trkpt lat="42.600224000" lon="-2.458082000">
        <ele>853.60</ele>
        <time>2016-10-15T07:13:19Z</time>
      </trkpt>
      <trkpt lat="42.600220000" lon="-2.458112000">
        <ele>853.60</ele>
        <time>2016-10-15T07:13:20Z</time>
      </trkpt>
      <trkpt lat="42.600215000" lon="-2.458142000">
        <ele>853.60</ele>
        <time>2016-10-15T07:13:21Z</time>
      </trkpt>
      <trkpt lat="42.600210000" lon="-2.458175000">
        <ele>853.70</ele>
        <time>2016-10-15T07:13:22Z</time>
      </trkpt>
      <trkpt lat="42.600209000" lon="-2.458208000">
        <ele>853.80</ele>
        <time>2016-10-15T07:13:23Z</time>
      </trkpt>
      <trkpt lat="42.600204000" lon="-2.458239000">
        <ele>853.80</ele>
        <time>2016-10-15T07:13:24Z</time>
      </trkpt>
      <trkpt lat="42.600201000" lon="-2.458270000">
        <ele>853.80</ele>
        <time>2016-10-15T07:13:25Z</time>
      </trkpt>
      <trkpt lat="42.600196000" lon="-2.458302000">
        <ele>853.90</ele>
        <time>2016-10-15T07:13:26Z</time>
      </trkpt>
      <trkpt lat="42.600191000" lon="-2.458335000">
        <ele>854.10</ele>
        <time>2016-10-15T07:13:27Z</time>
      </trkpt>
      <trkpt lat="42.600187000" lon="-2.458371000">
        <ele>854.10</ele>
        <time>2016-10-15T07:13:28Z</time>
      </trkpt>
      <trkpt lat="42.600182000" lon="-2.458410000">
        <ele>854.20</ele>
        <time>2016-10-15T07:13:29Z</time>
      </trkpt>
      <trkpt lat="42.600176000" lon="-2.458452000">
        <ele>854.30</ele>
        <time>2016-10-15T07:13:30Z</time>
      </trkpt>
      <trkpt lat="42.600171000" lon="-2.458493000">
        <ele>854.30</ele>
        <time>2016-10-15T07:13:31Z</time>
      </trkpt>
      <trkpt lat="42.600167000" lon="-2.458537000">
        <ele>854.20</ele>
        <time>2016-10-15T07:13:32Z</time>
      </trkpt>
      <trkpt lat="42.600162000" lon="-2.458582000">
        <ele>854.10</ele>
        <time>2016-10-15T07:13:33Z</time>
      </trkpt>
      <trkpt lat="42.600158000" lon="-2.458631000">
        <ele>854.00</ele>
        <time>2016-10-15T07:13:34Z</time>
      </trkpt>
      <trkpt lat="42.600153000" lon="-2.458684000">
        <ele>853.90</ele>
        <time>2016-10-15T07:13:35Z</time>
      </trkpt>
      <trkpt lat="42.600147000" lon="-2.458738000">
        <ele>853.90</ele>
        <time>2016-10-15T07:13:36Z</time>
      </trkpt>
      <trkpt lat="42.600142000" lon="-2.458796000">
        <ele>853.80</ele>
        <time>2016-10-15T07:13:37Z</time>
      </trkpt>
      <trkpt lat="42.600133000" lon="-2.458856000">
        <ele>853.60</ele>
        <time>2016-10-15T07:13:38Z</time>
      </trkpt>
      <trkpt lat="42.600125000" lon="-2.458920000">
        <ele>853.40</ele>
        <time>2016-10-15T07:13:39Z</time>
      </trkpt>
      <trkpt lat="42.600116000" lon="-2.458990000">
        <ele>853.10</ele>
        <time>2016-10-15T07:13:40Z</time>
      </trkpt>
      <trkpt lat="42.600106000" lon="-2.459061000">
        <ele>852.90</ele>
        <time>2016-10-15T07:13:41Z</time>
      </trkpt>
      <trkpt lat="42.600096000" lon="-2.459138000">
        <ele>852.70</ele>
        <time>2016-10-15T07:13:42Z</time>
      </trkpt>
      <trkpt lat="42.600086000" lon="-2.459221000">
        <ele>852.60</ele>
        <time>2016-10-15T07:13:43Z</time>
      </trkpt>
      <trkpt lat="42.600077000" lon="-2.459305000">
        <ele>852.10</ele>
        <time>2016-10-15T07:13:44Z</time>
      </trkpt>
      <trkpt lat="42.600067000" lon="-2.459392000">
        <ele>851.80</ele>
        <time>2016-10-15T07:13:45Z</time>
      </trkpt>
      <trkpt lat="42.600055000" lon="-2.459478000">
        <ele>851.40</ele>
        <time>2016-10-15T07:13:46Z</time>
      </trkpt>
      <trkpt lat="42.600045000" lon="-2.459564000">
        <ele>851.10</ele>
        <time>2016-10-15T07:13:47Z</time>
      </trkpt>
      <trkpt lat="42.600035000" lon="-2.459647000">
        <ele>850.90</ele>
        <time>2016-10-15T07:13:48Z</time>
      </trkpt>
      <trkpt lat="42.600025000" lon="-2.459730000">
        <ele>850.70</ele>
        <time>2016-10-15T07:13:49Z</time>
      </trkpt>
      <trkpt lat="42.600012000" lon="-2.459811000">
        <ele>850.60</ele>
        <time>2016-10-15T07:13:50Z</time>
      </trkpt>
      <trkpt lat="42.600000000" lon="-2.459886000">
        <ele>850.50</ele>
        <time>2016-10-15T07:13:51Z</time>
      </trkpt>
      <trkpt lat="42.599992000" lon="-2.459953000">
        <ele>850.50</ele>
        <time>2016-10-15T07:13:52Z</time>
      </trkpt>
      <trkpt lat="42.599983000" lon="-2.460012000">
        <ele>850.50</ele>
        <time>2016-10-15T07:13:53Z</time>
      </trkpt>
      <trkpt lat="42.599975000" lon="-2.460064000">
        <ele>850.50</ele>
        <time>2016-10-15T07:13:54Z</time>
      </trkpt>
      <trkpt lat="42.599970000" lon="-2.460112000">
        <ele>850.50</ele>
        <time>2016-10-15T07:13:55Z</time>
      </trkpt>
      <trkpt lat="42.599965000" lon="-2.460155000">
        <ele>850.70</ele>
        <time>2016-10-15T07:13:56Z</time>
      </trkpt>
      <trkpt lat="42.599962000" lon="-2.460195000">
        <ele>850.90</ele>
        <time>2016-10-15T07:13:57Z</time>
      </trkpt>
      <trkpt lat="42.599954000" lon="-2.460232000">
        <ele>851.10</ele>
        <time>2016-10-15T07:13:58Z</time>
      </trkpt>
      <trkpt lat="42.599945000" lon="-2.460271000">
        <ele>851.30</ele>
        <time>2016-10-15T07:13:59Z</time>
      </trkpt>
      <trkpt lat="42.599940000" lon="-2.460305000">
        <ele>851.70</ele>
        <time>2016-10-15T07:14:00Z</time>
      </trkpt>
      <trkpt lat="42.599935000" lon="-2.460340000">
        <ele>852.00</ele>
        <time>2016-10-15T07:14:01Z</time>
      </trkpt>
      <trkpt lat="42.599930000" lon="-2.460377000">
        <ele>852.40</ele>
        <time>2016-10-15T07:14:02Z</time>
      </trkpt>
      <trkpt lat="42.599925000" lon="-2.460413000">
        <ele>852.80</ele>
        <time>2016-10-15T07:14:03Z</time>
      </trkpt>
      <trkpt lat="42.599920000" lon="-2.460492000">
        <ele>853.30</ele>
        <time>2016-10-15T07:14:05Z</time>
      </trkpt>
      <trkpt lat="42.599915000" lon="-2.460531000">
        <ele>853.70</ele>
        <time>2016-10-15T07:14:06Z</time>
      </trkpt>
      <trkpt lat="42.599912000" lon="-2.460571000">
        <ele>854.00</ele>
        <time>2016-10-15T07:14:07Z</time>
      </trkpt>
      <trkpt lat="42.599907000" lon="-2.460606000">
        <ele>854.30</ele>
        <time>2016-10-15T07:14:08Z</time>
      </trkpt>
      <trkpt lat="42.599904000" lon="-2.460641000">
        <ele>854.50</ele>
        <time>2016-10-15T07:14:09Z</time>
      </trkpt>
      <trkpt lat="42.599901000" lon="-2.460676000">
        <ele>854.90</ele>
        <time>2016-10-15T07:14:10Z</time>
      </trkpt>
      <trkpt lat="42.599897000" lon="-2.460712000">
        <ele>855.20</ele>
        <time>2016-10-15T07:14:11Z</time>
      </trkpt>
      <trkpt lat="42.599888000" lon="-2.460746000">
        <ele>855.40</ele>
        <time>2016-10-15T07:14:12Z</time>
      </trkpt>
      <trkpt lat="42.599887000" lon="-2.460784000">
        <ele>855.60</ele>
        <time>2016-10-15T07:14:13Z</time>
      </trkpt>
      <trkpt lat="42.599884000" lon="-2.460818000">
        <ele>856.00</ele>
        <time>2016-10-15T07:14:14Z</time>
      </trkpt>
      <trkpt lat="42.599879000" lon="-2.460853000">
        <ele>856.30</ele>
        <time>2016-10-15T07:14:15Z</time>
      </trkpt>
      <trkpt lat="42.599872000" lon="-2.460891000">
        <ele>856.60</ele>
        <time>2016-10-15T07:14:16Z</time>
      </trkpt>
      <trkpt lat="42.599868000" lon="-2.460928000">
        <ele>856.80</ele>
        <time>2016-10-15T07:14:17Z</time>
      </trkpt>
      <trkpt lat="42.599863000" lon="-2.460964000">
        <ele>857.00</ele>
        <time>2016-10-15T07:14:18Z</time>
      </trkpt>
      <trkpt lat="42.599859000" lon="-2.460998000">
        <ele>857.20</ele>
        <time>2016-10-15T07:14:19Z</time>
      </trkpt>
      <trkpt lat="42.599856000" lon="-2.461033000">
        <ele>857.30</ele>
        <time>2016-10-15T07:14:20Z</time>
      </trkpt>
      <trkpt lat="42.599852000" lon="-2.461070000">
        <ele>857.40</ele>
        <time>2016-10-15T07:14:21Z</time>
      </trkpt>
      <trkpt lat="42.599848000" lon="-2.461108000">
        <ele>857.60</ele>
        <time>2016-10-15T07:14:22Z</time>
      </trkpt>
      <trkpt lat="42.599844000" lon="-2.461146000">
        <ele>857.70</ele>
        <time>2016-10-15T07:14:23Z</time>
      </trkpt>
      <trkpt lat="42.599840000" lon="-2.461183000">
        <ele>858.00</ele>
        <time>2016-10-15T07:14:24Z</time>
      </trkpt>
      <trkpt lat="42.599835000" lon="-2.461220000">
        <ele>858.20</ele>
        <time>2016-10-15T07:14:25Z</time>
      </trkpt>
      <trkpt lat="42.599832000" lon="-2.461259000">
        <ele>858.40</ele>
        <time>2016-10-15T07:14:26Z</time>
      </trkpt>
      <trkpt lat="42.599826000" lon="-2.461301000">
        <ele>858.60</ele>
        <time>2016-10-15T07:14:27Z</time>
      </trkpt>
      <trkpt lat="42.599823000" lon="-2.461340000">
        <ele>858.70</ele>
        <time>2016-10-15T07:14:28Z</time>
      </trkpt>
      <trkpt lat="42.599819000" lon="-2.461377000">
        <ele>858.80</ele>
        <time>2016-10-15T07:14:29Z</time>
      </trkpt>
      <trkpt lat="42.599818000" lon="-2.461413000">
        <ele>858.90</ele>
        <time>2016-10-15T07:14:30Z</time>
      </trkpt>
      <trkpt lat="42.599816000" lon="-2.461451000">
        <ele>859.00</ele>
        <time>2016-10-15T07:14:31Z</time>
      </trkpt>
      <trkpt lat="42.599809000" lon="-2.461487000">
        <ele>859.00</ele>
        <time>2016-10-15T07:14:32Z</time>
      </trkpt>
      <trkpt lat="42.599805000" lon="-2.461531000">
        <ele>859.00</ele>
        <time>2016-10-15T07:14:33Z</time>
      </trkpt>
      <trkpt lat="42.599799000" lon="-2.461569000">
        <ele>859.00</ele>
        <time>2016-10-15T07:14:34Z</time>
      </trkpt>
      <trkpt lat="42.599795000" lon="-2.461607000">
        <ele>859.00</ele>
        <time>2016-10-15T07:14:35Z</time>
      </trkpt>
      <trkpt lat="42.599793000" lon="-2.461649000">
        <ele>859.10</ele>
        <time>2016-10-15T07:14:36Z</time>
      </trkpt>
      <trkpt lat="42.599789000" lon="-2.461688000">
        <ele>859.10</ele>
        <time>2016-10-15T07:14:37Z</time>
      </trkpt>
      <trkpt lat="42.599784000" lon="-2.461726000">
        <ele>859.20</ele>
        <time>2016-10-15T07:14:38Z</time>
      </trkpt>
      <trkpt lat="42.599781000" lon="-2.461764000">
        <ele>859.20</ele>
        <time>2016-10-15T07:14:39Z</time>
      </trkpt>
      <trkpt lat="42.599778000" lon="-2.461800000">
        <ele>859.30</ele>
        <time>2016-10-15T07:14:40Z</time>
      </trkpt>
      <trkpt lat="42.599773000" lon="-2.461837000">
        <ele>859.30</ele>
        <time>2016-10-15T07:14:41Z</time>
      </trkpt>
      <trkpt lat="42.599768000" lon="-2.461875000">
        <ele>859.30</ele>
        <time>2016-10-15T07:14:42Z</time>
      </trkpt>
      <trkpt lat="42.599762000" lon="-2.461911000">
        <ele>859.30</ele>
        <time>2016-10-15T07:14:43Z</time>
      </trkpt>
      <trkpt lat="42.599758000" lon="-2.461949000">
        <ele>859.30</ele>
        <time>2016-10-15T07:14:44Z</time>
      </trkpt>
      <trkpt lat="42.599752000" lon="-2.461985000">
        <ele>859.40</ele>
        <time>2016-10-15T07:14:45Z</time>
      </trkpt>
      <trkpt lat="42.599745000" lon="-2.462021000">
        <ele>859.40</ele>
        <time>2016-10-15T07:14:46Z</time>
      </trkpt>
      <trkpt lat="42.599735000" lon="-2.462058000">
        <ele>859.40</ele>
        <time>2016-10-15T07:14:47Z</time>
      </trkpt>
      <trkpt lat="42.599731000" lon="-2.462094000">
        <ele>859.50</ele>
        <time>2016-10-15T07:14:48Z</time>
      </trkpt>
      <trkpt lat="42.599728000" lon="-2.462129000">
        <ele>859.50</ele>
        <time>2016-10-15T07:14:49Z</time>
      </trkpt>
      <trkpt lat="42.599726000" lon="-2.462163000">
        <ele>859.70</ele>
        <time>2016-10-15T07:14:50Z</time>
      </trkpt>
      <trkpt lat="42.599721000" lon="-2.462201000">
        <ele>859.80</ele>
        <time>2016-10-15T07:14:51Z</time>
      </trkpt>
      <trkpt lat="42.599713000" lon="-2.462238000">
        <ele>860.00</ele>
        <time>2016-10-15T07:14:52Z</time>
      </trkpt>
      <trkpt lat="42.599708000" lon="-2.462274000">
        <ele>860.00</ele>
        <time>2016-10-15T07:14:53Z</time>
      </trkpt>
      <trkpt lat="42.599703000" lon="-2.462310000">
        <ele>860.10</ele>
        <time>2016-10-15T07:14:54Z</time>
      </trkpt>
      <trkpt lat="42.599698000" lon="-2.462348000">
        <ele>860.20</ele>
        <time>2016-10-15T07:14:55Z</time>
      </trkpt>
      <trkpt lat="42.599694000" lon="-2.462388000">
        <ele>860.30</ele>
        <time>2016-10-15T07:14:56Z</time>
      </trkpt>
      <trkpt lat="42.599690000" lon="-2.462425000">
        <ele>860.40</ele>
        <time>2016-10-15T07:14:57Z</time>
      </trkpt>
      <trkpt lat="42.599686000" lon="-2.462463000">
        <ele>860.50</ele>
        <time>2016-10-15T07:14:58Z</time>
      </trkpt>
      <trkpt lat="42.599680000" lon="-2.462499000">
        <ele>860.60</ele>
        <time>2016-10-15T07:14:59Z</time>
      </trkpt>
      <trkpt lat="42.599674000" lon="-2.462536000">
        <ele>860.80</ele>
        <time>2016-10-15T07:15:00Z</time>
      </trkpt>
      <trkpt lat="42.599669000" lon="-2.462574000">
        <ele>861.00</ele>
        <time>2016-10-15T07:15:01Z</time>
      </trkpt>
      <trkpt lat="42.599665000" lon="-2.462612000">
        <ele>861.20</ele>
        <time>2016-10-15T07:15:02Z</time>
      </trkpt>
      <trkpt lat="42.599662000" lon="-2.462647000">
        <ele>861.30</ele>
        <time>2016-10-15T07:15:03Z</time>
      </trkpt>
      <trkpt lat="42.599659000" lon="-2.462683000">
        <ele>861.50</ele>
        <time>2016-10-15T07:15:04Z</time>
      </trkpt>
      <trkpt lat="42.599655000" lon="-2.462721000">
        <ele>861.60</ele>
        <time>2016-10-15T07:15:05Z</time>
      </trkpt>
      <trkpt lat="42.599649000" lon="-2.462795000">
        <ele>861.90</ele>
        <time>2016-10-15T07:15:07Z</time>
      </trkpt>
      <trkpt lat="42.599643000" lon="-2.462832000">
        <ele>862.00</ele>
        <time>2016-10-15T07:15:08Z</time>
      </trkpt>
      <trkpt lat="42.599638000" lon="-2.462871000">
        <ele>862.10</ele>
        <time>2016-10-15T07:15:09Z</time>
      </trkpt>
      <trkpt lat="42.599632000" lon="-2.462910000">
        <ele>862.20</ele>
        <time>2016-10-15T07:15:10Z</time>
      </trkpt>
      <trkpt lat="42.599625000" lon="-2.462947000">
        <ele>862.20</ele>
        <time>2016-10-15T07:15:11Z</time>
      </trkpt>
      <trkpt lat="42.599619000" lon="-2.462984000">
        <ele>862.50</ele>
        <time>2016-10-15T07:15:12Z</time>
      </trkpt>
      <trkpt lat="42.599614000" lon="-2.463022000">
        <ele>862.70</ele>
        <time>2016-10-15T07:15:13Z</time>
      </trkpt>
      <trkpt lat="42.599610000" lon="-2.463059000">
        <ele>862.90</ele>
        <time>2016-10-15T07:15:14Z</time>
      </trkpt>
      <trkpt lat="42.599604000" lon="-2.463095000">
        <ele>863.00</ele>
        <time>2016-10-15T07:15:15Z</time>
      </trkpt>
      <trkpt lat="42.599600000" lon="-2.463133000">
        <ele>863.20</ele>
        <time>2016-10-15T07:15:16Z</time>
      </trkpt>
      <trkpt lat="42.599595000" lon="-2.463170000">
        <ele>863.20</ele>
        <time>2016-10-15T07:15:17Z</time>
      </trkpt>
      <trkpt lat="42.599592000" lon="-2.463211000">
        <ele>863.30</ele>
        <time>2016-10-15T07:15:18Z</time>
      </trkpt>
      <trkpt lat="42.599591000" lon="-2.463252000">
        <ele>863.40</ele>
        <time>2016-10-15T07:15:19Z</time>
      </trkpt>
      <trkpt lat="42.599588000" lon="-2.463292000">
        <ele>863.50</ele>
        <time>2016-10-15T07:15:20Z</time>
      </trkpt>
      <trkpt lat="42.599592000" lon="-2.463333000">
        <ele>863.60</ele>
        <time>2016-10-15T07:15:21Z</time>
      </trkpt>
      <trkpt lat="42.599595000" lon="-2.463378000">
        <ele>863.80</ele>
        <time>2016-10-15T07:15:22Z</time>
      </trkpt>
      <trkpt lat="42.599598000" lon="-2.463423000">
        <ele>864.00</ele>
        <time>2016-10-15T07:15:23Z</time>
      </trkpt>
      <trkpt lat="42.599606000" lon="-2.463464000">
        <ele>864.30</ele>
        <time>2016-10-15T07:15:24Z</time>
      </trkpt>
      <trkpt lat="42.599616000" lon="-2.463502000">
        <ele>864.50</ele>
        <time>2016-10-15T07:15:25Z</time>
      </trkpt>
      <trkpt lat="42.599627000" lon="-2.463537000">
        <ele>864.70</ele>
        <time>2016-10-15T07:15:26Z</time>
      </trkpt>
      <trkpt lat="42.599634000" lon="-2.463568000">
        <ele>864.80</ele>
        <time>2016-10-15T07:15:27Z</time>
      </trkpt>
      <trkpt lat="42.599647000" lon="-2.463597000">
        <ele>864.90</ele>
        <time>2016-10-15T07:15:28Z</time>
      </trkpt>
      <trkpt lat="42.599659000" lon="-2.463627000">
        <ele>865.00</ele>
        <time>2016-10-15T07:15:29Z</time>
      </trkpt>
      <trkpt lat="42.599668000" lon="-2.463660000">
        <ele>865.20</ele>
        <time>2016-10-15T07:15:30Z</time>
      </trkpt>
      <trkpt lat="42.599677000" lon="-2.463686000">
        <ele>865.30</ele>
        <time>2016-10-15T07:15:31Z</time>
      </trkpt>
      <trkpt lat="42.599689000" lon="-2.463716000">
        <ele>865.40</ele>
        <time>2016-10-15T07:15:32Z</time>
      </trkpt>
      <trkpt lat="42.599694000" lon="-2.463741000">
        <ele>865.50</ele>
        <time>2016-10-15T07:15:33Z</time>
      </trkpt>
      <trkpt lat="42.599702000" lon="-2.463767000">
        <ele>865.60</ele>
        <time>2016-10-15T07:15:34Z</time>
      </trkpt>
      <trkpt lat="42.599712000" lon="-2.463791000">
        <ele>865.70</ele>
        <time>2016-10-15T07:15:35Z</time>
      </trkpt>
      <trkpt lat="42.599719000" lon="-2.463818000">
        <ele>865.80</ele>
        <time>2016-10-15T07:15:36Z</time>
      </trkpt>
      <trkpt lat="42.599732000" lon="-2.463843000">
        <ele>865.90</ele>
        <time>2016-10-15T07:15:37Z</time>
      </trkpt>
      <trkpt lat="42.599741000" lon="-2.463867000">
        <ele>866.10</ele>
        <time>2016-10-15T07:15:38Z</time>
      </trkpt>
      <trkpt lat="42.599750000" lon="-2.463895000">
        <ele>866.20</ele>
        <time>2016-10-15T07:15:39Z</time>
      </trkpt>
      <trkpt lat="42.599761000" lon="-2.463922000">
        <ele>866.40</ele>
        <time>2016-10-15T07:15:40Z</time>
      </trkpt>
      <trkpt lat="42.599769000" lon="-2.463950000">
        <ele>866.60</ele>
        <time>2016-10-15T07:15:41Z</time>
      </trkpt>
      <trkpt lat="42.599779000" lon="-2.463976000">
        <ele>866.90</ele>
        <time>2016-10-15T07:15:42Z</time>
      </trkpt>
      <trkpt lat="42.599790000" lon="-2.464001000">
        <ele>867.10</ele>
        <time>2016-10-15T07:15:43Z</time>
      </trkpt>
      <trkpt lat="42.599801000" lon="-2.464023000">
        <ele>867.30</ele>
        <time>2016-10-15T07:15:44Z</time>
      </trkpt>
      <trkpt lat="42.599808000" lon="-2.464047000">
        <ele>867.50</ele>
        <time>2016-10-15T07:15:45Z</time>
      </trkpt>
      <trkpt lat="42.599815000" lon="-2.464070000">
        <ele>867.90</ele>
        <time>2016-10-15T07:15:46Z</time>
      </trkpt>
      <trkpt lat="42.599825000" lon="-2.464091000">
        <ele>868.10</ele>
        <time>2016-10-15T07:15:47Z</time>
      </trkpt>
      <trkpt lat="42.599835000" lon="-2.464116000">
        <ele>868.40</ele>
        <time>2016-10-15T07:15:48Z</time>
      </trkpt>
      <trkpt lat="42.599842000" lon="-2.464138000">
        <ele>868.60</ele>
        <time>2016-10-15T07:15:49Z</time>
      </trkpt>
      <trkpt lat="42.599851000" lon="-2.464160000">
        <ele>868.80</ele>
        <time>2016-10-15T07:15:50Z</time>
      </trkpt>
      <trkpt lat="42.599861000" lon="-2.464180000">
        <ele>869.00</ele>
        <time>2016-10-15T07:15:51Z</time>
      </trkpt>
      <trkpt lat="42.599870000" lon="-2.464204000">
        <ele>869.30</ele>
        <time>2016-10-15T07:15:52Z</time>
      </trkpt>
      <trkpt lat="42.599879000" lon="-2.464227000">
        <ele>869.60</ele>
        <time>2016-10-15T07:15:53Z</time>
      </trkpt>
      <trkpt lat="42.599889000" lon="-2.464250000">
        <ele>869.90</ele>
        <time>2016-10-15T07:15:54Z</time>
      </trkpt>
      <trkpt lat="42.599896000" lon="-2.464272000">
        <ele>870.20</ele>
        <time>2016-10-15T07:15:55Z</time>
      </trkpt>
      <trkpt lat="42.599904000" lon="-2.464292000">
        <ele>870.50</ele>
        <time>2016-10-15T07:15:56Z</time>
      </trkpt>
      <trkpt lat="42.599913000" lon="-2.464313000">
        <ele>870.70</ele>
        <time>2016-10-15T07:15:57Z</time>
      </trkpt>
      <trkpt lat="42.599921000" lon="-2.464338000">
        <ele>871.30</ele>
        <time>2016-10-15T07:15:58Z</time>
      </trkpt>
      <trkpt lat="42.599930000" lon="-2.464366000">
        <ele>871.70</ele>
        <time>2016-10-15T07:15:59Z</time>
      </trkpt>
      <trkpt lat="42.599944000" lon="-2.464391000">
        <ele>872.00</ele>
        <time>2016-10-15T07:16:00Z</time>
      </trkpt>
      <trkpt lat="42.599953000" lon="-2.464414000">
        <ele>872.20</ele>
        <time>2016-10-15T07:16:01Z</time>
      </trkpt>
      <trkpt lat="42.599962000" lon="-2.464434000">
        <ele>872.40</ele>
        <time>2016-10-15T07:16:02Z</time>
      </trkpt>
      <trkpt lat="42.599971000" lon="-2.464458000">
        <ele>872.50</ele>
        <time>2016-10-15T07:16:03Z</time>
      </trkpt>
      <trkpt lat="42.599980000" lon="-2.464477000">
        <ele>872.80</ele>
        <time>2016-10-15T07:16:04Z</time>
      </trkpt>
      <trkpt lat="42.599988000" lon="-2.464498000">
        <ele>873.10</ele>
        <time>2016-10-15T07:16:05Z</time>
      </trkpt>
      <trkpt lat="42.599995000" lon="-2.464518000">
        <ele>873.40</ele>
        <time>2016-10-15T07:16:06Z</time>
      </trkpt>
      <trkpt lat="42.600012000" lon="-2.464564000">
        <ele>873.90</ele>
        <time>2016-10-15T07:16:08Z</time>
      </trkpt>
      <trkpt lat="42.600022000" lon="-2.464586000">
        <ele>874.00</ele>
        <time>2016-10-15T07:16:09Z</time>
      </trkpt>
      <trkpt lat="42.600033000" lon="-2.464603000">
        <ele>874.30</ele>
        <time>2016-10-15T07:16:10Z</time>
      </trkpt>
      <trkpt lat="42.600043000" lon="-2.464622000">
        <ele>874.40</ele>
        <time>2016-10-15T07:16:11Z</time>
      </trkpt>
      <trkpt lat="42.600052000" lon="-2.464642000">
        <ele>874.70</ele>
        <time>2016-10-15T07:16:12Z</time>
      </trkpt>
      <trkpt lat="42.600063000" lon="-2.464663000">
        <ele>874.90</ele>
        <time>2016-10-15T07:16:13Z</time>
      </trkpt>
      <trkpt lat="42.600069000" lon="-2.464686000">
        <ele>875.00</ele>
        <time>2016-10-15T07:16:14Z</time>
      </trkpt>
      <trkpt lat="42.600078000" lon="-2.464707000">
        <ele>875.10</ele>
        <time>2016-10-15T07:16:15Z</time>
      </trkpt>
      <trkpt lat="42.600091000" lon="-2.464721000">
        <ele>875.40</ele>
        <time>2016-10-15T07:16:16Z</time>
      </trkpt>
      <trkpt lat="42.600105000" lon="-2.464732000">
        <ele>875.50</ele>
        <time>2016-10-15T07:16:17Z</time>
      </trkpt>
      <trkpt lat="42.600115000" lon="-2.464751000">
        <ele>875.70</ele>
        <time>2016-10-15T07:16:18Z</time>
      </trkpt>
      <trkpt lat="42.600126000" lon="-2.464768000">
        <ele>875.90</ele>
        <time>2016-10-15T07:16:19Z</time>
      </trkpt>
      <trkpt lat="42.600134000" lon="-2.464786000">
        <ele>876.20</ele>
        <time>2016-10-15T07:16:20Z</time>
      </trkpt>
      <trkpt lat="42.600140000" lon="-2.464807000">
        <ele>876.40</ele>
        <time>2016-10-15T07:16:21Z</time>
      </trkpt>
      <trkpt lat="42.600146000" lon="-2.464828000">
        <ele>876.70</ele>
        <time>2016-10-15T07:16:22Z</time>
      </trkpt>
      <trkpt lat="42.600152000" lon="-2.464851000">
        <ele>876.90</ele>
        <time>2016-10-15T07:16:23Z</time>
      </trkpt>
      <trkpt lat="42.600162000" lon="-2.464871000">
        <ele>877.30</ele>
        <time>2016-10-15T07:16:24Z</time>
      </trkpt>
      <trkpt lat="42.600171000" lon="-2.464892000">
        <ele>877.60</ele>
        <time>2016-10-15T07:16:25Z</time>
      </trkpt>
      <trkpt lat="42.600181000" lon="-2.464912000">
        <ele>877.90</ele>
        <time>2016-10-15T07:16:26Z</time>
      </trkpt>
      <trkpt lat="42.600191000" lon="-2.464927000">
        <ele>878.20</ele>
        <time>2016-10-15T07:16:27Z</time>
      </trkpt>
      <trkpt lat="42.600198000" lon="-2.464943000">
        <ele>878.40</ele>
        <time>2016-10-15T07:16:28Z</time>
      </trkpt>
      <trkpt lat="42.600207000" lon="-2.464959000">
        <ele>878.60</ele>
        <time>2016-10-15T07:16:29Z</time>
      </trkpt>
      <trkpt lat="42.600212000" lon="-2.464980000">
        <ele>878.80</ele>
        <time>2016-10-15T07:16:30Z</time>
      </trkpt>
      <trkpt lat="42.600221000" lon="-2.465001000">
        <ele>879.00</ele>
        <time>2016-10-15T07:16:31Z</time>
      </trkpt>
      <trkpt lat="42.600229000" lon="-2.465022000">
        <ele>879.30</ele>
        <time>2016-10-15T07:16:32Z</time>
      </trkpt>
      <trkpt lat="42.600241000" lon="-2.465041000">
        <ele>879.60</ele>
        <time>2016-10-15T07:16:33Z</time>
      </trkpt>
      <trkpt lat="42.600250000" lon="-2.465061000">
        <ele>880.00</ele>
        <time>2016-10-15T07:16:34Z</time>
      </trkpt>
      <trkpt lat="42.600258000" lon="-2.465078000">
        <ele>880.20</ele>
        <time>2016-10-15T07:16:35Z</time>
      </trkpt>
      <trkpt lat="42.600266000" lon="-2.465096000">
        <ele>880.40</ele>
        <time>2016-10-15T07:16:36Z</time>
      </trkpt>
      <trkpt lat="42.600274000" lon="-2.465115000">
        <ele>880.60</ele>
        <time>2016-10-15T07:16:37Z</time>
      </trkpt>
      <trkpt lat="42.600281000" lon="-2.465135000">
        <ele>880.70</ele>
        <time>2016-10-15T07:16:38Z</time>
      </trkpt>
      <trkpt lat="42.600288000" lon="-2.465156000">
        <ele>880.80</ele>
        <time>2016-10-15T07:16:39Z</time>
      </trkpt>
      <trkpt lat="42.600297000" lon="-2.465174000">
        <ele>881.00</ele>
        <time>2016-10-15T07:16:40Z</time>
      </trkpt>
      <trkpt lat="42.600303000" lon="-2.465192000">
        <ele>881.20</ele>
        <time>2016-10-15T07:16:41Z</time>
      </trkpt>
      <trkpt lat="42.600309000" lon="-2.465211000">
        <ele>881.10</ele>
        <time>2016-10-15T07:16:42Z</time>
      </trkpt>
      <trkpt lat="42.600316000" lon="-2.465232000">
        <ele>881.10</ele>
        <time>2016-10-15T07:16:43Z</time>
      </trkpt>
      <trkpt lat="42.600325000" lon="-2.465250000">
        <ele>881.30</ele>
        <time>2016-10-15T07:16:44Z</time>
      </trkpt>
      <trkpt lat="42.600332000" lon="-2.465267000">
        <ele>881.40</ele>
        <time>2016-10-15T07:16:45Z</time>
      </trkpt>
      <trkpt lat="42.600339000" lon="-2.465284000">
        <ele>881.70</ele>
        <time>2016-10-15T07:16:46Z</time>
      </trkpt>
      <trkpt lat="42.600345000" lon="-2.465304000">
        <ele>882.00</ele>
        <time>2016-10-15T07:16:47Z</time>
      </trkpt>
      <trkpt lat="42.600354000" lon="-2.465323000">
        <ele>882.30</ele>
        <time>2016-10-15T07:16:48Z</time>
      </trkpt>
      <trkpt lat="42.600360000" lon="-2.465342000">
        <ele>882.60</ele>
        <time>2016-10-15T07:16:49Z</time>
      </trkpt>
      <trkpt lat="42.600369000" lon="-2.465357000">
        <ele>882.90</ele>
        <time>2016-10-15T07:16:50Z</time>
      </trkpt>
      <trkpt lat="42.600376000" lon="-2.465374000">
        <ele>883.20</ele>
        <time>2016-10-15T07:16:51Z</time>
      </trkpt>
      <trkpt lat="42.600385000" lon="-2.465389000">
        <ele>883.30</ele>
        <time>2016-10-15T07:16:52Z</time>
      </trkpt>
      <trkpt lat="42.600397000" lon="-2.465401000">
        <ele>883.50</ele>
        <time>2016-10-15T07:16:53Z</time>
      </trkpt>
      <trkpt lat="42.600408000" lon="-2.465418000">
        <ele>883.90</ele>
        <time>2016-10-15T07:16:54Z</time>
      </trkpt>
      <trkpt lat="42.600415000" lon="-2.465436000">
        <ele>884.20</ele>
        <time>2016-10-15T07:16:55Z</time>
      </trkpt>
      <trkpt lat="42.600421000" lon="-2.465455000">
        <ele>884.40</ele>
        <time>2016-10-15T07:16:56Z</time>
      </trkpt>
      <trkpt lat="42.600431000" lon="-2.465474000">
        <ele>884.70</ele>
        <time>2016-10-15T07:16:57Z</time>
      </trkpt>
      <trkpt lat="42.600439000" lon="-2.465492000">
        <ele>884.90</ele>
        <time>2016-10-15T07:16:58Z</time>
      </trkpt>
      <trkpt lat="42.600445000" lon="-2.465512000">
        <ele>885.10</ele>
        <time>2016-10-15T07:16:59Z</time>
      </trkpt>
      <trkpt lat="42.600455000" lon="-2.465532000">
        <ele>885.20</ele>
        <time>2016-10-15T07:17:00Z</time>
      </trkpt>
      <trkpt lat="42.600465000" lon="-2.465552000">
        <ele>885.30</ele>
        <time>2016-10-15T07:17:01Z</time>
      </trkpt>
      <trkpt lat="42.600470000" lon="-2.465575000">
        <ele>885.60</ele>
        <time>2016-10-15T07:17:02Z</time>
      </trkpt>
      <trkpt lat="42.600476000" lon="-2.465596000">
        <ele>885.80</ele>
        <time>2016-10-15T07:17:03Z</time>
      </trkpt>
      <trkpt lat="42.600485000" lon="-2.465613000">
        <ele>886.00</ele>
        <time>2016-10-15T07:17:04Z</time>
      </trkpt>
      <trkpt lat="42.600495000" lon="-2.465630000">
        <ele>886.10</ele>
        <time>2016-10-15T07:17:05Z</time>
      </trkpt>
      <trkpt lat="42.600502000" lon="-2.465649000">
        <ele>886.30</ele>
        <time>2016-10-15T07:17:06Z</time>
      </trkpt>
      <trkpt lat="42.600509000" lon="-2.465667000">
        <ele>886.50</ele>
        <time>2016-10-15T07:17:07Z</time>
      </trkpt>
      <trkpt lat="42.600515000" lon="-2.465686000">
        <ele>886.70</ele>
        <time>2016-10-15T07:17:08Z</time>
      </trkpt>
      <trkpt lat="42.600531000" lon="-2.465726000">
        <ele>887.10</ele>
        <time>2016-10-15T07:17:10Z</time>
      </trkpt>
      <trkpt lat="42.600538000" lon="-2.465746000">
        <ele>887.30</ele>
        <time>2016-10-15T07:17:11Z</time>
      </trkpt>
      <trkpt lat="42.600546000" lon="-2.465765000">
        <ele>887.40</ele>
        <time>2016-10-15T07:17:12Z</time>
      </trkpt>
      <trkpt lat="42.600553000" lon="-2.465784000">
        <ele>887.60</ele>
        <time>2016-10-15T07:17:13Z</time>
      </trkpt>
      <trkpt lat="42.600561000" lon="-2.465801000">
        <ele>887.80</ele>
        <time>2016-10-15T07:17:14Z</time>
      </trkpt>
      <trkpt lat="42.600569000" lon="-2.465818000">
        <ele>888.00</ele>
        <time>2016-10-15T07:17:15Z</time>
      </trkpt>
      <trkpt lat="42.600574000" lon="-2.465836000">
        <ele>888.20</ele>
        <time>2016-10-15T07:17:16Z</time>
      </trkpt>
      <trkpt lat="42.600583000" lon="-2.465854000">
        <ele>888.30</ele>
        <time>2016-10-15T07:17:17Z</time>
      </trkpt>
      <trkpt lat="42.600594000" lon="-2.465874000">
        <ele>888.50</ele>
        <time>2016-10-15T07:17:18Z</time>
      </trkpt>
      <trkpt lat="42.600604000" lon="-2.465891000">
        <ele>888.60</ele>
        <time>2016-10-15T07:17:19Z</time>
      </trkpt>
      <trkpt lat="42.600612000" lon="-2.465910000">
        <ele>889.00</ele>
        <time>2016-10-15T07:17:20Z</time>
      </trkpt>
      <trkpt lat="42.600620000" lon="-2.465928000">
        <ele>889.30</ele>
        <time>2016-10-15T07:17:21Z</time>
      </trkpt>
      <trkpt lat="42.600626000" lon="-2.465948000">
        <ele>889.60</ele>
        <time>2016-10-15T07:17:22Z</time>
      </trkpt>
      <trkpt lat="42.600633000" lon="-2.465965000">
        <ele>889.90</ele>
        <time>2016-10-15T07:17:23Z</time>
      </trkpt>
      <trkpt lat="42.600641000" lon="-2.465985000">
        <ele>890.10</ele>
        <time>2016-10-15T07:17:24Z</time>
      </trkpt>
      <trkpt lat="42.600650000" lon="-2.466004000">
        <ele>890.30</ele>
        <time>2016-10-15T07:17:25Z</time>
      </trkpt>
      <trkpt lat="42.600659000" lon="-2.466023000">
        <ele>890.60</ele>
        <time>2016-10-15T07:17:26Z</time>
      </trkpt>
      <trkpt lat="42.600665000" lon="-2.466042000">
        <ele>890.80</ele>
        <time>2016-10-15T07:17:27Z</time>
      </trkpt>
      <trkpt lat="42.600675000" lon="-2.466061000">
        <ele>891.00</ele>
        <time>2016-10-15T07:17:28Z</time>
      </trkpt>
      <trkpt lat="42.600682000" lon="-2.466079000">
        <ele>891.10</ele>
        <time>2016-10-15T07:17:29Z</time>
      </trkpt>
      <trkpt lat="42.600690000" lon="-2.466096000">
        <ele>891.20</ele>
        <time>2016-10-15T07:17:30Z</time>
      </trkpt>
      <trkpt lat="42.600699000" lon="-2.466114000">
        <ele>891.20</ele>
        <time>2016-10-15T07:17:31Z</time>
      </trkpt>
      <trkpt lat="42.600707000" lon="-2.466132000">
        <ele>891.30</ele>
        <time>2016-10-15T07:17:32Z</time>
      </trkpt>
      <trkpt lat="42.600714000" lon="-2.466152000">
        <ele>891.30</ele>
        <time>2016-10-15T07:17:33Z</time>
      </trkpt>
      <trkpt lat="42.600720000" lon="-2.466170000">
        <ele>891.60</ele>
        <time>2016-10-15T07:17:34Z</time>
      </trkpt>
      <trkpt lat="42.600727000" lon="-2.466188000">
        <ele>891.80</ele>
        <time>2016-10-15T07:17:35Z</time>
      </trkpt>
      <trkpt lat="42.600733000" lon="-2.466204000">
        <ele>892.00</ele>
        <time>2016-10-15T07:17:36Z</time>
      </trkpt>
      <trkpt lat="42.600744000" lon="-2.466222000">
        <ele>892.10</ele>
        <time>2016-10-15T07:17:37Z</time>
      </trkpt>
      <trkpt lat="42.600751000" lon="-2.466240000">
        <ele>892.30</ele>
        <time>2016-10-15T07:17:38Z</time>
      </trkpt>
      <trkpt lat="42.600761000" lon="-2.466261000">
        <ele>892.50</ele>
        <time>2016-10-15T07:17:39Z</time>
      </trkpt>
      <trkpt lat="42.600768000" lon="-2.466280000">
        <ele>892.60</ele>
        <time>2016-10-15T07:17:40Z</time>
      </trkpt>
      <trkpt lat="42.600774000" lon="-2.466299000">
        <ele>892.70</ele>
        <time>2016-10-15T07:17:41Z</time>
      </trkpt>
      <trkpt lat="42.600784000" lon="-2.466318000">
        <ele>892.80</ele>
        <time>2016-10-15T07:17:42Z</time>
      </trkpt>
      <trkpt lat="42.600789000" lon="-2.466339000">
        <ele>892.90</ele>
        <time>2016-10-15T07:17:43Z</time>
      </trkpt>
      <trkpt lat="42.600798000" lon="-2.466358000">
        <ele>893.00</ele>
        <time>2016-10-15T07:17:44Z</time>
      </trkpt>
      <trkpt lat="42.600806000" lon="-2.466375000">
        <ele>893.00</ele>
        <time>2016-10-15T07:17:45Z</time>
      </trkpt>
      <trkpt lat="42.600812000" lon="-2.466393000">
        <ele>893.30</ele>
        <time>2016-10-15T07:17:46Z</time>
      </trkpt>
      <trkpt lat="42.600819000" lon="-2.466412000">
        <ele>893.60</ele>
        <time>2016-10-15T07:17:47Z</time>
      </trkpt>
      <trkpt lat="42.600825000" lon="-2.466431000">
        <ele>893.80</ele>
        <time>2016-10-15T07:17:48Z</time>
      </trkpt>
      <trkpt lat="42.600833000" lon="-2.466448000">
        <ele>894.00</ele>
        <time>2016-10-15T07:17:49Z</time>
      </trkpt>
      <trkpt lat="42.600841000" lon="-2.466466000">
        <ele>894.20</ele>
        <time>2016-10-15T07:17:50Z</time>
      </trkpt>
      <trkpt lat="42.600850000" lon="-2.466486000">
        <ele>894.40</ele>
        <time>2016-10-15T07:17:51Z</time>
      </trkpt>
      <trkpt lat="42.600856000" lon="-2.466504000">
        <ele>894.50</ele>
        <time>2016-10-15T07:17:52Z</time>
      </trkpt>
      <trkpt lat="42.600862000" lon="-2.466525000">
        <ele>894.60</ele>
        <time>2016-10-15T07:17:53Z</time>
      </trkpt>
      <trkpt lat="42.600869000" lon="-2.466548000">
        <ele>894.60</ele>
        <time>2016-10-15T07:17:54Z</time>
      </trkpt>
      <trkpt lat="42.600877000" lon="-2.466570000">
        <ele>894.70</ele>
        <time>2016-10-15T07:17:55Z</time>
      </trkpt>
      <trkpt lat="42.600886000" lon="-2.466591000">
        <ele>894.90</ele>
        <time>2016-10-15T07:17:56Z</time>
      </trkpt>
      <trkpt lat="42.600893000" lon="-2.466610000">
        <ele>895.10</ele>
        <time>2016-10-15T07:17:57Z</time>
      </trkpt>
      <trkpt lat="42.600901000" lon="-2.466630000">
        <ele>895.30</ele>
        <time>2016-10-15T07:17:58Z</time>
      </trkpt>
      <trkpt lat="42.600908000" lon="-2.466650000">
        <ele>895.40</ele>
        <time>2016-10-15T07:17:59Z</time>
      </trkpt>
      <trkpt lat="42.600916000" lon="-2.466669000">
        <ele>895.50</ele>
        <time>2016-10-15T07:18:00Z</time>
      </trkpt>
      <trkpt lat="42.600924000" lon="-2.466690000">
        <ele>895.70</ele>
        <time>2016-10-15T07:18:01Z</time>
      </trkpt>
      <trkpt lat="42.600933000" lon="-2.466710000">
        <ele>895.90</ele>
        <time>2016-10-15T07:18:02Z</time>
      </trkpt>
      <trkpt lat="42.600943000" lon="-2.466730000">
        <ele>896.10</ele>
        <time>2016-10-15T07:18:03Z</time>
      </trkpt>
      <trkpt lat="42.600949000" lon="-2.466748000">
        <ele>896.30</ele>
        <time>2016-10-15T07:18:04Z</time>
      </trkpt>
      <trkpt lat="42.600953000" lon="-2.466770000">
        <ele>896.50</ele>
        <time>2016-10-15T07:18:05Z</time>
      </trkpt>
      <trkpt lat="42.600961000" lon="-2.466788000">
        <ele>896.70</ele>
        <time>2016-10-15T07:18:06Z</time>
      </trkpt>
      <trkpt lat="42.600968000" lon="-2.466807000">
        <ele>896.80</ele>
        <time>2016-10-15T07:18:07Z</time>
      </trkpt>
      <trkpt lat="42.600978000" lon="-2.466828000">
        <ele>896.80</ele>
        <time>2016-10-15T07:18:08Z</time>
      </trkpt>
      <trkpt lat="42.600988000" lon="-2.466845000">
        <ele>896.70</ele>
        <time>2016-10-15T07:18:09Z</time>
      </trkpt>
      <trkpt lat="42.600998000" lon="-2.466864000">
        <ele>896.70</ele>
        <time>2016-10-15T07:18:10Z</time>
      </trkpt>
      <trkpt lat="42.601016000" lon="-2.466903000">
        <ele>896.90</ele>
        <time>2016-10-15T07:18:12Z</time>
      </trkpt>
      <trkpt lat="42.601026000" lon="-2.466925000">
        <ele>897.00</ele>
        <time>2016-10-15T07:18:13Z</time>
      </trkpt>
      <trkpt lat="42.601035000" lon="-2.466941000">
        <ele>897.20</ele>
        <time>2016-10-15T07:18:14Z</time>
      </trkpt>
      <trkpt lat="42.601043000" lon="-2.466959000">
        <ele>897.40</ele>
        <time>2016-10-15T07:18:15Z</time>
      </trkpt>
      <trkpt lat="42.601050000" lon="-2.466982000">
        <ele>897.60</ele>
        <time>2016-10-15T07:18:16Z</time>
      </trkpt>
      <trkpt lat="42.601060000" lon="-2.467002000">
        <ele>897.80</ele>
        <time>2016-10-15T07:18:17Z</time>
      </trkpt>
      <trkpt lat="42.601069000" lon="-2.467018000">
        <ele>897.90</ele>
        <time>2016-10-15T07:18:18Z</time>
      </trkpt>
      <trkpt lat="42.601076000" lon="-2.467038000">
        <ele>898.00</ele>
        <time>2016-10-15T07:18:19Z</time>
      </trkpt>
      <trkpt lat="42.601086000" lon="-2.467055000">
        <ele>898.40</ele>
        <time>2016-10-15T07:18:20Z</time>
      </trkpt>
      <trkpt lat="42.601093000" lon="-2.467075000">
        <ele>898.70</ele>
        <time>2016-10-15T07:18:21Z</time>
      </trkpt>
      <trkpt lat="42.601099000" lon="-2.467099000">
        <ele>898.90</ele>
        <time>2016-10-15T07:18:22Z</time>
      </trkpt>
      <trkpt lat="42.601107000" lon="-2.467119000">
        <ele>899.10</ele>
        <time>2016-10-15T07:18:23Z</time>
      </trkpt>
      <trkpt lat="42.601115000" lon="-2.467140000">
        <ele>899.30</ele>
        <time>2016-10-15T07:18:24Z</time>
      </trkpt>
      <trkpt lat="42.601122000" lon="-2.467156000">
        <ele>899.40</ele>
        <time>2016-10-15T07:18:25Z</time>
      </trkpt>
      <trkpt lat="42.601130000" lon="-2.467176000">
        <ele>899.60</ele>
        <time>2016-10-15T07:18:26Z</time>
      </trkpt>
      <trkpt lat="42.601138000" lon="-2.467195000">
        <ele>899.70</ele>
        <time>2016-10-15T07:18:27Z</time>
      </trkpt>
      <trkpt lat="42.601147000" lon="-2.467212000">
        <ele>899.80</ele>
        <time>2016-10-15T07:18:28Z</time>
      </trkpt>
      <trkpt lat="42.601155000" lon="-2.467232000">
        <ele>899.90</ele>
        <time>2016-10-15T07:18:29Z</time>
      </trkpt>
      <trkpt lat="42.601164000" lon="-2.467252000">
        <ele>899.90</ele>
        <time>2016-10-15T07:18:30Z</time>
      </trkpt>
      <trkpt lat="42.601171000" lon="-2.467271000">
        <ele>900.00</ele>
        <time>2016-10-15T07:18:31Z</time>
      </trkpt>
      <trkpt lat="42.601181000" lon="-2.467293000">
        <ele>900.10</ele>
        <time>2016-10-15T07:18:32Z</time>
      </trkpt>
      <trkpt lat="42.601190000" lon="-2.467314000">
        <ele>900.20</ele>
        <time>2016-10-15T07:18:33Z</time>
      </trkpt>
      <trkpt lat="42.601199000" lon="-2.467335000">
        <ele>900.30</ele>
        <time>2016-10-15T07:18:34Z</time>
      </trkpt>
      <trkpt lat="42.601207000" lon="-2.467356000">
        <ele>900.40</ele>
        <time>2016-10-15T07:18:35Z</time>
      </trkpt>
      <trkpt lat="42.601215000" lon="-2.467377000">
        <ele>900.80</ele>
        <time>2016-10-15T07:18:36Z</time>
      </trkpt>
      <trkpt lat="42.601224000" lon="-2.467399000">
        <ele>901.10</ele>
        <time>2016-10-15T07:18:37Z</time>
      </trkpt>
      <trkpt lat="42.601233000" lon="-2.467422000">
        <ele>901.30</ele>
        <time>2016-10-15T07:18:38Z</time>
      </trkpt>
      <trkpt lat="42.601241000" lon="-2.467446000">
        <ele>901.50</ele>
        <time>2016-10-15T07:18:39Z</time>
      </trkpt>
      <trkpt lat="42.601248000" lon="-2.467470000">
        <ele>901.60</ele>
        <time>2016-10-15T07:18:40Z</time>
      </trkpt>
      <trkpt lat="42.601259000" lon="-2.467490000">
        <ele>901.70</ele>
        <time>2016-10-15T07:18:41Z</time>
      </trkpt>
      <trkpt lat="42.601266000" lon="-2.467512000">
        <ele>901.90</ele>
        <time>2016-10-15T07:18:42Z</time>
      </trkpt>
      <trkpt lat="42.601276000" lon="-2.467532000">
        <ele>902.10</ele>
        <time>2016-10-15T07:18:43Z</time>
      </trkpt>
      <trkpt lat="42.601285000" lon="-2.467554000">
        <ele>902.20</ele>
        <time>2016-10-15T07:18:44Z</time>
      </trkpt>
      <trkpt lat="42.601293000" lon="-2.467576000">
        <ele>902.30</ele>
        <time>2016-10-15T07:18:45Z</time>
      </trkpt>
      <trkpt lat="42.601303000" lon="-2.467597000">
        <ele>902.50</ele>
        <time>2016-10-15T07:18:46Z</time>
      </trkpt>
      <trkpt lat="42.601313000" lon="-2.467618000">
        <ele>902.70</ele>
        <time>2016-10-15T07:18:47Z</time>
      </trkpt>
      <trkpt lat="42.601322000" lon="-2.467642000">
        <ele>902.80</ele>
        <time>2016-10-15T07:18:48Z</time>
      </trkpt>
      <trkpt lat="42.601330000" lon="-2.467664000">
        <ele>902.90</ele>
        <time>2016-10-15T07:18:49Z</time>
      </trkpt>
      <trkpt lat="42.601339000" lon="-2.467686000">
        <ele>903.10</ele>
        <time>2016-10-15T07:18:50Z</time>
      </trkpt>
      <trkpt lat="42.601348000" lon="-2.467709000">
        <ele>903.20</ele>
        <time>2016-10-15T07:18:51Z</time>
      </trkpt>
      <trkpt lat="42.601359000" lon="-2.467730000">
        <ele>903.40</ele>
        <time>2016-10-15T07:18:52Z</time>
      </trkpt>
      <trkpt lat="42.601368000" lon="-2.467752000">
        <ele>903.60</ele>
        <time>2016-10-15T07:18:53Z</time>
      </trkpt>
      <trkpt lat="42.601378000" lon="-2.467770000">
        <ele>903.70</ele>
        <time>2016-10-15T07:18:54Z</time>
      </trkpt>
      <trkpt lat="42.601388000" lon="-2.467787000">
        <ele>903.90</ele>
        <time>2016-10-15T07:18:55Z</time>
      </trkpt>
      <trkpt lat="42.601398000" lon="-2.467808000">
        <ele>904.10</ele>
        <time>2016-10-15T07:18:56Z</time>
      </trkpt>
      <trkpt lat="42.601410000" lon="-2.467828000">
        <ele>904.30</ele>
        <time>2016-10-15T07:18:57Z</time>
      </trkpt>
      <trkpt lat="42.601419000" lon="-2.467848000">
        <ele>904.30</ele>
        <time>2016-10-15T07:18:58Z</time>
      </trkpt>
      <trkpt lat="42.601425000" lon="-2.467867000">
        <ele>904.30</ele>
        <time>2016-10-15T07:18:59Z</time>
      </trkpt>
      <trkpt lat="42.601436000" lon="-2.467887000">
        <ele>904.60</ele>
        <time>2016-10-15T07:19:00Z</time>
      </trkpt>
      <trkpt lat="42.601446000" lon="-2.467907000">
        <ele>904.90</ele>
        <time>2016-10-15T07:19:01Z</time>
      </trkpt>
      <trkpt lat="42.601455000" lon="-2.467929000">
        <ele>905.10</ele>
        <time>2016-10-15T07:19:02Z</time>
      </trkpt>
      <trkpt lat="42.601463000" lon="-2.467951000">
        <ele>905.20</ele>
        <time>2016-10-15T07:19:03Z</time>
      </trkpt>
      <trkpt lat="42.601472000" lon="-2.467972000">
        <ele>905.40</ele>
        <time>2016-10-15T07:19:04Z</time>
      </trkpt>
      <trkpt lat="42.601480000" lon="-2.467992000">
        <ele>905.40</ele>
        <time>2016-10-15T07:19:05Z</time>
      </trkpt>
      <trkpt lat="42.601489000" lon="-2.468012000">
        <ele>905.50</ele>
        <time>2016-10-15T07:19:06Z</time>
      </trkpt>
      <trkpt lat="42.601499000" lon="-2.468031000">
        <ele>905.60</ele>
        <time>2016-10-15T07:19:07Z</time>
      </trkpt>
      <trkpt lat="42.601508000" lon="-2.468052000">
        <ele>905.70</ele>
        <time>2016-10-15T07:19:08Z</time>
      </trkpt>
      <trkpt lat="42.601519000" lon="-2.468074000">
        <ele>905.80</ele>
        <time>2016-10-15T07:19:09Z</time>
      </trkpt>
      <trkpt lat="42.601526000" lon="-2.468098000">
        <ele>906.00</ele>
        <time>2016-10-15T07:19:10Z</time>
      </trkpt>
      <trkpt lat="42.601533000" lon="-2.468120000">
        <ele>906.10</ele>
        <time>2016-10-15T07:19:11Z</time>
      </trkpt>
      <trkpt lat="42.601542000" lon="-2.468142000">
        <ele>906.20</ele>
        <time>2016-10-15T07:19:12Z</time>
      </trkpt>
      <trkpt lat="42.601561000" lon="-2.468183000">
        <ele>906.50</ele>
        <time>2016-10-15T07:19:14Z</time>
      </trkpt>
      <trkpt lat="42.601570000" lon="-2.468205000">
        <ele>906.60</ele>
        <time>2016-10-15T07:19:15Z</time>
      </trkpt>
      <trkpt lat="42.601578000" lon="-2.468227000">
        <ele>906.70</ele>
        <time>2016-10-15T07:19:16Z</time>
      </trkpt>
      <trkpt lat="42.601583000" lon="-2.468251000">
        <ele>906.80</ele>
        <time>2016-10-15T07:19:17Z</time>
      </trkpt>
      <trkpt lat="42.601589000" lon="-2.468275000">
        <ele>907.00</ele>
        <time>2016-10-15T07:19:18Z</time>
      </trkpt>
      <trkpt lat="42.601596000" lon="-2.468300000">
        <ele>907.10</ele>
        <time>2016-10-15T07:19:19Z</time>
      </trkpt>
      <trkpt lat="42.601603000" lon="-2.468324000">
        <ele>907.30</ele>
        <time>2016-10-15T07:19:20Z</time>
      </trkpt>
      <trkpt lat="42.601608000" lon="-2.468349000">
        <ele>907.30</ele>
        <time>2016-10-15T07:19:21Z</time>
      </trkpt>
      <trkpt lat="42.601611000" lon="-2.468372000">
        <ele>907.70</ele>
        <time>2016-10-15T07:19:22Z</time>
      </trkpt>
      <trkpt lat="42.601618000" lon="-2.468396000">
        <ele>907.90</ele>
        <time>2016-10-15T07:19:23Z</time>
      </trkpt>
      <trkpt lat="42.601623000" lon="-2.468421000">
        <ele>908.10</ele>
        <time>2016-10-15T07:19:24Z</time>
      </trkpt>
      <trkpt lat="42.601625000" lon="-2.468447000">
        <ele>908.30</ele>
        <time>2016-10-15T07:19:25Z</time>
      </trkpt>
      <trkpt lat="42.601631000" lon="-2.468470000">
        <ele>908.50</ele>
        <time>2016-10-15T07:19:26Z</time>
      </trkpt>
      <trkpt lat="42.601636000" lon="-2.468495000">
        <ele>908.60</ele>
        <time>2016-10-15T07:19:27Z</time>
      </trkpt>
      <trkpt lat="42.601640000" lon="-2.468518000">
        <ele>908.70</ele>
        <time>2016-10-15T07:19:28Z</time>
      </trkpt>
      <trkpt lat="42.601645000" lon="-2.468540000">
        <ele>908.80</ele>
        <time>2016-10-15T07:19:29Z</time>
      </trkpt>
      <trkpt lat="42.601644000" lon="-2.468566000">
        <ele>908.90</ele>
        <time>2016-10-15T07:19:30Z</time>
      </trkpt>
      <trkpt lat="42.601646000" lon="-2.468591000">
        <ele>909.00</ele>
        <time>2016-10-15T07:19:31Z</time>
      </trkpt>
      <trkpt lat="42.601647000" lon="-2.468617000">
        <ele>909.10</ele>
        <time>2016-10-15T07:19:32Z</time>
      </trkpt>
      <trkpt lat="42.601648000" lon="-2.468645000">
        <ele>909.20</ele>
        <time>2016-10-15T07:19:33Z</time>
      </trkpt>
      <trkpt lat="42.601649000" lon="-2.468668000">
        <ele>909.50</ele>
        <time>2016-10-15T07:19:34Z</time>
      </trkpt>
      <trkpt lat="42.601650000" lon="-2.468693000">
        <ele>909.70</ele>
        <time>2016-10-15T07:19:35Z</time>
      </trkpt>
      <trkpt lat="42.601652000" lon="-2.468716000">
        <ele>910.00</ele>
        <time>2016-10-15T07:19:36Z</time>
      </trkpt>
      <trkpt lat="42.601653000" lon="-2.468738000">
        <ele>910.10</ele>
        <time>2016-10-15T07:19:37Z</time>
      </trkpt>
      <trkpt lat="42.601651000" lon="-2.468761000">
        <ele>910.30</ele>
        <time>2016-10-15T07:19:38Z</time>
      </trkpt>
      <trkpt lat="42.601650000" lon="-2.468785000">
        <ele>910.50</ele>
        <time>2016-10-15T07:19:39Z</time>
      </trkpt>
      <trkpt lat="42.601649000" lon="-2.468808000">
        <ele>910.70</ele>
        <time>2016-10-15T07:19:40Z</time>
      </trkpt>
      <trkpt lat="42.601648000" lon="-2.468827000">
        <ele>910.90</ele>
        <time>2016-10-15T07:19:41Z</time>
      </trkpt>
      <trkpt lat="42.601647000" lon="-2.468845000">
        <ele>911.10</ele>
        <time>2016-10-15T07:19:42Z</time>
      </trkpt>
      <trkpt lat="42.601645000" lon="-2.468864000">
        <ele>911.20</ele>
        <time>2016-10-15T07:19:43Z</time>
      </trkpt>
      <trkpt lat="42.601641000" lon="-2.468881000">
        <ele>911.40</ele>
        <time>2016-10-15T07:19:44Z</time>
      </trkpt>
      <trkpt lat="42.601637000" lon="-2.468897000">
        <ele>911.60</ele>
        <time>2016-10-15T07:19:45Z</time>
      </trkpt>
      <trkpt lat="42.601628000" lon="-2.468917000">
        <ele>911.70</ele>
        <time>2016-10-15T07:19:46Z</time>
      </trkpt>
      <trkpt lat="42.601622000" lon="-2.468939000">
        <ele>911.80</ele>
        <time>2016-10-15T07:19:47Z</time>
      </trkpt>
      <trkpt lat="42.601620000" lon="-2.468957000">
        <ele>912.00</ele>
        <time>2016-10-15T07:19:48Z</time>
      </trkpt>
      <trkpt lat="42.601617000" lon="-2.468975000">
        <ele>912.10</ele>
        <time>2016-10-15T07:19:49Z</time>
      </trkpt>
      <trkpt lat="42.601612000" lon="-2.468995000">
        <ele>912.20</ele>
        <time>2016-10-15T07:19:50Z</time>
      </trkpt>
      <trkpt lat="42.601608000" lon="-2.469015000">
        <ele>912.40</ele>
        <time>2016-10-15T07:19:51Z</time>
      </trkpt>
      <trkpt lat="42.601605000" lon="-2.469037000">
        <ele>912.40</ele>
        <time>2016-10-15T07:19:52Z</time>
      </trkpt>
      <trkpt lat="42.601604000" lon="-2.469059000">
        <ele>912.50</ele>
        <time>2016-10-15T07:19:53Z</time>
      </trkpt>
      <trkpt lat="42.601606000" lon="-2.469080000">
        <ele>912.60</ele>
        <time>2016-10-15T07:19:54Z</time>
      </trkpt>
      <trkpt lat="42.601607000" lon="-2.469099000">
        <ele>912.70</ele>
        <time>2016-10-15T07:19:55Z</time>
      </trkpt>
      <trkpt lat="42.601609000" lon="-2.469120000">
        <ele>912.80</ele>
        <time>2016-10-15T07:19:56Z</time>
      </trkpt>
      <trkpt lat="42.601615000" lon="-2.469144000">
        <ele>912.90</ele>
        <time>2016-10-15T07:19:57Z</time>
      </trkpt>
      <trkpt lat="42.601617000" lon="-2.469162000">
        <ele>912.90</ele>
        <time>2016-10-15T07:19:58Z</time>
      </trkpt>
      <trkpt lat="42.601625000" lon="-2.469176000">
        <ele>912.90</ele>
        <time>2016-10-15T07:19:59Z</time>
      </trkpt>
      <trkpt lat="42.601638000" lon="-2.469179000">
        <ele>913.20</ele>
        <time>2016-10-15T07:20:00Z</time>
      </trkpt>
      <trkpt lat="42.601656000" lon="-2.469171000">
        <ele>913.30</ele>
        <time>2016-10-15T07:20:01Z</time>
      </trkpt>
      <trkpt lat="42.601669000" lon="-2.469162000">
        <ele>913.50</ele>
        <time>2016-10-15T07:20:02Z</time>
      </trkpt>
      <trkpt lat="42.601681000" lon="-2.469146000">
        <ele>913.70</ele>
        <time>2016-10-15T07:20:03Z</time>
      </trkpt>
      <trkpt lat="42.601686000" lon="-2.469124000">
        <ele>913.90</ele>
        <time>2016-10-15T07:20:04Z</time>
      </trkpt>
      <trkpt lat="42.601691000" lon="-2.469099000">
        <ele>914.10</ele>
        <time>2016-10-15T07:20:05Z</time>
      </trkpt>
      <trkpt lat="42.601699000" lon="-2.469076000">
        <ele>914.30</ele>
        <time>2016-10-15T07:20:06Z</time>
      </trkpt>
      <trkpt lat="42.601706000" lon="-2.469053000">
        <ele>914.50</ele>
        <time>2016-10-15T07:20:07Z</time>
      </trkpt>
      <trkpt lat="42.601713000" lon="-2.469030000">
        <ele>914.50</ele>
        <time>2016-10-15T07:20:08Z</time>
      </trkpt>
      <trkpt lat="42.601722000" lon="-2.469009000">
        <ele>914.60</ele>
        <time>2016-10-15T07:20:09Z</time>
      </trkpt>
      <trkpt lat="42.601731000" lon="-2.468985000">
        <ele>914.70</ele>
        <time>2016-10-15T07:20:10Z</time>
      </trkpt>
      <trkpt lat="42.601740000" lon="-2.468966000">
        <ele>914.80</ele>
        <time>2016-10-15T07:20:11Z</time>
      </trkpt>
      <trkpt lat="42.601749000" lon="-2.468947000">
        <ele>915.10</ele>
        <time>2016-10-15T07:20:12Z</time>
      </trkpt>
      <trkpt lat="42.601761000" lon="-2.468929000">
        <ele>915.30</ele>
        <time>2016-10-15T07:20:13Z</time>
      </trkpt>
      <trkpt lat="42.601773000" lon="-2.468908000">
        <ele>915.50</ele>
        <time>2016-10-15T07:20:14Z</time>
      </trkpt>
      <trkpt lat="42.601795000" lon="-2.468869000">
        <ele>916.00</ele>
        <time>2016-10-15T07:20:16Z</time>
      </trkpt>
      <trkpt lat="42.601803000" lon="-2.468847000">
        <ele>916.20</ele>
        <time>2016-10-15T07:20:17Z</time>
      </trkpt>
      <trkpt lat="42.601811000" lon="-2.468829000">
        <ele>916.50</ele>
        <time>2016-10-15T07:20:18Z</time>
      </trkpt>
      <trkpt lat="42.601823000" lon="-2.468811000">
        <ele>916.70</ele>
        <time>2016-10-15T07:20:19Z</time>
      </trkpt>
      <trkpt lat="42.601831000" lon="-2.468790000">
        <ele>917.00</ele>
        <time>2016-10-15T07:20:20Z</time>
      </trkpt>
      <trkpt lat="42.601843000" lon="-2.468770000">
        <ele>917.20</ele>
        <time>2016-10-15T07:20:21Z</time>
      </trkpt>
      <trkpt lat="42.601853000" lon="-2.468749000">
        <ele>917.30</ele>
        <time>2016-10-15T07:20:22Z</time>
      </trkpt>
      <trkpt lat="42.601862000" lon="-2.468728000">
        <ele>917.50</ele>
        <time>2016-10-15T07:20:23Z</time>
      </trkpt>
      <trkpt lat="42.601871000" lon="-2.468708000">
        <ele>917.70</ele>
        <time>2016-10-15T07:20:24Z</time>
      </trkpt>
      <trkpt lat="42.601883000" lon="-2.468692000">
        <ele>917.90</ele>
        <time>2016-10-15T07:20:25Z</time>
      </trkpt>
      <trkpt lat="42.601895000" lon="-2.468674000">
        <ele>918.10</ele>
        <time>2016-10-15T07:20:26Z</time>
      </trkpt>
      <trkpt lat="42.601907000" lon="-2.468656000">
        <ele>918.20</ele>
        <time>2016-10-15T07:20:27Z</time>
      </trkpt>
      <trkpt lat="42.601920000" lon="-2.468639000">
        <ele>918.30</ele>
        <time>2016-10-15T07:20:28Z</time>
      </trkpt>
      <trkpt lat="42.601933000" lon="-2.468623000">
        <ele>918.40</ele>
        <time>2016-10-15T07:20:29Z</time>
      </trkpt>
      <trkpt lat="42.601943000" lon="-2.468602000">
        <ele>918.60</ele>
        <time>2016-10-15T07:20:30Z</time>
      </trkpt>
      <trkpt lat="42.601955000" lon="-2.468583000">
        <ele>918.80</ele>
        <time>2016-10-15T07:20:31Z</time>
      </trkpt>
      <trkpt lat="42.601968000" lon="-2.468567000">
        <ele>919.00</ele>
        <time>2016-10-15T07:20:32Z</time>
      </trkpt>
      <trkpt lat="42.601983000" lon="-2.468550000">
        <ele>919.10</ele>
        <time>2016-10-15T07:20:33Z</time>
      </trkpt>
      <trkpt lat="42.601996000" lon="-2.468532000">
        <ele>919.20</ele>
        <time>2016-10-15T07:20:34Z</time>
      </trkpt>
      <trkpt lat="42.602007000" lon="-2.468514000">
        <ele>919.30</ele>
        <time>2016-10-15T07:20:35Z</time>
      </trkpt>
      <trkpt lat="42.602024000" lon="-2.468503000">
        <ele>919.40</ele>
        <time>2016-10-15T07:20:36Z</time>
      </trkpt>
      <trkpt lat="42.602037000" lon="-2.468486000">
        <ele>919.40</ele>
        <time>2016-10-15T07:20:37Z</time>
      </trkpt>
      <trkpt lat="42.602049000" lon="-2.468467000">
        <ele>919.30</ele>
        <time>2016-10-15T07:20:38Z</time>
      </trkpt>
      <trkpt lat="42.602064000" lon="-2.468449000">
        <ele>919.20</ele>
        <time>2016-10-15T07:20:39Z</time>
      </trkpt>
      <trkpt lat="42.602077000" lon="-2.468431000">
        <ele>919.20</ele>
        <time>2016-10-15T07:20:40Z</time>
      </trkpt>
      <trkpt lat="42.602088000" lon="-2.468411000">
        <ele>919.10</ele>
        <time>2016-10-15T07:20:41Z</time>
      </trkpt>
      <trkpt lat="42.602101000" lon="-2.468392000">
        <ele>919.30</ele>
        <time>2016-10-15T07:20:42Z</time>
      </trkpt>
      <trkpt lat="42.602116000" lon="-2.468375000">
        <ele>919.40</ele>
        <time>2016-10-15T07:20:43Z</time>
      </trkpt>
      <trkpt lat="42.602129000" lon="-2.468358000">
        <ele>919.50</ele>
        <time>2016-10-15T07:20:44Z</time>
      </trkpt>
      <trkpt lat="42.602144000" lon="-2.468342000">
        <ele>919.60</ele>
        <time>2016-10-15T07:20:45Z</time>
      </trkpt>
      <trkpt lat="42.602156000" lon="-2.468326000">
        <ele>919.70</ele>
        <time>2016-10-15T07:20:46Z</time>
      </trkpt>
      <trkpt lat="42.602168000" lon="-2.468307000">
        <ele>919.70</ele>
        <time>2016-10-15T07:20:47Z</time>
      </trkpt>
      <trkpt lat="42.602180000" lon="-2.468289000">
        <ele>919.80</ele>
        <time>2016-10-15T07:20:48Z</time>
      </trkpt>
      <trkpt lat="42.602192000" lon="-2.468272000">
        <ele>919.90</ele>
        <time>2016-10-15T07:20:49Z</time>
      </trkpt>
      <trkpt lat="42.602206000" lon="-2.468254000">
        <ele>920.00</ele>
        <time>2016-10-15T07:20:50Z</time>
      </trkpt>
      <trkpt lat="42.602221000" lon="-2.468237000">
        <ele>920.00</ele>
        <time>2016-10-15T07:20:51Z</time>
      </trkpt>
      <trkpt lat="42.602234000" lon="-2.468218000">
        <ele>920.20</ele>
        <time>2016-10-15T07:20:52Z</time>
      </trkpt>
      <trkpt lat="42.602248000" lon="-2.468199000">
        <ele>920.20</ele>
        <time>2016-10-15T07:20:53Z</time>
      </trkpt>
      <trkpt lat="42.602261000" lon="-2.468182000">
        <ele>920.40</ele>
        <time>2016-10-15T07:20:54Z</time>
      </trkpt>
      <trkpt lat="42.602270000" lon="-2.468161000">
        <ele>920.50</ele>
        <time>2016-10-15T07:20:55Z</time>
      </trkpt>
      <trkpt lat="42.602282000" lon="-2.468142000">
        <ele>920.70</ele>
        <time>2016-10-15T07:20:56Z</time>
      </trkpt>
      <trkpt lat="42.602295000" lon="-2.468123000">
        <ele>920.90</ele>
        <time>2016-10-15T07:20:57Z</time>
      </trkpt>
      <trkpt lat="42.602309000" lon="-2.468104000">
        <ele>921.10</ele>
        <time>2016-10-15T07:20:58Z</time>
      </trkpt>
      <trkpt lat="42.602320000" lon="-2.468086000">
        <ele>921.30</ele>
        <time>2016-10-15T07:20:59Z</time>
      </trkpt>
      <trkpt lat="42.602331000" lon="-2.468069000">
        <ele>921.50</ele>
        <time>2016-10-15T07:21:00Z</time>
      </trkpt>
      <trkpt lat="42.602344000" lon="-2.468051000">
        <ele>921.70</ele>
        <time>2016-10-15T07:21:01Z</time>
      </trkpt>
      <trkpt lat="42.602357000" lon="-2.468034000">
        <ele>921.90</ele>
        <time>2016-10-15T07:21:02Z</time>
      </trkpt>
      <trkpt lat="42.602370000" lon="-2.468014000">
        <ele>922.00</ele>
        <time>2016-10-15T07:21:03Z</time>
      </trkpt>
      <trkpt lat="42.602384000" lon="-2.467995000">
        <ele>922.10</ele>
        <time>2016-10-15T07:21:04Z</time>
      </trkpt>
      <trkpt lat="42.602398000" lon="-2.467976000">
        <ele>922.20</ele>
        <time>2016-10-15T07:21:05Z</time>
      </trkpt>
      <trkpt lat="42.602412000" lon="-2.467957000">
        <ele>922.50</ele>
        <time>2016-10-15T07:21:06Z</time>
      </trkpt>
      <trkpt lat="42.602425000" lon="-2.467938000">
        <ele>922.70</ele>
        <time>2016-10-15T07:21:07Z</time>
      </trkpt>
      <trkpt lat="42.602439000" lon="-2.467922000">
        <ele>922.90</ele>
        <time>2016-10-15T07:21:08Z</time>
      </trkpt>
      <trkpt lat="42.602450000" lon="-2.467903000">
        <ele>923.10</ele>
        <time>2016-10-15T07:21:09Z</time>
      </trkpt>
      <trkpt lat="42.602461000" lon="-2.467884000">
        <ele>923.40</ele>
        <time>2016-10-15T07:21:10Z</time>
      </trkpt>
      <trkpt lat="42.602466000" lon="-2.467863000">
        <ele>923.60</ele>
        <time>2016-10-15T07:21:11Z</time>
      </trkpt>
      <trkpt lat="42.602478000" lon="-2.467845000">
        <ele>923.80</ele>
        <time>2016-10-15T07:21:12Z</time>
      </trkpt>
      <trkpt lat="42.602489000" lon="-2.467826000">
        <ele>924.00</ele>
        <time>2016-10-15T07:21:13Z</time>
      </trkpt>
      <trkpt lat="42.602499000" lon="-2.467805000">
        <ele>924.20</ele>
        <time>2016-10-15T07:21:14Z</time>
      </trkpt>
      <trkpt lat="42.602507000" lon="-2.467784000">
        <ele>924.30</ele>
        <time>2016-10-15T07:21:15Z</time>
      </trkpt>
      <trkpt lat="42.602516000" lon="-2.467763000">
        <ele>924.40</ele>
        <time>2016-10-15T07:21:16Z</time>
      </trkpt>
      <trkpt lat="42.602524000" lon="-2.467719000">
        <ele>924.50</ele>
        <time>2016-10-15T07:21:18Z</time>
      </trkpt>
      <trkpt lat="42.602529000" lon="-2.467693000">
        <ele>924.50</ele>
        <time>2016-10-15T07:21:19Z</time>
      </trkpt>
      <trkpt lat="42.602531000" lon="-2.467670000">
        <ele>924.70</ele>
        <time>2016-10-15T07:21:20Z</time>
      </trkpt>
      <trkpt lat="42.602535000" lon="-2.467645000">
        <ele>924.80</ele>
        <time>2016-10-15T07:21:21Z</time>
      </trkpt>
      <trkpt lat="42.602537000" lon="-2.467620000">
        <ele>924.90</ele>
        <time>2016-10-15T07:21:22Z</time>
      </trkpt>
      <trkpt lat="42.602539000" lon="-2.467595000">
        <ele>925.00</ele>
        <time>2016-10-15T07:21:23Z</time>
      </trkpt>
      <trkpt lat="42.602540000" lon="-2.467570000">
        <ele>925.10</ele>
        <time>2016-10-15T07:21:24Z</time>
      </trkpt>
      <trkpt lat="42.602537000" lon="-2.467546000">
        <ele>925.10</ele>
        <time>2016-10-15T07:21:25Z</time>
      </trkpt>
      <trkpt lat="42.602536000" lon="-2.467519000">
        <ele>925.20</ele>
        <time>2016-10-15T07:21:26Z</time>
      </trkpt>
      <trkpt lat="42.602533000" lon="-2.467493000">
        <ele>925.20</ele>
        <time>2016-10-15T07:21:27Z</time>
      </trkpt>
      <trkpt lat="42.602530000" lon="-2.467469000">
        <ele>925.20</ele>
        <time>2016-10-15T07:21:28Z</time>
      </trkpt>
      <trkpt lat="42.602528000" lon="-2.467442000">
        <ele>925.20</ele>
        <time>2016-10-15T07:21:29Z</time>
      </trkpt>
      <trkpt lat="42.602526000" lon="-2.467417000">
        <ele>925.30</ele>
        <time>2016-10-15T07:21:30Z</time>
      </trkpt>
      <trkpt lat="42.602525000" lon="-2.467393000">
        <ele>925.40</ele>
        <time>2016-10-15T07:21:31Z</time>
      </trkpt>
      <trkpt lat="42.602522000" lon="-2.467367000">
        <ele>925.60</ele>
        <time>2016-10-15T07:21:32Z</time>
      </trkpt>
      <trkpt lat="42.602522000" lon="-2.467342000">
        <ele>925.80</ele>
        <time>2016-10-15T07:21:33Z</time>
      </trkpt>
      <trkpt lat="42.602519000" lon="-2.467314000">
        <ele>926.00</ele>
        <time>2016-10-15T07:21:34Z</time>
      </trkpt>
      <trkpt lat="42.602517000" lon="-2.467289000">
        <ele>926.20</ele>
        <time>2016-10-15T07:21:35Z</time>
      </trkpt>
      <trkpt lat="42.602509000" lon="-2.467263000">
        <ele>926.30</ele>
        <time>2016-10-15T07:21:36Z</time>
      </trkpt>
      <trkpt lat="42.602510000" lon="-2.467238000">
        <ele>926.40</ele>
        <time>2016-10-15T07:21:37Z</time>
      </trkpt>
      <trkpt lat="42.602508000" lon="-2.467212000">
        <ele>926.50</ele>
        <time>2016-10-15T07:21:38Z</time>
      </trkpt>
      <trkpt lat="42.602510000" lon="-2.467188000">
        <ele>926.60</ele>
        <time>2016-10-15T07:21:39Z</time>
      </trkpt>
      <trkpt lat="42.602511000" lon="-2.467162000">
        <ele>926.80</ele>
        <time>2016-10-15T07:21:40Z</time>
      </trkpt>
      <trkpt lat="42.602512000" lon="-2.467135000">
        <ele>927.00</ele>
        <time>2016-10-15T07:21:41Z</time>
      </trkpt>
      <trkpt lat="42.602513000" lon="-2.467109000">
        <ele>927.10</ele>
        <time>2016-10-15T07:21:42Z</time>
      </trkpt>
      <trkpt lat="42.602513000" lon="-2.467081000">
        <ele>927.20</ele>
        <time>2016-10-15T07:21:43Z</time>
      </trkpt>
      <trkpt lat="42.602512000" lon="-2.467051000">
        <ele>927.30</ele>
        <time>2016-10-15T07:21:44Z</time>
      </trkpt>
      <trkpt lat="42.602516000" lon="-2.467022000">
        <ele>927.40</ele>
        <time>2016-10-15T07:21:45Z</time>
      </trkpt>
      <trkpt lat="42.602517000" lon="-2.466989000">
        <ele>927.40</ele>
        <time>2016-10-15T07:21:46Z</time>
      </trkpt>
      <trkpt lat="42.602519000" lon="-2.466962000">
        <ele>927.50</ele>
        <time>2016-10-15T07:21:47Z</time>
      </trkpt>
      <trkpt lat="42.602521000" lon="-2.466933000">
        <ele>927.50</ele>
        <time>2016-10-15T07:21:48Z</time>
      </trkpt>
      <trkpt lat="42.602524000" lon="-2.466905000">
        <ele>927.60</ele>
        <time>2016-10-15T07:21:49Z</time>
      </trkpt>
      <trkpt lat="42.602524000" lon="-2.466876000">
        <ele>927.70</ele>
        <time>2016-10-15T07:21:50Z</time>
      </trkpt>
      <trkpt lat="42.602524000" lon="-2.466849000">
        <ele>927.80</ele>
        <time>2016-10-15T07:21:51Z</time>
      </trkpt>
      <trkpt lat="42.602527000" lon="-2.466820000">
        <ele>928.00</ele>
        <time>2016-10-15T07:21:52Z</time>
      </trkpt>
      <trkpt lat="42.602533000" lon="-2.466786000">
        <ele>928.20</ele>
        <time>2016-10-15T07:21:53Z</time>
      </trkpt>
      <trkpt lat="42.602536000" lon="-2.466760000">
        <ele>928.50</ele>
        <time>2016-10-15T07:21:54Z</time>
      </trkpt>
      <trkpt lat="42.602540000" lon="-2.466732000">
        <ele>928.70</ele>
        <time>2016-10-15T07:21:55Z</time>
      </trkpt>
      <trkpt lat="42.602545000" lon="-2.466704000">
        <ele>928.90</ele>
        <time>2016-10-15T07:21:56Z</time>
      </trkpt>
      <trkpt lat="42.602550000" lon="-2.466677000">
        <ele>929.00</ele>
        <time>2016-10-15T07:21:57Z</time>
      </trkpt>
      <trkpt lat="42.602553000" lon="-2.466650000">
        <ele>929.10</ele>
        <time>2016-10-15T07:21:58Z</time>
      </trkpt>
      <trkpt lat="42.602557000" lon="-2.466622000">
        <ele>929.20</ele>
        <time>2016-10-15T07:21:59Z</time>
      </trkpt>
      <trkpt lat="42.602558000" lon="-2.466591000">
        <ele>929.30</ele>
        <time>2016-10-15T07:22:00Z</time>
      </trkpt>
      <trkpt lat="42.602557000" lon="-2.466562000">
        <ele>929.30</ele>
        <time>2016-10-15T07:22:01Z</time>
      </trkpt>
      <trkpt lat="42.602561000" lon="-2.466533000">
        <ele>929.40</ele>
        <time>2016-10-15T07:22:02Z</time>
      </trkpt>
      <trkpt lat="42.602565000" lon="-2.466506000">
        <ele>929.50</ele>
        <time>2016-10-15T07:22:03Z</time>
      </trkpt>
      <trkpt lat="42.602570000" lon="-2.466481000">
        <ele>929.70</ele>
        <time>2016-10-15T07:22:04Z</time>
      </trkpt>
      <trkpt lat="42.602576000" lon="-2.466454000">
        <ele>929.90</ele>
        <time>2016-10-15T07:22:05Z</time>
      </trkpt>
      <trkpt lat="42.602578000" lon="-2.466426000">
        <ele>930.10</ele>
        <time>2016-10-15T07:22:06Z</time>
      </trkpt>
      <trkpt lat="42.602577000" lon="-2.466397000">
        <ele>930.20</ele>
        <time>2016-10-15T07:22:07Z</time>
      </trkpt>
      <trkpt lat="42.602579000" lon="-2.466369000">
        <ele>930.30</ele>
        <time>2016-10-15T07:22:08Z</time>
      </trkpt>
      <trkpt lat="42.602581000" lon="-2.466341000">
        <ele>930.40</ele>
        <time>2016-10-15T07:22:09Z</time>
      </trkpt>
      <trkpt lat="42.602584000" lon="-2.466314000">
        <ele>930.50</ele>
        <time>2016-10-15T07:22:10Z</time>
      </trkpt>
      <trkpt lat="42.602585000" lon="-2.466284000">
        <ele>930.60</ele>
        <time>2016-10-15T07:22:11Z</time>
      </trkpt>
      <trkpt lat="42.602586000" lon="-2.466256000">
        <ele>930.80</ele>
        <time>2016-10-15T07:22:12Z</time>
      </trkpt>
      <trkpt lat="42.602589000" lon="-2.466228000">
        <ele>930.90</ele>
        <time>2016-10-15T07:22:13Z</time>
      </trkpt>
      <trkpt lat="42.602592000" lon="-2.466198000">
        <ele>931.00</ele>
        <time>2016-10-15T07:22:14Z</time>
      </trkpt>
      <trkpt lat="42.602595000" lon="-2.466169000">
        <ele>931.10</ele>
        <time>2016-10-15T07:22:15Z</time>
      </trkpt>
      <trkpt lat="42.602599000" lon="-2.466143000">
        <ele>931.30</ele>
        <time>2016-10-15T07:22:16Z</time>
      </trkpt>
      <trkpt lat="42.602601000" lon="-2.466116000">
        <ele>931.40</ele>
        <time>2016-10-15T07:22:17Z</time>
      </trkpt>
      <trkpt lat="42.602601000" lon="-2.466085000">
        <ele>931.50</ele>
        <time>2016-10-15T07:22:18Z</time>
      </trkpt>
      <trkpt lat="42.602608000" lon="-2.466029000">
        <ele>931.60</ele>
        <time>2016-10-15T07:22:20Z</time>
      </trkpt>
      <trkpt lat="42.602609000" lon="-2.466000000">
        <ele>931.70</ele>
        <time>2016-10-15T07:22:21Z</time>
      </trkpt>
      <trkpt lat="42.602611000" lon="-2.465968000">
        <ele>931.90</ele>
        <time>2016-10-15T07:22:22Z</time>
      </trkpt>
      <trkpt lat="42.602613000" lon="-2.465937000">
        <ele>932.00</ele>
        <time>2016-10-15T07:22:23Z</time>
      </trkpt>
      <trkpt lat="42.602617000" lon="-2.465911000">
        <ele>932.20</ele>
        <time>2016-10-15T07:22:24Z</time>
      </trkpt>
      <trkpt lat="42.602619000" lon="-2.465882000">
        <ele>932.30</ele>
        <time>2016-10-15T07:22:25Z</time>
      </trkpt>
      <trkpt lat="42.602623000" lon="-2.465853000">
        <ele>932.50</ele>
        <time>2016-10-15T07:22:26Z</time>
      </trkpt>
      <trkpt lat="42.602628000" lon="-2.465827000">
        <ele>932.50</ele>
        <time>2016-10-15T07:22:27Z</time>
      </trkpt>
      <trkpt lat="42.602625000" lon="-2.465799000">
        <ele>932.60</ele>
        <time>2016-10-15T07:22:28Z</time>
      </trkpt>
      <trkpt lat="42.602629000" lon="-2.465769000">
        <ele>932.70</ele>
        <time>2016-10-15T07:22:29Z</time>
      </trkpt>
      <trkpt lat="42.602629000" lon="-2.465739000">
        <ele>932.70</ele>
        <time>2016-10-15T07:22:30Z</time>
      </trkpt>
      <trkpt lat="42.602629000" lon="-2.465712000">
        <ele>932.80</ele>
        <time>2016-10-15T07:22:31Z</time>
      </trkpt>
      <trkpt lat="42.602635000" lon="-2.465687000">
        <ele>933.00</ele>
        <time>2016-10-15T07:22:32Z</time>
      </trkpt>
      <trkpt lat="42.602636000" lon="-2.465658000">
        <ele>933.10</ele>
        <time>2016-10-15T07:22:33Z</time>
      </trkpt>
      <trkpt lat="42.602641000" lon="-2.465630000">
        <ele>933.70</ele>
        <time>2016-10-15T07:22:34Z</time>
      </trkpt>
      <trkpt lat="42.602644000" lon="-2.465602000">
        <ele>934.10</ele>
        <time>2016-10-15T07:22:35Z</time>
      </trkpt>
      <trkpt lat="42.602648000" lon="-2.465574000">
        <ele>934.40</ele>
        <time>2016-10-15T07:22:36Z</time>
      </trkpt>
      <trkpt lat="42.602653000" lon="-2.465547000">
        <ele>934.70</ele>
        <time>2016-10-15T07:22:37Z</time>
      </trkpt>
      <trkpt lat="42.602656000" lon="-2.465519000">
        <ele>934.90</ele>
        <time>2016-10-15T07:22:38Z</time>
      </trkpt>
      <trkpt lat="42.602659000" lon="-2.465489000">
        <ele>935.00</ele>
        <time>2016-10-15T07:22:39Z</time>
      </trkpt>
      <trkpt lat="42.602662000" lon="-2.465463000">
        <ele>935.20</ele>
        <time>2016-10-15T07:22:40Z</time>
      </trkpt>
      <trkpt lat="42.602668000" lon="-2.465438000">
        <ele>935.40</ele>
        <time>2016-10-15T07:22:41Z</time>
      </trkpt>
      <trkpt lat="42.602674000" lon="-2.465413000">
        <ele>935.50</ele>
        <time>2016-10-15T07:22:42Z</time>
      </trkpt>
      <trkpt lat="42.602676000" lon="-2.465383000">
        <ele>935.60</ele>
        <time>2016-10-15T07:22:43Z</time>
      </trkpt>
      <trkpt lat="42.602679000" lon="-2.465358000">
        <ele>935.70</ele>
        <time>2016-10-15T07:22:44Z</time>
      </trkpt>
      <trkpt lat="42.602681000" lon="-2.465332000">
        <ele>935.80</ele>
        <time>2016-10-15T07:22:45Z</time>
      </trkpt>
      <trkpt lat="42.602688000" lon="-2.465304000">
        <ele>935.80</ele>
        <time>2016-10-15T07:22:46Z</time>
      </trkpt>
      <trkpt lat="42.602695000" lon="-2.465280000">
        <ele>935.90</ele>
        <time>2016-10-15T07:22:47Z</time>
      </trkpt>
      <trkpt lat="42.602703000" lon="-2.465252000">
        <ele>936.00</ele>
        <time>2016-10-15T07:22:48Z</time>
      </trkpt>
      <trkpt lat="42.602712000" lon="-2.465225000">
        <ele>936.20</ele>
        <time>2016-10-15T07:22:49Z</time>
      </trkpt>
      <trkpt lat="42.602718000" lon="-2.465197000">
        <ele>936.30</ele>
        <time>2016-10-15T07:22:50Z</time>
      </trkpt>
      <trkpt lat="42.602724000" lon="-2.465171000">
        <ele>936.30</ele>
        <time>2016-10-15T07:22:51Z</time>
      </trkpt>
      <trkpt lat="42.602730000" lon="-2.465143000">
        <ele>936.50</ele>
        <time>2016-10-15T07:22:52Z</time>
      </trkpt>
      <trkpt lat="42.602736000" lon="-2.465118000">
        <ele>936.70</ele>
        <time>2016-10-15T07:22:53Z</time>
      </trkpt>
      <trkpt lat="42.602743000" lon="-2.465092000">
        <ele>936.90</ele>
        <time>2016-10-15T07:22:54Z</time>
      </trkpt>
      <trkpt lat="42.602753000" lon="-2.465064000">
        <ele>937.00</ele>
        <time>2016-10-15T07:22:55Z</time>
      </trkpt>
      <trkpt lat="42.602761000" lon="-2.465037000">
        <ele>937.10</ele>
        <time>2016-10-15T07:22:56Z</time>
      </trkpt>
      <trkpt lat="42.602768000" lon="-2.465011000">
        <ele>937.20</ele>
        <time>2016-10-15T07:22:57Z</time>
      </trkpt>
      <trkpt lat="42.602776000" lon="-2.464984000">
        <ele>937.40</ele>
        <time>2016-10-15T07:22:58Z</time>
      </trkpt>
      <trkpt lat="42.602784000" lon="-2.464957000">
        <ele>937.60</ele>
        <time>2016-10-15T07:22:59Z</time>
      </trkpt>
      <trkpt lat="42.602791000" lon="-2.464928000">
        <ele>937.70</ele>
        <time>2016-10-15T07:23:00Z</time>
      </trkpt>
      <trkpt lat="42.602798000" lon="-2.464900000">
        <ele>937.80</ele>
        <time>2016-10-15T07:23:01Z</time>
      </trkpt>
      <trkpt lat="42.602808000" lon="-2.464875000">
        <ele>937.80</ele>
        <time>2016-10-15T07:23:02Z</time>
      </trkpt>
      <trkpt lat="42.602817000" lon="-2.464850000">
        <ele>937.90</ele>
        <time>2016-10-15T07:23:03Z</time>
      </trkpt>
      <trkpt lat="42.602827000" lon="-2.464827000">
        <ele>938.30</ele>
        <time>2016-10-15T07:23:04Z</time>
      </trkpt>
      <trkpt lat="42.602838000" lon="-2.464804000">
        <ele>938.60</ele>
        <time>2016-10-15T07:23:05Z</time>
      </trkpt>
      <trkpt lat="42.602846000" lon="-2.464778000">
        <ele>938.80</ele>
        <time>2016-10-15T07:23:06Z</time>
      </trkpt>
      <trkpt lat="42.602855000" lon="-2.464751000">
        <ele>939.00</ele>
        <time>2016-10-15T07:23:07Z</time>
      </trkpt>
      <trkpt lat="42.602863000" lon="-2.464725000">
        <ele>939.10</ele>
        <time>2016-10-15T07:23:08Z</time>
      </trkpt>
      <trkpt lat="42.602871000" lon="-2.464699000">
        <ele>939.10</ele>
        <time>2016-10-15T07:23:09Z</time>
      </trkpt>
      <trkpt lat="42.602879000" lon="-2.464672000">
        <ele>939.20</ele>
        <time>2016-10-15T07:23:10Z</time>
      </trkpt>
      <trkpt lat="42.602886000" lon="-2.464644000">
        <ele>939.20</ele>
        <time>2016-10-15T07:23:11Z</time>
      </trkpt>
      <trkpt lat="42.602893000" lon="-2.464617000">
        <ele>939.30</ele>
        <time>2016-10-15T07:23:12Z</time>
      </trkpt>
      <trkpt lat="42.602901000" lon="-2.464590000">
        <ele>939.40</ele>
        <time>2016-10-15T07:23:13Z</time>
      </trkpt>
      <trkpt lat="42.602911000" lon="-2.464565000">
        <ele>939.70</ele>
        <time>2016-10-15T07:23:14Z</time>
      </trkpt>
      <trkpt lat="42.602919000" lon="-2.464541000">
        <ele>939.90</ele>
        <time>2016-10-15T07:23:15Z</time>
      </trkpt>
      <trkpt lat="42.602926000" lon="-2.464510000">
        <ele>940.00</ele>
        <time>2016-10-15T07:23:16Z</time>
      </trkpt>
      <trkpt lat="42.602933000" lon="-2.464481000">
        <ele>940.10</ele>
        <time>2016-10-15T07:23:17Z</time>
      </trkpt>
      <trkpt lat="42.602943000" lon="-2.464457000">
        <ele>940.20</ele>
        <time>2016-10-15T07:23:18Z</time>
      </trkpt>
      <trkpt lat="42.602951000" lon="-2.464434000">
        <ele>940.30</ele>
        <time>2016-10-15T07:23:19Z</time>
      </trkpt>
      <trkpt lat="42.602961000" lon="-2.464408000">
        <ele>940.40</ele>
        <time>2016-10-15T07:23:20Z</time>
      </trkpt>
      <trkpt lat="42.602977000" lon="-2.464354000">
        <ele>940.50</ele>
        <time>2016-10-15T07:23:22Z</time>
      </trkpt>
      <trkpt lat="42.602984000" lon="-2.464327000">
        <ele>940.60</ele>
        <time>2016-10-15T07:23:23Z</time>
      </trkpt>
      <trkpt lat="42.602992000" lon="-2.464299000">
        <ele>940.70</ele>
        <time>2016-10-15T07:23:24Z</time>
      </trkpt>
      <trkpt lat="42.602999000" lon="-2.464270000">
        <ele>940.80</ele>
        <time>2016-10-15T07:23:25Z</time>
      </trkpt>
      <trkpt lat="42.603007000" lon="-2.464244000">
        <ele>941.00</ele>
        <time>2016-10-15T07:23:26Z</time>
      </trkpt>
      <trkpt lat="42.603016000" lon="-2.464220000">
        <ele>941.20</ele>
        <time>2016-10-15T07:23:27Z</time>
      </trkpt>
      <trkpt lat="42.603025000" lon="-2.464196000">
        <ele>941.30</ele>
        <time>2016-10-15T07:23:28Z</time>
      </trkpt>
      <trkpt lat="42.603032000" lon="-2.464171000">
        <ele>941.50</ele>
        <time>2016-10-15T07:23:29Z</time>
      </trkpt>
      <trkpt lat="42.603041000" lon="-2.464146000">
        <ele>941.60</ele>
        <time>2016-10-15T07:23:30Z</time>
      </trkpt>
      <trkpt lat="42.603046000" lon="-2.464118000">
        <ele>941.60</ele>
        <time>2016-10-15T07:23:31Z</time>
      </trkpt>
      <trkpt lat="42.603053000" lon="-2.464092000">
        <ele>941.80</ele>
        <time>2016-10-15T07:23:32Z</time>
      </trkpt>
      <trkpt lat="42.603060000" lon="-2.464069000">
        <ele>941.90</ele>
        <time>2016-10-15T07:23:33Z</time>
      </trkpt>
      <trkpt lat="42.603066000" lon="-2.464047000">
        <ele>942.00</ele>
        <time>2016-10-15T07:23:34Z</time>
      </trkpt>
      <trkpt lat="42.603072000" lon="-2.464026000">
        <ele>942.00</ele>
        <time>2016-10-15T07:23:35Z</time>
      </trkpt>
      <trkpt lat="42.603081000" lon="-2.463996000">
        <ele>942.20</ele>
        <time>2016-10-15T07:23:36Z</time>
      </trkpt>
      <trkpt lat="42.603090000" lon="-2.463966000">
        <ele>942.30</ele>
        <time>2016-10-15T07:23:37Z</time>
      </trkpt>
      <trkpt lat="42.603097000" lon="-2.463938000">
        <ele>942.60</ele>
        <time>2016-10-15T07:23:38Z</time>
      </trkpt>
      <trkpt lat="42.603105000" lon="-2.463913000">
        <ele>942.80</ele>
        <time>2016-10-15T07:23:39Z</time>
      </trkpt>
      <trkpt lat="42.603113000" lon="-2.463887000">
        <ele>943.20</ele>
        <time>2016-10-15T07:23:40Z</time>
      </trkpt>
      <trkpt lat="42.603121000" lon="-2.463863000">
        <ele>943.50</ele>
        <time>2016-10-15T07:23:41Z</time>
      </trkpt>
      <trkpt lat="42.603130000" lon="-2.463839000">
        <ele>943.80</ele>
        <time>2016-10-15T07:23:42Z</time>
      </trkpt>
      <trkpt lat="42.603137000" lon="-2.463814000">
        <ele>944.00</ele>
        <time>2016-10-15T07:23:43Z</time>
      </trkpt>
      <trkpt lat="42.603147000" lon="-2.463789000">
        <ele>944.20</ele>
        <time>2016-10-15T07:23:44Z</time>
      </trkpt>
      <trkpt lat="42.603154000" lon="-2.463763000">
        <ele>944.30</ele>
        <time>2016-10-15T07:23:45Z</time>
      </trkpt>
      <trkpt lat="42.603161000" lon="-2.463736000">
        <ele>944.50</ele>
        <time>2016-10-15T07:23:46Z</time>
      </trkpt>
      <trkpt lat="42.603169000" lon="-2.463710000">
        <ele>944.50</ele>
        <time>2016-10-15T07:23:47Z</time>
      </trkpt>
      <trkpt lat="42.603179000" lon="-2.463685000">
        <ele>944.80</ele>
        <time>2016-10-15T07:23:48Z</time>
      </trkpt>
      <trkpt lat="42.603186000" lon="-2.463661000">
        <ele>945.00</ele>
        <time>2016-10-15T07:23:49Z</time>
      </trkpt>
      <trkpt lat="42.603197000" lon="-2.463638000">
        <ele>945.20</ele>
        <time>2016-10-15T07:23:50Z</time>
      </trkpt>
      <trkpt lat="42.603208000" lon="-2.463613000">
        <ele>945.30</ele>
        <time>2016-10-15T07:23:51Z</time>
      </trkpt>
      <trkpt lat="42.603218000" lon="-2.463587000">
        <ele>945.40</ele>
        <time>2016-10-15T07:23:52Z</time>
      </trkpt>
      <trkpt lat="42.603225000" lon="-2.463562000">
        <ele>945.60</ele>
        <time>2016-10-15T07:23:53Z</time>
      </trkpt>
      <trkpt lat="42.603234000" lon="-2.463539000">
        <ele>945.60</ele>
        <time>2016-10-15T07:23:54Z</time>
      </trkpt>
      <trkpt lat="42.603245000" lon="-2.463513000">
        <ele>945.60</ele>
        <time>2016-10-15T07:23:55Z</time>
      </trkpt>
      <trkpt lat="42.603255000" lon="-2.463487000">
        <ele>945.70</ele>
        <time>2016-10-15T07:23:56Z</time>
      </trkpt>
      <trkpt lat="42.603262000" lon="-2.463459000">
        <ele>945.70</ele>
        <time>2016-10-15T07:23:57Z</time>
      </trkpt>
      <trkpt lat="42.603270000" lon="-2.463431000">
        <ele>945.80</ele>
        <time>2016-10-15T07:23:58Z</time>
      </trkpt>
      <trkpt lat="42.603279000" lon="-2.463406000">
        <ele>945.80</ele>
        <time>2016-10-15T07:23:59Z</time>
      </trkpt>
      <trkpt lat="42.603290000" lon="-2.463381000">
        <ele>945.90</ele>
        <time>2016-10-15T07:24:00Z</time>
      </trkpt>
      <trkpt lat="42.603300000" lon="-2.463355000">
        <ele>946.00</ele>
        <time>2016-10-15T07:24:01Z</time>
      </trkpt>
      <trkpt lat="42.603308000" lon="-2.463327000">
        <ele>946.20</ele>
        <time>2016-10-15T07:24:02Z</time>
      </trkpt>
      <trkpt lat="42.603318000" lon="-2.463301000">
        <ele>946.30</ele>
        <time>2016-10-15T07:24:03Z</time>
      </trkpt>
      <trkpt lat="42.603330000" lon="-2.463275000">
        <ele>946.40</ele>
        <time>2016-10-15T07:24:04Z</time>
      </trkpt>
      <trkpt lat="42.603336000" lon="-2.463245000">
        <ele>946.40</ele>
        <time>2016-10-15T07:24:05Z</time>
      </trkpt>
      <trkpt lat="42.603343000" lon="-2.463219000">
        <ele>946.50</ele>
        <time>2016-10-15T07:24:06Z</time>
      </trkpt>
      <trkpt lat="42.603352000" lon="-2.463192000">
        <ele>946.60</ele>
        <time>2016-10-15T07:24:07Z</time>
      </trkpt>
      <trkpt lat="42.603361000" lon="-2.463165000">
        <ele>946.80</ele>
        <time>2016-10-15T07:24:08Z</time>
      </trkpt>
      <trkpt lat="42.603371000" lon="-2.463145000">
        <ele>946.90</ele>
        <time>2016-10-15T07:24:09Z</time>
      </trkpt>
      <trkpt lat="42.603378000" lon="-2.463119000">
        <ele>947.10</ele>
        <time>2016-10-15T07:24:10Z</time>
      </trkpt>
      <trkpt lat="42.603389000" lon="-2.463092000">
        <ele>947.20</ele>
        <time>2016-10-15T07:24:11Z</time>
      </trkpt>
      <trkpt lat="42.603400000" lon="-2.463065000">
        <ele>947.40</ele>
        <time>2016-10-15T07:24:12Z</time>
      </trkpt>
      <trkpt lat="42.603409000" lon="-2.463040000">
        <ele>947.50</ele>
        <time>2016-10-15T07:24:13Z</time>
      </trkpt>
      <trkpt lat="42.603417000" lon="-2.463014000">
        <ele>947.60</ele>
        <time>2016-10-15T07:24:14Z</time>
      </trkpt>
      <trkpt lat="42.603424000" lon="-2.462987000">
        <ele>947.70</ele>
        <time>2016-10-15T07:24:15Z</time>
      </trkpt>
      <trkpt lat="42.603431000" lon="-2.462959000">
        <ele>947.90</ele>
        <time>2016-10-15T07:24:16Z</time>
      </trkpt>
      <trkpt lat="42.603441000" lon="-2.462929000">
        <ele>948.10</ele>
        <time>2016-10-15T07:24:17Z</time>
      </trkpt>
      <trkpt lat="42.603451000" lon="-2.462903000">
        <ele>948.40</ele>
        <time>2016-10-15T07:24:18Z</time>
      </trkpt>
      <trkpt lat="42.603462000" lon="-2.462880000">
        <ele>948.60</ele>
        <time>2016-10-15T07:24:19Z</time>
      </trkpt>
      <trkpt lat="42.603472000" lon="-2.462854000">
        <ele>948.80</ele>
        <time>2016-10-15T07:24:20Z</time>
      </trkpt>
      <trkpt lat="42.603483000" lon="-2.462829000">
        <ele>949.00</ele>
        <time>2016-10-15T07:24:21Z</time>
      </trkpt>
      <trkpt lat="42.603494000" lon="-2.462804000">
        <ele>949.10</ele>
        <time>2016-10-15T07:24:22Z</time>
      </trkpt>
      <trkpt lat="42.603513000" lon="-2.462753000">
        <ele>949.30</ele>
        <time>2016-10-15T07:24:24Z</time>
      </trkpt>
      <trkpt lat="42.603522000" lon="-2.462726000">
        <ele>949.30</ele>
        <time>2016-10-15T07:24:25Z</time>
      </trkpt>
      <trkpt lat="42.603531000" lon="-2.462702000">
        <ele>949.70</ele>
        <time>2016-10-15T07:24:26Z</time>
      </trkpt>
      <trkpt lat="42.603543000" lon="-2.462675000">
        <ele>949.90</ele>
        <time>2016-10-15T07:24:27Z</time>
      </trkpt>
      <trkpt lat="42.603551000" lon="-2.462649000">
        <ele>950.10</ele>
        <time>2016-10-15T07:24:28Z</time>
      </trkpt>
      <trkpt lat="42.603562000" lon="-2.462624000">
        <ele>950.30</ele>
        <time>2016-10-15T07:24:29Z</time>
      </trkpt>
      <trkpt lat="42.603574000" lon="-2.462598000">
        <ele>950.30</ele>
        <time>2016-10-15T07:24:30Z</time>
      </trkpt>
      <trkpt lat="42.603581000" lon="-2.462572000">
        <ele>950.30</ele>
        <time>2016-10-15T07:24:31Z</time>
      </trkpt>
      <trkpt lat="42.603587000" lon="-2.462549000">
        <ele>950.30</ele>
        <time>2016-10-15T07:24:32Z</time>
      </trkpt>
      <trkpt lat="42.603596000" lon="-2.462522000">
        <ele>950.20</ele>
        <time>2016-10-15T07:24:33Z</time>
      </trkpt>
      <trkpt lat="42.603605000" lon="-2.462498000">
        <ele>950.40</ele>
        <time>2016-10-15T07:24:34Z</time>
      </trkpt>
      <trkpt lat="42.603614000" lon="-2.462471000">
        <ele>950.50</ele>
        <time>2016-10-15T07:24:35Z</time>
      </trkpt>
      <trkpt lat="42.603625000" lon="-2.462446000">
        <ele>950.60</ele>
        <time>2016-10-15T07:24:36Z</time>
      </trkpt>
      <trkpt lat="42.603633000" lon="-2.462419000">
        <ele>950.70</ele>
        <time>2016-10-15T07:24:37Z</time>
      </trkpt>
      <trkpt lat="42.603642000" lon="-2.462394000">
        <ele>950.90</ele>
        <time>2016-10-15T07:24:38Z</time>
      </trkpt>
      <trkpt lat="42.603655000" lon="-2.462370000">
        <ele>951.10</ele>
        <time>2016-10-15T07:24:39Z</time>
      </trkpt>
      <trkpt lat="42.603664000" lon="-2.462345000">
        <ele>951.30</ele>
        <time>2016-10-15T07:24:40Z</time>
      </trkpt>
      <trkpt lat="42.603674000" lon="-2.462319000">
        <ele>951.40</ele>
        <time>2016-10-15T07:24:41Z</time>
      </trkpt>
      <trkpt lat="42.603685000" lon="-2.462295000">
        <ele>951.50</ele>
        <time>2016-10-15T07:24:42Z</time>
      </trkpt>
      <trkpt lat="42.603689000" lon="-2.462271000">
        <ele>951.60</ele>
        <time>2016-10-15T07:24:43Z</time>
      </trkpt>
      <trkpt lat="42.603697000" lon="-2.462246000">
        <ele>951.80</ele>
        <time>2016-10-15T07:24:44Z</time>
      </trkpt>
      <trkpt lat="42.603706000" lon="-2.462222000">
        <ele>952.00</ele>
        <time>2016-10-15T07:24:45Z</time>
      </trkpt>
      <trkpt lat="42.603717000" lon="-2.462200000">
        <ele>952.00</ele>
        <time>2016-10-15T07:24:46Z</time>
      </trkpt>
      <trkpt lat="42.603726000" lon="-2.462173000">
        <ele>952.00</ele>
        <time>2016-10-15T07:24:47Z</time>
      </trkpt>
      <trkpt lat="42.603731000" lon="-2.462145000">
        <ele>951.90</ele>
        <time>2016-10-15T07:24:48Z</time>
      </trkpt>
      <trkpt lat="42.603738000" lon="-2.462119000">
        <ele>951.90</ele>
        <time>2016-10-15T07:24:49Z</time>
      </trkpt>
      <trkpt lat="42.603745000" lon="-2.462093000">
        <ele>951.90</ele>
        <time>2016-10-15T07:24:50Z</time>
      </trkpt>
      <trkpt lat="42.603750000" lon="-2.462065000">
        <ele>952.00</ele>
        <time>2016-10-15T07:24:51Z</time>
      </trkpt>
      <trkpt lat="42.603757000" lon="-2.462039000">
        <ele>952.00</ele>
        <time>2016-10-15T07:24:52Z</time>
      </trkpt>
      <trkpt lat="42.603766000" lon="-2.462012000">
        <ele>952.10</ele>
        <time>2016-10-15T07:24:53Z</time>
      </trkpt>
      <trkpt lat="42.603774000" lon="-2.461985000">
        <ele>952.20</ele>
        <time>2016-10-15T07:24:54Z</time>
      </trkpt>
      <trkpt lat="42.603780000" lon="-2.461958000">
        <ele>952.30</ele>
        <time>2016-10-15T07:24:55Z</time>
      </trkpt>
      <trkpt lat="42.603784000" lon="-2.461930000">
        <ele>952.40</ele>
        <time>2016-10-15T07:24:56Z</time>
      </trkpt>
      <trkpt lat="42.603789000" lon="-2.461904000">
        <ele>952.50</ele>
        <time>2016-10-15T07:24:57Z</time>
      </trkpt>
      <trkpt lat="42.603794000" lon="-2.461878000">
        <ele>952.80</ele>
        <time>2016-10-15T07:24:58Z</time>
      </trkpt>
      <trkpt lat="42.603800000" lon="-2.461850000">
        <ele>953.00</ele>
        <time>2016-10-15T07:24:59Z</time>
      </trkpt>
      <trkpt lat="42.603803000" lon="-2.461822000">
        <ele>953.20</ele>
        <time>2016-10-15T07:25:00Z</time>
      </trkpt>
      <trkpt lat="42.603808000" lon="-2.461795000">
        <ele>953.30</ele>
        <time>2016-10-15T07:25:01Z</time>
      </trkpt>
      <trkpt lat="42.603809000" lon="-2.461765000">
        <ele>953.50</ele>
        <time>2016-10-15T07:25:02Z</time>
      </trkpt>
      <trkpt lat="42.603812000" lon="-2.461739000">
        <ele>953.70</ele>
        <time>2016-10-15T07:25:03Z</time>
      </trkpt>
      <trkpt lat="42.603814000" lon="-2.461713000">
        <ele>953.80</ele>
        <time>2016-10-15T07:25:04Z</time>
      </trkpt>
      <trkpt lat="42.603812000" lon="-2.461677000">
        <ele>953.90</ele>
        <time>2016-10-15T07:25:05Z</time>
      </trkpt>
      <trkpt lat="42.603816000" lon="-2.461649000">
        <ele>954.10</ele>
        <time>2016-10-15T07:25:06Z</time>
      </trkpt>
      <trkpt lat="42.603820000" lon="-2.461623000">
        <ele>954.20</ele>
        <time>2016-10-15T07:25:07Z</time>
      </trkpt>
      <trkpt lat="42.603826000" lon="-2.461597000">
        <ele>954.30</ele>
        <time>2016-10-15T07:25:08Z</time>
      </trkpt>
      <trkpt lat="42.603835000" lon="-2.461571000">
        <ele>954.40</ele>
        <time>2016-10-15T07:25:09Z</time>
      </trkpt>
      <trkpt lat="42.603843000" lon="-2.461543000">
        <ele>954.50</ele>
        <time>2016-10-15T07:25:10Z</time>
      </trkpt>
      <trkpt lat="42.603856000" lon="-2.461516000">
        <ele>954.60</ele>
        <time>2016-10-15T07:25:11Z</time>
      </trkpt>
      <trkpt lat="42.603869000" lon="-2.461490000">
        <ele>954.80</ele>
        <time>2016-10-15T07:25:12Z</time>
      </trkpt>
      <trkpt lat="42.603884000" lon="-2.461466000">
        <ele>954.90</ele>
        <time>2016-10-15T07:25:13Z</time>
      </trkpt>
      <trkpt lat="42.603900000" lon="-2.461446000">
        <ele>955.00</ele>
        <time>2016-10-15T07:25:14Z</time>
      </trkpt>
      <trkpt lat="42.603915000" lon="-2.461428000">
        <ele>955.00</ele>
        <time>2016-10-15T07:25:15Z</time>
      </trkpt>
      <trkpt lat="42.603931000" lon="-2.461413000">
        <ele>955.10</ele>
        <time>2016-10-15T07:25:16Z</time>
      </trkpt>
      <trkpt lat="42.603949000" lon="-2.461404000">
        <ele>955.20</ele>
        <time>2016-10-15T07:25:17Z</time>
      </trkpt>
      <trkpt lat="42.603969000" lon="-2.461395000">
        <ele>955.20</ele>
        <time>2016-10-15T07:25:18Z</time>
      </trkpt>
      <trkpt lat="42.603987000" lon="-2.461379000">
        <ele>955.30</ele>
        <time>2016-10-15T07:25:19Z</time>
      </trkpt>
      <trkpt lat="42.604002000" lon="-2.461359000">
        <ele>955.40</ele>
        <time>2016-10-15T07:25:20Z</time>
      </trkpt>
      <trkpt lat="42.604015000" lon="-2.461336000">
        <ele>955.50</ele>
        <time>2016-10-15T07:25:21Z</time>
      </trkpt>
      <trkpt lat="42.604030000" lon="-2.461312000">
        <ele>955.70</ele>
        <time>2016-10-15T07:25:22Z</time>
      </trkpt>
      <trkpt lat="42.604042000" lon="-2.461285000">
        <ele>955.80</ele>
        <time>2016-10-15T07:25:23Z</time>
      </trkpt>
      <trkpt lat="42.604055000" lon="-2.461262000">
        <ele>955.80</ele>
        <time>2016-10-15T07:25:24Z</time>
      </trkpt>
      <trkpt lat="42.604078000" lon="-2.461213000">
        <ele>955.80</ele>
        <time>2016-10-15T07:25:26Z</time>
      </trkpt>
      <trkpt lat="42.604087000" lon="-2.461190000">
        <ele>955.80</ele>
        <time>2016-10-15T07:25:27Z</time>
      </trkpt>
      <trkpt lat="42.604093000" lon="-2.461163000">
        <ele>955.80</ele>
        <time>2016-10-15T07:25:28Z</time>
      </trkpt>
      <trkpt lat="42.604098000" lon="-2.461137000">
        <ele>955.80</ele>
        <time>2016-10-15T07:25:29Z</time>
      </trkpt>
      <trkpt lat="42.604101000" lon="-2.461113000">
        <ele>956.00</ele>
        <time>2016-10-15T07:25:30Z</time>
      </trkpt>
      <trkpt lat="42.604104000" lon="-2.461085000">
        <ele>956.20</ele>
        <time>2016-10-15T07:25:31Z</time>
      </trkpt>
      <trkpt lat="42.604109000" lon="-2.461057000">
        <ele>956.30</ele>
        <time>2016-10-15T07:25:32Z</time>
      </trkpt>
      <trkpt lat="42.604118000" lon="-2.461030000">
        <ele>956.40</ele>
        <time>2016-10-15T07:25:33Z</time>
      </trkpt>
      <trkpt lat="42.604129000" lon="-2.461000000">
        <ele>956.40</ele>
        <time>2016-10-15T07:25:34Z</time>
      </trkpt>
      <trkpt lat="42.604137000" lon="-2.460978000">
        <ele>956.40</ele>
        <time>2016-10-15T07:25:35Z</time>
      </trkpt>
      <trkpt lat="42.604141000" lon="-2.460949000">
        <ele>956.40</ele>
        <time>2016-10-15T07:25:36Z</time>
      </trkpt>
      <trkpt lat="42.604140000" lon="-2.460923000">
        <ele>956.40</ele>
        <time>2016-10-15T07:25:37Z</time>
      </trkpt>
      <trkpt lat="42.604142000" lon="-2.460894000">
        <ele>956.30</ele>
        <time>2016-10-15T07:25:38Z</time>
      </trkpt>
      <trkpt lat="42.604145000" lon="-2.460865000">
        <ele>956.30</ele>
        <time>2016-10-15T07:25:39Z</time>
      </trkpt>
      <trkpt lat="42.604150000" lon="-2.460838000">
        <ele>956.30</ele>
        <time>2016-10-15T07:25:40Z</time>
      </trkpt>
      <trkpt lat="42.604157000" lon="-2.460809000">
        <ele>956.40</ele>
        <time>2016-10-15T07:25:41Z</time>
      </trkpt>
      <trkpt lat="42.604165000" lon="-2.460781000">
        <ele>956.30</ele>
        <time>2016-10-15T07:25:42Z</time>
      </trkpt>
      <trkpt lat="42.604173000" lon="-2.460755000">
        <ele>956.30</ele>
        <time>2016-10-15T07:25:43Z</time>
      </trkpt>
      <trkpt lat="42.604182000" lon="-2.460729000">
        <ele>956.30</ele>
        <time>2016-10-15T07:25:44Z</time>
      </trkpt>
      <trkpt lat="42.604190000" lon="-2.460704000">
        <ele>956.40</ele>
        <time>2016-10-15T07:25:45Z</time>
      </trkpt>
      <trkpt lat="42.604196000" lon="-2.460678000">
        <ele>956.30</ele>
        <time>2016-10-15T07:25:46Z</time>
      </trkpt>
      <trkpt lat="42.604202000" lon="-2.460651000">
        <ele>956.30</ele>
        <time>2016-10-15T07:25:47Z</time>
      </trkpt>
      <trkpt lat="42.604209000" lon="-2.460627000">
        <ele>956.50</ele>
        <time>2016-10-15T07:25:48Z</time>
      </trkpt>
      <trkpt lat="42.604216000" lon="-2.460598000">
        <ele>956.60</ele>
        <time>2016-10-15T07:25:49Z</time>
      </trkpt>
      <trkpt lat="42.604221000" lon="-2.460570000">
        <ele>956.80</ele>
        <time>2016-10-15T07:25:50Z</time>
      </trkpt>
      <trkpt lat="42.604227000" lon="-2.460541000">
        <ele>957.00</ele>
        <time>2016-10-15T07:25:51Z</time>
      </trkpt>
      <trkpt lat="42.604233000" lon="-2.460515000">
        <ele>957.20</ele>
        <time>2016-10-15T07:25:52Z</time>
      </trkpt>
      <trkpt lat="42.604240000" lon="-2.460485000">
        <ele>957.30</ele>
        <time>2016-10-15T07:25:53Z</time>
      </trkpt>
      <trkpt lat="42.604245000" lon="-2.460456000">
        <ele>957.20</ele>
        <time>2016-10-15T07:25:54Z</time>
      </trkpt>
      <trkpt lat="42.604251000" lon="-2.460428000">
        <ele>957.20</ele>
        <time>2016-10-15T07:25:55Z</time>
      </trkpt>
      <trkpt lat="42.604258000" lon="-2.460400000">
        <ele>957.10</ele>
        <time>2016-10-15T07:25:56Z</time>
      </trkpt>
      <trkpt lat="42.604269000" lon="-2.460372000">
        <ele>957.00</ele>
        <time>2016-10-15T07:25:57Z</time>
      </trkpt>
      <trkpt lat="42.604277000" lon="-2.460347000">
        <ele>957.00</ele>
        <time>2016-10-15T07:25:58Z</time>
      </trkpt>
      <trkpt lat="42.604286000" lon="-2.460322000">
        <ele>956.90</ele>
        <time>2016-10-15T07:25:59Z</time>
      </trkpt>
      <trkpt lat="42.604293000" lon="-2.460295000">
        <ele>957.00</ele>
        <time>2016-10-15T07:26:00Z</time>
      </trkpt>
      <trkpt lat="42.604303000" lon="-2.460268000">
        <ele>957.10</ele>
        <time>2016-10-15T07:26:01Z</time>
      </trkpt>
      <trkpt lat="42.604316000" lon="-2.460239000">
        <ele>957.20</ele>
        <time>2016-10-15T07:26:02Z</time>
      </trkpt>
      <trkpt lat="42.604329000" lon="-2.460208000">
        <ele>957.30</ele>
        <time>2016-10-15T07:26:03Z</time>
      </trkpt>
      <trkpt lat="42.604341000" lon="-2.460178000">
        <ele>957.30</ele>
        <time>2016-10-15T07:26:04Z</time>
      </trkpt>
      <trkpt lat="42.604352000" lon="-2.460146000">
        <ele>957.30</ele>
        <time>2016-10-15T07:26:05Z</time>
      </trkpt>
      <trkpt lat="42.604364000" lon="-2.460114000">
        <ele>957.40</ele>
        <time>2016-10-15T07:26:06Z</time>
      </trkpt>
      <trkpt lat="42.604377000" lon="-2.460086000">
        <ele>957.40</ele>
        <time>2016-10-15T07:26:07Z</time>
      </trkpt>
      <trkpt lat="42.604391000" lon="-2.460058000">
        <ele>957.30</ele>
        <time>2016-10-15T07:26:08Z</time>
      </trkpt>
      <trkpt lat="42.604405000" lon="-2.460029000">
        <ele>957.30</ele>
        <time>2016-10-15T07:26:09Z</time>
      </trkpt>
      <trkpt lat="42.604418000" lon="-2.460000000">
        <ele>957.40</ele>
        <time>2016-10-15T07:26:10Z</time>
      </trkpt>
      <trkpt lat="42.604429000" lon="-2.459972000">
        <ele>957.50</ele>
        <time>2016-10-15T07:26:11Z</time>
      </trkpt>
      <trkpt lat="42.604437000" lon="-2.459942000">
        <ele>957.50</ele>
        <time>2016-10-15T07:26:12Z</time>
      </trkpt>
      <trkpt lat="42.604448000" lon="-2.459913000">
        <ele>957.50</ele>
        <time>2016-10-15T07:26:13Z</time>
      </trkpt>
      <trkpt lat="42.604462000" lon="-2.459880000">
        <ele>957.50</ele>
        <time>2016-10-15T07:26:14Z</time>
      </trkpt>
      <trkpt lat="42.604474000" lon="-2.459848000">
        <ele>957.50</ele>
        <time>2016-10-15T07:26:15Z</time>
      </trkpt>
      <trkpt lat="42.604495000" lon="-2.459819000">
        <ele>957.40</ele>
        <time>2016-10-15T07:26:16Z</time>
      </trkpt>
      <trkpt lat="42.604511000" lon="-2.459786000">
        <ele>957.30</ele>
        <time>2016-10-15T07:26:17Z</time>
      </trkpt>
      <trkpt lat="42.604526000" lon="-2.459753000">
        <ele>957.20</ele>
        <time>2016-10-15T07:26:18Z</time>
      </trkpt>
      <trkpt lat="42.604539000" lon="-2.459722000">
        <ele>957.20</ele>
        <time>2016-10-15T07:26:19Z</time>
      </trkpt>
      <trkpt lat="42.604550000" lon="-2.459690000">
        <ele>957.10</ele>
        <time>2016-10-15T07:26:20Z</time>
      </trkpt>
      <trkpt lat="42.604560000" lon="-2.459660000">
        <ele>957.00</ele>
        <time>2016-10-15T07:26:21Z</time>
      </trkpt>
      <trkpt lat="42.604571000" lon="-2.459631000">
        <ele>956.90</ele>
        <time>2016-10-15T07:26:22Z</time>
      </trkpt>
      <trkpt lat="42.604583000" lon="-2.459601000">
        <ele>956.90</ele>
        <time>2016-10-15T07:26:23Z</time>
      </trkpt>
      <trkpt lat="42.604596000" lon="-2.459575000">
        <ele>956.90</ele>
        <time>2016-10-15T07:26:24Z</time>
      </trkpt>
      <trkpt lat="42.604611000" lon="-2.459551000">
        <ele>956.80</ele>
        <time>2016-10-15T07:26:25Z</time>
      </trkpt>
      <trkpt lat="42.604629000" lon="-2.459532000">
        <ele>956.80</ele>
        <time>2016-10-15T07:26:26Z</time>
      </trkpt>
      <trkpt lat="42.604656000" lon="-2.459488000">
        <ele>957.00</ele>
        <time>2016-10-15T07:26:28Z</time>
      </trkpt>
      <trkpt lat="42.604670000" lon="-2.459467000">
        <ele>957.10</ele>
        <time>2016-10-15T07:26:29Z</time>
      </trkpt>
      <trkpt lat="42.604684000" lon="-2.459447000">
        <ele>957.30</ele>
        <time>2016-10-15T07:26:30Z</time>
      </trkpt>
      <trkpt lat="42.604698000" lon="-2.459427000">
        <ele>957.50</ele>
        <time>2016-10-15T07:26:31Z</time>
      </trkpt>
      <trkpt lat="42.604714000" lon="-2.459407000">
        <ele>957.60</ele>
        <time>2016-10-15T07:26:32Z</time>
      </trkpt>
      <trkpt lat="42.604731000" lon="-2.459391000">
        <ele>957.70</ele>
        <time>2016-10-15T07:26:33Z</time>
      </trkpt>
      <trkpt lat="42.604750000" lon="-2.459385000">
        <ele>957.80</ele>
        <time>2016-10-15T07:26:34Z</time>
      </trkpt>
      <trkpt lat="42.604771000" lon="-2.459379000">
        <ele>957.90</ele>
        <time>2016-10-15T07:26:35Z</time>
      </trkpt>
      <trkpt lat="42.604793000" lon="-2.459375000">
        <ele>958.00</ele>
        <time>2016-10-15T07:26:36Z</time>
      </trkpt>
      <trkpt lat="42.604816000" lon="-2.459379000">
        <ele>958.10</ele>
        <time>2016-10-15T07:26:37Z</time>
      </trkpt>
      <trkpt lat="42.604836000" lon="-2.459381000">
        <ele>958.30</ele>
        <time>2016-10-15T07:26:38Z</time>
      </trkpt>
      <trkpt lat="42.604857000" lon="-2.459382000">
        <ele>958.50</ele>
        <time>2016-10-15T07:26:39Z</time>
      </trkpt>
      <trkpt lat="42.604874000" lon="-2.459383000">
        <ele>959.00</ele>
        <time>2016-10-15T07:26:40Z</time>
      </trkpt>
      <trkpt lat="42.604892000" lon="-2.459389000">
        <ele>959.30</ele>
        <time>2016-10-15T07:26:41Z</time>
      </trkpt>
      <trkpt lat="42.604909000" lon="-2.459390000">
        <ele>959.60</ele>
        <time>2016-10-15T07:26:42Z</time>
      </trkpt>
      <trkpt lat="42.604923000" lon="-2.459380000">
        <ele>959.80</ele>
        <time>2016-10-15T07:26:43Z</time>
      </trkpt>
      <trkpt lat="42.604935000" lon="-2.459367000">
        <ele>960.00</ele>
        <time>2016-10-15T07:26:44Z</time>
      </trkpt>
      <trkpt lat="42.604948000" lon="-2.459353000">
        <ele>960.10</ele>
        <time>2016-10-15T07:26:45Z</time>
      </trkpt>
      <trkpt lat="42.604960000" lon="-2.459339000">
        <ele>960.20</ele>
        <time>2016-10-15T07:26:46Z</time>
      </trkpt>
      <trkpt lat="42.604969000" lon="-2.459326000">
        <ele>960.30</ele>
        <time>2016-10-15T07:26:47Z</time>
      </trkpt>
      <trkpt lat="42.604979000" lon="-2.459320000">
        <ele>960.40</ele>
        <time>2016-10-15T07:26:48Z</time>
      </trkpt>
      <trkpt lat="42.604980000" lon="-2.459323000">
        <ele>960.50</ele>
        <time>2016-10-15T07:26:49Z</time>
      </trkpt>
      <trkpt lat="42.604981000" lon="-2.459326000">
        <ele>960.50</ele>
        <time>2016-10-15T07:26:50Z</time>
      </trkpt>
      <trkpt lat="42.604983000" lon="-2.459322000">
        <ele>960.60</ele>
        <time>2016-10-15T07:26:51Z</time>
      </trkpt>
      <trkpt lat="42.604987000" lon="-2.459318000">
        <ele>960.60</ele>
        <time>2016-10-15T07:26:52Z</time>
      </trkpt>
      <trkpt lat="42.604989000" lon="-2.459320000">
        <ele>960.70</ele>
        <time>2016-10-15T07:26:53Z</time>
      </trkpt>
      <trkpt lat="42.604988000" lon="-2.459322000">
        <ele>960.70</ele>
        <time>2016-10-15T07:26:54Z</time>
      </trkpt>
      <trkpt lat="42.604986000" lon="-2.459325000">
        <ele>960.70</ele>
        <time>2016-10-15T07:26:55Z</time>
      </trkpt>
      <trkpt lat="42.604981000" lon="-2.459327000">
        <ele>960.80</ele>
        <time>2016-10-15T07:26:56Z</time>
      </trkpt>
      <trkpt lat="42.604979000" lon="-2.459325000">
        <ele>960.80</ele>
        <time>2016-10-15T07:26:57Z</time>
      </trkpt>
      <trkpt lat="42.604976000" lon="-2.459324000">
        <ele>960.90</ele>
        <time>2016-10-15T07:26:58Z</time>
      </trkpt>
      <trkpt lat="42.604973000" lon="-2.459321000">
        <ele>960.90</ele>
        <time>2016-10-15T07:26:59Z</time>
      </trkpt>
      <trkpt lat="42.604972000" lon="-2.459317000">
        <ele>961.10</ele>
        <time>2016-10-15T07:27:00Z</time>
      </trkpt>
      <trkpt lat="42.604971000" lon="-2.459314000">
        <ele>961.20</ele>
        <time>2016-10-15T07:27:01Z</time>
      </trkpt>
      <trkpt lat="42.604969000" lon="-2.459311000">
        <ele>961.30</ele>
        <time>2016-10-15T07:27:02Z</time>
      </trkpt>
      <trkpt lat="42.604968000" lon="-2.459308000">
        <ele>961.40</ele>
        <time>2016-10-15T07:27:03Z</time>
      </trkpt>
      <trkpt lat="42.604967000" lon="-2.459306000">
        <ele>961.30</ele>
        <time>2016-10-15T07:27:04Z</time>
      </trkpt>
      <trkpt lat="42.604967000" lon="-2.459303000">
        <ele>961.30</ele>
        <time>2016-10-15T07:27:05Z</time>
      </trkpt>
      <trkpt lat="42.604965000" lon="-2.459300000">
        <ele>961.20</ele>
        <time>2016-10-15T07:27:06Z</time>
      </trkpt>
      <trkpt lat="42.604964000" lon="-2.459297000">
        <ele>961.20</ele>
        <time>2016-10-15T07:27:07Z</time>
      </trkpt>
      <trkpt lat="42.604962000" lon="-2.459295000">
        <ele>961.30</ele>
        <time>2016-10-15T07:27:08Z</time>
      </trkpt>
      <trkpt lat="42.604960000" lon="-2.459292000">
        <ele>961.30</ele>
        <time>2016-10-15T07:27:09Z</time>
      </trkpt>
      <trkpt lat="42.604958000" lon="-2.459289000">
        <ele>961.30</ele>
        <time>2016-10-15T07:27:10Z</time>
      </trkpt>
      <trkpt lat="42.604958000" lon="-2.459285000">
        <ele>961.40</ele>
        <time>2016-10-15T07:27:11Z</time>
      </trkpt>
      <trkpt lat="42.604957000" lon="-2.459282000">
        <ele>961.20</ele>
        <time>2016-10-15T07:27:12Z</time>
      </trkpt>
      <trkpt lat="42.604957000" lon="-2.459280000">
        <ele>961.00</ele>
        <time>2016-10-15T07:27:13Z</time>
      </trkpt>
      <trkpt lat="42.604958000" lon="-2.459277000">
        <ele>960.90</ele>
        <time>2016-10-15T07:27:14Z</time>
      </trkpt>
      <trkpt lat="42.604958000" lon="-2.459276000">
        <ele>960.90</ele>
        <time>2016-10-15T07:27:15Z</time>
      </trkpt>
      <trkpt lat="42.604958000" lon="-2.459273000">
        <ele>960.80</ele>
        <time>2016-10-15T07:27:16Z</time>
      </trkpt>
      <trkpt lat="42.604958000" lon="-2.459271000">
        <ele>960.80</ele>
        <time>2016-10-15T07:27:17Z</time>
      </trkpt>
      <trkpt lat="42.604956000" lon="-2.459271000">
        <ele>960.90</ele>
        <time>2016-10-15T07:27:18Z</time>
      </trkpt>
      <trkpt lat="42.604956000" lon="-2.459269000">
        <ele>961.00</ele>
        <time>2016-10-15T07:27:19Z</time>
      </trkpt>
      <trkpt lat="42.604954000" lon="-2.459267000">
        <ele>961.10</ele>
        <time>2016-10-15T07:27:20Z</time>
      </trkpt>
      <trkpt lat="42.604954000" lon="-2.459264000">
        <ele>961.10</ele>
        <time>2016-10-15T07:27:21Z</time>
      </trkpt>
      <trkpt lat="42.604953000" lon="-2.459263000">
        <ele>960.90</ele>
        <time>2016-10-15T07:27:22Z</time>
      </trkpt>
      <trkpt lat="42.604952000" lon="-2.459262000">
        <ele>960.80</ele>
        <time>2016-10-15T07:27:23Z</time>
      </trkpt>
      <trkpt lat="42.604951000" lon="-2.459263000">
        <ele>960.70</ele>
        <time>2016-10-15T07:27:24Z</time>
      </trkpt>
      <trkpt lat="42.604950000" lon="-2.459261000">
        <ele>960.70</ele>
        <time>2016-10-15T07:27:25Z</time>
      </trkpt>
      <trkpt lat="42.604947000" lon="-2.459260000">
        <ele>960.80</ele>
        <time>2016-10-15T07:27:26Z</time>
      </trkpt>
      <trkpt lat="42.604945000" lon="-2.459258000">
        <ele>960.80</ele>
        <time>2016-10-15T07:27:27Z</time>
      </trkpt>
      <trkpt lat="42.604944000" lon="-2.459260000">
        <ele>960.90</ele>
        <time>2016-10-15T07:27:28Z</time>
      </trkpt>
      <trkpt lat="42.604943000" lon="-2.459264000">
        <ele>961.00</ele>
        <time>2016-10-15T07:27:30Z</time>
      </trkpt>
      <trkpt lat="42.604945000" lon="-2.459269000">
        <ele>961.10</ele>
        <time>2016-10-15T07:27:31Z</time>
      </trkpt>
      <trkpt lat="42.604946000" lon="-2.459271000">
        <ele>961.00</ele>
        <time>2016-10-15T07:27:32Z</time>
      </trkpt>
      <trkpt lat="42.604948000" lon="-2.459275000">
        <ele>961.00</ele>
        <time>2016-10-15T07:27:33Z</time>
      </trkpt>
      <trkpt lat="42.604948000" lon="-2.459278000">
        <ele>961.20</ele>
        <time>2016-10-15T07:27:34Z</time>
      </trkpt>
      <trkpt lat="42.604948000" lon="-2.459279000">
        <ele>961.30</ele>
        <time>2016-10-15T07:27:35Z</time>
      </trkpt>
      <trkpt lat="42.604948000" lon="-2.459280000">
        <ele>961.40</ele>
        <time>2016-10-15T07:27:36Z</time>
      </trkpt>
      <trkpt lat="42.604948000" lon="-2.459282000">
        <ele>961.50</ele>
        <time>2016-10-15T07:27:37Z</time>
      </trkpt>
      <trkpt lat="42.604949000" lon="-2.459283000">
        <ele>961.50</ele>
        <time>2016-10-15T07:27:38Z</time>
      </trkpt>
      <trkpt lat="42.604949000" lon="-2.459286000">
        <ele>961.60</ele>
        <time>2016-10-15T07:27:39Z</time>
      </trkpt>
      <trkpt lat="42.604949000" lon="-2.459286000">
        <ele>961.60</ele>
        <time>2016-10-15T07:27:40Z</time>
      </trkpt>
      <trkpt lat="42.604947000" lon="-2.459287000">
        <ele>961.60</ele>
        <time>2016-10-15T07:27:41Z</time>
      </trkpt>
      <trkpt lat="42.604946000" lon="-2.459288000">
        <ele>961.60</ele>
        <time>2016-10-15T07:27:42Z</time>
      </trkpt>
      <trkpt lat="42.604946000" lon="-2.459288000">
        <ele>961.60</ele>
        <time>2016-10-15T07:27:43Z</time>
      </trkpt>
      <trkpt lat="42.604945000" lon="-2.459287000">
        <ele>961.50</ele>
        <time>2016-10-15T07:27:44Z</time>
      </trkpt>
      <trkpt lat="42.604946000" lon="-2.459286000">
        <ele>961.50</ele>
        <time>2016-10-15T07:27:45Z</time>
      </trkpt>
      <trkpt lat="42.604946000" lon="-2.459287000">
        <ele>961.50</ele>
        <time>2016-10-15T07:27:46Z</time>
      </trkpt>
      <trkpt lat="42.604947000" lon="-2.459287000">
        <ele>961.50</ele>
        <time>2016-10-15T07:27:47Z</time>
      </trkpt>
      <trkpt lat="42.604949000" lon="-2.459292000">
        <ele>961.50</ele>
        <time>2016-10-15T07:27:48Z</time>
      </trkpt>
      <trkpt lat="42.604949000" lon="-2.459294000">
        <ele>961.50</ele>
        <time>2016-10-15T07:27:49Z</time>
      </trkpt>
      <trkpt lat="42.604949000" lon="-2.459296000">
        <ele>961.60</ele>
        <time>2016-10-15T07:27:50Z</time>
      </trkpt>
      <trkpt lat="42.604950000" lon="-2.459299000">
        <ele>961.60</ele>
        <time>2016-10-15T07:27:51Z</time>
      </trkpt>
      <trkpt lat="42.604951000" lon="-2.459299000">
        <ele>961.50</ele>
        <time>2016-10-15T07:27:52Z</time>
      </trkpt>
      <trkpt lat="42.604952000" lon="-2.459301000">
        <ele>961.50</ele>
        <time>2016-10-15T07:27:53Z</time>
      </trkpt>
      <trkpt lat="42.604953000" lon="-2.459303000">
        <ele>961.50</ele>
        <time>2016-10-15T07:27:54Z</time>
      </trkpt>
      <trkpt lat="42.604955000" lon="-2.459305000">
        <ele>961.50</ele>
        <time>2016-10-15T07:27:55Z</time>
      </trkpt>
      <trkpt lat="42.604955000" lon="-2.459307000">
        <ele>961.40</ele>
        <time>2016-10-15T07:27:56Z</time>
      </trkpt>
      <trkpt lat="42.604957000" lon="-2.459307000">
        <ele>961.30</ele>
        <time>2016-10-15T07:27:57Z</time>
      </trkpt>
      <trkpt lat="42.604958000" lon="-2.459308000">
        <ele>961.30</ele>
        <time>2016-10-15T07:27:58Z</time>
      </trkpt>
      <trkpt lat="42.604959000" lon="-2.459307000">
        <ele>961.30</ele>
        <time>2016-10-15T07:27:59Z</time>
      </trkpt>
      <trkpt lat="42.604958000" lon="-2.459308000">
        <ele>961.30</ele>
        <time>2016-10-15T07:28:00Z</time>
      </trkpt>
      <trkpt lat="42.604960000" lon="-2.459302000">
        <ele>961.40</ele>
        <time>2016-10-15T07:28:01Z</time>
      </trkpt>
      <trkpt lat="42.604961000" lon="-2.459296000">
        <ele>961.50</ele>
        <time>2016-10-15T07:28:02Z</time>
      </trkpt>
      <trkpt lat="42.604960000" lon="-2.459294000">
        <ele>961.50</ele>
        <time>2016-10-15T07:28:03Z</time>
      </trkpt>
      <trkpt lat="42.604961000" lon="-2.459291000">
        <ele>961.60</ele>
        <time>2016-10-15T07:28:04Z</time>
      </trkpt>
      <trkpt lat="42.604959000" lon="-2.459289000">
        <ele>961.60</ele>
        <time>2016-10-15T07:28:05Z</time>
      </trkpt>
      <trkpt lat="42.604959000" lon="-2.459287000">
        <ele>961.60</ele>
        <time>2016-10-15T07:28:06Z</time>
      </trkpt>
      <trkpt lat="42.604958000" lon="-2.459285000">
        <ele>961.60</ele>
        <time>2016-10-15T07:28:07Z</time>
      </trkpt>
      <trkpt lat="42.604954000" lon="-2.459283000">
        <ele>961.60</ele>
        <time>2016-10-15T07:28:08Z</time>
      </trkpt>
      <trkpt lat="42.604955000" lon="-2.459284000">
        <ele>961.60</ele>
        <time>2016-10-15T07:28:09Z</time>
      </trkpt>
      <trkpt lat="42.604956000" lon="-2.459284000">
        <ele>961.40</ele>
        <time>2016-10-15T07:28:10Z</time>
      </trkpt>
      <trkpt lat="42.604957000" lon="-2.459283000">
        <ele>961.30</ele>
        <time>2016-10-15T07:28:11Z</time>
      </trkpt>
      <trkpt lat="42.604958000" lon="-2.459284000">
        <ele>961.40</ele>
        <time>2016-10-15T07:28:12Z</time>
      </trkpt>
      <trkpt lat="42.604960000" lon="-2.459285000">
        <ele>961.50</ele>
        <time>2016-10-15T07:28:13Z</time>
      </trkpt>
      <trkpt lat="42.604960000" lon="-2.459287000">
        <ele>961.60</ele>
        <time>2016-10-15T07:28:14Z</time>
      </trkpt>
      <trkpt lat="42.604962000" lon="-2.459287000">
        <ele>961.70</ele>
        <time>2016-10-15T07:28:15Z</time>
      </trkpt>
      <trkpt lat="42.604962000" lon="-2.459288000">
        <ele>961.80</ele>
        <time>2016-10-15T07:28:16Z</time>
      </trkpt>
      <trkpt lat="42.604964000" lon="-2.459286000">
        <ele>961.80</ele>
        <time>2016-10-15T07:28:17Z</time>
      </trkpt>
      <trkpt lat="42.604964000" lon="-2.459287000">
        <ele>961.70</ele>
        <time>2016-10-15T07:28:18Z</time>
      </trkpt>
      <trkpt lat="42.604965000" lon="-2.459285000">
        <ele>961.70</ele>
        <time>2016-10-15T07:28:19Z</time>
      </trkpt>
      <trkpt lat="42.604967000" lon="-2.459285000">
        <ele>961.70</ele>
        <time>2016-10-15T07:28:20Z</time>
      </trkpt>
      <trkpt lat="42.604967000" lon="-2.459287000">
        <ele>961.60</ele>
        <time>2016-10-15T07:28:21Z</time>
      </trkpt>
      <trkpt lat="42.604967000" lon="-2.459286000">
        <ele>961.80</ele>
        <time>2016-10-15T07:28:22Z</time>
      </trkpt>
      <trkpt lat="42.604966000" lon="-2.459287000">
        <ele>961.90</ele>
        <time>2016-10-15T07:28:23Z</time>
      </trkpt>
      <trkpt lat="42.604967000" lon="-2.459284000">
        <ele>961.90</ele>
        <time>2016-10-15T07:28:24Z</time>
      </trkpt>
      <trkpt lat="42.604966000" lon="-2.459282000">
        <ele>962.00</ele>
        <time>2016-10-15T07:28:25Z</time>
      </trkpt>
      <trkpt lat="42.604966000" lon="-2.459282000">
        <ele>961.90</ele>
        <time>2016-10-15T07:28:26Z</time>
      </trkpt>
      <trkpt lat="42.604964000" lon="-2.459283000">
        <ele>961.80</ele>
        <time>2016-10-15T07:28:27Z</time>
      </trkpt>
      <trkpt lat="42.604963000" lon="-2.459283000">
        <ele>961.60</ele>
        <time>2016-10-15T07:28:28Z</time>
      </trkpt>
      <trkpt lat="42.604963000" lon="-2.459282000">
        <ele>961.50</ele>
        <time>2016-10-15T07:28:29Z</time>
      </trkpt>
      <trkpt lat="42.604963000" lon="-2.459281000">
        <ele>961.40</ele>
        <time>2016-10-15T07:28:30Z</time>
      </trkpt>
      <trkpt lat="42.604964000" lon="-2.459278000">
        <ele>961.30</ele>
        <time>2016-10-15T07:28:32Z</time>
      </trkpt>
      <trkpt lat="42.604965000" lon="-2.459278000">
        <ele>961.30</ele>
        <time>2016-10-15T07:28:33Z</time>
      </trkpt>
      <trkpt lat="42.604964000" lon="-2.459279000">
        <ele>961.50</ele>
        <time>2016-10-15T07:28:34Z</time>
      </trkpt>
      <trkpt lat="42.604964000" lon="-2.459279000">
        <ele>961.60</ele>
        <time>2016-10-15T07:28:35Z</time>
      </trkpt>
      <trkpt lat="42.604964000" lon="-2.459279000">
        <ele>961.80</ele>
        <time>2016-10-15T07:28:36Z</time>
      </trkpt>
      <trkpt lat="42.604964000" lon="-2.459279000">
        <ele>961.90</ele>
        <time>2016-10-15T07:28:37Z</time>
      </trkpt>
      <trkpt lat="42.604962000" lon="-2.459279000">
        <ele>962.00</ele>
        <time>2016-10-15T07:28:38Z</time>
      </trkpt>
      <trkpt lat="42.604960000" lon="-2.459277000">
        <ele>962.00</ele>
        <time>2016-10-15T07:28:39Z</time>
      </trkpt>
      <trkpt lat="42.604962000" lon="-2.459275000">
        <ele>961.90</ele>
        <time>2016-10-15T07:28:40Z</time>
      </trkpt>
      <trkpt lat="42.604961000" lon="-2.459274000">
        <ele>961.90</ele>
        <time>2016-10-15T07:28:41Z</time>
      </trkpt>
      <trkpt lat="42.604963000" lon="-2.459272000">
        <ele>961.70</ele>
        <time>2016-10-15T07:28:42Z</time>
      </trkpt>
      <trkpt lat="42.604963000" lon="-2.459271000">
        <ele>961.60</ele>
        <time>2016-10-15T07:28:43Z</time>
      </trkpt>
      <trkpt lat="42.604964000" lon="-2.459268000">
        <ele>961.50</ele>
        <time>2016-10-15T07:28:44Z</time>
      </trkpt>
      <trkpt lat="42.604964000" lon="-2.459266000">
        <ele>961.50</ele>
        <time>2016-10-15T07:28:45Z</time>
      </trkpt>
      <trkpt lat="42.604965000" lon="-2.459265000">
        <ele>961.50</ele>
        <time>2016-10-15T07:28:46Z</time>
      </trkpt>
      <trkpt lat="42.604964000" lon="-2.459265000">
        <ele>961.50</ele>
        <time>2016-10-15T07:28:47Z</time>
      </trkpt>
      <trkpt lat="42.604963000" lon="-2.459267000">
        <ele>961.60</ele>
        <time>2016-10-15T07:28:48Z</time>
      </trkpt>
      <trkpt lat="42.604963000" lon="-2.459268000">
        <ele>961.70</ele>
        <time>2016-10-15T07:28:49Z</time>
      </trkpt>
      <trkpt lat="42.604962000" lon="-2.459268000">
        <ele>961.70</ele>
        <time>2016-10-15T07:28:50Z</time>
      </trkpt>
      <trkpt lat="42.604962000" lon="-2.459267000">
        <ele>961.80</ele>
        <time>2016-10-15T07:28:51Z</time>
      </trkpt>
      <trkpt lat="42.604962000" lon="-2.459267000">
        <ele>961.70</ele>
        <time>2016-10-15T07:28:52Z</time>
      </trkpt>
      <trkpt lat="42.604961000" lon="-2.459268000">
        <ele>961.70</ele>
        <time>2016-10-15T07:28:53Z</time>
      </trkpt>
      <trkpt lat="42.604959000" lon="-2.459269000">
        <ele>961.70</ele>
        <time>2016-10-15T07:28:54Z</time>
      </trkpt>
      <trkpt lat="42.604957000" lon="-2.459268000">
        <ele>961.70</ele>
        <time>2016-10-15T07:28:55Z</time>
      </trkpt>
      <trkpt lat="42.604957000" lon="-2.459271000">
        <ele>961.70</ele>
        <time>2016-10-15T07:28:56Z</time>
      </trkpt>
      <trkpt lat="42.604953000" lon="-2.459272000">
        <ele>961.80</ele>
        <time>2016-10-15T07:28:57Z</time>
      </trkpt>
      <trkpt lat="42.604952000" lon="-2.459272000">
        <ele>961.90</ele>
        <time>2016-10-15T07:28:58Z</time>
      </trkpt>
      <trkpt lat="42.604950000" lon="-2.459271000">
        <ele>962.00</ele>
        <time>2016-10-15T07:28:59Z</time>
      </trkpt>
      <trkpt lat="42.604948000" lon="-2.459270000">
        <ele>961.90</ele>
        <time>2016-10-15T07:29:00Z</time>
      </trkpt>
      <trkpt lat="42.604947000" lon="-2.459271000">
        <ele>961.90</ele>
        <time>2016-10-15T07:29:01Z</time>
      </trkpt>
      <trkpt lat="42.604946000" lon="-2.459272000">
        <ele>961.90</ele>
        <time>2016-10-15T07:29:02Z</time>
      </trkpt>
      <trkpt lat="42.604945000" lon="-2.459269000">
        <ele>961.90</ele>
        <time>2016-10-15T07:29:03Z</time>
      </trkpt>
      <trkpt lat="42.604944000" lon="-2.459271000">
        <ele>962.00</ele>
        <time>2016-10-15T07:29:04Z</time>
      </trkpt>
      <trkpt lat="42.604945000" lon="-2.459271000">
        <ele>962.00</ele>
        <time>2016-10-15T07:29:05Z</time>
      </trkpt>
      <trkpt lat="42.604942000" lon="-2.459272000">
        <ele>962.00</ele>
        <time>2016-10-15T07:29:06Z</time>
      </trkpt>
      <trkpt lat="42.604941000" lon="-2.459274000">
        <ele>962.00</ele>
        <time>2016-10-15T07:29:07Z</time>
      </trkpt>
      <trkpt lat="42.604941000" lon="-2.459273000">
        <ele>962.10</ele>
        <time>2016-10-15T07:29:08Z</time>
      </trkpt>
      <trkpt lat="42.604942000" lon="-2.459274000">
        <ele>962.10</ele>
        <time>2016-10-15T07:29:09Z</time>
      </trkpt>
      <trkpt lat="42.604943000" lon="-2.459275000">
        <ele>962.10</ele>
        <time>2016-10-15T07:29:10Z</time>
      </trkpt>
      <trkpt lat="42.604943000" lon="-2.459278000">
        <ele>962.10</ele>
        <time>2016-10-15T07:29:11Z</time>
      </trkpt>
      <trkpt lat="42.604945000" lon="-2.459281000">
        <ele>961.90</ele>
        <time>2016-10-15T07:29:12Z</time>
      </trkpt>
      <trkpt lat="42.604947000" lon="-2.459282000">
        <ele>961.80</ele>
        <time>2016-10-15T07:29:13Z</time>
      </trkpt>
      <trkpt lat="42.604948000" lon="-2.459284000">
        <ele>961.60</ele>
        <time>2016-10-15T07:29:14Z</time>
      </trkpt>
      <trkpt lat="42.604949000" lon="-2.459287000">
        <ele>961.50</ele>
        <time>2016-10-15T07:29:15Z</time>
      </trkpt>
      <trkpt lat="42.604950000" lon="-2.459289000">
        <ele>961.50</ele>
        <time>2016-10-15T07:29:16Z</time>
      </trkpt>
      <trkpt lat="42.604951000" lon="-2.459291000">
        <ele>961.40</ele>
        <time>2016-10-15T07:29:17Z</time>
      </trkpt>
      <trkpt lat="42.604953000" lon="-2.459294000">
        <ele>961.60</ele>
        <time>2016-10-15T07:29:18Z</time>
      </trkpt>
      <trkpt lat="42.604951000" lon="-2.459295000">
        <ele>961.80</ele>
        <time>2016-10-15T07:29:19Z</time>
      </trkpt>
      <trkpt lat="42.604951000" lon="-2.459296000">
        <ele>961.90</ele>
        <time>2016-10-15T07:29:20Z</time>
      </trkpt>
      <trkpt lat="42.604949000" lon="-2.459294000">
        <ele>962.00</ele>
        <time>2016-10-15T07:29:21Z</time>
      </trkpt>
      <trkpt lat="42.604948000" lon="-2.459291000">
        <ele>962.10</ele>
        <time>2016-10-15T07:29:22Z</time>
      </trkpt>
      <trkpt lat="42.604945000" lon="-2.459289000">
        <ele>962.10</ele>
        <time>2016-10-15T07:29:23Z</time>
      </trkpt>
      <trkpt lat="42.604944000" lon="-2.459288000">
        <ele>962.10</ele>
        <time>2016-10-15T07:29:24Z</time>
      </trkpt>
      <trkpt lat="42.604943000" lon="-2.459286000">
        <ele>962.20</ele>
        <time>2016-10-15T07:29:25Z</time>
      </trkpt>
      <trkpt lat="42.604939000" lon="-2.459282000">
        <ele>962.20</ele>
        <time>2016-10-15T07:29:26Z</time>
      </trkpt>
      <trkpt lat="42.604937000" lon="-2.459281000">
        <ele>962.20</ele>
        <time>2016-10-15T07:29:27Z</time>
      </trkpt>
      <trkpt lat="42.604934000" lon="-2.459280000">
        <ele>962.30</ele>
        <time>2016-10-15T07:29:28Z</time>
      </trkpt>
      <trkpt lat="42.604930000" lon="-2.459278000">
        <ele>962.30</ele>
        <time>2016-10-15T07:29:29Z</time>
      </trkpt>
      <trkpt lat="42.604929000" lon="-2.459275000">
        <ele>962.10</ele>
        <time>2016-10-15T07:29:30Z</time>
      </trkpt>
      <trkpt lat="42.604929000" lon="-2.459274000">
        <ele>961.90</ele>
        <time>2016-10-15T07:29:31Z</time>
      </trkpt>
      <trkpt lat="42.604928000" lon="-2.459273000">
        <ele>961.90</ele>
        <time>2016-10-15T07:29:32Z</time>
      </trkpt>
      <trkpt lat="42.604923000" lon="-2.459272000">
        <ele>961.90</ele>
        <time>2016-10-15T07:29:34Z</time>
      </trkpt>
      <trkpt lat="42.604922000" lon="-2.459270000">
        <ele>961.90</ele>
        <time>2016-10-15T07:29:35Z</time>
      </trkpt>
      <trkpt lat="42.604921000" lon="-2.459267000">
        <ele>961.90</ele>
        <time>2016-10-15T07:29:36Z</time>
      </trkpt>
      <trkpt lat="42.604920000" lon="-2.459264000">
        <ele>961.90</ele>
        <time>2016-10-15T07:29:37Z</time>
      </trkpt>
      <trkpt lat="42.604920000" lon="-2.459262000">
        <ele>961.80</ele>
        <time>2016-10-15T07:29:38Z</time>
      </trkpt>
      <trkpt lat="42.604919000" lon="-2.459261000">
        <ele>961.80</ele>
        <time>2016-10-15T07:29:39Z</time>
      </trkpt>
      <trkpt lat="42.604920000" lon="-2.459259000">
        <ele>961.80</ele>
        <time>2016-10-15T07:29:40Z</time>
      </trkpt>
      <trkpt lat="42.604921000" lon="-2.459259000">
        <ele>961.70</ele>
        <time>2016-10-15T07:29:41Z</time>
      </trkpt>
      <trkpt lat="42.604921000" lon="-2.459258000">
        <ele>961.80</ele>
        <time>2016-10-15T07:29:42Z</time>
      </trkpt>
      <trkpt lat="42.604921000" lon="-2.459261000">
        <ele>961.90</ele>
        <time>2016-10-15T07:29:43Z</time>
      </trkpt>
      <trkpt lat="42.604920000" lon="-2.459264000">
        <ele>961.90</ele>
        <time>2016-10-15T07:29:44Z</time>
      </trkpt>
      <trkpt lat="42.604921000" lon="-2.459266000">
        <ele>961.90</ele>
        <time>2016-10-15T07:29:45Z</time>
      </trkpt>
      <trkpt lat="42.604922000" lon="-2.459266000">
        <ele>962.00</ele>
        <time>2016-10-15T07:29:46Z</time>
      </trkpt>
      <trkpt lat="42.604922000" lon="-2.459266000">
        <ele>962.00</ele>
        <time>2016-10-15T07:29:47Z</time>
      </trkpt>
      <trkpt lat="42.604923000" lon="-2.459265000">
        <ele>961.80</ele>
        <time>2016-10-15T07:29:48Z</time>
      </trkpt>
      <trkpt lat="42.604924000" lon="-2.459265000">
        <ele>961.70</ele>
        <time>2016-10-15T07:29:49Z</time>
      </trkpt>
      <trkpt lat="42.604926000" lon="-2.459263000">
        <ele>961.90</ele>
        <time>2016-10-15T07:29:50Z</time>
      </trkpt>
      <trkpt lat="42.604925000" lon="-2.459264000">
        <ele>962.00</ele>
        <time>2016-10-15T07:29:51Z</time>
      </trkpt>
      <trkpt lat="42.604925000" lon="-2.459265000">
        <ele>961.90</ele>
        <time>2016-10-15T07:29:52Z</time>
      </trkpt>
      <trkpt lat="42.604924000" lon="-2.459265000">
        <ele>961.90</ele>
        <time>2016-10-15T07:29:53Z</time>
      </trkpt>
      <trkpt lat="42.604923000" lon="-2.459266000">
        <ele>962.00</ele>
        <time>2016-10-15T07:29:54Z</time>
      </trkpt>
      <trkpt lat="42.604922000" lon="-2.459266000">
        <ele>962.10</ele>
        <time>2016-10-15T07:29:55Z</time>
      </trkpt>
      <trkpt lat="42.604921000" lon="-2.459266000">
        <ele>962.00</ele>
        <time>2016-10-15T07:29:56Z</time>
      </trkpt>
      <trkpt lat="42.604921000" lon="-2.459266000">
        <ele>962.00</ele>
        <time>2016-10-15T07:29:57Z</time>
      </trkpt>
      <trkpt lat="42.604921000" lon="-2.459264000">
        <ele>962.00</ele>
        <time>2016-10-15T07:29:58Z</time>
      </trkpt>
      <trkpt lat="42.604922000" lon="-2.459262000">
        <ele>962.00</ele>
        <time>2016-10-15T07:29:59Z</time>
      </trkpt>
      <trkpt lat="42.604922000" lon="-2.459259000">
        <ele>962.00</ele>
        <time>2016-10-15T07:30:00Z</time>
      </trkpt>
      <trkpt lat="42.604920000" lon="-2.459257000">
        <ele>962.00</ele>
        <time>2016-10-15T07:30:01Z</time>
      </trkpt>
      <trkpt lat="42.604920000" lon="-2.459256000">
        <ele>962.00</ele>
        <time>2016-10-15T07:30:02Z</time>
      </trkpt>
      <trkpt lat="42.604919000" lon="-2.459256000">
        <ele>962.00</ele>
        <time>2016-10-15T07:30:03Z</time>
      </trkpt>
      <trkpt lat="42.604918000" lon="-2.459258000">
        <ele>962.10</ele>
        <time>2016-10-15T07:30:04Z</time>
      </trkpt>
      <trkpt lat="42.604920000" lon="-2.459259000">
        <ele>962.10</ele>
        <time>2016-10-15T07:30:05Z</time>
      </trkpt>
      <trkpt lat="42.604921000" lon="-2.459259000">
        <ele>962.10</ele>
        <time>2016-10-15T07:30:06Z</time>
      </trkpt>
      <trkpt lat="42.604921000" lon="-2.459260000">
        <ele>962.10</ele>
        <time>2016-10-15T07:30:07Z</time>
      </trkpt>
      <trkpt lat="42.604922000" lon="-2.459261000">
        <ele>962.10</ele>
        <time>2016-10-15T07:30:08Z</time>
      </trkpt>
      <trkpt lat="42.604924000" lon="-2.459261000">
        <ele>962.20</ele>
        <time>2016-10-15T07:30:09Z</time>
      </trkpt>
      <trkpt lat="42.604925000" lon="-2.459262000">
        <ele>962.20</ele>
        <time>2016-10-15T07:30:10Z</time>
      </trkpt>
      <trkpt lat="42.604927000" lon="-2.459264000">
        <ele>962.30</ele>
        <time>2016-10-15T07:30:11Z</time>
      </trkpt>
      <trkpt lat="42.604929000" lon="-2.459264000">
        <ele>962.30</ele>
        <time>2016-10-15T07:30:12Z</time>
      </trkpt>
      <trkpt lat="42.604932000" lon="-2.459264000">
        <ele>962.30</ele>
        <time>2016-10-15T07:30:13Z</time>
      </trkpt>
      <trkpt lat="42.604934000" lon="-2.459265000">
        <ele>962.20</ele>
        <time>2016-10-15T07:30:14Z</time>
      </trkpt>
      <trkpt lat="42.604935000" lon="-2.459267000">
        <ele>962.20</ele>
        <time>2016-10-15T07:30:15Z</time>
      </trkpt>
      <trkpt lat="42.604938000" lon="-2.459268000">
        <ele>962.10</ele>
        <time>2016-10-15T07:30:16Z</time>
      </trkpt>
      <trkpt lat="42.604939000" lon="-2.459270000">
        <ele>962.10</ele>
        <time>2016-10-15T07:30:17Z</time>
      </trkpt>
      <trkpt lat="42.604941000" lon="-2.459274000">
        <ele>962.00</ele>
        <time>2016-10-15T07:30:18Z</time>
      </trkpt>
      <trkpt lat="42.604941000" lon="-2.459275000">
        <ele>962.00</ele>
        <time>2016-10-15T07:30:19Z</time>
      </trkpt>
      <trkpt lat="42.604942000" lon="-2.459279000">
        <ele>962.00</ele>
        <time>2016-10-15T07:30:20Z</time>
      </trkpt>
      <trkpt lat="42.604943000" lon="-2.459282000">
        <ele>962.10</ele>
        <time>2016-10-15T07:30:21Z</time>
      </trkpt>
      <trkpt lat="42.604943000" lon="-2.459282000">
        <ele>962.10</ele>
        <time>2016-10-15T07:30:22Z</time>
      </trkpt>
      <trkpt lat="42.604945000" lon="-2.459283000">
        <ele>962.10</ele>
        <time>2016-10-15T07:30:23Z</time>
      </trkpt>
      <trkpt lat="42.604946000" lon="-2.459285000">
        <ele>962.10</ele>
        <time>2016-10-15T07:30:24Z</time>
      </trkpt>
      <trkpt lat="42.604948000" lon="-2.459289000">
        <ele>962.10</ele>
        <time>2016-10-15T07:30:25Z</time>
      </trkpt>
      <trkpt lat="42.604950000" lon="-2.459290000">
        <ele>962.10</ele>
        <time>2016-10-15T07:30:26Z</time>
      </trkpt>
      <trkpt lat="42.604951000" lon="-2.459292000">
        <ele>962.10</ele>
        <time>2016-10-15T07:30:27Z</time>
      </trkpt>
      <trkpt lat="42.604954000" lon="-2.459293000">
        <ele>962.20</ele>
        <time>2016-10-15T07:30:28Z</time>
      </trkpt>
      <trkpt lat="42.604957000" lon="-2.459295000">
        <ele>962.20</ele>
        <time>2016-10-15T07:30:29Z</time>
      </trkpt>
      <trkpt lat="42.604960000" lon="-2.459297000">
        <ele>962.20</ele>
        <time>2016-10-15T07:30:30Z</time>
      </trkpt>
      <trkpt lat="42.604961000" lon="-2.459299000">
        <ele>962.20</ele>
        <time>2016-10-15T07:30:31Z</time>
      </trkpt>
      <trkpt lat="42.604962000" lon="-2.459300000">
        <ele>962.20</ele>
        <time>2016-10-15T07:30:32Z</time>
      </trkpt>
      <trkpt lat="42.604964000" lon="-2.459304000">
        <ele>962.20</ele>
        <time>2016-10-15T07:30:33Z</time>
      </trkpt>
      <trkpt lat="42.604965000" lon="-2.459306000">
        <ele>962.20</ele>
        <time>2016-10-15T07:30:34Z</time>
      </trkpt>
      <trkpt lat="42.604969000" lon="-2.459310000">
        <ele>962.00</ele>
        <time>2016-10-15T07:30:36Z</time>
      </trkpt>
      <trkpt lat="42.604968000" lon="-2.459313000">
        <ele>961.90</ele>
        <time>2016-10-15T07:30:37Z</time>
      </trkpt>
      <trkpt lat="42.604968000" lon="-2.459314000">
        <ele>961.90</ele>
        <time>2016-10-15T07:30:38Z</time>
      </trkpt>
      <trkpt lat="42.604968000" lon="-2.459315000">
        <ele>962.00</ele>
        <time>2016-10-15T07:30:39Z</time>
      </trkpt>
      <trkpt lat="42.604968000" lon="-2.459315000">
        <ele>962.20</ele>
        <time>2016-10-15T07:30:40Z</time>
      </trkpt>
      <trkpt lat="42.604968000" lon="-2.459314000">
        <ele>962.40</ele>
        <time>2016-10-15T07:30:41Z</time>
      </trkpt>
      <trkpt lat="42.604968000" lon="-2.459314000">
        <ele>962.50</ele>
        <time>2016-10-15T07:30:42Z</time>
      </trkpt>
      <trkpt lat="42.604969000" lon="-2.459314000">
        <ele>962.60</ele>
        <time>2016-10-15T07:30:43Z</time>
      </trkpt>
      <trkpt lat="42.604970000" lon="-2.459317000">
        <ele>962.70</ele>
        <time>2016-10-15T07:30:44Z</time>
      </trkpt>
      <trkpt lat="42.604970000" lon="-2.459318000">
        <ele>962.80</ele>
        <time>2016-10-15T07:30:45Z</time>
      </trkpt>
      <trkpt lat="42.604970000" lon="-2.459319000">
        <ele>962.80</ele>
        <time>2016-10-15T07:30:46Z</time>
      </trkpt>
      <trkpt lat="42.604970000" lon="-2.459320000">
        <ele>962.90</ele>
        <time>2016-10-15T07:30:47Z</time>
      </trkpt>
      <trkpt lat="42.604971000" lon="-2.459319000">
        <ele>962.90</ele>
        <time>2016-10-15T07:30:48Z</time>
      </trkpt>
      <trkpt lat="42.604973000" lon="-2.459319000">
        <ele>962.90</ele>
        <time>2016-10-15T07:30:49Z</time>
      </trkpt>
      <trkpt lat="42.604975000" lon="-2.459317000">
        <ele>962.90</ele>
        <time>2016-10-15T07:30:50Z</time>
      </trkpt>
      <trkpt lat="42.604975000" lon="-2.459318000">
        <ele>962.80</ele>
        <time>2016-10-15T07:30:51Z</time>
      </trkpt>
      <trkpt lat="42.604975000" lon="-2.459319000">
        <ele>962.70</ele>
        <time>2016-10-15T07:30:52Z</time>
      </trkpt>
      <trkpt lat="42.604974000" lon="-2.459319000">
        <ele>962.70</ele>
        <time>2016-10-15T07:30:53Z</time>
      </trkpt>
      <trkpt lat="42.604975000" lon="-2.459319000">
        <ele>962.60</ele>
        <time>2016-10-15T07:30:54Z</time>
      </trkpt>
      <trkpt lat="42.604976000" lon="-2.459322000">
        <ele>962.60</ele>
        <time>2016-10-15T07:30:55Z</time>
      </trkpt>
      <trkpt lat="42.604977000" lon="-2.459323000">
        <ele>962.50</ele>
        <time>2016-10-15T07:30:56Z</time>
      </trkpt>
      <trkpt lat="42.604976000" lon="-2.459326000">
        <ele>962.50</ele>
        <time>2016-10-15T07:30:57Z</time>
      </trkpt>
      <trkpt lat="42.604975000" lon="-2.459329000">
        <ele>962.50</ele>
        <time>2016-10-15T07:30:58Z</time>
      </trkpt>
      <trkpt lat="42.604974000" lon="-2.459335000">
        <ele>962.50</ele>
        <time>2016-10-15T07:30:59Z</time>
      </trkpt>
      <trkpt lat="42.604975000" lon="-2.459340000">
        <ele>962.50</ele>
        <time>2016-10-15T07:31:00Z</time>
      </trkpt>
      <trkpt lat="42.604976000" lon="-2.459342000">
        <ele>962.60</ele>
        <time>2016-10-15T07:31:01Z</time>
      </trkpt>
      <trkpt lat="42.604977000" lon="-2.459345000">
        <ele>962.60</ele>
        <time>2016-10-15T07:31:02Z</time>
      </trkpt>
      <trkpt lat="42.604979000" lon="-2.459349000">
        <ele>962.70</ele>
        <time>2016-10-15T07:31:03Z</time>
      </trkpt>
      <trkpt lat="42.604982000" lon="-2.459354000">
        <ele>962.70</ele>
        <time>2016-10-15T07:31:04Z</time>
      </trkpt>
      <trkpt lat="42.604982000" lon="-2.459357000">
        <ele>962.80</ele>
        <time>2016-10-15T07:31:05Z</time>
      </trkpt>
      <trkpt lat="42.604983000" lon="-2.459359000">
        <ele>962.80</ele>
        <time>2016-10-15T07:31:06Z</time>
      </trkpt>
      <trkpt lat="42.604982000" lon="-2.459357000">
        <ele>962.90</ele>
        <time>2016-10-15T07:31:07Z</time>
      </trkpt>
      <trkpt lat="42.604983000" lon="-2.459357000">
        <ele>962.90</ele>
        <time>2016-10-15T07:31:08Z</time>
      </trkpt>
      <trkpt lat="42.604983000" lon="-2.459355000">
        <ele>963.00</ele>
        <time>2016-10-15T07:31:09Z</time>
      </trkpt>
      <trkpt lat="42.604982000" lon="-2.459351000">
        <ele>963.10</ele>
        <time>2016-10-15T07:31:10Z</time>
      </trkpt>
      <trkpt lat="42.604982000" lon="-2.459350000">
        <ele>963.10</ele>
        <time>2016-10-15T07:31:11Z</time>
      </trkpt>
      <trkpt lat="42.604980000" lon="-2.459346000">
        <ele>963.20</ele>
        <time>2016-10-15T07:31:12Z</time>
      </trkpt>
      <trkpt lat="42.604979000" lon="-2.459344000">
        <ele>963.10</ele>
        <time>2016-10-15T07:31:13Z</time>
      </trkpt>
      <trkpt lat="42.604977000" lon="-2.459343000">
        <ele>963.10</ele>
        <time>2016-10-15T07:31:14Z</time>
      </trkpt>
      <trkpt lat="42.604975000" lon="-2.459341000">
        <ele>963.10</ele>
        <time>2016-10-15T07:31:15Z</time>
      </trkpt>
      <trkpt lat="42.604974000" lon="-2.459337000">
        <ele>963.10</ele>
        <time>2016-10-15T07:31:16Z</time>
      </trkpt>
      <trkpt lat="42.604973000" lon="-2.459332000">
        <ele>963.00</ele>
        <time>2016-10-15T07:31:17Z</time>
      </trkpt>
      <trkpt lat="42.604971000" lon="-2.459330000">
        <ele>963.00</ele>
        <time>2016-10-15T07:31:18Z</time>
      </trkpt>
      <trkpt lat="42.604969000" lon="-2.459326000">
        <ele>963.00</ele>
        <time>2016-10-15T07:31:19Z</time>
      </trkpt>
      <trkpt lat="42.604966000" lon="-2.459321000">
        <ele>963.00</ele>
        <time>2016-10-15T07:31:20Z</time>
      </trkpt>
      <trkpt lat="42.604964000" lon="-2.459318000">
        <ele>963.10</ele>
        <time>2016-10-15T07:31:21Z</time>
      </trkpt>
      <trkpt lat="42.604962000" lon="-2.459315000">
        <ele>963.10</ele>
        <time>2016-10-15T07:31:22Z</time>
      </trkpt>
      <trkpt lat="42.604960000" lon="-2.459313000">
        <ele>963.00</ele>
        <time>2016-10-15T07:31:23Z</time>
      </trkpt>
      <trkpt lat="42.604959000" lon="-2.459313000">
        <ele>962.90</ele>
        <time>2016-10-15T07:31:24Z</time>
      </trkpt>
      <trkpt lat="42.604958000" lon="-2.459314000">
        <ele>963.00</ele>
        <time>2016-10-15T07:31:25Z</time>
      </trkpt>
      <trkpt lat="42.604958000" lon="-2.459316000">
        <ele>963.00</ele>
        <time>2016-10-15T07:31:26Z</time>
      </trkpt>
      <trkpt lat="42.604958000" lon="-2.459319000">
        <ele>962.90</ele>
        <time>2016-10-15T07:31:27Z</time>
      </trkpt>
      <trkpt lat="42.604959000" lon="-2.459322000">
        <ele>962.90</ele>
        <time>2016-10-15T07:31:28Z</time>
      </trkpt>
      <trkpt lat="42.604960000" lon="-2.459324000">
        <ele>963.00</ele>
        <time>2016-10-15T07:31:29Z</time>
      </trkpt>
      <trkpt lat="42.604959000" lon="-2.459323000">
        <ele>963.00</ele>
        <time>2016-10-15T07:31:30Z</time>
      </trkpt>
      <trkpt lat="42.604958000" lon="-2.459324000">
        <ele>963.00</ele>
        <time>2016-10-15T07:31:31Z</time>
      </trkpt>
      <trkpt lat="42.604957000" lon="-2.459326000">
        <ele>963.10</ele>
        <time>2016-10-15T07:31:32Z</time>
      </trkpt>
      <trkpt lat="42.604958000" lon="-2.459326000">
        <ele>963.20</ele>
        <time>2016-10-15T07:31:33Z</time>
      </trkpt>
      <trkpt lat="42.604957000" lon="-2.459326000">
        <ele>963.20</ele>
        <time>2016-10-15T07:31:34Z</time>
      </trkpt>
      <trkpt lat="42.604958000" lon="-2.459328000">
        <ele>963.30</ele>
        <time>2016-10-15T07:31:35Z</time>
      </trkpt>
      <trkpt lat="42.604957000" lon="-2.459330000">
        <ele>963.30</ele>
        <time>2016-10-15T07:31:37Z</time>
      </trkpt>
      <trkpt lat="42.604957000" lon="-2.459332000">
        <ele>963.30</ele>
        <time>2016-10-15T07:31:38Z</time>
      </trkpt>
      <trkpt lat="42.604958000" lon="-2.459331000">
        <ele>963.20</ele>
        <time>2016-10-15T07:31:39Z</time>
      </trkpt>
      <trkpt lat="42.604959000" lon="-2.459332000">
        <ele>963.20</ele>
        <time>2016-10-15T07:31:40Z</time>
      </trkpt>
      <trkpt lat="42.604958000" lon="-2.459331000">
        <ele>963.20</ele>
        <time>2016-10-15T07:31:41Z</time>
      </trkpt>
      <trkpt lat="42.604959000" lon="-2.459332000">
        <ele>963.20</ele>
        <time>2016-10-15T07:31:42Z</time>
      </trkpt>
      <trkpt lat="42.604959000" lon="-2.459330000">
        <ele>963.20</ele>
        <time>2016-10-15T07:31:43Z</time>
      </trkpt>
      <trkpt lat="42.604960000" lon="-2.459328000">
        <ele>963.20</ele>
        <time>2016-10-15T07:31:44Z</time>
      </trkpt>
      <trkpt lat="42.604960000" lon="-2.459328000">
        <ele>963.20</ele>
        <time>2016-10-15T07:31:45Z</time>
      </trkpt>
      <trkpt lat="42.604959000" lon="-2.459324000">
        <ele>963.20</ele>
        <time>2016-10-15T07:31:46Z</time>
      </trkpt>
      <trkpt lat="42.604959000" lon="-2.459324000">
        <ele>963.20</ele>
        <time>2016-10-15T07:31:47Z</time>
      </trkpt>
      <trkpt lat="42.604958000" lon="-2.459324000">
        <ele>963.20</ele>
        <time>2016-10-15T07:31:48Z</time>
      </trkpt>
      <trkpt lat="42.604956000" lon="-2.459323000">
        <ele>963.20</ele>
        <time>2016-10-15T07:31:49Z</time>
      </trkpt>
      <trkpt lat="42.604955000" lon="-2.459323000">
        <ele>963.20</ele>
        <time>2016-10-15T07:31:50Z</time>
      </trkpt>
      <trkpt lat="42.604954000" lon="-2.459323000">
        <ele>963.20</ele>
        <time>2016-10-15T07:31:51Z</time>
      </trkpt>
      <trkpt lat="42.604954000" lon="-2.459323000">
        <ele>963.20</ele>
        <time>2016-10-15T07:31:52Z</time>
      </trkpt>
      <trkpt lat="42.604953000" lon="-2.459322000">
        <ele>963.30</ele>
        <time>2016-10-15T07:31:53Z</time>
      </trkpt>
      <trkpt lat="42.604954000" lon="-2.459320000">
        <ele>963.40</ele>
        <time>2016-10-15T07:31:54Z</time>
      </trkpt>
      <trkpt lat="42.604954000" lon="-2.459320000">
        <ele>963.30</ele>
        <time>2016-10-15T07:31:55Z</time>
      </trkpt>
      <trkpt lat="42.604955000" lon="-2.459322000">
        <ele>963.20</ele>
        <time>2016-10-15T07:31:56Z</time>
      </trkpt>
      <trkpt lat="42.604955000" lon="-2.459322000">
        <ele>963.30</ele>
        <time>2016-10-15T07:31:57Z</time>
      </trkpt>
      <trkpt lat="42.604955000" lon="-2.459325000">
        <ele>963.40</ele>
        <time>2016-10-15T07:31:58Z</time>
      </trkpt>
      <trkpt lat="42.604955000" lon="-2.459324000">
        <ele>963.30</ele>
        <time>2016-10-15T07:31:59Z</time>
      </trkpt>
      <trkpt lat="42.604956000" lon="-2.459325000">
        <ele>963.30</ele>
        <time>2016-10-15T07:32:00Z</time>
      </trkpt>
      <trkpt lat="42.604957000" lon="-2.459324000">
        <ele>963.20</ele>
        <time>2016-10-15T07:32:01Z</time>
      </trkpt>
      <trkpt lat="42.604957000" lon="-2.459325000">
        <ele>963.20</ele>
        <time>2016-10-15T07:32:02Z</time>
      </trkpt>
      <trkpt lat="42.604956000" lon="-2.459326000">
        <ele>963.20</ele>
        <time>2016-10-15T07:32:03Z</time>
      </trkpt>
      <trkpt lat="42.604957000" lon="-2.459326000">
        <ele>963.20</ele>
        <time>2016-10-15T07:32:04Z</time>
      </trkpt>
      <trkpt lat="42.604958000" lon="-2.459325000">
        <ele>963.20</ele>
        <time>2016-10-15T07:32:05Z</time>
      </trkpt>
      <trkpt lat="42.604956000" lon="-2.459321000">
        <ele>963.20</ele>
        <time>2016-10-15T07:32:06Z</time>
      </trkpt>
      <trkpt lat="42.604956000" lon="-2.459321000">
        <ele>963.10</ele>
        <time>2016-10-15T07:32:07Z</time>
      </trkpt>
      <trkpt lat="42.604957000" lon="-2.459322000">
        <ele>963.00</ele>
        <time>2016-10-15T07:32:08Z</time>
      </trkpt>
      <trkpt lat="42.604957000" lon="-2.459321000">
        <ele>962.90</ele>
        <time>2016-10-15T07:32:09Z</time>
      </trkpt>
      <trkpt lat="42.604957000" lon="-2.459324000">
        <ele>962.80</ele>
        <time>2016-10-15T07:32:10Z</time>
      </trkpt>
      <trkpt lat="42.604957000" lon="-2.459325000">
        <ele>962.80</ele>
        <time>2016-10-15T07:32:11Z</time>
      </trkpt>
      <trkpt lat="42.604957000" lon="-2.459326000">
        <ele>962.70</ele>
        <time>2016-10-15T07:32:12Z</time>
      </trkpt>
      <trkpt lat="42.604956000" lon="-2.459325000">
        <ele>962.90</ele>
        <time>2016-10-15T07:32:13Z</time>
      </trkpt>
      <trkpt lat="42.604954000" lon="-2.459325000">
        <ele>962.90</ele>
        <time>2016-10-15T07:32:14Z</time>
      </trkpt>
      <trkpt lat="42.604956000" lon="-2.459321000">
        <ele>963.00</ele>
        <time>2016-10-15T07:32:15Z</time>
      </trkpt>
      <trkpt lat="42.604958000" lon="-2.459318000">
        <ele>963.10</ele>
        <time>2016-10-15T07:32:16Z</time>
      </trkpt>
      <trkpt lat="42.604956000" lon="-2.459315000">
        <ele>963.20</ele>
        <time>2016-10-15T07:32:17Z</time>
      </trkpt>
      <trkpt lat="42.604957000" lon="-2.459314000">
        <ele>963.20</ele>
        <time>2016-10-15T07:32:18Z</time>
      </trkpt>
      <trkpt lat="42.604958000" lon="-2.459311000">
        <ele>963.20</ele>
        <time>2016-10-15T07:32:19Z</time>
      </trkpt>
      <trkpt lat="42.604957000" lon="-2.459309000">
        <ele>963.30</ele>
        <time>2016-10-15T07:32:20Z</time>
      </trkpt>
      <trkpt lat="42.604956000" lon="-2.459309000">
        <ele>963.20</ele>
        <time>2016-10-15T07:32:21Z</time>
      </trkpt>
      <trkpt lat="42.604954000" lon="-2.459305000">
        <ele>963.20</ele>
        <time>2016-10-15T07:32:22Z</time>
      </trkpt>
      <trkpt lat="42.604951000" lon="-2.459303000">
        <ele>963.20</ele>
        <time>2016-10-15T07:32:23Z</time>
      </trkpt>
      <trkpt lat="42.604951000" lon="-2.459302000">
        <ele>963.20</ele>
        <time>2016-10-15T07:32:24Z</time>
      </trkpt>
      <trkpt lat="42.604949000" lon="-2.459300000">
        <ele>963.20</ele>
        <time>2016-10-15T07:32:25Z</time>
      </trkpt>
      <trkpt lat="42.604947000" lon="-2.459300000">
        <ele>963.10</ele>
        <time>2016-10-15T07:32:26Z</time>
      </trkpt>
      <trkpt lat="42.604948000" lon="-2.459300000">
        <ele>963.10</ele>
        <time>2016-10-15T07:32:27Z</time>
      </trkpt>
      <trkpt lat="42.604949000" lon="-2.459299000">
        <ele>963.10</ele>
        <time>2016-10-15T07:32:28Z</time>
      </trkpt>
      <trkpt lat="42.604949000" lon="-2.459298000">
        <ele>963.10</ele>
        <time>2016-10-15T07:32:29Z</time>
      </trkpt>
      <trkpt lat="42.604950000" lon="-2.459297000">
        <ele>963.10</ele>
        <time>2016-10-15T07:32:30Z</time>
      </trkpt>
      <trkpt lat="42.604953000" lon="-2.459297000">
        <ele>963.10</ele>
        <time>2016-10-15T07:32:31Z</time>
      </trkpt>
      <trkpt lat="42.604954000" lon="-2.459296000">
        <ele>963.20</ele>
        <time>2016-10-15T07:32:32Z</time>
      </trkpt>
      <trkpt lat="42.604955000" lon="-2.459296000">
        <ele>963.00</ele>
        <time>2016-10-15T07:32:33Z</time>
      </trkpt>
      <trkpt lat="42.604956000" lon="-2.459298000">
        <ele>963.00</ele>
        <time>2016-10-15T07:32:34Z</time>
      </trkpt>
      <trkpt lat="42.604956000" lon="-2.459297000">
        <ele>962.90</ele>
        <time>2016-10-15T07:32:35Z</time>
      </trkpt>
      <trkpt lat="42.604957000" lon="-2.459300000">
        <ele>962.90</ele>
        <time>2016-10-15T07:32:36Z</time>
      </trkpt>
      <trkpt lat="42.604955000" lon="-2.459301000">
        <ele>963.10</ele>
        <time>2016-10-15T07:32:37Z</time>
      </trkpt>
      <trkpt lat="42.604953000" lon="-2.459306000">
        <ele>963.30</ele>
        <time>2016-10-15T07:32:39Z</time>
      </trkpt>
      <trkpt lat="42.604953000" lon="-2.459305000">
        <ele>963.40</ele>
        <time>2016-10-15T07:32:40Z</time>
      </trkpt>
      <trkpt lat="42.604953000" lon="-2.459304000">
        <ele>963.50</ele>
        <time>2016-10-15T07:32:41Z</time>
      </trkpt>
      <trkpt lat="42.604952000" lon="-2.459302000">
        <ele>963.50</ele>
        <time>2016-10-15T07:32:42Z</time>
      </trkpt>
      <trkpt lat="42.604954000" lon="-2.459302000">
        <ele>963.50</ele>
        <time>2016-10-15T07:32:43Z</time>
      </trkpt>
      <trkpt lat="42.604955000" lon="-2.459304000">
        <ele>963.50</ele>
        <time>2016-10-15T07:32:44Z</time>
      </trkpt>
      <trkpt lat="42.604956000" lon="-2.459305000">
        <ele>963.60</ele>
        <time>2016-10-15T07:32:45Z</time>
      </trkpt>
      <trkpt lat="42.604956000" lon="-2.459305000">
        <ele>963.60</ele>
        <time>2016-10-15T07:32:46Z</time>
      </trkpt>
      <trkpt lat="42.604957000" lon="-2.459304000">
        <ele>963.50</ele>
        <time>2016-10-15T07:32:47Z</time>
      </trkpt>
      <trkpt lat="42.604955000" lon="-2.459305000">
        <ele>963.50</ele>
        <time>2016-10-15T07:32:48Z</time>
      </trkpt>
      <trkpt lat="42.604956000" lon="-2.459307000">
        <ele>963.50</ele>
        <time>2016-10-15T07:32:49Z</time>
      </trkpt>
      <trkpt lat="42.604956000" lon="-2.459307000">
        <ele>963.50</ele>
        <time>2016-10-15T07:32:50Z</time>
      </trkpt>
      <trkpt lat="42.604959000" lon="-2.459307000">
        <ele>963.40</ele>
        <time>2016-10-15T07:32:51Z</time>
      </trkpt>
      <trkpt lat="42.604960000" lon="-2.459307000">
        <ele>963.30</ele>
        <time>2016-10-15T07:32:52Z</time>
      </trkpt>
      <trkpt lat="42.604962000" lon="-2.459308000">
        <ele>963.20</ele>
        <time>2016-10-15T07:32:53Z</time>
      </trkpt>
      <trkpt lat="42.604962000" lon="-2.459307000">
        <ele>963.20</ele>
        <time>2016-10-15T07:32:54Z</time>
      </trkpt>
      <trkpt lat="42.604963000" lon="-2.459309000">
        <ele>963.20</ele>
        <time>2016-10-15T07:32:55Z</time>
      </trkpt>
      <trkpt lat="42.604964000" lon="-2.459311000">
        <ele>963.30</ele>
        <time>2016-10-15T07:32:56Z</time>
      </trkpt>
      <trkpt lat="42.604965000" lon="-2.459313000">
        <ele>963.30</ele>
        <time>2016-10-15T07:32:57Z</time>
      </trkpt>
      <trkpt lat="42.604964000" lon="-2.459315000">
        <ele>963.30</ele>
        <time>2016-10-15T07:32:58Z</time>
      </trkpt>
      <trkpt lat="42.604964000" lon="-2.459314000">
        <ele>963.30</ele>
        <time>2016-10-15T07:32:59Z</time>
      </trkpt>
      <trkpt lat="42.604965000" lon="-2.459312000">
        <ele>963.30</ele>
        <time>2016-10-15T07:33:00Z</time>
      </trkpt>
      <trkpt lat="42.604966000" lon="-2.459314000">
        <ele>963.30</ele>
        <time>2016-10-15T07:33:01Z</time>
      </trkpt>
      <trkpt lat="42.604963000" lon="-2.459318000">
        <ele>963.20</ele>
        <time>2016-10-15T07:33:02Z</time>
      </trkpt>
      <trkpt lat="42.604963000" lon="-2.459321000">
        <ele>963.20</ele>
        <time>2016-10-15T07:33:03Z</time>
      </trkpt>
      <trkpt lat="42.604963000" lon="-2.459324000">
        <ele>963.20</ele>
        <time>2016-10-15T07:33:04Z</time>
      </trkpt>
      <trkpt lat="42.604962000" lon="-2.459325000">
        <ele>963.20</ele>
        <time>2016-10-15T07:33:05Z</time>
      </trkpt>
      <trkpt lat="42.604964000" lon="-2.459324000">
        <ele>963.30</ele>
        <time>2016-10-15T07:33:06Z</time>
      </trkpt>
      <trkpt lat="42.604964000" lon="-2.459326000">
        <ele>963.20</ele>
        <time>2016-10-15T07:33:07Z</time>
      </trkpt>
      <trkpt lat="42.604964000" lon="-2.459323000">
        <ele>963.20</ele>
        <time>2016-10-15T07:33:08Z</time>
      </trkpt>
      <trkpt lat="42.604965000" lon="-2.459322000">
        <ele>963.30</ele>
        <time>2016-10-15T07:33:09Z</time>
      </trkpt>
      <trkpt lat="42.604966000" lon="-2.459322000">
        <ele>963.30</ele>
        <time>2016-10-15T07:33:10Z</time>
      </trkpt>
      <trkpt lat="42.604967000" lon="-2.459322000">
        <ele>963.30</ele>
        <time>2016-10-15T07:33:11Z</time>
      </trkpt>
      <trkpt lat="42.604965000" lon="-2.459320000">
        <ele>963.30</ele>
        <time>2016-10-15T07:33:12Z</time>
      </trkpt>
      <trkpt lat="42.604964000" lon="-2.459316000">
        <ele>963.30</ele>
        <time>2016-10-15T07:33:13Z</time>
      </trkpt>
      <trkpt lat="42.604963000" lon="-2.459314000">
        <ele>963.30</ele>
        <time>2016-10-15T07:33:14Z</time>
      </trkpt>
      <trkpt lat="42.604963000" lon="-2.459312000">
        <ele>963.20</ele>
        <time>2016-10-15T07:33:15Z</time>
      </trkpt>
      <trkpt lat="42.604963000" lon="-2.459309000">
        <ele>963.20</ele>
        <time>2016-10-15T07:33:16Z</time>
      </trkpt>
      <trkpt lat="42.604963000" lon="-2.459310000">
        <ele>963.20</ele>
        <time>2016-10-15T07:33:17Z</time>
      </trkpt>
      <trkpt lat="42.604960000" lon="-2.459310000">
        <ele>963.20</ele>
        <time>2016-10-15T07:33:18Z</time>
      </trkpt>
      <trkpt lat="42.604958000" lon="-2.459308000">
        <ele>963.30</ele>
        <time>2016-10-15T07:33:19Z</time>
      </trkpt>
      <trkpt lat="42.604958000" lon="-2.459308000">
        <ele>963.40</ele>
        <time>2016-10-15T07:33:20Z</time>
      </trkpt>
      <trkpt lat="42.604957000" lon="-2.459306000">
        <ele>963.50</ele>
        <time>2016-10-15T07:33:21Z</time>
      </trkpt>
      <trkpt lat="42.604958000" lon="-2.459305000">
        <ele>963.50</ele>
        <time>2016-10-15T07:33:22Z</time>
      </trkpt>
      <trkpt lat="42.604957000" lon="-2.459305000">
        <ele>963.60</ele>
        <time>2016-10-15T07:33:23Z</time>
      </trkpt>
      <trkpt lat="42.604955000" lon="-2.459303000">
        <ele>963.60</ele>
        <time>2016-10-15T07:33:24Z</time>
      </trkpt>
      <trkpt lat="42.604955000" lon="-2.459304000">
        <ele>963.60</ele>
        <time>2016-10-15T07:33:25Z</time>
      </trkpt>
      <trkpt lat="42.604955000" lon="-2.459305000">
        <ele>963.70</ele>
        <time>2016-10-15T07:33:26Z</time>
      </trkpt>
      <trkpt lat="42.604956000" lon="-2.459307000">
        <ele>963.50</ele>
        <time>2016-10-15T07:33:27Z</time>
      </trkpt>
      <trkpt lat="42.604956000" lon="-2.459308000">
        <ele>963.30</ele>
        <time>2016-10-15T07:33:28Z</time>
      </trkpt>
      <trkpt lat="42.604957000" lon="-2.459308000">
        <ele>963.40</ele>
        <time>2016-10-15T07:33:29Z</time>
      </trkpt>
      <trkpt lat="42.604956000" lon="-2.459310000">
        <ele>963.50</ele>
        <time>2016-10-15T07:33:30Z</time>
      </trkpt>
      <trkpt lat="42.604956000" lon="-2.459312000">
        <ele>963.30</ele>
        <time>2016-10-15T07:33:31Z</time>
      </trkpt>
      <trkpt lat="42.604958000" lon="-2.459314000">
        <ele>963.20</ele>
        <time>2016-10-15T07:33:32Z</time>
      </trkpt>
      <trkpt lat="42.604959000" lon="-2.459316000">
        <ele>963.20</ele>
        <time>2016-10-15T07:33:33Z</time>
      </trkpt>
      <trkpt lat="42.604961000" lon="-2.459316000">
        <ele>963.20</ele>
        <time>2016-10-15T07:33:34Z</time>
      </trkpt>
      <trkpt lat="42.604961000" lon="-2.459318000">
        <ele>963.20</ele>
        <time>2016-10-15T07:33:35Z</time>
      </trkpt>
      <trkpt lat="42.604962000" lon="-2.459318000">
        <ele>963.20</ele>
        <time>2016-10-15T07:33:36Z</time>
      </trkpt>
      <trkpt lat="42.604964000" lon="-2.459319000">
        <ele>963.30</ele>
        <time>2016-10-15T07:33:37Z</time>
      </trkpt>
      <trkpt lat="42.604964000" lon="-2.459319000">
        <ele>963.30</ele>
        <time>2016-10-15T07:33:38Z</time>
      </trkpt>
      <trkpt lat="42.604965000" lon="-2.459321000">
        <ele>963.40</ele>
        <time>2016-10-15T07:33:39Z</time>
      </trkpt>
      <trkpt lat="42.604965000" lon="-2.459322000">
        <ele>963.40</ele>
        <time>2016-10-15T07:33:41Z</time>
      </trkpt>
      <trkpt lat="42.604967000" lon="-2.459320000">
        <ele>963.40</ele>
        <time>2016-10-15T07:33:42Z</time>
      </trkpt>
      <trkpt lat="42.604968000" lon="-2.459321000">
        <ele>963.30</ele>
        <time>2016-10-15T07:33:43Z</time>
      </trkpt>
      <trkpt lat="42.604968000" lon="-2.459321000">
        <ele>963.30</ele>
        <time>2016-10-15T07:33:44Z</time>
      </trkpt>
      <trkpt lat="42.604968000" lon="-2.459322000">
        <ele>963.30</ele>
        <time>2016-10-15T07:33:45Z</time>
      </trkpt>
      <trkpt lat="42.604968000" lon="-2.459324000">
        <ele>963.20</ele>
        <time>2016-10-15T07:33:46Z</time>
      </trkpt>
      <trkpt lat="42.604967000" lon="-2.459326000">
        <ele>963.40</ele>
        <time>2016-10-15T07:33:47Z</time>
      </trkpt>
      <trkpt lat="42.604966000" lon="-2.459325000">
        <ele>963.40</ele>
        <time>2016-10-15T07:33:48Z</time>
      </trkpt>
      <trkpt lat="42.604965000" lon="-2.459323000">
        <ele>963.50</ele>
        <time>2016-10-15T07:33:49Z</time>
      </trkpt>
      <trkpt lat="42.604962000" lon="-2.459321000">
        <ele>963.60</ele>
        <time>2016-10-15T07:33:50Z</time>
      </trkpt>
      <trkpt lat="42.604962000" lon="-2.459322000">
        <ele>963.60</ele>
        <time>2016-10-15T07:33:51Z</time>
      </trkpt>
      <trkpt lat="42.604961000" lon="-2.459321000">
        <ele>963.60</ele>
        <time>2016-10-15T07:33:52Z</time>
      </trkpt>
      <trkpt lat="42.604961000" lon="-2.459321000">
        <ele>963.70</ele>
        <time>2016-10-15T07:33:53Z</time>
      </trkpt>
      <trkpt lat="42.604958000" lon="-2.459318000">
        <ele>963.70</ele>
        <time>2016-10-15T07:33:54Z</time>
      </trkpt>
      <trkpt lat="42.604958000" lon="-2.459316000">
        <ele>963.60</ele>
        <time>2016-10-15T07:33:55Z</time>
      </trkpt>
      <trkpt lat="42.604959000" lon="-2.459319000">
        <ele>963.60</ele>
        <time>2016-10-15T07:33:56Z</time>
      </trkpt>
      <trkpt lat="42.604959000" lon="-2.459317000">
        <ele>963.50</ele>
        <time>2016-10-15T07:33:57Z</time>
      </trkpt>
      <trkpt lat="42.604957000" lon="-2.459316000">
        <ele>963.50</ele>
        <time>2016-10-15T07:33:58Z</time>
      </trkpt>
      <trkpt lat="42.604957000" lon="-2.459315000">
        <ele>963.40</ele>
        <time>2016-10-15T07:33:59Z</time>
      </trkpt>
      <trkpt lat="42.604957000" lon="-2.459312000">
        <ele>963.40</ele>
        <time>2016-10-15T07:34:00Z</time>
      </trkpt>
      <trkpt lat="42.604955000" lon="-2.459311000">
        <ele>963.30</ele>
        <time>2016-10-15T07:34:01Z</time>
      </trkpt>
      <trkpt lat="42.604954000" lon="-2.459310000">
        <ele>963.30</ele>
        <time>2016-10-15T07:34:02Z</time>
      </trkpt>
      <trkpt lat="42.604954000" lon="-2.459309000">
        <ele>963.30</ele>
        <time>2016-10-15T07:34:03Z</time>
      </trkpt>
      <trkpt lat="42.604954000" lon="-2.459311000">
        <ele>963.20</ele>
        <time>2016-10-15T07:34:04Z</time>
      </trkpt>
      <trkpt lat="42.604952000" lon="-2.459311000">
        <ele>963.30</ele>
        <time>2016-10-15T07:34:05Z</time>
      </trkpt>
      <trkpt lat="42.604951000" lon="-2.459308000">
        <ele>963.30</ele>
        <time>2016-10-15T07:34:06Z</time>
      </trkpt>
      <trkpt lat="42.604948000" lon="-2.459308000">
        <ele>963.30</ele>
        <time>2016-10-15T07:34:07Z</time>
      </trkpt>
      <trkpt lat="42.604946000" lon="-2.459306000">
        <ele>963.30</ele>
        <time>2016-10-15T07:34:08Z</time>
      </trkpt>
      <trkpt lat="42.604946000" lon="-2.459305000">
        <ele>963.40</ele>
        <time>2016-10-15T07:34:09Z</time>
      </trkpt>
      <trkpt lat="42.604945000" lon="-2.459308000">
        <ele>963.40</ele>
        <time>2016-10-15T07:34:10Z</time>
      </trkpt>
      <trkpt lat="42.604944000" lon="-2.459308000">
        <ele>963.40</ele>
        <time>2016-10-15T07:34:11Z</time>
      </trkpt>
      <trkpt lat="42.604944000" lon="-2.459309000">
        <ele>963.40</ele>
        <time>2016-10-15T07:34:12Z</time>
      </trkpt>
      <trkpt lat="42.604944000" lon="-2.459309000">
        <ele>963.40</ele>
        <time>2016-10-15T07:34:13Z</time>
      </trkpt>
      <trkpt lat="42.604945000" lon="-2.459310000">
        <ele>963.40</ele>
        <time>2016-10-15T07:34:14Z</time>
      </trkpt>
      <trkpt lat="42.604944000" lon="-2.459311000">
        <ele>963.20</ele>
        <time>2016-10-15T07:34:15Z</time>
      </trkpt>
      <trkpt lat="42.604945000" lon="-2.459313000">
        <ele>963.10</ele>
        <time>2016-10-15T07:34:16Z</time>
      </trkpt>
      <trkpt lat="42.604947000" lon="-2.459314000">
        <ele>963.00</ele>
        <time>2016-10-15T07:34:17Z</time>
      </trkpt>
      <trkpt lat="42.604948000" lon="-2.459316000">
        <ele>962.90</ele>
        <time>2016-10-15T07:34:18Z</time>
      </trkpt>
      <trkpt lat="42.604948000" lon="-2.459320000">
        <ele>963.00</ele>
        <time>2016-10-15T07:34:19Z</time>
      </trkpt>
      <trkpt lat="42.604949000" lon="-2.459321000">
        <ele>963.10</ele>
        <time>2016-10-15T07:34:20Z</time>
      </trkpt>
      <trkpt lat="42.604952000" lon="-2.459324000">
        <ele>963.20</ele>
        <time>2016-10-15T07:34:21Z</time>
      </trkpt>
      <trkpt lat="42.604952000" lon="-2.459325000">
        <ele>963.20</ele>
        <time>2016-10-15T07:34:22Z</time>
      </trkpt>
      <trkpt lat="42.604954000" lon="-2.459327000">
        <ele>963.20</ele>
        <time>2016-10-15T07:34:23Z</time>
      </trkpt>
      <trkpt lat="42.604955000" lon="-2.459326000">
        <ele>963.20</ele>
        <time>2016-10-15T07:34:24Z</time>
      </trkpt>
      <trkpt lat="42.604956000" lon="-2.459326000">
        <ele>963.20</ele>
        <time>2016-10-15T07:34:25Z</time>
      </trkpt>
      <trkpt lat="42.604957000" lon="-2.459324000">
        <ele>963.20</ele>
        <time>2016-10-15T07:34:26Z</time>
      </trkpt>
      <trkpt lat="42.604959000" lon="-2.459323000">
        <ele>963.20</ele>
        <time>2016-10-15T07:34:27Z</time>
      </trkpt>
      <trkpt lat="42.604958000" lon="-2.459323000">
        <ele>963.20</ele>
        <time>2016-10-15T07:34:28Z</time>
      </trkpt>
      <trkpt lat="42.604959000" lon="-2.459325000">
        <ele>963.30</ele>
        <time>2016-10-15T07:34:29Z</time>
      </trkpt>
      <trkpt lat="42.604961000" lon="-2.459327000">
        <ele>963.30</ele>
        <time>2016-10-15T07:34:30Z</time>
      </trkpt>
      <trkpt lat="42.604961000" lon="-2.459326000">
        <ele>963.40</ele>
        <time>2016-10-15T07:34:31Z</time>
      </trkpt>
      <trkpt lat="42.604960000" lon="-2.459326000">
        <ele>963.50</ele>
        <time>2016-10-15T07:34:32Z</time>
      </trkpt>
      <trkpt lat="42.604961000" lon="-2.459326000">
        <ele>963.50</ele>
        <time>2016-10-15T07:34:33Z</time>
      </trkpt>
      <trkpt lat="42.604962000" lon="-2.459326000">
        <ele>963.50</ele>
        <time>2016-10-15T07:34:34Z</time>
      </trkpt>
      <trkpt lat="42.604962000" lon="-2.459326000">
        <ele>963.60</ele>
        <time>2016-10-15T07:34:35Z</time>
      </trkpt>
      <trkpt lat="42.604962000" lon="-2.459326000">
        <ele>963.60</ele>
        <time>2016-10-15T07:34:36Z</time>
      </trkpt>
      <trkpt lat="42.604960000" lon="-2.459327000">
        <ele>963.60</ele>
        <time>2016-10-15T07:34:37Z</time>
      </trkpt>
      <trkpt lat="42.604957000" lon="-2.459327000">
        <ele>963.60</ele>
        <time>2016-10-15T07:34:38Z</time>
      </trkpt>
      <trkpt lat="42.604957000" lon="-2.459327000">
        <ele>963.60</ele>
        <time>2016-10-15T07:34:39Z</time>
      </trkpt>
      <trkpt lat="42.604959000" lon="-2.459326000">
        <ele>963.60</ele>
        <time>2016-10-15T07:34:40Z</time>
      </trkpt>
      <trkpt lat="42.604960000" lon="-2.459325000">
        <ele>963.60</ele>
        <time>2016-10-15T07:34:41Z</time>
      </trkpt>
      <trkpt lat="42.604961000" lon="-2.459319000">
        <ele>963.60</ele>
        <time>2016-10-15T07:34:43Z</time>
      </trkpt>
      <trkpt lat="42.604963000" lon="-2.459319000">
        <ele>963.60</ele>
        <time>2016-10-15T07:34:44Z</time>
      </trkpt>
      <trkpt lat="42.604964000" lon="-2.459319000">
        <ele>963.50</ele>
        <time>2016-10-15T07:34:45Z</time>
      </trkpt>
      <trkpt lat="42.604964000" lon="-2.459321000">
        <ele>963.50</ele>
        <time>2016-10-15T07:34:46Z</time>
      </trkpt>
      <trkpt lat="42.604965000" lon="-2.459321000">
        <ele>963.40</ele>
        <time>2016-10-15T07:34:47Z</time>
      </trkpt>
      <trkpt lat="42.604965000" lon="-2.459318000">
        <ele>963.30</ele>
        <time>2016-10-15T07:34:48Z</time>
      </trkpt>
      <trkpt lat="42.604964000" lon="-2.459317000">
        <ele>963.20</ele>
        <time>2016-10-15T07:34:49Z</time>
      </trkpt>
      <trkpt lat="42.604964000" lon="-2.459318000">
        <ele>963.20</ele>
        <time>2016-10-15T07:34:50Z</time>
      </trkpt>
      <trkpt lat="42.604964000" lon="-2.459321000">
        <ele>963.10</ele>
        <time>2016-10-15T07:34:51Z</time>
      </trkpt>
      <trkpt lat="42.604965000" lon="-2.459323000">
        <ele>963.10</ele>
        <time>2016-10-15T07:34:52Z</time>
      </trkpt>
      <trkpt lat="42.604966000" lon="-2.459324000">
        <ele>963.10</ele>
        <time>2016-10-15T07:34:53Z</time>
      </trkpt>
      <trkpt lat="42.604967000" lon="-2.459326000">
        <ele>963.10</ele>
        <time>2016-10-15T07:34:54Z</time>
      </trkpt>
      <trkpt lat="42.604968000" lon="-2.459327000">
        <ele>963.10</ele>
        <time>2016-10-15T07:34:55Z</time>
      </trkpt>
      <trkpt lat="42.604967000" lon="-2.459328000">
        <ele>963.10</ele>
        <time>2016-10-15T07:34:56Z</time>
      </trkpt>
      <trkpt lat="42.604966000" lon="-2.459330000">
        <ele>963.10</ele>
        <time>2016-10-15T07:34:57Z</time>
      </trkpt>
      <trkpt lat="42.604968000" lon="-2.459330000">
        <ele>963.10</ele>
        <time>2016-10-15T07:34:58Z</time>
      </trkpt>
      <trkpt lat="42.604968000" lon="-2.459333000">
        <ele>963.10</ele>
        <time>2016-10-15T07:34:59Z</time>
      </trkpt>
      <trkpt lat="42.604969000" lon="-2.459333000">
        <ele>963.20</ele>
        <time>2016-10-15T07:35:00Z</time>
      </trkpt>
      <trkpt lat="42.604969000" lon="-2.459335000">
        <ele>963.20</ele>
        <time>2016-10-15T07:35:01Z</time>
      </trkpt>
      <trkpt lat="42.604970000" lon="-2.459337000">
        <ele>963.20</ele>
        <time>2016-10-15T07:35:02Z</time>
      </trkpt>
      <trkpt lat="42.604969000" lon="-2.459337000">
        <ele>963.20</ele>
        <time>2016-10-15T07:35:03Z</time>
      </trkpt>
      <trkpt lat="42.604968000" lon="-2.459336000">
        <ele>963.30</ele>
        <time>2016-10-15T07:35:04Z</time>
      </trkpt>
      <trkpt lat="42.604966000" lon="-2.459334000">
        <ele>963.30</ele>
        <time>2016-10-15T07:35:05Z</time>
      </trkpt>
      <trkpt lat="42.604964000" lon="-2.459332000">
        <ele>963.30</ele>
        <time>2016-10-15T07:35:06Z</time>
      </trkpt>
      <trkpt lat="42.604962000" lon="-2.459331000">
        <ele>963.30</ele>
        <time>2016-10-15T07:35:07Z</time>
      </trkpt>
      <trkpt lat="42.604959000" lon="-2.459328000">
        <ele>963.30</ele>
        <time>2016-10-15T07:35:08Z</time>
      </trkpt>
      <trkpt lat="42.604958000" lon="-2.459326000">
        <ele>963.30</ele>
        <time>2016-10-15T07:35:09Z</time>
      </trkpt>
      <trkpt lat="42.604957000" lon="-2.459324000">
        <ele>963.30</ele>
        <time>2016-10-15T07:35:10Z</time>
      </trkpt>
      <trkpt lat="42.604955000" lon="-2.459324000">
        <ele>963.30</ele>
        <time>2016-10-15T07:35:11Z</time>
      </trkpt>
      <trkpt lat="42.604956000" lon="-2.459322000">
        <ele>963.30</ele>
        <time>2016-10-15T07:35:12Z</time>
      </trkpt>
      <trkpt lat="42.604955000" lon="-2.459319000">
        <ele>963.30</ele>
        <time>2016-10-15T07:35:13Z</time>
      </trkpt>
      <trkpt lat="42.604954000" lon="-2.459316000">
        <ele>963.30</ele>
        <time>2016-10-15T07:35:14Z</time>
      </trkpt>
      <trkpt lat="42.604952000" lon="-2.459311000">
        <ele>963.30</ele>
        <time>2016-10-15T07:35:15Z</time>
      </trkpt>
      <trkpt lat="42.604951000" lon="-2.459310000">
        <ele>963.30</ele>
        <time>2016-10-15T07:35:16Z</time>
      </trkpt>
      <trkpt lat="42.604951000" lon="-2.459308000">
        <ele>963.30</ele>
        <time>2016-10-15T07:35:17Z</time>
      </trkpt>
      <trkpt lat="42.604952000" lon="-2.459307000">
        <ele>963.30</ele>
        <time>2016-10-15T07:35:18Z</time>
      </trkpt>
      <trkpt lat="42.604951000" lon="-2.459306000">
        <ele>963.30</ele>
        <time>2016-10-15T07:35:19Z</time>
      </trkpt>
      <trkpt lat="42.604950000" lon="-2.459305000">
        <ele>963.30</ele>
        <time>2016-10-15T07:35:20Z</time>
      </trkpt>
      <trkpt lat="42.604951000" lon="-2.459305000">
        <ele>963.30</ele>
        <time>2016-10-15T07:35:21Z</time>
      </trkpt>
      <trkpt lat="42.604950000" lon="-2.459306000">
        <ele>963.40</ele>
        <time>2016-10-15T07:35:22Z</time>
      </trkpt>
      <trkpt lat="42.604952000" lon="-2.459305000">
        <ele>963.40</ele>
        <time>2016-10-15T07:35:23Z</time>
      </trkpt>
      <trkpt lat="42.604953000" lon="-2.459305000">
        <ele>963.40</ele>
        <time>2016-10-15T07:35:24Z</time>
      </trkpt>
      <trkpt lat="42.604952000" lon="-2.459304000">
        <ele>963.40</ele>
        <time>2016-10-15T07:35:25Z</time>
      </trkpt>
      <trkpt lat="42.604952000" lon="-2.459306000">
        <ele>963.40</ele>
        <time>2016-10-15T07:35:26Z</time>
      </trkpt>
      <trkpt lat="42.604953000" lon="-2.459306000">
        <ele>963.50</ele>
        <time>2016-10-15T07:35:27Z</time>
      </trkpt>
      <trkpt lat="42.604954000" lon="-2.459307000">
        <ele>963.50</ele>
        <time>2016-10-15T07:35:28Z</time>
      </trkpt>
      <trkpt lat="42.604952000" lon="-2.459308000">
        <ele>963.50</ele>
        <time>2016-10-15T07:35:29Z</time>
      </trkpt>
      <trkpt lat="42.604952000" lon="-2.459308000">
        <ele>963.40</ele>
        <time>2016-10-15T07:35:30Z</time>
      </trkpt>
      <trkpt lat="42.604952000" lon="-2.459310000">
        <ele>963.40</ele>
        <time>2016-10-15T07:35:31Z</time>
      </trkpt>
      <trkpt lat="42.604952000" lon="-2.459311000">
        <ele>963.40</ele>
        <time>2016-10-15T07:35:32Z</time>
      </trkpt>
      <trkpt lat="42.604953000" lon="-2.459316000">
        <ele>963.30</ele>
        <time>2016-10-15T07:35:33Z</time>
      </trkpt>
      <trkpt lat="42.604952000" lon="-2.459319000">
        <ele>963.30</ele>
        <time>2016-10-15T07:35:34Z</time>
      </trkpt>
      <trkpt lat="42.604953000" lon="-2.459321000">
        <ele>963.30</ele>
        <time>2016-10-15T07:35:35Z</time>
      </trkpt>
      <trkpt lat="42.604952000" lon="-2.459323000">
        <ele>963.30</ele>
        <time>2016-10-15T07:35:36Z</time>
      </trkpt>
      <trkpt lat="42.604953000" lon="-2.459327000">
        <ele>963.20</ele>
        <time>2016-10-15T07:35:37Z</time>
      </trkpt>
      <trkpt lat="42.604952000" lon="-2.459330000">
        <ele>963.20</ele>
        <time>2016-10-15T07:35:38Z</time>
      </trkpt>
      <trkpt lat="42.604951000" lon="-2.459332000">
        <ele>963.30</ele>
        <time>2016-10-15T07:35:39Z</time>
      </trkpt>
      <trkpt lat="42.604953000" lon="-2.459335000">
        <ele>963.30</ele>
        <time>2016-10-15T07:35:40Z</time>
      </trkpt>
      <trkpt lat="42.604953000" lon="-2.459337000">
        <ele>963.40</ele>
        <time>2016-10-15T07:35:41Z</time>
      </trkpt>
      <trkpt lat="42.604953000" lon="-2.459336000">
        <ele>963.40</ele>
        <time>2016-10-15T07:35:42Z</time>
      </trkpt>
      <trkpt lat="42.604953000" lon="-2.459336000">
        <ele>963.70</ele>
        <time>2016-10-15T07:35:43Z</time>
      </trkpt>
      <trkpt lat="42.604953000" lon="-2.459335000">
        <ele>964.10</ele>
        <time>2016-10-15T07:35:45Z</time>
      </trkpt>
      <trkpt lat="42.604954000" lon="-2.459337000">
        <ele>964.20</ele>
        <time>2016-10-15T07:35:46Z</time>
      </trkpt>
      <trkpt lat="42.604954000" lon="-2.459335000">
        <ele>964.20</ele>
        <time>2016-10-15T07:35:47Z</time>
      </trkpt>
      <trkpt lat="42.604954000" lon="-2.459336000">
        <ele>964.30</ele>
        <time>2016-10-15T07:35:48Z</time>
      </trkpt>
      <trkpt lat="42.604954000" lon="-2.459337000">
        <ele>964.00</ele>
        <time>2016-10-15T07:35:49Z</time>
      </trkpt>
      <trkpt lat="42.604953000" lon="-2.459337000">
        <ele>963.90</ele>
        <time>2016-10-15T07:35:50Z</time>
      </trkpt>
      <trkpt lat="42.604951000" lon="-2.459337000">
        <ele>964.00</ele>
        <time>2016-10-15T07:35:51Z</time>
      </trkpt>
      <trkpt lat="42.604952000" lon="-2.459337000">
        <ele>964.00</ele>
        <time>2016-10-15T07:35:52Z</time>
      </trkpt>
      <trkpt lat="42.604953000" lon="-2.459336000">
        <ele>963.90</ele>
        <time>2016-10-15T07:35:53Z</time>
      </trkpt>
      <trkpt lat="42.604955000" lon="-2.459337000">
        <ele>963.80</ele>
        <time>2016-10-15T07:35:54Z</time>
      </trkpt>
      <trkpt lat="42.604956000" lon="-2.459336000">
        <ele>963.70</ele>
        <time>2016-10-15T07:35:55Z</time>
      </trkpt>
      <trkpt lat="42.604958000" lon="-2.459337000">
        <ele>963.60</ele>
        <time>2016-10-15T07:35:56Z</time>
      </trkpt>
      <trkpt lat="42.604958000" lon="-2.459334000">
        <ele>963.60</ele>
        <time>2016-10-15T07:35:57Z</time>
      </trkpt>
      <trkpt lat="42.604959000" lon="-2.459334000">
        <ele>963.60</ele>
        <time>2016-10-15T07:35:58Z</time>
      </trkpt>
      <trkpt lat="42.604960000" lon="-2.459334000">
        <ele>963.50</ele>
        <time>2016-10-15T07:35:59Z</time>
      </trkpt>
      <trkpt lat="42.604959000" lon="-2.459330000">
        <ele>963.50</ele>
        <time>2016-10-15T07:36:00Z</time>
      </trkpt>
      <trkpt lat="42.604958000" lon="-2.459329000">
        <ele>963.50</ele>
        <time>2016-10-15T07:36:01Z</time>
      </trkpt>
      <trkpt lat="42.604960000" lon="-2.459328000">
        <ele>963.40</ele>
        <time>2016-10-15T07:36:02Z</time>
      </trkpt>
      <trkpt lat="42.604961000" lon="-2.459327000">
        <ele>963.30</ele>
        <time>2016-10-15T07:36:03Z</time>
      </trkpt>
      <trkpt lat="42.604962000" lon="-2.459327000">
        <ele>963.30</ele>
        <time>2016-10-15T07:36:04Z</time>
      </trkpt>
      <trkpt lat="42.604963000" lon="-2.459327000">
        <ele>963.30</ele>
        <time>2016-10-15T07:36:05Z</time>
      </trkpt>
      <trkpt lat="42.604963000" lon="-2.459325000">
        <ele>963.30</ele>
        <time>2016-10-15T07:36:06Z</time>
      </trkpt>
      <trkpt lat="42.604962000" lon="-2.459325000">
        <ele>963.30</ele>
        <time>2016-10-15T07:36:07Z</time>
      </trkpt>
      <trkpt lat="42.604963000" lon="-2.459325000">
        <ele>963.30</ele>
        <time>2016-10-15T07:36:08Z</time>
      </trkpt>
      <trkpt lat="42.604963000" lon="-2.459323000">
        <ele>963.30</ele>
        <time>2016-10-15T07:36:09Z</time>
      </trkpt>
      <trkpt lat="42.604963000" lon="-2.459322000">
        <ele>963.30</ele>
        <time>2016-10-15T07:36:10Z</time>
      </trkpt>
      <trkpt lat="42.604963000" lon="-2.459322000">
        <ele>963.20</ele>
        <time>2016-10-15T07:36:11Z</time>
      </trkpt>
      <trkpt lat="42.604965000" lon="-2.459322000">
        <ele>963.20</ele>
        <time>2016-10-15T07:36:12Z</time>
      </trkpt>
      <trkpt lat="42.604965000" lon="-2.459324000">
        <ele>963.10</ele>
        <time>2016-10-15T07:36:13Z</time>
      </trkpt>
      <trkpt lat="42.604968000" lon="-2.459324000">
        <ele>963.10</ele>
        <time>2016-10-15T07:36:14Z</time>
      </trkpt>
      <trkpt lat="42.604969000" lon="-2.459321000">
        <ele>963.20</ele>
        <time>2016-10-15T07:36:15Z</time>
      </trkpt>
      <trkpt lat="42.604969000" lon="-2.459320000">
        <ele>963.20</ele>
        <time>2016-10-15T07:36:16Z</time>
      </trkpt>
      <trkpt lat="42.604969000" lon="-2.459321000">
        <ele>963.30</ele>
        <time>2016-10-15T07:36:17Z</time>
      </trkpt>
      <trkpt lat="42.604969000" lon="-2.459323000">
        <ele>963.30</ele>
        <time>2016-10-15T07:36:18Z</time>
      </trkpt>
      <trkpt lat="42.604968000" lon="-2.459323000">
        <ele>963.30</ele>
        <time>2016-10-15T07:36:19Z</time>
      </trkpt>
      <trkpt lat="42.604967000" lon="-2.459324000">
        <ele>963.40</ele>
        <time>2016-10-15T07:36:20Z</time>
      </trkpt>
      <trkpt lat="42.604968000" lon="-2.459326000">
        <ele>963.40</ele>
        <time>2016-10-15T07:36:21Z</time>
      </trkpt>
      <trkpt lat="42.604968000" lon="-2.459324000">
        <ele>963.50</ele>
        <time>2016-10-15T07:36:22Z</time>
      </trkpt>
      <trkpt lat="42.604966000" lon="-2.459321000">
        <ele>963.60</ele>
        <time>2016-10-15T07:36:23Z</time>
      </trkpt>
      <trkpt lat="42.604965000" lon="-2.459323000">
        <ele>963.60</ele>
        <time>2016-10-15T07:36:24Z</time>
      </trkpt>
      <trkpt lat="42.604964000" lon="-2.459321000">
        <ele>963.70</ele>
        <time>2016-10-15T07:36:25Z</time>
      </trkpt>
      <trkpt lat="42.604961000" lon="-2.459321000">
        <ele>963.70</ele>
        <time>2016-10-15T07:36:26Z</time>
      </trkpt>
      <trkpt lat="42.604961000" lon="-2.459323000">
        <ele>963.40</ele>
        <time>2016-10-15T07:36:27Z</time>
      </trkpt>
      <trkpt lat="42.604961000" lon="-2.459323000">
        <ele>963.10</ele>
        <time>2016-10-15T07:36:28Z</time>
      </trkpt>
      <trkpt lat="42.604960000" lon="-2.459325000">
        <ele>962.90</ele>
        <time>2016-10-15T07:36:29Z</time>
      </trkpt>
      <trkpt lat="42.604957000" lon="-2.459327000">
        <ele>962.80</ele>
        <time>2016-10-15T07:36:30Z</time>
      </trkpt>
      <trkpt lat="42.604955000" lon="-2.459328000">
        <ele>962.80</ele>
        <time>2016-10-15T07:36:31Z</time>
      </trkpt>
      <trkpt lat="42.604953000" lon="-2.459327000">
        <ele>962.80</ele>
        <time>2016-10-15T07:36:32Z</time>
      </trkpt>
      <trkpt lat="42.604952000" lon="-2.459327000">
        <ele>962.90</ele>
        <time>2016-10-15T07:36:33Z</time>
      </trkpt>
      <trkpt lat="42.604951000" lon="-2.459328000">
        <ele>963.00</ele>
        <time>2016-10-15T07:36:34Z</time>
      </trkpt>
      <trkpt lat="42.604949000" lon="-2.459328000">
        <ele>963.00</ele>
        <time>2016-10-15T07:36:35Z</time>
      </trkpt>
      <trkpt lat="42.604948000" lon="-2.459327000">
        <ele>963.00</ele>
        <time>2016-10-15T07:36:36Z</time>
      </trkpt>
      <trkpt lat="42.604948000" lon="-2.459327000">
        <ele>963.00</ele>
        <time>2016-10-15T07:36:37Z</time>
      </trkpt>
      <trkpt lat="42.604947000" lon="-2.459324000">
        <ele>963.10</ele>
        <time>2016-10-15T07:36:38Z</time>
      </trkpt>
      <trkpt lat="42.604947000" lon="-2.459322000">
        <ele>963.10</ele>
        <time>2016-10-15T07:36:39Z</time>
      </trkpt>
      <trkpt lat="42.604946000" lon="-2.459321000">
        <ele>963.10</ele>
        <time>2016-10-15T07:36:40Z</time>
      </trkpt>
      <trkpt lat="42.604945000" lon="-2.459320000">
        <ele>963.20</ele>
        <time>2016-10-15T07:36:41Z</time>
      </trkpt>
      <trkpt lat="42.604945000" lon="-2.459318000">
        <ele>963.30</ele>
        <time>2016-10-15T07:36:42Z</time>
      </trkpt>
      <trkpt lat="42.604946000" lon="-2.459318000">
        <ele>963.30</ele>
        <time>2016-10-15T07:36:43Z</time>
      </trkpt>
      <trkpt lat="42.604945000" lon="-2.459319000">
        <ele>963.40</ele>
        <time>2016-10-15T07:36:44Z</time>
      </trkpt>
      <trkpt lat="42.604948000" lon="-2.459322000">
        <ele>963.40</ele>
        <time>2016-10-15T07:36:45Z</time>
      </trkpt>
      <trkpt lat="42.604948000" lon="-2.459319000">
        <ele>963.50</ele>
        <time>2016-10-15T07:36:47Z</time>
      </trkpt>
      <trkpt lat="42.604947000" lon="-2.459320000">
        <ele>963.50</ele>
        <time>2016-10-15T07:36:48Z</time>
      </trkpt>
      <trkpt lat="42.604946000" lon="-2.459322000">
        <ele>963.50</ele>
        <time>2016-10-15T07:36:49Z</time>
      </trkpt>
      <trkpt lat="42.604945000" lon="-2.459320000">
        <ele>963.50</ele>
        <time>2016-10-15T07:36:50Z</time>
      </trkpt>
      <trkpt lat="42.604945000" lon="-2.459317000">
        <ele>963.30</ele>
        <time>2016-10-15T07:36:51Z</time>
      </trkpt>
      <trkpt lat="42.604946000" lon="-2.459317000">
        <ele>963.20</ele>
        <time>2016-10-15T07:36:52Z</time>
      </trkpt>
      <trkpt lat="42.604946000" lon="-2.459313000">
        <ele>963.10</ele>
        <time>2016-10-15T07:36:53Z</time>
      </trkpt>
      <trkpt lat="42.604945000" lon="-2.459312000">
        <ele>963.10</ele>
        <time>2016-10-15T07:36:54Z</time>
      </trkpt>
      <trkpt lat="42.604945000" lon="-2.459309000">
        <ele>963.00</ele>
        <time>2016-10-15T07:36:55Z</time>
      </trkpt>
      <trkpt lat="42.604946000" lon="-2.459308000">
        <ele>962.90</ele>
        <time>2016-10-15T07:36:56Z</time>
      </trkpt>
      <trkpt lat="42.604948000" lon="-2.459310000">
        <ele>962.80</ele>
        <time>2016-10-15T07:36:57Z</time>
      </trkpt>
      <trkpt lat="42.604947000" lon="-2.459308000">
        <ele>962.80</ele>
        <time>2016-10-15T07:36:58Z</time>
      </trkpt>
      <trkpt lat="42.604947000" lon="-2.459306000">
        <ele>962.70</ele>
        <time>2016-10-15T07:36:59Z</time>
      </trkpt>
      <trkpt lat="42.604949000" lon="-2.459305000">
        <ele>962.70</ele>
        <time>2016-10-15T07:37:00Z</time>
      </trkpt>
      <trkpt lat="42.604951000" lon="-2.459305000">
        <ele>962.80</ele>
        <time>2016-10-15T07:37:01Z</time>
      </trkpt>
      <trkpt lat="42.604952000" lon="-2.459304000">
        <ele>962.80</ele>
        <time>2016-10-15T07:37:02Z</time>
      </trkpt>
      <trkpt lat="42.604955000" lon="-2.459300000">
        <ele>962.90</ele>
        <time>2016-10-15T07:37:03Z</time>
      </trkpt>
      <trkpt lat="42.604955000" lon="-2.459296000">
        <ele>962.90</ele>
        <time>2016-10-15T07:37:04Z</time>
      </trkpt>
      <trkpt lat="42.604957000" lon="-2.459296000">
        <ele>963.00</ele>
        <time>2016-10-15T07:37:05Z</time>
      </trkpt>
      <trkpt lat="42.604955000" lon="-2.459295000">
        <ele>963.10</ele>
        <time>2016-10-15T07:37:06Z</time>
      </trkpt>
      <trkpt lat="42.604955000" lon="-2.459295000">
        <ele>963.30</ele>
        <time>2016-10-15T07:37:07Z</time>
      </trkpt>
      <trkpt lat="42.604954000" lon="-2.459296000">
        <ele>963.40</ele>
        <time>2016-10-15T07:37:08Z</time>
      </trkpt>
      <trkpt lat="42.604954000" lon="-2.459293000">
        <ele>963.40</ele>
        <time>2016-10-15T07:37:09Z</time>
      </trkpt>
      <trkpt lat="42.604955000" lon="-2.459292000">
        <ele>963.40</ele>
        <time>2016-10-15T07:37:10Z</time>
      </trkpt>
      <trkpt lat="42.604956000" lon="-2.459290000">
        <ele>963.40</ele>
        <time>2016-10-15T07:37:11Z</time>
      </trkpt>
      <trkpt lat="42.604957000" lon="-2.459290000">
        <ele>963.30</ele>
        <time>2016-10-15T07:37:12Z</time>
      </trkpt>
      <trkpt lat="42.604957000" lon="-2.459292000">
        <ele>963.30</ele>
        <time>2016-10-15T07:37:13Z</time>
      </trkpt>
      <trkpt lat="42.604957000" lon="-2.459290000">
        <ele>963.30</ele>
        <time>2016-10-15T07:37:14Z</time>
      </trkpt>
      <trkpt lat="42.604957000" lon="-2.459290000">
        <ele>963.30</ele>
        <time>2016-10-15T07:37:15Z</time>
      </trkpt>
      <trkpt lat="42.604957000" lon="-2.459291000">
        <ele>963.30</ele>
        <time>2016-10-15T07:37:16Z</time>
      </trkpt>
      <trkpt lat="42.604956000" lon="-2.459290000">
        <ele>963.20</ele>
        <time>2016-10-15T07:37:17Z</time>
      </trkpt>
      <trkpt lat="42.604955000" lon="-2.459287000">
        <ele>963.10</ele>
        <time>2016-10-15T07:37:18Z</time>
      </trkpt>
      <trkpt lat="42.604955000" lon="-2.459285000">
        <ele>963.00</ele>
        <time>2016-10-15T07:37:19Z</time>
      </trkpt>
      <trkpt lat="42.604954000" lon="-2.459285000">
        <ele>963.00</ele>
        <time>2016-10-15T07:37:20Z</time>
      </trkpt>
      <trkpt lat="42.604954000" lon="-2.459285000">
        <ele>963.00</ele>
        <time>2016-10-15T07:37:21Z</time>
      </trkpt>
      <trkpt lat="42.604954000" lon="-2.459285000">
        <ele>963.00</ele>
        <time>2016-10-15T07:37:22Z</time>
      </trkpt>
      <trkpt lat="42.604953000" lon="-2.459285000">
        <ele>963.10</ele>
        <time>2016-10-15T07:37:23Z</time>
      </trkpt>
      <trkpt lat="42.604952000" lon="-2.459285000">
        <ele>963.20</ele>
        <time>2016-10-15T07:37:24Z</time>
      </trkpt>
      <trkpt lat="42.604952000" lon="-2.459285000">
        <ele>963.30</ele>
        <time>2016-10-15T07:37:25Z</time>
      </trkpt>
      <trkpt lat="42.604952000" lon="-2.459285000">
        <ele>963.40</ele>
        <time>2016-10-15T07:37:26Z</time>
      </trkpt>
      <trkpt lat="42.604946000" lon="-2.459280000">
        <ele>963.50</ele>
        <time>2016-10-15T07:37:27Z</time>
      </trkpt>
      <trkpt lat="42.604945000" lon="-2.459279000">
        <ele>963.60</ele>
        <time>2016-10-15T07:37:28Z</time>
      </trkpt>
      <trkpt lat="42.604945000" lon="-2.459280000">
        <ele>963.60</ele>
        <time>2016-10-15T07:37:29Z</time>
      </trkpt>
      <trkpt lat="42.604944000" lon="-2.459280000">
        <ele>963.50</ele>
        <time>2016-10-15T07:37:30Z</time>
      </trkpt>
      <trkpt lat="42.604942000" lon="-2.459281000">
        <ele>963.50</ele>
        <time>2016-10-15T07:37:31Z</time>
      </trkpt>
      <trkpt lat="42.604941000" lon="-2.459278000">
        <ele>963.50</ele>
        <time>2016-10-15T07:37:32Z</time>
      </trkpt>
      <trkpt lat="42.604943000" lon="-2.459275000">
        <ele>963.50</ele>
        <time>2016-10-15T07:37:33Z</time>
      </trkpt>
      <trkpt lat="42.604944000" lon="-2.459275000">
        <ele>963.50</ele>
        <time>2016-10-15T07:37:34Z</time>
      </trkpt>
      <trkpt lat="42.604945000" lon="-2.459273000">
        <ele>963.50</ele>
        <time>2016-10-15T07:37:35Z</time>
      </trkpt>
      <trkpt lat="42.604942000" lon="-2.459271000">
        <ele>963.50</ele>
        <time>2016-10-15T07:37:36Z</time>
      </trkpt>
      <trkpt lat="42.604942000" lon="-2.459270000">
        <ele>963.50</ele>
        <time>2016-10-15T07:37:37Z</time>
      </trkpt>
      <trkpt lat="42.604941000" lon="-2.459269000">
        <ele>963.40</ele>
        <time>2016-10-15T07:37:38Z</time>
      </trkpt>
      <trkpt lat="42.604939000" lon="-2.459269000">
        <ele>963.30</ele>
        <time>2016-10-15T07:37:39Z</time>
      </trkpt>
      <trkpt lat="42.604939000" lon="-2.459267000">
        <ele>963.30</ele>
        <time>2016-10-15T07:37:40Z</time>
      </trkpt>
      <trkpt lat="42.604937000" lon="-2.459267000">
        <ele>963.20</ele>
        <time>2016-10-15T07:37:41Z</time>
      </trkpt>
      <trkpt lat="42.604938000" lon="-2.459267000">
        <ele>963.20</ele>
        <time>2016-10-15T07:37:42Z</time>
      </trkpt>
      <trkpt lat="42.604937000" lon="-2.459267000">
        <ele>963.20</ele>
        <time>2016-10-15T07:37:43Z</time>
      </trkpt>
      <trkpt lat="42.604939000" lon="-2.459265000">
        <ele>963.20</ele>
        <time>2016-10-15T07:37:44Z</time>
      </trkpt>
      <trkpt lat="42.604938000" lon="-2.459264000">
        <ele>963.20</ele>
        <time>2016-10-15T07:37:45Z</time>
      </trkpt>
      <trkpt lat="42.604938000" lon="-2.459263000">
        <ele>963.20</ele>
        <time>2016-10-15T07:37:46Z</time>
      </trkpt>
      <trkpt lat="42.604938000" lon="-2.459264000">
        <ele>963.20</ele>
        <time>2016-10-15T07:37:47Z</time>
      </trkpt>
      <trkpt lat="42.604935000" lon="-2.459263000">
        <ele>963.10</ele>
        <time>2016-10-15T07:37:49Z</time>
      </trkpt>
      <trkpt lat="42.604936000" lon="-2.459264000">
        <ele>963.10</ele>
        <time>2016-10-15T07:37:50Z</time>
      </trkpt>
      <trkpt lat="42.604937000" lon="-2.459264000">
        <ele>963.20</ele>
        <time>2016-10-15T07:37:51Z</time>
      </trkpt>
      <trkpt lat="42.604937000" lon="-2.459266000">
        <ele>963.20</ele>
        <time>2016-10-15T07:37:52Z</time>
      </trkpt>
      <trkpt lat="42.604938000" lon="-2.459268000">
        <ele>963.20</ele>
        <time>2016-10-15T07:37:53Z</time>
      </trkpt>
      <trkpt lat="42.604940000" lon="-2.459271000">
        <ele>963.20</ele>
        <time>2016-10-15T07:37:54Z</time>
      </trkpt>
      <trkpt lat="42.604940000" lon="-2.459272000">
        <ele>963.10</ele>
        <time>2016-10-15T07:37:55Z</time>
      </trkpt>
      <trkpt lat="42.604939000" lon="-2.459275000">
        <ele>963.00</ele>
        <time>2016-10-15T07:37:56Z</time>
      </trkpt>
      <trkpt lat="42.604940000" lon="-2.459277000">
        <ele>962.90</ele>
        <time>2016-10-15T07:37:57Z</time>
      </trkpt>
      <trkpt lat="42.604940000" lon="-2.459278000">
        <ele>962.80</ele>
        <time>2016-10-15T07:37:58Z</time>
      </trkpt>
      <trkpt lat="42.604942000" lon="-2.459281000">
        <ele>962.80</ele>
        <time>2016-10-15T07:37:59Z</time>
      </trkpt>
      <trkpt lat="42.604944000" lon="-2.459283000">
        <ele>962.70</ele>
        <time>2016-10-15T07:38:00Z</time>
      </trkpt>
      <trkpt lat="42.604945000" lon="-2.459283000">
        <ele>962.70</ele>
        <time>2016-10-15T07:38:01Z</time>
      </trkpt>
      <trkpt lat="42.604945000" lon="-2.459283000">
        <ele>962.70</ele>
        <time>2016-10-15T07:38:02Z</time>
      </trkpt>
      <trkpt lat="42.604946000" lon="-2.459282000">
        <ele>962.70</ele>
        <time>2016-10-15T07:38:03Z</time>
      </trkpt>
      <trkpt lat="42.604947000" lon="-2.459282000">
        <ele>962.70</ele>
        <time>2016-10-15T07:38:04Z</time>
      </trkpt>
      <trkpt lat="42.604946000" lon="-2.459280000">
        <ele>962.80</ele>
        <time>2016-10-15T07:38:05Z</time>
      </trkpt>
      <trkpt lat="42.604946000" lon="-2.459280000">
        <ele>962.90</ele>
        <time>2016-10-15T07:38:06Z</time>
      </trkpt>
      <trkpt lat="42.604945000" lon="-2.459275000">
        <ele>963.00</ele>
        <time>2016-10-15T07:38:07Z</time>
      </trkpt>
      <trkpt lat="42.604944000" lon="-2.459271000">
        <ele>963.10</ele>
        <time>2016-10-15T07:38:08Z</time>
      </trkpt>
      <trkpt lat="42.604944000" lon="-2.459269000">
        <ele>963.00</ele>
        <time>2016-10-15T07:38:09Z</time>
      </trkpt>
      <trkpt lat="42.604944000" lon="-2.459267000">
        <ele>963.00</ele>
        <time>2016-10-15T07:38:10Z</time>
      </trkpt>
      <trkpt lat="42.604945000" lon="-2.459267000">
        <ele>962.90</ele>
        <time>2016-10-15T07:38:11Z</time>
      </trkpt>
      <trkpt lat="42.604945000" lon="-2.459266000">
        <ele>962.90</ele>
        <time>2016-10-15T07:38:12Z</time>
      </trkpt>
      <trkpt lat="42.604946000" lon="-2.459267000">
        <ele>962.90</ele>
        <time>2016-10-15T07:38:13Z</time>
      </trkpt>
      <trkpt lat="42.604947000" lon="-2.459265000">
        <ele>962.90</ele>
        <time>2016-10-15T07:38:14Z</time>
      </trkpt>
      <trkpt lat="42.604948000" lon="-2.459264000">
        <ele>962.70</ele>
        <time>2016-10-15T07:38:15Z</time>
      </trkpt>
      <trkpt lat="42.604948000" lon="-2.459261000">
        <ele>962.60</ele>
        <time>2016-10-15T07:38:16Z</time>
      </trkpt>
      <trkpt lat="42.604948000" lon="-2.459262000">
        <ele>962.60</ele>
        <time>2016-10-15T07:38:17Z</time>
      </trkpt>
      <trkpt lat="42.604948000" lon="-2.459260000">
        <ele>962.50</ele>
        <time>2016-10-15T07:38:18Z</time>
      </trkpt>
      <trkpt lat="42.604949000" lon="-2.459261000">
        <ele>962.50</ele>
        <time>2016-10-15T07:38:19Z</time>
      </trkpt>
      <trkpt lat="42.604950000" lon="-2.459262000">
        <ele>962.50</ele>
        <time>2016-10-15T07:38:20Z</time>
      </trkpt>
      <trkpt lat="42.604950000" lon="-2.459266000">
        <ele>962.60</ele>
        <time>2016-10-15T07:38:21Z</time>
      </trkpt>
      <trkpt lat="42.604950000" lon="-2.459269000">
        <ele>962.60</ele>
        <time>2016-10-15T07:38:22Z</time>
      </trkpt>
      <trkpt lat="42.604951000" lon="-2.459270000">
        <ele>962.70</ele>
        <time>2016-10-15T07:38:23Z</time>
      </trkpt>
      <trkpt lat="42.604952000" lon="-2.459272000">
        <ele>962.70</ele>
        <time>2016-10-15T07:38:24Z</time>
      </trkpt>
      <trkpt lat="42.604952000" lon="-2.459272000">
        <ele>962.80</ele>
        <time>2016-10-15T07:38:25Z</time>
      </trkpt>
      <trkpt lat="42.604954000" lon="-2.459276000">
        <ele>962.80</ele>
        <time>2016-10-15T07:38:26Z</time>
      </trkpt>
      <trkpt lat="42.604955000" lon="-2.459280000">
        <ele>962.80</ele>
        <time>2016-10-15T07:38:27Z</time>
      </trkpt>
      <trkpt lat="42.604957000" lon="-2.459283000">
        <ele>962.80</ele>
        <time>2016-10-15T07:38:28Z</time>
      </trkpt>
      <trkpt lat="42.604955000" lon="-2.459285000">
        <ele>963.00</ele>
        <time>2016-10-15T07:38:29Z</time>
      </trkpt>
      <trkpt lat="42.604956000" lon="-2.459286000">
        <ele>963.20</ele>
        <time>2016-10-15T07:38:30Z</time>
      </trkpt>
      <trkpt lat="42.604955000" lon="-2.459285000">
        <ele>963.30</ele>
        <time>2016-10-15T07:38:31Z</time>
      </trkpt>
      <trkpt lat="42.604955000" lon="-2.459286000">
        <ele>963.30</ele>
        <time>2016-10-15T07:38:32Z</time>
      </trkpt>
      <trkpt lat="42.604954000" lon="-2.459287000">
        <ele>963.40</ele>
        <time>2016-10-15T07:38:33Z</time>
      </trkpt>
      <trkpt lat="42.604954000" lon="-2.459288000">
        <ele>963.40</ele>
        <time>2016-10-15T07:38:34Z</time>
      </trkpt>
      <trkpt lat="42.604953000" lon="-2.459290000">
        <ele>963.40</ele>
        <time>2016-10-15T07:38:35Z</time>
      </trkpt>
      <trkpt lat="42.604953000" lon="-2.459289000">
        <ele>963.40</ele>
        <time>2016-10-15T07:38:36Z</time>
      </trkpt>
      <trkpt lat="42.604952000" lon="-2.459288000">
        <ele>963.30</ele>
        <time>2016-10-15T07:38:37Z</time>
      </trkpt>
      <trkpt lat="42.604952000" lon="-2.459286000">
        <ele>963.10</ele>
        <time>2016-10-15T07:38:38Z</time>
      </trkpt>
      <trkpt lat="42.604950000" lon="-2.459286000">
        <ele>963.10</ele>
        <time>2016-10-15T07:38:39Z</time>
      </trkpt>
      <trkpt lat="42.604948000" lon="-2.459286000">
        <ele>963.00</ele>
        <time>2016-10-15T07:38:40Z</time>
      </trkpt>
      <trkpt lat="42.604948000" lon="-2.459284000">
        <ele>962.90</ele>
        <time>2016-10-15T07:38:41Z</time>
      </trkpt>
      <trkpt lat="42.604947000" lon="-2.459284000">
        <ele>962.80</ele>
        <time>2016-10-15T07:38:42Z</time>
      </trkpt>
      <trkpt lat="42.604946000" lon="-2.459284000">
        <ele>963.00</ele>
        <time>2016-10-15T07:38:43Z</time>
      </trkpt>
      <trkpt lat="42.604945000" lon="-2.459284000">
        <ele>963.20</ele>
        <time>2016-10-15T07:38:44Z</time>
      </trkpt>
      <trkpt lat="42.604942000" lon="-2.459284000">
        <ele>963.10</ele>
        <time>2016-10-15T07:38:45Z</time>
      </trkpt>
      <trkpt lat="42.604942000" lon="-2.459284000">
        <ele>963.10</ele>
        <time>2016-10-15T07:38:46Z</time>
      </trkpt>
      <trkpt lat="42.604943000" lon="-2.459287000">
        <ele>963.20</ele>
        <time>2016-10-15T07:38:47Z</time>
      </trkpt>
      <trkpt lat="42.604942000" lon="-2.459284000">
        <ele>963.30</ele>
        <time>2016-10-15T07:38:48Z</time>
      </trkpt>
      <trkpt lat="42.604940000" lon="-2.459282000">
        <ele>963.40</ele>
        <time>2016-10-15T07:38:49Z</time>
      </trkpt>
      <trkpt lat="42.604936000" lon="-2.459284000">
        <ele>963.50</ele>
        <time>2016-10-15T07:38:51Z</time>
      </trkpt>
      <trkpt lat="42.604936000" lon="-2.459285000">
        <ele>963.50</ele>
        <time>2016-10-15T07:38:52Z</time>
      </trkpt>
      <trkpt lat="42.604935000" lon="-2.459287000">
        <ele>963.50</ele>
        <time>2016-10-15T07:38:53Z</time>
      </trkpt>
      <trkpt lat="42.604934000" lon="-2.459288000">
        <ele>963.50</ele>
        <time>2016-10-15T07:38:54Z</time>
      </trkpt>
      <trkpt lat="42.604934000" lon="-2.459288000">
        <ele>963.40</ele>
        <time>2016-10-15T07:38:55Z</time>
      </trkpt>
      <trkpt lat="42.604935000" lon="-2.459289000">
        <ele>963.30</ele>
        <time>2016-10-15T07:38:56Z</time>
      </trkpt>
      <trkpt lat="42.604935000" lon="-2.459289000">
        <ele>963.20</ele>
        <time>2016-10-15T07:38:57Z</time>
      </trkpt>
      <trkpt lat="42.604935000" lon="-2.459286000">
        <ele>963.20</ele>
        <time>2016-10-15T07:38:58Z</time>
      </trkpt>
      <trkpt lat="42.604936000" lon="-2.459286000">
        <ele>963.10</ele>
        <time>2016-10-15T07:38:59Z</time>
      </trkpt>
      <trkpt lat="42.604937000" lon="-2.459290000">
        <ele>963.10</ele>
        <time>2016-10-15T07:39:00Z</time>
      </trkpt>
      <trkpt lat="42.604936000" lon="-2.459291000">
        <ele>963.10</ele>
        <time>2016-10-15T07:39:01Z</time>
      </trkpt>
      <trkpt lat="42.604936000" lon="-2.459294000">
        <ele>963.10</ele>
        <time>2016-10-15T07:39:02Z</time>
      </trkpt>
      <trkpt lat="42.604937000" lon="-2.459295000">
        <ele>963.10</ele>
        <time>2016-10-15T07:39:03Z</time>
      </trkpt>
      <trkpt lat="42.604937000" lon="-2.459297000">
        <ele>963.10</ele>
        <time>2016-10-15T07:39:04Z</time>
      </trkpt>
      <trkpt lat="42.604939000" lon="-2.459299000">
        <ele>963.10</ele>
        <time>2016-10-15T07:39:05Z</time>
      </trkpt>
      <trkpt lat="42.604940000" lon="-2.459300000">
        <ele>963.00</ele>
        <time>2016-10-15T07:39:06Z</time>
      </trkpt>
      <trkpt lat="42.604942000" lon="-2.459299000">
        <ele>963.00</ele>
        <time>2016-10-15T07:39:07Z</time>
      </trkpt>
      <trkpt lat="42.604943000" lon="-2.459299000">
        <ele>963.00</ele>
        <time>2016-10-15T07:39:08Z</time>
      </trkpt>
      <trkpt lat="42.604945000" lon="-2.459298000">
        <ele>963.00</ele>
        <time>2016-10-15T07:39:09Z</time>
      </trkpt>
      <trkpt lat="42.604944000" lon="-2.459298000">
        <ele>963.00</ele>
        <time>2016-10-15T07:39:10Z</time>
      </trkpt>
      <trkpt lat="42.604943000" lon="-2.459297000">
        <ele>963.00</ele>
        <time>2016-10-15T07:39:11Z</time>
      </trkpt>
      <trkpt lat="42.604943000" lon="-2.459297000">
        <ele>963.00</ele>
        <time>2016-10-15T07:39:12Z</time>
      </trkpt>
      <trkpt lat="42.604942000" lon="-2.459296000">
        <ele>963.00</ele>
        <time>2016-10-15T07:39:13Z</time>
      </trkpt>
      <trkpt lat="42.604942000" lon="-2.459297000">
        <ele>963.00</ele>
        <time>2016-10-15T07:39:14Z</time>
      </trkpt>
      <trkpt lat="42.604942000" lon="-2.459298000">
        <ele>963.00</ele>
        <time>2016-10-15T07:39:15Z</time>
      </trkpt>
      <trkpt lat="42.604940000" lon="-2.459296000">
        <ele>963.00</ele>
        <time>2016-10-15T07:39:16Z</time>
      </trkpt>
      <trkpt lat="42.604938000" lon="-2.459294000">
        <ele>963.10</ele>
        <time>2016-10-15T07:39:17Z</time>
      </trkpt>
      <trkpt lat="42.604937000" lon="-2.459294000">
        <ele>963.20</ele>
        <time>2016-10-15T07:39:18Z</time>
      </trkpt>
      <trkpt lat="42.604935000" lon="-2.459293000">
        <ele>963.30</ele>
        <time>2016-10-15T07:39:19Z</time>
      </trkpt>
      <trkpt lat="42.604933000" lon="-2.459292000">
        <ele>963.30</ele>
        <time>2016-10-15T07:39:20Z</time>
      </trkpt>
      <trkpt lat="42.604934000" lon="-2.459292000">
        <ele>963.20</ele>
        <time>2016-10-15T07:39:21Z</time>
      </trkpt>
      <trkpt lat="42.604934000" lon="-2.459292000">
        <ele>963.10</ele>
        <time>2016-10-15T07:39:22Z</time>
      </trkpt>
      <trkpt lat="42.604932000" lon="-2.459290000">
        <ele>963.10</ele>
        <time>2016-10-15T07:39:23Z</time>
      </trkpt>
      <trkpt lat="42.604931000" lon="-2.459291000">
        <ele>963.00</ele>
        <time>2016-10-15T07:39:24Z</time>
      </trkpt>
      <trkpt lat="42.604930000" lon="-2.459289000">
        <ele>963.00</ele>
        <time>2016-10-15T07:39:25Z</time>
      </trkpt>
      <trkpt lat="42.604930000" lon="-2.459288000">
        <ele>963.00</ele>
        <time>2016-10-15T07:39:26Z</time>
      </trkpt>
      <trkpt lat="42.604929000" lon="-2.459286000">
        <ele>963.20</ele>
        <time>2016-10-15T07:39:27Z</time>
      </trkpt>
      <trkpt lat="42.604929000" lon="-2.459284000">
        <ele>963.30</ele>
        <time>2016-10-15T07:39:28Z</time>
      </trkpt>
      <trkpt lat="42.604927000" lon="-2.459285000">
        <ele>963.40</ele>
        <time>2016-10-15T07:39:29Z</time>
      </trkpt>
      <trkpt lat="42.604927000" lon="-2.459286000">
        <ele>963.40</ele>
        <time>2016-10-15T07:39:30Z</time>
      </trkpt>
      <trkpt lat="42.604927000" lon="-2.459285000">
        <ele>963.40</ele>
        <time>2016-10-15T07:39:31Z</time>
      </trkpt>
      <trkpt lat="42.604925000" lon="-2.459281000">
        <ele>963.40</ele>
        <time>2016-10-15T07:39:32Z</time>
      </trkpt>
      <trkpt lat="42.604925000" lon="-2.459281000">
        <ele>963.40</ele>
        <time>2016-10-15T07:39:33Z</time>
      </trkpt>
      <trkpt lat="42.604925000" lon="-2.459281000">
        <ele>963.40</ele>
        <time>2016-10-15T07:39:34Z</time>
      </trkpt>
      <trkpt lat="42.604925000" lon="-2.459283000">
        <ele>963.30</ele>
        <time>2016-10-15T07:39:35Z</time>
      </trkpt>
      <trkpt lat="42.604925000" lon="-2.459284000">
        <ele>963.30</ele>
        <time>2016-10-15T07:39:36Z</time>
      </trkpt>
      <trkpt lat="42.604926000" lon="-2.459281000">
        <ele>963.30</ele>
        <time>2016-10-15T07:39:37Z</time>
      </trkpt>
      <trkpt lat="42.604927000" lon="-2.459283000">
        <ele>963.30</ele>
        <time>2016-10-15T07:39:38Z</time>
      </trkpt>
      <trkpt lat="42.604926000" lon="-2.459282000">
        <ele>963.20</ele>
        <time>2016-10-15T07:39:39Z</time>
      </trkpt>
      <trkpt lat="42.604924000" lon="-2.459280000">
        <ele>963.20</ele>
        <time>2016-10-15T07:39:40Z</time>
      </trkpt>
      <trkpt lat="42.604923000" lon="-2.459279000">
        <ele>963.20</ele>
        <time>2016-10-15T07:39:41Z</time>
      </trkpt>
      <trkpt lat="42.604921000" lon="-2.459279000">
        <ele>963.20</ele>
        <time>2016-10-15T07:39:42Z</time>
      </trkpt>
      <trkpt lat="42.604922000" lon="-2.459281000">
        <ele>963.10</ele>
        <time>2016-10-15T07:39:43Z</time>
      </trkpt>
      <trkpt lat="42.604922000" lon="-2.459283000">
        <ele>963.10</ele>
        <time>2016-10-15T07:39:44Z</time>
      </trkpt>
      <trkpt lat="42.604923000" lon="-2.459286000">
        <ele>963.20</ele>
        <time>2016-10-15T07:39:45Z</time>
      </trkpt>
      <trkpt lat="42.604924000" lon="-2.459286000">
        <ele>963.30</ele>
        <time>2016-10-15T07:39:46Z</time>
      </trkpt>
      <trkpt lat="42.604926000" lon="-2.459289000">
        <ele>963.40</ele>
        <time>2016-10-15T07:39:47Z</time>
      </trkpt>
      <trkpt lat="42.604926000" lon="-2.459290000">
        <ele>963.50</ele>
        <time>2016-10-15T07:39:48Z</time>
      </trkpt>
      <trkpt lat="42.604927000" lon="-2.459292000">
        <ele>963.50</ele>
        <time>2016-10-15T07:39:49Z</time>
      </trkpt>
      <trkpt lat="42.604926000" lon="-2.459292000">
        <ele>963.50</ele>
        <time>2016-10-15T07:39:50Z</time>
      </trkpt>
      <trkpt lat="42.604926000" lon="-2.459293000">
        <ele>963.50</ele>
        <time>2016-10-15T07:39:51Z</time>
      </trkpt>
      <trkpt lat="42.604924000" lon="-2.459293000">
        <ele>963.50</ele>
        <time>2016-10-15T07:39:53Z</time>
      </trkpt>
      <trkpt lat="42.604924000" lon="-2.459293000">
        <ele>963.50</ele>
        <time>2016-10-15T07:39:54Z</time>
      </trkpt>
      <trkpt lat="42.604924000" lon="-2.459291000">
        <ele>963.60</ele>
        <time>2016-10-15T07:39:55Z</time>
      </trkpt>
      <trkpt lat="42.604924000" lon="-2.459290000">
        <ele>963.60</ele>
        <time>2016-10-15T07:39:56Z</time>
      </trkpt>
      <trkpt lat="42.604926000" lon="-2.459291000">
        <ele>963.60</ele>
        <time>2016-10-15T07:39:57Z</time>
      </trkpt>
      <trkpt lat="42.604926000" lon="-2.459290000">
        <ele>963.60</ele>
        <time>2016-10-15T07:39:58Z</time>
      </trkpt>
      <trkpt lat="42.604926000" lon="-2.459288000">
        <ele>963.70</ele>
        <time>2016-10-15T07:39:59Z</time>
      </trkpt>
      <trkpt lat="42.604926000" lon="-2.459287000">
        <ele>963.70</ele>
        <time>2016-10-15T07:40:00Z</time>
      </trkpt>
      <trkpt lat="42.604927000" lon="-2.459288000">
        <ele>963.70</ele>
        <time>2016-10-15T07:40:01Z</time>
      </trkpt>
      <trkpt lat="42.604925000" lon="-2.459287000">
        <ele>963.70</ele>
        <time>2016-10-15T07:40:02Z</time>
      </trkpt>
      <trkpt lat="42.604923000" lon="-2.459284000">
        <ele>963.50</ele>
        <time>2016-10-15T07:40:03Z</time>
      </trkpt>
      <trkpt lat="42.604922000" lon="-2.459282000">
        <ele>963.40</ele>
        <time>2016-10-15T07:40:04Z</time>
      </trkpt>
      <trkpt lat="42.604922000" lon="-2.459282000">
        <ele>963.30</ele>
        <time>2016-10-15T07:40:05Z</time>
      </trkpt>
      <trkpt lat="42.604922000" lon="-2.459282000">
        <ele>963.20</ele>
        <time>2016-10-15T07:40:06Z</time>
      </trkpt>
      <trkpt lat="42.604923000" lon="-2.459283000">
        <ele>963.20</ele>
        <time>2016-10-15T07:40:07Z</time>
      </trkpt>
      <trkpt lat="42.604922000" lon="-2.459282000">
        <ele>963.20</ele>
        <time>2016-10-15T07:40:08Z</time>
      </trkpt>
      <trkpt lat="42.604922000" lon="-2.459279000">
        <ele>963.20</ele>
        <time>2016-10-15T07:40:09Z</time>
      </trkpt>
      <trkpt lat="42.604923000" lon="-2.459280000">
        <ele>963.20</ele>
        <time>2016-10-15T07:40:10Z</time>
      </trkpt>
      <trkpt lat="42.604923000" lon="-2.459280000">
        <ele>963.20</ele>
        <time>2016-10-15T07:40:11Z</time>
      </trkpt>
      <trkpt lat="42.604921000" lon="-2.459287000">
        <ele>963.10</ele>
        <time>2016-10-15T07:40:12Z</time>
      </trkpt>
      <trkpt lat="42.604920000" lon="-2.459294000">
        <ele>963.10</ele>
        <time>2016-10-15T07:40:13Z</time>
      </trkpt>
      <trkpt lat="42.604922000" lon="-2.459305000">
        <ele>963.00</ele>
        <time>2016-10-15T07:40:14Z</time>
      </trkpt>
      <trkpt lat="42.604924000" lon="-2.459313000">
        <ele>963.00</ele>
        <time>2016-10-15T07:40:15Z</time>
      </trkpt>
      <trkpt lat="42.604927000" lon="-2.459319000">
        <ele>963.00</ele>
        <time>2016-10-15T07:40:16Z</time>
      </trkpt>
      <trkpt lat="42.604930000" lon="-2.459323000">
        <ele>963.10</ele>
        <time>2016-10-15T07:40:17Z</time>
      </trkpt>
      <trkpt lat="42.604934000" lon="-2.459325000">
        <ele>963.10</ele>
        <time>2016-10-15T07:40:18Z</time>
      </trkpt>
      <trkpt lat="42.604936000" lon="-2.459328000">
        <ele>963.20</ele>
        <time>2016-10-15T07:40:19Z</time>
      </trkpt>
      <trkpt lat="42.604939000" lon="-2.459331000">
        <ele>963.20</ele>
        <time>2016-10-15T07:40:20Z</time>
      </trkpt>
      <trkpt lat="42.604942000" lon="-2.459334000">
        <ele>963.30</ele>
        <time>2016-10-15T07:40:21Z</time>
      </trkpt>
      <trkpt lat="42.604944000" lon="-2.459337000">
        <ele>963.30</ele>
        <time>2016-10-15T07:40:22Z</time>
      </trkpt>
      <trkpt lat="42.604946000" lon="-2.459340000">
        <ele>963.40</ele>
        <time>2016-10-15T07:40:23Z</time>
      </trkpt>
      <trkpt lat="42.604950000" lon="-2.459340000">
        <ele>963.50</ele>
        <time>2016-10-15T07:40:24Z</time>
      </trkpt>
      <trkpt lat="42.604950000" lon="-2.459341000">
        <ele>963.60</ele>
        <time>2016-10-15T07:40:25Z</time>
      </trkpt>
      <trkpt lat="42.604949000" lon="-2.459342000">
        <ele>963.70</ele>
        <time>2016-10-15T07:40:26Z</time>
      </trkpt>
      <trkpt lat="42.604949000" lon="-2.459340000">
        <ele>963.70</ele>
        <time>2016-10-15T07:40:27Z</time>
      </trkpt>
      <trkpt lat="42.604948000" lon="-2.459337000">
        <ele>963.80</ele>
        <time>2016-10-15T07:40:28Z</time>
      </trkpt>
      <trkpt lat="42.604952000" lon="-2.459346000">
        <ele>963.80</ele>
        <time>2016-10-15T07:40:29Z</time>
      </trkpt>
      <trkpt lat="42.604959000" lon="-2.459350000">
        <ele>963.80</ele>
        <time>2016-10-15T07:40:30Z</time>
      </trkpt>
      <trkpt lat="42.604960000" lon="-2.459347000">
        <ele>963.70</ele>
        <time>2016-10-15T07:40:31Z</time>
      </trkpt>
      <trkpt lat="42.604963000" lon="-2.459336000">
        <ele>963.60</ele>
        <time>2016-10-15T07:40:32Z</time>
      </trkpt>
      <trkpt lat="42.604962000" lon="-2.459335000">
        <ele>963.50</ele>
        <time>2016-10-15T07:40:33Z</time>
      </trkpt>
      <trkpt lat="42.604963000" lon="-2.459338000">
        <ele>963.40</ele>
        <time>2016-10-15T07:40:34Z</time>
      </trkpt>
      <trkpt lat="42.604959000" lon="-2.459339000">
        <ele>963.40</ele>
        <time>2016-10-15T07:40:35Z</time>
      </trkpt>
      <trkpt lat="42.604954000" lon="-2.459334000">
        <ele>963.50</ele>
        <time>2016-10-15T07:40:36Z</time>
      </trkpt>
      <trkpt lat="42.604948000" lon="-2.459332000">
        <ele>963.50</ele>
        <time>2016-10-15T07:40:37Z</time>
      </trkpt>
      <trkpt lat="42.604948000" lon="-2.459336000">
        <ele>963.60</ele>
        <time>2016-10-15T07:40:38Z</time>
      </trkpt>
      <trkpt lat="42.604944000" lon="-2.459345000">
        <ele>963.60</ele>
        <time>2016-10-15T07:40:39Z</time>
      </trkpt>
      <trkpt lat="42.604944000" lon="-2.459352000">
        <ele>963.70</ele>
        <time>2016-10-15T07:40:40Z</time>
      </trkpt>
      <trkpt lat="42.604942000" lon="-2.459353000">
        <ele>963.80</ele>
        <time>2016-10-15T07:40:41Z</time>
      </trkpt>
      <trkpt lat="42.604943000" lon="-2.459343000">
        <ele>963.90</ele>
        <time>2016-10-15T07:40:42Z</time>
      </trkpt>
      <trkpt lat="42.604944000" lon="-2.459352000">
        <ele>964.00</ele>
        <time>2016-10-15T07:40:43Z</time>
      </trkpt>
      <trkpt lat="42.604945000" lon="-2.459354000">
        <ele>964.00</ele>
        <time>2016-10-15T07:40:44Z</time>
      </trkpt>
      <trkpt lat="42.604945000" lon="-2.459347000">
        <ele>964.10</ele>
        <time>2016-10-15T07:40:45Z</time>
      </trkpt>
      <trkpt lat="42.604944000" lon="-2.459336000">
        <ele>964.10</ele>
        <time>2016-10-15T07:40:46Z</time>
      </trkpt>
      <trkpt lat="42.604946000" lon="-2.459327000">
        <ele>964.10</ele>
        <time>2016-10-15T07:40:47Z</time>
      </trkpt>
      <trkpt lat="42.604947000" lon="-2.459320000">
        <ele>964.10</ele>
        <time>2016-10-15T07:40:48Z</time>
      </trkpt>
      <trkpt lat="42.604953000" lon="-2.459304000">
        <ele>963.90</ele>
        <time>2016-10-15T07:40:49Z</time>
      </trkpt>
      <trkpt lat="42.604958000" lon="-2.459294000">
        <ele>963.80</ele>
        <time>2016-10-15T07:40:50Z</time>
      </trkpt>
      <trkpt lat="42.604964000" lon="-2.459285000">
        <ele>963.80</ele>
        <time>2016-10-15T07:40:51Z</time>
      </trkpt>
      <trkpt lat="42.604972000" lon="-2.459277000">
        <ele>963.90</ele>
        <time>2016-10-15T07:40:52Z</time>
      </trkpt>
      <trkpt lat="42.604978000" lon="-2.459265000">
        <ele>963.90</ele>
        <time>2016-10-15T07:40:53Z</time>
      </trkpt>
      <trkpt lat="42.604994000" lon="-2.459249000">
        <ele>963.90</ele>
        <time>2016-10-15T07:40:55Z</time>
      </trkpt>
      <trkpt lat="42.605010000" lon="-2.459235000">
        <ele>963.80</ele>
        <time>2016-10-15T07:40:56Z</time>
      </trkpt>
      <trkpt lat="42.605024000" lon="-2.459228000">
        <ele>963.80</ele>
        <time>2016-10-15T07:40:57Z</time>
      </trkpt>
      <trkpt lat="42.605035000" lon="-2.459213000">
        <ele>963.70</ele>
        <time>2016-10-15T07:40:58Z</time>
      </trkpt>
      <trkpt lat="42.605053000" lon="-2.459195000">
        <ele>963.60</ele>
        <time>2016-10-15T07:40:59Z</time>
      </trkpt>
      <trkpt lat="42.605075000" lon="-2.459185000">
        <ele>963.50</ele>
        <time>2016-10-15T07:41:00Z</time>
      </trkpt>
      <trkpt lat="42.605099000" lon="-2.459170000">
        <ele>963.50</ele>
        <time>2016-10-15T07:41:01Z</time>
      </trkpt>
      <trkpt lat="42.605119000" lon="-2.459156000">
        <ele>963.50</ele>
        <time>2016-10-15T07:41:02Z</time>
      </trkpt>
      <trkpt lat="42.605130000" lon="-2.459144000">
        <ele>963.50</ele>
        <time>2016-10-15T07:41:03Z</time>
      </trkpt>
      <trkpt lat="42.605137000" lon="-2.459135000">
        <ele>963.50</ele>
        <time>2016-10-15T07:41:04Z</time>
      </trkpt>
      <trkpt lat="42.605140000" lon="-2.459119000">
        <ele>963.60</ele>
        <time>2016-10-15T07:41:05Z</time>
      </trkpt>
      <trkpt lat="42.605151000" lon="-2.459107000">
        <ele>963.70</ele>
        <time>2016-10-15T07:41:06Z</time>
      </trkpt>
      <trkpt lat="42.605163000" lon="-2.459088000">
        <ele>963.70</ele>
        <time>2016-10-15T07:41:07Z</time>
      </trkpt>
      <trkpt lat="42.605171000" lon="-2.459066000">
        <ele>963.80</ele>
        <time>2016-10-15T07:41:08Z</time>
      </trkpt>
      <trkpt lat="42.605179000" lon="-2.459039000">
        <ele>963.80</ele>
        <time>2016-10-15T07:41:09Z</time>
      </trkpt>
      <trkpt lat="42.605189000" lon="-2.459015000">
        <ele>963.80</ele>
        <time>2016-10-15T07:41:10Z</time>
      </trkpt>
      <trkpt lat="42.605205000" lon="-2.458993000">
        <ele>963.70</ele>
        <time>2016-10-15T07:41:11Z</time>
      </trkpt>
      <trkpt lat="42.605219000" lon="-2.458972000">
        <ele>963.60</ele>
        <time>2016-10-15T07:41:12Z</time>
      </trkpt>
      <trkpt lat="42.605233000" lon="-2.458948000">
        <ele>963.50</ele>
        <time>2016-10-15T07:41:13Z</time>
      </trkpt>
      <trkpt lat="42.605248000" lon="-2.458927000">
        <ele>963.50</ele>
        <time>2016-10-15T07:41:14Z</time>
      </trkpt>
      <trkpt lat="42.605263000" lon="-2.458910000">
        <ele>963.30</ele>
        <time>2016-10-15T07:41:15Z</time>
      </trkpt>
      <trkpt lat="42.605275000" lon="-2.458890000">
        <ele>963.10</ele>
        <time>2016-10-15T07:41:16Z</time>
      </trkpt>
      <trkpt lat="42.605289000" lon="-2.458872000">
        <ele>963.20</ele>
        <time>2016-10-15T07:41:17Z</time>
      </trkpt>
      <trkpt lat="42.605304000" lon="-2.458858000">
        <ele>963.20</ele>
        <time>2016-10-15T07:41:18Z</time>
      </trkpt>
      <trkpt lat="42.605320000" lon="-2.458839000">
        <ele>963.30</ele>
        <time>2016-10-15T07:41:19Z</time>
      </trkpt>
      <trkpt lat="42.605336000" lon="-2.458824000">
        <ele>963.40</ele>
        <time>2016-10-15T07:41:20Z</time>
      </trkpt>
      <trkpt lat="42.605357000" lon="-2.458812000">
        <ele>963.60</ele>
        <time>2016-10-15T07:41:21Z</time>
      </trkpt>
      <trkpt lat="42.605377000" lon="-2.458796000">
        <ele>963.80</ele>
        <time>2016-10-15T07:41:22Z</time>
      </trkpt>
      <trkpt lat="42.605399000" lon="-2.458778000">
        <ele>963.90</ele>
        <time>2016-10-15T07:41:23Z</time>
      </trkpt>
      <trkpt lat="42.605421000" lon="-2.458760000">
        <ele>964.00</ele>
        <time>2016-10-15T07:41:24Z</time>
      </trkpt>
      <trkpt lat="42.605442000" lon="-2.458744000">
        <ele>964.10</ele>
        <time>2016-10-15T07:41:25Z</time>
      </trkpt>
      <trkpt lat="42.605462000" lon="-2.458725000">
        <ele>964.10</ele>
        <time>2016-10-15T07:41:26Z</time>
      </trkpt>
      <trkpt lat="42.605483000" lon="-2.458701000">
        <ele>964.10</ele>
        <time>2016-10-15T07:41:27Z</time>
      </trkpt>
      <trkpt lat="42.605505000" lon="-2.458681000">
        <ele>964.10</ele>
        <time>2016-10-15T07:41:28Z</time>
      </trkpt>
      <trkpt lat="42.605530000" lon="-2.458662000">
        <ele>964.10</ele>
        <time>2016-10-15T07:41:29Z</time>
      </trkpt>
      <trkpt lat="42.605554000" lon="-2.458643000">
        <ele>964.00</ele>
        <time>2016-10-15T07:41:30Z</time>
      </trkpt>
      <trkpt lat="42.605577000" lon="-2.458625000">
        <ele>964.10</ele>
        <time>2016-10-15T07:41:31Z</time>
      </trkpt>
      <trkpt lat="42.605600000" lon="-2.458606000">
        <ele>964.10</ele>
        <time>2016-10-15T07:41:32Z</time>
      </trkpt>
      <trkpt lat="42.605624000" lon="-2.458582000">
        <ele>964.20</ele>
        <time>2016-10-15T07:41:33Z</time>
      </trkpt>
      <trkpt lat="42.605650000" lon="-2.458564000">
        <ele>964.20</ele>
        <time>2016-10-15T07:41:34Z</time>
      </trkpt>
      <trkpt lat="42.605673000" lon="-2.458547000">
        <ele>964.10</ele>
        <time>2016-10-15T07:41:35Z</time>
      </trkpt>
      <trkpt lat="42.605697000" lon="-2.458530000">
        <ele>964.10</ele>
        <time>2016-10-15T07:41:36Z</time>
      </trkpt>
      <trkpt lat="42.605720000" lon="-2.458516000">
        <ele>964.00</ele>
        <time>2016-10-15T07:41:37Z</time>
      </trkpt>
      <trkpt lat="42.605742000" lon="-2.458508000">
        <ele>964.00</ele>
        <time>2016-10-15T07:41:38Z</time>
      </trkpt>
      <trkpt lat="42.605768000" lon="-2.458497000">
        <ele>964.10</ele>
        <time>2016-10-15T07:41:39Z</time>
      </trkpt>
      <trkpt lat="42.605793000" lon="-2.458487000">
        <ele>964.10</ele>
        <time>2016-10-15T07:41:40Z</time>
      </trkpt>
      <trkpt lat="42.605820000" lon="-2.458481000">
        <ele>964.20</ele>
        <time>2016-10-15T07:41:41Z</time>
      </trkpt>
      <trkpt lat="42.605843000" lon="-2.458468000">
        <ele>964.30</ele>
        <time>2016-10-15T07:41:42Z</time>
      </trkpt>
      <trkpt lat="42.605865000" lon="-2.458452000">
        <ele>964.30</ele>
        <time>2016-10-15T07:41:43Z</time>
      </trkpt>
      <trkpt lat="42.605888000" lon="-2.458442000">
        <ele>964.30</ele>
        <time>2016-10-15T07:41:44Z</time>
      </trkpt>
      <trkpt lat="42.605909000" lon="-2.458431000">
        <ele>964.40</ele>
        <time>2016-10-15T07:41:45Z</time>
      </trkpt>
      <trkpt lat="42.605931000" lon="-2.458414000">
        <ele>964.40</ele>
        <time>2016-10-15T07:41:46Z</time>
      </trkpt>
      <trkpt lat="42.605950000" lon="-2.458395000">
        <ele>964.40</ele>
        <time>2016-10-15T07:41:47Z</time>
      </trkpt>
      <trkpt lat="42.605969000" lon="-2.458382000">
        <ele>964.40</ele>
        <time>2016-10-15T07:41:48Z</time>
      </trkpt>
      <trkpt lat="42.605986000" lon="-2.458362000">
        <ele>964.50</ele>
        <time>2016-10-15T07:41:49Z</time>
      </trkpt>
      <trkpt lat="42.606007000" lon="-2.458350000">
        <ele>964.50</ele>
        <time>2016-10-15T07:41:50Z</time>
      </trkpt>
      <trkpt lat="42.606025000" lon="-2.458338000">
        <ele>964.60</ele>
        <time>2016-10-15T07:41:51Z</time>
      </trkpt>
      <trkpt lat="42.606041000" lon="-2.458318000">
        <ele>964.70</ele>
        <time>2016-10-15T07:41:52Z</time>
      </trkpt>
      <trkpt lat="42.606054000" lon="-2.458301000">
        <ele>965.00</ele>
        <time>2016-10-15T07:41:53Z</time>
      </trkpt>
      <trkpt lat="42.606066000" lon="-2.458286000">
        <ele>965.20</ele>
        <time>2016-10-15T07:41:54Z</time>
      </trkpt>
      <trkpt lat="42.606077000" lon="-2.458264000">
        <ele>965.30</ele>
        <time>2016-10-15T07:41:55Z</time>
      </trkpt>
      <trkpt lat="42.606100000" lon="-2.458218000">
        <ele>965.70</ele>
        <time>2016-10-15T07:41:57Z</time>
      </trkpt>
      <trkpt lat="42.606113000" lon="-2.458196000">
        <ele>965.80</ele>
        <time>2016-10-15T07:41:58Z</time>
      </trkpt>
      <trkpt lat="42.606123000" lon="-2.458172000">
        <ele>965.90</ele>
        <time>2016-10-15T07:41:59Z</time>
      </trkpt>
      <trkpt lat="42.606136000" lon="-2.458142000">
        <ele>966.00</ele>
        <time>2016-10-15T07:42:00Z</time>
      </trkpt>
      <trkpt lat="42.606148000" lon="-2.458110000">
        <ele>966.00</ele>
        <time>2016-10-15T07:42:01Z</time>
      </trkpt>
      <trkpt lat="42.606159000" lon="-2.458076000">
        <ele>966.00</ele>
        <time>2016-10-15T07:42:02Z</time>
      </trkpt>
      <trkpt lat="42.606170000" lon="-2.458041000">
        <ele>966.00</ele>
        <time>2016-10-15T07:42:03Z</time>
      </trkpt>
      <trkpt lat="42.606180000" lon="-2.458006000">
        <ele>965.90</ele>
        <time>2016-10-15T07:42:04Z</time>
      </trkpt>
      <trkpt lat="42.606190000" lon="-2.457971000">
        <ele>965.80</ele>
        <time>2016-10-15T07:42:05Z</time>
      </trkpt>
      <trkpt lat="42.606198000" lon="-2.457936000">
        <ele>965.80</ele>
        <time>2016-10-15T07:42:06Z</time>
      </trkpt>
      <trkpt lat="42.606207000" lon="-2.457904000">
        <ele>965.80</ele>
        <time>2016-10-15T07:42:07Z</time>
      </trkpt>
      <trkpt lat="42.606215000" lon="-2.457870000">
        <ele>965.80</ele>
        <time>2016-10-15T07:42:08Z</time>
      </trkpt>
      <trkpt lat="42.606221000" lon="-2.457836000">
        <ele>965.90</ele>
        <time>2016-10-15T07:42:09Z</time>
      </trkpt>
      <trkpt lat="42.606227000" lon="-2.457798000">
        <ele>965.90</ele>
        <time>2016-10-15T07:42:10Z</time>
      </trkpt>
      <trkpt lat="42.606232000" lon="-2.457753000">
        <ele>965.90</ele>
        <time>2016-10-15T07:42:11Z</time>
      </trkpt>
      <trkpt lat="42.606235000" lon="-2.457700000">
        <ele>965.90</ele>
        <time>2016-10-15T07:42:12Z</time>
      </trkpt>
      <trkpt lat="42.606239000" lon="-2.457650000">
        <ele>966.00</ele>
        <time>2016-10-15T07:42:13Z</time>
      </trkpt>
      <trkpt lat="42.606248000" lon="-2.457595000">
        <ele>966.00</ele>
        <time>2016-10-15T07:42:14Z</time>
      </trkpt>
      <trkpt lat="42.606254000" lon="-2.457543000">
        <ele>966.00</ele>
        <time>2016-10-15T07:42:15Z</time>
      </trkpt>
      <trkpt lat="42.606258000" lon="-2.457497000">
        <ele>966.00</ele>
        <time>2016-10-15T07:42:16Z</time>
      </trkpt>
      <trkpt lat="42.606265000" lon="-2.457448000">
        <ele>965.90</ele>
        <time>2016-10-15T07:42:17Z</time>
      </trkpt>
      <trkpt lat="42.606270000" lon="-2.457395000">
        <ele>965.80</ele>
        <time>2016-10-15T07:42:18Z</time>
      </trkpt>
      <trkpt lat="42.606280000" lon="-2.457348000">
        <ele>965.60</ele>
        <time>2016-10-15T07:42:19Z</time>
      </trkpt>
      <trkpt lat="42.606288000" lon="-2.457303000">
        <ele>965.50</ele>
        <time>2016-10-15T07:42:20Z</time>
      </trkpt>
      <trkpt lat="42.606296000" lon="-2.457264000">
        <ele>965.40</ele>
        <time>2016-10-15T07:42:21Z</time>
      </trkpt>
      <trkpt lat="42.606305000" lon="-2.457227000">
        <ele>965.40</ele>
        <time>2016-10-15T07:42:22Z</time>
      </trkpt>
      <trkpt lat="42.606313000" lon="-2.457193000">
        <ele>965.40</ele>
        <time>2016-10-15T07:42:23Z</time>
      </trkpt>
      <trkpt lat="42.606328000" lon="-2.457158000">
        <ele>965.50</ele>
        <time>2016-10-15T07:42:24Z</time>
      </trkpt>
      <trkpt lat="42.606343000" lon="-2.457121000">
        <ele>965.60</ele>
        <time>2016-10-15T07:42:25Z</time>
      </trkpt>
      <trkpt lat="42.606359000" lon="-2.457090000">
        <ele>965.70</ele>
        <time>2016-10-15T07:42:26Z</time>
      </trkpt>
      <trkpt lat="42.606376000" lon="-2.457058000">
        <ele>965.80</ele>
        <time>2016-10-15T07:42:27Z</time>
      </trkpt>
      <trkpt lat="42.606393000" lon="-2.457028000">
        <ele>965.90</ele>
        <time>2016-10-15T07:42:28Z</time>
      </trkpt>
      <trkpt lat="42.606408000" lon="-2.456995000">
        <ele>966.00</ele>
        <time>2016-10-15T07:42:29Z</time>
      </trkpt>
      <trkpt lat="42.606425000" lon="-2.456967000">
        <ele>966.00</ele>
        <time>2016-10-15T07:42:30Z</time>
      </trkpt>
      <trkpt lat="42.606440000" lon="-2.456941000">
        <ele>966.40</ele>
        <time>2016-10-15T07:42:31Z</time>
      </trkpt>
      <trkpt lat="42.606452000" lon="-2.456922000">
        <ele>966.60</ele>
        <time>2016-10-15T07:42:32Z</time>
      </trkpt>
      <trkpt lat="42.606467000" lon="-2.456897000">
        <ele>966.80</ele>
        <time>2016-10-15T07:42:33Z</time>
      </trkpt>
      <trkpt lat="42.606486000" lon="-2.456868000">
        <ele>967.00</ele>
        <time>2016-10-15T07:42:34Z</time>
      </trkpt>
      <trkpt lat="42.606506000" lon="-2.456841000">
        <ele>967.00</ele>
        <time>2016-10-15T07:42:35Z</time>
      </trkpt>
      <trkpt lat="42.606527000" lon="-2.456814000">
        <ele>967.00</ele>
        <time>2016-10-15T07:42:36Z</time>
      </trkpt>
      <trkpt lat="42.606546000" lon="-2.456787000">
        <ele>967.00</ele>
        <time>2016-10-15T07:42:37Z</time>
      </trkpt>
      <trkpt lat="42.606562000" lon="-2.456754000">
        <ele>967.10</ele>
        <time>2016-10-15T07:42:38Z</time>
      </trkpt>
      <trkpt lat="42.606581000" lon="-2.456724000">
        <ele>967.30</ele>
        <time>2016-10-15T07:42:39Z</time>
      </trkpt>
      <trkpt lat="42.606599000" lon="-2.456695000">
        <ele>967.40</ele>
        <time>2016-10-15T07:42:40Z</time>
      </trkpt>
      <trkpt lat="42.606618000" lon="-2.456663000">
        <ele>967.60</ele>
        <time>2016-10-15T07:42:41Z</time>
      </trkpt>
      <trkpt lat="42.606640000" lon="-2.456628000">
        <ele>967.70</ele>
        <time>2016-10-15T07:42:42Z</time>
      </trkpt>
      <trkpt lat="42.606658000" lon="-2.456594000">
        <ele>967.80</ele>
        <time>2016-10-15T07:42:43Z</time>
      </trkpt>
      <trkpt lat="42.606676000" lon="-2.456563000">
        <ele>967.80</ele>
        <time>2016-10-15T07:42:44Z</time>
      </trkpt>
      <trkpt lat="42.606693000" lon="-2.456530000">
        <ele>967.90</ele>
        <time>2016-10-15T07:42:45Z</time>
      </trkpt>
      <trkpt lat="42.606711000" lon="-2.456499000">
        <ele>967.90</ele>
        <time>2016-10-15T07:42:46Z</time>
      </trkpt>
      <trkpt lat="42.606723000" lon="-2.456465000">
        <ele>968.00</ele>
        <time>2016-10-15T07:42:47Z</time>
      </trkpt>
      <trkpt lat="42.606737000" lon="-2.456430000">
        <ele>968.10</ele>
        <time>2016-10-15T07:42:48Z</time>
      </trkpt>
      <trkpt lat="42.606748000" lon="-2.456399000">
        <ele>968.20</ele>
        <time>2016-10-15T07:42:49Z</time>
      </trkpt>
      <trkpt lat="42.606760000" lon="-2.456359000">
        <ele>968.40</ele>
        <time>2016-10-15T07:42:50Z</time>
      </trkpt>
      <trkpt lat="42.606769000" lon="-2.456328000">
        <ele>968.60</ele>
        <time>2016-10-15T07:42:51Z</time>
      </trkpt>
      <trkpt lat="42.606780000" lon="-2.456296000">
        <ele>968.70</ele>
        <time>2016-10-15T07:42:52Z</time>
      </trkpt>
      <trkpt lat="42.606787000" lon="-2.456264000">
        <ele>968.90</ele>
        <time>2016-10-15T07:42:53Z</time>
      </trkpt>
      <trkpt lat="42.606795000" lon="-2.456226000">
        <ele>968.90</ele>
        <time>2016-10-15T07:42:54Z</time>
      </trkpt>
      <trkpt lat="42.606803000" lon="-2.456193000">
        <ele>969.20</ele>
        <time>2016-10-15T07:42:55Z</time>
      </trkpt>
      <trkpt lat="42.606809000" lon="-2.456150000">
        <ele>969.50</ele>
        <time>2016-10-15T07:42:56Z</time>
      </trkpt>
      <trkpt lat="42.606821000" lon="-2.456117000">
        <ele>969.70</ele>
        <time>2016-10-15T07:42:57Z</time>
      </trkpt>
      <trkpt lat="42.606850000" lon="-2.456066000">
        <ele>970.00</ele>
        <time>2016-10-15T07:42:59Z</time>
      </trkpt>
      <trkpt lat="42.606865000" lon="-2.456033000">
        <ele>970.00</ele>
        <time>2016-10-15T07:43:00Z</time>
      </trkpt>
      <trkpt lat="42.606883000" lon="-2.456005000">
        <ele>970.10</ele>
        <time>2016-10-15T07:43:01Z</time>
      </trkpt>
      <trkpt lat="42.606898000" lon="-2.455975000">
        <ele>970.10</ele>
        <time>2016-10-15T07:43:02Z</time>
      </trkpt>
      <trkpt lat="42.606908000" lon="-2.455944000">
        <ele>970.10</ele>
        <time>2016-10-15T07:43:03Z</time>
      </trkpt>
      <trkpt lat="42.606918000" lon="-2.455915000">
        <ele>970.20</ele>
        <time>2016-10-15T07:43:04Z</time>
      </trkpt>
      <trkpt lat="42.606924000" lon="-2.455887000">
        <ele>970.30</ele>
        <time>2016-10-15T07:43:05Z</time>
      </trkpt>
      <trkpt lat="42.606930000" lon="-2.455857000">
        <ele>970.40</ele>
        <time>2016-10-15T07:43:06Z</time>
      </trkpt>
      <trkpt lat="42.606937000" lon="-2.455830000">
        <ele>970.90</ele>
        <time>2016-10-15T07:43:07Z</time>
      </trkpt>
      <trkpt lat="42.606945000" lon="-2.455802000">
        <ele>971.30</ele>
        <time>2016-10-15T07:43:08Z</time>
      </trkpt>
      <trkpt lat="42.606956000" lon="-2.455777000">
        <ele>971.60</ele>
        <time>2016-10-15T07:43:09Z</time>
      </trkpt>
      <trkpt lat="42.606966000" lon="-2.455749000">
        <ele>971.80</ele>
        <time>2016-10-15T07:43:10Z</time>
      </trkpt>
      <trkpt lat="42.606977000" lon="-2.455721000">
        <ele>972.10</ele>
        <time>2016-10-15T07:43:11Z</time>
      </trkpt>
      <trkpt lat="42.606985000" lon="-2.455695000">
        <ele>972.20</ele>
        <time>2016-10-15T07:43:12Z</time>
      </trkpt>
      <trkpt lat="42.606993000" lon="-2.455670000">
        <ele>972.40</ele>
        <time>2016-10-15T07:43:13Z</time>
      </trkpt>
      <trkpt lat="42.607001000" lon="-2.455649000">
        <ele>972.60</ele>
        <time>2016-10-15T07:43:14Z</time>
      </trkpt>
      <trkpt lat="42.607011000" lon="-2.455633000">
        <ele>972.70</ele>
        <time>2016-10-15T07:43:15Z</time>
      </trkpt>
      <trkpt lat="42.607023000" lon="-2.455614000">
        <ele>972.80</ele>
        <time>2016-10-15T07:43:16Z</time>
      </trkpt>
      <trkpt lat="42.607034000" lon="-2.455600000">
        <ele>972.90</ele>
        <time>2016-10-15T07:43:17Z</time>
      </trkpt>
      <trkpt lat="42.607038000" lon="-2.455586000">
        <ele>973.00</ele>
        <time>2016-10-15T07:43:18Z</time>
      </trkpt>
      <trkpt lat="42.607039000" lon="-2.455571000">
        <ele>973.20</ele>
        <time>2016-10-15T07:43:19Z</time>
      </trkpt>
      <trkpt lat="42.607039000" lon="-2.455553000">
        <ele>973.30</ele>
        <time>2016-10-15T07:43:20Z</time>
      </trkpt>
      <trkpt lat="42.607040000" lon="-2.455534000">
        <ele>973.50</ele>
        <time>2016-10-15T07:43:21Z</time>
      </trkpt>
      <trkpt lat="42.607039000" lon="-2.455524000">
        <ele>973.60</ele>
        <time>2016-10-15T07:43:22Z</time>
      </trkpt>
      <trkpt lat="42.607041000" lon="-2.455516000">
        <ele>973.80</ele>
        <time>2016-10-15T07:43:23Z</time>
      </trkpt>
      <trkpt lat="42.607040000" lon="-2.455507000">
        <ele>974.00</ele>
        <time>2016-10-15T07:43:24Z</time>
      </trkpt>
      <trkpt lat="42.607045000" lon="-2.455499000">
        <ele>974.00</ele>
        <time>2016-10-15T07:43:25Z</time>
      </trkpt>
      <trkpt lat="42.607051000" lon="-2.455491000">
        <ele>974.00</ele>
        <time>2016-10-15T07:43:26Z</time>
      </trkpt>
      <trkpt lat="42.607054000" lon="-2.455474000">
        <ele>974.00</ele>
        <time>2016-10-15T07:43:27Z</time>
      </trkpt>
      <trkpt lat="42.607061000" lon="-2.455459000">
        <ele>974.00</ele>
        <time>2016-10-15T07:43:28Z</time>
      </trkpt>
      <trkpt lat="42.607071000" lon="-2.455433000">
        <ele>973.90</ele>
        <time>2016-10-15T07:43:29Z</time>
      </trkpt>
      <trkpt lat="42.607087000" lon="-2.455397000">
        <ele>973.90</ele>
        <time>2016-10-15T07:43:30Z</time>
      </trkpt>
      <trkpt lat="42.607116000" lon="-2.455363000">
        <ele>973.80</ele>
        <time>2016-10-15T07:43:31Z</time>
      </trkpt>
      <trkpt lat="42.607148000" lon="-2.455327000">
        <ele>973.80</ele>
        <time>2016-10-15T07:43:32Z</time>
      </trkpt>
      <trkpt lat="42.607174000" lon="-2.455285000">
        <ele>973.50</ele>
        <time>2016-10-15T07:43:33Z</time>
      </trkpt>
      <trkpt lat="42.607194000" lon="-2.455244000">
        <ele>973.40</ele>
        <time>2016-10-15T07:43:34Z</time>
      </trkpt>
      <trkpt lat="42.607211000" lon="-2.455213000">
        <ele>973.10</ele>
        <time>2016-10-15T07:43:35Z</time>
      </trkpt>
      <trkpt lat="42.607225000" lon="-2.455185000">
        <ele>972.90</ele>
        <time>2016-10-15T07:43:36Z</time>
      </trkpt>
      <trkpt lat="42.607242000" lon="-2.455154000">
        <ele>972.40</ele>
        <time>2016-10-15T07:43:37Z</time>
      </trkpt>
      <trkpt lat="42.607256000" lon="-2.455121000">
        <ele>972.10</ele>
        <time>2016-10-15T07:43:38Z</time>
      </trkpt>
      <trkpt lat="42.607267000" lon="-2.455091000">
        <ele>971.90</ele>
        <time>2016-10-15T07:43:39Z</time>
      </trkpt>
      <trkpt lat="42.607280000" lon="-2.455062000">
        <ele>971.70</ele>
        <time>2016-10-15T07:43:40Z</time>
      </trkpt>
      <trkpt lat="42.607291000" lon="-2.455032000">
        <ele>971.50</ele>
        <time>2016-10-15T07:43:41Z</time>
      </trkpt>
      <trkpt lat="42.607306000" lon="-2.455000000">
        <ele>971.30</ele>
        <time>2016-10-15T07:43:42Z</time>
      </trkpt>
      <trkpt lat="42.607318000" lon="-2.454963000">
        <ele>971.30</ele>
        <time>2016-10-15T07:43:43Z</time>
      </trkpt>
      <trkpt lat="42.607330000" lon="-2.454924000">
        <ele>971.30</ele>
        <time>2016-10-15T07:43:44Z</time>
      </trkpt>
      <trkpt lat="42.607341000" lon="-2.454885000">
        <ele>971.10</ele>
        <time>2016-10-15T07:43:45Z</time>
      </trkpt>
      <trkpt lat="42.607351000" lon="-2.454841000">
        <ele>971.00</ele>
        <time>2016-10-15T07:43:46Z</time>
      </trkpt>
      <trkpt lat="42.607361000" lon="-2.454798000">
        <ele>970.80</ele>
        <time>2016-10-15T07:43:47Z</time>
      </trkpt>
      <trkpt lat="42.607371000" lon="-2.454757000">
        <ele>970.60</ele>
        <time>2016-10-15T07:43:48Z</time>
      </trkpt>
      <trkpt lat="42.607382000" lon="-2.454713000">
        <ele>970.50</ele>
        <time>2016-10-15T07:43:49Z</time>
      </trkpt>
      <trkpt lat="42.607400000" lon="-2.454670000">
        <ele>970.30</ele>
        <time>2016-10-15T07:43:50Z</time>
      </trkpt>
      <trkpt lat="42.607417000" lon="-2.454632000">
        <ele>970.30</ele>
        <time>2016-10-15T07:43:51Z</time>
      </trkpt>
      <trkpt lat="42.607435000" lon="-2.454592000">
        <ele>970.20</ele>
        <time>2016-10-15T07:43:52Z</time>
      </trkpt>
      <trkpt lat="42.607448000" lon="-2.454559000">
        <ele>970.20</ele>
        <time>2016-10-15T07:43:53Z</time>
      </trkpt>
      <trkpt lat="42.607455000" lon="-2.454525000">
        <ele>970.10</ele>
        <time>2016-10-15T07:43:54Z</time>
      </trkpt>
      <trkpt lat="42.607470000" lon="-2.454492000">
        <ele>969.80</ele>
        <time>2016-10-15T07:43:55Z</time>
      </trkpt>
      <trkpt lat="42.607482000" lon="-2.454449000">
        <ele>969.60</ele>
        <time>2016-10-15T07:43:56Z</time>
      </trkpt>
      <trkpt lat="42.607497000" lon="-2.454401000">
        <ele>969.20</ele>
        <time>2016-10-15T07:43:57Z</time>
      </trkpt>
      <trkpt lat="42.607518000" lon="-2.454353000">
        <ele>968.90</ele>
        <time>2016-10-15T07:43:58Z</time>
      </trkpt>
      <trkpt lat="42.607568000" lon="-2.454266000">
        <ele>968.50</ele>
        <time>2016-10-15T07:44:00Z</time>
      </trkpt>
      <trkpt lat="42.607588000" lon="-2.454219000">
        <ele>968.40</ele>
        <time>2016-10-15T07:44:01Z</time>
      </trkpt>
      <trkpt lat="42.607605000" lon="-2.454170000">
        <ele>968.30</ele>
        <time>2016-10-15T07:44:02Z</time>
      </trkpt>
      <trkpt lat="42.607619000" lon="-2.454122000">
        <ele>968.00</ele>
        <time>2016-10-15T07:44:03Z</time>
      </trkpt>
      <trkpt lat="42.607635000" lon="-2.454072000">
        <ele>967.80</ele>
        <time>2016-10-15T07:44:04Z</time>
      </trkpt>
      <trkpt lat="42.607650000" lon="-2.454022000">
        <ele>967.50</ele>
        <time>2016-10-15T07:44:05Z</time>
      </trkpt>
      <trkpt lat="42.607664000" lon="-2.453974000">
        <ele>967.20</ele>
        <time>2016-10-15T07:44:06Z</time>
      </trkpt>
      <trkpt lat="42.607675000" lon="-2.453927000">
        <ele>967.00</ele>
        <time>2016-10-15T07:44:07Z</time>
      </trkpt>
      <trkpt lat="42.607688000" lon="-2.453875000">
        <ele>966.90</ele>
        <time>2016-10-15T07:44:08Z</time>
      </trkpt>
      <trkpt lat="42.607698000" lon="-2.453821000">
        <ele>966.90</ele>
        <time>2016-10-15T07:44:09Z</time>
      </trkpt>
      <trkpt lat="42.607708000" lon="-2.453774000">
        <ele>966.90</ele>
        <time>2016-10-15T07:44:10Z</time>
      </trkpt>
      <trkpt lat="42.607719000" lon="-2.453736000">
        <ele>966.90</ele>
        <time>2016-10-15T07:44:11Z</time>
      </trkpt>
      <trkpt lat="42.607728000" lon="-2.453697000">
        <ele>966.90</ele>
        <time>2016-10-15T07:44:12Z</time>
      </trkpt>
      <trkpt lat="42.607734000" lon="-2.453660000">
        <ele>966.90</ele>
        <time>2016-10-15T07:44:13Z</time>
      </trkpt>
      <trkpt lat="42.607738000" lon="-2.453616000">
        <ele>967.00</ele>
        <time>2016-10-15T07:44:14Z</time>
      </trkpt>
      <trkpt lat="42.607743000" lon="-2.453574000">
        <ele>966.90</ele>
        <time>2016-10-15T07:44:15Z</time>
      </trkpt>
      <trkpt lat="42.607749000" lon="-2.453526000">
        <ele>966.80</ele>
        <time>2016-10-15T07:44:16Z</time>
      </trkpt>
      <trkpt lat="42.607757000" lon="-2.453486000">
        <ele>966.90</ele>
        <time>2016-10-15T07:44:17Z</time>
      </trkpt>
      <trkpt lat="42.607767000" lon="-2.453442000">
        <ele>966.90</ele>
        <time>2016-10-15T07:44:18Z</time>
      </trkpt>
      <trkpt lat="42.607777000" lon="-2.453398000">
        <ele>966.90</ele>
        <time>2016-10-15T07:44:19Z</time>
      </trkpt>
      <trkpt lat="42.607789000" lon="-2.453353000">
        <ele>966.90</ele>
        <time>2016-10-15T07:44:20Z</time>
      </trkpt>
      <trkpt lat="42.607800000" lon="-2.453306000">
        <ele>966.90</ele>
        <time>2016-10-15T07:44:21Z</time>
      </trkpt>
      <trkpt lat="42.607810000" lon="-2.453263000">
        <ele>966.80</ele>
        <time>2016-10-15T07:44:22Z</time>
      </trkpt>
      <trkpt lat="42.607819000" lon="-2.453219000">
        <ele>966.80</ele>
        <time>2016-10-15T07:44:23Z</time>
      </trkpt>
      <trkpt lat="42.607829000" lon="-2.453180000">
        <ele>966.80</ele>
        <time>2016-10-15T07:44:24Z</time>
      </trkpt>
      <trkpt lat="42.607839000" lon="-2.453136000">
        <ele>966.80</ele>
        <time>2016-10-15T07:44:25Z</time>
      </trkpt>
      <trkpt lat="42.607853000" lon="-2.453093000">
        <ele>966.70</ele>
        <time>2016-10-15T07:44:26Z</time>
      </trkpt>
      <trkpt lat="42.607866000" lon="-2.453048000">
        <ele>966.70</ele>
        <time>2016-10-15T07:44:27Z</time>
      </trkpt>
      <trkpt lat="42.607881000" lon="-2.453006000">
        <ele>966.70</ele>
        <time>2016-10-15T07:44:28Z</time>
      </trkpt>
      <trkpt lat="42.607900000" lon="-2.452965000">
        <ele>966.70</ele>
        <time>2016-10-15T07:44:29Z</time>
      </trkpt>
      <trkpt lat="42.607914000" lon="-2.452925000">
        <ele>966.70</ele>
        <time>2016-10-15T07:44:30Z</time>
      </trkpt>
      <trkpt lat="42.607926000" lon="-2.452886000">
        <ele>966.70</ele>
        <time>2016-10-15T07:44:31Z</time>
      </trkpt>
      <trkpt lat="42.607940000" lon="-2.452848000">
        <ele>966.70</ele>
        <time>2016-10-15T07:44:32Z</time>
      </trkpt>
      <trkpt lat="42.607951000" lon="-2.452814000">
        <ele>966.70</ele>
        <time>2016-10-15T07:44:33Z</time>
      </trkpt>
      <trkpt lat="42.607968000" lon="-2.452783000">
        <ele>966.70</ele>
        <time>2016-10-15T07:44:34Z</time>
      </trkpt>
      <trkpt lat="42.607980000" lon="-2.452748000">
        <ele>966.70</ele>
        <time>2016-10-15T07:44:35Z</time>
      </trkpt>
      <trkpt lat="42.607994000" lon="-2.452707000">
        <ele>966.70</ele>
        <time>2016-10-15T07:44:36Z</time>
      </trkpt>
      <trkpt lat="42.608005000" lon="-2.452669000">
        <ele>966.70</ele>
        <time>2016-10-15T07:44:37Z</time>
      </trkpt>
      <trkpt lat="42.608018000" lon="-2.452632000">
        <ele>966.70</ele>
        <time>2016-10-15T07:44:38Z</time>
      </trkpt>
      <trkpt lat="42.608031000" lon="-2.452596000">
        <ele>966.70</ele>
        <time>2016-10-15T07:44:39Z</time>
      </trkpt>
      <trkpt lat="42.608041000" lon="-2.452561000">
        <ele>966.70</ele>
        <time>2016-10-15T07:44:40Z</time>
      </trkpt>
      <trkpt lat="42.608052000" lon="-2.452524000">
        <ele>966.70</ele>
        <time>2016-10-15T07:44:41Z</time>
      </trkpt>
      <trkpt lat="42.608063000" lon="-2.452484000">
        <ele>966.70</ele>
        <time>2016-10-15T07:44:42Z</time>
      </trkpt>
      <trkpt lat="42.608076000" lon="-2.452447000">
        <ele>966.60</ele>
        <time>2016-10-15T07:44:43Z</time>
      </trkpt>
      <trkpt lat="42.608087000" lon="-2.452410000">
        <ele>966.60</ele>
        <time>2016-10-15T07:44:44Z</time>
      </trkpt>
      <trkpt lat="42.608097000" lon="-2.452372000">
        <ele>966.50</ele>
        <time>2016-10-15T07:44:45Z</time>
      </trkpt>
      <trkpt lat="42.608107000" lon="-2.452331000">
        <ele>966.50</ele>
        <time>2016-10-15T07:44:46Z</time>
      </trkpt>
      <trkpt lat="42.608116000" lon="-2.452293000">
        <ele>966.50</ele>
        <time>2016-10-15T07:44:47Z</time>
      </trkpt>
      <trkpt lat="42.608125000" lon="-2.452253000">
        <ele>966.50</ele>
        <time>2016-10-15T07:44:48Z</time>
      </trkpt>
      <trkpt lat="42.608133000" lon="-2.452219000">
        <ele>966.60</ele>
        <time>2016-10-15T07:44:49Z</time>
      </trkpt>
      <trkpt lat="42.608145000" lon="-2.452180000">
        <ele>966.70</ele>
        <time>2016-10-15T07:44:50Z</time>
      </trkpt>
      <trkpt lat="42.608158000" lon="-2.452146000">
        <ele>967.00</ele>
        <time>2016-10-15T07:44:51Z</time>
      </trkpt>
      <trkpt lat="42.608171000" lon="-2.452115000">
        <ele>967.10</ele>
        <time>2016-10-15T07:44:52Z</time>
      </trkpt>
      <trkpt lat="42.608185000" lon="-2.452082000">
        <ele>967.30</ele>
        <time>2016-10-15T07:44:53Z</time>
      </trkpt>
      <trkpt lat="42.608198000" lon="-2.452049000">
        <ele>967.40</ele>
        <time>2016-10-15T07:44:54Z</time>
      </trkpt>
      <trkpt lat="42.608208000" lon="-2.452014000">
        <ele>967.70</ele>
        <time>2016-10-15T07:44:55Z</time>
      </trkpt>
      <trkpt lat="42.608218000" lon="-2.451981000">
        <ele>967.80</ele>
        <time>2016-10-15T07:44:56Z</time>
      </trkpt>
      <trkpt lat="42.608227000" lon="-2.451946000">
        <ele>968.00</ele>
        <time>2016-10-15T07:44:57Z</time>
      </trkpt>
      <trkpt lat="42.608234000" lon="-2.451909000">
        <ele>968.10</ele>
        <time>2016-10-15T07:44:58Z</time>
      </trkpt>
      <trkpt lat="42.608240000" lon="-2.451878000">
        <ele>968.20</ele>
        <time>2016-10-15T07:44:59Z</time>
      </trkpt>
      <trkpt lat="42.608246000" lon="-2.451811000">
        <ele>968.60</ele>
        <time>2016-10-15T07:45:01Z</time>
      </trkpt>
      <trkpt lat="42.608249000" lon="-2.451778000">
        <ele>968.80</ele>
        <time>2016-10-15T07:45:02Z</time>
      </trkpt>
      <trkpt lat="42.608251000" lon="-2.451744000">
        <ele>969.00</ele>
        <time>2016-10-15T07:45:03Z</time>
      </trkpt>
      <trkpt lat="42.608251000" lon="-2.451712000">
        <ele>969.10</ele>
        <time>2016-10-15T07:45:04Z</time>
      </trkpt>
      <trkpt lat="42.608247000" lon="-2.451677000">
        <ele>969.20</ele>
        <time>2016-10-15T07:45:05Z</time>
      </trkpt>
      <trkpt lat="42.608242000" lon="-2.451649000">
        <ele>969.30</ele>
        <time>2016-10-15T07:45:06Z</time>
      </trkpt>
      <trkpt lat="42.608239000" lon="-2.451622000">
        <ele>969.40</ele>
        <time>2016-10-15T07:45:07Z</time>
      </trkpt>
      <trkpt lat="42.608237000" lon="-2.451587000">
        <ele>969.50</ele>
        <time>2016-10-15T07:45:08Z</time>
      </trkpt>
      <trkpt lat="42.608237000" lon="-2.451556000">
        <ele>969.70</ele>
        <time>2016-10-15T07:45:09Z</time>
      </trkpt>
      <trkpt lat="42.608242000" lon="-2.451523000">
        <ele>969.80</ele>
        <time>2016-10-15T07:45:10Z</time>
      </trkpt>
      <trkpt lat="42.608250000" lon="-2.451493000">
        <ele>969.90</ele>
        <time>2016-10-15T07:45:11Z</time>
      </trkpt>
      <trkpt lat="42.608257000" lon="-2.451457000">
        <ele>970.00</ele>
        <time>2016-10-15T07:45:12Z</time>
      </trkpt>
      <trkpt lat="42.608261000" lon="-2.451431000">
        <ele>970.30</ele>
        <time>2016-10-15T07:45:13Z</time>
      </trkpt>
      <trkpt lat="42.608263000" lon="-2.451403000">
        <ele>970.50</ele>
        <time>2016-10-15T07:45:14Z</time>
      </trkpt>
      <trkpt lat="42.608268000" lon="-2.451375000">
        <ele>970.70</ele>
        <time>2016-10-15T07:45:15Z</time>
      </trkpt>
      <trkpt lat="42.608267000" lon="-2.451344000">
        <ele>970.80</ele>
        <time>2016-10-15T07:45:16Z</time>
      </trkpt>
      <trkpt lat="42.608265000" lon="-2.451308000">
        <ele>970.90</ele>
        <time>2016-10-15T07:45:17Z</time>
      </trkpt>
      <trkpt lat="42.608270000" lon="-2.451274000">
        <ele>971.00</ele>
        <time>2016-10-15T07:45:18Z</time>
      </trkpt>
      <trkpt lat="42.608272000" lon="-2.451240000">
        <ele>971.10</ele>
        <time>2016-10-15T07:45:19Z</time>
      </trkpt>
      <trkpt lat="42.608272000" lon="-2.451202000">
        <ele>971.10</ele>
        <time>2016-10-15T07:45:20Z</time>
      </trkpt>
      <trkpt lat="42.608269000" lon="-2.451159000">
        <ele>971.20</ele>
        <time>2016-10-15T07:45:21Z</time>
      </trkpt>
      <trkpt lat="42.608261000" lon="-2.451113000">
        <ele>971.20</ele>
        <time>2016-10-15T07:45:22Z</time>
      </trkpt>
      <trkpt lat="42.608257000" lon="-2.451066000">
        <ele>971.00</ele>
        <time>2016-10-15T07:45:23Z</time>
      </trkpt>
      <trkpt lat="42.608256000" lon="-2.451018000">
        <ele>970.80</ele>
        <time>2016-10-15T07:45:24Z</time>
      </trkpt>
      <trkpt lat="42.608260000" lon="-2.450973000">
        <ele>970.70</ele>
        <time>2016-10-15T07:45:25Z</time>
      </trkpt>
      <trkpt lat="42.608266000" lon="-2.450931000">
        <ele>970.60</ele>
        <time>2016-10-15T07:45:26Z</time>
      </trkpt>
      <trkpt lat="42.608270000" lon="-2.450899000">
        <ele>970.50</ele>
        <time>2016-10-15T07:45:27Z</time>
      </trkpt>
      <trkpt lat="42.608278000" lon="-2.450873000">
        <ele>970.50</ele>
        <time>2016-10-15T07:45:28Z</time>
      </trkpt>
      <trkpt lat="42.608283000" lon="-2.450851000">
        <ele>970.30</ele>
        <time>2016-10-15T07:45:29Z</time>
      </trkpt>
      <trkpt lat="42.608290000" lon="-2.450828000">
        <ele>970.20</ele>
        <time>2016-10-15T07:45:30Z</time>
      </trkpt>
      <trkpt lat="42.608297000" lon="-2.450804000">
        <ele>970.10</ele>
        <time>2016-10-15T07:45:31Z</time>
      </trkpt>
      <trkpt lat="42.608306000" lon="-2.450780000">
        <ele>970.10</ele>
        <time>2016-10-15T07:45:32Z</time>
      </trkpt>
      <trkpt lat="42.608314000" lon="-2.450752000">
        <ele>970.00</ele>
        <time>2016-10-15T07:45:33Z</time>
      </trkpt>
      <trkpt lat="42.608324000" lon="-2.450728000">
        <ele>969.90</ele>
        <time>2016-10-15T07:45:34Z</time>
      </trkpt>
      <trkpt lat="42.608337000" lon="-2.450708000">
        <ele>969.80</ele>
        <time>2016-10-15T07:45:35Z</time>
      </trkpt>
      <trkpt lat="42.608347000" lon="-2.450686000">
        <ele>969.70</ele>
        <time>2016-10-15T07:45:36Z</time>
      </trkpt>
      <trkpt lat="42.608355000" lon="-2.450672000">
        <ele>969.70</ele>
        <time>2016-10-15T07:45:37Z</time>
      </trkpt>
      <trkpt lat="42.608364000" lon="-2.450651000">
        <ele>969.60</ele>
        <time>2016-10-15T07:45:38Z</time>
      </trkpt>
      <trkpt lat="42.608375000" lon="-2.450628000">
        <ele>969.60</ele>
        <time>2016-10-15T07:45:39Z</time>
      </trkpt>
      <trkpt lat="42.608383000" lon="-2.450619000">
        <ele>969.50</ele>
        <time>2016-10-15T07:45:40Z</time>
      </trkpt>
      <trkpt lat="42.608388000" lon="-2.450613000">
        <ele>969.50</ele>
        <time>2016-10-15T07:45:41Z</time>
      </trkpt>
      <trkpt lat="42.608390000" lon="-2.450611000">
        <ele>969.40</ele>
        <time>2016-10-15T07:45:42Z</time>
      </trkpt>
      <trkpt lat="42.608392000" lon="-2.450611000">
        <ele>969.40</ele>
        <time>2016-10-15T07:45:43Z</time>
      </trkpt>
      <trkpt lat="42.608393000" lon="-2.450609000">
        <ele>969.30</ele>
        <time>2016-10-15T07:45:44Z</time>
      </trkpt>
      <trkpt lat="42.608395000" lon="-2.450610000">
        <ele>969.30</ele>
        <time>2016-10-15T07:45:45Z</time>
      </trkpt>
      <trkpt lat="42.608397000" lon="-2.450608000">
        <ele>969.30</ele>
        <time>2016-10-15T07:45:46Z</time>
      </trkpt>
      <trkpt lat="42.608397000" lon="-2.450610000">
        <ele>969.30</ele>
        <time>2016-10-15T07:45:47Z</time>
      </trkpt>
      <trkpt lat="42.608397000" lon="-2.450609000">
        <ele>969.30</ele>
        <time>2016-10-15T07:45:48Z</time>
      </trkpt>
      <trkpt lat="42.608396000" lon="-2.450608000">
        <ele>969.20</ele>
        <time>2016-10-15T07:45:49Z</time>
      </trkpt>
      <trkpt lat="42.608395000" lon="-2.450606000">
        <ele>969.20</ele>
        <time>2016-10-15T07:45:50Z</time>
      </trkpt>
      <trkpt lat="42.608393000" lon="-2.450603000">
        <ele>969.10</ele>
        <time>2016-10-15T07:45:51Z</time>
      </trkpt>
      <trkpt lat="42.608390000" lon="-2.450601000">
        <ele>969.00</ele>
        <time>2016-10-15T07:45:52Z</time>
      </trkpt>
      <trkpt lat="42.608385000" lon="-2.450599000">
        <ele>968.90</ele>
        <time>2016-10-15T07:45:53Z</time>
      </trkpt>
      <trkpt lat="42.608382000" lon="-2.450596000">
        <ele>968.90</ele>
        <time>2016-10-15T07:45:54Z</time>
      </trkpt>
      <trkpt lat="42.608380000" lon="-2.450593000">
        <ele>968.90</ele>
        <time>2016-10-15T07:45:55Z</time>
      </trkpt>
      <trkpt lat="42.608382000" lon="-2.450591000">
        <ele>968.90</ele>
        <time>2016-10-15T07:45:56Z</time>
      </trkpt>
      <trkpt lat="42.608385000" lon="-2.450590000">
        <ele>968.90</ele>
        <time>2016-10-15T07:45:57Z</time>
      </trkpt>
      <trkpt lat="42.608387000" lon="-2.450590000">
        <ele>968.90</ele>
        <time>2016-10-15T07:45:58Z</time>
      </trkpt>
      <trkpt lat="42.608389000" lon="-2.450590000">
        <ele>968.80</ele>
        <time>2016-10-15T07:45:59Z</time>
      </trkpt>
      <trkpt lat="42.608391000" lon="-2.450594000">
        <ele>968.80</ele>
        <time>2016-10-15T07:46:00Z</time>
      </trkpt>
      <trkpt lat="42.608394000" lon="-2.450597000">
        <ele>968.80</ele>
        <time>2016-10-15T07:46:01Z</time>
      </trkpt>
      <trkpt lat="42.608400000" lon="-2.450594000">
        <ele>968.80</ele>
        <time>2016-10-15T07:46:03Z</time>
      </trkpt>
      <trkpt lat="42.608401000" lon="-2.450591000">
        <ele>968.80</ele>
        <time>2016-10-15T07:46:04Z</time>
      </trkpt>
      <trkpt lat="42.608405000" lon="-2.450589000">
        <ele>968.70</ele>
        <time>2016-10-15T07:46:05Z</time>
      </trkpt>
      <trkpt lat="42.608406000" lon="-2.450589000">
        <ele>968.70</ele>
        <time>2016-10-15T07:46:06Z</time>
      </trkpt>
      <trkpt lat="42.608404000" lon="-2.450590000">
        <ele>968.70</ele>
        <time>2016-10-15T07:46:07Z</time>
      </trkpt>
      <trkpt lat="42.608400000" lon="-2.450590000">
        <ele>968.60</ele>
        <time>2016-10-15T07:46:08Z</time>
      </trkpt>
      <trkpt lat="42.608396000" lon="-2.450589000">
        <ele>968.70</ele>
        <time>2016-10-15T07:46:09Z</time>
      </trkpt>
      <trkpt lat="42.608392000" lon="-2.450590000">
        <ele>968.70</ele>
        <time>2016-10-15T07:46:10Z</time>
      </trkpt>
      <trkpt lat="42.608391000" lon="-2.450589000">
        <ele>968.80</ele>
        <time>2016-10-15T07:46:11Z</time>
      </trkpt>
      <trkpt lat="42.608391000" lon="-2.450590000">
        <ele>968.80</ele>
        <time>2016-10-15T07:46:12Z</time>
      </trkpt>
      <trkpt lat="42.608389000" lon="-2.450593000">
        <ele>968.90</ele>
        <time>2016-10-15T07:46:13Z</time>
      </trkpt>
      <trkpt lat="42.608388000" lon="-2.450596000">
        <ele>969.00</ele>
        <time>2016-10-15T07:46:14Z</time>
      </trkpt>
      <trkpt lat="42.608386000" lon="-2.450597000">
        <ele>969.10</ele>
        <time>2016-10-15T07:46:15Z</time>
      </trkpt>
      <trkpt lat="42.608384000" lon="-2.450597000">
        <ele>969.10</ele>
        <time>2016-10-15T07:46:16Z</time>
      </trkpt>
      <trkpt lat="42.608383000" lon="-2.450596000">
        <ele>969.10</ele>
        <time>2016-10-15T07:46:17Z</time>
      </trkpt>
      <trkpt lat="42.608384000" lon="-2.450594000">
        <ele>969.10</ele>
        <time>2016-10-15T07:46:18Z</time>
      </trkpt>
      <trkpt lat="42.608386000" lon="-2.450593000">
        <ele>969.10</ele>
        <time>2016-10-15T07:46:19Z</time>
      </trkpt>
      <trkpt lat="42.608387000" lon="-2.450593000">
        <ele>969.10</ele>
        <time>2016-10-15T07:46:20Z</time>
      </trkpt>
      <trkpt lat="42.608393000" lon="-2.450583000">
        <ele>969.10</ele>
        <time>2016-10-15T07:46:21Z</time>
      </trkpt>
      <trkpt lat="42.608405000" lon="-2.450561000">
        <ele>969.10</ele>
        <time>2016-10-15T07:46:22Z</time>
      </trkpt>
      <trkpt lat="42.608417000" lon="-2.450537000">
        <ele>969.20</ele>
        <time>2016-10-15T07:46:23Z</time>
      </trkpt>
      <trkpt lat="42.608430000" lon="-2.450517000">
        <ele>969.20</ele>
        <time>2016-10-15T07:46:24Z</time>
      </trkpt>
      <trkpt lat="42.608450000" lon="-2.450505000">
        <ele>969.10</ele>
        <time>2016-10-15T07:46:25Z</time>
      </trkpt>
      <trkpt lat="42.608469000" lon="-2.450481000">
        <ele>969.00</ele>
        <time>2016-10-15T07:46:26Z</time>
      </trkpt>
      <trkpt lat="42.608491000" lon="-2.450456000">
        <ele>968.80</ele>
        <time>2016-10-15T07:46:27Z</time>
      </trkpt>
      <trkpt lat="42.608513000" lon="-2.450428000">
        <ele>968.70</ele>
        <time>2016-10-15T07:46:28Z</time>
      </trkpt>
      <trkpt lat="42.608541000" lon="-2.450396000">
        <ele>968.40</ele>
        <time>2016-10-15T07:46:29Z</time>
      </trkpt>
      <trkpt lat="42.608571000" lon="-2.450365000">
        <ele>968.20</ele>
        <time>2016-10-15T07:46:30Z</time>
      </trkpt>
      <trkpt lat="42.608601000" lon="-2.450332000">
        <ele>968.00</ele>
        <time>2016-10-15T07:46:31Z</time>
      </trkpt>
      <trkpt lat="42.608630000" lon="-2.450299000">
        <ele>967.80</ele>
        <time>2016-10-15T07:46:32Z</time>
      </trkpt>
      <trkpt lat="42.608655000" lon="-2.450266000">
        <ele>967.50</ele>
        <time>2016-10-15T07:46:33Z</time>
      </trkpt>
      <trkpt lat="42.608683000" lon="-2.450224000">
        <ele>967.30</ele>
        <time>2016-10-15T07:46:34Z</time>
      </trkpt>
      <trkpt lat="42.608709000" lon="-2.450171000">
        <ele>967.00</ele>
        <time>2016-10-15T07:46:35Z</time>
      </trkpt>
      <trkpt lat="42.608728000" lon="-2.450116000">
        <ele>966.80</ele>
        <time>2016-10-15T07:46:36Z</time>
      </trkpt>
      <trkpt lat="42.608747000" lon="-2.450058000">
        <ele>966.60</ele>
        <time>2016-10-15T07:46:37Z</time>
      </trkpt>
      <trkpt lat="42.608769000" lon="-2.450007000">
        <ele>966.40</ele>
        <time>2016-10-15T07:46:38Z</time>
      </trkpt>
      <trkpt lat="42.608787000" lon="-2.449961000">
        <ele>966.10</ele>
        <time>2016-10-15T07:46:39Z</time>
      </trkpt>
      <trkpt lat="42.608803000" lon="-2.449920000">
        <ele>965.80</ele>
        <time>2016-10-15T07:46:40Z</time>
      </trkpt>
      <trkpt lat="42.608821000" lon="-2.449880000">
        <ele>965.70</ele>
        <time>2016-10-15T07:46:41Z</time>
      </trkpt>
      <trkpt lat="42.608836000" lon="-2.449840000">
        <ele>965.50</ele>
        <time>2016-10-15T07:46:42Z</time>
      </trkpt>
      <trkpt lat="42.608853000" lon="-2.449797000">
        <ele>965.40</ele>
        <time>2016-10-15T07:46:43Z</time>
      </trkpt>
      <trkpt lat="42.608866000" lon="-2.449754000">
        <ele>965.30</ele>
        <time>2016-10-15T07:46:44Z</time>
      </trkpt>
      <trkpt lat="42.608879000" lon="-2.449714000">
        <ele>965.30</ele>
        <time>2016-10-15T07:46:45Z</time>
      </trkpt>
      <trkpt lat="42.608887000" lon="-2.449680000">
        <ele>965.30</ele>
        <time>2016-10-15T07:46:46Z</time>
      </trkpt>
      <trkpt lat="42.608896000" lon="-2.449645000">
        <ele>965.50</ele>
        <time>2016-10-15T07:46:47Z</time>
      </trkpt>
      <trkpt lat="42.608904000" lon="-2.449610000">
        <ele>965.70</ele>
        <time>2016-10-15T07:46:48Z</time>
      </trkpt>
      <trkpt lat="42.608910000" lon="-2.449572000">
        <ele>965.80</ele>
        <time>2016-10-15T07:46:49Z</time>
      </trkpt>
      <trkpt lat="42.608913000" lon="-2.449534000">
        <ele>965.90</ele>
        <time>2016-10-15T07:46:50Z</time>
      </trkpt>
      <trkpt lat="42.608921000" lon="-2.449495000">
        <ele>966.00</ele>
        <time>2016-10-15T07:46:51Z</time>
      </trkpt>
      <trkpt lat="42.608928000" lon="-2.449458000">
        <ele>966.00</ele>
        <time>2016-10-15T07:46:52Z</time>
      </trkpt>
      <trkpt lat="42.608934000" lon="-2.449414000">
        <ele>966.20</ele>
        <time>2016-10-15T07:46:53Z</time>
      </trkpt>
      <trkpt lat="42.608938000" lon="-2.449371000">
        <ele>966.20</ele>
        <time>2016-10-15T07:46:54Z</time>
      </trkpt>
      <trkpt lat="42.608946000" lon="-2.449341000">
        <ele>966.30</ele>
        <time>2016-10-15T07:46:55Z</time>
      </trkpt>
      <trkpt lat="42.608952000" lon="-2.449308000">
        <ele>966.30</ele>
        <time>2016-10-15T07:46:56Z</time>
      </trkpt>
      <trkpt lat="42.608958000" lon="-2.449276000">
        <ele>966.30</ele>
        <time>2016-10-15T07:46:57Z</time>
      </trkpt>
      <trkpt lat="42.608964000" lon="-2.449243000">
        <ele>966.20</ele>
        <time>2016-10-15T07:46:58Z</time>
      </trkpt>
      <trkpt lat="42.608974000" lon="-2.449207000">
        <ele>966.20</ele>
        <time>2016-10-15T07:46:59Z</time>
      </trkpt>
      <trkpt lat="42.608985000" lon="-2.449172000">
        <ele>966.10</ele>
        <time>2016-10-15T07:47:00Z</time>
      </trkpt>
      <trkpt lat="42.608999000" lon="-2.449133000">
        <ele>966.00</ele>
        <time>2016-10-15T07:47:01Z</time>
      </trkpt>
      <trkpt lat="42.609013000" lon="-2.449089000">
        <ele>966.00</ele>
        <time>2016-10-15T07:47:02Z</time>
      </trkpt>
      <trkpt lat="42.609030000" lon="-2.449045000">
        <ele>965.90</ele>
        <time>2016-10-15T07:47:03Z</time>
      </trkpt>
      <trkpt lat="42.609068000" lon="-2.448947000">
        <ele>965.80</ele>
        <time>2016-10-15T07:47:05Z</time>
      </trkpt>
      <trkpt lat="42.609084000" lon="-2.448891000">
        <ele>965.70</ele>
        <time>2016-10-15T07:47:06Z</time>
      </trkpt>
      <trkpt lat="42.609099000" lon="-2.448830000">
        <ele>965.40</ele>
        <time>2016-10-15T07:47:07Z</time>
      </trkpt>
      <trkpt lat="42.609124000" lon="-2.448765000">
        <ele>965.10</ele>
        <time>2016-10-15T07:47:08Z</time>
      </trkpt>
      <trkpt lat="42.609153000" lon="-2.448699000">
        <ele>964.80</ele>
        <time>2016-10-15T07:47:09Z</time>
      </trkpt>
      <trkpt lat="42.609176000" lon="-2.448634000">
        <ele>964.60</ele>
        <time>2016-10-15T07:47:10Z</time>
      </trkpt>
      <trkpt lat="42.609198000" lon="-2.448580000">
        <ele>963.90</ele>
        <time>2016-10-15T07:47:11Z</time>
      </trkpt>
      <trkpt lat="42.609213000" lon="-2.448528000">
        <ele>963.50</ele>
        <time>2016-10-15T07:47:12Z</time>
      </trkpt>
      <trkpt lat="42.609231000" lon="-2.448471000">
        <ele>962.80</ele>
        <time>2016-10-15T07:47:13Z</time>
      </trkpt>
      <trkpt lat="42.609250000" lon="-2.448412000">
        <ele>962.30</ele>
        <time>2016-10-15T07:47:14Z</time>
      </trkpt>
      <trkpt lat="42.609271000" lon="-2.448343000">
        <ele>961.90</ele>
        <time>2016-10-15T07:47:15Z</time>
      </trkpt>
      <trkpt lat="42.609292000" lon="-2.448284000">
        <ele>961.60</ele>
        <time>2016-10-15T07:47:16Z</time>
      </trkpt>
      <trkpt lat="42.609317000" lon="-2.448226000">
        <ele>961.30</ele>
        <time>2016-10-15T07:47:17Z</time>
      </trkpt>
      <trkpt lat="42.609341000" lon="-2.448157000">
        <ele>961.00</ele>
        <time>2016-10-15T07:47:18Z</time>
      </trkpt>
      <trkpt lat="42.609366000" lon="-2.448092000">
        <ele>960.20</ele>
        <time>2016-10-15T07:47:19Z</time>
      </trkpt>
      <trkpt lat="42.609391000" lon="-2.448028000">
        <ele>959.60</ele>
        <time>2016-10-15T07:47:20Z</time>
      </trkpt>
      <trkpt lat="42.609416000" lon="-2.447967000">
        <ele>959.10</ele>
        <time>2016-10-15T07:47:21Z</time>
      </trkpt>
      <trkpt lat="42.609442000" lon="-2.447913000">
        <ele>958.70</ele>
        <time>2016-10-15T07:47:22Z</time>
      </trkpt>
      <trkpt lat="42.609473000" lon="-2.447851000">
        <ele>958.20</ele>
        <time>2016-10-15T07:47:23Z</time>
      </trkpt>
      <trkpt lat="42.609511000" lon="-2.447793000">
        <ele>957.90</ele>
        <time>2016-10-15T07:47:24Z</time>
      </trkpt>
      <trkpt lat="42.609546000" lon="-2.447742000">
        <ele>957.20</ele>
        <time>2016-10-15T07:47:25Z</time>
      </trkpt>
      <trkpt lat="42.609570000" lon="-2.447709000">
        <ele>956.70</ele>
        <time>2016-10-15T07:47:26Z</time>
      </trkpt>
      <trkpt lat="42.609591000" lon="-2.447679000">
        <ele>956.00</ele>
        <time>2016-10-15T07:47:27Z</time>
      </trkpt>
      <trkpt lat="42.609611000" lon="-2.447656000">
        <ele>955.60</ele>
        <time>2016-10-15T07:47:28Z</time>
      </trkpt>
      <trkpt lat="42.609620000" lon="-2.447653000">
        <ele>955.20</ele>
        <time>2016-10-15T07:47:29Z</time>
      </trkpt>
      <trkpt lat="42.609623000" lon="-2.447646000">
        <ele>954.90</ele>
        <time>2016-10-15T07:47:30Z</time>
      </trkpt>
      <trkpt lat="42.609628000" lon="-2.447641000">
        <ele>954.70</ele>
        <time>2016-10-15T07:47:31Z</time>
      </trkpt>
      <trkpt lat="42.609632000" lon="-2.447631000">
        <ele>954.60</ele>
        <time>2016-10-15T07:47:32Z</time>
      </trkpt>
      <trkpt lat="42.609642000" lon="-2.447620000">
        <ele>954.50</ele>
        <time>2016-10-15T07:47:33Z</time>
      </trkpt>
      <trkpt lat="42.609650000" lon="-2.447609000">
        <ele>954.40</ele>
        <time>2016-10-15T07:47:34Z</time>
      </trkpt>
      <trkpt lat="42.609658000" lon="-2.447601000">
        <ele>954.40</ele>
        <time>2016-10-15T07:47:35Z</time>
      </trkpt>
      <trkpt lat="42.609665000" lon="-2.447596000">
        <ele>954.30</ele>
        <time>2016-10-15T07:47:36Z</time>
      </trkpt>
      <trkpt lat="42.609673000" lon="-2.447578000">
        <ele>954.20</ele>
        <time>2016-10-15T07:47:37Z</time>
      </trkpt>
      <trkpt lat="42.609679000" lon="-2.447573000">
        <ele>954.10</ele>
        <time>2016-10-15T07:47:38Z</time>
      </trkpt>
      <trkpt lat="42.609689000" lon="-2.447562000">
        <ele>954.00</ele>
        <time>2016-10-15T07:47:39Z</time>
      </trkpt>
      <trkpt lat="42.609697000" lon="-2.447557000">
        <ele>953.90</ele>
        <time>2016-10-15T07:47:40Z</time>
      </trkpt>
      <trkpt lat="42.609704000" lon="-2.447552000">
        <ele>953.90</ele>
        <time>2016-10-15T07:47:41Z</time>
      </trkpt>
      <trkpt lat="42.609710000" lon="-2.447540000">
        <ele>953.80</ele>
        <time>2016-10-15T07:47:42Z</time>
      </trkpt>
      <trkpt lat="42.609716000" lon="-2.447522000">
        <ele>953.90</ele>
        <time>2016-10-15T07:47:43Z</time>
      </trkpt>
      <trkpt lat="42.609721000" lon="-2.447513000">
        <ele>953.90</ele>
        <time>2016-10-15T07:47:44Z</time>
      </trkpt>
      <trkpt lat="42.609726000" lon="-2.447502000">
        <ele>954.00</ele>
        <time>2016-10-15T07:47:45Z</time>
      </trkpt>
      <trkpt lat="42.609735000" lon="-2.447492000">
        <ele>954.00</ele>
        <time>2016-10-15T07:47:46Z</time>
      </trkpt>
      <trkpt lat="42.609741000" lon="-2.447482000">
        <ele>954.00</ele>
        <time>2016-10-15T07:47:47Z</time>
      </trkpt>
      <trkpt lat="42.609745000" lon="-2.447472000">
        <ele>954.00</ele>
        <time>2016-10-15T07:47:48Z</time>
      </trkpt>
      <trkpt lat="42.609752000" lon="-2.447465000">
        <ele>954.10</ele>
        <time>2016-10-15T07:47:49Z</time>
      </trkpt>
      <trkpt lat="42.609759000" lon="-2.447449000">
        <ele>954.20</ele>
        <time>2016-10-15T07:47:50Z</time>
      </trkpt>
      <trkpt lat="42.609772000" lon="-2.447437000">
        <ele>954.30</ele>
        <time>2016-10-15T07:47:51Z</time>
      </trkpt>
      <trkpt lat="42.609787000" lon="-2.447414000">
        <ele>954.40</ele>
        <time>2016-10-15T07:47:52Z</time>
      </trkpt>
      <trkpt lat="42.609799000" lon="-2.447385000">
        <ele>954.50</ele>
        <time>2016-10-15T07:47:53Z</time>
      </trkpt>
      <trkpt lat="42.609808000" lon="-2.447363000">
        <ele>954.60</ele>
        <time>2016-10-15T07:47:54Z</time>
      </trkpt>
      <trkpt lat="42.609821000" lon="-2.447327000">
        <ele>954.60</ele>
        <time>2016-10-15T07:47:55Z</time>
      </trkpt>
      <trkpt lat="42.609837000" lon="-2.447292000">
        <ele>954.60</ele>
        <time>2016-10-15T07:47:56Z</time>
      </trkpt>
      <trkpt lat="42.609850000" lon="-2.447261000">
        <ele>954.70</ele>
        <time>2016-10-15T07:47:57Z</time>
      </trkpt>
      <trkpt lat="42.609864000" lon="-2.447233000">
        <ele>954.70</ele>
        <time>2016-10-15T07:47:58Z</time>
      </trkpt>
      <trkpt lat="42.609880000" lon="-2.447204000">
        <ele>954.70</ele>
        <time>2016-10-15T07:47:59Z</time>
      </trkpt>
      <trkpt lat="42.609899000" lon="-2.447178000">
        <ele>954.80</ele>
        <time>2016-10-15T07:48:00Z</time>
      </trkpt>
      <trkpt lat="42.609915000" lon="-2.447150000">
        <ele>954.80</ele>
        <time>2016-10-15T07:48:01Z</time>
      </trkpt>
      <trkpt lat="42.609934000" lon="-2.447122000">
        <ele>954.80</ele>
        <time>2016-10-15T07:48:02Z</time>
      </trkpt>
      <trkpt lat="42.609961000" lon="-2.447092000">
        <ele>955.00</ele>
        <time>2016-10-15T07:48:03Z</time>
      </trkpt>
      <trkpt lat="42.609990000" lon="-2.447058000">
        <ele>955.20</ele>
        <time>2016-10-15T07:48:04Z</time>
      </trkpt>
      <trkpt lat="42.610020000" lon="-2.447027000">
        <ele>955.30</ele>
        <time>2016-10-15T07:48:05Z</time>
      </trkpt>
      <trkpt lat="42.610083000" lon="-2.446970000">
        <ele>955.30</ele>
        <time>2016-10-15T07:48:07Z</time>
      </trkpt>
      <trkpt lat="42.610110000" lon="-2.446943000">
        <ele>955.20</ele>
        <time>2016-10-15T07:48:08Z</time>
      </trkpt>
      <trkpt lat="42.610137000" lon="-2.446918000">
        <ele>955.10</ele>
        <time>2016-10-15T07:48:09Z</time>
      </trkpt>
      <trkpt lat="42.610161000" lon="-2.446891000">
        <ele>955.10</ele>
        <time>2016-10-15T07:48:10Z</time>
      </trkpt>
      <trkpt lat="42.610183000" lon="-2.446862000">
        <ele>955.00</ele>
        <time>2016-10-15T07:48:11Z</time>
      </trkpt>
      <trkpt lat="42.610209000" lon="-2.446834000">
        <ele>955.00</ele>
        <time>2016-10-15T07:48:12Z</time>
      </trkpt>
      <trkpt lat="42.610234000" lon="-2.446804000">
        <ele>954.80</ele>
        <time>2016-10-15T07:48:13Z</time>
      </trkpt>
      <trkpt lat="42.610259000" lon="-2.446768000">
        <ele>954.70</ele>
        <time>2016-10-15T07:48:14Z</time>
      </trkpt>
      <trkpt lat="42.610286000" lon="-2.446726000">
        <ele>954.50</ele>
        <time>2016-10-15T07:48:15Z</time>
      </trkpt>
      <trkpt lat="42.610309000" lon="-2.446677000">
        <ele>954.40</ele>
        <time>2016-10-15T07:48:16Z</time>
      </trkpt>
      <trkpt lat="42.610332000" lon="-2.446621000">
        <ele>954.40</ele>
        <time>2016-10-15T07:48:17Z</time>
      </trkpt>
      <trkpt lat="42.610363000" lon="-2.446566000">
        <ele>954.30</ele>
        <time>2016-10-15T07:48:18Z</time>
      </trkpt>
      <trkpt lat="42.610392000" lon="-2.446507000">
        <ele>954.30</ele>
        <time>2016-10-15T07:48:19Z</time>
      </trkpt>
      <trkpt lat="42.610418000" lon="-2.446449000">
        <ele>954.20</ele>
        <time>2016-10-15T07:48:20Z</time>
      </trkpt>
      <trkpt lat="42.610441000" lon="-2.446395000">
        <ele>953.80</ele>
        <time>2016-10-15T07:48:21Z</time>
      </trkpt>
      <trkpt lat="42.610469000" lon="-2.446345000">
        <ele>953.40</ele>
        <time>2016-10-15T07:48:22Z</time>
      </trkpt>
      <trkpt lat="42.610494000" lon="-2.446301000">
        <ele>953.10</ele>
        <time>2016-10-15T07:48:23Z</time>
      </trkpt>
      <trkpt lat="42.610515000" lon="-2.446255000">
        <ele>952.90</ele>
        <time>2016-10-15T07:48:24Z</time>
      </trkpt>
      <trkpt lat="42.610544000" lon="-2.446209000">
        <ele>952.40</ele>
        <time>2016-10-15T07:48:25Z</time>
      </trkpt>
      <trkpt lat="42.610573000" lon="-2.446165000">
        <ele>952.00</ele>
        <time>2016-10-15T07:48:26Z</time>
      </trkpt>
      <trkpt lat="42.610605000" lon="-2.446128000">
        <ele>951.50</ele>
        <time>2016-10-15T07:48:27Z</time>
      </trkpt>
      <trkpt lat="42.610634000" lon="-2.446093000">
        <ele>951.20</ele>
        <time>2016-10-15T07:48:28Z</time>
      </trkpt>
      <trkpt lat="42.610665000" lon="-2.446072000">
        <ele>950.80</ele>
        <time>2016-10-15T07:48:29Z</time>
      </trkpt>
      <trkpt lat="42.610696000" lon="-2.446048000">
        <ele>950.60</ele>
        <time>2016-10-15T07:48:30Z</time>
      </trkpt>
      <trkpt lat="42.610728000" lon="-2.446031000">
        <ele>950.20</ele>
        <time>2016-10-15T07:48:31Z</time>
      </trkpt>
      <trkpt lat="42.610758000" lon="-2.446013000">
        <ele>949.90</ele>
        <time>2016-10-15T07:48:32Z</time>
      </trkpt>
      <trkpt lat="42.610791000" lon="-2.445989000">
        <ele>949.10</ele>
        <time>2016-10-15T07:48:33Z</time>
      </trkpt>
      <trkpt lat="42.610826000" lon="-2.445953000">
        <ele>948.50</ele>
        <time>2016-10-15T07:48:34Z</time>
      </trkpt>
      <trkpt lat="42.610863000" lon="-2.445920000">
        <ele>948.00</ele>
        <time>2016-10-15T07:48:35Z</time>
      </trkpt>
      <trkpt lat="42.610895000" lon="-2.445883000">
        <ele>947.60</ele>
        <time>2016-10-15T07:48:36Z</time>
      </trkpt>
      <trkpt lat="42.610930000" lon="-2.445838000">
        <ele>947.30</ele>
        <time>2016-10-15T07:48:37Z</time>
      </trkpt>
      <trkpt lat="42.610957000" lon="-2.445790000">
        <ele>947.10</ele>
        <time>2016-10-15T07:48:38Z</time>
      </trkpt>
      <trkpt lat="42.610982000" lon="-2.445743000">
        <ele>946.60</ele>
        <time>2016-10-15T07:48:39Z</time>
      </trkpt>
      <trkpt lat="42.611003000" lon="-2.445696000">
        <ele>946.30</ele>
        <time>2016-10-15T07:48:40Z</time>
      </trkpt>
      <trkpt lat="42.611022000" lon="-2.445644000">
        <ele>946.00</ele>
        <time>2016-10-15T07:48:41Z</time>
      </trkpt>
      <trkpt lat="42.611035000" lon="-2.445596000">
        <ele>945.80</ele>
        <time>2016-10-15T07:48:42Z</time>
      </trkpt>
      <trkpt lat="42.611050000" lon="-2.445547000">
        <ele>945.40</ele>
        <time>2016-10-15T07:48:43Z</time>
      </trkpt>
      <trkpt lat="42.611066000" lon="-2.445496000">
        <ele>945.10</ele>
        <time>2016-10-15T07:48:44Z</time>
      </trkpt>
      <trkpt lat="42.611076000" lon="-2.445443000">
        <ele>944.60</ele>
        <time>2016-10-15T07:48:45Z</time>
      </trkpt>
      <trkpt lat="42.611088000" lon="-2.445394000">
        <ele>944.20</ele>
        <time>2016-10-15T07:48:46Z</time>
      </trkpt>
      <trkpt lat="42.611100000" lon="-2.445346000">
        <ele>943.80</ele>
        <time>2016-10-15T07:48:47Z</time>
      </trkpt>
      <trkpt lat="42.611112000" lon="-2.445300000">
        <ele>943.60</ele>
        <time>2016-10-15T07:48:48Z</time>
      </trkpt>
      <trkpt lat="42.611126000" lon="-2.445255000">
        <ele>943.20</ele>
        <time>2016-10-15T07:48:49Z</time>
      </trkpt>
      <trkpt lat="42.611144000" lon="-2.445216000">
        <ele>942.90</ele>
        <time>2016-10-15T07:48:50Z</time>
      </trkpt>
      <trkpt lat="42.611166000" lon="-2.445174000">
        <ele>942.60</ele>
        <time>2016-10-15T07:48:51Z</time>
      </trkpt>
      <trkpt lat="42.611184000" lon="-2.445134000">
        <ele>942.50</ele>
        <time>2016-10-15T07:48:52Z</time>
      </trkpt>
      <trkpt lat="42.611206000" lon="-2.445103000">
        <ele>942.10</ele>
        <time>2016-10-15T07:48:53Z</time>
      </trkpt>
      <trkpt lat="42.611232000" lon="-2.445075000">
        <ele>941.70</ele>
        <time>2016-10-15T07:48:54Z</time>
      </trkpt>
      <trkpt lat="42.611254000" lon="-2.445038000">
        <ele>941.50</ele>
        <time>2016-10-15T07:48:55Z</time>
      </trkpt>
      <trkpt lat="42.611273000" lon="-2.445007000">
        <ele>941.30</ele>
        <time>2016-10-15T07:48:56Z</time>
      </trkpt>
      <trkpt lat="42.611298000" lon="-2.444982000">
        <ele>940.80</ele>
        <time>2016-10-15T07:48:57Z</time>
      </trkpt>
      <trkpt lat="42.611322000" lon="-2.444958000">
        <ele>940.50</ele>
        <time>2016-10-15T07:48:58Z</time>
      </trkpt>
      <trkpt lat="42.611348000" lon="-2.444934000">
        <ele>940.00</ele>
        <time>2016-10-15T07:48:59Z</time>
      </trkpt>
      <trkpt lat="42.611378000" lon="-2.444908000">
        <ele>939.60</ele>
        <time>2016-10-15T07:49:00Z</time>
      </trkpt>
      <trkpt lat="42.611409000" lon="-2.444882000">
        <ele>939.20</ele>
        <time>2016-10-15T07:49:01Z</time>
      </trkpt>
      <trkpt lat="42.611441000" lon="-2.444853000">
        <ele>938.90</ele>
        <time>2016-10-15T07:49:02Z</time>
      </trkpt>
      <trkpt lat="42.611478000" lon="-2.444828000">
        <ele>938.60</ele>
        <time>2016-10-15T07:49:03Z</time>
      </trkpt>
      <trkpt lat="42.611514000" lon="-2.444801000">
        <ele>938.40</ele>
        <time>2016-10-15T07:49:04Z</time>
      </trkpt>
      <trkpt lat="42.611542000" lon="-2.444773000">
        <ele>937.80</ele>
        <time>2016-10-15T07:49:05Z</time>
      </trkpt>
      <trkpt lat="42.611576000" lon="-2.444751000">
        <ele>937.30</ele>
        <time>2016-10-15T07:49:06Z</time>
      </trkpt>
      <trkpt lat="42.611610000" lon="-2.444736000">
        <ele>936.80</ele>
        <time>2016-10-15T07:49:07Z</time>
      </trkpt>
      <trkpt lat="42.611677000" lon="-2.444712000">
        <ele>935.90</ele>
        <time>2016-10-15T07:49:09Z</time>
      </trkpt>
      <trkpt lat="42.611713000" lon="-2.444710000">
        <ele>935.50</ele>
        <time>2016-10-15T07:49:10Z</time>
      </trkpt>
      <trkpt lat="42.611749000" lon="-2.444711000">
        <ele>934.80</ele>
        <time>2016-10-15T07:49:11Z</time>
      </trkpt>
      <trkpt lat="42.611780000" lon="-2.444711000">
        <ele>934.30</ele>
        <time>2016-10-15T07:49:12Z</time>
      </trkpt>
      <trkpt lat="42.611812000" lon="-2.444712000">
        <ele>933.50</ele>
        <time>2016-10-15T07:49:13Z</time>
      </trkpt>
      <trkpt lat="42.611847000" lon="-2.444722000">
        <ele>932.80</ele>
        <time>2016-10-15T07:49:14Z</time>
      </trkpt>
      <trkpt lat="42.611887000" lon="-2.444731000">
        <ele>932.30</ele>
        <time>2016-10-15T07:49:15Z</time>
      </trkpt>
      <trkpt lat="42.611922000" lon="-2.444738000">
        <ele>931.90</ele>
        <time>2016-10-15T07:49:16Z</time>
      </trkpt>
      <trkpt lat="42.611963000" lon="-2.444741000">
        <ele>930.90</ele>
        <time>2016-10-15T07:49:17Z</time>
      </trkpt>
      <trkpt lat="42.611997000" lon="-2.444753000">
        <ele>930.20</ele>
        <time>2016-10-15T07:49:18Z</time>
      </trkpt>
      <trkpt lat="42.612027000" lon="-2.444759000">
        <ele>929.40</ele>
        <time>2016-10-15T07:49:19Z</time>
      </trkpt>
      <trkpt lat="42.612050000" lon="-2.444758000">
        <ele>928.80</ele>
        <time>2016-10-15T07:49:20Z</time>
      </trkpt>
      <trkpt lat="42.612066000" lon="-2.444748000">
        <ele>928.20</ele>
        <time>2016-10-15T07:49:21Z</time>
      </trkpt>
      <trkpt lat="42.612075000" lon="-2.444746000">
        <ele>927.70</ele>
        <time>2016-10-15T07:49:22Z</time>
      </trkpt>
      <trkpt lat="42.612081000" lon="-2.444743000">
        <ele>927.30</ele>
        <time>2016-10-15T07:49:23Z</time>
      </trkpt>
      <trkpt lat="42.612088000" lon="-2.444740000">
        <ele>926.90</ele>
        <time>2016-10-15T07:49:24Z</time>
      </trkpt>
      <trkpt lat="42.612088000" lon="-2.444741000">
        <ele>926.60</ele>
        <time>2016-10-15T07:49:25Z</time>
      </trkpt>
      <trkpt lat="42.612087000" lon="-2.444743000">
        <ele>926.30</ele>
        <time>2016-10-15T07:49:26Z</time>
      </trkpt>
      <trkpt lat="42.612088000" lon="-2.444742000">
        <ele>926.10</ele>
        <time>2016-10-15T07:49:27Z</time>
      </trkpt>
      <trkpt lat="42.612091000" lon="-2.444743000">
        <ele>925.90</ele>
        <time>2016-10-15T07:49:28Z</time>
      </trkpt>
      <trkpt lat="42.612094000" lon="-2.444742000">
        <ele>925.80</ele>
        <time>2016-10-15T07:49:29Z</time>
      </trkpt>
      <trkpt lat="42.612095000" lon="-2.444741000">
        <ele>925.70</ele>
        <time>2016-10-15T07:49:30Z</time>
      </trkpt>
      <trkpt lat="42.612096000" lon="-2.444740000">
        <ele>925.70</ele>
        <time>2016-10-15T07:49:31Z</time>
      </trkpt>
      <trkpt lat="42.612096000" lon="-2.444738000">
        <ele>925.70</ele>
        <time>2016-10-15T07:49:32Z</time>
      </trkpt>
      <trkpt lat="42.612095000" lon="-2.444736000">
        <ele>925.70</ele>
        <time>2016-10-15T07:49:33Z</time>
      </trkpt>
      <trkpt lat="42.612093000" lon="-2.444734000">
        <ele>925.70</ele>
        <time>2016-10-15T07:49:34Z</time>
      </trkpt>
      <trkpt lat="42.612093000" lon="-2.444730000">
        <ele>925.70</ele>
        <time>2016-10-15T07:49:35Z</time>
      </trkpt>
      <trkpt lat="42.612095000" lon="-2.444726000">
        <ele>925.70</ele>
        <time>2016-10-15T07:49:36Z</time>
      </trkpt>
      <trkpt lat="42.612097000" lon="-2.444725000">
        <ele>925.80</ele>
        <time>2016-10-15T07:49:37Z</time>
      </trkpt>
      <trkpt lat="42.612100000" lon="-2.444721000">
        <ele>925.80</ele>
        <time>2016-10-15T07:49:38Z</time>
      </trkpt>
      <trkpt lat="42.612104000" lon="-2.444718000">
        <ele>925.80</ele>
        <time>2016-10-15T07:49:39Z</time>
      </trkpt>
      <trkpt lat="42.612103000" lon="-2.444717000">
        <ele>925.80</ele>
        <time>2016-10-15T07:49:40Z</time>
      </trkpt>
      <trkpt lat="42.612100000" lon="-2.444714000">
        <ele>925.80</ele>
        <time>2016-10-15T07:49:41Z</time>
      </trkpt>
      <trkpt lat="42.612098000" lon="-2.444713000">
        <ele>925.80</ele>
        <time>2016-10-15T07:49:42Z</time>
      </trkpt>
      <trkpt lat="42.612096000" lon="-2.444712000">
        <ele>925.70</ele>
        <time>2016-10-15T07:49:43Z</time>
      </trkpt>
      <trkpt lat="42.612095000" lon="-2.444712000">
        <ele>925.70</ele>
        <time>2016-10-15T07:49:44Z</time>
      </trkpt>
      <trkpt lat="42.612093000" lon="-2.444712000">
        <ele>925.70</ele>
        <time>2016-10-15T07:49:45Z</time>
      </trkpt>
      <trkpt lat="42.612095000" lon="-2.444711000">
        <ele>925.70</ele>
        <time>2016-10-15T07:49:46Z</time>
      </trkpt>
      <trkpt lat="42.612099000" lon="-2.444712000">
        <ele>925.60</ele>
        <time>2016-10-15T07:49:47Z</time>
      </trkpt>
      <trkpt lat="42.612101000" lon="-2.444714000">
        <ele>925.60</ele>
        <time>2016-10-15T07:49:48Z</time>
      </trkpt>
      <trkpt lat="42.612102000" lon="-2.444718000">
        <ele>925.60</ele>
        <time>2016-10-15T07:49:49Z</time>
      </trkpt>
      <trkpt lat="42.612104000" lon="-2.444719000">
        <ele>925.60</ele>
        <time>2016-10-15T07:49:50Z</time>
      </trkpt>
      <trkpt lat="42.612104000" lon="-2.444719000">
        <ele>925.60</ele>
        <time>2016-10-15T07:49:51Z</time>
      </trkpt>
      <trkpt lat="42.612102000" lon="-2.444720000">
        <ele>925.60</ele>
        <time>2016-10-15T07:49:52Z</time>
      </trkpt>
      <trkpt lat="42.612101000" lon="-2.444720000">
        <ele>925.60</ele>
        <time>2016-10-15T07:49:53Z</time>
      </trkpt>
      <trkpt lat="42.612100000" lon="-2.444714000">
        <ele>925.60</ele>
        <time>2016-10-15T07:49:54Z</time>
      </trkpt>
      <trkpt lat="42.612099000" lon="-2.444715000">
        <ele>925.50</ele>
        <time>2016-10-15T07:49:55Z</time>
      </trkpt>
      <trkpt lat="42.612099000" lon="-2.444715000">
        <ele>925.50</ele>
        <time>2016-10-15T07:49:56Z</time>
      </trkpt>
      <trkpt lat="42.612099000" lon="-2.444714000">
        <ele>925.50</ele>
        <time>2016-10-15T07:49:57Z</time>
      </trkpt>
      <trkpt lat="42.612100000" lon="-2.444713000">
        <ele>925.50</ele>
        <time>2016-10-15T07:49:58Z</time>
      </trkpt>
      <trkpt lat="42.612099000" lon="-2.444713000">
        <ele>925.50</ele>
        <time>2016-10-15T07:49:59Z</time>
      </trkpt>
      <trkpt lat="42.612100000" lon="-2.444713000">
        <ele>925.50</ele>
        <time>2016-10-15T07:50:00Z</time>
      </trkpt>
      <trkpt lat="42.612099000" lon="-2.444710000">
        <ele>925.60</ele>
        <time>2016-10-15T07:50:01Z</time>
      </trkpt>
      <trkpt lat="42.612099000" lon="-2.444710000">
        <ele>925.70</ele>
        <time>2016-10-15T07:50:02Z</time>
      </trkpt>
      <trkpt lat="42.612097000" lon="-2.444709000">
        <ele>925.70</ele>
        <time>2016-10-15T07:50:03Z</time>
      </trkpt>
      <trkpt lat="42.612097000" lon="-2.444709000">
        <ele>925.80</ele>
        <time>2016-10-15T07:50:04Z</time>
      </trkpt>
      <trkpt lat="42.612094000" lon="-2.444699000">
        <ele>925.60</ele>
        <time>2016-10-15T07:50:05Z</time>
      </trkpt>
      <trkpt lat="42.612091000" lon="-2.444692000">
        <ele>925.60</ele>
        <time>2016-10-15T07:50:06Z</time>
      </trkpt>
      <trkpt lat="42.612089000" lon="-2.444688000">
        <ele>925.50</ele>
        <time>2016-10-15T07:50:07Z</time>
      </trkpt>
      <trkpt lat="42.612091000" lon="-2.444693000">
        <ele>925.40</ele>
        <time>2016-10-15T07:50:08Z</time>
      </trkpt>
      <trkpt lat="42.612092000" lon="-2.444698000">
        <ele>925.40</ele>
        <time>2016-10-15T07:50:09Z</time>
      </trkpt>
      <trkpt lat="42.612082000" lon="-2.444686000">
        <ele>925.30</ele>
        <time>2016-10-15T07:50:11Z</time>
      </trkpt>
      <trkpt lat="42.612074000" lon="-2.444679000">
        <ele>925.20</ele>
        <time>2016-10-15T07:50:12Z</time>
      </trkpt>
      <trkpt lat="42.612059000" lon="-2.444666000">
        <ele>925.10</ele>
        <time>2016-10-15T07:50:13Z</time>
      </trkpt>
      <trkpt lat="42.612043000" lon="-2.444652000">
        <ele>925.10</ele>
        <time>2016-10-15T07:50:14Z</time>
      </trkpt>
      <trkpt lat="42.612027000" lon="-2.444636000">
        <ele>925.30</ele>
        <time>2016-10-15T07:50:15Z</time>
      </trkpt>
      <trkpt lat="42.612014000" lon="-2.444615000">
        <ele>925.40</ele>
        <time>2016-10-15T07:50:16Z</time>
      </trkpt>
      <trkpt lat="42.611998000" lon="-2.444592000">
        <ele>925.60</ele>
        <time>2016-10-15T07:50:17Z</time>
      </trkpt>
      <trkpt lat="42.611979000" lon="-2.444580000">
        <ele>925.80</ele>
        <time>2016-10-15T07:50:18Z</time>
      </trkpt>
      <trkpt lat="42.611958000" lon="-2.444566000">
        <ele>925.90</ele>
        <time>2016-10-15T07:50:19Z</time>
      </trkpt>
      <trkpt lat="42.611935000" lon="-2.444546000">
        <ele>926.00</ele>
        <time>2016-10-15T07:50:20Z</time>
      </trkpt>
      <trkpt lat="42.611914000" lon="-2.444520000">
        <ele>926.10</ele>
        <time>2016-10-15T07:50:21Z</time>
      </trkpt>
      <trkpt lat="42.611892000" lon="-2.444494000">
        <ele>926.20</ele>
        <time>2016-10-15T07:50:22Z</time>
      </trkpt>
      <trkpt lat="42.611871000" lon="-2.444466000">
        <ele>926.30</ele>
        <time>2016-10-15T07:50:23Z</time>
      </trkpt>
      <trkpt lat="42.611850000" lon="-2.444442000">
        <ele>926.40</ele>
        <time>2016-10-15T07:50:24Z</time>
      </trkpt>
      <trkpt lat="42.611824000" lon="-2.444420000">
        <ele>926.40</ele>
        <time>2016-10-15T07:50:25Z</time>
      </trkpt>
      <trkpt lat="42.611795000" lon="-2.444394000">
        <ele>926.40</ele>
        <time>2016-10-15T07:50:26Z</time>
      </trkpt>
      <trkpt lat="42.611765000" lon="-2.444371000">
        <ele>926.70</ele>
        <time>2016-10-15T07:50:27Z</time>
      </trkpt>
      <trkpt lat="42.611735000" lon="-2.444352000">
        <ele>926.80</ele>
        <time>2016-10-15T07:50:28Z</time>
      </trkpt>
      <trkpt lat="42.611702000" lon="-2.444338000">
        <ele>927.10</ele>
        <time>2016-10-15T07:50:29Z</time>
      </trkpt>
      <trkpt lat="42.611668000" lon="-2.444328000">
        <ele>927.20</ele>
        <time>2016-10-15T07:50:30Z</time>
      </trkpt>
      <trkpt lat="42.611631000" lon="-2.444327000">
        <ele>927.40</ele>
        <time>2016-10-15T07:50:31Z</time>
      </trkpt>
      <trkpt lat="42.611592000" lon="-2.444333000">
        <ele>927.50</ele>
        <time>2016-10-15T07:50:32Z</time>
      </trkpt>
      <trkpt lat="42.611549000" lon="-2.444343000">
        <ele>927.50</ele>
        <time>2016-10-15T07:50:33Z</time>
      </trkpt>
      <trkpt lat="42.611505000" lon="-2.444354000">
        <ele>927.50</ele>
        <time>2016-10-15T07:50:34Z</time>
      </trkpt>
      <trkpt lat="42.611459000" lon="-2.444363000">
        <ele>927.50</ele>
        <time>2016-10-15T07:50:35Z</time>
      </trkpt>
      <trkpt lat="42.611412000" lon="-2.444360000">
        <ele>927.50</ele>
        <time>2016-10-15T07:50:36Z</time>
      </trkpt>
      <trkpt lat="42.611367000" lon="-2.444346000">
        <ele>927.40</ele>
        <time>2016-10-15T07:50:37Z</time>
      </trkpt>
      <trkpt lat="42.611327000" lon="-2.444326000">
        <ele>927.30</ele>
        <time>2016-10-15T07:50:38Z</time>
      </trkpt>
      <trkpt lat="42.611283000" lon="-2.444298000">
        <ele>927.20</ele>
        <time>2016-10-15T07:50:39Z</time>
      </trkpt>
      <trkpt lat="42.611238000" lon="-2.444256000">
        <ele>927.20</ele>
        <time>2016-10-15T07:50:40Z</time>
      </trkpt>
      <trkpt lat="42.611193000" lon="-2.444209000">
        <ele>927.10</ele>
        <time>2016-10-15T07:50:41Z</time>
      </trkpt>
      <trkpt lat="42.611156000" lon="-2.444152000">
        <ele>927.10</ele>
        <time>2016-10-15T07:50:42Z</time>
      </trkpt>
      <trkpt lat="42.611120000" lon="-2.444099000">
        <ele>926.90</ele>
        <time>2016-10-15T07:50:43Z</time>
      </trkpt>
      <trkpt lat="42.611083000" lon="-2.444052000">
        <ele>926.80</ele>
        <time>2016-10-15T07:50:44Z</time>
      </trkpt>
      <trkpt lat="42.611039000" lon="-2.444025000">
        <ele>926.50</ele>
        <time>2016-10-15T07:50:45Z</time>
      </trkpt>
      <trkpt lat="42.610992000" lon="-2.444025000">
        <ele>926.30</ele>
        <time>2016-10-15T07:50:46Z</time>
      </trkpt>
      <trkpt lat="42.610943000" lon="-2.444050000">
        <ele>925.70</ele>
        <time>2016-10-15T07:50:47Z</time>
      </trkpt>
      <trkpt lat="42.610895000" lon="-2.444090000">
        <ele>925.30</ele>
        <time>2016-10-15T07:50:48Z</time>
      </trkpt>
      <trkpt lat="42.610851000" lon="-2.444132000">
        <ele>924.50</ele>
        <time>2016-10-15T07:50:49Z</time>
      </trkpt>
      <trkpt lat="42.610815000" lon="-2.444173000">
        <ele>923.90</ele>
        <time>2016-10-15T07:50:50Z</time>
      </trkpt>
      <trkpt lat="42.610785000" lon="-2.444195000">
        <ele>923.00</ele>
        <time>2016-10-15T07:50:51Z</time>
      </trkpt>
      <trkpt lat="42.610756000" lon="-2.444189000">
        <ele>922.30</ele>
        <time>2016-10-15T07:50:52Z</time>
      </trkpt>
      <trkpt lat="42.610724000" lon="-2.444160000">
        <ele>921.60</ele>
        <time>2016-10-15T07:50:53Z</time>
      </trkpt>
      <trkpt lat="42.610702000" lon="-2.444106000">
        <ele>921.10</ele>
        <time>2016-10-15T07:50:54Z</time>
      </trkpt>
      <trkpt lat="42.610693000" lon="-2.444036000">
        <ele>920.60</ele>
        <time>2016-10-15T07:50:55Z</time>
      </trkpt>
      <trkpt lat="42.610689000" lon="-2.443961000">
        <ele>920.20</ele>
        <time>2016-10-15T07:50:56Z</time>
      </trkpt>
      <trkpt lat="42.610682000" lon="-2.443872000">
        <ele>919.80</ele>
        <time>2016-10-15T07:50:57Z</time>
      </trkpt>
      <trkpt lat="42.610673000" lon="-2.443781000">
        <ele>919.50</ele>
        <time>2016-10-15T07:50:58Z</time>
      </trkpt>
      <trkpt lat="42.610658000" lon="-2.443683000">
        <ele>919.30</ele>
        <time>2016-10-15T07:50:59Z</time>
      </trkpt>
      <trkpt lat="42.610645000" lon="-2.443586000">
        <ele>919.10</ele>
        <time>2016-10-15T07:51:00Z</time>
      </trkpt>
      <trkpt lat="42.610631000" lon="-2.443485000">
        <ele>918.70</ele>
        <time>2016-10-15T07:51:01Z</time>
      </trkpt>
      <trkpt lat="42.610613000" lon="-2.443380000">
        <ele>918.40</ele>
        <time>2016-10-15T07:51:02Z</time>
      </trkpt>
      <trkpt lat="42.610598000" lon="-2.443272000">
        <ele>917.60</ele>
        <time>2016-10-15T07:51:03Z</time>
      </trkpt>
      <trkpt lat="42.610582000" lon="-2.443167000">
        <ele>917.00</ele>
        <time>2016-10-15T07:51:04Z</time>
      </trkpt>
      <trkpt lat="42.610566000" lon="-2.443061000">
        <ele>916.50</ele>
        <time>2016-10-15T07:51:05Z</time>
      </trkpt>
      <trkpt lat="42.610547000" lon="-2.442949000">
        <ele>916.00</ele>
        <time>2016-10-15T07:51:06Z</time>
      </trkpt>
      <trkpt lat="42.610526000" lon="-2.442835000">
        <ele>915.60</ele>
        <time>2016-10-15T07:51:07Z</time>
      </trkpt>
      <trkpt lat="42.610504000" lon="-2.442724000">
        <ele>915.30</ele>
        <time>2016-10-15T07:51:08Z</time>
      </trkpt>
      <trkpt lat="42.610478000" lon="-2.442614000">
        <ele>914.80</ele>
        <time>2016-10-15T07:51:09Z</time>
      </trkpt>
      <trkpt lat="42.610448000" lon="-2.442505000">
        <ele>914.40</ele>
        <time>2016-10-15T07:51:10Z</time>
      </trkpt>
      <trkpt lat="42.610422000" lon="-2.442395000">
        <ele>914.00</ele>
        <time>2016-10-15T07:51:11Z</time>
      </trkpt>
      <trkpt lat="42.610382000" lon="-2.442169000">
        <ele>913.10</ele>
        <time>2016-10-15T07:51:13Z</time>
      </trkpt>
      <trkpt lat="42.610374000" lon="-2.442053000">
        <ele>912.70</ele>
        <time>2016-10-15T07:51:14Z</time>
      </trkpt>
      <trkpt lat="42.610365000" lon="-2.441935000">
        <ele>912.40</ele>
        <time>2016-10-15T07:51:15Z</time>
      </trkpt>
      <trkpt lat="42.610355000" lon="-2.441817000">
        <ele>912.10</ele>
        <time>2016-10-15T07:51:16Z</time>
      </trkpt>
      <trkpt lat="42.610346000" lon="-2.441693000">
        <ele>911.90</ele>
        <time>2016-10-15T07:51:17Z</time>
      </trkpt>
      <trkpt lat="42.610335000" lon="-2.441566000">
        <ele>911.70</ele>
        <time>2016-10-15T07:51:18Z</time>
      </trkpt>
      <trkpt lat="42.610321000" lon="-2.441438000">
        <ele>910.70</ele>
        <time>2016-10-15T07:51:19Z</time>
      </trkpt>
      <trkpt lat="42.610304000" lon="-2.441308000">
        <ele>909.90</ele>
        <time>2016-10-15T07:51:20Z</time>
      </trkpt>
      <trkpt lat="42.610288000" lon="-2.441177000">
        <ele>909.30</ele>
        <time>2016-10-15T07:51:21Z</time>
      </trkpt>
      <trkpt lat="42.610266000" lon="-2.441050000">
        <ele>908.90</ele>
        <time>2016-10-15T07:51:22Z</time>
      </trkpt>
      <trkpt lat="42.610235000" lon="-2.440926000">
        <ele>908.40</ele>
        <time>2016-10-15T07:51:23Z</time>
      </trkpt>
      <trkpt lat="42.610194000" lon="-2.440812000">
        <ele>908.00</ele>
        <time>2016-10-15T07:51:24Z</time>
      </trkpt>
      <trkpt lat="42.610145000" lon="-2.440702000">
        <ele>907.80</ele>
        <time>2016-10-15T07:51:25Z</time>
      </trkpt>
      <trkpt lat="42.610097000" lon="-2.440598000">
        <ele>907.60</ele>
        <time>2016-10-15T07:51:26Z</time>
      </trkpt>
      <trkpt lat="42.610050000" lon="-2.440499000">
        <ele>907.20</ele>
        <time>2016-10-15T07:51:27Z</time>
      </trkpt>
      <trkpt lat="42.610004000" lon="-2.440403000">
        <ele>906.80</ele>
        <time>2016-10-15T07:51:28Z</time>
      </trkpt>
      <trkpt lat="42.609960000" lon="-2.440312000">
        <ele>906.70</ele>
        <time>2016-10-15T07:51:29Z</time>
      </trkpt>
      <trkpt lat="42.609921000" lon="-2.440218000">
        <ele>906.50</ele>
        <time>2016-10-15T07:51:30Z</time>
      </trkpt>
      <trkpt lat="42.609888000" lon="-2.440123000">
        <ele>906.30</ele>
        <time>2016-10-15T07:51:31Z</time>
      </trkpt>
      <trkpt lat="42.609854000" lon="-2.440031000">
        <ele>906.20</ele>
        <time>2016-10-15T07:51:32Z</time>
      </trkpt>
      <trkpt lat="42.609816000" lon="-2.439944000">
        <ele>906.10</ele>
        <time>2016-10-15T07:51:33Z</time>
      </trkpt>
      <trkpt lat="42.609783000" lon="-2.439856000">
        <ele>906.00</ele>
        <time>2016-10-15T07:51:34Z</time>
      </trkpt>
      <trkpt lat="42.609752000" lon="-2.439767000">
        <ele>906.00</ele>
        <time>2016-10-15T07:51:35Z</time>
      </trkpt>
      <trkpt lat="42.609723000" lon="-2.439676000">
        <ele>905.90</ele>
        <time>2016-10-15T07:51:36Z</time>
      </trkpt>
      <trkpt lat="42.609698000" lon="-2.439589000">
        <ele>906.00</ele>
        <time>2016-10-15T07:51:37Z</time>
      </trkpt>
      <trkpt lat="42.609675000" lon="-2.439499000">
        <ele>906.00</ele>
        <time>2016-10-15T07:51:38Z</time>
      </trkpt>
      <trkpt lat="42.609658000" lon="-2.439414000">
        <ele>906.00</ele>
        <time>2016-10-15T07:51:39Z</time>
      </trkpt>
      <trkpt lat="42.609640000" lon="-2.439326000">
        <ele>906.10</ele>
        <time>2016-10-15T07:51:40Z</time>
      </trkpt>
      <trkpt lat="42.609626000" lon="-2.439234000">
        <ele>906.10</ele>
        <time>2016-10-15T07:51:41Z</time>
      </trkpt>
      <trkpt lat="42.609609000" lon="-2.439144000">
        <ele>906.20</ele>
        <time>2016-10-15T07:51:42Z</time>
      </trkpt>
      <trkpt lat="42.609593000" lon="-2.439052000">
        <ele>906.20</ele>
        <time>2016-10-15T07:51:43Z</time>
      </trkpt>
      <trkpt lat="42.609576000" lon="-2.438966000">
        <ele>906.30</ele>
        <time>2016-10-15T07:51:44Z</time>
      </trkpt>
      <trkpt lat="42.609559000" lon="-2.438883000">
        <ele>906.30</ele>
        <time>2016-10-15T07:51:45Z</time>
      </trkpt>
      <trkpt lat="42.609539000" lon="-2.438795000">
        <ele>906.30</ele>
        <time>2016-10-15T07:51:46Z</time>
      </trkpt>
      <trkpt lat="42.609516000" lon="-2.438711000">
        <ele>906.30</ele>
        <time>2016-10-15T07:51:47Z</time>
      </trkpt>
      <trkpt lat="42.609490000" lon="-2.438631000">
        <ele>906.40</ele>
        <time>2016-10-15T07:51:48Z</time>
      </trkpt>
      <trkpt lat="42.609460000" lon="-2.438554000">
        <ele>906.50</ele>
        <time>2016-10-15T07:51:49Z</time>
      </trkpt>
      <trkpt lat="42.609425000" lon="-2.438486000">
        <ele>906.50</ele>
        <time>2016-10-15T07:51:50Z</time>
      </trkpt>
      <trkpt lat="42.609386000" lon="-2.438423000">
        <ele>906.60</ele>
        <time>2016-10-15T07:51:51Z</time>
      </trkpt>
      <trkpt lat="42.609345000" lon="-2.438362000">
        <ele>906.70</ele>
        <time>2016-10-15T07:51:52Z</time>
      </trkpt>
      <trkpt lat="42.609304000" lon="-2.438304000">
        <ele>906.80</ele>
        <time>2016-10-15T07:51:53Z</time>
      </trkpt>
      <trkpt lat="42.609264000" lon="-2.438243000">
        <ele>906.80</ele>
        <time>2016-10-15T07:51:54Z</time>
      </trkpt>
      <trkpt lat="42.609228000" lon="-2.438180000">
        <ele>907.00</ele>
        <time>2016-10-15T07:51:55Z</time>
      </trkpt>
      <trkpt lat="42.609195000" lon="-2.438112000">
        <ele>907.00</ele>
        <time>2016-10-15T07:51:56Z</time>
      </trkpt>
      <trkpt lat="42.609166000" lon="-2.438045000">
        <ele>907.10</ele>
        <time>2016-10-15T07:51:57Z</time>
      </trkpt>
      <trkpt lat="42.609140000" lon="-2.437974000">
        <ele>907.10</ele>
        <time>2016-10-15T07:51:58Z</time>
      </trkpt>
      <trkpt lat="42.609116000" lon="-2.437897000">
        <ele>907.10</ele>
        <time>2016-10-15T07:51:59Z</time>
      </trkpt>
      <trkpt lat="42.609096000" lon="-2.437818000">
        <ele>907.10</ele>
        <time>2016-10-15T07:52:00Z</time>
      </trkpt>
      <trkpt lat="42.609083000" lon="-2.437737000">
        <ele>907.10</ele>
        <time>2016-10-15T07:52:01Z</time>
      </trkpt>
      <trkpt lat="42.609078000" lon="-2.437651000">
        <ele>907.20</ele>
        <time>2016-10-15T07:52:02Z</time>
      </trkpt>
      <trkpt lat="42.609079000" lon="-2.437565000">
        <ele>907.00</ele>
        <time>2016-10-15T07:52:03Z</time>
      </trkpt>
      <trkpt lat="42.609081000" lon="-2.437482000">
        <ele>906.80</ele>
        <time>2016-10-15T07:52:04Z</time>
      </trkpt>
      <trkpt lat="42.609084000" lon="-2.437401000">
        <ele>906.70</ele>
        <time>2016-10-15T07:52:05Z</time>
      </trkpt>
      <trkpt lat="42.609091000" lon="-2.437323000">
        <ele>906.60</ele>
        <time>2016-10-15T07:52:06Z</time>
      </trkpt>
      <trkpt lat="42.609102000" lon="-2.437248000">
        <ele>906.50</ele>
        <time>2016-10-15T07:52:07Z</time>
      </trkpt>
      <trkpt lat="42.609116000" lon="-2.437174000">
        <ele>906.30</ele>
        <time>2016-10-15T07:52:08Z</time>
      </trkpt>
      <trkpt lat="42.609134000" lon="-2.437100000">
        <ele>906.30</ele>
        <time>2016-10-15T07:52:09Z</time>
      </trkpt>
      <trkpt lat="42.609153000" lon="-2.437033000">
        <ele>906.20</ele>
        <time>2016-10-15T07:52:10Z</time>
      </trkpt>
      <trkpt lat="42.609177000" lon="-2.436966000">
        <ele>906.10</ele>
        <time>2016-10-15T07:52:11Z</time>
      </trkpt>
      <trkpt lat="42.609201000" lon="-2.436899000">
        <ele>906.00</ele>
        <time>2016-10-15T07:52:12Z</time>
      </trkpt>
      <trkpt lat="42.609227000" lon="-2.436831000">
        <ele>906.00</ele>
        <time>2016-10-15T07:52:13Z</time>
      </trkpt>
      <trkpt lat="42.609271000" lon="-2.436694000">
        <ele>905.90</ele>
        <time>2016-10-15T07:52:15Z</time>
      </trkpt>
      <trkpt lat="42.609287000" lon="-2.436625000">
        <ele>905.90</ele>
        <time>2016-10-15T07:52:16Z</time>
      </trkpt>
      <trkpt lat="42.609301000" lon="-2.436556000">
        <ele>905.90</ele>
        <time>2016-10-15T07:52:17Z</time>
      </trkpt>
      <trkpt lat="42.609316000" lon="-2.436484000">
        <ele>905.90</ele>
        <time>2016-10-15T07:52:18Z</time>
      </trkpt>
      <trkpt lat="42.609329000" lon="-2.436413000">
        <ele>905.80</ele>
        <time>2016-10-15T07:52:19Z</time>
      </trkpt>
      <trkpt lat="42.609342000" lon="-2.436345000">
        <ele>905.70</ele>
        <time>2016-10-15T07:52:20Z</time>
      </trkpt>
      <trkpt lat="42.609353000" lon="-2.436279000">
        <ele>905.60</ele>
        <time>2016-10-15T07:52:21Z</time>
      </trkpt>
      <trkpt lat="42.609362000" lon="-2.436215000">
        <ele>905.50</ele>
        <time>2016-10-15T07:52:22Z</time>
      </trkpt>
      <trkpt lat="42.609368000" lon="-2.436153000">
        <ele>905.80</ele>
        <time>2016-10-15T07:52:23Z</time>
      </trkpt>
      <trkpt lat="42.609369000" lon="-2.436093000">
        <ele>905.90</ele>
        <time>2016-10-15T07:52:24Z</time>
      </trkpt>
      <trkpt lat="42.609372000" lon="-2.436039000">
        <ele>906.10</ele>
        <time>2016-10-15T07:52:25Z</time>
      </trkpt>
      <trkpt lat="42.609377000" lon="-2.435992000">
        <ele>906.20</ele>
        <time>2016-10-15T07:52:26Z</time>
      </trkpt>
      <trkpt lat="42.609378000" lon="-2.435943000">
        <ele>906.30</ele>
        <time>2016-10-15T07:52:27Z</time>
      </trkpt>
      <trkpt lat="42.609378000" lon="-2.435898000">
        <ele>906.40</ele>
        <time>2016-10-15T07:52:28Z</time>
      </trkpt>
      <trkpt lat="42.609380000" lon="-2.435856000">
        <ele>906.60</ele>
        <time>2016-10-15T07:52:29Z</time>
      </trkpt>
      <trkpt lat="42.609379000" lon="-2.435815000">
        <ele>906.80</ele>
        <time>2016-10-15T07:52:30Z</time>
      </trkpt>
      <trkpt lat="42.609374000" lon="-2.435777000">
        <ele>907.00</ele>
        <time>2016-10-15T07:52:31Z</time>
      </trkpt>
      <trkpt lat="42.609366000" lon="-2.435739000">
        <ele>907.10</ele>
        <time>2016-10-15T07:52:32Z</time>
      </trkpt>
      <trkpt lat="42.609354000" lon="-2.435705000">
        <ele>907.20</ele>
        <time>2016-10-15T07:52:33Z</time>
      </trkpt>
      <trkpt lat="42.609339000" lon="-2.435673000">
        <ele>907.30</ele>
        <time>2016-10-15T07:52:34Z</time>
      </trkpt>
      <trkpt lat="42.609320000" lon="-2.435642000">
        <ele>907.50</ele>
        <time>2016-10-15T07:52:35Z</time>
      </trkpt>
      <trkpt lat="42.609303000" lon="-2.435611000">
        <ele>907.60</ele>
        <time>2016-10-15T07:52:36Z</time>
      </trkpt>
      <trkpt lat="42.609286000" lon="-2.435577000">
        <ele>907.70</ele>
        <time>2016-10-15T07:52:37Z</time>
      </trkpt>
      <trkpt lat="42.609271000" lon="-2.435544000">
        <ele>907.70</ele>
        <time>2016-10-15T07:52:38Z</time>
      </trkpt>
      <trkpt lat="42.609257000" lon="-2.435509000">
        <ele>907.80</ele>
        <time>2016-10-15T07:52:39Z</time>
      </trkpt>
      <trkpt lat="42.609245000" lon="-2.435474000">
        <ele>907.90</ele>
        <time>2016-10-15T07:52:40Z</time>
      </trkpt>
      <trkpt lat="42.609234000" lon="-2.435438000">
        <ele>908.20</ele>
        <time>2016-10-15T07:52:41Z</time>
      </trkpt>
      <trkpt lat="42.609221000" lon="-2.435404000">
        <ele>908.50</ele>
        <time>2016-10-15T07:52:42Z</time>
      </trkpt>
      <trkpt lat="42.609206000" lon="-2.435370000">
        <ele>908.80</ele>
        <time>2016-10-15T07:52:43Z</time>
      </trkpt>
      <trkpt lat="42.609189000" lon="-2.435335000">
        <ele>909.10</ele>
        <time>2016-10-15T07:52:44Z</time>
      </trkpt>
      <trkpt lat="42.609173000" lon="-2.435303000">
        <ele>909.30</ele>
        <time>2016-10-15T07:52:45Z</time>
      </trkpt>
      <trkpt lat="42.609159000" lon="-2.435272000">
        <ele>909.60</ele>
        <time>2016-10-15T07:52:46Z</time>
      </trkpt>
      <trkpt lat="42.609145000" lon="-2.435237000">
        <ele>909.80</ele>
        <time>2016-10-15T07:52:47Z</time>
      </trkpt>
      <trkpt lat="42.609130000" lon="-2.435208000">
        <ele>910.10</ele>
        <time>2016-10-15T07:52:48Z</time>
      </trkpt>
      <trkpt lat="42.609116000" lon="-2.435173000">
        <ele>910.40</ele>
        <time>2016-10-15T07:52:49Z</time>
      </trkpt>
      <trkpt lat="42.609102000" lon="-2.435139000">
        <ele>910.70</ele>
        <time>2016-10-15T07:52:50Z</time>
      </trkpt>
      <trkpt lat="42.609091000" lon="-2.435104000">
        <ele>910.90</ele>
        <time>2016-10-15T07:52:51Z</time>
      </trkpt>
      <trkpt lat="42.609081000" lon="-2.435076000">
        <ele>911.30</ele>
        <time>2016-10-15T07:52:52Z</time>
      </trkpt>
      <trkpt lat="42.609067000" lon="-2.435049000">
        <ele>911.50</ele>
        <time>2016-10-15T07:52:53Z</time>
      </trkpt>
      <trkpt lat="42.609056000" lon="-2.435024000">
        <ele>911.90</ele>
        <time>2016-10-15T07:52:54Z</time>
      </trkpt>
      <trkpt lat="42.609046000" lon="-2.434997000">
        <ele>912.10</ele>
        <time>2016-10-15T07:52:55Z</time>
      </trkpt>
      <trkpt lat="42.609038000" lon="-2.434969000">
        <ele>912.60</ele>
        <time>2016-10-15T07:52:56Z</time>
      </trkpt>
      <trkpt lat="42.609030000" lon="-2.434938000">
        <ele>912.90</ele>
        <time>2016-10-15T07:52:57Z</time>
      </trkpt>
      <trkpt lat="42.609023000" lon="-2.434913000">
        <ele>913.20</ele>
        <time>2016-10-15T07:52:58Z</time>
      </trkpt>
      <trkpt lat="42.609011000" lon="-2.434887000">
        <ele>913.30</ele>
        <time>2016-10-15T07:52:59Z</time>
      </trkpt>
      <trkpt lat="42.608996000" lon="-2.434863000">
        <ele>913.50</ele>
        <time>2016-10-15T07:53:00Z</time>
      </trkpt>
      <trkpt lat="42.608983000" lon="-2.434836000">
        <ele>913.60</ele>
        <time>2016-10-15T07:53:01Z</time>
      </trkpt>
      <trkpt lat="42.608971000" lon="-2.434804000">
        <ele>914.20</ele>
        <time>2016-10-15T07:53:02Z</time>
      </trkpt>
      <trkpt lat="42.608961000" lon="-2.434772000">
        <ele>914.60</ele>
        <time>2016-10-15T07:53:03Z</time>
      </trkpt>
      <trkpt lat="42.608949000" lon="-2.434744000">
        <ele>915.00</ele>
        <time>2016-10-15T07:53:04Z</time>
      </trkpt>
      <trkpt lat="42.608938000" lon="-2.434718000">
        <ele>915.40</ele>
        <time>2016-10-15T07:53:05Z</time>
      </trkpt>
      <trkpt lat="42.608926000" lon="-2.434693000">
        <ele>915.60</ele>
        <time>2016-10-15T07:53:06Z</time>
      </trkpt>
      <trkpt lat="42.608914000" lon="-2.434666000">
        <ele>915.80</ele>
        <time>2016-10-15T07:53:07Z</time>
      </trkpt>
      <trkpt lat="42.608904000" lon="-2.434637000">
        <ele>916.40</ele>
        <time>2016-10-15T07:53:08Z</time>
      </trkpt>
      <trkpt lat="42.608895000" lon="-2.434612000">
        <ele>916.80</ele>
        <time>2016-10-15T07:53:09Z</time>
      </trkpt>
      <trkpt lat="42.608884000" lon="-2.434586000">
        <ele>917.10</ele>
        <time>2016-10-15T07:53:10Z</time>
      </trkpt>
      <trkpt lat="42.608876000" lon="-2.434556000">
        <ele>917.40</ele>
        <time>2016-10-15T07:53:11Z</time>
      </trkpt>
      <trkpt lat="42.608870000" lon="-2.434525000">
        <ele>917.60</ele>
        <time>2016-10-15T07:53:12Z</time>
      </trkpt>
      <trkpt lat="42.608863000" lon="-2.434496000">
        <ele>917.70</ele>
        <time>2016-10-15T07:53:13Z</time>
      </trkpt>
      <trkpt lat="42.608856000" lon="-2.434467000">
        <ele>918.00</ele>
        <time>2016-10-15T07:53:14Z</time>
      </trkpt>
      <trkpt lat="42.608850000" lon="-2.434439000">
        <ele>918.20</ele>
        <time>2016-10-15T07:53:15Z</time>
      </trkpt>
      <trkpt lat="42.608839000" lon="-2.434385000">
        <ele>918.60</ele>
        <time>2016-10-15T07:53:17Z</time>
      </trkpt>
      <trkpt lat="42.608839000" lon="-2.434357000">
        <ele>918.90</ele>
        <time>2016-10-15T07:53:18Z</time>
      </trkpt>
      <trkpt lat="42.608836000" lon="-2.434327000">
        <ele>919.20</ele>
        <time>2016-10-15T07:53:19Z</time>
      </trkpt>
      <trkpt lat="42.608836000" lon="-2.434298000">
        <ele>919.40</ele>
        <time>2016-10-15T07:53:20Z</time>
      </trkpt>
      <trkpt lat="42.608837000" lon="-2.434268000">
        <ele>919.50</ele>
        <time>2016-10-15T07:53:21Z</time>
      </trkpt>
      <trkpt lat="42.608838000" lon="-2.434233000">
        <ele>919.70</ele>
        <time>2016-10-15T07:53:22Z</time>
      </trkpt>
      <trkpt lat="42.608838000" lon="-2.434198000">
        <ele>919.90</ele>
        <time>2016-10-15T07:53:23Z</time>
      </trkpt>
      <trkpt lat="42.608837000" lon="-2.434164000">
        <ele>920.00</ele>
        <time>2016-10-15T07:53:24Z</time>
      </trkpt>
      <trkpt lat="42.608839000" lon="-2.434132000">
        <ele>920.10</ele>
        <time>2016-10-15T07:53:25Z</time>
      </trkpt>
      <trkpt lat="42.608840000" lon="-2.434100000">
        <ele>920.20</ele>
        <time>2016-10-15T07:53:26Z</time>
      </trkpt>
      <trkpt lat="42.608845000" lon="-2.434069000">
        <ele>920.30</ele>
        <time>2016-10-15T07:53:27Z</time>
      </trkpt>
      <trkpt lat="42.608850000" lon="-2.434037000">
        <ele>920.40</ele>
        <time>2016-10-15T07:53:28Z</time>
      </trkpt>
      <trkpt lat="42.608857000" lon="-2.434005000">
        <ele>920.40</ele>
        <time>2016-10-15T07:53:29Z</time>
      </trkpt>
      <trkpt lat="42.608860000" lon="-2.433970000">
        <ele>920.50</ele>
        <time>2016-10-15T07:53:30Z</time>
      </trkpt>
      <trkpt lat="42.608865000" lon="-2.433936000">
        <ele>920.50</ele>
        <time>2016-10-15T07:53:31Z</time>
      </trkpt>
      <trkpt lat="42.608870000" lon="-2.433902000">
        <ele>920.70</ele>
        <time>2016-10-15T07:53:32Z</time>
      </trkpt>
      <trkpt lat="42.608874000" lon="-2.433869000">
        <ele>920.80</ele>
        <time>2016-10-15T07:53:33Z</time>
      </trkpt>
      <trkpt lat="42.608881000" lon="-2.433837000">
        <ele>920.90</ele>
        <time>2016-10-15T07:53:34Z</time>
      </trkpt>
      <trkpt lat="42.608887000" lon="-2.433804000">
        <ele>921.00</ele>
        <time>2016-10-15T07:53:35Z</time>
      </trkpt>
      <trkpt lat="42.608894000" lon="-2.433769000">
        <ele>921.40</ele>
        <time>2016-10-15T07:53:36Z</time>
      </trkpt>
      <trkpt lat="42.608900000" lon="-2.433733000">
        <ele>921.60</ele>
        <time>2016-10-15T07:53:37Z</time>
      </trkpt>
      <trkpt lat="42.608908000" lon="-2.433702000">
        <ele>921.80</ele>
        <time>2016-10-15T07:53:38Z</time>
      </trkpt>
      <trkpt lat="42.608914000" lon="-2.433669000">
        <ele>922.00</ele>
        <time>2016-10-15T07:53:39Z</time>
      </trkpt>
      <trkpt lat="42.608922000" lon="-2.433639000">
        <ele>922.00</ele>
        <time>2016-10-15T07:53:40Z</time>
      </trkpt>
      <trkpt lat="42.608933000" lon="-2.433610000">
        <ele>922.00</ele>
        <time>2016-10-15T07:53:41Z</time>
      </trkpt>
      <trkpt lat="42.608946000" lon="-2.433576000">
        <ele>921.90</ele>
        <time>2016-10-15T07:53:42Z</time>
      </trkpt>
      <trkpt lat="42.608959000" lon="-2.433542000">
        <ele>921.80</ele>
        <time>2016-10-15T07:53:43Z</time>
      </trkpt>
      <trkpt lat="42.608974000" lon="-2.433511000">
        <ele>921.70</ele>
        <time>2016-10-15T07:53:44Z</time>
      </trkpt>
      <trkpt lat="42.608991000" lon="-2.433477000">
        <ele>921.70</ele>
        <time>2016-10-15T07:53:45Z</time>
      </trkpt>
      <trkpt lat="42.609011000" lon="-2.433442000">
        <ele>921.60</ele>
        <time>2016-10-15T07:53:46Z</time>
      </trkpt>
      <trkpt lat="42.609035000" lon="-2.433410000">
        <ele>921.50</ele>
        <time>2016-10-15T07:53:47Z</time>
      </trkpt>
      <trkpt lat="42.609058000" lon="-2.433380000">
        <ele>921.10</ele>
        <time>2016-10-15T07:53:48Z</time>
      </trkpt>
      <trkpt lat="42.609086000" lon="-2.433349000">
        <ele>920.70</ele>
        <time>2016-10-15T07:53:49Z</time>
      </trkpt>
      <trkpt lat="42.609115000" lon="-2.433317000">
        <ele>920.50</ele>
        <time>2016-10-15T07:53:50Z</time>
      </trkpt>
      <trkpt lat="42.609148000" lon="-2.433284000">
        <ele>920.30</ele>
        <time>2016-10-15T07:53:51Z</time>
      </trkpt>
      <trkpt lat="42.609184000" lon="-2.433253000">
        <ele>920.10</ele>
        <time>2016-10-15T07:53:52Z</time>
      </trkpt>
      <trkpt lat="42.609224000" lon="-2.433222000">
        <ele>919.90</ele>
        <time>2016-10-15T07:53:53Z</time>
      </trkpt>
      <trkpt lat="42.609257000" lon="-2.433190000">
        <ele>919.70</ele>
        <time>2016-10-15T07:53:54Z</time>
      </trkpt>
      <trkpt lat="42.609292000" lon="-2.433164000">
        <ele>919.60</ele>
        <time>2016-10-15T07:53:55Z</time>
      </trkpt>
      <trkpt lat="42.609323000" lon="-2.433136000">
        <ele>919.40</ele>
        <time>2016-10-15T07:53:56Z</time>
      </trkpt>
      <trkpt lat="42.609355000" lon="-2.433111000">
        <ele>919.30</ele>
        <time>2016-10-15T07:53:57Z</time>
      </trkpt>
      <trkpt lat="42.609382000" lon="-2.433088000">
        <ele>919.10</ele>
        <time>2016-10-15T07:53:58Z</time>
      </trkpt>
      <trkpt lat="42.609409000" lon="-2.433063000">
        <ele>919.00</ele>
        <time>2016-10-15T07:53:59Z</time>
      </trkpt>
      <trkpt lat="42.609438000" lon="-2.433040000">
        <ele>918.90</ele>
        <time>2016-10-15T07:54:00Z</time>
      </trkpt>
      <trkpt lat="42.609465000" lon="-2.433016000">
        <ele>918.80</ele>
        <time>2016-10-15T07:54:01Z</time>
      </trkpt>
      <trkpt lat="42.609488000" lon="-2.432993000">
        <ele>918.70</ele>
        <time>2016-10-15T07:54:02Z</time>
      </trkpt>
      <trkpt lat="42.609511000" lon="-2.432972000">
        <ele>918.60</ele>
        <time>2016-10-15T07:54:03Z</time>
      </trkpt>
      <trkpt lat="42.609533000" lon="-2.432949000">
        <ele>918.40</ele>
        <time>2016-10-15T07:54:04Z</time>
      </trkpt>
      <trkpt lat="42.609556000" lon="-2.432925000">
        <ele>918.30</ele>
        <time>2016-10-15T07:54:05Z</time>
      </trkpt>
      <trkpt lat="42.609576000" lon="-2.432901000">
        <ele>918.20</ele>
        <time>2016-10-15T07:54:06Z</time>
      </trkpt>
      <trkpt lat="42.609597000" lon="-2.432877000">
        <ele>918.20</ele>
        <time>2016-10-15T07:54:07Z</time>
      </trkpt>
      <trkpt lat="42.609620000" lon="-2.432853000">
        <ele>918.30</ele>
        <time>2016-10-15T07:54:08Z</time>
      </trkpt>
      <trkpt lat="42.609641000" lon="-2.432827000">
        <ele>918.30</ele>
        <time>2016-10-15T07:54:09Z</time>
      </trkpt>
      <trkpt lat="42.609660000" lon="-2.432800000">
        <ele>918.40</ele>
        <time>2016-10-15T07:54:10Z</time>
      </trkpt>
      <trkpt lat="42.609678000" lon="-2.432769000">
        <ele>918.40</ele>
        <time>2016-10-15T07:54:11Z</time>
      </trkpt>
      <trkpt lat="42.609694000" lon="-2.432734000">
        <ele>918.50</ele>
        <time>2016-10-15T07:54:12Z</time>
      </trkpt>
      <trkpt lat="42.609710000" lon="-2.432699000">
        <ele>918.50</ele>
        <time>2016-10-15T07:54:13Z</time>
      </trkpt>
      <trkpt lat="42.609725000" lon="-2.432664000">
        <ele>918.50</ele>
        <time>2016-10-15T07:54:14Z</time>
      </trkpt>
      <trkpt lat="42.609740000" lon="-2.432628000">
        <ele>918.50</ele>
        <time>2016-10-15T07:54:15Z</time>
      </trkpt>
      <trkpt lat="42.609754000" lon="-2.432593000">
        <ele>918.60</ele>
        <time>2016-10-15T07:54:16Z</time>
      </trkpt>
      <trkpt lat="42.609774000" lon="-2.432524000">
        <ele>918.80</ele>
        <time>2016-10-15T07:54:18Z</time>
      </trkpt>
      <trkpt lat="42.609780000" lon="-2.432489000">
        <ele>918.90</ele>
        <time>2016-10-15T07:54:19Z</time>
      </trkpt>
      <trkpt lat="42.609787000" lon="-2.432452000">
        <ele>918.90</ele>
        <time>2016-10-15T07:54:20Z</time>
      </trkpt>
      <trkpt lat="42.609795000" lon="-2.432412000">
        <ele>919.00</ele>
        <time>2016-10-15T07:54:21Z</time>
      </trkpt>
      <trkpt lat="42.609805000" lon="-2.432372000">
        <ele>919.00</ele>
        <time>2016-10-15T07:54:22Z</time>
      </trkpt>
      <trkpt lat="42.609813000" lon="-2.432333000">
        <ele>919.10</ele>
        <time>2016-10-15T07:54:23Z</time>
      </trkpt>
      <trkpt lat="42.609825000" lon="-2.432293000">
        <ele>919.00</ele>
        <time>2016-10-15T07:54:24Z</time>
      </trkpt>
      <trkpt lat="42.609835000" lon="-2.432252000">
        <ele>919.00</ele>
        <time>2016-10-15T07:54:25Z</time>
      </trkpt>
      <trkpt lat="42.609847000" lon="-2.432214000">
        <ele>919.00</ele>
        <time>2016-10-15T07:54:26Z</time>
      </trkpt>
      <trkpt lat="42.609860000" lon="-2.432177000">
        <ele>919.00</ele>
        <time>2016-10-15T07:54:27Z</time>
      </trkpt>
      <trkpt lat="42.609868000" lon="-2.432136000">
        <ele>918.90</ele>
        <time>2016-10-15T07:54:28Z</time>
      </trkpt>
      <trkpt lat="42.609876000" lon="-2.432095000">
        <ele>918.80</ele>
        <time>2016-10-15T07:54:29Z</time>
      </trkpt>
      <trkpt lat="42.609884000" lon="-2.432052000">
        <ele>918.80</ele>
        <time>2016-10-15T07:54:30Z</time>
      </trkpt>
      <trkpt lat="42.609893000" lon="-2.432008000">
        <ele>918.90</ele>
        <time>2016-10-15T07:54:31Z</time>
      </trkpt>
      <trkpt lat="42.609902000" lon="-2.431965000">
        <ele>918.70</ele>
        <time>2016-10-15T07:54:32Z</time>
      </trkpt>
      <trkpt lat="42.609912000" lon="-2.431922000">
        <ele>918.60</ele>
        <time>2016-10-15T07:54:33Z</time>
      </trkpt>
      <trkpt lat="42.609923000" lon="-2.431877000">
        <ele>918.60</ele>
        <time>2016-10-15T07:54:34Z</time>
      </trkpt>
      <trkpt lat="42.609931000" lon="-2.431825000">
        <ele>918.60</ele>
        <time>2016-10-15T07:54:35Z</time>
      </trkpt>
      <trkpt lat="42.609941000" lon="-2.431773000">
        <ele>918.50</ele>
        <time>2016-10-15T07:54:36Z</time>
      </trkpt>
      <trkpt lat="42.609950000" lon="-2.431719000">
        <ele>918.40</ele>
        <time>2016-10-15T07:54:37Z</time>
      </trkpt>
      <trkpt lat="42.609959000" lon="-2.431665000">
        <ele>918.10</ele>
        <time>2016-10-15T07:54:38Z</time>
      </trkpt>
      <trkpt lat="42.609967000" lon="-2.431611000">
        <ele>917.90</ele>
        <time>2016-10-15T07:54:39Z</time>
      </trkpt>
      <trkpt lat="42.609974000" lon="-2.431559000">
        <ele>917.80</ele>
        <time>2016-10-15T07:54:40Z</time>
      </trkpt>
      <trkpt lat="42.609980000" lon="-2.431506000">
        <ele>917.70</ele>
        <time>2016-10-15T07:54:41Z</time>
      </trkpt>
      <trkpt lat="42.609987000" lon="-2.431456000">
        <ele>917.70</ele>
        <time>2016-10-15T07:54:42Z</time>
      </trkpt>
      <trkpt lat="42.609992000" lon="-2.431412000">
        <ele>917.70</ele>
        <time>2016-10-15T07:54:43Z</time>
      </trkpt>
      <trkpt lat="42.609995000" lon="-2.431371000">
        <ele>917.90</ele>
        <time>2016-10-15T07:54:44Z</time>
      </trkpt>
      <trkpt lat="42.610002000" lon="-2.431328000">
        <ele>918.10</ele>
        <time>2016-10-15T07:54:45Z</time>
      </trkpt>
      <trkpt lat="42.610007000" lon="-2.431286000">
        <ele>918.20</ele>
        <time>2016-10-15T07:54:46Z</time>
      </trkpt>
      <trkpt lat="42.610014000" lon="-2.431242000">
        <ele>918.30</ele>
        <time>2016-10-15T07:54:47Z</time>
      </trkpt>
      <trkpt lat="42.610023000" lon="-2.431204000">
        <ele>918.40</ele>
        <time>2016-10-15T07:54:48Z</time>
      </trkpt>
      <trkpt lat="42.610032000" lon="-2.431165000">
        <ele>918.50</ele>
        <time>2016-10-15T07:54:49Z</time>
      </trkpt>
      <trkpt lat="42.610042000" lon="-2.431128000">
        <ele>918.50</ele>
        <time>2016-10-15T07:54:50Z</time>
      </trkpt>
      <trkpt lat="42.610053000" lon="-2.431087000">
        <ele>918.50</ele>
        <time>2016-10-15T07:54:51Z</time>
      </trkpt>
      <trkpt lat="42.610067000" lon="-2.431052000">
        <ele>918.60</ele>
        <time>2016-10-15T07:54:52Z</time>
      </trkpt>
      <trkpt lat="42.610078000" lon="-2.431016000">
        <ele>918.60</ele>
        <time>2016-10-15T07:54:53Z</time>
      </trkpt>
      <trkpt lat="42.610087000" lon="-2.430985000">
        <ele>918.60</ele>
        <time>2016-10-15T07:54:54Z</time>
      </trkpt>
      <trkpt lat="42.610097000" lon="-2.430954000">
        <ele>918.60</ele>
        <time>2016-10-15T07:54:55Z</time>
      </trkpt>
      <trkpt lat="42.610108000" lon="-2.430920000">
        <ele>918.60</ele>
        <time>2016-10-15T07:54:56Z</time>
      </trkpt>
      <trkpt lat="42.610120000" lon="-2.430889000">
        <ele>918.60</ele>
        <time>2016-10-15T07:54:57Z</time>
      </trkpt>
      <trkpt lat="42.610132000" lon="-2.430860000">
        <ele>918.80</ele>
        <time>2016-10-15T07:54:58Z</time>
      </trkpt>
      <trkpt lat="42.610141000" lon="-2.430829000">
        <ele>918.90</ele>
        <time>2016-10-15T07:54:59Z</time>
      </trkpt>
      <trkpt lat="42.610153000" lon="-2.430801000">
        <ele>919.10</ele>
        <time>2016-10-15T07:55:00Z</time>
      </trkpt>
      <trkpt lat="42.610164000" lon="-2.430773000">
        <ele>919.20</ele>
        <time>2016-10-15T07:55:01Z</time>
      </trkpt>
      <trkpt lat="42.610177000" lon="-2.430744000">
        <ele>919.40</ele>
        <time>2016-10-15T07:55:02Z</time>
      </trkpt>
      <trkpt lat="42.610191000" lon="-2.430714000">
        <ele>919.60</ele>
        <time>2016-10-15T07:55:03Z</time>
      </trkpt>
      <trkpt lat="42.610206000" lon="-2.430686000">
        <ele>919.70</ele>
        <time>2016-10-15T07:55:04Z</time>
      </trkpt>
      <trkpt lat="42.610223000" lon="-2.430661000">
        <ele>919.80</ele>
        <time>2016-10-15T07:55:05Z</time>
      </trkpt>
      <trkpt lat="42.610242000" lon="-2.430637000">
        <ele>919.80</ele>
        <time>2016-10-15T07:55:06Z</time>
      </trkpt>
      <trkpt lat="42.610257000" lon="-2.430612000">
        <ele>919.90</ele>
        <time>2016-10-15T07:55:07Z</time>
      </trkpt>
      <trkpt lat="42.610272000" lon="-2.430587000">
        <ele>919.90</ele>
        <time>2016-10-15T07:55:08Z</time>
      </trkpt>
      <trkpt lat="42.610290000" lon="-2.430566000">
        <ele>919.90</ele>
        <time>2016-10-15T07:55:09Z</time>
      </trkpt>
      <trkpt lat="42.610306000" lon="-2.430541000">
        <ele>920.20</ele>
        <time>2016-10-15T07:55:10Z</time>
      </trkpt>
      <trkpt lat="42.610319000" lon="-2.430513000">
        <ele>920.40</ele>
        <time>2016-10-15T07:55:11Z</time>
      </trkpt>
      <trkpt lat="42.610332000" lon="-2.430487000">
        <ele>920.60</ele>
        <time>2016-10-15T07:55:12Z</time>
      </trkpt>
      <trkpt lat="42.610342000" lon="-2.430460000">
        <ele>920.80</ele>
        <time>2016-10-15T07:55:13Z</time>
      </trkpt>
      <trkpt lat="42.610355000" lon="-2.430434000">
        <ele>921.00</ele>
        <time>2016-10-15T07:55:14Z</time>
      </trkpt>
      <trkpt lat="42.610367000" lon="-2.430408000">
        <ele>921.20</ele>
        <time>2016-10-15T07:55:15Z</time>
      </trkpt>
      <trkpt lat="42.610380000" lon="-2.430382000">
        <ele>921.50</ele>
        <time>2016-10-15T07:55:16Z</time>
      </trkpt>
      <trkpt lat="42.610393000" lon="-2.430359000">
        <ele>921.70</ele>
        <time>2016-10-15T07:55:17Z</time>
      </trkpt>
      <trkpt lat="42.610405000" lon="-2.430336000">
        <ele>922.10</ele>
        <time>2016-10-15T07:55:18Z</time>
      </trkpt>
      <trkpt lat="42.610433000" lon="-2.430284000">
        <ele>922.80</ele>
        <time>2016-10-15T07:55:20Z</time>
      </trkpt>
      <trkpt lat="42.610446000" lon="-2.430257000">
        <ele>923.10</ele>
        <time>2016-10-15T07:55:21Z</time>
      </trkpt>
      <trkpt lat="42.610458000" lon="-2.430232000">
        <ele>923.40</ele>
        <time>2016-10-15T07:55:22Z</time>
      </trkpt>
      <trkpt lat="42.610468000" lon="-2.430203000">
        <ele>923.60</ele>
        <time>2016-10-15T07:55:23Z</time>
      </trkpt>
      <trkpt lat="42.610478000" lon="-2.430178000">
        <ele>923.80</ele>
        <time>2016-10-15T07:55:24Z</time>
      </trkpt>
      <trkpt lat="42.610491000" lon="-2.430152000">
        <ele>924.00</ele>
        <time>2016-10-15T07:55:25Z</time>
      </trkpt>
      <trkpt lat="42.610505000" lon="-2.430130000">
        <ele>924.40</ele>
        <time>2016-10-15T07:55:26Z</time>
      </trkpt>
      <trkpt lat="42.610519000" lon="-2.430106000">
        <ele>924.70</ele>
        <time>2016-10-15T07:55:27Z</time>
      </trkpt>
      <trkpt lat="42.610536000" lon="-2.430084000">
        <ele>925.00</ele>
        <time>2016-10-15T07:55:28Z</time>
      </trkpt>
      <trkpt lat="42.610551000" lon="-2.430062000">
        <ele>925.20</ele>
        <time>2016-10-15T07:55:29Z</time>
      </trkpt>
      <trkpt lat="42.610565000" lon="-2.430043000">
        <ele>925.40</ele>
        <time>2016-10-15T07:55:30Z</time>
      </trkpt>
      <trkpt lat="42.610577000" lon="-2.430025000">
        <ele>925.70</ele>
        <time>2016-10-15T07:55:31Z</time>
      </trkpt>
      <trkpt lat="42.610590000" lon="-2.430005000">
        <ele>925.90</ele>
        <time>2016-10-15T07:55:32Z</time>
      </trkpt>
      <trkpt lat="42.610602000" lon="-2.429982000">
        <ele>926.00</ele>
        <time>2016-10-15T07:55:33Z</time>
      </trkpt>
      <trkpt lat="42.610616000" lon="-2.429961000">
        <ele>926.20</ele>
        <time>2016-10-15T07:55:34Z</time>
      </trkpt>
      <trkpt lat="42.610631000" lon="-2.429943000">
        <ele>926.40</ele>
        <time>2016-10-15T07:55:35Z</time>
      </trkpt>
      <trkpt lat="42.610643000" lon="-2.429924000">
        <ele>926.70</ele>
        <time>2016-10-15T07:55:36Z</time>
      </trkpt>
      <trkpt lat="42.610656000" lon="-2.429903000">
        <ele>926.90</ele>
        <time>2016-10-15T07:55:37Z</time>
      </trkpt>
      <trkpt lat="42.610670000" lon="-2.429882000">
        <ele>927.10</ele>
        <time>2016-10-15T07:55:38Z</time>
      </trkpt>
      <trkpt lat="42.610684000" lon="-2.429864000">
        <ele>927.20</ele>
        <time>2016-10-15T07:55:39Z</time>
      </trkpt>
      <trkpt lat="42.610701000" lon="-2.429847000">
        <ele>927.60</ele>
        <time>2016-10-15T07:55:40Z</time>
      </trkpt>
      <trkpt lat="42.610716000" lon="-2.429831000">
        <ele>927.90</ele>
        <time>2016-10-15T07:55:41Z</time>
      </trkpt>
      <trkpt lat="42.610730000" lon="-2.429813000">
        <ele>928.10</ele>
        <time>2016-10-15T07:55:42Z</time>
      </trkpt>
      <trkpt lat="42.610745000" lon="-2.429796000">
        <ele>928.30</ele>
        <time>2016-10-15T07:55:43Z</time>
      </trkpt>
      <trkpt lat="42.610757000" lon="-2.429775000">
        <ele>928.50</ele>
        <time>2016-10-15T07:55:44Z</time>
      </trkpt>
      <trkpt lat="42.610771000" lon="-2.429755000">
        <ele>928.70</ele>
        <time>2016-10-15T07:55:45Z</time>
      </trkpt>
      <trkpt lat="42.610785000" lon="-2.429733000">
        <ele>929.00</ele>
        <time>2016-10-15T07:55:46Z</time>
      </trkpt>
      <trkpt lat="42.610798000" lon="-2.429711000">
        <ele>929.20</ele>
        <time>2016-10-15T07:55:47Z</time>
      </trkpt>
      <trkpt lat="42.610812000" lon="-2.429691000">
        <ele>929.60</ele>
        <time>2016-10-15T07:55:48Z</time>
      </trkpt>
      <trkpt lat="42.610826000" lon="-2.429669000">
        <ele>929.90</ele>
        <time>2016-10-15T07:55:49Z</time>
      </trkpt>
      <trkpt lat="42.610838000" lon="-2.429644000">
        <ele>930.20</ele>
        <time>2016-10-15T07:55:50Z</time>
      </trkpt>
      <trkpt lat="42.610851000" lon="-2.429618000">
        <ele>930.40</ele>
        <time>2016-10-15T07:55:51Z</time>
      </trkpt>
      <trkpt lat="42.610862000" lon="-2.429595000">
        <ele>930.50</ele>
        <time>2016-10-15T07:55:52Z</time>
      </trkpt>
      <trkpt lat="42.610874000" lon="-2.429569000">
        <ele>930.60</ele>
        <time>2016-10-15T07:55:53Z</time>
      </trkpt>
      <trkpt lat="42.610885000" lon="-2.429545000">
        <ele>930.90</ele>
        <time>2016-10-15T07:55:54Z</time>
      </trkpt>
      <trkpt lat="42.610896000" lon="-2.429520000">
        <ele>931.00</ele>
        <time>2016-10-15T07:55:55Z</time>
      </trkpt>
      <trkpt lat="42.610904000" lon="-2.429490000">
        <ele>931.20</ele>
        <time>2016-10-15T07:55:56Z</time>
      </trkpt>
      <trkpt lat="42.610911000" lon="-2.429460000">
        <ele>931.40</ele>
        <time>2016-10-15T07:55:57Z</time>
      </trkpt>
      <trkpt lat="42.610915000" lon="-2.429429000">
        <ele>931.70</ele>
        <time>2016-10-15T07:55:58Z</time>
      </trkpt>
      <trkpt lat="42.610919000" lon="-2.429396000">
        <ele>931.90</ele>
        <time>2016-10-15T07:55:59Z</time>
      </trkpt>
      <trkpt lat="42.610922000" lon="-2.429363000">
        <ele>932.10</ele>
        <time>2016-10-15T07:56:00Z</time>
      </trkpt>
      <trkpt lat="42.610926000" lon="-2.429334000">
        <ele>932.20</ele>
        <time>2016-10-15T07:56:01Z</time>
      </trkpt>
      <trkpt lat="42.610930000" lon="-2.429302000">
        <ele>932.40</ele>
        <time>2016-10-15T07:56:02Z</time>
      </trkpt>
      <trkpt lat="42.610932000" lon="-2.429271000">
        <ele>932.50</ele>
        <time>2016-10-15T07:56:03Z</time>
      </trkpt>
      <trkpt lat="42.610935000" lon="-2.429239000">
        <ele>932.60</ele>
        <time>2016-10-15T07:56:04Z</time>
      </trkpt>
      <trkpt lat="42.610938000" lon="-2.429207000">
        <ele>932.70</ele>
        <time>2016-10-15T07:56:05Z</time>
      </trkpt>
      <trkpt lat="42.610942000" lon="-2.429176000">
        <ele>932.80</ele>
        <time>2016-10-15T07:56:06Z</time>
      </trkpt>
      <trkpt lat="42.610941000" lon="-2.429145000">
        <ele>932.90</ele>
        <time>2016-10-15T07:56:07Z</time>
      </trkpt>
      <trkpt lat="42.610940000" lon="-2.429113000">
        <ele>932.90</ele>
        <time>2016-10-15T07:56:08Z</time>
      </trkpt>
      <trkpt lat="42.610939000" lon="-2.429084000">
        <ele>933.00</ele>
        <time>2016-10-15T07:56:09Z</time>
      </trkpt>
      <trkpt lat="42.610935000" lon="-2.429055000">
        <ele>933.00</ele>
        <time>2016-10-15T07:56:10Z</time>
      </trkpt>
      <trkpt lat="42.610931000" lon="-2.429023000">
        <ele>933.00</ele>
        <time>2016-10-15T07:56:11Z</time>
      </trkpt>
      <trkpt lat="42.610931000" lon="-2.428992000">
        <ele>933.00</ele>
        <time>2016-10-15T07:56:12Z</time>
      </trkpt>
      <trkpt lat="42.610928000" lon="-2.428957000">
        <ele>933.10</ele>
        <time>2016-10-15T07:56:13Z</time>
      </trkpt>
      <trkpt lat="42.610923000" lon="-2.428925000">
        <ele>933.10</ele>
        <time>2016-10-15T07:56:14Z</time>
      </trkpt>
      <trkpt lat="42.610920000" lon="-2.428893000">
        <ele>933.10</ele>
        <time>2016-10-15T07:56:15Z</time>
      </trkpt>
      <trkpt lat="42.610918000" lon="-2.428857000">
        <ele>933.00</ele>
        <time>2016-10-15T07:56:16Z</time>
      </trkpt>
      <trkpt lat="42.610918000" lon="-2.428825000">
        <ele>933.00</ele>
        <time>2016-10-15T07:56:17Z</time>
      </trkpt>
      <trkpt lat="42.610916000" lon="-2.428793000">
        <ele>932.90</ele>
        <time>2016-10-15T07:56:18Z</time>
      </trkpt>
      <trkpt lat="42.610913000" lon="-2.428763000">
        <ele>932.90</ele>
        <time>2016-10-15T07:56:19Z</time>
      </trkpt>
      <trkpt lat="42.610908000" lon="-2.428731000">
        <ele>932.90</ele>
        <time>2016-10-15T07:56:20Z</time>
      </trkpt>
      <trkpt lat="42.610900000" lon="-2.428667000">
        <ele>932.70</ele>
        <time>2016-10-15T07:56:22Z</time>
      </trkpt>
      <trkpt lat="42.610895000" lon="-2.428633000">
        <ele>932.70</ele>
        <time>2016-10-15T07:56:23Z</time>
      </trkpt>
      <trkpt lat="42.610889000" lon="-2.428602000">
        <ele>932.70</ele>
        <time>2016-10-15T07:56:24Z</time>
      </trkpt>
      <trkpt lat="42.610884000" lon="-2.428570000">
        <ele>932.80</ele>
        <time>2016-10-15T07:56:25Z</time>
      </trkpt>
      <trkpt lat="42.610878000" lon="-2.428538000">
        <ele>932.80</ele>
        <time>2016-10-15T07:56:26Z</time>
      </trkpt>
      <trkpt lat="42.610874000" lon="-2.428508000">
        <ele>932.90</ele>
        <time>2016-10-15T07:56:27Z</time>
      </trkpt>
      <trkpt lat="42.610870000" lon="-2.428478000">
        <ele>933.00</ele>
        <time>2016-10-15T07:56:28Z</time>
      </trkpt>
      <trkpt lat="42.610865000" lon="-2.428447000">
        <ele>933.00</ele>
        <time>2016-10-15T07:56:29Z</time>
      </trkpt>
      <trkpt lat="42.610861000" lon="-2.428417000">
        <ele>933.00</ele>
        <time>2016-10-15T07:56:30Z</time>
      </trkpt>
      <trkpt lat="42.610856000" lon="-2.428388000">
        <ele>933.00</ele>
        <time>2016-10-15T07:56:31Z</time>
      </trkpt>
      <trkpt lat="42.610853000" lon="-2.428358000">
        <ele>933.10</ele>
        <time>2016-10-15T07:56:32Z</time>
      </trkpt>
      <trkpt lat="42.610852000" lon="-2.428328000">
        <ele>933.10</ele>
        <time>2016-10-15T07:56:33Z</time>
      </trkpt>
      <trkpt lat="42.610845000" lon="-2.428297000">
        <ele>933.20</ele>
        <time>2016-10-15T07:56:34Z</time>
      </trkpt>
      <trkpt lat="42.610839000" lon="-2.428266000">
        <ele>933.50</ele>
        <time>2016-10-15T07:56:35Z</time>
      </trkpt>
      <trkpt lat="42.610834000" lon="-2.428238000">
        <ele>933.70</ele>
        <time>2016-10-15T07:56:36Z</time>
      </trkpt>
      <trkpt lat="42.610830000" lon="-2.428211000">
        <ele>933.90</ele>
        <time>2016-10-15T07:56:37Z</time>
      </trkpt>
      <trkpt lat="42.610825000" lon="-2.428182000">
        <ele>934.10</ele>
        <time>2016-10-15T07:56:38Z</time>
      </trkpt>
      <trkpt lat="42.610821000" lon="-2.428152000">
        <ele>934.20</ele>
        <time>2016-10-15T07:56:39Z</time>
      </trkpt>
      <trkpt lat="42.610817000" lon="-2.428122000">
        <ele>934.30</ele>
        <time>2016-10-15T07:56:40Z</time>
      </trkpt>
      <trkpt lat="42.610810000" lon="-2.428092000">
        <ele>934.40</ele>
        <time>2016-10-15T07:56:41Z</time>
      </trkpt>
      <trkpt lat="42.610805000" lon="-2.428063000">
        <ele>934.50</ele>
        <time>2016-10-15T07:56:42Z</time>
      </trkpt>
      <trkpt lat="42.610797000" lon="-2.428032000">
        <ele>934.70</ele>
        <time>2016-10-15T07:56:43Z</time>
      </trkpt>
      <trkpt lat="42.610793000" lon="-2.428004000">
        <ele>934.80</ele>
        <time>2016-10-15T07:56:44Z</time>
      </trkpt>
      <trkpt lat="42.610789000" lon="-2.427973000">
        <ele>934.90</ele>
        <time>2016-10-15T07:56:45Z</time>
      </trkpt>
      <trkpt lat="42.610783000" lon="-2.427943000">
        <ele>935.00</ele>
        <time>2016-10-15T07:56:46Z</time>
      </trkpt>
      <trkpt lat="42.610780000" lon="-2.427915000">
        <ele>935.20</ele>
        <time>2016-10-15T07:56:47Z</time>
      </trkpt>
      <trkpt lat="42.610774000" lon="-2.427889000">
        <ele>935.40</ele>
        <time>2016-10-15T07:56:48Z</time>
      </trkpt>
      <trkpt lat="42.610769000" lon="-2.427861000">
        <ele>935.60</ele>
        <time>2016-10-15T07:56:49Z</time>
      </trkpt>
      <trkpt lat="42.610765000" lon="-2.427832000">
        <ele>935.70</ele>
        <time>2016-10-15T07:56:50Z</time>
      </trkpt>
      <trkpt lat="42.610758000" lon="-2.427803000">
        <ele>935.90</ele>
        <time>2016-10-15T07:56:51Z</time>
      </trkpt>
      <trkpt lat="42.610754000" lon="-2.427773000">
        <ele>935.90</ele>
        <time>2016-10-15T07:56:52Z</time>
      </trkpt>
      <trkpt lat="42.610749000" lon="-2.427741000">
        <ele>936.00</ele>
        <time>2016-10-15T07:56:53Z</time>
      </trkpt>
      <trkpt lat="42.610744000" lon="-2.427715000">
        <ele>936.00</ele>
        <time>2016-10-15T07:56:54Z</time>
      </trkpt>
      <trkpt lat="42.610738000" lon="-2.427687000">
        <ele>936.20</ele>
        <time>2016-10-15T07:56:55Z</time>
      </trkpt>
      <trkpt lat="42.610730000" lon="-2.427661000">
        <ele>936.40</ele>
        <time>2016-10-15T07:56:56Z</time>
      </trkpt>
      <trkpt lat="42.610723000" lon="-2.427632000">
        <ele>936.60</ele>
        <time>2016-10-15T07:56:57Z</time>
      </trkpt>
      <trkpt lat="42.610716000" lon="-2.427605000">
        <ele>936.70</ele>
        <time>2016-10-15T07:56:58Z</time>
      </trkpt>
      <trkpt lat="42.610707000" lon="-2.427583000">
        <ele>936.90</ele>
        <time>2016-10-15T07:56:59Z</time>
      </trkpt>
      <trkpt lat="42.610700000" lon="-2.427561000">
        <ele>937.00</ele>
        <time>2016-10-15T07:57:00Z</time>
      </trkpt>
      <trkpt lat="42.610694000" lon="-2.427538000">
        <ele>937.40</ele>
        <time>2016-10-15T07:57:01Z</time>
      </trkpt>
      <trkpt lat="42.610687000" lon="-2.427515000">
        <ele>937.60</ele>
        <time>2016-10-15T07:57:02Z</time>
      </trkpt>
      <trkpt lat="42.610681000" lon="-2.427489000">
        <ele>937.90</ele>
        <time>2016-10-15T07:57:03Z</time>
      </trkpt>
      <trkpt lat="42.610674000" lon="-2.427463000">
        <ele>938.10</ele>
        <time>2016-10-15T07:57:04Z</time>
      </trkpt>
      <trkpt lat="42.610665000" lon="-2.427438000">
        <ele>938.30</ele>
        <time>2016-10-15T07:57:05Z</time>
      </trkpt>
      <trkpt lat="42.610658000" lon="-2.427418000">
        <ele>938.40</ele>
        <time>2016-10-15T07:57:06Z</time>
      </trkpt>
      <trkpt lat="42.610649000" lon="-2.427394000">
        <ele>938.70</ele>
        <time>2016-10-15T07:57:07Z</time>
      </trkpt>
      <trkpt lat="42.610639000" lon="-2.427369000">
        <ele>938.90</ele>
        <time>2016-10-15T07:57:08Z</time>
      </trkpt>
      <trkpt lat="42.610631000" lon="-2.427345000">
        <ele>939.10</ele>
        <time>2016-10-15T07:57:09Z</time>
      </trkpt>
      <trkpt lat="42.610623000" lon="-2.427324000">
        <ele>939.30</ele>
        <time>2016-10-15T07:57:10Z</time>
      </trkpt>
      <trkpt lat="42.610614000" lon="-2.427303000">
        <ele>939.70</ele>
        <time>2016-10-15T07:57:11Z</time>
      </trkpt>
      <trkpt lat="42.610609000" lon="-2.427281000">
        <ele>940.00</ele>
        <time>2016-10-15T07:57:12Z</time>
      </trkpt>
      <trkpt lat="42.610602000" lon="-2.427259000">
        <ele>940.30</ele>
        <time>2016-10-15T07:57:13Z</time>
      </trkpt>
      <trkpt lat="42.610593000" lon="-2.427241000">
        <ele>940.40</ele>
        <time>2016-10-15T07:57:14Z</time>
      </trkpt>
      <trkpt lat="42.610585000" lon="-2.427221000">
        <ele>940.60</ele>
        <time>2016-10-15T07:57:15Z</time>
      </trkpt>
      <trkpt lat="42.610578000" lon="-2.427201000">
        <ele>940.80</ele>
        <time>2016-10-15T07:57:16Z</time>
      </trkpt>
      <trkpt lat="42.610569000" lon="-2.427179000">
        <ele>941.10</ele>
        <time>2016-10-15T07:57:17Z</time>
      </trkpt>
      <trkpt lat="42.610560000" lon="-2.427160000">
        <ele>941.30</ele>
        <time>2016-10-15T07:57:18Z</time>
      </trkpt>
      <trkpt lat="42.610551000" lon="-2.427139000">
        <ele>941.50</ele>
        <time>2016-10-15T07:57:19Z</time>
      </trkpt>
      <trkpt lat="42.610544000" lon="-2.427116000">
        <ele>941.70</ele>
        <time>2016-10-15T07:57:20Z</time>
      </trkpt>
      <trkpt lat="42.610538000" lon="-2.427091000">
        <ele>941.90</ele>
        <time>2016-10-15T07:57:21Z</time>
      </trkpt>
      <trkpt lat="42.610530000" lon="-2.427068000">
        <ele>942.10</ele>
        <time>2016-10-15T07:57:22Z</time>
      </trkpt>
      <trkpt lat="42.610510000" lon="-2.427026000">
        <ele>942.80</ele>
        <time>2016-10-15T07:57:24Z</time>
      </trkpt>
      <trkpt lat="42.610502000" lon="-2.427010000">
        <ele>943.00</ele>
        <time>2016-10-15T07:57:25Z</time>
      </trkpt>
      <trkpt lat="42.610496000" lon="-2.426988000">
        <ele>943.10</ele>
        <time>2016-10-15T07:57:26Z</time>
      </trkpt>
      <trkpt lat="42.610490000" lon="-2.426966000">
        <ele>943.20</ele>
        <time>2016-10-15T07:57:27Z</time>
      </trkpt>
      <trkpt lat="42.610479000" lon="-2.426945000">
        <ele>943.30</ele>
        <time>2016-10-15T07:57:28Z</time>
      </trkpt>
      <trkpt lat="42.610474000" lon="-2.426923000">
        <ele>943.70</ele>
        <time>2016-10-15T07:57:29Z</time>
      </trkpt>
      <trkpt lat="42.610467000" lon="-2.426902000">
        <ele>943.90</ele>
        <time>2016-10-15T07:57:30Z</time>
      </trkpt>
      <trkpt lat="42.610462000" lon="-2.426880000">
        <ele>944.20</ele>
        <time>2016-10-15T07:57:31Z</time>
      </trkpt>
      <trkpt lat="42.610455000" lon="-2.426859000">
        <ele>944.40</ele>
        <time>2016-10-15T07:57:32Z</time>
      </trkpt>
      <trkpt lat="42.610447000" lon="-2.426840000">
        <ele>944.60</ele>
        <time>2016-10-15T07:57:33Z</time>
      </trkpt>
      <trkpt lat="42.610440000" lon="-2.426821000">
        <ele>944.80</ele>
        <time>2016-10-15T07:57:34Z</time>
      </trkpt>
      <trkpt lat="42.610429000" lon="-2.426802000">
        <ele>945.10</ele>
        <time>2016-10-15T07:57:35Z</time>
      </trkpt>
      <trkpt lat="42.610422000" lon="-2.426784000">
        <ele>945.30</ele>
        <time>2016-10-15T07:57:36Z</time>
      </trkpt>
      <trkpt lat="42.610414000" lon="-2.426765000">
        <ele>945.50</ele>
        <time>2016-10-15T07:57:37Z</time>
      </trkpt>
      <trkpt lat="42.610409000" lon="-2.426743000">
        <ele>945.60</ele>
        <time>2016-10-15T07:57:38Z</time>
      </trkpt>
      <trkpt lat="42.610404000" lon="-2.426722000">
        <ele>945.90</ele>
        <time>2016-10-15T07:57:39Z</time>
      </trkpt>
      <trkpt lat="42.610397000" lon="-2.426704000">
        <ele>946.10</ele>
        <time>2016-10-15T07:57:40Z</time>
      </trkpt>
      <trkpt lat="42.610387000" lon="-2.426688000">
        <ele>946.50</ele>
        <time>2016-10-15T07:57:41Z</time>
      </trkpt>
      <trkpt lat="42.610378000" lon="-2.426672000">
        <ele>946.80</ele>
        <time>2016-10-15T07:57:42Z</time>
      </trkpt>
      <trkpt lat="42.610368000" lon="-2.426654000">
        <ele>947.20</ele>
        <time>2016-10-15T07:57:43Z</time>
      </trkpt>
      <trkpt lat="42.610362000" lon="-2.426638000">
        <ele>947.50</ele>
        <time>2016-10-15T07:57:44Z</time>
      </trkpt>
      <trkpt lat="42.610357000" lon="-2.426619000">
        <ele>947.70</ele>
        <time>2016-10-15T07:57:45Z</time>
      </trkpt>
      <trkpt lat="42.610354000" lon="-2.426600000">
        <ele>947.90</ele>
        <time>2016-10-15T07:57:46Z</time>
      </trkpt>
      <trkpt lat="42.610351000" lon="-2.426578000">
        <ele>948.20</ele>
        <time>2016-10-15T07:57:47Z</time>
      </trkpt>
      <trkpt lat="42.610346000" lon="-2.426557000">
        <ele>948.30</ele>
        <time>2016-10-15T07:57:48Z</time>
      </trkpt>
      <trkpt lat="42.610341000" lon="-2.426534000">
        <ele>948.60</ele>
        <time>2016-10-15T07:57:49Z</time>
      </trkpt>
      <trkpt lat="42.610334000" lon="-2.426513000">
        <ele>948.80</ele>
        <time>2016-10-15T07:57:50Z</time>
      </trkpt>
      <trkpt lat="42.610327000" lon="-2.426492000">
        <ele>949.20</ele>
        <time>2016-10-15T07:57:51Z</time>
      </trkpt>
      <trkpt lat="42.610320000" lon="-2.426474000">
        <ele>949.40</ele>
        <time>2016-10-15T07:57:52Z</time>
      </trkpt>
      <trkpt lat="42.610313000" lon="-2.426455000">
        <ele>949.80</ele>
        <time>2016-10-15T07:57:53Z</time>
      </trkpt>
      <trkpt lat="42.610308000" lon="-2.426434000">
        <ele>950.10</ele>
        <time>2016-10-15T07:57:54Z</time>
      </trkpt>
      <trkpt lat="42.610302000" lon="-2.426412000">
        <ele>950.40</ele>
        <time>2016-10-15T07:57:55Z</time>
      </trkpt>
      <trkpt lat="42.610294000" lon="-2.426392000">
        <ele>950.60</ele>
        <time>2016-10-15T07:57:56Z</time>
      </trkpt>
      <trkpt lat="42.610286000" lon="-2.426370000">
        <ele>950.90</ele>
        <time>2016-10-15T07:57:57Z</time>
      </trkpt>
      <trkpt lat="42.610276000" lon="-2.426352000">
        <ele>951.00</ele>
        <time>2016-10-15T07:57:58Z</time>
      </trkpt>
      <trkpt lat="42.610268000" lon="-2.426335000">
        <ele>951.40</ele>
        <time>2016-10-15T07:57:59Z</time>
      </trkpt>
      <trkpt lat="42.610259000" lon="-2.426314000">
        <ele>951.70</ele>
        <time>2016-10-15T07:58:00Z</time>
      </trkpt>
      <trkpt lat="42.610250000" lon="-2.426299000">
        <ele>952.10</ele>
        <time>2016-10-15T07:58:01Z</time>
      </trkpt>
      <trkpt lat="42.610243000" lon="-2.426283000">
        <ele>952.30</ele>
        <time>2016-10-15T07:58:02Z</time>
      </trkpt>
      <trkpt lat="42.610234000" lon="-2.426264000">
        <ele>952.60</ele>
        <time>2016-10-15T07:58:03Z</time>
      </trkpt>
      <trkpt lat="42.610230000" lon="-2.426244000">
        <ele>952.80</ele>
        <time>2016-10-15T07:58:04Z</time>
      </trkpt>
      <trkpt lat="42.610224000" lon="-2.426223000">
        <ele>953.00</ele>
        <time>2016-10-15T07:58:05Z</time>
      </trkpt>
      <trkpt lat="42.610218000" lon="-2.426203000">
        <ele>953.20</ele>
        <time>2016-10-15T07:58:06Z</time>
      </trkpt>
      <trkpt lat="42.610213000" lon="-2.426184000">
        <ele>953.50</ele>
        <time>2016-10-15T07:58:07Z</time>
      </trkpt>
      <trkpt lat="42.610205000" lon="-2.426165000">
        <ele>953.70</ele>
        <time>2016-10-15T07:58:08Z</time>
      </trkpt>
      <trkpt lat="42.610198000" lon="-2.426149000">
        <ele>953.80</ele>
        <time>2016-10-15T07:58:09Z</time>
      </trkpt>
      <trkpt lat="42.610192000" lon="-2.426131000">
        <ele>953.90</ele>
        <time>2016-10-15T07:58:10Z</time>
      </trkpt>
      <trkpt lat="42.610184000" lon="-2.426112000">
        <ele>954.30</ele>
        <time>2016-10-15T07:58:11Z</time>
      </trkpt>
      <trkpt lat="42.610180000" lon="-2.426092000">
        <ele>954.50</ele>
        <time>2016-10-15T07:58:12Z</time>
      </trkpt>
      <trkpt lat="42.610173000" lon="-2.426076000">
        <ele>954.80</ele>
        <time>2016-10-15T07:58:13Z</time>
      </trkpt>
      <trkpt lat="42.610165000" lon="-2.426059000">
        <ele>955.00</ele>
        <time>2016-10-15T07:58:14Z</time>
      </trkpt>
      <trkpt lat="42.610160000" lon="-2.426041000">
        <ele>955.20</ele>
        <time>2016-10-15T07:58:15Z</time>
      </trkpt>
      <trkpt lat="42.610152000" lon="-2.426025000">
        <ele>955.30</ele>
        <time>2016-10-15T07:58:16Z</time>
      </trkpt>
      <trkpt lat="42.610143000" lon="-2.426009000">
        <ele>955.50</ele>
        <time>2016-10-15T07:58:17Z</time>
      </trkpt>
      <trkpt lat="42.610140000" lon="-2.425990000">
        <ele>955.50</ele>
        <time>2016-10-15T07:58:18Z</time>
      </trkpt>
      <trkpt lat="42.610133000" lon="-2.425967000">
        <ele>955.70</ele>
        <time>2016-10-15T07:58:19Z</time>
      </trkpt>
      <trkpt lat="42.610126000" lon="-2.425950000">
        <ele>955.80</ele>
        <time>2016-10-15T07:58:20Z</time>
      </trkpt>
      <trkpt lat="42.610121000" lon="-2.425932000">
        <ele>956.00</ele>
        <time>2016-10-15T07:58:21Z</time>
      </trkpt>
      <trkpt lat="42.610116000" lon="-2.425918000">
        <ele>956.30</ele>
        <time>2016-10-15T07:58:22Z</time>
      </trkpt>
      <trkpt lat="42.610108000" lon="-2.425902000">
        <ele>956.50</ele>
        <time>2016-10-15T07:58:23Z</time>
      </trkpt>
      <trkpt lat="42.610102000" lon="-2.425885000">
        <ele>956.70</ele>
        <time>2016-10-15T07:58:24Z</time>
      </trkpt>
      <trkpt lat="42.610092000" lon="-2.425866000">
        <ele>956.70</ele>
        <time>2016-10-15T07:58:25Z</time>
      </trkpt>
      <trkpt lat="42.610078000" lon="-2.425829000">
        <ele>957.40</ele>
        <time>2016-10-15T07:58:27Z</time>
      </trkpt>
      <trkpt lat="42.610072000" lon="-2.425810000">
        <ele>957.70</ele>
        <time>2016-10-15T07:58:28Z</time>
      </trkpt>
      <trkpt lat="42.610067000" lon="-2.425788000">
        <ele>958.00</ele>
        <time>2016-10-15T07:58:29Z</time>
      </trkpt>
      <trkpt lat="42.610061000" lon="-2.425767000">
        <ele>958.30</ele>
        <time>2016-10-15T07:58:30Z</time>
      </trkpt>
      <trkpt lat="42.610051000" lon="-2.425751000">
        <ele>958.50</ele>
        <time>2016-10-15T07:58:31Z</time>
      </trkpt>
      <trkpt lat="42.610042000" lon="-2.425733000">
        <ele>958.60</ele>
        <time>2016-10-15T07:58:32Z</time>
      </trkpt>
      <trkpt lat="42.610034000" lon="-2.425715000">
        <ele>958.70</ele>
        <time>2016-10-15T07:58:33Z</time>
      </trkpt>
      <trkpt lat="42.610025000" lon="-2.425700000">
        <ele>958.80</ele>
        <time>2016-10-15T07:58:34Z</time>
      </trkpt>
      <trkpt lat="42.610018000" lon="-2.425681000">
        <ele>958.90</ele>
        <time>2016-10-15T07:58:35Z</time>
      </trkpt>
      <trkpt lat="42.610010000" lon="-2.425666000">
        <ele>959.30</ele>
        <time>2016-10-15T07:58:36Z</time>
      </trkpt>
      <trkpt lat="42.610000000" lon="-2.425649000">
        <ele>959.50</ele>
        <time>2016-10-15T07:58:37Z</time>
      </trkpt>
      <trkpt lat="42.609991000" lon="-2.425631000">
        <ele>959.70</ele>
        <time>2016-10-15T07:58:38Z</time>
      </trkpt>
      <trkpt lat="42.609984000" lon="-2.425615000">
        <ele>959.90</ele>
        <time>2016-10-15T07:58:39Z</time>
      </trkpt>
      <trkpt lat="42.609979000" lon="-2.425596000">
        <ele>960.10</ele>
        <time>2016-10-15T07:58:40Z</time>
      </trkpt>
      <trkpt lat="42.609972000" lon="-2.425576000">
        <ele>960.30</ele>
        <time>2016-10-15T07:58:41Z</time>
      </trkpt>
      <trkpt lat="42.609965000" lon="-2.425552000">
        <ele>960.50</ele>
        <time>2016-10-15T07:58:42Z</time>
      </trkpt>
      <trkpt lat="42.609960000" lon="-2.425532000">
        <ele>960.60</ele>
        <time>2016-10-15T07:58:43Z</time>
      </trkpt>
      <trkpt lat="42.609953000" lon="-2.425508000">
        <ele>960.80</ele>
        <time>2016-10-15T07:58:44Z</time>
      </trkpt>
      <trkpt lat="42.609947000" lon="-2.425486000">
        <ele>961.00</ele>
        <time>2016-10-15T07:58:45Z</time>
      </trkpt>
      <trkpt lat="42.609941000" lon="-2.425463000">
        <ele>961.30</ele>
        <time>2016-10-15T07:58:46Z</time>
      </trkpt>
      <trkpt lat="42.609933000" lon="-2.425443000">
        <ele>961.50</ele>
        <time>2016-10-15T07:58:47Z</time>
      </trkpt>
      <trkpt lat="42.609925000" lon="-2.425424000">
        <ele>961.80</ele>
        <time>2016-10-15T07:58:48Z</time>
      </trkpt>
      <trkpt lat="42.609916000" lon="-2.425404000">
        <ele>962.00</ele>
        <time>2016-10-15T07:58:49Z</time>
      </trkpt>
      <trkpt lat="42.609908000" lon="-2.425385000">
        <ele>962.20</ele>
        <time>2016-10-15T07:58:50Z</time>
      </trkpt>
      <trkpt lat="42.609901000" lon="-2.425366000">
        <ele>962.30</ele>
        <time>2016-10-15T07:58:51Z</time>
      </trkpt>
      <trkpt lat="42.609892000" lon="-2.425351000">
        <ele>962.50</ele>
        <time>2016-10-15T07:58:52Z</time>
      </trkpt>
      <trkpt lat="42.609884000" lon="-2.425339000">
        <ele>962.70</ele>
        <time>2016-10-15T07:58:53Z</time>
      </trkpt>
      <trkpt lat="42.609875000" lon="-2.425325000">
        <ele>963.10</ele>
        <time>2016-10-15T07:58:54Z</time>
      </trkpt>
      <trkpt lat="42.609868000" lon="-2.425309000">
        <ele>963.30</ele>
        <time>2016-10-15T07:58:55Z</time>
      </trkpt>
      <trkpt lat="42.609864000" lon="-2.425293000">
        <ele>963.60</ele>
        <time>2016-10-15T07:58:56Z</time>
      </trkpt>
      <trkpt lat="42.609861000" lon="-2.425274000">
        <ele>963.80</ele>
        <time>2016-10-15T07:58:57Z</time>
      </trkpt>
      <trkpt lat="42.609856000" lon="-2.425254000">
        <ele>964.10</ele>
        <time>2016-10-15T07:58:58Z</time>
      </trkpt>
      <trkpt lat="42.609851000" lon="-2.425235000">
        <ele>964.20</ele>
        <time>2016-10-15T07:58:59Z</time>
      </trkpt>
      <trkpt lat="42.609845000" lon="-2.425216000">
        <ele>964.40</ele>
        <time>2016-10-15T07:59:00Z</time>
      </trkpt>
      <trkpt lat="42.609839000" lon="-2.425202000">
        <ele>964.60</ele>
        <time>2016-10-15T07:59:01Z</time>
      </trkpt>
      <trkpt lat="42.609833000" lon="-2.425188000">
        <ele>964.70</ele>
        <time>2016-10-15T07:59:02Z</time>
      </trkpt>
      <trkpt lat="42.609829000" lon="-2.425169000">
        <ele>964.80</ele>
        <time>2016-10-15T07:59:03Z</time>
      </trkpt>
      <trkpt lat="42.609823000" lon="-2.425150000">
        <ele>964.90</ele>
        <time>2016-10-15T07:59:04Z</time>
      </trkpt>
      <trkpt lat="42.609818000" lon="-2.425131000">
        <ele>965.00</ele>
        <time>2016-10-15T07:59:05Z</time>
      </trkpt>
      <trkpt lat="42.609808000" lon="-2.425115000">
        <ele>965.30</ele>
        <time>2016-10-15T07:59:06Z</time>
      </trkpt>
      <trkpt lat="42.609800000" lon="-2.425094000">
        <ele>965.60</ele>
        <time>2016-10-15T07:59:07Z</time>
      </trkpt>
      <trkpt lat="42.609793000" lon="-2.425072000">
        <ele>965.90</ele>
        <time>2016-10-15T07:59:08Z</time>
      </trkpt>
      <trkpt lat="42.609785000" lon="-2.425052000">
        <ele>966.20</ele>
        <time>2016-10-15T07:59:09Z</time>
      </trkpt>
      <trkpt lat="42.609778000" lon="-2.425033000">
        <ele>966.40</ele>
        <time>2016-10-15T07:59:10Z</time>
      </trkpt>
      <trkpt lat="42.609770000" lon="-2.425014000">
        <ele>966.50</ele>
        <time>2016-10-15T07:59:11Z</time>
      </trkpt>
      <trkpt lat="42.609766000" lon="-2.424995000">
        <ele>966.80</ele>
        <time>2016-10-15T07:59:12Z</time>
      </trkpt>
      <trkpt lat="42.609763000" lon="-2.424974000">
        <ele>967.00</ele>
        <time>2016-10-15T07:59:13Z</time>
      </trkpt>
      <trkpt lat="42.609759000" lon="-2.424954000">
        <ele>967.20</ele>
        <time>2016-10-15T07:59:14Z</time>
      </trkpt>
      <trkpt lat="42.609753000" lon="-2.424929000">
        <ele>967.40</ele>
        <time>2016-10-15T07:59:15Z</time>
      </trkpt>
      <trkpt lat="42.609749000" lon="-2.424909000">
        <ele>967.80</ele>
        <time>2016-10-15T07:59:16Z</time>
      </trkpt>
      <trkpt lat="42.609743000" lon="-2.424887000">
        <ele>968.00</ele>
        <time>2016-10-15T07:59:17Z</time>
      </trkpt>
      <trkpt lat="42.609735000" lon="-2.424867000">
        <ele>968.30</ele>
        <time>2016-10-15T07:59:18Z</time>
      </trkpt>
      <trkpt lat="42.609728000" lon="-2.424850000">
        <ele>968.50</ele>
        <time>2016-10-15T07:59:19Z</time>
      </trkpt>
      <trkpt lat="42.609721000" lon="-2.424832000">
        <ele>968.60</ele>
        <time>2016-10-15T07:59:20Z</time>
      </trkpt>
      <trkpt lat="42.609712000" lon="-2.424815000">
        <ele>968.70</ele>
        <time>2016-10-15T07:59:21Z</time>
      </trkpt>
      <trkpt lat="42.609709000" lon="-2.424798000">
        <ele>968.90</ele>
        <time>2016-10-15T07:59:22Z</time>
      </trkpt>
      <trkpt lat="42.609706000" lon="-2.424777000">
        <ele>969.00</ele>
        <time>2016-10-15T07:59:23Z</time>
      </trkpt>
      <trkpt lat="42.609697000" lon="-2.424757000">
        <ele>969.10</ele>
        <time>2016-10-15T07:59:24Z</time>
      </trkpt>
      <trkpt lat="42.609689000" lon="-2.424737000">
        <ele>969.10</ele>
        <time>2016-10-15T07:59:25Z</time>
      </trkpt>
      <trkpt lat="42.609681000" lon="-2.424723000">
        <ele>969.20</ele>
        <time>2016-10-15T07:59:26Z</time>
      </trkpt>
      <trkpt lat="42.609672000" lon="-2.424713000">
        <ele>969.30</ele>
        <time>2016-10-15T07:59:27Z</time>
      </trkpt>
      <trkpt lat="42.609666000" lon="-2.424691000">
        <ele>969.40</ele>
        <time>2016-10-15T07:59:28Z</time>
      </trkpt>
      <trkpt lat="42.609653000" lon="-2.424644000">
        <ele>969.60</ele>
        <time>2016-10-15T07:59:30Z</time>
      </trkpt>
      <trkpt lat="42.609650000" lon="-2.424622000">
        <ele>969.70</ele>
        <time>2016-10-15T07:59:31Z</time>
      </trkpt>
      <trkpt lat="42.609647000" lon="-2.424600000">
        <ele>969.90</ele>
        <time>2016-10-15T07:59:32Z</time>
      </trkpt>
      <trkpt lat="42.609639000" lon="-2.424577000">
        <ele>970.10</ele>
        <time>2016-10-15T07:59:33Z</time>
      </trkpt>
      <trkpt lat="42.609632000" lon="-2.424555000">
        <ele>970.30</ele>
        <time>2016-10-15T07:59:34Z</time>
      </trkpt>
      <trkpt lat="42.609625000" lon="-2.424533000">
        <ele>970.40</ele>
        <time>2016-10-15T07:59:35Z</time>
      </trkpt>
      <trkpt lat="42.609618000" lon="-2.424509000">
        <ele>970.60</ele>
        <time>2016-10-15T07:59:36Z</time>
      </trkpt>
      <trkpt lat="42.609607000" lon="-2.424488000">
        <ele>970.70</ele>
        <time>2016-10-15T07:59:37Z</time>
      </trkpt>
      <trkpt lat="42.609596000" lon="-2.424469000">
        <ele>970.80</ele>
        <time>2016-10-15T07:59:38Z</time>
      </trkpt>
      <trkpt lat="42.609587000" lon="-2.424451000">
        <ele>970.90</ele>
        <time>2016-10-15T07:59:39Z</time>
      </trkpt>
      <trkpt lat="42.609580000" lon="-2.424428000">
        <ele>971.00</ele>
        <time>2016-10-15T07:59:40Z</time>
      </trkpt>
      <trkpt lat="42.609571000" lon="-2.424408000">
        <ele>971.00</ele>
        <time>2016-10-15T07:59:41Z</time>
      </trkpt>
      <trkpt lat="42.609563000" lon="-2.424386000">
        <ele>971.10</ele>
        <time>2016-10-15T07:59:42Z</time>
      </trkpt>
      <trkpt lat="42.609553000" lon="-2.424367000">
        <ele>971.20</ele>
        <time>2016-10-15T07:59:43Z</time>
      </trkpt>
      <trkpt lat="42.609544000" lon="-2.424347000">
        <ele>971.30</ele>
        <time>2016-10-15T07:59:44Z</time>
      </trkpt>
      <trkpt lat="42.609536000" lon="-2.424328000">
        <ele>971.40</ele>
        <time>2016-10-15T07:59:45Z</time>
      </trkpt>
      <trkpt lat="42.609523000" lon="-2.424312000">
        <ele>971.50</ele>
        <time>2016-10-15T07:59:46Z</time>
      </trkpt>
      <trkpt lat="42.609509000" lon="-2.424292000">
        <ele>971.50</ele>
        <time>2016-10-15T07:59:47Z</time>
      </trkpt>
      <trkpt lat="42.609498000" lon="-2.424269000">
        <ele>971.60</ele>
        <time>2016-10-15T07:59:48Z</time>
      </trkpt>
      <trkpt lat="42.609487000" lon="-2.424252000">
        <ele>971.70</ele>
        <time>2016-10-15T07:59:49Z</time>
      </trkpt>
      <trkpt lat="42.609475000" lon="-2.424239000">
        <ele>971.90</ele>
        <time>2016-10-15T07:59:50Z</time>
      </trkpt>
      <trkpt lat="42.609463000" lon="-2.424222000">
        <ele>972.10</ele>
        <time>2016-10-15T07:59:51Z</time>
      </trkpt>
      <trkpt lat="42.609451000" lon="-2.424202000">
        <ele>972.20</ele>
        <time>2016-10-15T07:59:52Z</time>
      </trkpt>
      <trkpt lat="42.609438000" lon="-2.424186000">
        <ele>972.30</ele>
        <time>2016-10-15T07:59:53Z</time>
      </trkpt>
      <trkpt lat="42.609425000" lon="-2.424172000">
        <ele>972.50</ele>
        <time>2016-10-15T07:59:54Z</time>
      </trkpt>
      <trkpt lat="42.609413000" lon="-2.424155000">
        <ele>972.60</ele>
        <time>2016-10-15T07:59:55Z</time>
      </trkpt>
      <trkpt lat="42.609398000" lon="-2.424141000">
        <ele>972.80</ele>
        <time>2016-10-15T07:59:56Z</time>
      </trkpt>
      <trkpt lat="42.609385000" lon="-2.424124000">
        <ele>972.90</ele>
        <time>2016-10-15T07:59:57Z</time>
      </trkpt>
      <trkpt lat="42.609370000" lon="-2.424112000">
        <ele>973.00</ele>
        <time>2016-10-15T07:59:58Z</time>
      </trkpt>
      <trkpt lat="42.609358000" lon="-2.424099000">
        <ele>973.00</ele>
        <time>2016-10-15T07:59:59Z</time>
      </trkpt>
      <trkpt lat="42.609345000" lon="-2.424086000">
        <ele>973.30</ele>
        <time>2016-10-15T08:00:00Z</time>
      </trkpt>
      <trkpt lat="42.609332000" lon="-2.424069000">
        <ele>973.50</ele>
        <time>2016-10-15T08:00:01Z</time>
      </trkpt>
      <trkpt lat="42.609317000" lon="-2.424052000">
        <ele>973.60</ele>
        <time>2016-10-15T08:00:02Z</time>
      </trkpt>
      <trkpt lat="42.609302000" lon="-2.424037000">
        <ele>973.70</ele>
        <time>2016-10-15T08:00:03Z</time>
      </trkpt>
      <trkpt lat="42.609287000" lon="-2.424017000">
        <ele>973.80</ele>
        <time>2016-10-15T08:00:04Z</time>
      </trkpt>
      <trkpt lat="42.609273000" lon="-2.423998000">
        <ele>973.90</ele>
        <time>2016-10-15T08:00:05Z</time>
      </trkpt>
      <trkpt lat="42.609258000" lon="-2.423984000">
        <ele>974.00</ele>
        <time>2016-10-15T08:00:06Z</time>
      </trkpt>
      <trkpt lat="42.609241000" lon="-2.423967000">
        <ele>974.10</ele>
        <time>2016-10-15T08:00:07Z</time>
      </trkpt>
      <trkpt lat="42.609225000" lon="-2.423952000">
        <ele>974.10</ele>
        <time>2016-10-15T08:00:08Z</time>
      </trkpt>
      <trkpt lat="42.609208000" lon="-2.423938000">
        <ele>974.20</ele>
        <time>2016-10-15T08:00:09Z</time>
      </trkpt>
      <trkpt lat="42.609191000" lon="-2.423924000">
        <ele>974.30</ele>
        <time>2016-10-15T08:00:10Z</time>
      </trkpt>
      <trkpt lat="42.609174000" lon="-2.423911000">
        <ele>974.30</ele>
        <time>2016-10-15T08:00:11Z</time>
      </trkpt>
      <trkpt lat="42.609155000" lon="-2.423896000">
        <ele>974.70</ele>
        <time>2016-10-15T08:00:12Z</time>
      </trkpt>
      <trkpt lat="42.609137000" lon="-2.423886000">
        <ele>974.90</ele>
        <time>2016-10-15T08:00:13Z</time>
      </trkpt>
      <trkpt lat="42.609121000" lon="-2.423872000">
        <ele>975.10</ele>
        <time>2016-10-15T08:00:14Z</time>
      </trkpt>
      <trkpt lat="42.609104000" lon="-2.423859000">
        <ele>975.20</ele>
        <time>2016-10-15T08:00:15Z</time>
      </trkpt>
      <trkpt lat="42.609087000" lon="-2.423846000">
        <ele>975.20</ele>
        <time>2016-10-15T08:00:16Z</time>
      </trkpt>
      <trkpt lat="42.609067000" lon="-2.423836000">
        <ele>975.10</ele>
        <time>2016-10-15T08:00:17Z</time>
      </trkpt>
      <trkpt lat="42.609049000" lon="-2.423826000">
        <ele>975.10</ele>
        <time>2016-10-15T08:00:18Z</time>
      </trkpt>
      <trkpt lat="42.609030000" lon="-2.423816000">
        <ele>975.10</ele>
        <time>2016-10-15T08:00:19Z</time>
      </trkpt>
      <trkpt lat="42.609012000" lon="-2.423802000">
        <ele>975.10</ele>
        <time>2016-10-15T08:00:20Z</time>
      </trkpt>
      <trkpt lat="42.608992000" lon="-2.423790000">
        <ele>975.20</ele>
        <time>2016-10-15T08:00:21Z</time>
      </trkpt>
      <trkpt lat="42.608971000" lon="-2.423784000">
        <ele>975.40</ele>
        <time>2016-10-15T08:00:22Z</time>
      </trkpt>
      <trkpt lat="42.608952000" lon="-2.423775000">
        <ele>975.60</ele>
        <time>2016-10-15T08:00:23Z</time>
      </trkpt>
      <trkpt lat="42.608934000" lon="-2.423770000">
        <ele>975.60</ele>
        <time>2016-10-15T08:00:24Z</time>
      </trkpt>
      <trkpt lat="42.608914000" lon="-2.423764000">
        <ele>975.70</ele>
        <time>2016-10-15T08:00:25Z</time>
      </trkpt>
      <trkpt lat="42.608892000" lon="-2.423758000">
        <ele>975.70</ele>
        <time>2016-10-15T08:00:26Z</time>
      </trkpt>
      <trkpt lat="42.608868000" lon="-2.423744000">
        <ele>975.70</ele>
        <time>2016-10-15T08:00:27Z</time>
      </trkpt>
      <trkpt lat="42.608844000" lon="-2.423731000">
        <ele>975.70</ele>
        <time>2016-10-15T08:00:28Z</time>
      </trkpt>
      <trkpt lat="42.608820000" lon="-2.423714000">
        <ele>975.80</ele>
        <time>2016-10-15T08:00:29Z</time>
      </trkpt>
      <trkpt lat="42.608797000" lon="-2.423698000">
        <ele>975.60</ele>
        <time>2016-10-15T08:00:30Z</time>
      </trkpt>
      <trkpt lat="42.608749000" lon="-2.423660000">
        <ele>975.50</ele>
        <time>2016-10-15T08:00:32Z</time>
      </trkpt>
      <trkpt lat="42.608726000" lon="-2.423640000">
        <ele>975.40</ele>
        <time>2016-10-15T08:00:33Z</time>
      </trkpt>
      <trkpt lat="42.608704000" lon="-2.423615000">
        <ele>975.40</ele>
        <time>2016-10-15T08:00:34Z</time>
      </trkpt>
      <trkpt lat="42.608681000" lon="-2.423583000">
        <ele>975.30</ele>
        <time>2016-10-15T08:00:35Z</time>
      </trkpt>
      <trkpt lat="42.608657000" lon="-2.423549000">
        <ele>975.30</ele>
        <time>2016-10-15T08:00:36Z</time>
      </trkpt>
      <trkpt lat="42.608641000" lon="-2.423515000">
        <ele>975.30</ele>
        <time>2016-10-15T08:00:37Z</time>
      </trkpt>
      <trkpt lat="42.608629000" lon="-2.423486000">
        <ele>974.90</ele>
        <time>2016-10-15T08:00:38Z</time>
      </trkpt>
      <trkpt lat="42.608620000" lon="-2.423464000">
        <ele>974.70</ele>
        <time>2016-10-15T08:00:39Z</time>
      </trkpt>
      <trkpt lat="42.608616000" lon="-2.423443000">
        <ele>974.40</ele>
        <time>2016-10-15T08:00:40Z</time>
      </trkpt>
      <trkpt lat="42.608613000" lon="-2.423421000">
        <ele>974.20</ele>
        <time>2016-10-15T08:00:41Z</time>
      </trkpt>
      <trkpt lat="42.608615000" lon="-2.423413000">
        <ele>974.10</ele>
        <time>2016-10-15T08:00:42Z</time>
      </trkpt>
      <trkpt lat="42.608609000" lon="-2.423406000">
        <ele>973.90</ele>
        <time>2016-10-15T08:00:43Z</time>
      </trkpt>
      <trkpt lat="42.608609000" lon="-2.423398000">
        <ele>973.90</ele>
        <time>2016-10-15T08:00:44Z</time>
      </trkpt>
      <trkpt lat="42.608606000" lon="-2.423394000">
        <ele>973.80</ele>
        <time>2016-10-15T08:00:45Z</time>
      </trkpt>
      <trkpt lat="42.608609000" lon="-2.423387000">
        <ele>973.80</ele>
        <time>2016-10-15T08:00:46Z</time>
      </trkpt>
      <trkpt lat="42.608611000" lon="-2.423384000">
        <ele>973.80</ele>
        <time>2016-10-15T08:00:47Z</time>
      </trkpt>
      <trkpt lat="42.608613000" lon="-2.423385000">
        <ele>973.90</ele>
        <time>2016-10-15T08:00:48Z</time>
      </trkpt>
      <trkpt lat="42.608615000" lon="-2.423384000">
        <ele>974.00</ele>
        <time>2016-10-15T08:00:49Z</time>
      </trkpt>
      <trkpt lat="42.608618000" lon="-2.423381000">
        <ele>974.10</ele>
        <time>2016-10-15T08:00:50Z</time>
      </trkpt>
      <trkpt lat="42.608619000" lon="-2.423376000">
        <ele>974.20</ele>
        <time>2016-10-15T08:00:51Z</time>
      </trkpt>
      <trkpt lat="42.608620000" lon="-2.423375000">
        <ele>974.20</ele>
        <time>2016-10-15T08:00:52Z</time>
      </trkpt>
      <trkpt lat="42.608619000" lon="-2.423375000">
        <ele>974.20</ele>
        <time>2016-10-15T08:00:53Z</time>
      </trkpt>
      <trkpt lat="42.608619000" lon="-2.423382000">
        <ele>974.10</ele>
        <time>2016-10-15T08:00:54Z</time>
      </trkpt>
      <trkpt lat="42.608620000" lon="-2.423387000">
        <ele>973.90</ele>
        <time>2016-10-15T08:00:55Z</time>
      </trkpt>
      <trkpt lat="42.608623000" lon="-2.423388000">
        <ele>973.80</ele>
        <time>2016-10-15T08:00:56Z</time>
      </trkpt>
      <trkpt lat="42.608628000" lon="-2.423384000">
        <ele>973.70</ele>
        <time>2016-10-15T08:00:57Z</time>
      </trkpt>
      <trkpt lat="42.608634000" lon="-2.423382000">
        <ele>973.70</ele>
        <time>2016-10-15T08:00:58Z</time>
      </trkpt>
      <trkpt lat="42.608637000" lon="-2.423379000">
        <ele>973.60</ele>
        <time>2016-10-15T08:00:59Z</time>
      </trkpt>
      <trkpt lat="42.608638000" lon="-2.423378000">
        <ele>973.60</ele>
        <time>2016-10-15T08:01:00Z</time>
      </trkpt>
      <trkpt lat="42.608638000" lon="-2.423378000">
        <ele>973.60</ele>
        <time>2016-10-15T08:01:01Z</time>
      </trkpt>
      <trkpt lat="42.608643000" lon="-2.423378000">
        <ele>973.50</ele>
        <time>2016-10-15T08:01:02Z</time>
      </trkpt>
      <trkpt lat="42.608646000" lon="-2.423377000">
        <ele>973.40</ele>
        <time>2016-10-15T08:01:03Z</time>
      </trkpt>
      <trkpt lat="42.608649000" lon="-2.423372000">
        <ele>973.20</ele>
        <time>2016-10-15T08:01:04Z</time>
      </trkpt>
      <trkpt lat="42.608651000" lon="-2.423372000">
        <ele>973.10</ele>
        <time>2016-10-15T08:01:05Z</time>
      </trkpt>
      <trkpt lat="42.608651000" lon="-2.423367000">
        <ele>973.00</ele>
        <time>2016-10-15T08:01:06Z</time>
      </trkpt>
      <trkpt lat="42.608650000" lon="-2.423365000">
        <ele>972.90</ele>
        <time>2016-10-15T08:01:07Z</time>
      </trkpt>
      <trkpt lat="42.608648000" lon="-2.423362000">
        <ele>972.90</ele>
        <time>2016-10-15T08:01:08Z</time>
      </trkpt>
      <trkpt lat="42.608648000" lon="-2.423360000">
        <ele>972.90</ele>
        <time>2016-10-15T08:01:09Z</time>
      </trkpt>
      <trkpt lat="42.608645000" lon="-2.423359000">
        <ele>973.00</ele>
        <time>2016-10-15T08:01:10Z</time>
      </trkpt>
      <trkpt lat="42.608643000" lon="-2.423355000">
        <ele>973.00</ele>
        <time>2016-10-15T08:01:11Z</time>
      </trkpt>
      <trkpt lat="42.608645000" lon="-2.423358000">
        <ele>973.10</ele>
        <time>2016-10-15T08:01:12Z</time>
      </trkpt>
      <trkpt lat="42.608642000" lon="-2.423361000">
        <ele>973.20</ele>
        <time>2016-10-15T08:01:13Z</time>
      </trkpt>
      <trkpt lat="42.608637000" lon="-2.423364000">
        <ele>973.20</ele>
        <time>2016-10-15T08:01:14Z</time>
      </trkpt>
      <trkpt lat="42.608635000" lon="-2.423363000">
        <ele>973.30</ele>
        <time>2016-10-15T08:01:15Z</time>
      </trkpt>
      <trkpt lat="42.608631000" lon="-2.423365000">
        <ele>973.30</ele>
        <time>2016-10-15T08:01:16Z</time>
      </trkpt>
      <trkpt lat="42.608627000" lon="-2.423367000">
        <ele>973.30</ele>
        <time>2016-10-15T08:01:17Z</time>
      </trkpt>
      <trkpt lat="42.608624000" lon="-2.423369000">
        <ele>973.40</ele>
        <time>2016-10-15T08:01:18Z</time>
      </trkpt>
      <trkpt lat="42.608621000" lon="-2.423370000">
        <ele>973.40</ele>
        <time>2016-10-15T08:01:19Z</time>
      </trkpt>
      <trkpt lat="42.608617000" lon="-2.423372000">
        <ele>973.30</ele>
        <time>2016-10-15T08:01:20Z</time>
      </trkpt>
      <trkpt lat="42.608614000" lon="-2.423374000">
        <ele>973.30</ele>
        <time>2016-10-15T08:01:21Z</time>
      </trkpt>
      <trkpt lat="42.608613000" lon="-2.423373000">
        <ele>973.30</ele>
        <time>2016-10-15T08:01:22Z</time>
      </trkpt>
      <trkpt lat="42.608611000" lon="-2.423371000">
        <ele>973.30</ele>
        <time>2016-10-15T08:01:23Z</time>
      </trkpt>
      <trkpt lat="42.608614000" lon="-2.423373000">
        <ele>973.40</ele>
        <time>2016-10-15T08:01:24Z</time>
      </trkpt>
      <trkpt lat="42.608611000" lon="-2.423376000">
        <ele>973.40</ele>
        <time>2016-10-15T08:01:25Z</time>
      </trkpt>
      <trkpt lat="42.608610000" lon="-2.423376000">
        <ele>973.50</ele>
        <time>2016-10-15T08:01:26Z</time>
      </trkpt>
      <trkpt lat="42.608608000" lon="-2.423379000">
        <ele>973.50</ele>
        <time>2016-10-15T08:01:27Z</time>
      </trkpt>
      <trkpt lat="42.608609000" lon="-2.423374000">
        <ele>973.60</ele>
        <time>2016-10-15T08:01:28Z</time>
      </trkpt>
      <trkpt lat="42.608611000" lon="-2.423372000">
        <ele>973.60</ele>
        <time>2016-10-15T08:01:29Z</time>
      </trkpt>
      <trkpt lat="42.608611000" lon="-2.423371000">
        <ele>973.60</ele>
        <time>2016-10-15T08:01:30Z</time>
      </trkpt>
      <trkpt lat="42.608607000" lon="-2.423375000">
        <ele>973.60</ele>
        <time>2016-10-15T08:01:31Z</time>
      </trkpt>
      <trkpt lat="42.608602000" lon="-2.423376000">
        <ele>973.60</ele>
        <time>2016-10-15T08:01:32Z</time>
      </trkpt>
      <trkpt lat="42.608597000" lon="-2.423372000">
        <ele>973.40</ele>
        <time>2016-10-15T08:01:34Z</time>
      </trkpt>
      <trkpt lat="42.608595000" lon="-2.423363000">
        <ele>973.40</ele>
        <time>2016-10-15T08:01:35Z</time>
      </trkpt>
      <trkpt lat="42.608592000" lon="-2.423351000">
        <ele>973.20</ele>
        <time>2016-10-15T08:01:36Z</time>
      </trkpt>
      <trkpt lat="42.608586000" lon="-2.423330000">
        <ele>973.10</ele>
        <time>2016-10-15T08:01:37Z</time>
      </trkpt>
      <trkpt lat="42.608583000" lon="-2.423306000">
        <ele>973.10</ele>
        <time>2016-10-15T08:01:38Z</time>
      </trkpt>
      <trkpt lat="42.608576000" lon="-2.423280000">
        <ele>973.10</ele>
        <time>2016-10-15T08:01:39Z</time>
      </trkpt>
      <trkpt lat="42.608569000" lon="-2.423251000">
        <ele>972.90</ele>
        <time>2016-10-15T08:01:40Z</time>
      </trkpt>
      <trkpt lat="42.608561000" lon="-2.423217000">
        <ele>972.80</ele>
        <time>2016-10-15T08:01:41Z</time>
      </trkpt>
      <trkpt lat="42.608553000" lon="-2.423180000">
        <ele>972.70</ele>
        <time>2016-10-15T08:01:42Z</time>
      </trkpt>
      <trkpt lat="42.608543000" lon="-2.423140000">
        <ele>972.60</ele>
        <time>2016-10-15T08:01:43Z</time>
      </trkpt>
      <trkpt lat="42.608533000" lon="-2.423097000">
        <ele>972.40</ele>
        <time>2016-10-15T08:01:44Z</time>
      </trkpt>
      <trkpt lat="42.608525000" lon="-2.423053000">
        <ele>972.30</ele>
        <time>2016-10-15T08:01:45Z</time>
      </trkpt>
      <trkpt lat="42.608517000" lon="-2.423004000">
        <ele>972.10</ele>
        <time>2016-10-15T08:01:46Z</time>
      </trkpt>
      <trkpt lat="42.608505000" lon="-2.422954000">
        <ele>971.90</ele>
        <time>2016-10-15T08:01:47Z</time>
      </trkpt>
      <trkpt lat="42.608495000" lon="-2.422900000">
        <ele>971.70</ele>
        <time>2016-10-15T08:01:48Z</time>
      </trkpt>
      <trkpt lat="42.608484000" lon="-2.422846000">
        <ele>971.60</ele>
        <time>2016-10-15T08:01:49Z</time>
      </trkpt>
      <trkpt lat="42.608471000" lon="-2.422789000">
        <ele>971.40</ele>
        <time>2016-10-15T08:01:50Z</time>
      </trkpt>
      <trkpt lat="42.608457000" lon="-2.422728000">
        <ele>971.30</ele>
        <time>2016-10-15T08:01:51Z</time>
      </trkpt>
      <trkpt lat="42.608444000" lon="-2.422664000">
        <ele>971.10</ele>
        <time>2016-10-15T08:01:52Z</time>
      </trkpt>
      <trkpt lat="42.608429000" lon="-2.422599000">
        <ele>971.00</ele>
        <time>2016-10-15T08:01:53Z</time>
      </trkpt>
      <trkpt lat="42.608416000" lon="-2.422533000">
        <ele>970.90</ele>
        <time>2016-10-15T08:01:54Z</time>
      </trkpt>
      <trkpt lat="42.608402000" lon="-2.422464000">
        <ele>970.80</ele>
        <time>2016-10-15T08:01:55Z</time>
      </trkpt>
      <trkpt lat="42.608387000" lon="-2.422395000">
        <ele>970.70</ele>
        <time>2016-10-15T08:01:56Z</time>
      </trkpt>
      <trkpt lat="42.608377000" lon="-2.422326000">
        <ele>970.60</ele>
        <time>2016-10-15T08:01:57Z</time>
      </trkpt>
      <trkpt lat="42.608366000" lon="-2.422260000">
        <ele>970.40</ele>
        <time>2016-10-15T08:01:58Z</time>
      </trkpt>
      <trkpt lat="42.608354000" lon="-2.422194000">
        <ele>970.20</ele>
        <time>2016-10-15T08:01:59Z</time>
      </trkpt>
      <trkpt lat="42.608343000" lon="-2.422129000">
        <ele>970.10</ele>
        <time>2016-10-15T08:02:00Z</time>
      </trkpt>
      <trkpt lat="42.608331000" lon="-2.422067000">
        <ele>970.00</ele>
        <time>2016-10-15T08:02:01Z</time>
      </trkpt>
      <trkpt lat="42.608321000" lon="-2.422007000">
        <ele>969.90</ele>
        <time>2016-10-15T08:02:02Z</time>
      </trkpt>
      <trkpt lat="42.608309000" lon="-2.421948000">
        <ele>969.80</ele>
        <time>2016-10-15T08:02:03Z</time>
      </trkpt>
      <trkpt lat="42.608298000" lon="-2.421889000">
        <ele>969.50</ele>
        <time>2016-10-15T08:02:04Z</time>
      </trkpt>
      <trkpt lat="42.608289000" lon="-2.421831000">
        <ele>969.30</ele>
        <time>2016-10-15T08:02:05Z</time>
      </trkpt>
      <trkpt lat="42.608279000" lon="-2.421772000">
        <ele>969.00</ele>
        <time>2016-10-15T08:02:06Z</time>
      </trkpt>
      <trkpt lat="42.608273000" lon="-2.421713000">
        <ele>968.90</ele>
        <time>2016-10-15T08:02:07Z</time>
      </trkpt>
      <trkpt lat="42.608263000" lon="-2.421654000">
        <ele>968.60</ele>
        <time>2016-10-15T08:02:08Z</time>
      </trkpt>
      <trkpt lat="42.608255000" lon="-2.421597000">
        <ele>968.50</ele>
        <time>2016-10-15T08:02:09Z</time>
      </trkpt>
      <trkpt lat="42.608248000" lon="-2.421534000">
        <ele>968.40</ele>
        <time>2016-10-15T08:02:10Z</time>
      </trkpt>
      <trkpt lat="42.608237000" lon="-2.421468000">
        <ele>968.30</ele>
        <time>2016-10-15T08:02:11Z</time>
      </trkpt>
      <trkpt lat="42.608227000" lon="-2.421402000">
        <ele>968.20</ele>
        <time>2016-10-15T08:02:12Z</time>
      </trkpt>
      <trkpt lat="42.608216000" lon="-2.421334000">
        <ele>968.10</ele>
        <time>2016-10-15T08:02:13Z</time>
      </trkpt>
      <trkpt lat="42.608204000" lon="-2.421265000">
        <ele>967.80</ele>
        <time>2016-10-15T08:02:14Z</time>
      </trkpt>
      <trkpt lat="42.608192000" lon="-2.421198000">
        <ele>967.60</ele>
        <time>2016-10-15T08:02:15Z</time>
      </trkpt>
      <trkpt lat="42.608179000" lon="-2.421136000">
        <ele>967.70</ele>
        <time>2016-10-15T08:02:16Z</time>
      </trkpt>
      <trkpt lat="42.608164000" lon="-2.421067000">
        <ele>967.70</ele>
        <time>2016-10-15T08:02:17Z</time>
      </trkpt>
      <trkpt lat="42.608145000" lon="-2.420999000">
        <ele>967.50</ele>
        <time>2016-10-15T08:02:18Z</time>
      </trkpt>
      <trkpt lat="42.608122000" lon="-2.420932000">
        <ele>967.40</ele>
        <time>2016-10-15T08:02:19Z</time>
      </trkpt>
      <trkpt lat="42.608098000" lon="-2.420861000">
        <ele>967.20</ele>
        <time>2016-10-15T08:02:20Z</time>
      </trkpt>
      <trkpt lat="42.608071000" lon="-2.420789000">
        <ele>966.90</ele>
        <time>2016-10-15T08:02:21Z</time>
      </trkpt>
      <trkpt lat="42.608044000" lon="-2.420712000">
        <ele>966.50</ele>
        <time>2016-10-15T08:02:22Z</time>
      </trkpt>
      <trkpt lat="42.608016000" lon="-2.420635000">
        <ele>966.10</ele>
        <time>2016-10-15T08:02:23Z</time>
      </trkpt>
      <trkpt lat="42.607987000" lon="-2.420561000">
        <ele>965.70</ele>
        <time>2016-10-15T08:02:24Z</time>
      </trkpt>
      <trkpt lat="42.607955000" lon="-2.420480000">
        <ele>965.40</ele>
        <time>2016-10-15T08:02:25Z</time>
      </trkpt>
      <trkpt lat="42.607922000" lon="-2.420396000">
        <ele>965.00</ele>
        <time>2016-10-15T08:02:26Z</time>
      </trkpt>
      <trkpt lat="42.607886000" lon="-2.420308000">
        <ele>964.60</ele>
        <time>2016-10-15T08:02:27Z</time>
      </trkpt>
      <trkpt lat="42.607855000" lon="-2.420216000">
        <ele>964.30</ele>
        <time>2016-10-15T08:02:28Z</time>
      </trkpt>
      <trkpt lat="42.607819000" lon="-2.420117000">
        <ele>964.00</ele>
        <time>2016-10-15T08:02:29Z</time>
      </trkpt>
      <trkpt lat="42.607783000" lon="-2.420017000">
        <ele>963.70</ele>
        <time>2016-10-15T08:02:30Z</time>
      </trkpt>
      <trkpt lat="42.607745000" lon="-2.419915000">
        <ele>963.50</ele>
        <time>2016-10-15T08:02:31Z</time>
      </trkpt>
      <trkpt lat="42.607708000" lon="-2.419810000">
        <ele>962.80</ele>
        <time>2016-10-15T08:02:32Z</time>
      </trkpt>
      <trkpt lat="42.607670000" lon="-2.419703000">
        <ele>962.30</ele>
        <time>2016-10-15T08:02:33Z</time>
      </trkpt>
      <trkpt lat="42.607635000" lon="-2.419597000">
        <ele>961.80</ele>
        <time>2016-10-15T08:02:34Z</time>
      </trkpt>
      <trkpt lat="42.607571000" lon="-2.419386000">
        <ele>960.90</ele>
        <time>2016-10-15T08:02:36Z</time>
      </trkpt>
      <trkpt lat="42.607537000" lon="-2.419277000">
        <ele>960.50</ele>
        <time>2016-10-15T08:02:37Z</time>
      </trkpt>
      <trkpt lat="42.607503000" lon="-2.419166000">
        <ele>959.80</ele>
        <time>2016-10-15T08:02:38Z</time>
      </trkpt>
      <trkpt lat="42.607470000" lon="-2.419055000">
        <ele>959.30</ele>
        <time>2016-10-15T08:02:39Z</time>
      </trkpt>
      <trkpt lat="42.607444000" lon="-2.418955000">
        <ele>958.40</ele>
        <time>2016-10-15T08:02:40Z</time>
      </trkpt>
      <trkpt lat="42.607421000" lon="-2.418864000">
        <ele>957.70</ele>
        <time>2016-10-15T08:02:41Z</time>
      </trkpt>
      <trkpt lat="42.607398000" lon="-2.418781000">
        <ele>956.70</ele>
        <time>2016-10-15T08:02:42Z</time>
      </trkpt>
      <trkpt lat="42.607375000" lon="-2.418696000">
        <ele>956.00</ele>
        <time>2016-10-15T08:02:43Z</time>
      </trkpt>
      <trkpt lat="42.607352000" lon="-2.418610000">
        <ele>955.00</ele>
        <time>2016-10-15T08:02:44Z</time>
      </trkpt>
      <trkpt lat="42.607329000" lon="-2.418528000">
        <ele>954.40</ele>
        <time>2016-10-15T08:02:45Z</time>
      </trkpt>
      <trkpt lat="42.607305000" lon="-2.418452000">
        <ele>953.90</ele>
        <time>2016-10-15T08:02:46Z</time>
      </trkpt>
      <trkpt lat="42.607283000" lon="-2.418380000">
        <ele>953.50</ele>
        <time>2016-10-15T08:02:47Z</time>
      </trkpt>
      <trkpt lat="42.607262000" lon="-2.418318000">
        <ele>953.30</ele>
        <time>2016-10-15T08:02:48Z</time>
      </trkpt>
      <trkpt lat="42.607246000" lon="-2.418266000">
        <ele>953.10</ele>
        <time>2016-10-15T08:02:49Z</time>
      </trkpt>
      <trkpt lat="42.607231000" lon="-2.418225000">
        <ele>953.10</ele>
        <time>2016-10-15T08:02:50Z</time>
      </trkpt>
      <trkpt lat="42.607213000" lon="-2.418191000">
        <ele>953.10</ele>
        <time>2016-10-15T08:02:51Z</time>
      </trkpt>
      <trkpt lat="42.607193000" lon="-2.418161000">
        <ele>953.10</ele>
        <time>2016-10-15T08:02:52Z</time>
      </trkpt>
      <trkpt lat="42.607170000" lon="-2.418142000">
        <ele>953.10</ele>
        <time>2016-10-15T08:02:53Z</time>
      </trkpt>
      <trkpt lat="42.607147000" lon="-2.418138000">
        <ele>953.20</ele>
        <time>2016-10-15T08:02:54Z</time>
      </trkpt>
      <trkpt lat="42.607123000" lon="-2.418147000">
        <ele>953.30</ele>
        <time>2016-10-15T08:02:55Z</time>
      </trkpt>
      <trkpt lat="42.607102000" lon="-2.418164000">
        <ele>953.10</ele>
        <time>2016-10-15T08:02:56Z</time>
      </trkpt>
      <trkpt lat="42.607084000" lon="-2.418183000">
        <ele>953.00</ele>
        <time>2016-10-15T08:02:57Z</time>
      </trkpt>
      <trkpt lat="42.607062000" lon="-2.418199000">
        <ele>952.90</ele>
        <time>2016-10-15T08:02:58Z</time>
      </trkpt>
      <trkpt lat="42.607041000" lon="-2.418222000">
        <ele>952.80</ele>
        <time>2016-10-15T08:02:59Z</time>
      </trkpt>
      <trkpt lat="42.607019000" lon="-2.418250000">
        <ele>952.70</ele>
        <time>2016-10-15T08:03:00Z</time>
      </trkpt>
      <trkpt lat="42.606996000" lon="-2.418284000">
        <ele>952.60</ele>
        <time>2016-10-15T08:03:01Z</time>
      </trkpt>
      <trkpt lat="42.606971000" lon="-2.418320000">
        <ele>952.60</ele>
        <time>2016-10-15T08:03:02Z</time>
      </trkpt>
      <trkpt lat="42.606945000" lon="-2.418353000">
        <ele>952.60</ele>
        <time>2016-10-15T08:03:03Z</time>
      </trkpt>
      <trkpt lat="42.606915000" lon="-2.418385000">
        <ele>952.40</ele>
        <time>2016-10-15T08:03:04Z</time>
      </trkpt>
      <trkpt lat="42.606886000" lon="-2.418416000">
        <ele>952.30</ele>
        <time>2016-10-15T08:03:05Z</time>
      </trkpt>
      <trkpt lat="42.606854000" lon="-2.418447000">
        <ele>952.20</ele>
        <time>2016-10-15T08:03:06Z</time>
      </trkpt>
      <trkpt lat="42.606824000" lon="-2.418468000">
        <ele>952.10</ele>
        <time>2016-10-15T08:03:07Z</time>
      </trkpt>
      <trkpt lat="42.606798000" lon="-2.418485000">
        <ele>952.00</ele>
        <time>2016-10-15T08:03:08Z</time>
      </trkpt>
      <trkpt lat="42.606770000" lon="-2.418508000">
        <ele>951.90</ele>
        <time>2016-10-15T08:03:09Z</time>
      </trkpt>
      <trkpt lat="42.606745000" lon="-2.418531000">
        <ele>951.60</ele>
        <time>2016-10-15T08:03:10Z</time>
      </trkpt>
      <trkpt lat="42.606718000" lon="-2.418559000">
        <ele>951.30</ele>
        <time>2016-10-15T08:03:11Z</time>
      </trkpt>
      <trkpt lat="42.606691000" lon="-2.418589000">
        <ele>951.10</ele>
        <time>2016-10-15T08:03:12Z</time>
      </trkpt>
      <trkpt lat="42.606658000" lon="-2.418623000">
        <ele>950.90</ele>
        <time>2016-10-15T08:03:13Z</time>
      </trkpt>
      <trkpt lat="42.606619000" lon="-2.418661000">
        <ele>950.60</ele>
        <time>2016-10-15T08:03:14Z</time>
      </trkpt>
      <trkpt lat="42.606576000" lon="-2.418701000">
        <ele>950.30</ele>
        <time>2016-10-15T08:03:15Z</time>
      </trkpt>
      <trkpt lat="42.606530000" lon="-2.418747000">
        <ele>950.00</ele>
        <time>2016-10-15T08:03:16Z</time>
      </trkpt>
      <trkpt lat="42.606482000" lon="-2.418795000">
        <ele>949.80</ele>
        <time>2016-10-15T08:03:17Z</time>
      </trkpt>
      <trkpt lat="42.606432000" lon="-2.418846000">
        <ele>949.30</ele>
        <time>2016-10-15T08:03:18Z</time>
      </trkpt>
      <trkpt lat="42.606384000" lon="-2.418893000">
        <ele>948.90</ele>
        <time>2016-10-15T08:03:19Z</time>
      </trkpt>
      <trkpt lat="42.606336000" lon="-2.418943000">
        <ele>948.60</ele>
        <time>2016-10-15T08:03:20Z</time>
      </trkpt>
      <trkpt lat="42.606286000" lon="-2.418985000">
        <ele>948.40</ele>
        <time>2016-10-15T08:03:21Z</time>
      </trkpt>
      <trkpt lat="42.606231000" lon="-2.419027000">
        <ele>948.00</ele>
        <time>2016-10-15T08:03:22Z</time>
      </trkpt>
      <trkpt lat="42.606179000" lon="-2.419070000">
        <ele>947.60</ele>
        <time>2016-10-15T08:03:23Z</time>
      </trkpt>
      <trkpt lat="42.606134000" lon="-2.419108000">
        <ele>947.30</ele>
        <time>2016-10-15T08:03:24Z</time>
      </trkpt>
      <trkpt lat="42.606089000" lon="-2.419147000">
        <ele>947.10</ele>
        <time>2016-10-15T08:03:25Z</time>
      </trkpt>
      <trkpt lat="42.606051000" lon="-2.419199000">
        <ele>946.80</ele>
        <time>2016-10-15T08:03:26Z</time>
      </trkpt>
      <trkpt lat="42.606015000" lon="-2.419248000">
        <ele>946.60</ele>
        <time>2016-10-15T08:03:27Z</time>
      </trkpt>
      <trkpt lat="42.605980000" lon="-2.419300000">
        <ele>946.10</ele>
        <time>2016-10-15T08:03:28Z</time>
      </trkpt>
      <trkpt lat="42.605947000" lon="-2.419358000">
        <ele>945.80</ele>
        <time>2016-10-15T08:03:29Z</time>
      </trkpt>
      <trkpt lat="42.605912000" lon="-2.419416000">
        <ele>945.30</ele>
        <time>2016-10-15T08:03:30Z</time>
      </trkpt>
      <trkpt lat="42.605874000" lon="-2.419475000">
        <ele>944.90</ele>
        <time>2016-10-15T08:03:31Z</time>
      </trkpt>
      <trkpt lat="42.605835000" lon="-2.419533000">
        <ele>944.30</ele>
        <time>2016-10-15T08:03:32Z</time>
      </trkpt>
      <trkpt lat="42.605792000" lon="-2.419583000">
        <ele>943.90</ele>
        <time>2016-10-15T08:03:33Z</time>
      </trkpt>
      <trkpt lat="42.605745000" lon="-2.419628000">
        <ele>943.60</ele>
        <time>2016-10-15T08:03:34Z</time>
      </trkpt>
      <trkpt lat="42.605695000" lon="-2.419671000">
        <ele>943.30</ele>
        <time>2016-10-15T08:03:35Z</time>
      </trkpt>
      <trkpt lat="42.605641000" lon="-2.419708000">
        <ele>943.10</ele>
        <time>2016-10-15T08:03:36Z</time>
      </trkpt>
      <trkpt lat="42.605530000" lon="-2.419784000">
        <ele>942.70</ele>
        <time>2016-10-15T08:03:38Z</time>
      </trkpt>
      <trkpt lat="42.605479000" lon="-2.419834000">
        <ele>942.50</ele>
        <time>2016-10-15T08:03:39Z</time>
      </trkpt>
      <trkpt lat="42.605429000" lon="-2.419889000">
        <ele>942.40</ele>
        <time>2016-10-15T08:03:40Z</time>
      </trkpt>
      <trkpt lat="42.605376000" lon="-2.419930000">
        <ele>942.30</ele>
        <time>2016-10-15T08:03:41Z</time>
      </trkpt>
      <trkpt lat="42.605323000" lon="-2.419958000">
        <ele>941.90</ele>
        <time>2016-10-15T08:03:42Z</time>
      </trkpt>
      <trkpt lat="42.605266000" lon="-2.419978000">
        <ele>941.60</ele>
        <time>2016-10-15T08:03:43Z</time>
      </trkpt>
      <trkpt lat="42.605212000" lon="-2.419989000">
        <ele>941.40</ele>
        <time>2016-10-15T08:03:44Z</time>
      </trkpt>
      <trkpt lat="42.605163000" lon="-2.420005000">
        <ele>941.20</ele>
        <time>2016-10-15T08:03:45Z</time>
      </trkpt>
      <trkpt lat="42.605114000" lon="-2.420014000">
        <ele>941.10</ele>
        <time>2016-10-15T08:03:46Z</time>
      </trkpt>
      <trkpt lat="42.605065000" lon="-2.420024000">
        <ele>941.00</ele>
        <time>2016-10-15T08:03:47Z</time>
      </trkpt>
      <trkpt lat="42.605016000" lon="-2.420039000">
        <ele>940.90</ele>
        <time>2016-10-15T08:03:48Z</time>
      </trkpt>
      <trkpt lat="42.604965000" lon="-2.420055000">
        <ele>940.90</ele>
        <time>2016-10-15T08:03:49Z</time>
      </trkpt>
      <trkpt lat="42.604916000" lon="-2.420078000">
        <ele>940.80</ele>
        <time>2016-10-15T08:03:50Z</time>
      </trkpt>
      <trkpt lat="42.604868000" lon="-2.420109000">
        <ele>940.70</ele>
        <time>2016-10-15T08:03:51Z</time>
      </trkpt>
      <trkpt lat="42.604820000" lon="-2.420146000">
        <ele>940.60</ele>
        <time>2016-10-15T08:03:52Z</time>
      </trkpt>
      <trkpt lat="42.604776000" lon="-2.420193000">
        <ele>940.50</ele>
        <time>2016-10-15T08:03:53Z</time>
      </trkpt>
      <trkpt lat="42.604734000" lon="-2.420241000">
        <ele>940.40</ele>
        <time>2016-10-15T08:03:54Z</time>
      </trkpt>
      <trkpt lat="42.604692000" lon="-2.420299000">
        <ele>940.40</ele>
        <time>2016-10-15T08:03:55Z</time>
      </trkpt>
      <trkpt lat="42.604649000" lon="-2.420360000">
        <ele>940.10</ele>
        <time>2016-10-15T08:03:56Z</time>
      </trkpt>
      <trkpt lat="42.604605000" lon="-2.420419000">
        <ele>940.00</ele>
        <time>2016-10-15T08:03:57Z</time>
      </trkpt>
      <trkpt lat="42.604564000" lon="-2.420484000">
        <ele>939.60</ele>
        <time>2016-10-15T08:03:58Z</time>
      </trkpt>
      <trkpt lat="42.604526000" lon="-2.420543000">
        <ele>939.40</ele>
        <time>2016-10-15T08:03:59Z</time>
      </trkpt>
      <trkpt lat="42.604494000" lon="-2.420606000">
        <ele>938.90</ele>
        <time>2016-10-15T08:04:00Z</time>
      </trkpt>
      <trkpt lat="42.604459000" lon="-2.420673000">
        <ele>938.50</ele>
        <time>2016-10-15T08:04:01Z</time>
      </trkpt>
      <trkpt lat="42.604430000" lon="-2.420747000">
        <ele>938.20</ele>
        <time>2016-10-15T08:04:02Z</time>
      </trkpt>
      <trkpt lat="42.604400000" lon="-2.420826000">
        <ele>937.90</ele>
        <time>2016-10-15T08:04:03Z</time>
      </trkpt>
      <trkpt lat="42.604372000" lon="-2.420911000">
        <ele>937.50</ele>
        <time>2016-10-15T08:04:04Z</time>
      </trkpt>
      <trkpt lat="42.604348000" lon="-2.420999000">
        <ele>937.10</ele>
        <time>2016-10-15T08:04:05Z</time>
      </trkpt>
      <trkpt lat="42.604330000" lon="-2.421090000">
        <ele>936.40</ele>
        <time>2016-10-15T08:04:06Z</time>
      </trkpt>
      <trkpt lat="42.604321000" lon="-2.421183000">
        <ele>935.90</ele>
        <time>2016-10-15T08:04:07Z</time>
      </trkpt>
      <trkpt lat="42.604313000" lon="-2.421278000">
        <ele>935.40</ele>
        <time>2016-10-15T08:04:08Z</time>
      </trkpt>
      <trkpt lat="42.604301000" lon="-2.421374000">
        <ele>935.10</ele>
        <time>2016-10-15T08:04:09Z</time>
      </trkpt>
      <trkpt lat="42.604280000" lon="-2.421468000">
        <ele>934.40</ele>
        <time>2016-10-15T08:04:10Z</time>
      </trkpt>
      <trkpt lat="42.604248000" lon="-2.421551000">
        <ele>933.90</ele>
        <time>2016-10-15T08:04:11Z</time>
      </trkpt>
      <trkpt lat="42.604211000" lon="-2.421627000">
        <ele>933.50</ele>
        <time>2016-10-15T08:04:12Z</time>
      </trkpt>
      <trkpt lat="42.604163000" lon="-2.421701000">
        <ele>933.20</ele>
        <time>2016-10-15T08:04:13Z</time>
      </trkpt>
      <trkpt lat="42.604118000" lon="-2.421758000">
        <ele>932.90</ele>
        <time>2016-10-15T08:04:14Z</time>
      </trkpt>
      <trkpt lat="42.604064000" lon="-2.421804000">
        <ele>932.60</ele>
        <time>2016-10-15T08:04:15Z</time>
      </trkpt>
      <trkpt lat="42.604001000" lon="-2.421853000">
        <ele>932.30</ele>
        <time>2016-10-15T08:04:16Z</time>
      </trkpt>
      <trkpt lat="42.603937000" lon="-2.421903000">
        <ele>932.00</ele>
        <time>2016-10-15T08:04:17Z</time>
      </trkpt>
      <trkpt lat="42.603872000" lon="-2.421946000">
        <ele>931.40</ele>
        <time>2016-10-15T08:04:18Z</time>
      </trkpt>
      <trkpt lat="42.603808000" lon="-2.421989000">
        <ele>931.00</ele>
        <time>2016-10-15T08:04:19Z</time>
      </trkpt>
      <trkpt lat="42.603740000" lon="-2.422040000">
        <ele>930.00</ele>
        <time>2016-10-15T08:04:20Z</time>
      </trkpt>
      <trkpt lat="42.603677000" lon="-2.422095000">
        <ele>929.30</ele>
        <time>2016-10-15T08:04:21Z</time>
      </trkpt>
      <trkpt lat="42.603612000" lon="-2.422148000">
        <ele>928.50</ele>
        <time>2016-10-15T08:04:22Z</time>
      </trkpt>
      <trkpt lat="42.603555000" lon="-2.422192000">
        <ele>927.80</ele>
        <time>2016-10-15T08:04:23Z</time>
      </trkpt>
      <trkpt lat="42.603496000" lon="-2.422232000">
        <ele>927.20</ele>
        <time>2016-10-15T08:04:24Z</time>
      </trkpt>
      <trkpt lat="42.603442000" lon="-2.422268000">
        <ele>926.80</ele>
        <time>2016-10-15T08:04:25Z</time>
      </trkpt>
      <trkpt lat="42.603396000" lon="-2.422308000">
        <ele>926.00</ele>
        <time>2016-10-15T08:04:26Z</time>
      </trkpt>
      <trkpt lat="42.603350000" lon="-2.422338000">
        <ele>925.50</ele>
        <time>2016-10-15T08:04:27Z</time>
      </trkpt>
      <trkpt lat="42.603304000" lon="-2.422369000">
        <ele>925.00</ele>
        <time>2016-10-15T08:04:28Z</time>
      </trkpt>
      <trkpt lat="42.603253000" lon="-2.422402000">
        <ele>924.60</ele>
        <time>2016-10-15T08:04:29Z</time>
      </trkpt>
      <trkpt lat="42.603198000" lon="-2.422437000">
        <ele>924.00</ele>
        <time>2016-10-15T08:04:30Z</time>
      </trkpt>
      <trkpt lat="42.603146000" lon="-2.422464000">
        <ele>923.60</ele>
        <time>2016-10-15T08:04:31Z</time>
      </trkpt>
      <trkpt lat="42.603100000" lon="-2.422482000">
        <ele>922.50</ele>
        <time>2016-10-15T08:04:32Z</time>
      </trkpt>
      <trkpt lat="42.603057000" lon="-2.422492000">
        <ele>921.60</ele>
        <time>2016-10-15T08:04:33Z</time>
      </trkpt>
      <trkpt lat="42.603023000" lon="-2.422511000">
        <ele>920.70</ele>
        <time>2016-10-15T08:04:34Z</time>
      </trkpt>
      <trkpt lat="42.602996000" lon="-2.422532000">
        <ele>919.90</ele>
        <time>2016-10-15T08:04:35Z</time>
      </trkpt>
      <trkpt lat="42.602967000" lon="-2.422554000">
        <ele>919.20</ele>
        <time>2016-10-15T08:04:36Z</time>
      </trkpt>
      <trkpt lat="42.602931000" lon="-2.422579000">
        <ele>918.60</ele>
        <time>2016-10-15T08:04:37Z</time>
      </trkpt>
      <trkpt lat="42.602887000" lon="-2.422611000">
        <ele>917.90</ele>
        <time>2016-10-15T08:04:38Z</time>
      </trkpt>
      <trkpt lat="42.602806000" lon="-2.422661000">
        <ele>916.60</ele>
        <time>2016-10-15T08:04:40Z</time>
      </trkpt>
      <trkpt lat="42.602762000" lon="-2.422676000">
        <ele>916.10</ele>
        <time>2016-10-15T08:04:41Z</time>
      </trkpt>
      <trkpt lat="42.602714000" lon="-2.422692000">
        <ele>915.60</ele>
        <time>2016-10-15T08:04:42Z</time>
      </trkpt>
      <trkpt lat="42.602668000" lon="-2.422720000">
        <ele>915.20</ele>
        <time>2016-10-15T08:04:43Z</time>
      </trkpt>
      <trkpt lat="42.602623000" lon="-2.422752000">
        <ele>914.60</ele>
        <time>2016-10-15T08:04:44Z</time>
      </trkpt>
      <trkpt lat="42.602568000" lon="-2.422780000">
        <ele>914.10</ele>
        <time>2016-10-15T08:04:45Z</time>
      </trkpt>
      <trkpt lat="42.602511000" lon="-2.422807000">
        <ele>913.30</ele>
        <time>2016-10-15T08:04:46Z</time>
      </trkpt>
      <trkpt lat="42.602451000" lon="-2.422828000">
        <ele>912.80</ele>
        <time>2016-10-15T08:04:47Z</time>
      </trkpt>
      <trkpt lat="42.602395000" lon="-2.422843000">
        <ele>911.80</ele>
        <time>2016-10-15T08:04:48Z</time>
      </trkpt>
      <trkpt lat="42.602336000" lon="-2.422866000">
        <ele>911.10</ele>
        <time>2016-10-15T08:04:49Z</time>
      </trkpt>
      <trkpt lat="42.602280000" lon="-2.422890000">
        <ele>910.30</ele>
        <time>2016-10-15T08:04:50Z</time>
      </trkpt>
      <trkpt lat="42.602223000" lon="-2.422919000">
        <ele>909.70</ele>
        <time>2016-10-15T08:04:51Z</time>
      </trkpt>
      <trkpt lat="42.602170000" lon="-2.422951000">
        <ele>908.70</ele>
        <time>2016-10-15T08:04:52Z</time>
      </trkpt>
      <trkpt lat="42.602121000" lon="-2.422985000">
        <ele>907.90</ele>
        <time>2016-10-15T08:04:53Z</time>
      </trkpt>
      <trkpt lat="42.602075000" lon="-2.423024000">
        <ele>907.10</ele>
        <time>2016-10-15T08:04:54Z</time>
      </trkpt>
      <trkpt lat="42.602023000" lon="-2.423061000">
        <ele>906.60</ele>
        <time>2016-10-15T08:04:55Z</time>
      </trkpt>
      <trkpt lat="42.601969000" lon="-2.423096000">
        <ele>905.80</ele>
        <time>2016-10-15T08:04:56Z</time>
      </trkpt>
      <trkpt lat="42.601910000" lon="-2.423131000">
        <ele>905.20</ele>
        <time>2016-10-15T08:04:57Z</time>
      </trkpt>
      <trkpt lat="42.601845000" lon="-2.423165000">
        <ele>904.50</ele>
        <time>2016-10-15T08:04:58Z</time>
      </trkpt>
      <trkpt lat="42.601775000" lon="-2.423192000">
        <ele>903.90</ele>
        <time>2016-10-15T08:04:59Z</time>
      </trkpt>
      <trkpt lat="42.601711000" lon="-2.423218000">
        <ele>903.30</ele>
        <time>2016-10-15T08:05:00Z</time>
      </trkpt>
      <trkpt lat="42.601648000" lon="-2.423242000">
        <ele>902.90</ele>
        <time>2016-10-15T08:05:01Z</time>
      </trkpt>
      <trkpt lat="42.601584000" lon="-2.423255000">
        <ele>902.10</ele>
        <time>2016-10-15T08:05:02Z</time>
      </trkpt>
      <trkpt lat="42.601522000" lon="-2.423266000">
        <ele>901.60</ele>
        <time>2016-10-15T08:05:03Z</time>
      </trkpt>
      <trkpt lat="42.601462000" lon="-2.423285000">
        <ele>900.80</ele>
        <time>2016-10-15T08:05:04Z</time>
      </trkpt>
      <trkpt lat="42.601402000" lon="-2.423318000">
        <ele>900.20</ele>
        <time>2016-10-15T08:05:05Z</time>
      </trkpt>
      <trkpt lat="42.601342000" lon="-2.423358000">
        <ele>899.70</ele>
        <time>2016-10-15T08:05:06Z</time>
      </trkpt>
      <trkpt lat="42.601282000" lon="-2.423396000">
        <ele>899.40</ele>
        <time>2016-10-15T08:05:07Z</time>
      </trkpt>
      <trkpt lat="42.601221000" lon="-2.423427000">
        <ele>899.10</ele>
        <time>2016-10-15T08:05:08Z</time>
      </trkpt>
      <trkpt lat="42.601160000" lon="-2.423456000">
        <ele>898.90</ele>
        <time>2016-10-15T08:05:09Z</time>
      </trkpt>
      <trkpt lat="42.601102000" lon="-2.423488000">
        <ele>898.60</ele>
        <time>2016-10-15T08:05:10Z</time>
      </trkpt>
      <trkpt lat="42.601041000" lon="-2.423520000">
        <ele>898.30</ele>
        <time>2016-10-15T08:05:11Z</time>
      </trkpt>
      <trkpt lat="42.600981000" lon="-2.423546000">
        <ele>897.80</ele>
        <time>2016-10-15T08:05:12Z</time>
      </trkpt>
      <trkpt lat="42.600924000" lon="-2.423567000">
        <ele>897.50</ele>
        <time>2016-10-15T08:05:13Z</time>
      </trkpt>
      <trkpt lat="42.600882000" lon="-2.423583000">
        <ele>897.10</ele>
        <time>2016-10-15T08:05:14Z</time>
      </trkpt>
      <trkpt lat="42.600844000" lon="-2.423598000">
        <ele>896.70</ele>
        <time>2016-10-15T08:05:15Z</time>
      </trkpt>
      <trkpt lat="42.600819000" lon="-2.423620000">
        <ele>896.40</ele>
        <time>2016-10-15T08:05:16Z</time>
      </trkpt>
      <trkpt lat="42.600799000" lon="-2.423633000">
        <ele>896.20</ele>
        <time>2016-10-15T08:05:17Z</time>
      </trkpt>
      <trkpt lat="42.600784000" lon="-2.423641000">
        <ele>895.90</ele>
        <time>2016-10-15T08:05:18Z</time>
      </trkpt>
      <trkpt lat="42.600771000" lon="-2.423650000">
        <ele>895.80</ele>
        <time>2016-10-15T08:05:19Z</time>
      </trkpt>
      <trkpt lat="42.600760000" lon="-2.423660000">
        <ele>895.60</ele>
        <time>2016-10-15T08:05:20Z</time>
      </trkpt>
      <trkpt lat="42.600745000" lon="-2.423670000">
        <ele>895.50</ele>
        <time>2016-10-15T08:05:21Z</time>
      </trkpt>
      <trkpt lat="42.600731000" lon="-2.423679000">
        <ele>895.40</ele>
        <time>2016-10-15T08:05:22Z</time>
      </trkpt>
      <trkpt lat="42.600719000" lon="-2.423684000">
        <ele>895.40</ele>
        <time>2016-10-15T08:05:23Z</time>
      </trkpt>
      <trkpt lat="42.600708000" lon="-2.423694000">
        <ele>895.40</ele>
        <time>2016-10-15T08:05:24Z</time>
      </trkpt>
      <trkpt lat="42.600691000" lon="-2.423705000">
        <ele>895.30</ele>
        <time>2016-10-15T08:05:25Z</time>
      </trkpt>
      <trkpt lat="42.600675000" lon="-2.423712000">
        <ele>895.40</ele>
        <time>2016-10-15T08:05:26Z</time>
      </trkpt>
      <trkpt lat="42.600657000" lon="-2.423720000">
        <ele>895.50</ele>
        <time>2016-10-15T08:05:27Z</time>
      </trkpt>
      <trkpt lat="42.600636000" lon="-2.423729000">
        <ele>895.60</ele>
        <time>2016-10-15T08:05:28Z</time>
      </trkpt>
      <trkpt lat="42.600614000" lon="-2.423738000">
        <ele>895.60</ele>
        <time>2016-10-15T08:05:29Z</time>
      </trkpt>
      <trkpt lat="42.600590000" lon="-2.423743000">
        <ele>895.30</ele>
        <time>2016-10-15T08:05:30Z</time>
      </trkpt>
      <trkpt lat="42.600566000" lon="-2.423749000">
        <ele>895.00</ele>
        <time>2016-10-15T08:05:31Z</time>
      </trkpt>
      <trkpt lat="42.600539000" lon="-2.423753000">
        <ele>894.80</ele>
        <time>2016-10-15T08:05:32Z</time>
      </trkpt>
      <trkpt lat="42.600518000" lon="-2.423758000">
        <ele>894.60</ele>
        <time>2016-10-15T08:05:33Z</time>
      </trkpt>
      <trkpt lat="42.600502000" lon="-2.423765000">
        <ele>894.50</ele>
        <time>2016-10-15T08:05:34Z</time>
      </trkpt>
      <trkpt lat="42.600488000" lon="-2.423768000">
        <ele>894.50</ele>
        <time>2016-10-15T08:05:35Z</time>
      </trkpt>
      <trkpt lat="42.600479000" lon="-2.423771000">
        <ele>894.50</ele>
        <time>2016-10-15T08:05:36Z</time>
      </trkpt>
      <trkpt lat="42.600468000" lon="-2.423775000">
        <ele>894.50</ele>
        <time>2016-10-15T08:05:37Z</time>
      </trkpt>
      <trkpt lat="42.600460000" lon="-2.423774000">
        <ele>894.50</ele>
        <time>2016-10-15T08:05:38Z</time>
      </trkpt>
      <trkpt lat="42.600456000" lon="-2.423765000">
        <ele>894.50</ele>
        <time>2016-10-15T08:05:39Z</time>
      </trkpt>
      <trkpt lat="42.600446000" lon="-2.423763000">
        <ele>894.50</ele>
        <time>2016-10-15T08:05:40Z</time>
      </trkpt>
      <trkpt lat="42.600428000" lon="-2.423759000">
        <ele>894.50</ele>
        <time>2016-10-15T08:05:42Z</time>
      </trkpt>
      <trkpt lat="42.600417000" lon="-2.423754000">
        <ele>894.50</ele>
        <time>2016-10-15T08:05:43Z</time>
      </trkpt>
      <trkpt lat="42.600410000" lon="-2.423750000">
        <ele>894.40</ele>
        <time>2016-10-15T08:05:44Z</time>
      </trkpt>
      <trkpt lat="42.600399000" lon="-2.423746000">
        <ele>894.40</ele>
        <time>2016-10-15T08:05:45Z</time>
      </trkpt>
      <trkpt lat="42.600382000" lon="-2.423748000">
        <ele>894.30</ele>
        <time>2016-10-15T08:05:46Z</time>
      </trkpt>
      <trkpt lat="42.600366000" lon="-2.423751000">
        <ele>894.30</ele>
        <time>2016-10-15T08:05:47Z</time>
      </trkpt>
      <trkpt lat="42.600348000" lon="-2.423751000">
        <ele>894.20</ele>
        <time>2016-10-15T08:05:48Z</time>
      </trkpt>
      <trkpt lat="42.600326000" lon="-2.423747000">
        <ele>894.10</ele>
        <time>2016-10-15T08:05:49Z</time>
      </trkpt>
      <trkpt lat="42.600303000" lon="-2.423740000">
        <ele>894.10</ele>
        <time>2016-10-15T08:05:50Z</time>
      </trkpt>
      <trkpt lat="42.600276000" lon="-2.423742000">
        <ele>894.00</ele>
        <time>2016-10-15T08:05:51Z</time>
      </trkpt>
      <trkpt lat="42.600246000" lon="-2.423742000">
        <ele>894.00</ele>
        <time>2016-10-15T08:05:52Z</time>
      </trkpt>
      <trkpt lat="42.600215000" lon="-2.423747000">
        <ele>894.00</ele>
        <time>2016-10-15T08:05:53Z</time>
      </trkpt>
      <trkpt lat="42.600183000" lon="-2.423750000">
        <ele>894.10</ele>
        <time>2016-10-15T08:05:54Z</time>
      </trkpt>
      <trkpt lat="42.600154000" lon="-2.423755000">
        <ele>894.10</ele>
        <time>2016-10-15T08:05:55Z</time>
      </trkpt>
      <trkpt lat="42.600125000" lon="-2.423760000">
        <ele>894.30</ele>
        <time>2016-10-15T08:05:56Z</time>
      </trkpt>
      <trkpt lat="42.600098000" lon="-2.423765000">
        <ele>894.40</ele>
        <time>2016-10-15T08:05:57Z</time>
      </trkpt>
      <trkpt lat="42.600070000" lon="-2.423769000">
        <ele>894.60</ele>
        <time>2016-10-15T08:05:58Z</time>
      </trkpt>
      <trkpt lat="42.600043000" lon="-2.423775000">
        <ele>894.70</ele>
        <time>2016-10-15T08:05:59Z</time>
      </trkpt>
      <trkpt lat="42.600015000" lon="-2.423781000">
        <ele>894.80</ele>
        <time>2016-10-15T08:06:00Z</time>
      </trkpt>
      <trkpt lat="42.599984000" lon="-2.423792000">
        <ele>894.90</ele>
        <time>2016-10-15T08:06:01Z</time>
      </trkpt>
      <trkpt lat="42.599951000" lon="-2.423808000">
        <ele>894.90</ele>
        <time>2016-10-15T08:06:02Z</time>
      </trkpt>
      <trkpt lat="42.599914000" lon="-2.423835000">
        <ele>895.00</ele>
        <time>2016-10-15T08:06:03Z</time>
      </trkpt>
      <trkpt lat="42.599877000" lon="-2.423864000">
        <ele>895.00</ele>
        <time>2016-10-15T08:06:04Z</time>
      </trkpt>
      <trkpt lat="42.599838000" lon="-2.423902000">
        <ele>895.00</ele>
        <time>2016-10-15T08:06:05Z</time>
      </trkpt>
      <trkpt lat="42.599793000" lon="-2.423943000">
        <ele>894.70</ele>
        <time>2016-10-15T08:06:06Z</time>
      </trkpt>
      <trkpt lat="42.599746000" lon="-2.423990000">
        <ele>894.50</ele>
        <time>2016-10-15T08:06:07Z</time>
      </trkpt>
      <trkpt lat="42.599705000" lon="-2.424032000">
        <ele>894.10</ele>
        <time>2016-10-15T08:06:08Z</time>
      </trkpt>
      <trkpt lat="42.599655000" lon="-2.424053000">
        <ele>893.70</ele>
        <time>2016-10-15T08:06:09Z</time>
      </trkpt>
      <trkpt lat="42.599607000" lon="-2.424059000">
        <ele>893.50</ele>
        <time>2016-10-15T08:06:10Z</time>
      </trkpt>
      <trkpt lat="42.599554000" lon="-2.424058000">
        <ele>893.30</ele>
        <time>2016-10-15T08:06:11Z</time>
      </trkpt>
      <trkpt lat="42.599501000" lon="-2.424050000">
        <ele>892.80</ele>
        <time>2016-10-15T08:06:12Z</time>
      </trkpt>
      <trkpt lat="42.599449000" lon="-2.424041000">
        <ele>892.50</ele>
        <time>2016-10-15T08:06:13Z</time>
      </trkpt>
      <trkpt lat="42.599397000" lon="-2.424019000">
        <ele>892.10</ele>
        <time>2016-10-15T08:06:14Z</time>
      </trkpt>
      <trkpt lat="42.599349000" lon="-2.423987000">
        <ele>891.90</ele>
        <time>2016-10-15T08:06:15Z</time>
      </trkpt>
      <trkpt lat="42.599300000" lon="-2.423960000">
        <ele>891.60</ele>
        <time>2016-10-15T08:06:16Z</time>
      </trkpt>
      <trkpt lat="42.599248000" lon="-2.423942000">
        <ele>891.40</ele>
        <time>2016-10-15T08:06:17Z</time>
      </trkpt>
      <trkpt lat="42.599193000" lon="-2.423922000">
        <ele>891.20</ele>
        <time>2016-10-15T08:06:18Z</time>
      </trkpt>
      <trkpt lat="42.599138000" lon="-2.423897000">
        <ele>891.10</ele>
        <time>2016-10-15T08:06:19Z</time>
      </trkpt>
      <trkpt lat="42.599085000" lon="-2.423875000">
        <ele>890.80</ele>
        <time>2016-10-15T08:06:20Z</time>
      </trkpt>
      <trkpt lat="42.599036000" lon="-2.423859000">
        <ele>890.50</ele>
        <time>2016-10-15T08:06:21Z</time>
      </trkpt>
      <trkpt lat="42.598997000" lon="-2.423836000">
        <ele>890.40</ele>
        <time>2016-10-15T08:06:22Z</time>
      </trkpt>
      <trkpt lat="42.598952000" lon="-2.423824000">
        <ele>890.20</ele>
        <time>2016-10-15T08:06:23Z</time>
      </trkpt>
      <trkpt lat="42.598905000" lon="-2.423812000">
        <ele>889.60</ele>
        <time>2016-10-15T08:06:24Z</time>
      </trkpt>
      <trkpt lat="42.598855000" lon="-2.423810000">
        <ele>889.00</ele>
        <time>2016-10-15T08:06:25Z</time>
      </trkpt>
      <trkpt lat="42.598805000" lon="-2.423806000">
        <ele>888.40</ele>
        <time>2016-10-15T08:06:26Z</time>
      </trkpt>
      <trkpt lat="42.598750000" lon="-2.423791000">
        <ele>887.90</ele>
        <time>2016-10-15T08:06:27Z</time>
      </trkpt>
      <trkpt lat="42.598696000" lon="-2.423773000">
        <ele>887.40</ele>
        <time>2016-10-15T08:06:28Z</time>
      </trkpt>
      <trkpt lat="42.598641000" lon="-2.423759000">
        <ele>887.10</ele>
        <time>2016-10-15T08:06:29Z</time>
      </trkpt>
      <trkpt lat="42.598589000" lon="-2.423737000">
        <ele>885.90</ele>
        <time>2016-10-15T08:06:30Z</time>
      </trkpt>
      <trkpt lat="42.598539000" lon="-2.423710000">
        <ele>885.00</ele>
        <time>2016-10-15T08:06:31Z</time>
      </trkpt>
      <trkpt lat="42.598486000" lon="-2.423688000">
        <ele>884.90</ele>
        <time>2016-10-15T08:06:32Z</time>
      </trkpt>
      <trkpt lat="42.598433000" lon="-2.423667000">
        <ele>884.70</ele>
        <time>2016-10-15T08:06:33Z</time>
      </trkpt>
      <trkpt lat="42.598381000" lon="-2.423651000">
        <ele>884.20</ele>
        <time>2016-10-15T08:06:34Z</time>
      </trkpt>
      <trkpt lat="42.598327000" lon="-2.423636000">
        <ele>883.80</ele>
        <time>2016-10-15T08:06:35Z</time>
      </trkpt>
      <trkpt lat="42.598273000" lon="-2.423623000">
        <ele>883.50</ele>
        <time>2016-10-15T08:06:36Z</time>
      </trkpt>
      <trkpt lat="42.598215000" lon="-2.423611000">
        <ele>883.30</ele>
        <time>2016-10-15T08:06:37Z</time>
      </trkpt>
      <trkpt lat="42.598161000" lon="-2.423596000">
        <ele>882.80</ele>
        <time>2016-10-15T08:06:38Z</time>
      </trkpt>
      <trkpt lat="42.598114000" lon="-2.423583000">
        <ele>882.40</ele>
        <time>2016-10-15T08:06:39Z</time>
      </trkpt>
      <trkpt lat="42.598074000" lon="-2.423567000">
        <ele>881.90</ele>
        <time>2016-10-15T08:06:40Z</time>
      </trkpt>
      <trkpt lat="42.598035000" lon="-2.423557000">
        <ele>881.60</ele>
        <time>2016-10-15T08:06:41Z</time>
      </trkpt>
      <trkpt lat="42.597994000" lon="-2.423548000">
        <ele>881.20</ele>
        <time>2016-10-15T08:06:42Z</time>
      </trkpt>
      <trkpt lat="42.597909000" lon="-2.423519000">
        <ele>880.40</ele>
        <time>2016-10-15T08:06:44Z</time>
      </trkpt>
      <trkpt lat="42.597865000" lon="-2.423506000">
        <ele>880.00</ele>
        <time>2016-10-15T08:06:45Z</time>
      </trkpt>
      <trkpt lat="42.597818000" lon="-2.423494000">
        <ele>879.60</ele>
        <time>2016-10-15T08:06:46Z</time>
      </trkpt>
      <trkpt lat="42.597771000" lon="-2.423481000">
        <ele>879.40</ele>
        <time>2016-10-15T08:06:47Z</time>
      </trkpt>
      <trkpt lat="42.597720000" lon="-2.423467000">
        <ele>879.10</ele>
        <time>2016-10-15T08:06:48Z</time>
      </trkpt>
      <trkpt lat="42.597662000" lon="-2.423452000">
        <ele>878.90</ele>
        <time>2016-10-15T08:06:49Z</time>
      </trkpt>
      <trkpt lat="42.597605000" lon="-2.423432000">
        <ele>878.50</ele>
        <time>2016-10-15T08:06:50Z</time>
      </trkpt>
      <trkpt lat="42.597545000" lon="-2.423411000">
        <ele>878.20</ele>
        <time>2016-10-15T08:06:51Z</time>
      </trkpt>
      <trkpt lat="42.597483000" lon="-2.423393000">
        <ele>877.80</ele>
        <time>2016-10-15T08:06:52Z</time>
      </trkpt>
      <trkpt lat="42.597423000" lon="-2.423376000">
        <ele>877.50</ele>
        <time>2016-10-15T08:06:53Z</time>
      </trkpt>
      <trkpt lat="42.597359000" lon="-2.423360000">
        <ele>877.10</ele>
        <time>2016-10-15T08:06:54Z</time>
      </trkpt>
      <trkpt lat="42.597295000" lon="-2.423342000">
        <ele>876.80</ele>
        <time>2016-10-15T08:06:55Z</time>
      </trkpt>
      <trkpt lat="42.597229000" lon="-2.423327000">
        <ele>876.10</ele>
        <time>2016-10-15T08:06:56Z</time>
      </trkpt>
      <trkpt lat="42.597164000" lon="-2.423313000">
        <ele>875.60</ele>
        <time>2016-10-15T08:06:57Z</time>
      </trkpt>
      <trkpt lat="42.597097000" lon="-2.423302000">
        <ele>875.20</ele>
        <time>2016-10-15T08:06:58Z</time>
      </trkpt>
      <trkpt lat="42.597031000" lon="-2.423282000">
        <ele>874.90</ele>
        <time>2016-10-15T08:06:59Z</time>
      </trkpt>
      <trkpt lat="42.596964000" lon="-2.423259000">
        <ele>874.70</ele>
        <time>2016-10-15T08:07:00Z</time>
      </trkpt>
      <trkpt lat="42.596896000" lon="-2.423236000">
        <ele>874.50</ele>
        <time>2016-10-15T08:07:01Z</time>
      </trkpt>
      <trkpt lat="42.596831000" lon="-2.423221000">
        <ele>874.20</ele>
        <time>2016-10-15T08:07:02Z</time>
      </trkpt>
      <trkpt lat="42.596767000" lon="-2.423207000">
        <ele>873.90</ele>
        <time>2016-10-15T08:07:03Z</time>
      </trkpt>
      <trkpt lat="42.596702000" lon="-2.423195000">
        <ele>873.60</ele>
        <time>2016-10-15T08:07:04Z</time>
      </trkpt>
      <trkpt lat="42.596635000" lon="-2.423188000">
        <ele>873.40</ele>
        <time>2016-10-15T08:07:05Z</time>
      </trkpt>
      <trkpt lat="42.596565000" lon="-2.423186000">
        <ele>872.40</ele>
        <time>2016-10-15T08:07:06Z</time>
      </trkpt>
      <trkpt lat="42.596491000" lon="-2.423185000">
        <ele>871.70</ele>
        <time>2016-10-15T08:07:07Z</time>
      </trkpt>
      <trkpt lat="42.596420000" lon="-2.423184000">
        <ele>871.20</ele>
        <time>2016-10-15T08:07:08Z</time>
      </trkpt>
      <trkpt lat="42.596345000" lon="-2.423184000">
        <ele>870.80</ele>
        <time>2016-10-15T08:07:09Z</time>
      </trkpt>
      <trkpt lat="42.596273000" lon="-2.423179000">
        <ele>870.40</ele>
        <time>2016-10-15T08:07:10Z</time>
      </trkpt>
      <trkpt lat="42.596202000" lon="-2.423171000">
        <ele>870.10</ele>
        <time>2016-10-15T08:07:11Z</time>
      </trkpt>
      <trkpt lat="42.596134000" lon="-2.423170000">
        <ele>869.60</ele>
        <time>2016-10-15T08:07:12Z</time>
      </trkpt>
      <trkpt lat="42.596066000" lon="-2.423181000">
        <ele>869.20</ele>
        <time>2016-10-15T08:07:13Z</time>
      </trkpt>
      <trkpt lat="42.595999000" lon="-2.423198000">
        <ele>868.70</ele>
        <time>2016-10-15T08:07:14Z</time>
      </trkpt>
      <trkpt lat="42.595934000" lon="-2.423229000">
        <ele>868.30</ele>
        <time>2016-10-15T08:07:15Z</time>
      </trkpt>
      <trkpt lat="42.595875000" lon="-2.423271000">
        <ele>867.80</ele>
        <time>2016-10-15T08:07:16Z</time>
      </trkpt>
      <trkpt lat="42.595815000" lon="-2.423314000">
        <ele>867.40</ele>
        <time>2016-10-15T08:07:17Z</time>
      </trkpt>
      <trkpt lat="42.595752000" lon="-2.423350000">
        <ele>866.80</ele>
        <time>2016-10-15T08:07:18Z</time>
      </trkpt>
      <trkpt lat="42.595689000" lon="-2.423380000">
        <ele>866.30</ele>
        <time>2016-10-15T08:07:19Z</time>
      </trkpt>
      <trkpt lat="42.595623000" lon="-2.423406000">
        <ele>865.90</ele>
        <time>2016-10-15T08:07:20Z</time>
      </trkpt>
      <trkpt lat="42.595557000" lon="-2.423444000">
        <ele>865.60</ele>
        <time>2016-10-15T08:07:21Z</time>
      </trkpt>
      <trkpt lat="42.595491000" lon="-2.423481000">
        <ele>865.00</ele>
        <time>2016-10-15T08:07:22Z</time>
      </trkpt>
      <trkpt lat="42.595428000" lon="-2.423530000">
        <ele>864.60</ele>
        <time>2016-10-15T08:07:23Z</time>
      </trkpt>
      <trkpt lat="42.595365000" lon="-2.423572000">
        <ele>864.20</ele>
        <time>2016-10-15T08:07:24Z</time>
      </trkpt>
      <trkpt lat="42.595308000" lon="-2.423608000">
        <ele>863.90</ele>
        <time>2016-10-15T08:07:25Z</time>
      </trkpt>
      <trkpt lat="42.595255000" lon="-2.423642000">
        <ele>863.50</ele>
        <time>2016-10-15T08:07:26Z</time>
      </trkpt>
      <trkpt lat="42.595199000" lon="-2.423656000">
        <ele>863.20</ele>
        <time>2016-10-15T08:07:27Z</time>
      </trkpt>
      <trkpt lat="42.595146000" lon="-2.423664000">
        <ele>862.80</ele>
        <time>2016-10-15T08:07:28Z</time>
      </trkpt>
      <trkpt lat="42.595096000" lon="-2.423670000">
        <ele>862.50</ele>
        <time>2016-10-15T08:07:29Z</time>
      </trkpt>
      <trkpt lat="42.595044000" lon="-2.423678000">
        <ele>861.70</ele>
        <time>2016-10-15T08:07:30Z</time>
      </trkpt>
      <trkpt lat="42.594988000" lon="-2.423694000">
        <ele>861.20</ele>
        <time>2016-10-15T08:07:31Z</time>
      </trkpt>
      <trkpt lat="42.594930000" lon="-2.423712000">
        <ele>860.70</ele>
        <time>2016-10-15T08:07:32Z</time>
      </trkpt>
      <trkpt lat="42.594869000" lon="-2.423735000">
        <ele>860.40</ele>
        <time>2016-10-15T08:07:33Z</time>
      </trkpt>
      <trkpt lat="42.594809000" lon="-2.423756000">
        <ele>859.80</ele>
        <time>2016-10-15T08:07:34Z</time>
      </trkpt>
      <trkpt lat="42.594747000" lon="-2.423773000">
        <ele>859.30</ele>
        <time>2016-10-15T08:07:35Z</time>
      </trkpt>
      <trkpt lat="42.594687000" lon="-2.423796000">
        <ele>859.00</ele>
        <time>2016-10-15T08:07:36Z</time>
      </trkpt>
      <trkpt lat="42.594640000" lon="-2.423817000">
        <ele>858.70</ele>
        <time>2016-10-15T08:07:37Z</time>
      </trkpt>
      <trkpt lat="42.594591000" lon="-2.423838000">
        <ele>858.40</ele>
        <time>2016-10-15T08:07:38Z</time>
      </trkpt>
      <trkpt lat="42.594541000" lon="-2.423860000">
        <ele>858.10</ele>
        <time>2016-10-15T08:07:39Z</time>
      </trkpt>
      <trkpt lat="42.594493000" lon="-2.423877000">
        <ele>857.50</ele>
        <time>2016-10-15T08:07:40Z</time>
      </trkpt>
      <trkpt lat="42.594443000" lon="-2.423890000">
        <ele>857.10</ele>
        <time>2016-10-15T08:07:41Z</time>
      </trkpt>
      <trkpt lat="42.594400000" lon="-2.423897000">
        <ele>856.80</ele>
        <time>2016-10-15T08:07:42Z</time>
      </trkpt>
      <trkpt lat="42.594361000" lon="-2.423902000">
        <ele>856.60</ele>
        <time>2016-10-15T08:07:43Z</time>
      </trkpt>
      <trkpt lat="42.594301000" lon="-2.423908000">
        <ele>856.00</ele>
        <time>2016-10-15T08:07:45Z</time>
      </trkpt>
      <trkpt lat="42.594276000" lon="-2.423912000">
        <ele>855.60</ele>
        <time>2016-10-15T08:07:46Z</time>
      </trkpt>
      <trkpt lat="42.594250000" lon="-2.423917000">
        <ele>855.30</ele>
        <time>2016-10-15T08:07:47Z</time>
      </trkpt>
      <trkpt lat="42.594224000" lon="-2.423930000">
        <ele>855.10</ele>
        <time>2016-10-15T08:07:48Z</time>
      </trkpt>
      <trkpt lat="42.594199000" lon="-2.423936000">
        <ele>854.90</ele>
        <time>2016-10-15T08:07:49Z</time>
      </trkpt>
      <trkpt lat="42.594175000" lon="-2.423939000">
        <ele>854.80</ele>
        <time>2016-10-15T08:07:50Z</time>
      </trkpt>
      <trkpt lat="42.594150000" lon="-2.423935000">
        <ele>854.60</ele>
        <time>2016-10-15T08:07:51Z</time>
      </trkpt>
      <trkpt lat="42.594122000" lon="-2.423926000">
        <ele>854.60</ele>
        <time>2016-10-15T08:07:52Z</time>
      </trkpt>
      <trkpt lat="42.594092000" lon="-2.423917000">
        <ele>854.40</ele>
        <time>2016-10-15T08:07:53Z</time>
      </trkpt>
      <trkpt lat="42.594058000" lon="-2.423907000">
        <ele>854.30</ele>
        <time>2016-10-15T08:07:54Z</time>
      </trkpt>
      <trkpt lat="42.594022000" lon="-2.423891000">
        <ele>854.10</ele>
        <time>2016-10-15T08:07:55Z</time>
      </trkpt>
      <trkpt lat="42.593983000" lon="-2.423874000">
        <ele>853.90</ele>
        <time>2016-10-15T08:07:56Z</time>
      </trkpt>
      <trkpt lat="42.593945000" lon="-2.423854000">
        <ele>853.80</ele>
        <time>2016-10-15T08:07:57Z</time>
      </trkpt>
      <trkpt lat="42.593910000" lon="-2.423828000">
        <ele>853.70</ele>
        <time>2016-10-15T08:07:58Z</time>
      </trkpt>
      <trkpt lat="42.593874000" lon="-2.423810000">
        <ele>853.50</ele>
        <time>2016-10-15T08:07:59Z</time>
      </trkpt>
      <trkpt lat="42.593835000" lon="-2.423790000">
        <ele>853.40</ele>
        <time>2016-10-15T08:08:00Z</time>
      </trkpt>
      <trkpt lat="42.593792000" lon="-2.423772000">
        <ele>853.30</ele>
        <time>2016-10-15T08:08:01Z</time>
      </trkpt>
      <trkpt lat="42.593749000" lon="-2.423749000">
        <ele>853.20</ele>
        <time>2016-10-15T08:08:02Z</time>
      </trkpt>
      <trkpt lat="42.593708000" lon="-2.423728000">
        <ele>853.00</ele>
        <time>2016-10-15T08:08:03Z</time>
      </trkpt>
      <trkpt lat="42.593665000" lon="-2.423708000">
        <ele>852.80</ele>
        <time>2016-10-15T08:08:04Z</time>
      </trkpt>
      <trkpt lat="42.593619000" lon="-2.423700000">
        <ele>852.70</ele>
        <time>2016-10-15T08:08:05Z</time>
      </trkpt>
      <trkpt lat="42.593574000" lon="-2.423693000">
        <ele>852.60</ele>
        <time>2016-10-15T08:08:06Z</time>
      </trkpt>
      <trkpt lat="42.593538000" lon="-2.423696000">
        <ele>852.60</ele>
        <time>2016-10-15T08:08:07Z</time>
      </trkpt>
      <trkpt lat="42.593508000" lon="-2.423705000">
        <ele>852.50</ele>
        <time>2016-10-15T08:08:08Z</time>
      </trkpt>
      <trkpt lat="42.593485000" lon="-2.423712000">
        <ele>851.80</ele>
        <time>2016-10-15T08:08:09Z</time>
      </trkpt>
      <trkpt lat="42.593464000" lon="-2.423722000">
        <ele>851.20</ele>
        <time>2016-10-15T08:08:10Z</time>
      </trkpt>
      <trkpt lat="42.593458000" lon="-2.423724000">
        <ele>850.60</ele>
        <time>2016-10-15T08:08:11Z</time>
      </trkpt>
      <trkpt lat="42.593456000" lon="-2.423721000">
        <ele>850.20</ele>
        <time>2016-10-15T08:08:12Z</time>
      </trkpt>
      <trkpt lat="42.593454000" lon="-2.423725000">
        <ele>849.90</ele>
        <time>2016-10-15T08:08:13Z</time>
      </trkpt>
      <trkpt lat="42.593453000" lon="-2.423726000">
        <ele>849.60</ele>
        <time>2016-10-15T08:08:14Z</time>
      </trkpt>
      <trkpt lat="42.593456000" lon="-2.423734000">
        <ele>849.30</ele>
        <time>2016-10-15T08:08:15Z</time>
      </trkpt>
      <trkpt lat="42.593454000" lon="-2.423750000">
        <ele>849.10</ele>
        <time>2016-10-15T08:08:16Z</time>
      </trkpt>
      <trkpt lat="42.593455000" lon="-2.423763000">
        <ele>849.00</ele>
        <time>2016-10-15T08:08:17Z</time>
      </trkpt>
      <trkpt lat="42.593455000" lon="-2.423768000">
        <ele>848.80</ele>
        <time>2016-10-15T08:08:18Z</time>
      </trkpt>
      <trkpt lat="42.593456000" lon="-2.423768000">
        <ele>848.80</ele>
        <time>2016-10-15T08:08:19Z</time>
      </trkpt>
      <trkpt lat="42.593457000" lon="-2.423771000">
        <ele>848.70</ele>
        <time>2016-10-15T08:08:20Z</time>
      </trkpt>
      <trkpt lat="42.593459000" lon="-2.423776000">
        <ele>848.60</ele>
        <time>2016-10-15T08:08:21Z</time>
      </trkpt>
      <trkpt lat="42.593461000" lon="-2.423783000">
        <ele>848.60</ele>
        <time>2016-10-15T08:08:22Z</time>
      </trkpt>
      <trkpt lat="42.593462000" lon="-2.423790000">
        <ele>848.60</ele>
        <time>2016-10-15T08:08:23Z</time>
      </trkpt>
      <trkpt lat="42.593459000" lon="-2.423792000">
        <ele>848.60</ele>
        <time>2016-10-15T08:08:24Z</time>
      </trkpt>
      <trkpt lat="42.593460000" lon="-2.423792000">
        <ele>848.60</ele>
        <time>2016-10-15T08:08:25Z</time>
      </trkpt>
      <trkpt lat="42.593459000" lon="-2.423792000">
        <ele>848.70</ele>
        <time>2016-10-15T08:08:26Z</time>
      </trkpt>
      <trkpt lat="42.593459000" lon="-2.423792000">
        <ele>848.70</ele>
        <time>2016-10-15T08:08:27Z</time>
      </trkpt>
      <trkpt lat="42.593460000" lon="-2.423792000">
        <ele>848.70</ele>
        <time>2016-10-15T08:08:28Z</time>
      </trkpt>
      <trkpt lat="42.593459000" lon="-2.423796000">
        <ele>848.80</ele>
        <time>2016-10-15T08:08:29Z</time>
      </trkpt>
      <trkpt lat="42.593457000" lon="-2.423805000">
        <ele>848.90</ele>
        <time>2016-10-15T08:08:30Z</time>
      </trkpt>
      <trkpt lat="42.593456000" lon="-2.423814000">
        <ele>848.90</ele>
        <time>2016-10-15T08:08:31Z</time>
      </trkpt>
      <trkpt lat="42.593452000" lon="-2.423835000">
        <ele>848.90</ele>
        <time>2016-10-15T08:08:32Z</time>
      </trkpt>
      <trkpt lat="42.593445000" lon="-2.423853000">
        <ele>848.70</ele>
        <time>2016-10-15T08:08:33Z</time>
      </trkpt>
      <trkpt lat="42.593434000" lon="-2.423870000">
        <ele>848.50</ele>
        <time>2016-10-15T08:08:34Z</time>
      </trkpt>
      <trkpt lat="42.593422000" lon="-2.423894000">
        <ele>848.30</ele>
        <time>2016-10-15T08:08:35Z</time>
      </trkpt>
      <trkpt lat="42.593410000" lon="-2.423916000">
        <ele>848.10</ele>
        <time>2016-10-15T08:08:36Z</time>
      </trkpt>
      <trkpt lat="42.593399000" lon="-2.423938000">
        <ele>848.00</ele>
        <time>2016-10-15T08:08:37Z</time>
      </trkpt>
      <trkpt lat="42.593386000" lon="-2.423957000">
        <ele>847.90</ele>
        <time>2016-10-15T08:08:38Z</time>
      </trkpt>
      <trkpt lat="42.593371000" lon="-2.423973000">
        <ele>847.80</ele>
        <time>2016-10-15T08:08:39Z</time>
      </trkpt>
      <trkpt lat="42.593355000" lon="-2.423984000">
        <ele>847.80</ele>
        <time>2016-10-15T08:08:40Z</time>
      </trkpt>
      <trkpt lat="42.593343000" lon="-2.423994000">
        <ele>847.70</ele>
        <time>2016-10-15T08:08:41Z</time>
      </trkpt>
      <trkpt lat="42.593333000" lon="-2.424006000">
        <ele>847.70</ele>
        <time>2016-10-15T08:08:42Z</time>
      </trkpt>
      <trkpt lat="42.593321000" lon="-2.424016000">
        <ele>847.50</ele>
        <time>2016-10-15T08:08:43Z</time>
      </trkpt>
      <trkpt lat="42.593310000" lon="-2.424030000">
        <ele>847.40</ele>
        <time>2016-10-15T08:08:44Z</time>
      </trkpt>
      <trkpt lat="42.593297000" lon="-2.424042000">
        <ele>847.30</ele>
        <time>2016-10-15T08:08:45Z</time>
      </trkpt>
      <trkpt lat="42.593283000" lon="-2.424061000">
        <ele>847.00</ele>
        <time>2016-10-15T08:08:47Z</time>
      </trkpt>
      <trkpt lat="42.593277000" lon="-2.424063000">
        <ele>846.80</ele>
        <time>2016-10-15T08:08:48Z</time>
      </trkpt>
      <trkpt lat="42.593273000" lon="-2.424062000">
        <ele>846.70</ele>
        <time>2016-10-15T08:08:49Z</time>
      </trkpt>
      <trkpt lat="42.593265000" lon="-2.424066000">
        <ele>846.60</ele>
        <time>2016-10-15T08:08:50Z</time>
      </trkpt>
      <trkpt lat="42.593263000" lon="-2.424063000">
        <ele>846.50</ele>
        <time>2016-10-15T08:08:51Z</time>
      </trkpt>
      <trkpt lat="42.593261000" lon="-2.424062000">
        <ele>846.40</ele>
        <time>2016-10-15T08:08:52Z</time>
      </trkpt>
      <trkpt lat="42.593258000" lon="-2.424059000">
        <ele>846.40</ele>
        <time>2016-10-15T08:08:53Z</time>
      </trkpt>
      <trkpt lat="42.593255000" lon="-2.424059000">
        <ele>846.30</ele>
        <time>2016-10-15T08:08:54Z</time>
      </trkpt>
      <trkpt lat="42.593249000" lon="-2.424063000">
        <ele>846.30</ele>
        <time>2016-10-15T08:08:55Z</time>
      </trkpt>
      <trkpt lat="42.593244000" lon="-2.424066000">
        <ele>846.30</ele>
        <time>2016-10-15T08:08:56Z</time>
      </trkpt>
      <trkpt lat="42.593238000" lon="-2.424074000">
        <ele>846.40</ele>
        <time>2016-10-15T08:08:57Z</time>
      </trkpt>
      <trkpt lat="42.593234000" lon="-2.424080000">
        <ele>846.50</ele>
        <time>2016-10-15T08:08:58Z</time>
      </trkpt>
      <trkpt lat="42.593226000" lon="-2.424084000">
        <ele>846.60</ele>
        <time>2016-10-15T08:08:59Z</time>
      </trkpt>
      <trkpt lat="42.593217000" lon="-2.424089000">
        <ele>846.60</ele>
        <time>2016-10-15T08:09:00Z</time>
      </trkpt>
      <trkpt lat="42.593212000" lon="-2.424086000">
        <ele>846.60</ele>
        <time>2016-10-15T08:09:01Z</time>
      </trkpt>
      <trkpt lat="42.593213000" lon="-2.424086000">
        <ele>846.60</ele>
        <time>2016-10-15T08:09:02Z</time>
      </trkpt>
      <trkpt lat="42.593211000" lon="-2.424090000">
        <ele>846.70</ele>
        <time>2016-10-15T08:09:03Z</time>
      </trkpt>
      <trkpt lat="42.593207000" lon="-2.424093000">
        <ele>846.80</ele>
        <time>2016-10-15T08:09:04Z</time>
      </trkpt>
      <trkpt lat="42.593202000" lon="-2.424095000">
        <ele>846.80</ele>
        <time>2016-10-15T08:09:05Z</time>
      </trkpt>
      <trkpt lat="42.593195000" lon="-2.424095000">
        <ele>846.90</ele>
        <time>2016-10-15T08:09:06Z</time>
      </trkpt>
      <trkpt lat="42.593193000" lon="-2.424088000">
        <ele>846.90</ele>
        <time>2016-10-15T08:09:07Z</time>
      </trkpt>
      <trkpt lat="42.593192000" lon="-2.424083000">
        <ele>846.90</ele>
        <time>2016-10-15T08:09:08Z</time>
      </trkpt>
      <trkpt lat="42.593184000" lon="-2.424083000">
        <ele>846.70</ele>
        <time>2016-10-15T08:09:09Z</time>
      </trkpt>
      <trkpt lat="42.593189000" lon="-2.424074000">
        <ele>846.60</ele>
        <time>2016-10-15T08:09:10Z</time>
      </trkpt>
      <trkpt lat="42.593181000" lon="-2.424079000">
        <ele>846.50</ele>
        <time>2016-10-15T08:09:11Z</time>
      </trkpt>
      <trkpt lat="42.593173000" lon="-2.424085000">
        <ele>846.70</ele>
        <time>2016-10-15T08:09:12Z</time>
      </trkpt>
      <trkpt lat="42.593156000" lon="-2.424091000">
        <ele>846.80</ele>
        <time>2016-10-15T08:09:13Z</time>
      </trkpt>
      <trkpt lat="42.593140000" lon="-2.424098000">
        <ele>846.80</ele>
        <time>2016-10-15T08:09:14Z</time>
      </trkpt>
      <trkpt lat="42.593125000" lon="-2.424101000">
        <ele>846.90</ele>
        <time>2016-10-15T08:09:15Z</time>
      </trkpt>
      <trkpt lat="42.593106000" lon="-2.424103000">
        <ele>847.00</ele>
        <time>2016-10-15T08:09:16Z</time>
      </trkpt>
      <trkpt lat="42.593082000" lon="-2.424113000">
        <ele>847.10</ele>
        <time>2016-10-15T08:09:17Z</time>
      </trkpt>
      <trkpt lat="42.593053000" lon="-2.424122000">
        <ele>847.10</ele>
        <time>2016-10-15T08:09:18Z</time>
      </trkpt>
      <trkpt lat="42.593024000" lon="-2.424135000">
        <ele>847.10</ele>
        <time>2016-10-15T08:09:19Z</time>
      </trkpt>
      <trkpt lat="42.592996000" lon="-2.424145000">
        <ele>846.90</ele>
        <time>2016-10-15T08:09:20Z</time>
      </trkpt>
      <trkpt lat="42.592967000" lon="-2.424160000">
        <ele>846.70</ele>
        <time>2016-10-15T08:09:21Z</time>
      </trkpt>
      <trkpt lat="42.592932000" lon="-2.424170000">
        <ele>846.60</ele>
        <time>2016-10-15T08:09:22Z</time>
      </trkpt>
      <trkpt lat="42.592897000" lon="-2.424183000">
        <ele>846.50</ele>
        <time>2016-10-15T08:09:23Z</time>
      </trkpt>
      <trkpt lat="42.592861000" lon="-2.424202000">
        <ele>846.20</ele>
        <time>2016-10-15T08:09:24Z</time>
      </trkpt>
      <trkpt lat="42.592825000" lon="-2.424220000">
        <ele>846.00</ele>
        <time>2016-10-15T08:09:25Z</time>
      </trkpt>
      <trkpt lat="42.592791000" lon="-2.424237000">
        <ele>845.70</ele>
        <time>2016-10-15T08:09:26Z</time>
      </trkpt>
      <trkpt lat="42.592758000" lon="-2.424256000">
        <ele>845.50</ele>
        <time>2016-10-15T08:09:27Z</time>
      </trkpt>
      <trkpt lat="42.592724000" lon="-2.424276000">
        <ele>845.40</ele>
        <time>2016-10-15T08:09:28Z</time>
      </trkpt>
      <trkpt lat="42.592691000" lon="-2.424293000">
        <ele>845.20</ele>
        <time>2016-10-15T08:09:29Z</time>
      </trkpt>
      <trkpt lat="42.592659000" lon="-2.424317000">
        <ele>845.00</ele>
        <time>2016-10-15T08:09:30Z</time>
      </trkpt>
      <trkpt lat="42.592629000" lon="-2.424338000">
        <ele>844.90</ele>
        <time>2016-10-15T08:09:31Z</time>
      </trkpt>
      <trkpt lat="42.592602000" lon="-2.424357000">
        <ele>844.70</ele>
        <time>2016-10-15T08:09:32Z</time>
      </trkpt>
      <trkpt lat="42.592575000" lon="-2.424372000">
        <ele>844.50</ele>
        <time>2016-10-15T08:09:33Z</time>
      </trkpt>
      <trkpt lat="42.592546000" lon="-2.424378000">
        <ele>844.40</ele>
        <time>2016-10-15T08:09:34Z</time>
      </trkpt>
      <trkpt lat="42.592520000" lon="-2.424381000">
        <ele>844.30</ele>
        <time>2016-10-15T08:09:35Z</time>
      </trkpt>
      <trkpt lat="42.592494000" lon="-2.424382000">
        <ele>844.00</ele>
        <time>2016-10-15T08:09:36Z</time>
      </trkpt>
      <trkpt lat="42.592471000" lon="-2.424384000">
        <ele>843.80</ele>
        <time>2016-10-15T08:09:37Z</time>
      </trkpt>
      <trkpt lat="42.592444000" lon="-2.424386000">
        <ele>843.70</ele>
        <time>2016-10-15T08:09:38Z</time>
      </trkpt>
      <trkpt lat="42.592414000" lon="-2.424390000">
        <ele>843.60</ele>
        <time>2016-10-15T08:09:39Z</time>
      </trkpt>
      <trkpt lat="42.592379000" lon="-2.424392000">
        <ele>843.40</ele>
        <time>2016-10-15T08:09:40Z</time>
      </trkpt>
      <trkpt lat="42.592343000" lon="-2.424398000">
        <ele>843.30</ele>
        <time>2016-10-15T08:09:41Z</time>
      </trkpt>
      <trkpt lat="42.592312000" lon="-2.424401000">
        <ele>843.10</ele>
        <time>2016-10-15T08:09:42Z</time>
      </trkpt>
      <trkpt lat="42.592275000" lon="-2.424402000">
        <ele>842.90</ele>
        <time>2016-10-15T08:09:43Z</time>
      </trkpt>
      <trkpt lat="42.592239000" lon="-2.424401000">
        <ele>842.70</ele>
        <time>2016-10-15T08:09:44Z</time>
      </trkpt>
      <trkpt lat="42.592203000" lon="-2.424401000">
        <ele>842.50</ele>
        <time>2016-10-15T08:09:45Z</time>
      </trkpt>
      <trkpt lat="42.592170000" lon="-2.424393000">
        <ele>841.80</ele>
        <time>2016-10-15T08:09:46Z</time>
      </trkpt>
      <trkpt lat="42.592139000" lon="-2.424390000">
        <ele>841.20</ele>
        <time>2016-10-15T08:09:47Z</time>
      </trkpt>
      <trkpt lat="42.592079000" lon="-2.424394000">
        <ele>839.80</ele>
        <time>2016-10-15T08:09:49Z</time>
      </trkpt>
      <trkpt lat="42.592049000" lon="-2.424403000">
        <ele>839.30</ele>
        <time>2016-10-15T08:09:50Z</time>
      </trkpt>
      <trkpt lat="42.592014000" lon="-2.424412000">
        <ele>839.00</ele>
        <time>2016-10-15T08:09:51Z</time>
      </trkpt>
      <trkpt lat="42.591977000" lon="-2.424423000">
        <ele>838.70</ele>
        <time>2016-10-15T08:09:52Z</time>
      </trkpt>
      <trkpt lat="42.591943000" lon="-2.424428000">
        <ele>838.50</ele>
        <time>2016-10-15T08:09:53Z</time>
      </trkpt>
      <trkpt lat="42.591904000" lon="-2.424433000">
        <ele>837.80</ele>
        <time>2016-10-15T08:09:54Z</time>
      </trkpt>
      <trkpt lat="42.591864000" lon="-2.424440000">
        <ele>837.20</ele>
        <time>2016-10-15T08:09:55Z</time>
      </trkpt>
      <trkpt lat="42.591825000" lon="-2.424444000">
        <ele>836.40</ele>
        <time>2016-10-15T08:09:56Z</time>
      </trkpt>
      <trkpt lat="42.591788000" lon="-2.424447000">
        <ele>835.80</ele>
        <time>2016-10-15T08:09:57Z</time>
      </trkpt>
      <trkpt lat="42.591750000" lon="-2.424451000">
        <ele>835.20</ele>
        <time>2016-10-15T08:09:58Z</time>
      </trkpt>
      <trkpt lat="42.591710000" lon="-2.424455000">
        <ele>834.80</ele>
        <time>2016-10-15T08:09:59Z</time>
      </trkpt>
      <trkpt lat="42.591670000" lon="-2.424460000">
        <ele>834.00</ele>
        <time>2016-10-15T08:10:00Z</time>
      </trkpt>
      <trkpt lat="42.591626000" lon="-2.424467000">
        <ele>833.50</ele>
        <time>2016-10-15T08:10:01Z</time>
      </trkpt>
      <trkpt lat="42.591580000" lon="-2.424472000">
        <ele>832.90</ele>
        <time>2016-10-15T08:10:02Z</time>
      </trkpt>
      <trkpt lat="42.591535000" lon="-2.424477000">
        <ele>832.50</ele>
        <time>2016-10-15T08:10:03Z</time>
      </trkpt>
      <trkpt lat="42.591489000" lon="-2.424478000">
        <ele>832.00</ele>
        <time>2016-10-15T08:10:04Z</time>
      </trkpt>
      <trkpt lat="42.591442000" lon="-2.424482000">
        <ele>831.60</ele>
        <time>2016-10-15T08:10:05Z</time>
      </trkpt>
      <trkpt lat="42.591398000" lon="-2.424490000">
        <ele>831.30</ele>
        <time>2016-10-15T08:10:06Z</time>
      </trkpt>
      <trkpt lat="42.591352000" lon="-2.424497000">
        <ele>831.00</ele>
        <time>2016-10-15T08:10:07Z</time>
      </trkpt>
      <trkpt lat="42.591304000" lon="-2.424504000">
        <ele>830.50</ele>
        <time>2016-10-15T08:10:08Z</time>
      </trkpt>
      <trkpt lat="42.591253000" lon="-2.424511000">
        <ele>830.10</ele>
        <time>2016-10-15T08:10:09Z</time>
      </trkpt>
      <trkpt lat="42.591200000" lon="-2.424516000">
        <ele>829.60</ele>
        <time>2016-10-15T08:10:10Z</time>
      </trkpt>
      <trkpt lat="42.591146000" lon="-2.424520000">
        <ele>829.20</ele>
        <time>2016-10-15T08:10:11Z</time>
      </trkpt>
      <trkpt lat="42.591092000" lon="-2.424524000">
        <ele>828.80</ele>
        <time>2016-10-15T08:10:12Z</time>
      </trkpt>
      <trkpt lat="42.591039000" lon="-2.424524000">
        <ele>828.40</ele>
        <time>2016-10-15T08:10:13Z</time>
      </trkpt>
      <trkpt lat="42.590986000" lon="-2.424528000">
        <ele>828.20</ele>
        <time>2016-10-15T08:10:14Z</time>
      </trkpt>
      <trkpt lat="42.590935000" lon="-2.424532000">
        <ele>828.00</ele>
        <time>2016-10-15T08:10:15Z</time>
      </trkpt>
      <trkpt lat="42.590885000" lon="-2.424542000">
        <ele>827.70</ele>
        <time>2016-10-15T08:10:16Z</time>
      </trkpt>
      <trkpt lat="42.590839000" lon="-2.424566000">
        <ele>827.50</ele>
        <time>2016-10-15T08:10:17Z</time>
      </trkpt>
      <trkpt lat="42.590794000" lon="-2.424594000">
        <ele>827.30</ele>
        <time>2016-10-15T08:10:18Z</time>
      </trkpt>
      <trkpt lat="42.590750000" lon="-2.424624000">
        <ele>827.20</ele>
        <time>2016-10-15T08:10:19Z</time>
      </trkpt>
      <trkpt lat="42.590709000" lon="-2.424658000">
        <ele>827.10</ele>
        <time>2016-10-15T08:10:20Z</time>
      </trkpt>
      <trkpt lat="42.590676000" lon="-2.424697000">
        <ele>827.10</ele>
        <time>2016-10-15T08:10:21Z</time>
      </trkpt>
      <trkpt lat="42.590640000" lon="-2.424737000">
        <ele>826.70</ele>
        <time>2016-10-15T08:10:22Z</time>
      </trkpt>
      <trkpt lat="42.590606000" lon="-2.424778000">
        <ele>826.50</ele>
        <time>2016-10-15T08:10:23Z</time>
      </trkpt>
      <trkpt lat="42.590573000" lon="-2.424823000">
        <ele>826.20</ele>
        <time>2016-10-15T08:10:24Z</time>
      </trkpt>
      <trkpt lat="42.590541000" lon="-2.424868000">
        <ele>825.90</ele>
        <time>2016-10-15T08:10:25Z</time>
      </trkpt>
      <trkpt lat="42.590510000" lon="-2.424912000">
        <ele>825.60</ele>
        <time>2016-10-15T08:10:26Z</time>
      </trkpt>
      <trkpt lat="42.590474000" lon="-2.424957000">
        <ele>825.40</ele>
        <time>2016-10-15T08:10:27Z</time>
      </trkpt>
      <trkpt lat="42.590436000" lon="-2.425003000">
        <ele>825.20</ele>
        <time>2016-10-15T08:10:28Z</time>
      </trkpt>
      <trkpt lat="42.590402000" lon="-2.425055000">
        <ele>825.10</ele>
        <time>2016-10-15T08:10:29Z</time>
      </trkpt>
      <trkpt lat="42.590365000" lon="-2.425106000">
        <ele>824.90</ele>
        <time>2016-10-15T08:10:30Z</time>
      </trkpt>
      <trkpt lat="42.590325000" lon="-2.425159000">
        <ele>824.80</ele>
        <time>2016-10-15T08:10:31Z</time>
      </trkpt>
      <trkpt lat="42.590287000" lon="-2.425213000">
        <ele>824.20</ele>
        <time>2016-10-15T08:10:32Z</time>
      </trkpt>
      <trkpt lat="42.590247000" lon="-2.425265000">
        <ele>823.70</ele>
        <time>2016-10-15T08:10:33Z</time>
      </trkpt>
      <trkpt lat="42.590205000" lon="-2.425317000">
        <ele>823.30</ele>
        <time>2016-10-15T08:10:34Z</time>
      </trkpt>
      <trkpt lat="42.590161000" lon="-2.425370000">
        <ele>822.90</ele>
        <time>2016-10-15T08:10:35Z</time>
      </trkpt>
      <trkpt lat="42.590119000" lon="-2.425421000">
        <ele>822.60</ele>
        <time>2016-10-15T08:10:36Z</time>
      </trkpt>
      <trkpt lat="42.590076000" lon="-2.425465000">
        <ele>822.30</ele>
        <time>2016-10-15T08:10:37Z</time>
      </trkpt>
      <trkpt lat="42.590033000" lon="-2.425500000">
        <ele>822.10</ele>
        <time>2016-10-15T08:10:38Z</time>
      </trkpt>
      <trkpt lat="42.589995000" lon="-2.425528000">
        <ele>822.00</ele>
        <time>2016-10-15T08:10:39Z</time>
      </trkpt>
      <trkpt lat="42.589965000" lon="-2.425549000">
        <ele>821.90</ele>
        <time>2016-10-15T08:10:40Z</time>
      </trkpt>
      <trkpt lat="42.589938000" lon="-2.425564000">
        <ele>821.80</ele>
        <time>2016-10-15T08:10:41Z</time>
      </trkpt>
      <trkpt lat="42.589916000" lon="-2.425572000">
        <ele>821.70</ele>
        <time>2016-10-15T08:10:42Z</time>
      </trkpt>
      <trkpt lat="42.589890000" lon="-2.425572000">
        <ele>821.70</ele>
        <time>2016-10-15T08:10:43Z</time>
      </trkpt>
      <trkpt lat="42.589867000" lon="-2.425569000">
        <ele>821.60</ele>
        <time>2016-10-15T08:10:44Z</time>
      </trkpt>
      <trkpt lat="42.589845000" lon="-2.425561000">
        <ele>821.60</ele>
        <time>2016-10-15T08:10:45Z</time>
      </trkpt>
      <trkpt lat="42.589825000" lon="-2.425560000">
        <ele>821.50</ele>
        <time>2016-10-15T08:10:46Z</time>
      </trkpt>
      <trkpt lat="42.589809000" lon="-2.425555000">
        <ele>821.50</ele>
        <time>2016-10-15T08:10:47Z</time>
      </trkpt>
      <trkpt lat="42.589793000" lon="-2.425550000">
        <ele>821.40</ele>
        <time>2016-10-15T08:10:48Z</time>
      </trkpt>
      <trkpt lat="42.589776000" lon="-2.425546000">
        <ele>821.40</ele>
        <time>2016-10-15T08:10:49Z</time>
      </trkpt>
      <trkpt lat="42.589743000" lon="-2.425539000">
        <ele>821.30</ele>
        <time>2016-10-15T08:10:51Z</time>
      </trkpt>
      <trkpt lat="42.589726000" lon="-2.425529000">
        <ele>821.10</ele>
        <time>2016-10-15T08:10:52Z</time>
      </trkpt>
      <trkpt lat="42.589708000" lon="-2.425516000">
        <ele>821.00</ele>
        <time>2016-10-15T08:10:53Z</time>
      </trkpt>
      <trkpt lat="42.589688000" lon="-2.425508000">
        <ele>820.60</ele>
        <time>2016-10-15T08:10:54Z</time>
      </trkpt>
      <trkpt lat="42.589668000" lon="-2.425504000">
        <ele>820.40</ele>
        <time>2016-10-15T08:10:55Z</time>
      </trkpt>
      <trkpt lat="42.589649000" lon="-2.425510000">
        <ele>820.20</ele>
        <time>2016-10-15T08:10:56Z</time>
      </trkpt>
      <trkpt lat="42.589631000" lon="-2.425527000">
        <ele>820.00</ele>
        <time>2016-10-15T08:10:57Z</time>
      </trkpt>
      <trkpt lat="42.589611000" lon="-2.425546000">
        <ele>819.80</ele>
        <time>2016-10-15T08:10:58Z</time>
      </trkpt>
      <trkpt lat="42.589589000" lon="-2.425564000">
        <ele>819.70</ele>
        <time>2016-10-15T08:10:59Z</time>
      </trkpt>
      <trkpt lat="42.589565000" lon="-2.425591000">
        <ele>819.30</ele>
        <time>2016-10-15T08:11:00Z</time>
      </trkpt>
      <trkpt lat="42.589546000" lon="-2.425615000">
        <ele>818.90</ele>
        <time>2016-10-15T08:11:01Z</time>
      </trkpt>
      <trkpt lat="42.589524000" lon="-2.425641000">
        <ele>818.30</ele>
        <time>2016-10-15T08:11:02Z</time>
      </trkpt>
      <trkpt lat="42.589504000" lon="-2.425661000">
        <ele>817.80</ele>
        <time>2016-10-15T08:11:03Z</time>
      </trkpt>
      <trkpt lat="42.589485000" lon="-2.425682000">
        <ele>817.10</ele>
        <time>2016-10-15T08:11:04Z</time>
      </trkpt>
      <trkpt lat="42.589465000" lon="-2.425696000">
        <ele>816.70</ele>
        <time>2016-10-15T08:11:05Z</time>
      </trkpt>
      <trkpt lat="42.589439000" lon="-2.425702000">
        <ele>816.20</ele>
        <time>2016-10-15T08:11:06Z</time>
      </trkpt>
      <trkpt lat="42.589402000" lon="-2.425716000">
        <ele>815.80</ele>
        <time>2016-10-15T08:11:07Z</time>
      </trkpt>
      <trkpt lat="42.589360000" lon="-2.425729000">
        <ele>815.10</ele>
        <time>2016-10-15T08:11:08Z</time>
      </trkpt>
      <trkpt lat="42.589318000" lon="-2.425746000">
        <ele>814.60</ele>
        <time>2016-10-15T08:11:09Z</time>
      </trkpt>
      <trkpt lat="42.589269000" lon="-2.425764000">
        <ele>813.90</ele>
        <time>2016-10-15T08:11:10Z</time>
      </trkpt>
      <trkpt lat="42.589220000" lon="-2.425784000">
        <ele>813.30</ele>
        <time>2016-10-15T08:11:11Z</time>
      </trkpt>
      <trkpt lat="42.589172000" lon="-2.425804000">
        <ele>812.40</ele>
        <time>2016-10-15T08:11:12Z</time>
      </trkpt>
      <trkpt lat="42.589133000" lon="-2.425823000">
        <ele>811.60</ele>
        <time>2016-10-15T08:11:13Z</time>
      </trkpt>
      <trkpt lat="42.589095000" lon="-2.425840000">
        <ele>811.00</ele>
        <time>2016-10-15T08:11:14Z</time>
      </trkpt>
      <trkpt lat="42.589053000" lon="-2.425861000">
        <ele>810.60</ele>
        <time>2016-10-15T08:11:15Z</time>
      </trkpt>
      <trkpt lat="42.589007000" lon="-2.425880000">
        <ele>809.80</ele>
        <time>2016-10-15T08:11:16Z</time>
      </trkpt>
      <trkpt lat="42.588958000" lon="-2.425902000">
        <ele>809.30</ele>
        <time>2016-10-15T08:11:17Z</time>
      </trkpt>
      <trkpt lat="42.588910000" lon="-2.425923000">
        <ele>808.40</ele>
        <time>2016-10-15T08:11:18Z</time>
      </trkpt>
      <trkpt lat="42.588867000" lon="-2.425947000">
        <ele>807.70</ele>
        <time>2016-10-15T08:11:19Z</time>
      </trkpt>
      <trkpt lat="42.588824000" lon="-2.425964000">
        <ele>806.90</ele>
        <time>2016-10-15T08:11:20Z</time>
      </trkpt>
      <trkpt lat="42.588784000" lon="-2.425987000">
        <ele>806.30</ele>
        <time>2016-10-15T08:11:21Z</time>
      </trkpt>
      <trkpt lat="42.588742000" lon="-2.426008000">
        <ele>805.40</ele>
        <time>2016-10-15T08:11:22Z</time>
      </trkpt>
      <trkpt lat="42.588702000" lon="-2.426035000">
        <ele>804.80</ele>
        <time>2016-10-15T08:11:23Z</time>
      </trkpt>
      <trkpt lat="42.588664000" lon="-2.426057000">
        <ele>803.90</ele>
        <time>2016-10-15T08:11:24Z</time>
      </trkpt>
      <trkpt lat="42.588622000" lon="-2.426071000">
        <ele>803.30</ele>
        <time>2016-10-15T08:11:25Z</time>
      </trkpt>
      <trkpt lat="42.588582000" lon="-2.426083000">
        <ele>802.10</ele>
        <time>2016-10-15T08:11:26Z</time>
      </trkpt>
      <trkpt lat="42.588537000" lon="-2.426097000">
        <ele>801.20</ele>
        <time>2016-10-15T08:11:27Z</time>
      </trkpt>
      <trkpt lat="42.588486000" lon="-2.426106000">
        <ele>800.50</ele>
        <time>2016-10-15T08:11:28Z</time>
      </trkpt>
      <trkpt lat="42.588432000" lon="-2.426114000">
        <ele>800.00</ele>
        <time>2016-10-15T08:11:29Z</time>
      </trkpt>
      <trkpt lat="42.588379000" lon="-2.426129000">
        <ele>798.90</ele>
        <time>2016-10-15T08:11:30Z</time>
      </trkpt>
      <trkpt lat="42.588328000" lon="-2.426142000">
        <ele>798.10</ele>
        <time>2016-10-15T08:11:31Z</time>
      </trkpt>
      <trkpt lat="42.588278000" lon="-2.426151000">
        <ele>797.30</ele>
        <time>2016-10-15T08:11:32Z</time>
      </trkpt>
      <trkpt lat="42.588228000" lon="-2.426171000">
        <ele>796.70</ele>
        <time>2016-10-15T08:11:33Z</time>
      </trkpt>
      <trkpt lat="42.588182000" lon="-2.426186000">
        <ele>795.80</ele>
        <time>2016-10-15T08:11:34Z</time>
      </trkpt>
      <trkpt lat="42.588144000" lon="-2.426211000">
        <ele>795.20</ele>
        <time>2016-10-15T08:11:35Z</time>
      </trkpt>
      <trkpt lat="42.588108000" lon="-2.426243000">
        <ele>794.30</ele>
        <time>2016-10-15T08:11:36Z</time>
      </trkpt>
      <trkpt lat="42.588075000" lon="-2.426276000">
        <ele>793.70</ele>
        <time>2016-10-15T08:11:37Z</time>
      </trkpt>
      <trkpt lat="42.588042000" lon="-2.426314000">
        <ele>792.50</ele>
        <time>2016-10-15T08:11:38Z</time>
      </trkpt>
      <trkpt lat="42.588007000" lon="-2.426352000">
        <ele>791.50</ele>
        <time>2016-10-15T08:11:39Z</time>
      </trkpt>
      <trkpt lat="42.587971000" lon="-2.426396000">
        <ele>790.50</ele>
        <time>2016-10-15T08:11:40Z</time>
      </trkpt>
      <trkpt lat="42.587937000" lon="-2.426431000">
        <ele>789.80</ele>
        <time>2016-10-15T08:11:41Z</time>
      </trkpt>
      <trkpt lat="42.587898000" lon="-2.426464000">
        <ele>788.90</ele>
        <time>2016-10-15T08:11:42Z</time>
      </trkpt>
      <trkpt lat="42.587859000" lon="-2.426493000">
        <ele>788.20</ele>
        <time>2016-10-15T08:11:43Z</time>
      </trkpt>
      <trkpt lat="42.587817000" lon="-2.426514000">
        <ele>787.20</ele>
        <time>2016-10-15T08:11:44Z</time>
      </trkpt>
      <trkpt lat="42.587776000" lon="-2.426534000">
        <ele>786.40</ele>
        <time>2016-10-15T08:11:45Z</time>
      </trkpt>
      <trkpt lat="42.587726000" lon="-2.426545000">
        <ele>785.40</ele>
        <time>2016-10-15T08:11:46Z</time>
      </trkpt>
      <trkpt lat="42.587671000" lon="-2.426554000">
        <ele>784.70</ele>
        <time>2016-10-15T08:11:47Z</time>
      </trkpt>
      <trkpt lat="42.587610000" lon="-2.426550000">
        <ele>783.60</ele>
        <time>2016-10-15T08:11:48Z</time>
      </trkpt>
      <trkpt lat="42.587547000" lon="-2.426537000">
        <ele>782.80</ele>
        <time>2016-10-15T08:11:49Z</time>
      </trkpt>
      <trkpt lat="42.587492000" lon="-2.426524000">
        <ele>781.90</ele>
        <time>2016-10-15T08:11:50Z</time>
      </trkpt>
      <trkpt lat="42.587394000" lon="-2.426571000">
        <ele>780.10</ele>
        <time>2016-10-15T08:11:52Z</time>
      </trkpt>
      <trkpt lat="42.587346000" lon="-2.426607000">
        <ele>779.40</ele>
        <time>2016-10-15T08:11:53Z</time>
      </trkpt>
      <trkpt lat="42.587293000" lon="-2.426629000">
        <ele>778.60</ele>
        <time>2016-10-15T08:11:54Z</time>
      </trkpt>
      <trkpt lat="42.587235000" lon="-2.426649000">
        <ele>778.00</ele>
        <time>2016-10-15T08:11:55Z</time>
      </trkpt>
      <trkpt lat="42.587170000" lon="-2.426662000">
        <ele>776.90</ele>
        <time>2016-10-15T08:11:56Z</time>
      </trkpt>
      <trkpt lat="42.587107000" lon="-2.426675000">
        <ele>776.10</ele>
        <time>2016-10-15T08:11:57Z</time>
      </trkpt>
      <trkpt lat="42.587050000" lon="-2.426704000">
        <ele>775.00</ele>
        <time>2016-10-15T08:11:58Z</time>
      </trkpt>
      <trkpt lat="42.587001000" lon="-2.426736000">
        <ele>774.30</ele>
        <time>2016-10-15T08:11:59Z</time>
      </trkpt>
      <trkpt lat="42.586956000" lon="-2.426767000">
        <ele>773.00</ele>
        <time>2016-10-15T08:12:00Z</time>
      </trkpt>
      <trkpt lat="42.586907000" lon="-2.426798000">
        <ele>772.10</ele>
        <time>2016-10-15T08:12:01Z</time>
      </trkpt>
      <trkpt lat="42.586861000" lon="-2.426838000">
        <ele>771.40</ele>
        <time>2016-10-15T08:12:02Z</time>
      </trkpt>
      <trkpt lat="42.586814000" lon="-2.426873000">
        <ele>770.90</ele>
        <time>2016-10-15T08:12:03Z</time>
      </trkpt>
      <trkpt lat="42.586769000" lon="-2.426909000">
        <ele>770.00</ele>
        <time>2016-10-15T08:12:04Z</time>
      </trkpt>
      <trkpt lat="42.586726000" lon="-2.426944000">
        <ele>769.30</ele>
        <time>2016-10-15T08:12:05Z</time>
      </trkpt>
      <trkpt lat="42.586685000" lon="-2.426986000">
        <ele>768.50</ele>
        <time>2016-10-15T08:12:06Z</time>
      </trkpt>
      <trkpt lat="42.586642000" lon="-2.427032000">
        <ele>768.00</ele>
        <time>2016-10-15T08:12:07Z</time>
      </trkpt>
      <trkpt lat="42.586602000" lon="-2.427086000">
        <ele>767.50</ele>
        <time>2016-10-15T08:12:08Z</time>
      </trkpt>
      <trkpt lat="42.586570000" lon="-2.427139000">
        <ele>767.20</ele>
        <time>2016-10-15T08:12:09Z</time>
      </trkpt>
      <trkpt lat="42.586538000" lon="-2.427185000">
        <ele>766.10</ele>
        <time>2016-10-15T08:12:10Z</time>
      </trkpt>
      <trkpt lat="42.586501000" lon="-2.427223000">
        <ele>765.40</ele>
        <time>2016-10-15T08:12:11Z</time>
      </trkpt>
      <trkpt lat="42.586461000" lon="-2.427257000">
        <ele>764.70</ele>
        <time>2016-10-15T08:12:12Z</time>
      </trkpt>
      <trkpt lat="42.586421000" lon="-2.427287000">
        <ele>764.20</ele>
        <time>2016-10-15T08:12:13Z</time>
      </trkpt>
      <trkpt lat="42.586382000" lon="-2.427310000">
        <ele>763.40</ele>
        <time>2016-10-15T08:12:14Z</time>
      </trkpt>
      <trkpt lat="42.586347000" lon="-2.427333000">
        <ele>762.90</ele>
        <time>2016-10-15T08:12:15Z</time>
      </trkpt>
      <trkpt lat="42.586309000" lon="-2.427355000">
        <ele>762.30</ele>
        <time>2016-10-15T08:12:16Z</time>
      </trkpt>
      <trkpt lat="42.586270000" lon="-2.427380000">
        <ele>761.90</ele>
        <time>2016-10-15T08:12:17Z</time>
      </trkpt>
      <trkpt lat="42.586227000" lon="-2.427398000">
        <ele>761.00</ele>
        <time>2016-10-15T08:12:18Z</time>
      </trkpt>
      <trkpt lat="42.586183000" lon="-2.427419000">
        <ele>760.40</ele>
        <time>2016-10-15T08:12:19Z</time>
      </trkpt>
      <trkpt lat="42.586142000" lon="-2.427445000">
        <ele>759.50</ele>
        <time>2016-10-15T08:12:20Z</time>
      </trkpt>
      <trkpt lat="42.586102000" lon="-2.427466000">
        <ele>758.80</ele>
        <time>2016-10-15T08:12:21Z</time>
      </trkpt>
      <trkpt lat="42.586058000" lon="-2.427483000">
        <ele>758.10</ele>
        <time>2016-10-15T08:12:22Z</time>
      </trkpt>
      <trkpt lat="42.586009000" lon="-2.427502000">
        <ele>757.50</ele>
        <time>2016-10-15T08:12:23Z</time>
      </trkpt>
      <trkpt lat="42.585962000" lon="-2.427525000">
        <ele>756.70</ele>
        <time>2016-10-15T08:12:24Z</time>
      </trkpt>
      <trkpt lat="42.585909000" lon="-2.427539000">
        <ele>756.10</ele>
        <time>2016-10-15T08:12:25Z</time>
      </trkpt>
      <trkpt lat="42.585854000" lon="-2.427551000">
        <ele>755.50</ele>
        <time>2016-10-15T08:12:26Z</time>
      </trkpt>
      <trkpt lat="42.585801000" lon="-2.427567000">
        <ele>755.00</ele>
        <time>2016-10-15T08:12:27Z</time>
      </trkpt>
      <trkpt lat="42.585751000" lon="-2.427582000">
        <ele>754.10</ele>
        <time>2016-10-15T08:12:28Z</time>
      </trkpt>
      <trkpt lat="42.585700000" lon="-2.427596000">
        <ele>753.50</ele>
        <time>2016-10-15T08:12:29Z</time>
      </trkpt>
      <trkpt lat="42.585648000" lon="-2.427609000">
        <ele>752.50</ele>
        <time>2016-10-15T08:12:30Z</time>
      </trkpt>
      <trkpt lat="42.585599000" lon="-2.427624000">
        <ele>751.80</ele>
        <time>2016-10-15T08:12:31Z</time>
      </trkpt>
      <trkpt lat="42.585553000" lon="-2.427646000">
        <ele>750.80</ele>
        <time>2016-10-15T08:12:32Z</time>
      </trkpt>
      <trkpt lat="42.585511000" lon="-2.427664000">
        <ele>750.10</ele>
        <time>2016-10-15T08:12:33Z</time>
      </trkpt>
      <trkpt lat="42.585468000" lon="-2.427682000">
        <ele>748.70</ele>
        <time>2016-10-15T08:12:34Z</time>
      </trkpt>
      <trkpt lat="42.585419000" lon="-2.427692000">
        <ele>747.80</ele>
        <time>2016-10-15T08:12:35Z</time>
      </trkpt>
      <trkpt lat="42.585368000" lon="-2.427707000">
        <ele>746.90</ele>
        <time>2016-10-15T08:12:36Z</time>
      </trkpt>
      <trkpt lat="42.585314000" lon="-2.427721000">
        <ele>746.20</ele>
        <time>2016-10-15T08:12:37Z</time>
      </trkpt>
      <trkpt lat="42.585264000" lon="-2.427735000">
        <ele>745.20</ele>
        <time>2016-10-15T08:12:38Z</time>
      </trkpt>
      <trkpt lat="42.585217000" lon="-2.427751000">
        <ele>744.50</ele>
        <time>2016-10-15T08:12:39Z</time>
      </trkpt>
      <trkpt lat="42.585174000" lon="-2.427775000">
        <ele>743.50</ele>
        <time>2016-10-15T08:12:40Z</time>
      </trkpt>
      <trkpt lat="42.585134000" lon="-2.427803000">
        <ele>742.90</ele>
        <time>2016-10-15T08:12:41Z</time>
      </trkpt>
      <trkpt lat="42.585091000" lon="-2.427830000">
        <ele>741.70</ele>
        <time>2016-10-15T08:12:42Z</time>
      </trkpt>
      <trkpt lat="42.585048000" lon="-2.427855000">
        <ele>740.80</ele>
        <time>2016-10-15T08:12:43Z</time>
      </trkpt>
      <trkpt lat="42.585000000" lon="-2.427876000">
        <ele>739.90</ele>
        <time>2016-10-15T08:12:44Z</time>
      </trkpt>
      <trkpt lat="42.584952000" lon="-2.427897000">
        <ele>739.20</ele>
        <time>2016-10-15T08:12:45Z</time>
      </trkpt>
      <trkpt lat="42.584906000" lon="-2.427928000">
        <ele>738.60</ele>
        <time>2016-10-15T08:12:46Z</time>
      </trkpt>
      <trkpt lat="42.584864000" lon="-2.427965000">
        <ele>738.20</ele>
        <time>2016-10-15T08:12:47Z</time>
      </trkpt>
      <trkpt lat="42.584826000" lon="-2.428003000">
        <ele>737.70</ele>
        <time>2016-10-15T08:12:48Z</time>
      </trkpt>
      <trkpt lat="42.584787000" lon="-2.428035000">
        <ele>737.40</ele>
        <time>2016-10-15T08:12:49Z</time>
      </trkpt>
      <trkpt lat="42.584750000" lon="-2.428065000">
        <ele>736.40</ele>
        <time>2016-10-15T08:12:50Z</time>
      </trkpt>
      <trkpt lat="42.584719000" lon="-2.428096000">
        <ele>735.70</ele>
        <time>2016-10-15T08:12:51Z</time>
      </trkpt>
      <trkpt lat="42.584686000" lon="-2.428129000">
        <ele>734.80</ele>
        <time>2016-10-15T08:12:52Z</time>
      </trkpt>
      <trkpt lat="42.584608000" lon="-2.428193000">
        <ele>733.30</ele>
        <time>2016-10-15T08:12:54Z</time>
      </trkpt>
      <trkpt lat="42.584558000" lon="-2.428229000">
        <ele>732.60</ele>
        <time>2016-10-15T08:12:55Z</time>
      </trkpt>
      <trkpt lat="42.584507000" lon="-2.428266000">
        <ele>732.00</ele>
        <time>2016-10-15T08:12:56Z</time>
      </trkpt>
      <trkpt lat="42.584451000" lon="-2.428300000">
        <ele>731.50</ele>
        <time>2016-10-15T08:12:57Z</time>
      </trkpt>
      <trkpt lat="42.584394000" lon="-2.428335000">
        <ele>731.00</ele>
        <time>2016-10-15T08:12:58Z</time>
      </trkpt>
      <trkpt lat="42.584336000" lon="-2.428370000">
        <ele>730.60</ele>
        <time>2016-10-15T08:12:59Z</time>
      </trkpt>
      <trkpt lat="42.584280000" lon="-2.428404000">
        <ele>730.00</ele>
        <time>2016-10-15T08:13:00Z</time>
      </trkpt>
      <trkpt lat="42.584230000" lon="-2.428442000">
        <ele>729.60</ele>
        <time>2016-10-15T08:13:01Z</time>
      </trkpt>
      <trkpt lat="42.584181000" lon="-2.428485000">
        <ele>728.50</ele>
        <time>2016-10-15T08:13:02Z</time>
      </trkpt>
      <trkpt lat="42.584132000" lon="-2.428526000">
        <ele>727.70</ele>
        <time>2016-10-15T08:13:03Z</time>
      </trkpt>
      <trkpt lat="42.584084000" lon="-2.428558000">
        <ele>726.60</ele>
        <time>2016-10-15T08:13:04Z</time>
      </trkpt>
      <trkpt lat="42.584034000" lon="-2.428590000">
        <ele>725.80</ele>
        <time>2016-10-15T08:13:05Z</time>
      </trkpt>
      <trkpt lat="42.583978000" lon="-2.428626000">
        <ele>725.10</ele>
        <time>2016-10-15T08:13:06Z</time>
      </trkpt>
      <trkpt lat="42.583933000" lon="-2.428655000">
        <ele>724.60</ele>
        <time>2016-10-15T08:13:07Z</time>
      </trkpt>
      <trkpt lat="42.583897000" lon="-2.428682000">
        <ele>723.30</ele>
        <time>2016-10-15T08:13:08Z</time>
      </trkpt>
      <trkpt lat="42.583854000" lon="-2.428706000">
        <ele>722.40</ele>
        <time>2016-10-15T08:13:09Z</time>
      </trkpt>
      <trkpt lat="42.583807000" lon="-2.428730000">
        <ele>721.50</ele>
        <time>2016-10-15T08:13:10Z</time>
      </trkpt>
      <trkpt lat="42.583751000" lon="-2.428753000">
        <ele>720.80</ele>
        <time>2016-10-15T08:13:11Z</time>
      </trkpt>
      <trkpt lat="42.583695000" lon="-2.428777000">
        <ele>719.80</ele>
        <time>2016-10-15T08:13:12Z</time>
      </trkpt>
      <trkpt lat="42.583638000" lon="-2.428797000">
        <ele>719.10</ele>
        <time>2016-10-15T08:13:13Z</time>
      </trkpt>
      <trkpt lat="42.583582000" lon="-2.428829000">
        <ele>718.50</ele>
        <time>2016-10-15T08:13:14Z</time>
      </trkpt>
      <trkpt lat="42.583521000" lon="-2.428871000">
        <ele>718.00</ele>
        <time>2016-10-15T08:13:15Z</time>
      </trkpt>
      <trkpt lat="42.583462000" lon="-2.428910000">
        <ele>717.20</ele>
        <time>2016-10-15T08:13:16Z</time>
      </trkpt>
      <trkpt lat="42.583395000" lon="-2.428951000">
        <ele>716.60</ele>
        <time>2016-10-15T08:13:17Z</time>
      </trkpt>
      <trkpt lat="42.583333000" lon="-2.428997000">
        <ele>715.40</ele>
        <time>2016-10-15T08:13:18Z</time>
      </trkpt>
      <trkpt lat="42.583275000" lon="-2.429051000">
        <ele>714.50</ele>
        <time>2016-10-15T08:13:19Z</time>
      </trkpt>
      <trkpt lat="42.583217000" lon="-2.429109000">
        <ele>713.60</ele>
        <time>2016-10-15T08:13:20Z</time>
      </trkpt>
      <trkpt lat="42.583168000" lon="-2.429155000">
        <ele>712.90</ele>
        <time>2016-10-15T08:13:21Z</time>
      </trkpt>
      <trkpt lat="42.583127000" lon="-2.429194000">
        <ele>712.20</ele>
        <time>2016-10-15T08:13:22Z</time>
      </trkpt>
      <trkpt lat="42.583094000" lon="-2.429230000">
        <ele>711.70</ele>
        <time>2016-10-15T08:13:23Z</time>
      </trkpt>
      <trkpt lat="42.583069000" lon="-2.429258000">
        <ele>711.10</ele>
        <time>2016-10-15T08:13:24Z</time>
      </trkpt>
      <trkpt lat="42.583050000" lon="-2.429287000">
        <ele>710.60</ele>
        <time>2016-10-15T08:13:25Z</time>
      </trkpt>
      <trkpt lat="42.583033000" lon="-2.429303000">
        <ele>710.00</ele>
        <time>2016-10-15T08:13:26Z</time>
      </trkpt>
      <trkpt lat="42.583026000" lon="-2.429304000">
        <ele>709.50</ele>
        <time>2016-10-15T08:13:27Z</time>
      </trkpt>
      <trkpt lat="42.583023000" lon="-2.429303000">
        <ele>709.00</ele>
        <time>2016-10-15T08:13:28Z</time>
      </trkpt>
      <trkpt lat="42.583021000" lon="-2.429300000">
        <ele>708.70</ele>
        <time>2016-10-15T08:13:29Z</time>
      </trkpt>
      <trkpt lat="42.583019000" lon="-2.429296000">
        <ele>708.40</ele>
        <time>2016-10-15T08:13:30Z</time>
      </trkpt>
      <trkpt lat="42.583019000" lon="-2.429296000">
        <ele>708.20</ele>
        <time>2016-10-15T08:13:31Z</time>
      </trkpt>
      <trkpt lat="42.583018000" lon="-2.429297000">
        <ele>708.10</ele>
        <time>2016-10-15T08:13:32Z</time>
      </trkpt>
      <trkpt lat="42.583018000" lon="-2.429302000">
        <ele>708.00</ele>
        <time>2016-10-15T08:13:33Z</time>
      </trkpt>
      <trkpt lat="42.583017000" lon="-2.429303000">
        <ele>707.80</ele>
        <time>2016-10-15T08:13:34Z</time>
      </trkpt>
      <trkpt lat="42.583017000" lon="-2.429302000">
        <ele>707.70</ele>
        <time>2016-10-15T08:13:35Z</time>
      </trkpt>
      <trkpt lat="42.583018000" lon="-2.429301000">
        <ele>707.60</ele>
        <time>2016-10-15T08:13:36Z</time>
      </trkpt>
      <trkpt lat="42.583017000" lon="-2.429300000">
        <ele>707.50</ele>
        <time>2016-10-15T08:13:37Z</time>
      </trkpt>
      <trkpt lat="42.583017000" lon="-2.429300000">
        <ele>707.50</ele>
        <time>2016-10-15T08:13:38Z</time>
      </trkpt>
      <trkpt lat="42.583017000" lon="-2.429299000">
        <ele>707.50</ele>
        <time>2016-10-15T08:13:39Z</time>
      </trkpt>
      <trkpt lat="42.583017000" lon="-2.429299000">
        <ele>707.40</ele>
        <time>2016-10-15T08:13:40Z</time>
      </trkpt>
      <trkpt lat="42.583018000" lon="-2.429302000">
        <ele>707.30</ele>
        <time>2016-10-15T08:13:41Z</time>
      </trkpt>
      <trkpt lat="42.583018000" lon="-2.429302000">
        <ele>707.30</ele>
        <time>2016-10-15T08:13:42Z</time>
      </trkpt>
      <trkpt lat="42.583018000" lon="-2.429303000">
        <ele>707.30</ele>
        <time>2016-10-15T08:13:43Z</time>
      </trkpt>
      <trkpt lat="42.583017000" lon="-2.429303000">
        <ele>707.30</ele>
        <time>2016-10-15T08:13:44Z</time>
      </trkpt>
      <trkpt lat="42.583017000" lon="-2.429303000">
        <ele>707.30</ele>
        <time>2016-10-15T08:13:45Z</time>
      </trkpt>
      <trkpt lat="42.583016000" lon="-2.429304000">
        <ele>707.30</ele>
        <time>2016-10-15T08:13:46Z</time>
      </trkpt>
      <trkpt lat="42.583016000" lon="-2.429304000">
        <ele>707.30</ele>
        <time>2016-10-15T08:13:47Z</time>
      </trkpt>
      <trkpt lat="42.583015000" lon="-2.429304000">
        <ele>707.40</ele>
        <time>2016-10-15T08:13:48Z</time>
      </trkpt>
      <trkpt lat="42.583015000" lon="-2.429305000">
        <ele>707.50</ele>
        <time>2016-10-15T08:13:49Z</time>
      </trkpt>
      <trkpt lat="42.583015000" lon="-2.429305000">
        <ele>707.50</ele>
        <time>2016-10-15T08:13:50Z</time>
      </trkpt>
      <trkpt lat="42.583014000" lon="-2.429305000">
        <ele>707.60</ele>
        <time>2016-10-15T08:13:51Z</time>
      </trkpt>
      <trkpt lat="42.583014000" lon="-2.429304000">
        <ele>707.60</ele>
        <time>2016-10-15T08:13:52Z</time>
      </trkpt>
      <trkpt lat="42.583013000" lon="-2.429303000">
        <ele>707.60</ele>
        <time>2016-10-15T08:13:53Z</time>
      </trkpt>
      <trkpt lat="42.583012000" lon="-2.429303000">
        <ele>707.60</ele>
        <time>2016-10-15T08:13:54Z</time>
      </trkpt>
      <trkpt lat="42.583012000" lon="-2.429302000">
        <ele>707.50</ele>
        <time>2016-10-15T08:13:56Z</time>
      </trkpt>
      <trkpt lat="42.583012000" lon="-2.429301000">
        <ele>707.50</ele>
        <time>2016-10-15T08:13:57Z</time>
      </trkpt>
      <trkpt lat="42.583012000" lon="-2.429301000">
        <ele>707.40</ele>
        <time>2016-10-15T08:13:58Z</time>
      </trkpt>
      <trkpt lat="42.583012000" lon="-2.429301000">
        <ele>707.40</ele>
        <time>2016-10-15T08:13:59Z</time>
      </trkpt>
      <trkpt lat="42.583012000" lon="-2.429300000">
        <ele>707.40</ele>
        <time>2016-10-15T08:14:00Z</time>
      </trkpt>
      <trkpt lat="42.583012000" lon="-2.429300000">
        <ele>707.30</ele>
        <time>2016-10-15T08:14:01Z</time>
      </trkpt>
      <trkpt lat="42.583013000" lon="-2.429299000">
        <ele>707.30</ele>
        <time>2016-10-15T08:14:02Z</time>
      </trkpt>
      <trkpt lat="42.583013000" lon="-2.429299000">
        <ele>707.30</ele>
        <time>2016-10-15T08:14:03Z</time>
      </trkpt>
      <trkpt lat="42.583013000" lon="-2.429298000">
        <ele>707.20</ele>
        <time>2016-10-15T08:14:04Z</time>
      </trkpt>
      <trkpt lat="42.583013000" lon="-2.429298000">
        <ele>707.20</ele>
        <time>2016-10-15T08:14:05Z</time>
      </trkpt>
      <trkpt lat="42.583013000" lon="-2.429297000">
        <ele>707.10</ele>
        <time>2016-10-15T08:14:06Z</time>
      </trkpt>
      <trkpt lat="42.583014000" lon="-2.429298000">
        <ele>707.00</ele>
        <time>2016-10-15T08:14:07Z</time>
      </trkpt>
      <trkpt lat="42.583014000" lon="-2.429297000">
        <ele>706.80</ele>
        <time>2016-10-15T08:14:08Z</time>
      </trkpt>
      <trkpt lat="42.583014000" lon="-2.429298000">
        <ele>706.70</ele>
        <time>2016-10-15T08:14:09Z</time>
      </trkpt>
      <trkpt lat="42.583014000" lon="-2.429298000">
        <ele>706.70</ele>
        <time>2016-10-15T08:14:10Z</time>
      </trkpt>
      <trkpt lat="42.583014000" lon="-2.429299000">
        <ele>706.60</ele>
        <time>2016-10-15T08:14:11Z</time>
      </trkpt>
      <trkpt lat="42.583014000" lon="-2.429298000">
        <ele>706.60</ele>
        <time>2016-10-15T08:14:12Z</time>
      </trkpt>
      <trkpt lat="42.583013000" lon="-2.429298000">
        <ele>706.60</ele>
        <time>2016-10-15T08:14:13Z</time>
      </trkpt>
      <trkpt lat="42.583013000" lon="-2.429298000">
        <ele>706.70</ele>
        <time>2016-10-15T08:14:14Z</time>
      </trkpt>
      <trkpt lat="42.583013000" lon="-2.429298000">
        <ele>706.80</ele>
        <time>2016-10-15T08:14:15Z</time>
      </trkpt>
      <trkpt lat="42.583012000" lon="-2.429298000">
        <ele>706.90</ele>
        <time>2016-10-15T08:14:16Z</time>
      </trkpt>
      <trkpt lat="42.583012000" lon="-2.429298000">
        <ele>706.90</ele>
        <time>2016-10-15T08:14:17Z</time>
      </trkpt>
      <trkpt lat="42.583012000" lon="-2.429299000">
        <ele>707.00</ele>
        <time>2016-10-15T08:14:18Z</time>
      </trkpt>
      <trkpt lat="42.583012000" lon="-2.429299000">
        <ele>707.00</ele>
        <time>2016-10-15T08:14:19Z</time>
      </trkpt>
      <trkpt lat="42.583012000" lon="-2.429299000">
        <ele>707.10</ele>
        <time>2016-10-15T08:14:20Z</time>
      </trkpt>
      <trkpt lat="42.583012000" lon="-2.429298000">
        <ele>707.20</ele>
        <time>2016-10-15T08:14:21Z</time>
      </trkpt>
      <trkpt lat="42.583012000" lon="-2.429297000">
        <ele>707.30</ele>
        <time>2016-10-15T08:14:22Z</time>
      </trkpt>
      <trkpt lat="42.583011000" lon="-2.429296000">
        <ele>707.30</ele>
        <time>2016-10-15T08:14:23Z</time>
      </trkpt>
      <trkpt lat="42.583011000" lon="-2.429296000">
        <ele>707.40</ele>
        <time>2016-10-15T08:14:24Z</time>
      </trkpt>
      <trkpt lat="42.583012000" lon="-2.429296000">
        <ele>707.40</ele>
        <time>2016-10-15T08:14:25Z</time>
      </trkpt>
      <trkpt lat="42.583012000" lon="-2.429296000">
        <ele>707.40</ele>
        <time>2016-10-15T08:14:26Z</time>
      </trkpt>
      <trkpt lat="42.583012000" lon="-2.429296000">
        <ele>707.50</ele>
        <time>2016-10-15T08:14:27Z</time>
      </trkpt>
      <trkpt lat="42.583011000" lon="-2.429298000">
        <ele>707.40</ele>
        <time>2016-10-15T08:14:28Z</time>
      </trkpt>
      <trkpt lat="42.583011000" lon="-2.429300000">
        <ele>707.30</ele>
        <time>2016-10-15T08:14:29Z</time>
      </trkpt>
      <trkpt lat="42.583010000" lon="-2.429300000">
        <ele>707.30</ele>
        <time>2016-10-15T08:14:30Z</time>
      </trkpt>
      <trkpt lat="42.583010000" lon="-2.429300000">
        <ele>707.20</ele>
        <time>2016-10-15T08:14:31Z</time>
      </trkpt>
      <trkpt lat="42.583011000" lon="-2.429301000">
        <ele>707.20</ele>
        <time>2016-10-15T08:14:32Z</time>
      </trkpt>
      <trkpt lat="42.583010000" lon="-2.429301000">
        <ele>707.20</ele>
        <time>2016-10-15T08:14:33Z</time>
      </trkpt>
      <trkpt lat="42.583010000" lon="-2.429301000">
        <ele>707.10</ele>
        <time>2016-10-15T08:14:34Z</time>
      </trkpt>
      <trkpt lat="42.583010000" lon="-2.429301000">
        <ele>707.10</ele>
        <time>2016-10-15T08:14:35Z</time>
      </trkpt>
      <trkpt lat="42.583010000" lon="-2.429301000">
        <ele>707.10</ele>
        <time>2016-10-15T08:14:36Z</time>
      </trkpt>
      <trkpt lat="42.583009000" lon="-2.429301000">
        <ele>707.10</ele>
        <time>2016-10-15T08:14:37Z</time>
      </trkpt>
      <trkpt lat="42.583004000" lon="-2.429311000">
        <ele>707.20</ele>
        <time>2016-10-15T08:14:38Z</time>
      </trkpt>
      <trkpt lat="42.582989000" lon="-2.429328000">
        <ele>707.20</ele>
        <time>2016-10-15T08:14:39Z</time>
      </trkpt>
      <trkpt lat="42.582974000" lon="-2.429342000">
        <ele>707.20</ele>
        <time>2016-10-15T08:14:40Z</time>
      </trkpt>
      <trkpt lat="42.582955000" lon="-2.429353000">
        <ele>707.20</ele>
        <time>2016-10-15T08:14:41Z</time>
      </trkpt>
      <trkpt lat="42.582939000" lon="-2.429368000">
        <ele>707.00</ele>
        <time>2016-10-15T08:14:42Z</time>
      </trkpt>
      <trkpt lat="42.582924000" lon="-2.429386000">
        <ele>706.80</ele>
        <time>2016-10-15T08:14:43Z</time>
      </trkpt>
      <trkpt lat="42.582903000" lon="-2.429405000">
        <ele>706.70</ele>
        <time>2016-10-15T08:14:44Z</time>
      </trkpt>
      <trkpt lat="42.582881000" lon="-2.429431000">
        <ele>706.60</ele>
        <time>2016-10-15T08:14:45Z</time>
      </trkpt>
      <trkpt lat="42.582857000" lon="-2.429461000">
        <ele>706.50</ele>
        <time>2016-10-15T08:14:46Z</time>
      </trkpt>
      <trkpt lat="42.582828000" lon="-2.429495000">
        <ele>706.50</ele>
        <time>2016-10-15T08:14:47Z</time>
      </trkpt>
      <trkpt lat="42.582796000" lon="-2.429534000">
        <ele>706.20</ele>
        <time>2016-10-15T08:14:48Z</time>
      </trkpt>
      <trkpt lat="42.582764000" lon="-2.429576000">
        <ele>706.00</ele>
        <time>2016-10-15T08:14:49Z</time>
      </trkpt>
      <trkpt lat="42.582728000" lon="-2.429617000">
        <ele>705.70</ele>
        <time>2016-10-15T08:14:50Z</time>
      </trkpt>
      <trkpt lat="42.582689000" lon="-2.429659000">
        <ele>705.50</ele>
        <time>2016-10-15T08:14:51Z</time>
      </trkpt>
      <trkpt lat="42.582646000" lon="-2.429710000">
        <ele>705.20</ele>
        <time>2016-10-15T08:14:52Z</time>
      </trkpt>
      <trkpt lat="42.582601000" lon="-2.429764000">
        <ele>704.90</ele>
        <time>2016-10-15T08:14:53Z</time>
      </trkpt>
      <trkpt lat="42.582552000" lon="-2.429808000">
        <ele>704.50</ele>
        <time>2016-10-15T08:14:54Z</time>
      </trkpt>
      <trkpt lat="42.582499000" lon="-2.429851000">
        <ele>704.10</ele>
        <time>2016-10-15T08:14:55Z</time>
      </trkpt>
      <trkpt lat="42.582447000" lon="-2.429887000">
        <ele>703.10</ele>
        <time>2016-10-15T08:14:56Z</time>
      </trkpt>
      <trkpt lat="42.582358000" lon="-2.429928000">
        <ele>701.90</ele>
        <time>2016-10-15T08:14:58Z</time>
      </trkpt>
      <trkpt lat="42.582312000" lon="-2.429925000">
        <ele>701.50</ele>
        <time>2016-10-15T08:14:59Z</time>
      </trkpt>
      <trkpt lat="42.582263000" lon="-2.429909000">
        <ele>700.20</ele>
        <time>2016-10-15T08:15:00Z</time>
      </trkpt>
      <trkpt lat="42.582217000" lon="-2.429882000">
        <ele>698.70</ele>
        <time>2016-10-15T08:15:01Z</time>
      </trkpt>
      <trkpt lat="42.582181000" lon="-2.429845000">
        <ele>697.60</ele>
        <time>2016-10-15T08:15:02Z</time>
      </trkpt>
      <trkpt lat="42.582152000" lon="-2.429796000">
        <ele>696.60</ele>
        <time>2016-10-15T08:15:03Z</time>
      </trkpt>
      <trkpt lat="42.582123000" lon="-2.429739000">
        <ele>695.80</ele>
        <time>2016-10-15T08:15:04Z</time>
      </trkpt>
      <trkpt lat="42.582086000" lon="-2.429679000">
        <ele>695.10</ele>
        <time>2016-10-15T08:15:05Z</time>
      </trkpt>
      <trkpt lat="42.582043000" lon="-2.429626000">
        <ele>694.60</ele>
        <time>2016-10-15T08:15:06Z</time>
      </trkpt>
      <trkpt lat="42.581997000" lon="-2.429576000">
        <ele>693.30</ele>
        <time>2016-10-15T08:15:07Z</time>
      </trkpt>
      <trkpt lat="42.581939000" lon="-2.429528000">
        <ele>692.40</ele>
        <time>2016-10-15T08:15:08Z</time>
      </trkpt>
      <trkpt lat="42.581870000" lon="-2.429491000">
        <ele>691.60</ele>
        <time>2016-10-15T08:15:09Z</time>
      </trkpt>
      <trkpt lat="42.581795000" lon="-2.429466000">
        <ele>691.00</ele>
        <time>2016-10-15T08:15:10Z</time>
      </trkpt>
      <trkpt lat="42.581710000" lon="-2.429453000">
        <ele>689.80</ele>
        <time>2016-10-15T08:15:11Z</time>
      </trkpt>
      <trkpt lat="42.581620000" lon="-2.429446000">
        <ele>688.90</ele>
        <time>2016-10-15T08:15:12Z</time>
      </trkpt>
      <trkpt lat="42.581524000" lon="-2.429445000">
        <ele>687.70</ele>
        <time>2016-10-15T08:15:13Z</time>
      </trkpt>
      <trkpt lat="42.581427000" lon="-2.429447000">
        <ele>686.70</ele>
        <time>2016-10-15T08:15:14Z</time>
      </trkpt>
      <trkpt lat="42.581330000" lon="-2.429449000">
        <ele>686.00</ele>
        <time>2016-10-15T08:15:15Z</time>
      </trkpt>
      <trkpt lat="42.581233000" lon="-2.429448000">
        <ele>685.40</ele>
        <time>2016-10-15T08:15:16Z</time>
      </trkpt>
      <trkpt lat="42.581141000" lon="-2.429445000">
        <ele>684.50</ele>
        <time>2016-10-15T08:15:17Z</time>
      </trkpt>
      <trkpt lat="42.581053000" lon="-2.429443000">
        <ele>683.70</ele>
        <time>2016-10-15T08:15:18Z</time>
      </trkpt>
      <trkpt lat="42.580970000" lon="-2.429444000">
        <ele>681.90</ele>
        <time>2016-10-15T08:15:19Z</time>
      </trkpt>
      <trkpt lat="42.580887000" lon="-2.429449000">
        <ele>680.50</ele>
        <time>2016-10-15T08:15:20Z</time>
      </trkpt>
      <trkpt lat="42.580804000" lon="-2.429457000">
        <ele>679.30</ele>
        <time>2016-10-15T08:15:21Z</time>
      </trkpt>
      <trkpt lat="42.580726000" lon="-2.429468000">
        <ele>678.40</ele>
        <time>2016-10-15T08:15:22Z</time>
      </trkpt>
      <trkpt lat="42.580649000" lon="-2.429476000">
        <ele>677.40</ele>
        <time>2016-10-15T08:15:23Z</time>
      </trkpt>
      <trkpt lat="42.580570000" lon="-2.429484000">
        <ele>676.70</ele>
        <time>2016-10-15T08:15:24Z</time>
      </trkpt>
      <trkpt lat="42.580490000" lon="-2.429487000">
        <ele>675.30</ele>
        <time>2016-10-15T08:15:25Z</time>
      </trkpt>
      <trkpt lat="42.580409000" lon="-2.429482000">
        <ele>674.20</ele>
        <time>2016-10-15T08:15:26Z</time>
      </trkpt>
      <trkpt lat="42.580329000" lon="-2.429468000">
        <ele>672.30</ele>
        <time>2016-10-15T08:15:27Z</time>
      </trkpt>
      <trkpt lat="42.580249000" lon="-2.429442000">
        <ele>670.90</ele>
        <time>2016-10-15T08:15:28Z</time>
      </trkpt>
      <trkpt lat="42.580165000" lon="-2.429411000">
        <ele>669.40</ele>
        <time>2016-10-15T08:15:29Z</time>
      </trkpt>
      <trkpt lat="42.580075000" lon="-2.429378000">
        <ele>668.30</ele>
        <time>2016-10-15T08:15:30Z</time>
      </trkpt>
      <trkpt lat="42.579986000" lon="-2.429350000">
        <ele>666.70</ele>
        <time>2016-10-15T08:15:31Z</time>
      </trkpt>
      <trkpt lat="42.579894000" lon="-2.429321000">
        <ele>665.50</ele>
        <time>2016-10-15T08:15:32Z</time>
      </trkpt>
      <trkpt lat="42.579802000" lon="-2.429297000">
        <ele>664.10</ele>
        <time>2016-10-15T08:15:33Z</time>
      </trkpt>
      <trkpt lat="42.579715000" lon="-2.429278000">
        <ele>663.10</ele>
        <time>2016-10-15T08:15:34Z</time>
      </trkpt>
      <trkpt lat="42.579633000" lon="-2.429266000">
        <ele>661.00</ele>
        <time>2016-10-15T08:15:35Z</time>
      </trkpt>
      <trkpt lat="42.579551000" lon="-2.429255000">
        <ele>659.40</ele>
        <time>2016-10-15T08:15:36Z</time>
      </trkpt>
      <trkpt lat="42.579471000" lon="-2.429251000">
        <ele>657.00</ele>
        <time>2016-10-15T08:15:37Z</time>
      </trkpt>
      <trkpt lat="42.579392000" lon="-2.429257000">
        <ele>655.20</ele>
        <time>2016-10-15T08:15:38Z</time>
      </trkpt>
      <trkpt lat="42.579308000" lon="-2.429266000">
        <ele>653.60</ele>
        <time>2016-10-15T08:15:39Z</time>
      </trkpt>
      <trkpt lat="42.579222000" lon="-2.429281000">
        <ele>652.40</ele>
        <time>2016-10-15T08:15:40Z</time>
      </trkpt>
      <trkpt lat="42.579127000" lon="-2.429297000">
        <ele>651.50</ele>
        <time>2016-10-15T08:15:41Z</time>
      </trkpt>
      <trkpt lat="42.579027000" lon="-2.429319000">
        <ele>650.80</ele>
        <time>2016-10-15T08:15:42Z</time>
      </trkpt>
      <trkpt lat="42.578921000" lon="-2.429350000">
        <ele>649.20</ele>
        <time>2016-10-15T08:15:43Z</time>
      </trkpt>
      <trkpt lat="42.578810000" lon="-2.429385000">
        <ele>648.00</ele>
        <time>2016-10-15T08:15:44Z</time>
      </trkpt>
      <trkpt lat="42.578697000" lon="-2.429422000">
        <ele>646.60</ele>
        <time>2016-10-15T08:15:45Z</time>
      </trkpt>
      <trkpt lat="42.578583000" lon="-2.429460000">
        <ele>645.60</ele>
        <time>2016-10-15T08:15:46Z</time>
      </trkpt>
      <trkpt lat="42.578476000" lon="-2.429475000">
        <ele>644.10</ele>
        <time>2016-10-15T08:15:47Z</time>
      </trkpt>
      <trkpt lat="42.578375000" lon="-2.429472000">
        <ele>643.00</ele>
        <time>2016-10-15T08:15:48Z</time>
      </trkpt>
      <trkpt lat="42.578290000" lon="-2.429456000">
        <ele>642.10</ele>
        <time>2016-10-15T08:15:49Z</time>
      </trkpt>
      <trkpt lat="42.578215000" lon="-2.429437000">
        <ele>641.50</ele>
        <time>2016-10-15T08:15:50Z</time>
      </trkpt>
      <trkpt lat="42.578150000" lon="-2.429420000">
        <ele>641.30</ele>
        <time>2016-10-15T08:15:51Z</time>
      </trkpt>
      <trkpt lat="42.578092000" lon="-2.429410000">
        <ele>641.20</ele>
        <time>2016-10-15T08:15:52Z</time>
      </trkpt>
      <trkpt lat="42.578037000" lon="-2.429403000">
        <ele>641.30</ele>
        <time>2016-10-15T08:15:53Z</time>
      </trkpt>
      <trkpt lat="42.577988000" lon="-2.429395000">
        <ele>641.40</ele>
        <time>2016-10-15T08:15:54Z</time>
      </trkpt>
      <trkpt lat="42.577942000" lon="-2.429386000">
        <ele>641.60</ele>
        <time>2016-10-15T08:15:55Z</time>
      </trkpt>
      <trkpt lat="42.577897000" lon="-2.429375000">
        <ele>641.80</ele>
        <time>2016-10-15T08:15:56Z</time>
      </trkpt>
      <trkpt lat="42.577852000" lon="-2.429363000">
        <ele>642.30</ele>
        <time>2016-10-15T08:15:57Z</time>
      </trkpt>
      <trkpt lat="42.577811000" lon="-2.429355000">
        <ele>642.60</ele>
        <time>2016-10-15T08:15:58Z</time>
      </trkpt>
      <trkpt lat="42.577728000" lon="-2.429330000">
        <ele>643.40</ele>
        <time>2016-10-15T08:16:00Z</time>
      </trkpt>
      <trkpt lat="42.577688000" lon="-2.429319000">
        <ele>643.70</ele>
        <time>2016-10-15T08:16:01Z</time>
      </trkpt>
      <trkpt lat="42.577647000" lon="-2.429309000">
        <ele>644.00</ele>
        <time>2016-10-15T08:16:02Z</time>
      </trkpt>
      <trkpt lat="42.577606000" lon="-2.429301000">
        <ele>644.40</ele>
        <time>2016-10-15T08:16:03Z</time>
      </trkpt>
      <trkpt lat="42.577567000" lon="-2.429292000">
        <ele>644.70</ele>
        <time>2016-10-15T08:16:04Z</time>
      </trkpt>
      <trkpt lat="42.577525000" lon="-2.429284000">
        <ele>645.10</ele>
        <time>2016-10-15T08:16:05Z</time>
      </trkpt>
      <trkpt lat="42.577482000" lon="-2.429270000">
        <ele>645.30</ele>
        <time>2016-10-15T08:16:06Z</time>
      </trkpt>
      <trkpt lat="42.577440000" lon="-2.429264000">
        <ele>645.60</ele>
        <time>2016-10-15T08:16:07Z</time>
      </trkpt>
      <trkpt lat="42.577399000" lon="-2.429256000">
        <ele>645.80</ele>
        <time>2016-10-15T08:16:08Z</time>
      </trkpt>
      <trkpt lat="42.577356000" lon="-2.429252000">
        <ele>646.30</ele>
        <time>2016-10-15T08:16:09Z</time>
      </trkpt>
      <trkpt lat="42.577314000" lon="-2.429246000">
        <ele>646.60</ele>
        <time>2016-10-15T08:16:10Z</time>
      </trkpt>
      <trkpt lat="42.577273000" lon="-2.429241000">
        <ele>647.10</ele>
        <time>2016-10-15T08:16:11Z</time>
      </trkpt>
      <trkpt lat="42.577231000" lon="-2.429232000">
        <ele>647.40</ele>
        <time>2016-10-15T08:16:12Z</time>
      </trkpt>
      <trkpt lat="42.577189000" lon="-2.429229000">
        <ele>647.80</ele>
        <time>2016-10-15T08:16:13Z</time>
      </trkpt>
      <trkpt lat="42.577149000" lon="-2.429222000">
        <ele>648.10</ele>
        <time>2016-10-15T08:16:14Z</time>
      </trkpt>
      <trkpt lat="42.577113000" lon="-2.429219000">
        <ele>648.50</ele>
        <time>2016-10-15T08:16:15Z</time>
      </trkpt>
      <trkpt lat="42.577076000" lon="-2.429214000">
        <ele>648.80</ele>
        <time>2016-10-15T08:16:16Z</time>
      </trkpt>
      <trkpt lat="42.577040000" lon="-2.429207000">
        <ele>649.10</ele>
        <time>2016-10-15T08:16:17Z</time>
      </trkpt>
      <trkpt lat="42.577004000" lon="-2.429204000">
        <ele>649.30</ele>
        <time>2016-10-15T08:16:18Z</time>
      </trkpt>
      <trkpt lat="42.576966000" lon="-2.429205000">
        <ele>649.60</ele>
        <time>2016-10-15T08:16:19Z</time>
      </trkpt>
      <trkpt lat="42.576933000" lon="-2.429204000">
        <ele>649.80</ele>
        <time>2016-10-15T08:16:20Z</time>
      </trkpt>
      <trkpt lat="42.576901000" lon="-2.429207000">
        <ele>649.90</ele>
        <time>2016-10-15T08:16:21Z</time>
      </trkpt>
      <trkpt lat="42.576869000" lon="-2.429204000">
        <ele>650.00</ele>
        <time>2016-10-15T08:16:22Z</time>
      </trkpt>
      <trkpt lat="42.576838000" lon="-2.429203000">
        <ele>650.20</ele>
        <time>2016-10-15T08:16:23Z</time>
      </trkpt>
      <trkpt lat="42.576809000" lon="-2.429206000">
        <ele>650.40</ele>
        <time>2016-10-15T08:16:24Z</time>
      </trkpt>
      <trkpt lat="42.576778000" lon="-2.429210000">
        <ele>650.70</ele>
        <time>2016-10-15T08:16:25Z</time>
      </trkpt>
      <trkpt lat="42.576746000" lon="-2.429215000">
        <ele>651.00</ele>
        <time>2016-10-15T08:16:26Z</time>
      </trkpt>
      <trkpt lat="42.576715000" lon="-2.429217000">
        <ele>651.30</ele>
        <time>2016-10-15T08:16:27Z</time>
      </trkpt>
      <trkpt lat="42.576687000" lon="-2.429218000">
        <ele>651.50</ele>
        <time>2016-10-15T08:16:28Z</time>
      </trkpt>
      <trkpt lat="42.576657000" lon="-2.429218000">
        <ele>651.70</ele>
        <time>2016-10-15T08:16:29Z</time>
      </trkpt>
      <trkpt lat="42.576625000" lon="-2.429215000">
        <ele>651.90</ele>
        <time>2016-10-15T08:16:30Z</time>
      </trkpt>
      <trkpt lat="42.576594000" lon="-2.429217000">
        <ele>652.10</ele>
        <time>2016-10-15T08:16:31Z</time>
      </trkpt>
      <trkpt lat="42.576564000" lon="-2.429217000">
        <ele>652.20</ele>
        <time>2016-10-15T08:16:32Z</time>
      </trkpt>
      <trkpt lat="42.576534000" lon="-2.429220000">
        <ele>652.20</ele>
        <time>2016-10-15T08:16:33Z</time>
      </trkpt>
      <trkpt lat="42.576506000" lon="-2.429221000">
        <ele>652.20</ele>
        <time>2016-10-15T08:16:34Z</time>
      </trkpt>
      <trkpt lat="42.576479000" lon="-2.429220000">
        <ele>652.20</ele>
        <time>2016-10-15T08:16:35Z</time>
      </trkpt>
      <trkpt lat="42.576450000" lon="-2.429220000">
        <ele>652.20</ele>
        <time>2016-10-15T08:16:36Z</time>
      </trkpt>
      <trkpt lat="42.576421000" lon="-2.429224000">
        <ele>652.70</ele>
        <time>2016-10-15T08:16:37Z</time>
      </trkpt>
      <trkpt lat="42.576392000" lon="-2.429220000">
        <ele>653.00</ele>
        <time>2016-10-15T08:16:38Z</time>
      </trkpt>
      <trkpt lat="42.576364000" lon="-2.429220000">
        <ele>653.30</ele>
        <time>2016-10-15T08:16:39Z</time>
      </trkpt>
      <trkpt lat="42.576337000" lon="-2.429218000">
        <ele>653.60</ele>
        <time>2016-10-15T08:16:40Z</time>
      </trkpt>
      <trkpt lat="42.576311000" lon="-2.429216000">
        <ele>653.80</ele>
        <time>2016-10-15T08:16:41Z</time>
      </trkpt>
      <trkpt lat="42.576287000" lon="-2.429219000">
        <ele>654.00</ele>
        <time>2016-10-15T08:16:42Z</time>
      </trkpt>
      <trkpt lat="42.576258000" lon="-2.429219000">
        <ele>654.30</ele>
        <time>2016-10-15T08:16:43Z</time>
      </trkpt>
      <trkpt lat="42.576233000" lon="-2.429222000">
        <ele>654.50</ele>
        <time>2016-10-15T08:16:44Z</time>
      </trkpt>
      <trkpt lat="42.576208000" lon="-2.429223000">
        <ele>654.70</ele>
        <time>2016-10-15T08:16:45Z</time>
      </trkpt>
      <trkpt lat="42.576184000" lon="-2.429227000">
        <ele>654.80</ele>
        <time>2016-10-15T08:16:46Z</time>
      </trkpt>
      <trkpt lat="42.576160000" lon="-2.429230000">
        <ele>655.10</ele>
        <time>2016-10-15T08:16:47Z</time>
      </trkpt>
      <trkpt lat="42.576134000" lon="-2.429228000">
        <ele>655.30</ele>
        <time>2016-10-15T08:16:48Z</time>
      </trkpt>
      <trkpt lat="42.576107000" lon="-2.429229000">
        <ele>655.50</ele>
        <time>2016-10-15T08:16:49Z</time>
      </trkpt>
      <trkpt lat="42.576081000" lon="-2.429231000">
        <ele>655.60</ele>
        <time>2016-10-15T08:16:50Z</time>
      </trkpt>
      <trkpt lat="42.576055000" lon="-2.429234000">
        <ele>655.80</ele>
        <time>2016-10-15T08:16:51Z</time>
      </trkpt>
      <trkpt lat="42.576031000" lon="-2.429239000">
        <ele>655.80</ele>
        <time>2016-10-15T08:16:52Z</time>
      </trkpt>
      <trkpt lat="42.576006000" lon="-2.429235000">
        <ele>656.00</ele>
        <time>2016-10-15T08:16:53Z</time>
      </trkpt>
      <trkpt lat="42.575981000" lon="-2.429236000">
        <ele>656.10</ele>
        <time>2016-10-15T08:16:54Z</time>
      </trkpt>
      <trkpt lat="42.575958000" lon="-2.429236000">
        <ele>656.70</ele>
        <time>2016-10-15T08:16:55Z</time>
      </trkpt>
      <trkpt lat="42.575933000" lon="-2.429236000">
        <ele>657.10</ele>
        <time>2016-10-15T08:16:56Z</time>
      </trkpt>
      <trkpt lat="42.575909000" lon="-2.429241000">
        <ele>657.50</ele>
        <time>2016-10-15T08:16:57Z</time>
      </trkpt>
      <trkpt lat="42.575884000" lon="-2.429244000">
        <ele>657.70</ele>
        <time>2016-10-15T08:16:58Z</time>
      </trkpt>
      <trkpt lat="42.575861000" lon="-2.429246000">
        <ele>657.90</ele>
        <time>2016-10-15T08:16:59Z</time>
      </trkpt>
      <trkpt lat="42.575808000" lon="-2.429253000">
        <ele>658.00</ele>
        <time>2016-10-15T08:17:01Z</time>
      </trkpt>
      <trkpt lat="42.575780000" lon="-2.429257000">
        <ele>658.10</ele>
        <time>2016-10-15T08:17:02Z</time>
      </trkpt>
      <trkpt lat="42.575753000" lon="-2.429257000">
        <ele>658.20</ele>
        <time>2016-10-15T08:17:03Z</time>
      </trkpt>
      <trkpt lat="42.575726000" lon="-2.429255000">
        <ele>658.30</ele>
        <time>2016-10-15T08:17:04Z</time>
      </trkpt>
      <trkpt lat="42.575699000" lon="-2.429263000">
        <ele>658.40</ele>
        <time>2016-10-15T08:17:05Z</time>
      </trkpt>
      <trkpt lat="42.575671000" lon="-2.429267000">
        <ele>658.50</ele>
        <time>2016-10-15T08:17:06Z</time>
      </trkpt>
      <trkpt lat="42.575645000" lon="-2.429270000">
        <ele>658.60</ele>
        <time>2016-10-15T08:17:07Z</time>
      </trkpt>
      <trkpt lat="42.575618000" lon="-2.429272000">
        <ele>658.70</ele>
        <time>2016-10-15T08:17:08Z</time>
      </trkpt>
      <trkpt lat="42.575591000" lon="-2.429272000">
        <ele>658.90</ele>
        <time>2016-10-15T08:17:09Z</time>
      </trkpt>
      <trkpt lat="42.575565000" lon="-2.429271000">
        <ele>659.00</ele>
        <time>2016-10-15T08:17:10Z</time>
      </trkpt>
      <trkpt lat="42.575538000" lon="-2.429270000">
        <ele>659.10</ele>
        <time>2016-10-15T08:17:11Z</time>
      </trkpt>
      <trkpt lat="42.575511000" lon="-2.429273000">
        <ele>659.20</ele>
        <time>2016-10-15T08:17:12Z</time>
      </trkpt>
      <trkpt lat="42.575483000" lon="-2.429275000">
        <ele>659.40</ele>
        <time>2016-10-15T08:17:13Z</time>
      </trkpt>
      <trkpt lat="42.575457000" lon="-2.429277000">
        <ele>659.50</ele>
        <time>2016-10-15T08:17:14Z</time>
      </trkpt>
      <trkpt lat="42.575428000" lon="-2.429282000">
        <ele>659.60</ele>
        <time>2016-10-15T08:17:15Z</time>
      </trkpt>
      <trkpt lat="42.575401000" lon="-2.429283000">
        <ele>659.70</ele>
        <time>2016-10-15T08:17:16Z</time>
      </trkpt>
      <trkpt lat="42.575378000" lon="-2.429290000">
        <ele>659.90</ele>
        <time>2016-10-15T08:17:17Z</time>
      </trkpt>
      <trkpt lat="42.575351000" lon="-2.429296000">
        <ele>660.00</ele>
        <time>2016-10-15T08:17:18Z</time>
      </trkpt>
      <trkpt lat="42.575325000" lon="-2.429297000">
        <ele>660.10</ele>
        <time>2016-10-15T08:17:19Z</time>
      </trkpt>
      <trkpt lat="42.575302000" lon="-2.429296000">
        <ele>660.20</ele>
        <time>2016-10-15T08:17:20Z</time>
      </trkpt>
      <trkpt lat="42.575277000" lon="-2.429295000">
        <ele>660.30</ele>
        <time>2016-10-15T08:17:21Z</time>
      </trkpt>
      <trkpt lat="42.575250000" lon="-2.429291000">
        <ele>660.30</ele>
        <time>2016-10-15T08:17:22Z</time>
      </trkpt>
      <trkpt lat="42.575220000" lon="-2.429295000">
        <ele>660.40</ele>
        <time>2016-10-15T08:17:23Z</time>
      </trkpt>
      <trkpt lat="42.575194000" lon="-2.429301000">
        <ele>660.50</ele>
        <time>2016-10-15T08:17:24Z</time>
      </trkpt>
      <trkpt lat="42.575167000" lon="-2.429307000">
        <ele>660.70</ele>
        <time>2016-10-15T08:17:25Z</time>
      </trkpt>
      <trkpt lat="42.575141000" lon="-2.429311000">
        <ele>660.90</ele>
        <time>2016-10-15T08:17:26Z</time>
      </trkpt>
      <trkpt lat="42.575115000" lon="-2.429312000">
        <ele>661.10</ele>
        <time>2016-10-15T08:17:27Z</time>
      </trkpt>
      <trkpt lat="42.575090000" lon="-2.429312000">
        <ele>661.30</ele>
        <time>2016-10-15T08:17:28Z</time>
      </trkpt>
      <trkpt lat="42.575064000" lon="-2.429312000">
        <ele>661.50</ele>
        <time>2016-10-15T08:17:29Z</time>
      </trkpt>
      <trkpt lat="42.575040000" lon="-2.429310000">
        <ele>661.60</ele>
        <time>2016-10-15T08:17:30Z</time>
      </trkpt>
      <trkpt lat="42.575014000" lon="-2.429312000">
        <ele>661.70</ele>
        <time>2016-10-15T08:17:31Z</time>
      </trkpt>
      <trkpt lat="42.574987000" lon="-2.429316000">
        <ele>661.80</ele>
        <time>2016-10-15T08:17:32Z</time>
      </trkpt>
      <trkpt lat="42.574960000" lon="-2.429314000">
        <ele>662.20</ele>
        <time>2016-10-15T08:17:33Z</time>
      </trkpt>
      <trkpt lat="42.574932000" lon="-2.429311000">
        <ele>662.50</ele>
        <time>2016-10-15T08:17:34Z</time>
      </trkpt>
      <trkpt lat="42.574905000" lon="-2.429309000">
        <ele>662.70</ele>
        <time>2016-10-15T08:17:35Z</time>
      </trkpt>
      <trkpt lat="42.574879000" lon="-2.429309000">
        <ele>662.80</ele>
        <time>2016-10-15T08:17:36Z</time>
      </trkpt>
      <trkpt lat="42.574855000" lon="-2.429309000">
        <ele>662.90</ele>
        <time>2016-10-15T08:17:37Z</time>
      </trkpt>
      <trkpt lat="42.574829000" lon="-2.429313000">
        <ele>663.00</ele>
        <time>2016-10-15T08:17:38Z</time>
      </trkpt>
      <trkpt lat="42.574804000" lon="-2.429316000">
        <ele>663.10</ele>
        <time>2016-10-15T08:17:39Z</time>
      </trkpt>
      <trkpt lat="42.574776000" lon="-2.429320000">
        <ele>663.10</ele>
        <time>2016-10-15T08:17:40Z</time>
      </trkpt>
      <trkpt lat="42.574751000" lon="-2.429325000">
        <ele>663.30</ele>
        <time>2016-10-15T08:17:41Z</time>
      </trkpt>
      <trkpt lat="42.574723000" lon="-2.429328000">
        <ele>663.40</ele>
        <time>2016-10-15T08:17:42Z</time>
      </trkpt>
      <trkpt lat="42.574697000" lon="-2.429327000">
        <ele>663.60</ele>
        <time>2016-10-15T08:17:43Z</time>
      </trkpt>
      <trkpt lat="42.574668000" lon="-2.429333000">
        <ele>663.70</ele>
        <time>2016-10-15T08:17:44Z</time>
      </trkpt>
      <trkpt lat="42.574639000" lon="-2.429337000">
        <ele>663.80</ele>
        <time>2016-10-15T08:17:45Z</time>
      </trkpt>
      <trkpt lat="42.574608000" lon="-2.429342000">
        <ele>663.90</ele>
        <time>2016-10-15T08:17:46Z</time>
      </trkpt>
      <trkpt lat="42.574579000" lon="-2.429346000">
        <ele>663.90</ele>
        <time>2016-10-15T08:17:47Z</time>
      </trkpt>
      <trkpt lat="42.574550000" lon="-2.429350000">
        <ele>664.00</ele>
        <time>2016-10-15T08:17:48Z</time>
      </trkpt>
      <trkpt lat="42.574522000" lon="-2.429358000">
        <ele>664.10</ele>
        <time>2016-10-15T08:17:49Z</time>
      </trkpt>
      <trkpt lat="42.574493000" lon="-2.429368000">
        <ele>664.20</ele>
        <time>2016-10-15T08:17:50Z</time>
      </trkpt>
      <trkpt lat="42.574463000" lon="-2.429376000">
        <ele>664.40</ele>
        <time>2016-10-15T08:17:51Z</time>
      </trkpt>
      <trkpt lat="42.574431000" lon="-2.429382000">
        <ele>664.50</ele>
        <time>2016-10-15T08:17:52Z</time>
      </trkpt>
      <trkpt lat="42.574401000" lon="-2.429389000">
        <ele>664.50</ele>
        <time>2016-10-15T08:17:53Z</time>
      </trkpt>
      <trkpt lat="42.574372000" lon="-2.429396000">
        <ele>664.60</ele>
        <time>2016-10-15T08:17:54Z</time>
      </trkpt>
      <trkpt lat="42.574343000" lon="-2.429404000">
        <ele>664.60</ele>
        <time>2016-10-15T08:17:55Z</time>
      </trkpt>
      <trkpt lat="42.574311000" lon="-2.429412000">
        <ele>664.60</ele>
        <time>2016-10-15T08:17:56Z</time>
      </trkpt>
      <trkpt lat="42.574279000" lon="-2.429426000">
        <ele>664.60</ele>
        <time>2016-10-15T08:17:57Z</time>
      </trkpt>
      <trkpt lat="42.574247000" lon="-2.429442000">
        <ele>664.60</ele>
        <time>2016-10-15T08:17:58Z</time>
      </trkpt>
      <trkpt lat="42.574215000" lon="-2.429454000">
        <ele>664.50</ele>
        <time>2016-10-15T08:17:59Z</time>
      </trkpt>
      <trkpt lat="42.574184000" lon="-2.429460000">
        <ele>664.50</ele>
        <time>2016-10-15T08:18:00Z</time>
      </trkpt>
      <trkpt lat="42.574153000" lon="-2.429472000">
        <ele>664.50</ele>
        <time>2016-10-15T08:18:01Z</time>
      </trkpt>
      <trkpt lat="42.574092000" lon="-2.429491000">
        <ele>664.40</ele>
        <time>2016-10-15T08:18:03Z</time>
      </trkpt>
      <trkpt lat="42.574062000" lon="-2.429504000">
        <ele>664.40</ele>
        <time>2016-10-15T08:18:04Z</time>
      </trkpt>
      <trkpt lat="42.574029000" lon="-2.429513000">
        <ele>664.40</ele>
        <time>2016-10-15T08:18:05Z</time>
      </trkpt>
      <trkpt lat="42.573993000" lon="-2.429526000">
        <ele>664.50</ele>
        <time>2016-10-15T08:18:06Z</time>
      </trkpt>
      <trkpt lat="42.573958000" lon="-2.429533000">
        <ele>664.70</ele>
        <time>2016-10-15T08:18:07Z</time>
      </trkpt>
      <trkpt lat="42.573926000" lon="-2.429543000">
        <ele>664.80</ele>
        <time>2016-10-15T08:18:08Z</time>
      </trkpt>
      <trkpt lat="42.573894000" lon="-2.429555000">
        <ele>664.90</ele>
        <time>2016-10-15T08:18:09Z</time>
      </trkpt>
      <trkpt lat="42.573863000" lon="-2.429563000">
        <ele>664.90</ele>
        <time>2016-10-15T08:18:10Z</time>
      </trkpt>
      <trkpt lat="42.573834000" lon="-2.429575000">
        <ele>665.00</ele>
        <time>2016-10-15T08:18:11Z</time>
      </trkpt>
      <trkpt lat="42.573802000" lon="-2.429592000">
        <ele>665.00</ele>
        <time>2016-10-15T08:18:12Z</time>
      </trkpt>
      <trkpt lat="42.573771000" lon="-2.429604000">
        <ele>665.10</ele>
        <time>2016-10-15T08:18:13Z</time>
      </trkpt>
      <trkpt lat="42.573738000" lon="-2.429616000">
        <ele>665.10</ele>
        <time>2016-10-15T08:18:14Z</time>
      </trkpt>
      <trkpt lat="42.573701000" lon="-2.429622000">
        <ele>665.00</ele>
        <time>2016-10-15T08:18:15Z</time>
      </trkpt>
      <trkpt lat="42.573668000" lon="-2.429633000">
        <ele>665.00</ele>
        <time>2016-10-15T08:18:16Z</time>
      </trkpt>
      <trkpt lat="42.573634000" lon="-2.429634000">
        <ele>665.00</ele>
        <time>2016-10-15T08:18:17Z</time>
      </trkpt>
      <trkpt lat="42.573599000" lon="-2.429640000">
        <ele>665.10</ele>
        <time>2016-10-15T08:18:18Z</time>
      </trkpt>
      <trkpt lat="42.573563000" lon="-2.429651000">
        <ele>665.10</ele>
        <time>2016-10-15T08:18:19Z</time>
      </trkpt>
      <trkpt lat="42.573525000" lon="-2.429659000">
        <ele>665.10</ele>
        <time>2016-10-15T08:18:20Z</time>
      </trkpt>
      <trkpt lat="42.573488000" lon="-2.429667000">
        <ele>665.10</ele>
        <time>2016-10-15T08:18:21Z</time>
      </trkpt>
      <trkpt lat="42.573450000" lon="-2.429678000">
        <ele>665.10</ele>
        <time>2016-10-15T08:18:22Z</time>
      </trkpt>
      <trkpt lat="42.573411000" lon="-2.429689000">
        <ele>665.30</ele>
        <time>2016-10-15T08:18:23Z</time>
      </trkpt>
      <trkpt lat="42.573370000" lon="-2.429701000">
        <ele>665.50</ele>
        <time>2016-10-15T08:18:24Z</time>
      </trkpt>
      <trkpt lat="42.573329000" lon="-2.429710000">
        <ele>665.60</ele>
        <time>2016-10-15T08:18:25Z</time>
      </trkpt>
      <trkpt lat="42.573288000" lon="-2.429721000">
        <ele>665.70</ele>
        <time>2016-10-15T08:18:26Z</time>
      </trkpt>
      <trkpt lat="42.573244000" lon="-2.429732000">
        <ele>665.60</ele>
        <time>2016-10-15T08:18:27Z</time>
      </trkpt>
      <trkpt lat="42.573203000" lon="-2.429739000">
        <ele>665.60</ele>
        <time>2016-10-15T08:18:28Z</time>
      </trkpt>
      <trkpt lat="42.573158000" lon="-2.429744000">
        <ele>665.50</ele>
        <time>2016-10-15T08:18:29Z</time>
      </trkpt>
      <trkpt lat="42.573114000" lon="-2.429749000">
        <ele>665.50</ele>
        <time>2016-10-15T08:18:30Z</time>
      </trkpt>
      <trkpt lat="42.573070000" lon="-2.429756000">
        <ele>665.60</ele>
        <time>2016-10-15T08:18:31Z</time>
      </trkpt>
      <trkpt lat="42.573030000" lon="-2.429772000">
        <ele>665.70</ele>
        <time>2016-10-15T08:18:32Z</time>
      </trkpt>
      <trkpt lat="42.572992000" lon="-2.429794000">
        <ele>665.80</ele>
        <time>2016-10-15T08:18:33Z</time>
      </trkpt>
      <trkpt lat="42.572954000" lon="-2.429810000">
        <ele>665.80</ele>
        <time>2016-10-15T08:18:34Z</time>
      </trkpt>
      <trkpt lat="42.572916000" lon="-2.429821000">
        <ele>665.70</ele>
        <time>2016-10-15T08:18:35Z</time>
      </trkpt>
      <trkpt lat="42.572875000" lon="-2.429828000">
        <ele>665.60</ele>
        <time>2016-10-15T08:18:36Z</time>
      </trkpt>
      <trkpt lat="42.572835000" lon="-2.429837000">
        <ele>665.60</ele>
        <time>2016-10-15T08:18:37Z</time>
      </trkpt>
      <trkpt lat="42.572795000" lon="-2.429844000">
        <ele>665.50</ele>
        <time>2016-10-15T08:18:38Z</time>
      </trkpt>
      <trkpt lat="42.572753000" lon="-2.429853000">
        <ele>665.60</ele>
        <time>2016-10-15T08:18:39Z</time>
      </trkpt>
      <trkpt lat="42.572710000" lon="-2.429858000">
        <ele>665.60</ele>
        <time>2016-10-15T08:18:40Z</time>
      </trkpt>
      <trkpt lat="42.572666000" lon="-2.429860000">
        <ele>665.70</ele>
        <time>2016-10-15T08:18:41Z</time>
      </trkpt>
      <trkpt lat="42.572625000" lon="-2.429859000">
        <ele>665.70</ele>
        <time>2016-10-15T08:18:42Z</time>
      </trkpt>
      <trkpt lat="42.572585000" lon="-2.429861000">
        <ele>665.80</ele>
        <time>2016-10-15T08:18:43Z</time>
      </trkpt>
      <trkpt lat="42.572542000" lon="-2.429861000">
        <ele>665.80</ele>
        <time>2016-10-15T08:18:44Z</time>
      </trkpt>
      <trkpt lat="42.572496000" lon="-2.429861000">
        <ele>665.90</ele>
        <time>2016-10-15T08:18:45Z</time>
      </trkpt>
      <trkpt lat="42.572455000" lon="-2.429866000">
        <ele>665.90</ele>
        <time>2016-10-15T08:18:46Z</time>
      </trkpt>
      <trkpt lat="42.572415000" lon="-2.429870000">
        <ele>665.80</ele>
        <time>2016-10-15T08:18:47Z</time>
      </trkpt>
      <trkpt lat="42.572375000" lon="-2.429869000">
        <ele>665.70</ele>
        <time>2016-10-15T08:18:48Z</time>
      </trkpt>
      <trkpt lat="42.572331000" lon="-2.429871000">
        <ele>665.60</ele>
        <time>2016-10-15T08:18:49Z</time>
      </trkpt>
      <trkpt lat="42.572287000" lon="-2.429872000">
        <ele>665.60</ele>
        <time>2016-10-15T08:18:50Z</time>
      </trkpt>
      <trkpt lat="42.572245000" lon="-2.429876000">
        <ele>665.70</ele>
        <time>2016-10-15T08:18:51Z</time>
      </trkpt>
      <trkpt lat="42.572203000" lon="-2.429878000">
        <ele>665.70</ele>
        <time>2016-10-15T08:18:52Z</time>
      </trkpt>
      <trkpt lat="42.572162000" lon="-2.429879000">
        <ele>665.80</ele>
        <time>2016-10-15T08:18:53Z</time>
      </trkpt>
      <trkpt lat="42.572122000" lon="-2.429881000">
        <ele>665.80</ele>
        <time>2016-10-15T08:18:54Z</time>
      </trkpt>
      <trkpt lat="42.572079000" lon="-2.429880000">
        <ele>665.90</ele>
        <time>2016-10-15T08:18:55Z</time>
      </trkpt>
      <trkpt lat="42.572038000" lon="-2.429881000">
        <ele>665.90</ele>
        <time>2016-10-15T08:18:56Z</time>
      </trkpt>
      <trkpt lat="42.571999000" lon="-2.429885000">
        <ele>665.90</ele>
        <time>2016-10-15T08:18:57Z</time>
      </trkpt>
      <trkpt lat="42.571957000" lon="-2.429888000">
        <ele>665.90</ele>
        <time>2016-10-15T08:18:58Z</time>
      </trkpt>
      <trkpt lat="42.571916000" lon="-2.429885000">
        <ele>665.90</ele>
        <time>2016-10-15T08:18:59Z</time>
      </trkpt>
      <trkpt lat="42.571872000" lon="-2.429880000">
        <ele>665.90</ele>
        <time>2016-10-15T08:19:00Z</time>
      </trkpt>
      <trkpt lat="42.571831000" lon="-2.429880000">
        <ele>665.90</ele>
        <time>2016-10-15T08:19:01Z</time>
      </trkpt>
      <trkpt lat="42.571791000" lon="-2.429883000">
        <ele>665.90</ele>
        <time>2016-10-15T08:19:02Z</time>
      </trkpt>
      <trkpt lat="42.571749000" lon="-2.429885000">
        <ele>665.80</ele>
        <time>2016-10-15T08:19:03Z</time>
      </trkpt>
      <trkpt lat="42.571673000" lon="-2.429886000">
        <ele>665.60</ele>
        <time>2016-10-15T08:19:05Z</time>
      </trkpt>
      <trkpt lat="42.571636000" lon="-2.429884000">
        <ele>665.60</ele>
        <time>2016-10-15T08:19:06Z</time>
      </trkpt>
      <trkpt lat="42.571598000" lon="-2.429879000">
        <ele>665.60</ele>
        <time>2016-10-15T08:19:07Z</time>
      </trkpt>
      <trkpt lat="42.571561000" lon="-2.429877000">
        <ele>665.50</ele>
        <time>2016-10-15T08:19:08Z</time>
      </trkpt>
      <trkpt lat="42.571525000" lon="-2.429873000">
        <ele>665.70</ele>
        <time>2016-10-15T08:19:09Z</time>
      </trkpt>
      <trkpt lat="42.571488000" lon="-2.429870000">
        <ele>665.80</ele>
        <time>2016-10-15T08:19:10Z</time>
      </trkpt>
      <trkpt lat="42.571451000" lon="-2.429866000">
        <ele>665.90</ele>
        <time>2016-10-15T08:19:11Z</time>
      </trkpt>
      <trkpt lat="42.571417000" lon="-2.429863000">
        <ele>666.00</ele>
        <time>2016-10-15T08:19:12Z</time>
      </trkpt>
      <trkpt lat="42.571386000" lon="-2.429862000">
        <ele>666.10</ele>
        <time>2016-10-15T08:19:13Z</time>
      </trkpt>
      <trkpt lat="42.571353000" lon="-2.429860000">
        <ele>666.10</ele>
        <time>2016-10-15T08:19:14Z</time>
      </trkpt>
      <trkpt lat="42.571320000" lon="-2.429858000">
        <ele>666.10</ele>
        <time>2016-10-15T08:19:15Z</time>
      </trkpt>
      <trkpt lat="42.571290000" lon="-2.429862000">
        <ele>666.10</ele>
        <time>2016-10-15T08:19:16Z</time>
      </trkpt>
      <trkpt lat="42.571259000" lon="-2.429861000">
        <ele>666.20</ele>
        <time>2016-10-15T08:19:17Z</time>
      </trkpt>
      <trkpt lat="42.571228000" lon="-2.429865000">
        <ele>666.20</ele>
        <time>2016-10-15T08:19:18Z</time>
      </trkpt>
      <trkpt lat="42.571201000" lon="-2.429865000">
        <ele>666.20</ele>
        <time>2016-10-15T08:19:19Z</time>
      </trkpt>
      <trkpt lat="42.571174000" lon="-2.429871000">
        <ele>666.20</ele>
        <time>2016-10-15T08:19:20Z</time>
      </trkpt>
      <trkpt lat="42.571147000" lon="-2.429872000">
        <ele>666.30</ele>
        <time>2016-10-15T08:19:21Z</time>
      </trkpt>
      <trkpt lat="42.571118000" lon="-2.429873000">
        <ele>666.40</ele>
        <time>2016-10-15T08:19:22Z</time>
      </trkpt>
      <trkpt lat="42.571090000" lon="-2.429875000">
        <ele>666.50</ele>
        <time>2016-10-15T08:19:23Z</time>
      </trkpt>
      <trkpt lat="42.571060000" lon="-2.429871000">
        <ele>666.60</ele>
        <time>2016-10-15T08:19:24Z</time>
      </trkpt>
      <trkpt lat="42.571032000" lon="-2.429874000">
        <ele>666.80</ele>
        <time>2016-10-15T08:19:25Z</time>
      </trkpt>
      <trkpt lat="42.571007000" lon="-2.429875000">
        <ele>666.90</ele>
        <time>2016-10-15T08:19:26Z</time>
      </trkpt>
      <trkpt lat="42.570985000" lon="-2.429886000">
        <ele>666.90</ele>
        <time>2016-10-15T08:19:27Z</time>
      </trkpt>
      <trkpt lat="42.570965000" lon="-2.429902000">
        <ele>666.90</ele>
        <time>2016-10-15T08:19:28Z</time>
      </trkpt>
      <trkpt lat="42.570946000" lon="-2.429917000">
        <ele>666.90</ele>
        <time>2016-10-15T08:19:29Z</time>
      </trkpt>
      <trkpt lat="42.570933000" lon="-2.429926000">
        <ele>666.90</ele>
        <time>2016-10-15T08:19:30Z</time>
      </trkpt>
      <trkpt lat="42.570928000" lon="-2.429920000">
        <ele>666.90</ele>
        <time>2016-10-15T08:19:31Z</time>
      </trkpt>
      <trkpt lat="42.570928000" lon="-2.429924000">
        <ele>666.80</ele>
        <time>2016-10-15T08:19:32Z</time>
      </trkpt>
      <trkpt lat="42.570927000" lon="-2.429926000">
        <ele>666.80</ele>
        <time>2016-10-15T08:19:33Z</time>
      </trkpt>
      <trkpt lat="42.570926000" lon="-2.429932000">
        <ele>666.80</ele>
        <time>2016-10-15T08:19:34Z</time>
      </trkpt>
      <trkpt lat="42.570927000" lon="-2.429933000">
        <ele>666.80</ele>
        <time>2016-10-15T08:19:35Z</time>
      </trkpt>
      <trkpt lat="42.570929000" lon="-2.429934000">
        <ele>666.80</ele>
        <time>2016-10-15T08:19:36Z</time>
      </trkpt>
      <trkpt lat="42.570928000" lon="-2.429934000">
        <ele>666.80</ele>
        <time>2016-10-15T08:19:37Z</time>
      </trkpt>
      <trkpt lat="42.570927000" lon="-2.429934000">
        <ele>666.80</ele>
        <time>2016-10-15T08:19:38Z</time>
      </trkpt>
      <trkpt lat="42.570925000" lon="-2.429936000">
        <ele>666.90</ele>
        <time>2016-10-15T08:19:39Z</time>
      </trkpt>
      <trkpt lat="42.570925000" lon="-2.429940000">
        <ele>666.90</ele>
        <time>2016-10-15T08:19:40Z</time>
      </trkpt>
      <trkpt lat="42.570925000" lon="-2.429938000">
        <ele>667.00</ele>
        <time>2016-10-15T08:19:41Z</time>
      </trkpt>
      <trkpt lat="42.570926000" lon="-2.429939000">
        <ele>667.00</ele>
        <time>2016-10-15T08:19:42Z</time>
      </trkpt>
      <trkpt lat="42.570926000" lon="-2.429937000">
        <ele>667.00</ele>
        <time>2016-10-15T08:19:43Z</time>
      </trkpt>
      <trkpt lat="42.570929000" lon="-2.429938000">
        <ele>667.10</ele>
        <time>2016-10-15T08:19:44Z</time>
      </trkpt>
      <trkpt lat="42.570930000" lon="-2.429939000">
        <ele>667.00</ele>
        <time>2016-10-15T08:19:45Z</time>
      </trkpt>
      <trkpt lat="42.570930000" lon="-2.429941000">
        <ele>667.00</ele>
        <time>2016-10-15T08:19:46Z</time>
      </trkpt>
      <trkpt lat="42.570929000" lon="-2.429942000">
        <ele>666.90</ele>
        <time>2016-10-15T08:19:47Z</time>
      </trkpt>
      <trkpt lat="42.570930000" lon="-2.429942000">
        <ele>666.90</ele>
        <time>2016-10-15T08:19:48Z</time>
      </trkpt>
      <trkpt lat="42.570932000" lon="-2.429941000">
        <ele>666.90</ele>
        <time>2016-10-15T08:19:49Z</time>
      </trkpt>
      <trkpt lat="42.570933000" lon="-2.429938000">
        <ele>667.00</ele>
        <time>2016-10-15T08:19:50Z</time>
      </trkpt>
      <trkpt lat="42.570932000" lon="-2.429939000">
        <ele>667.00</ele>
        <time>2016-10-15T08:19:51Z</time>
      </trkpt>
      <trkpt lat="42.570931000" lon="-2.429941000">
        <ele>667.00</ele>
        <time>2016-10-15T08:19:52Z</time>
      </trkpt>
      <trkpt lat="42.570929000" lon="-2.429941000">
        <ele>667.00</ele>
        <time>2016-10-15T08:19:53Z</time>
      </trkpt>
      <trkpt lat="42.570930000" lon="-2.429941000">
        <ele>666.90</ele>
        <time>2016-10-15T08:19:54Z</time>
      </trkpt>
      <trkpt lat="42.570931000" lon="-2.429937000">
        <ele>666.90</ele>
        <time>2016-10-15T08:19:55Z</time>
      </trkpt>
      <trkpt lat="42.570932000" lon="-2.429939000">
        <ele>666.90</ele>
        <time>2016-10-15T08:19:56Z</time>
      </trkpt>
      <trkpt lat="42.570932000" lon="-2.429936000">
        <ele>666.90</ele>
        <time>2016-10-15T08:19:57Z</time>
      </trkpt>
      <trkpt lat="42.570932000" lon="-2.429934000">
        <ele>666.90</ele>
        <time>2016-10-15T08:19:58Z</time>
      </trkpt>
      <trkpt lat="42.570932000" lon="-2.429935000">
        <ele>666.90</ele>
        <time>2016-10-15T08:19:59Z</time>
      </trkpt>
      <trkpt lat="42.570933000" lon="-2.429933000">
        <ele>666.90</ele>
        <time>2016-10-15T08:20:00Z</time>
      </trkpt>
      <trkpt lat="42.570935000" lon="-2.429934000">
        <ele>666.90</ele>
        <time>2016-10-15T08:20:01Z</time>
      </trkpt>
      <trkpt lat="42.570935000" lon="-2.429935000">
        <ele>666.90</ele>
        <time>2016-10-15T08:20:02Z</time>
      </trkpt>
      <trkpt lat="42.570934000" lon="-2.429933000">
        <ele>666.80</ele>
        <time>2016-10-15T08:20:03Z</time>
      </trkpt>
      <trkpt lat="42.570934000" lon="-2.429933000">
        <ele>666.80</ele>
        <time>2016-10-15T08:20:04Z</time>
      </trkpt>
      <trkpt lat="42.570934000" lon="-2.429934000">
        <ele>666.80</ele>
        <time>2016-10-15T08:20:05Z</time>
      </trkpt>
      <trkpt lat="42.570934000" lon="-2.429939000">
        <ele>666.90</ele>
        <time>2016-10-15T08:20:07Z</time>
      </trkpt>
      <trkpt lat="42.570935000" lon="-2.429938000">
        <ele>666.90</ele>
        <time>2016-10-15T08:20:08Z</time>
      </trkpt>
      <trkpt lat="42.570936000" lon="-2.429934000">
        <ele>666.90</ele>
        <time>2016-10-15T08:20:09Z</time>
      </trkpt>
      <trkpt lat="42.570933000" lon="-2.429938000">
        <ele>666.90</ele>
        <time>2016-10-15T08:20:10Z</time>
      </trkpt>
      <trkpt lat="42.570930000" lon="-2.429946000">
        <ele>667.20</ele>
        <time>2016-10-15T08:20:11Z</time>
      </trkpt>
      <trkpt lat="42.570922000" lon="-2.429959000">
        <ele>667.40</ele>
        <time>2016-10-15T08:20:12Z</time>
      </trkpt>
      <trkpt lat="42.570908000" lon="-2.429971000">
        <ele>667.30</ele>
        <time>2016-10-15T08:20:13Z</time>
      </trkpt>
      <trkpt lat="42.570897000" lon="-2.429980000">
        <ele>667.20</ele>
        <time>2016-10-15T08:20:14Z</time>
      </trkpt>
      <trkpt lat="42.570882000" lon="-2.429994000">
        <ele>667.20</ele>
        <time>2016-10-15T08:20:15Z</time>
      </trkpt>
      <trkpt lat="42.570869000" lon="-2.430008000">
        <ele>667.20</ele>
        <time>2016-10-15T08:20:16Z</time>
      </trkpt>
      <trkpt lat="42.570843000" lon="-2.430032000">
        <ele>667.20</ele>
        <time>2016-10-15T08:20:17Z</time>
      </trkpt>
      <trkpt lat="42.570804000" lon="-2.430058000">
        <ele>667.10</ele>
        <time>2016-10-15T08:20:18Z</time>
      </trkpt>
      <trkpt lat="42.570760000" lon="-2.430098000">
        <ele>666.90</ele>
        <time>2016-10-15T08:20:19Z</time>
      </trkpt>
      <trkpt lat="42.570727000" lon="-2.430135000">
        <ele>666.70</ele>
        <time>2016-10-15T08:20:20Z</time>
      </trkpt>
      <trkpt lat="42.570697000" lon="-2.430165000">
        <ele>666.00</ele>
        <time>2016-10-15T08:20:21Z</time>
      </trkpt>
      <trkpt lat="42.570665000" lon="-2.430192000">
        <ele>665.50</ele>
        <time>2016-10-15T08:20:22Z</time>
      </trkpt>
      <trkpt lat="42.570644000" lon="-2.430233000">
        <ele>664.60</ele>
        <time>2016-10-15T08:20:23Z</time>
      </trkpt>
      <trkpt lat="42.570634000" lon="-2.430274000">
        <ele>664.00</ele>
        <time>2016-10-15T08:20:24Z</time>
      </trkpt>
      <trkpt lat="42.570636000" lon="-2.430310000">
        <ele>663.10</ele>
        <time>2016-10-15T08:20:25Z</time>
      </trkpt>
      <trkpt lat="42.570638000" lon="-2.430347000">
        <ele>662.50</ele>
        <time>2016-10-15T08:20:26Z</time>
      </trkpt>
      <trkpt lat="42.570638000" lon="-2.430381000">
        <ele>661.90</ele>
        <time>2016-10-15T08:20:27Z</time>
      </trkpt>
      <trkpt lat="42.570642000" lon="-2.430408000">
        <ele>661.40</ele>
        <time>2016-10-15T08:20:28Z</time>
      </trkpt>
      <trkpt lat="42.570646000" lon="-2.430429000">
        <ele>660.90</ele>
        <time>2016-10-15T08:20:29Z</time>
      </trkpt>
      <trkpt lat="42.570654000" lon="-2.430446000">
        <ele>660.60</ele>
        <time>2016-10-15T08:20:30Z</time>
      </trkpt>
      <trkpt lat="42.570674000" lon="-2.430468000">
        <ele>660.10</ele>
        <time>2016-10-15T08:20:31Z</time>
      </trkpt>
      <trkpt lat="42.570687000" lon="-2.430487000">
        <ele>659.70</ele>
        <time>2016-10-15T08:20:32Z</time>
      </trkpt>
      <trkpt lat="42.570699000" lon="-2.430505000">
        <ele>659.10</ele>
        <time>2016-10-15T08:20:33Z</time>
      </trkpt>
      <trkpt lat="42.570704000" lon="-2.430512000">
        <ele>658.60</ele>
        <time>2016-10-15T08:20:34Z</time>
      </trkpt>
      <trkpt lat="42.570711000" lon="-2.430525000">
        <ele>658.30</ele>
        <time>2016-10-15T08:20:35Z</time>
      </trkpt>
      <trkpt lat="42.570713000" lon="-2.430537000">
        <ele>658.00</ele>
        <time>2016-10-15T08:20:36Z</time>
      </trkpt>
      <trkpt lat="42.570706000" lon="-2.430557000">
        <ele>657.80</ele>
        <time>2016-10-15T08:20:37Z</time>
      </trkpt>
      <trkpt lat="42.570694000" lon="-2.430566000">
        <ele>657.70</ele>
        <time>2016-10-15T08:20:38Z</time>
      </trkpt>
      <trkpt lat="42.570666000" lon="-2.430569000">
        <ele>657.60</ele>
        <time>2016-10-15T08:20:39Z</time>
      </trkpt>
      <trkpt lat="42.570636000" lon="-2.430555000">
        <ele>657.50</ele>
        <time>2016-10-15T08:20:40Z</time>
      </trkpt>
      <trkpt lat="42.570610000" lon="-2.430523000">
        <ele>657.40</ele>
        <time>2016-10-15T08:20:41Z</time>
      </trkpt>
      <trkpt lat="42.570580000" lon="-2.430495000">
        <ele>657.30</ele>
        <time>2016-10-15T08:20:42Z</time>
      </trkpt>
      <trkpt lat="42.570548000" lon="-2.430475000">
        <ele>657.00</ele>
        <time>2016-10-15T08:20:43Z</time>
      </trkpt>
      <trkpt lat="42.570514000" lon="-2.430454000">
        <ele>656.70</ele>
        <time>2016-10-15T08:20:44Z</time>
      </trkpt>
      <trkpt lat="42.570476000" lon="-2.430433000">
        <ele>656.40</ele>
        <time>2016-10-15T08:20:45Z</time>
      </trkpt>
      <trkpt lat="42.570442000" lon="-2.430407000">
        <ele>656.10</ele>
        <time>2016-10-15T08:20:46Z</time>
      </trkpt>
      <trkpt lat="42.570409000" lon="-2.430382000">
        <ele>655.70</ele>
        <time>2016-10-15T08:20:47Z</time>
      </trkpt>
      <trkpt lat="42.570380000" lon="-2.430359000">
        <ele>655.40</ele>
        <time>2016-10-15T08:20:48Z</time>
      </trkpt>
      <trkpt lat="42.570351000" lon="-2.430342000">
        <ele>655.20</ele>
        <time>2016-10-15T08:20:49Z</time>
      </trkpt>
      <trkpt lat="42.570319000" lon="-2.430330000">
        <ele>655.00</ele>
        <time>2016-10-15T08:20:50Z</time>
      </trkpt>
      <trkpt lat="42.570290000" lon="-2.430318000">
        <ele>654.90</ele>
        <time>2016-10-15T08:20:51Z</time>
      </trkpt>
      <trkpt lat="42.570256000" lon="-2.430308000">
        <ele>654.80</ele>
        <time>2016-10-15T08:20:52Z</time>
      </trkpt>
      <trkpt lat="42.570216000" lon="-2.430295000">
        <ele>654.50</ele>
        <time>2016-10-15T08:20:53Z</time>
      </trkpt>
      <trkpt lat="42.570170000" lon="-2.430289000">
        <ele>654.20</ele>
        <time>2016-10-15T08:20:54Z</time>
      </trkpt>
      <trkpt lat="42.570129000" lon="-2.430284000">
        <ele>653.50</ele>
        <time>2016-10-15T08:20:55Z</time>
      </trkpt>
      <trkpt lat="42.570091000" lon="-2.430281000">
        <ele>652.90</ele>
        <time>2016-10-15T08:20:56Z</time>
      </trkpt>
      <trkpt lat="42.570054000" lon="-2.430265000">
        <ele>652.10</ele>
        <time>2016-10-15T08:20:57Z</time>
      </trkpt>
      <trkpt lat="42.570016000" lon="-2.430254000">
        <ele>651.40</ele>
        <time>2016-10-15T08:20:58Z</time>
      </trkpt>
      <trkpt lat="42.569982000" lon="-2.430250000">
        <ele>650.70</ele>
        <time>2016-10-15T08:20:59Z</time>
      </trkpt>
      <trkpt lat="42.569950000" lon="-2.430246000">
        <ele>650.10</ele>
        <time>2016-10-15T08:21:00Z</time>
      </trkpt>
      <trkpt lat="42.569924000" lon="-2.430236000">
        <ele>649.70</ele>
        <time>2016-10-15T08:21:01Z</time>
      </trkpt>
      <trkpt lat="42.569896000" lon="-2.430227000">
        <ele>649.30</ele>
        <time>2016-10-15T08:21:02Z</time>
      </trkpt>
      <trkpt lat="42.569864000" lon="-2.430209000">
        <ele>648.70</ele>
        <time>2016-10-15T08:21:03Z</time>
      </trkpt>
      <trkpt lat="42.569831000" lon="-2.430190000">
        <ele>648.20</ele>
        <time>2016-10-15T08:21:04Z</time>
      </trkpt>
      <trkpt lat="42.569801000" lon="-2.430175000">
        <ele>647.60</ele>
        <time>2016-10-15T08:21:05Z</time>
      </trkpt>
      <trkpt lat="42.569776000" lon="-2.430166000">
        <ele>647.10</ele>
        <time>2016-10-15T08:21:06Z</time>
      </trkpt>
      <trkpt lat="42.569746000" lon="-2.430158000">
        <ele>646.50</ele>
        <time>2016-10-15T08:21:07Z</time>
      </trkpt>
      <trkpt lat="42.569688000" lon="-2.430156000">
        <ele>645.60</ele>
        <time>2016-10-15T08:21:09Z</time>
      </trkpt>
      <trkpt lat="42.569667000" lon="-2.430154000">
        <ele>645.30</ele>
        <time>2016-10-15T08:21:10Z</time>
      </trkpt>
      <trkpt lat="42.569648000" lon="-2.430155000">
        <ele>645.00</ele>
        <time>2016-10-15T08:21:11Z</time>
      </trkpt>
      <trkpt lat="42.569630000" lon="-2.430158000">
        <ele>644.80</ele>
        <time>2016-10-15T08:21:12Z</time>
      </trkpt>
      <trkpt lat="42.569614000" lon="-2.430166000">
        <ele>644.70</ele>
        <time>2016-10-15T08:21:13Z</time>
      </trkpt>
      <trkpt lat="42.569594000" lon="-2.430175000">
        <ele>644.60</ele>
        <time>2016-10-15T08:21:14Z</time>
      </trkpt>
      <trkpt lat="42.569562000" lon="-2.430181000">
        <ele>644.50</ele>
        <time>2016-10-15T08:21:15Z</time>
      </trkpt>
      <trkpt lat="42.569522000" lon="-2.430183000">
        <ele>644.50</ele>
        <time>2016-10-15T08:21:16Z</time>
      </trkpt>
      <trkpt lat="42.569472000" lon="-2.430186000">
        <ele>644.00</ele>
        <time>2016-10-15T08:21:17Z</time>
      </trkpt>
      <trkpt lat="42.569422000" lon="-2.430185000">
        <ele>643.70</ele>
        <time>2016-10-15T08:21:18Z</time>
      </trkpt>
      <trkpt lat="42.569383000" lon="-2.430180000">
        <ele>642.90</ele>
        <time>2016-10-15T08:21:19Z</time>
      </trkpt>
      <trkpt lat="42.569349000" lon="-2.430179000">
        <ele>642.40</ele>
        <time>2016-10-15T08:21:20Z</time>
      </trkpt>
      <trkpt lat="42.569318000" lon="-2.430189000">
        <ele>641.30</ele>
        <time>2016-10-15T08:21:21Z</time>
      </trkpt>
      <trkpt lat="42.569284000" lon="-2.430202000">
        <ele>640.50</ele>
        <time>2016-10-15T08:21:22Z</time>
      </trkpt>
      <trkpt lat="42.569251000" lon="-2.430212000">
        <ele>639.60</ele>
        <time>2016-10-15T08:21:23Z</time>
      </trkpt>
      <trkpt lat="42.569211000" lon="-2.430215000">
        <ele>638.80</ele>
        <time>2016-10-15T08:21:24Z</time>
      </trkpt>
      <trkpt lat="42.569175000" lon="-2.430215000">
        <ele>638.20</ele>
        <time>2016-10-15T08:21:25Z</time>
      </trkpt>
      <trkpt lat="42.569142000" lon="-2.430214000">
        <ele>637.80</ele>
        <time>2016-10-15T08:21:26Z</time>
      </trkpt>
      <trkpt lat="42.569117000" lon="-2.430213000">
        <ele>637.20</ele>
        <time>2016-10-15T08:21:27Z</time>
      </trkpt>
      <trkpt lat="42.569094000" lon="-2.430204000">
        <ele>636.70</ele>
        <time>2016-10-15T08:21:28Z</time>
      </trkpt>
      <trkpt lat="42.569069000" lon="-2.430192000">
        <ele>636.40</ele>
        <time>2016-10-15T08:21:29Z</time>
      </trkpt>
      <trkpt lat="42.569049000" lon="-2.430182000">
        <ele>636.10</ele>
        <time>2016-10-15T08:21:30Z</time>
      </trkpt>
      <trkpt lat="42.569024000" lon="-2.430176000">
        <ele>635.80</ele>
        <time>2016-10-15T08:21:31Z</time>
      </trkpt>
      <trkpt lat="42.569000000" lon="-2.430173000">
        <ele>635.50</ele>
        <time>2016-10-15T08:21:32Z</time>
      </trkpt>
      <trkpt lat="42.568979000" lon="-2.430165000">
        <ele>634.90</ele>
        <time>2016-10-15T08:21:33Z</time>
      </trkpt>
      <trkpt lat="42.568962000" lon="-2.430155000">
        <ele>634.50</ele>
        <time>2016-10-15T08:21:34Z</time>
      </trkpt>
      <trkpt lat="42.568945000" lon="-2.430148000">
        <ele>634.10</ele>
        <time>2016-10-15T08:21:35Z</time>
      </trkpt>
      <trkpt lat="42.568931000" lon="-2.430151000">
        <ele>633.80</ele>
        <time>2016-10-15T08:21:36Z</time>
      </trkpt>
      <trkpt lat="42.568915000" lon="-2.430156000">
        <ele>633.20</ele>
        <time>2016-10-15T08:21:37Z</time>
      </trkpt>
      <trkpt lat="42.568898000" lon="-2.430165000">
        <ele>632.80</ele>
        <time>2016-10-15T08:21:38Z</time>
      </trkpt>
      <trkpt lat="42.568880000" lon="-2.430173000">
        <ele>632.30</ele>
        <time>2016-10-15T08:21:39Z</time>
      </trkpt>
      <trkpt lat="42.568860000" lon="-2.430178000">
        <ele>631.90</ele>
        <time>2016-10-15T08:21:40Z</time>
      </trkpt>
      <trkpt lat="42.568835000" lon="-2.430179000">
        <ele>631.40</ele>
        <time>2016-10-15T08:21:41Z</time>
      </trkpt>
      <trkpt lat="42.568810000" lon="-2.430187000">
        <ele>631.10</ele>
        <time>2016-10-15T08:21:42Z</time>
      </trkpt>
      <trkpt lat="42.568779000" lon="-2.430206000">
        <ele>630.80</ele>
        <time>2016-10-15T08:21:43Z</time>
      </trkpt>
      <trkpt lat="42.568735000" lon="-2.430216000">
        <ele>630.50</ele>
        <time>2016-10-15T08:21:44Z</time>
      </trkpt>
      <trkpt lat="42.568687000" lon="-2.430227000">
        <ele>629.90</ele>
        <time>2016-10-15T08:21:45Z</time>
      </trkpt>
      <trkpt lat="42.568638000" lon="-2.430230000">
        <ele>629.50</ele>
        <time>2016-10-15T08:21:46Z</time>
      </trkpt>
      <trkpt lat="42.568595000" lon="-2.430235000">
        <ele>628.80</ele>
        <time>2016-10-15T08:21:47Z</time>
      </trkpt>
      <trkpt lat="42.568545000" lon="-2.430238000">
        <ele>628.20</ele>
        <time>2016-10-15T08:21:48Z</time>
      </trkpt>
      <trkpt lat="42.568488000" lon="-2.430247000">
        <ele>627.20</ele>
        <time>2016-10-15T08:21:49Z</time>
      </trkpt>
      <trkpt lat="42.568432000" lon="-2.430265000">
        <ele>626.40</ele>
        <time>2016-10-15T08:21:50Z</time>
      </trkpt>
      <trkpt lat="42.568375000" lon="-2.430298000">
        <ele>625.20</ele>
        <time>2016-10-15T08:21:51Z</time>
      </trkpt>
      <trkpt lat="42.568321000" lon="-2.430330000">
        <ele>624.30</ele>
        <time>2016-10-15T08:21:52Z</time>
      </trkpt>
      <trkpt lat="42.568272000" lon="-2.430359000">
        <ele>623.60</ele>
        <time>2016-10-15T08:21:53Z</time>
      </trkpt>
      <trkpt lat="42.568225000" lon="-2.430387000">
        <ele>623.10</ele>
        <time>2016-10-15T08:21:54Z</time>
      </trkpt>
      <trkpt lat="42.568183000" lon="-2.430406000">
        <ele>622.10</ele>
        <time>2016-10-15T08:21:55Z</time>
      </trkpt>
      <trkpt lat="42.568144000" lon="-2.430420000">
        <ele>621.30</ele>
        <time>2016-10-15T08:21:56Z</time>
      </trkpt>
      <trkpt lat="42.568111000" lon="-2.430432000">
        <ele>619.90</ele>
        <time>2016-10-15T08:21:57Z</time>
      </trkpt>
      <trkpt lat="42.568082000" lon="-2.430443000">
        <ele>618.90</ele>
        <time>2016-10-15T08:21:58Z</time>
      </trkpt>
      <trkpt lat="42.568064000" lon="-2.430448000">
        <ele>617.50</ele>
        <time>2016-10-15T08:21:59Z</time>
      </trkpt>
      <trkpt lat="42.568050000" lon="-2.430446000">
        <ele>616.40</ele>
        <time>2016-10-15T08:22:00Z</time>
      </trkpt>
      <trkpt lat="42.568049000" lon="-2.430442000">
        <ele>615.10</ele>
        <time>2016-10-15T08:22:01Z</time>
      </trkpt>
      <trkpt lat="42.568048000" lon="-2.430439000">
        <ele>614.10</ele>
        <time>2016-10-15T08:22:02Z</time>
      </trkpt>
      <trkpt lat="42.568047000" lon="-2.430430000">
        <ele>613.30</ele>
        <time>2016-10-15T08:22:03Z</time>
      </trkpt>
      <trkpt lat="42.568047000" lon="-2.430428000">
        <ele>612.80</ele>
        <time>2016-10-15T08:22:04Z</time>
      </trkpt>
      <trkpt lat="42.568049000" lon="-2.430428000">
        <ele>612.40</ele>
        <time>2016-10-15T08:22:05Z</time>
      </trkpt>
      <trkpt lat="42.568049000" lon="-2.430429000">
        <ele>612.00</ele>
        <time>2016-10-15T08:22:06Z</time>
      </trkpt>
      <trkpt lat="42.568049000" lon="-2.430429000">
        <ele>611.90</ele>
        <time>2016-10-15T08:22:07Z</time>
      </trkpt>
      <trkpt lat="42.568049000" lon="-2.430430000">
        <ele>611.90</ele>
        <time>2016-10-15T08:22:08Z</time>
      </trkpt>
      <trkpt lat="42.568050000" lon="-2.430431000">
        <ele>611.90</ele>
        <time>2016-10-15T08:22:09Z</time>
      </trkpt>
      <trkpt lat="42.568049000" lon="-2.430429000">
        <ele>611.90</ele>
        <time>2016-10-15T08:22:11Z</time>
      </trkpt>
      <trkpt lat="42.568048000" lon="-2.430428000">
        <ele>611.90</ele>
        <time>2016-10-15T08:22:12Z</time>
      </trkpt>
      <trkpt lat="42.568048000" lon="-2.430428000">
        <ele>611.90</ele>
        <time>2016-10-15T08:22:13Z</time>
      </trkpt>
      <trkpt lat="42.568047000" lon="-2.430427000">
        <ele>611.90</ele>
        <time>2016-10-15T08:22:14Z</time>
      </trkpt>
      <trkpt lat="42.568045000" lon="-2.430427000">
        <ele>611.80</ele>
        <time>2016-10-15T08:22:15Z</time>
      </trkpt>
      <trkpt lat="42.568044000" lon="-2.430426000">
        <ele>611.80</ele>
        <time>2016-10-15T08:22:16Z</time>
      </trkpt>
      <trkpt lat="42.568044000" lon="-2.430424000">
        <ele>611.70</ele>
        <time>2016-10-15T08:22:17Z</time>
      </trkpt>
      <trkpt lat="42.568041000" lon="-2.430423000">
        <ele>611.70</ele>
        <time>2016-10-15T08:22:18Z</time>
      </trkpt>
      <trkpt lat="42.568023000" lon="-2.430433000">
        <ele>611.50</ele>
        <time>2016-10-15T08:22:19Z</time>
      </trkpt>
      <trkpt lat="42.568002000" lon="-2.430443000">
        <ele>611.50</ele>
        <time>2016-10-15T08:22:20Z</time>
      </trkpt>
      <trkpt lat="42.567984000" lon="-2.430457000">
        <ele>611.30</ele>
        <time>2016-10-15T08:22:21Z</time>
      </trkpt>
      <trkpt lat="42.567961000" lon="-2.430482000">
        <ele>611.20</ele>
        <time>2016-10-15T08:22:22Z</time>
      </trkpt>
      <trkpt lat="42.567925000" lon="-2.430519000">
        <ele>610.80</ele>
        <time>2016-10-15T08:22:23Z</time>
      </trkpt>
      <trkpt lat="42.567877000" lon="-2.430551000">
        <ele>610.50</ele>
        <time>2016-10-15T08:22:24Z</time>
      </trkpt>
      <trkpt lat="42.567828000" lon="-2.430567000">
        <ele>610.10</ele>
        <time>2016-10-15T08:22:25Z</time>
      </trkpt>
      <trkpt lat="42.567778000" lon="-2.430583000">
        <ele>608.90</ele>
        <time>2016-10-15T08:22:26Z</time>
      </trkpt>
      <trkpt lat="42.567727000" lon="-2.430607000">
        <ele>607.90</ele>
        <time>2016-10-15T08:22:27Z</time>
      </trkpt>
      <trkpt lat="42.567684000" lon="-2.430634000">
        <ele>607.10</ele>
        <time>2016-10-15T08:22:28Z</time>
      </trkpt>
      <trkpt lat="42.567645000" lon="-2.430650000">
        <ele>606.50</ele>
        <time>2016-10-15T08:22:29Z</time>
      </trkpt>
      <trkpt lat="42.567606000" lon="-2.430661000">
        <ele>605.60</ele>
        <time>2016-10-15T08:22:30Z</time>
      </trkpt>
      <trkpt lat="42.567570000" lon="-2.430666000">
        <ele>605.00</ele>
        <time>2016-10-15T08:22:31Z</time>
      </trkpt>
      <trkpt lat="42.567539000" lon="-2.430676000">
        <ele>603.90</ele>
        <time>2016-10-15T08:22:32Z</time>
      </trkpt>
      <trkpt lat="42.567514000" lon="-2.430705000">
        <ele>603.10</ele>
        <time>2016-10-15T08:22:33Z</time>
      </trkpt>
      <trkpt lat="42.567491000" lon="-2.430750000">
        <ele>602.00</ele>
        <time>2016-10-15T08:22:34Z</time>
      </trkpt>
      <trkpt lat="42.567492000" lon="-2.430828000">
        <ele>601.20</ele>
        <time>2016-10-15T08:22:35Z</time>
      </trkpt>
      <trkpt lat="42.567483000" lon="-2.430912000">
        <ele>600.50</ele>
        <time>2016-10-15T08:22:36Z</time>
      </trkpt>
      <trkpt lat="42.567468000" lon="-2.430978000">
        <ele>600.00</ele>
        <time>2016-10-15T08:22:37Z</time>
      </trkpt>
      <trkpt lat="42.567462000" lon="-2.431027000">
        <ele>598.60</ele>
        <time>2016-10-15T08:22:38Z</time>
      </trkpt>
      <trkpt lat="42.567460000" lon="-2.431069000">
        <ele>597.70</ele>
        <time>2016-10-15T08:22:39Z</time>
      </trkpt>
      <trkpt lat="42.567448000" lon="-2.431099000">
        <ele>596.50</ele>
        <time>2016-10-15T08:22:40Z</time>
      </trkpt>
      <trkpt lat="42.567422000" lon="-2.431107000">
        <ele>595.70</ele>
        <time>2016-10-15T08:22:41Z</time>
      </trkpt>
      <trkpt lat="42.567383000" lon="-2.431107000">
        <ele>594.80</ele>
        <time>2016-10-15T08:22:42Z</time>
      </trkpt>
      <trkpt lat="42.567345000" lon="-2.431101000">
        <ele>594.10</ele>
        <time>2016-10-15T08:22:43Z</time>
      </trkpt>
      <trkpt lat="42.567307000" lon="-2.431104000">
        <ele>593.40</ele>
        <time>2016-10-15T08:22:44Z</time>
      </trkpt>
      <trkpt lat="42.567279000" lon="-2.431108000">
        <ele>592.90</ele>
        <time>2016-10-15T08:22:45Z</time>
      </trkpt>
      <trkpt lat="42.567256000" lon="-2.431116000">
        <ele>592.50</ele>
        <time>2016-10-15T08:22:46Z</time>
      </trkpt>
      <trkpt lat="42.567233000" lon="-2.431122000">
        <ele>592.20</ele>
        <time>2016-10-15T08:22:47Z</time>
      </trkpt>
      <trkpt lat="42.567209000" lon="-2.431125000">
        <ele>592.10</ele>
        <time>2016-10-15T08:22:48Z</time>
      </trkpt>
      <trkpt lat="42.567183000" lon="-2.431129000">
        <ele>592.00</ele>
        <time>2016-10-15T08:22:49Z</time>
      </trkpt>
      <trkpt lat="42.567145000" lon="-2.431135000">
        <ele>592.20</ele>
        <time>2016-10-15T08:22:50Z</time>
      </trkpt>
      <trkpt lat="42.567115000" lon="-2.431139000">
        <ele>592.20</ele>
        <time>2016-10-15T08:22:51Z</time>
      </trkpt>
      <trkpt lat="42.567084000" lon="-2.431153000">
        <ele>592.30</ele>
        <time>2016-10-15T08:22:52Z</time>
      </trkpt>
      <trkpt lat="42.567052000" lon="-2.431168000">
        <ele>592.40</ele>
        <time>2016-10-15T08:22:53Z</time>
      </trkpt>
      <trkpt lat="42.567021000" lon="-2.431189000">
        <ele>592.40</ele>
        <time>2016-10-15T08:22:54Z</time>
      </trkpt>
      <trkpt lat="42.566989000" lon="-2.431209000">
        <ele>592.40</ele>
        <time>2016-10-15T08:22:55Z</time>
      </trkpt>
      <trkpt lat="42.566954000" lon="-2.431230000">
        <ele>592.80</ele>
        <time>2016-10-15T08:22:56Z</time>
      </trkpt>
      <trkpt lat="42.566922000" lon="-2.431251000">
        <ele>593.00</ele>
        <time>2016-10-15T08:22:57Z</time>
      </trkpt>
      <trkpt lat="42.566891000" lon="-2.431270000">
        <ele>593.50</ele>
        <time>2016-10-15T08:22:58Z</time>
      </trkpt>
      <trkpt lat="42.566860000" lon="-2.431290000">
        <ele>593.80</ele>
        <time>2016-10-15T08:22:59Z</time>
      </trkpt>
      <trkpt lat="42.566830000" lon="-2.431307000">
        <ele>594.20</ele>
        <time>2016-10-15T08:23:00Z</time>
      </trkpt>
      <trkpt lat="42.566803000" lon="-2.431324000">
        <ele>594.40</ele>
        <time>2016-10-15T08:23:01Z</time>
      </trkpt>
      <trkpt lat="42.566775000" lon="-2.431340000">
        <ele>594.60</ele>
        <time>2016-10-15T08:23:02Z</time>
      </trkpt>
      <trkpt lat="42.566745000" lon="-2.431355000">
        <ele>594.70</ele>
        <time>2016-10-15T08:23:03Z</time>
      </trkpt>
      <trkpt lat="42.566718000" lon="-2.431369000">
        <ele>594.80</ele>
        <time>2016-10-15T08:23:04Z</time>
      </trkpt>
      <trkpt lat="42.566689000" lon="-2.431381000">
        <ele>594.90</ele>
        <time>2016-10-15T08:23:05Z</time>
      </trkpt>
      <trkpt lat="42.566662000" lon="-2.431389000">
        <ele>595.30</ele>
        <time>2016-10-15T08:23:06Z</time>
      </trkpt>
      <trkpt lat="42.566639000" lon="-2.431393000">
        <ele>595.60</ele>
        <time>2016-10-15T08:23:07Z</time>
      </trkpt>
      <trkpt lat="42.566611000" lon="-2.431405000">
        <ele>595.90</ele>
        <time>2016-10-15T08:23:08Z</time>
      </trkpt>
      <trkpt lat="42.566585000" lon="-2.431422000">
        <ele>596.10</ele>
        <time>2016-10-15T08:23:09Z</time>
      </trkpt>
      <trkpt lat="42.566560000" lon="-2.431432000">
        <ele>596.90</ele>
        <time>2016-10-15T08:23:10Z</time>
      </trkpt>
      <trkpt lat="42.566515000" lon="-2.431453000">
        <ele>597.90</ele>
        <time>2016-10-15T08:23:12Z</time>
      </trkpt>
      <trkpt lat="42.566496000" lon="-2.431463000">
        <ele>598.30</ele>
        <time>2016-10-15T08:23:13Z</time>
      </trkpt>
      <trkpt lat="42.566483000" lon="-2.431480000">
        <ele>598.60</ele>
        <time>2016-10-15T08:23:14Z</time>
      </trkpt>
      <trkpt lat="42.566465000" lon="-2.431495000">
        <ele>598.90</ele>
        <time>2016-10-15T08:23:15Z</time>
      </trkpt>
      <trkpt lat="42.566449000" lon="-2.431502000">
        <ele>599.40</ele>
        <time>2016-10-15T08:23:16Z</time>
      </trkpt>
      <trkpt lat="42.566433000" lon="-2.431511000">
        <ele>599.70</ele>
        <time>2016-10-15T08:23:17Z</time>
      </trkpt>
      <trkpt lat="42.566419000" lon="-2.431519000">
        <ele>600.00</ele>
        <time>2016-10-15T08:23:18Z</time>
      </trkpt>
      <trkpt lat="42.566403000" lon="-2.431530000">
        <ele>600.20</ele>
        <time>2016-10-15T08:23:19Z</time>
      </trkpt>
      <trkpt lat="42.566387000" lon="-2.431540000">
        <ele>600.40</ele>
        <time>2016-10-15T08:23:20Z</time>
      </trkpt>
      <trkpt lat="42.566374000" lon="-2.431551000">
        <ele>600.50</ele>
        <time>2016-10-15T08:23:21Z</time>
      </trkpt>
      <trkpt lat="42.566364000" lon="-2.431558000">
        <ele>600.60</ele>
        <time>2016-10-15T08:23:22Z</time>
      </trkpt>
      <trkpt lat="42.566351000" lon="-2.431562000">
        <ele>600.70</ele>
        <time>2016-10-15T08:23:23Z</time>
      </trkpt>
      <trkpt lat="42.566336000" lon="-2.431568000">
        <ele>600.80</ele>
        <time>2016-10-15T08:23:24Z</time>
      </trkpt>
      <trkpt lat="42.566323000" lon="-2.431573000">
        <ele>600.90</ele>
        <time>2016-10-15T08:23:25Z</time>
      </trkpt>
      <trkpt lat="42.566315000" lon="-2.431582000">
        <ele>601.10</ele>
        <time>2016-10-15T08:23:26Z</time>
      </trkpt>
      <trkpt lat="42.566306000" lon="-2.431590000">
        <ele>601.30</ele>
        <time>2016-10-15T08:23:27Z</time>
      </trkpt>
      <trkpt lat="42.566296000" lon="-2.431598000">
        <ele>601.40</ele>
        <time>2016-10-15T08:23:28Z</time>
      </trkpt>
      <trkpt lat="42.566277000" lon="-2.431609000">
        <ele>601.50</ele>
        <time>2016-10-15T08:23:29Z</time>
      </trkpt>
      <trkpt lat="42.566251000" lon="-2.431627000">
        <ele>601.60</ele>
        <time>2016-10-15T08:23:30Z</time>
      </trkpt>
      <trkpt lat="42.566221000" lon="-2.431645000">
        <ele>601.60</ele>
        <time>2016-10-15T08:23:31Z</time>
      </trkpt>
      <trkpt lat="42.566186000" lon="-2.431669000">
        <ele>601.40</ele>
        <time>2016-10-15T08:23:32Z</time>
      </trkpt>
      <trkpt lat="42.566150000" lon="-2.431702000">
        <ele>601.30</ele>
        <time>2016-10-15T08:23:33Z</time>
      </trkpt>
      <trkpt lat="42.566110000" lon="-2.431740000">
        <ele>600.90</ele>
        <time>2016-10-15T08:23:34Z</time>
      </trkpt>
      <trkpt lat="42.566068000" lon="-2.431779000">
        <ele>600.60</ele>
        <time>2016-10-15T08:23:35Z</time>
      </trkpt>
      <trkpt lat="42.566024000" lon="-2.431818000">
        <ele>599.90</ele>
        <time>2016-10-15T08:23:36Z</time>
      </trkpt>
      <trkpt lat="42.565981000" lon="-2.431857000">
        <ele>599.40</ele>
        <time>2016-10-15T08:23:37Z</time>
      </trkpt>
      <trkpt lat="42.565937000" lon="-2.431896000">
        <ele>598.80</ele>
        <time>2016-10-15T08:23:38Z</time>
      </trkpt>
      <trkpt lat="42.565899000" lon="-2.431928000">
        <ele>598.30</ele>
        <time>2016-10-15T08:23:39Z</time>
      </trkpt>
      <trkpt lat="42.565865000" lon="-2.431951000">
        <ele>597.50</ele>
        <time>2016-10-15T08:23:40Z</time>
      </trkpt>
      <trkpt lat="42.565832000" lon="-2.431973000">
        <ele>596.80</ele>
        <time>2016-10-15T08:23:41Z</time>
      </trkpt>
      <trkpt lat="42.565794000" lon="-2.431995000">
        <ele>595.90</ele>
        <time>2016-10-15T08:23:42Z</time>
      </trkpt>
      <trkpt lat="42.565752000" lon="-2.432010000">
        <ele>595.20</ele>
        <time>2016-10-15T08:23:43Z</time>
      </trkpt>
      <trkpt lat="42.565707000" lon="-2.432015000">
        <ele>594.40</ele>
        <time>2016-10-15T08:23:44Z</time>
      </trkpt>
      <trkpt lat="42.565659000" lon="-2.432012000">
        <ele>593.80</ele>
        <time>2016-10-15T08:23:45Z</time>
      </trkpt>
      <trkpt lat="42.565609000" lon="-2.432006000">
        <ele>593.40</ele>
        <time>2016-10-15T08:23:46Z</time>
      </trkpt>
      <trkpt lat="42.565558000" lon="-2.431999000">
        <ele>593.10</ele>
        <time>2016-10-15T08:23:47Z</time>
      </trkpt>
      <trkpt lat="42.565508000" lon="-2.431996000">
        <ele>592.80</ele>
        <time>2016-10-15T08:23:48Z</time>
      </trkpt>
      <trkpt lat="42.565456000" lon="-2.431989000">
        <ele>592.60</ele>
        <time>2016-10-15T08:23:49Z</time>
      </trkpt>
      <trkpt lat="42.565405000" lon="-2.431980000">
        <ele>592.40</ele>
        <time>2016-10-15T08:23:50Z</time>
      </trkpt>
      <trkpt lat="42.565352000" lon="-2.431972000">
        <ele>592.30</ele>
        <time>2016-10-15T08:23:51Z</time>
      </trkpt>
      <trkpt lat="42.565299000" lon="-2.431964000">
        <ele>592.00</ele>
        <time>2016-10-15T08:23:52Z</time>
      </trkpt>
      <trkpt lat="42.565245000" lon="-2.431953000">
        <ele>591.80</ele>
        <time>2016-10-15T08:23:53Z</time>
      </trkpt>
      <trkpt lat="42.565191000" lon="-2.431940000">
        <ele>591.70</ele>
        <time>2016-10-15T08:23:54Z</time>
      </trkpt>
      <trkpt lat="42.565136000" lon="-2.431929000">
        <ele>591.50</ele>
        <time>2016-10-15T08:23:55Z</time>
      </trkpt>
      <trkpt lat="42.565082000" lon="-2.431911000">
        <ele>591.00</ele>
        <time>2016-10-15T08:23:56Z</time>
      </trkpt>
      <trkpt lat="42.565027000" lon="-2.431887000">
        <ele>590.50</ele>
        <time>2016-10-15T08:23:57Z</time>
      </trkpt>
      <trkpt lat="42.564975000" lon="-2.431854000">
        <ele>590.10</ele>
        <time>2016-10-15T08:23:58Z</time>
      </trkpt>
      <trkpt lat="42.564924000" lon="-2.431818000">
        <ele>589.90</ele>
        <time>2016-10-15T08:23:59Z</time>
      </trkpt>
      <trkpt lat="42.564877000" lon="-2.431784000">
        <ele>589.50</ele>
        <time>2016-10-15T08:24:00Z</time>
      </trkpt>
      <trkpt lat="42.564834000" lon="-2.431752000">
        <ele>589.20</ele>
        <time>2016-10-15T08:24:01Z</time>
      </trkpt>
      <trkpt lat="42.564794000" lon="-2.431718000">
        <ele>589.00</ele>
        <time>2016-10-15T08:24:02Z</time>
      </trkpt>
      <trkpt lat="42.564757000" lon="-2.431686000">
        <ele>588.90</ele>
        <time>2016-10-15T08:24:03Z</time>
      </trkpt>
      <trkpt lat="42.564715000" lon="-2.431668000">
        <ele>588.80</ele>
        <time>2016-10-15T08:24:04Z</time>
      </trkpt>
      <trkpt lat="42.564670000" lon="-2.431663000">
        <ele>588.70</ele>
        <time>2016-10-15T08:24:05Z</time>
      </trkpt>
      <trkpt lat="42.564623000" lon="-2.431668000">
        <ele>588.70</ele>
        <time>2016-10-15T08:24:06Z</time>
      </trkpt>
      <trkpt lat="42.564583000" lon="-2.431677000">
        <ele>588.70</ele>
        <time>2016-10-15T08:24:07Z</time>
      </trkpt>
      <trkpt lat="42.564542000" lon="-2.431686000">
        <ele>588.70</ele>
        <time>2016-10-15T08:24:08Z</time>
      </trkpt>
      <trkpt lat="42.564502000" lon="-2.431692000">
        <ele>588.70</ele>
        <time>2016-10-15T08:24:09Z</time>
      </trkpt>
      <trkpt lat="42.564463000" lon="-2.431704000">
        <ele>588.70</ele>
        <time>2016-10-15T08:24:10Z</time>
      </trkpt>
      <trkpt lat="42.564425000" lon="-2.431715000">
        <ele>588.80</ele>
        <time>2016-10-15T08:24:11Z</time>
      </trkpt>
      <trkpt lat="42.564384000" lon="-2.431732000">
        <ele>588.80</ele>
        <time>2016-10-15T08:24:12Z</time>
      </trkpt>
      <trkpt lat="42.564302000" lon="-2.431760000">
        <ele>588.90</ele>
        <time>2016-10-15T08:24:14Z</time>
      </trkpt>
      <trkpt lat="42.564263000" lon="-2.431774000">
        <ele>589.00</ele>
        <time>2016-10-15T08:24:15Z</time>
      </trkpt>
      <trkpt lat="42.564224000" lon="-2.431787000">
        <ele>589.20</ele>
        <time>2016-10-15T08:24:16Z</time>
      </trkpt>
      <trkpt lat="42.564184000" lon="-2.431802000">
        <ele>589.40</ele>
        <time>2016-10-15T08:24:17Z</time>
      </trkpt>
      <trkpt lat="42.564143000" lon="-2.431820000">
        <ele>589.50</ele>
        <time>2016-10-15T08:24:18Z</time>
      </trkpt>
      <trkpt lat="42.564100000" lon="-2.431834000">
        <ele>589.60</ele>
        <time>2016-10-15T08:24:19Z</time>
      </trkpt>
      <trkpt lat="42.564054000" lon="-2.431845000">
        <ele>589.60</ele>
        <time>2016-10-15T08:24:20Z</time>
      </trkpt>
      <trkpt lat="42.564007000" lon="-2.431858000">
        <ele>589.70</ele>
        <time>2016-10-15T08:24:21Z</time>
      </trkpt>
      <trkpt lat="42.563958000" lon="-2.431880000">
        <ele>589.70</ele>
        <time>2016-10-15T08:24:22Z</time>
      </trkpt>
      <trkpt lat="42.563911000" lon="-2.431900000">
        <ele>589.70</ele>
        <time>2016-10-15T08:24:23Z</time>
      </trkpt>
      <trkpt lat="42.563873000" lon="-2.431917000">
        <ele>589.50</ele>
        <time>2016-10-15T08:24:24Z</time>
      </trkpt>
      <trkpt lat="42.563840000" lon="-2.431934000">
        <ele>589.40</ele>
        <time>2016-10-15T08:24:25Z</time>
      </trkpt>
      <trkpt lat="42.563806000" lon="-2.431951000">
        <ele>589.30</ele>
        <time>2016-10-15T08:24:26Z</time>
      </trkpt>
      <trkpt lat="42.563764000" lon="-2.431965000">
        <ele>589.10</ele>
        <time>2016-10-15T08:24:27Z</time>
      </trkpt>
      <trkpt lat="42.563713000" lon="-2.431970000">
        <ele>589.10</ele>
        <time>2016-10-15T08:24:28Z</time>
      </trkpt>
      <trkpt lat="42.563659000" lon="-2.431973000">
        <ele>589.00</ele>
        <time>2016-10-15T08:24:29Z</time>
      </trkpt>
      <trkpt lat="42.563600000" lon="-2.431973000">
        <ele>588.90</ele>
        <time>2016-10-15T08:24:30Z</time>
      </trkpt>
      <trkpt lat="42.563540000" lon="-2.431974000">
        <ele>588.80</ele>
        <time>2016-10-15T08:24:31Z</time>
      </trkpt>
      <trkpt lat="42.563476000" lon="-2.431973000">
        <ele>588.20</ele>
        <time>2016-10-15T08:24:32Z</time>
      </trkpt>
      <trkpt lat="42.563411000" lon="-2.431965000">
        <ele>587.80</ele>
        <time>2016-10-15T08:24:33Z</time>
      </trkpt>
      <trkpt lat="42.563344000" lon="-2.431969000">
        <ele>587.20</ele>
        <time>2016-10-15T08:24:34Z</time>
      </trkpt>
      <trkpt lat="42.563275000" lon="-2.431984000">
        <ele>586.70</ele>
        <time>2016-10-15T08:24:35Z</time>
      </trkpt>
      <trkpt lat="42.563209000" lon="-2.431998000">
        <ele>586.30</ele>
        <time>2016-10-15T08:24:36Z</time>
      </trkpt>
      <trkpt lat="42.563152000" lon="-2.432002000">
        <ele>586.00</ele>
        <time>2016-10-15T08:24:37Z</time>
      </trkpt>
      <trkpt lat="42.563097000" lon="-2.432002000">
        <ele>585.50</ele>
        <time>2016-10-15T08:24:38Z</time>
      </trkpt>
      <trkpt lat="42.563043000" lon="-2.431997000">
        <ele>585.00</ele>
        <time>2016-10-15T08:24:39Z</time>
      </trkpt>
      <trkpt lat="42.562989000" lon="-2.431991000">
        <ele>584.50</ele>
        <time>2016-10-15T08:24:40Z</time>
      </trkpt>
      <trkpt lat="42.562937000" lon="-2.431980000">
        <ele>584.10</ele>
        <time>2016-10-15T08:24:41Z</time>
      </trkpt>
      <trkpt lat="42.562893000" lon="-2.431972000">
        <ele>583.70</ele>
        <time>2016-10-15T08:24:42Z</time>
      </trkpt>
      <trkpt lat="42.562851000" lon="-2.431962000">
        <ele>583.30</ele>
        <time>2016-10-15T08:24:43Z</time>
      </trkpt>
      <trkpt lat="42.562804000" lon="-2.431966000">
        <ele>583.00</ele>
        <time>2016-10-15T08:24:44Z</time>
      </trkpt>
      <trkpt lat="42.562760000" lon="-2.431981000">
        <ele>582.70</ele>
        <time>2016-10-15T08:24:45Z</time>
      </trkpt>
      <trkpt lat="42.562712000" lon="-2.432010000">
        <ele>582.50</ele>
        <time>2016-10-15T08:24:46Z</time>
      </trkpt>
      <trkpt lat="42.562661000" lon="-2.432058000">
        <ele>582.40</ele>
        <time>2016-10-15T08:24:47Z</time>
      </trkpt>
      <trkpt lat="42.562609000" lon="-2.432111000">
        <ele>582.30</ele>
        <time>2016-10-15T08:24:48Z</time>
      </trkpt>
      <trkpt lat="42.562553000" lon="-2.432165000">
        <ele>582.20</ele>
        <time>2016-10-15T08:24:49Z</time>
      </trkpt>
      <trkpt lat="42.562496000" lon="-2.432218000">
        <ele>582.00</ele>
        <time>2016-10-15T08:24:50Z</time>
      </trkpt>
      <trkpt lat="42.562440000" lon="-2.432268000">
        <ele>581.90</ele>
        <time>2016-10-15T08:24:51Z</time>
      </trkpt>
      <trkpt lat="42.562383000" lon="-2.432325000">
        <ele>581.60</ele>
        <time>2016-10-15T08:24:52Z</time>
      </trkpt>
      <trkpt lat="42.562329000" lon="-2.432382000">
        <ele>581.30</ele>
        <time>2016-10-15T08:24:53Z</time>
      </trkpt>
      <trkpt lat="42.562283000" lon="-2.432451000">
        <ele>581.10</ele>
        <time>2016-10-15T08:24:54Z</time>
      </trkpt>
      <trkpt lat="42.562248000" lon="-2.432533000">
        <ele>580.90</ele>
        <time>2016-10-15T08:24:55Z</time>
      </trkpt>
      <trkpt lat="42.562217000" lon="-2.432610000">
        <ele>580.60</ele>
        <time>2016-10-15T08:24:56Z</time>
      </trkpt>
      <trkpt lat="42.562189000" lon="-2.432687000">
        <ele>580.50</ele>
        <time>2016-10-15T08:24:57Z</time>
      </trkpt>
      <trkpt lat="42.562157000" lon="-2.432767000">
        <ele>580.30</ele>
        <time>2016-10-15T08:24:58Z</time>
      </trkpt>
      <trkpt lat="42.562124000" lon="-2.432848000">
        <ele>580.10</ele>
        <time>2016-10-15T08:24:59Z</time>
      </trkpt>
      <trkpt lat="42.562093000" lon="-2.432928000">
        <ele>579.80</ele>
        <time>2016-10-15T08:25:00Z</time>
      </trkpt>
      <trkpt lat="42.562060000" lon="-2.433002000">
        <ele>579.60</ele>
        <time>2016-10-15T08:25:01Z</time>
      </trkpt>
      <trkpt lat="42.562031000" lon="-2.433072000">
        <ele>579.10</ele>
        <time>2016-10-15T08:25:02Z</time>
      </trkpt>
      <trkpt lat="42.562007000" lon="-2.433136000">
        <ele>578.70</ele>
        <time>2016-10-15T08:25:03Z</time>
      </trkpt>
      <trkpt lat="42.561987000" lon="-2.433198000">
        <ele>578.40</ele>
        <time>2016-10-15T08:25:04Z</time>
      </trkpt>
      <trkpt lat="42.561967000" lon="-2.433254000">
        <ele>578.10</ele>
        <time>2016-10-15T08:25:05Z</time>
      </trkpt>
      <trkpt lat="42.561955000" lon="-2.433319000">
        <ele>578.20</ele>
        <time>2016-10-15T08:25:06Z</time>
      </trkpt>
      <trkpt lat="42.561939000" lon="-2.433386000">
        <ele>578.20</ele>
        <time>2016-10-15T08:25:07Z</time>
      </trkpt>
      <trkpt lat="42.561923000" lon="-2.433457000">
        <ele>578.20</ele>
        <time>2016-10-15T08:25:08Z</time>
      </trkpt>
      <trkpt lat="42.561905000" lon="-2.433525000">
        <ele>578.20</ele>
        <time>2016-10-15T08:25:09Z</time>
      </trkpt>
      <trkpt lat="42.561888000" lon="-2.433598000">
        <ele>577.50</ele>
        <time>2016-10-15T08:25:10Z</time>
      </trkpt>
      <trkpt lat="42.561872000" lon="-2.433680000">
        <ele>576.90</ele>
        <time>2016-10-15T08:25:11Z</time>
      </trkpt>
      <trkpt lat="42.561851000" lon="-2.433768000">
        <ele>576.40</ele>
        <time>2016-10-15T08:25:12Z</time>
      </trkpt>
      <trkpt lat="42.561826000" lon="-2.433855000">
        <ele>576.00</ele>
        <time>2016-10-15T08:25:13Z</time>
      </trkpt>
      <trkpt lat="42.561801000" lon="-2.433948000">
        <ele>575.70</ele>
        <time>2016-10-15T08:25:14Z</time>
      </trkpt>
      <trkpt lat="42.561754000" lon="-2.434139000">
        <ele>575.00</ele>
        <time>2016-10-15T08:25:16Z</time>
      </trkpt>
      <trkpt lat="42.561730000" lon="-2.434235000">
        <ele>574.60</ele>
        <time>2016-10-15T08:25:17Z</time>
      </trkpt>
      <trkpt lat="42.561705000" lon="-2.434328000">
        <ele>573.80</ele>
        <time>2016-10-15T08:25:18Z</time>
      </trkpt>
      <trkpt lat="42.561680000" lon="-2.434417000">
        <ele>573.20</ele>
        <time>2016-10-15T08:25:19Z</time>
      </trkpt>
      <trkpt lat="42.561653000" lon="-2.434509000">
        <ele>572.70</ele>
        <time>2016-10-15T08:25:20Z</time>
      </trkpt>
      <trkpt lat="42.561626000" lon="-2.434594000">
        <ele>572.20</ele>
        <time>2016-10-15T08:25:21Z</time>
      </trkpt>
      <trkpt lat="42.561600000" lon="-2.434660000">
        <ele>571.90</ele>
        <time>2016-10-15T08:25:22Z</time>
      </trkpt>
      <trkpt lat="42.561570000" lon="-2.434725000">
        <ele>571.70</ele>
        <time>2016-10-15T08:25:23Z</time>
      </trkpt>
      <trkpt lat="42.561550000" lon="-2.434785000">
        <ele>571.10</ele>
        <time>2016-10-15T08:25:24Z</time>
      </trkpt>
      <trkpt lat="42.561534000" lon="-2.434834000">
        <ele>570.70</ele>
        <time>2016-10-15T08:25:25Z</time>
      </trkpt>
      <trkpt lat="42.561524000" lon="-2.434869000">
        <ele>570.10</ele>
        <time>2016-10-15T08:25:26Z</time>
      </trkpt>
      <trkpt lat="42.561518000" lon="-2.434887000">
        <ele>569.60</ele>
        <time>2016-10-15T08:25:27Z</time>
      </trkpt>
      <trkpt lat="42.561519000" lon="-2.434903000">
        <ele>569.20</ele>
        <time>2016-10-15T08:25:28Z</time>
      </trkpt>
      <trkpt lat="42.561517000" lon="-2.434925000">
        <ele>568.80</ele>
        <time>2016-10-15T08:25:29Z</time>
      </trkpt>
      <trkpt lat="42.561510000" lon="-2.434957000">
        <ele>568.40</ele>
        <time>2016-10-15T08:25:30Z</time>
      </trkpt>
      <trkpt lat="42.561499000" lon="-2.434983000">
        <ele>568.10</ele>
        <time>2016-10-15T08:25:31Z</time>
      </trkpt>
      <trkpt lat="42.561487000" lon="-2.435007000">
        <ele>567.90</ele>
        <time>2016-10-15T08:25:32Z</time>
      </trkpt>
      <trkpt lat="42.561468000" lon="-2.435029000">
        <ele>567.70</ele>
        <time>2016-10-15T08:25:33Z</time>
      </trkpt>
      <trkpt lat="42.561450000" lon="-2.435058000">
        <ele>567.60</ele>
        <time>2016-10-15T08:25:34Z</time>
      </trkpt>
      <trkpt lat="42.561430000" lon="-2.435082000">
        <ele>567.40</ele>
        <time>2016-10-15T08:25:35Z</time>
      </trkpt>
      <trkpt lat="42.561411000" lon="-2.435107000">
        <ele>567.40</ele>
        <time>2016-10-15T08:25:36Z</time>
      </trkpt>
      <trkpt lat="42.561391000" lon="-2.435132000">
        <ele>567.40</ele>
        <time>2016-10-15T08:25:37Z</time>
      </trkpt>
      <trkpt lat="42.561364000" lon="-2.435159000">
        <ele>567.30</ele>
        <time>2016-10-15T08:25:38Z</time>
      </trkpt>
      <trkpt lat="42.561336000" lon="-2.435187000">
        <ele>567.20</ele>
        <time>2016-10-15T08:25:39Z</time>
      </trkpt>
      <trkpt lat="42.561307000" lon="-2.435217000">
        <ele>567.10</ele>
        <time>2016-10-15T08:25:40Z</time>
      </trkpt>
      <trkpt lat="42.561279000" lon="-2.435250000">
        <ele>567.10</ele>
        <time>2016-10-15T08:25:41Z</time>
      </trkpt>
      <trkpt lat="42.561246000" lon="-2.435280000">
        <ele>567.00</ele>
        <time>2016-10-15T08:25:42Z</time>
      </trkpt>
      <trkpt lat="42.561211000" lon="-2.435315000">
        <ele>567.00</ele>
        <time>2016-10-15T08:25:43Z</time>
      </trkpt>
      <trkpt lat="42.561174000" lon="-2.435346000">
        <ele>567.00</ele>
        <time>2016-10-15T08:25:44Z</time>
      </trkpt>
      <trkpt lat="42.561137000" lon="-2.435377000">
        <ele>567.00</ele>
        <time>2016-10-15T08:25:45Z</time>
      </trkpt>
      <trkpt lat="42.561095000" lon="-2.435403000">
        <ele>567.10</ele>
        <time>2016-10-15T08:25:46Z</time>
      </trkpt>
      <trkpt lat="42.561054000" lon="-2.435423000">
        <ele>567.30</ele>
        <time>2016-10-15T08:25:47Z</time>
      </trkpt>
      <trkpt lat="42.561009000" lon="-2.435434000">
        <ele>567.40</ele>
        <time>2016-10-15T08:25:48Z</time>
      </trkpt>
      <trkpt lat="42.560963000" lon="-2.435439000">
        <ele>567.50</ele>
        <time>2016-10-15T08:25:49Z</time>
      </trkpt>
      <trkpt lat="42.560918000" lon="-2.435439000">
        <ele>567.50</ele>
        <time>2016-10-15T08:25:50Z</time>
      </trkpt>
      <trkpt lat="42.560874000" lon="-2.435439000">
        <ele>567.50</ele>
        <time>2016-10-15T08:25:51Z</time>
      </trkpt>
      <trkpt lat="42.560831000" lon="-2.435436000">
        <ele>567.50</ele>
        <time>2016-10-15T08:25:52Z</time>
      </trkpt>
      <trkpt lat="42.560788000" lon="-2.435427000">
        <ele>567.40</ele>
        <time>2016-10-15T08:25:53Z</time>
      </trkpt>
      <trkpt lat="42.560746000" lon="-2.435417000">
        <ele>567.40</ele>
        <time>2016-10-15T08:25:54Z</time>
      </trkpt>
      <trkpt lat="42.560702000" lon="-2.435407000">
        <ele>567.40</ele>
        <time>2016-10-15T08:25:55Z</time>
      </trkpt>
      <trkpt lat="42.560659000" lon="-2.435390000">
        <ele>567.10</ele>
        <time>2016-10-15T08:25:56Z</time>
      </trkpt>
      <trkpt lat="42.560614000" lon="-2.435374000">
        <ele>566.90</ele>
        <time>2016-10-15T08:25:57Z</time>
      </trkpt>
      <trkpt lat="42.560564000" lon="-2.435359000">
        <ele>566.80</ele>
        <time>2016-10-15T08:25:58Z</time>
      </trkpt>
      <trkpt lat="42.560508000" lon="-2.435344000">
        <ele>566.60</ele>
        <time>2016-10-15T08:25:59Z</time>
      </trkpt>
      <trkpt lat="42.560448000" lon="-2.435326000">
        <ele>566.60</ele>
        <time>2016-10-15T08:26:00Z</time>
      </trkpt>
      <trkpt lat="42.560387000" lon="-2.435307000">
        <ele>566.50</ele>
        <time>2016-10-15T08:26:01Z</time>
      </trkpt>
      <trkpt lat="42.560322000" lon="-2.435283000">
        <ele>566.20</ele>
        <time>2016-10-15T08:26:02Z</time>
      </trkpt>
      <trkpt lat="42.560252000" lon="-2.435259000">
        <ele>566.10</ele>
        <time>2016-10-15T08:26:03Z</time>
      </trkpt>
      <trkpt lat="42.560181000" lon="-2.435236000">
        <ele>565.80</ele>
        <time>2016-10-15T08:26:04Z</time>
      </trkpt>
      <trkpt lat="42.560108000" lon="-2.435211000">
        <ele>565.60</ele>
        <time>2016-10-15T08:26:05Z</time>
      </trkpt>
      <trkpt lat="42.560036000" lon="-2.435185000">
        <ele>565.40</ele>
        <time>2016-10-15T08:26:06Z</time>
      </trkpt>
      <trkpt lat="42.559962000" lon="-2.435157000">
        <ele>565.30</ele>
        <time>2016-10-15T08:26:07Z</time>
      </trkpt>
      <trkpt lat="42.559888000" lon="-2.435130000">
        <ele>564.60</ele>
        <time>2016-10-15T08:26:08Z</time>
      </trkpt>
      <trkpt lat="42.559814000" lon="-2.435105000">
        <ele>564.10</ele>
        <time>2016-10-15T08:26:09Z</time>
      </trkpt>
      <trkpt lat="42.559739000" lon="-2.435084000">
        <ele>563.60</ele>
        <time>2016-10-15T08:26:10Z</time>
      </trkpt>
      <trkpt lat="42.559664000" lon="-2.435064000">
        <ele>563.30</ele>
        <time>2016-10-15T08:26:11Z</time>
      </trkpt>
      <trkpt lat="42.559587000" lon="-2.435054000">
        <ele>563.10</ele>
        <time>2016-10-15T08:26:12Z</time>
      </trkpt>
      <trkpt lat="42.559510000" lon="-2.435043000">
        <ele>562.90</ele>
        <time>2016-10-15T08:26:13Z</time>
      </trkpt>
      <trkpt lat="42.559430000" lon="-2.435041000">
        <ele>562.70</ele>
        <time>2016-10-15T08:26:14Z</time>
      </trkpt>
      <trkpt lat="42.559351000" lon="-2.435043000">
        <ele>562.60</ele>
        <time>2016-10-15T08:26:15Z</time>
      </trkpt>
      <trkpt lat="42.559273000" lon="-2.435048000">
        <ele>562.40</ele>
        <time>2016-10-15T08:26:16Z</time>
      </trkpt>
      <trkpt lat="42.559120000" lon="-2.435059000">
        <ele>562.00</ele>
        <time>2016-10-15T08:26:18Z</time>
      </trkpt>
      <trkpt lat="42.559045000" lon="-2.435062000">
        <ele>561.90</ele>
        <time>2016-10-15T08:26:19Z</time>
      </trkpt>
      <trkpt lat="42.558973000" lon="-2.435065000">
        <ele>561.80</ele>
        <time>2016-10-15T08:26:20Z</time>
      </trkpt>
      <trkpt lat="42.558902000" lon="-2.435065000">
        <ele>561.70</ele>
        <time>2016-10-15T08:26:21Z</time>
      </trkpt>
      <trkpt lat="42.558831000" lon="-2.435064000">
        <ele>561.40</ele>
        <time>2016-10-15T08:26:22Z</time>
      </trkpt>
      <trkpt lat="42.558761000" lon="-2.435062000">
        <ele>561.20</ele>
        <time>2016-10-15T08:26:23Z</time>
      </trkpt>
      <trkpt lat="42.558694000" lon="-2.435056000">
        <ele>560.80</ele>
        <time>2016-10-15T08:26:24Z</time>
      </trkpt>
      <trkpt lat="42.558631000" lon="-2.435046000">
        <ele>560.50</ele>
        <time>2016-10-15T08:26:25Z</time>
      </trkpt>
      <trkpt lat="42.558567000" lon="-2.435032000">
        <ele>560.30</ele>
        <time>2016-10-15T08:26:26Z</time>
      </trkpt>
      <trkpt lat="42.558503000" lon="-2.435009000">
        <ele>560.20</ele>
        <time>2016-10-15T08:26:27Z</time>
      </trkpt>
      <trkpt lat="42.558440000" lon="-2.434980000">
        <ele>560.10</ele>
        <time>2016-10-15T08:26:28Z</time>
      </trkpt>
      <trkpt lat="42.558381000" lon="-2.434943000">
        <ele>560.00</ele>
        <time>2016-10-15T08:26:29Z</time>
      </trkpt>
      <trkpt lat="42.558327000" lon="-2.434895000">
        <ele>560.00</ele>
        <time>2016-10-15T08:26:30Z</time>
      </trkpt>
      <trkpt lat="42.558281000" lon="-2.434840000">
        <ele>560.00</ele>
        <time>2016-10-15T08:26:31Z</time>
      </trkpt>
      <trkpt lat="42.558242000" lon="-2.434774000">
        <ele>560.20</ele>
        <time>2016-10-15T08:26:32Z</time>
      </trkpt>
      <trkpt lat="42.558211000" lon="-2.434704000">
        <ele>560.30</ele>
        <time>2016-10-15T08:26:33Z</time>
      </trkpt>
      <trkpt lat="42.558188000" lon="-2.434631000">
        <ele>560.40</ele>
        <time>2016-10-15T08:26:34Z</time>
      </trkpt>
      <trkpt lat="42.558173000" lon="-2.434555000">
        <ele>560.50</ele>
        <time>2016-10-15T08:26:35Z</time>
      </trkpt>
      <trkpt lat="42.558154000" lon="-2.434484000">
        <ele>560.80</ele>
        <time>2016-10-15T08:26:36Z</time>
      </trkpt>
      <trkpt lat="42.558134000" lon="-2.434413000">
        <ele>561.10</ele>
        <time>2016-10-15T08:26:37Z</time>
      </trkpt>
      <trkpt lat="42.558112000" lon="-2.434341000">
        <ele>561.40</ele>
        <time>2016-10-15T08:26:38Z</time>
      </trkpt>
      <trkpt lat="42.558086000" lon="-2.434274000">
        <ele>561.60</ele>
        <time>2016-10-15T08:26:39Z</time>
      </trkpt>
      <trkpt lat="42.558054000" lon="-2.434212000">
        <ele>561.80</ele>
        <time>2016-10-15T08:26:40Z</time>
      </trkpt>
      <trkpt lat="42.558018000" lon="-2.434157000">
        <ele>561.90</ele>
        <time>2016-10-15T08:26:41Z</time>
      </trkpt>
      <trkpt lat="42.557983000" lon="-2.434105000">
        <ele>561.90</ele>
        <time>2016-10-15T08:26:42Z</time>
      </trkpt>
      <trkpt lat="42.557944000" lon="-2.434064000">
        <ele>561.90</ele>
        <time>2016-10-15T08:26:43Z</time>
      </trkpt>
      <trkpt lat="42.557903000" lon="-2.434028000">
        <ele>561.80</ele>
        <time>2016-10-15T08:26:44Z</time>
      </trkpt>
      <trkpt lat="42.557862000" lon="-2.433992000">
        <ele>561.80</ele>
        <time>2016-10-15T08:26:45Z</time>
      </trkpt>
      <trkpt lat="42.557818000" lon="-2.433958000">
        <ele>561.70</ele>
        <time>2016-10-15T08:26:46Z</time>
      </trkpt>
      <trkpt lat="42.557774000" lon="-2.433927000">
        <ele>561.60</ele>
        <time>2016-10-15T08:26:47Z</time>
      </trkpt>
      <trkpt lat="42.557730000" lon="-2.433897000">
        <ele>561.40</ele>
        <time>2016-10-15T08:26:48Z</time>
      </trkpt>
      <trkpt lat="42.557685000" lon="-2.433865000">
        <ele>561.30</ele>
        <time>2016-10-15T08:26:49Z</time>
      </trkpt>
      <trkpt lat="42.557639000" lon="-2.433835000">
        <ele>561.10</ele>
        <time>2016-10-15T08:26:50Z</time>
      </trkpt>
      <trkpt lat="42.557596000" lon="-2.433809000">
        <ele>560.90</ele>
        <time>2016-10-15T08:26:51Z</time>
      </trkpt>
      <trkpt lat="42.557551000" lon="-2.433779000">
        <ele>560.80</ele>
        <time>2016-10-15T08:26:52Z</time>
      </trkpt>
      <trkpt lat="42.557505000" lon="-2.433754000">
        <ele>560.70</ele>
        <time>2016-10-15T08:26:53Z</time>
      </trkpt>
      <trkpt lat="42.557457000" lon="-2.433730000">
        <ele>560.60</ele>
        <time>2016-10-15T08:26:54Z</time>
      </trkpt>
      <trkpt lat="42.557409000" lon="-2.433712000">
        <ele>560.60</ele>
        <time>2016-10-15T08:26:55Z</time>
      </trkpt>
      <trkpt lat="42.557359000" lon="-2.433693000">
        <ele>560.30</ele>
        <time>2016-10-15T08:26:56Z</time>
      </trkpt>
      <trkpt lat="42.557311000" lon="-2.433677000">
        <ele>560.00</ele>
        <time>2016-10-15T08:26:57Z</time>
      </trkpt>
      <trkpt lat="42.557269000" lon="-2.433663000">
        <ele>559.90</ele>
        <time>2016-10-15T08:26:58Z</time>
      </trkpt>
      <trkpt lat="42.557230000" lon="-2.433649000">
        <ele>559.70</ele>
        <time>2016-10-15T08:26:59Z</time>
      </trkpt>
      <trkpt lat="42.557193000" lon="-2.433635000">
        <ele>559.50</ele>
        <time>2016-10-15T08:27:00Z</time>
      </trkpt>
      <trkpt lat="42.557159000" lon="-2.433622000">
        <ele>559.30</ele>
        <time>2016-10-15T08:27:01Z</time>
      </trkpt>
      <trkpt lat="42.557125000" lon="-2.433609000">
        <ele>559.40</ele>
        <time>2016-10-15T08:27:02Z</time>
      </trkpt>
      <trkpt lat="42.557090000" lon="-2.433597000">
        <ele>559.50</ele>
        <time>2016-10-15T08:27:03Z</time>
      </trkpt>
      <trkpt lat="42.557054000" lon="-2.433580000">
        <ele>559.50</ele>
        <time>2016-10-15T08:27:04Z</time>
      </trkpt>
      <trkpt lat="42.557020000" lon="-2.433565000">
        <ele>559.50</ele>
        <time>2016-10-15T08:27:05Z</time>
      </trkpt>
      <trkpt lat="42.556985000" lon="-2.433547000">
        <ele>559.60</ele>
        <time>2016-10-15T08:27:06Z</time>
      </trkpt>
      <trkpt lat="42.556950000" lon="-2.433527000">
        <ele>559.60</ele>
        <time>2016-10-15T08:27:07Z</time>
      </trkpt>
      <trkpt lat="42.556912000" lon="-2.433502000">
        <ele>559.60</ele>
        <time>2016-10-15T08:27:08Z</time>
      </trkpt>
      <trkpt lat="42.556873000" lon="-2.433479000">
        <ele>559.60</ele>
        <time>2016-10-15T08:27:09Z</time>
      </trkpt>
      <trkpt lat="42.556830000" lon="-2.433453000">
        <ele>559.60</ele>
        <time>2016-10-15T08:27:10Z</time>
      </trkpt>
      <trkpt lat="42.556783000" lon="-2.433421000">
        <ele>559.70</ele>
        <time>2016-10-15T08:27:11Z</time>
      </trkpt>
      <trkpt lat="42.556730000" lon="-2.433392000">
        <ele>559.70</ele>
        <time>2016-10-15T08:27:12Z</time>
      </trkpt>
      <trkpt lat="42.556674000" lon="-2.433361000">
        <ele>559.70</ele>
        <time>2016-10-15T08:27:13Z</time>
      </trkpt>
      <trkpt lat="42.556616000" lon="-2.433327000">
        <ele>559.40</ele>
        <time>2016-10-15T08:27:14Z</time>
      </trkpt>
      <trkpt lat="42.556555000" lon="-2.433298000">
        <ele>559.20</ele>
        <time>2016-10-15T08:27:15Z</time>
      </trkpt>
      <trkpt lat="42.556492000" lon="-2.433268000">
        <ele>558.70</ele>
        <time>2016-10-15T08:27:16Z</time>
      </trkpt>
      <trkpt lat="42.556427000" lon="-2.433236000">
        <ele>558.40</ele>
        <time>2016-10-15T08:27:17Z</time>
      </trkpt>
      <trkpt lat="42.556361000" lon="-2.433202000">
        <ele>557.90</ele>
        <time>2016-10-15T08:27:18Z</time>
      </trkpt>
      <trkpt lat="42.556222000" lon="-2.433117000">
        <ele>557.10</ele>
        <time>2016-10-15T08:27:20Z</time>
      </trkpt>
      <trkpt lat="42.556151000" lon="-2.433066000">
        <ele>556.80</ele>
        <time>2016-10-15T08:27:21Z</time>
      </trkpt>
      <trkpt lat="42.556072000" lon="-2.433026000">
        <ele>556.40</ele>
        <time>2016-10-15T08:27:22Z</time>
      </trkpt>
      <trkpt lat="42.555993000" lon="-2.433003000">
        <ele>556.10</ele>
        <time>2016-10-15T08:27:23Z</time>
      </trkpt>
      <trkpt lat="42.555912000" lon="-2.433007000">
        <ele>555.50</ele>
        <time>2016-10-15T08:27:24Z</time>
      </trkpt>
      <trkpt lat="42.555837000" lon="-2.433031000">
        <ele>555.00</ele>
        <time>2016-10-15T08:27:25Z</time>
      </trkpt>
      <trkpt lat="42.555774000" lon="-2.433073000">
        <ele>554.40</ele>
        <time>2016-10-15T08:27:26Z</time>
      </trkpt>
      <trkpt lat="42.555722000" lon="-2.433124000">
        <ele>553.90</ele>
        <time>2016-10-15T08:27:27Z</time>
      </trkpt>
      <trkpt lat="42.555679000" lon="-2.433176000">
        <ele>553.60</ele>
        <time>2016-10-15T08:27:28Z</time>
      </trkpt>
      <trkpt lat="42.555645000" lon="-2.433217000">
        <ele>553.30</ele>
        <time>2016-10-15T08:27:29Z</time>
      </trkpt>
      <trkpt lat="42.555615000" lon="-2.433257000">
        <ele>553.30</ele>
        <time>2016-10-15T08:27:30Z</time>
      </trkpt>
      <trkpt lat="42.555582000" lon="-2.433295000">
        <ele>553.30</ele>
        <time>2016-10-15T08:27:31Z</time>
      </trkpt>
      <trkpt lat="42.555553000" lon="-2.433332000">
        <ele>553.30</ele>
        <time>2016-10-15T08:27:32Z</time>
      </trkpt>
      <trkpt lat="42.555522000" lon="-2.433368000">
        <ele>553.30</ele>
        <time>2016-10-15T08:27:33Z</time>
      </trkpt>
      <trkpt lat="42.555489000" lon="-2.433402000">
        <ele>553.70</ele>
        <time>2016-10-15T08:27:34Z</time>
      </trkpt>
      <trkpt lat="42.555454000" lon="-2.433432000">
        <ele>554.00</ele>
        <time>2016-10-15T08:27:35Z</time>
      </trkpt>
      <trkpt lat="42.555413000" lon="-2.433464000">
        <ele>554.20</ele>
        <time>2016-10-15T08:27:36Z</time>
      </trkpt>
      <trkpt lat="42.555370000" lon="-2.433494000">
        <ele>554.30</ele>
        <time>2016-10-15T08:27:37Z</time>
      </trkpt>
      <trkpt lat="42.555321000" lon="-2.433514000">
        <ele>554.40</ele>
        <time>2016-10-15T08:27:38Z</time>
      </trkpt>
      <trkpt lat="42.555270000" lon="-2.433523000">
        <ele>554.50</ele>
        <time>2016-10-15T08:27:39Z</time>
      </trkpt>
      <trkpt lat="42.555210000" lon="-2.433531000">
        <ele>554.50</ele>
        <time>2016-10-15T08:27:40Z</time>
      </trkpt>
      <trkpt lat="42.555150000" lon="-2.433535000">
        <ele>554.40</ele>
        <time>2016-10-15T08:27:41Z</time>
      </trkpt>
      <trkpt lat="42.555088000" lon="-2.433535000">
        <ele>554.40</ele>
        <time>2016-10-15T08:27:42Z</time>
      </trkpt>
      <trkpt lat="42.555022000" lon="-2.433538000">
        <ele>554.30</ele>
        <time>2016-10-15T08:27:43Z</time>
      </trkpt>
      <trkpt lat="42.554956000" lon="-2.433540000">
        <ele>554.20</ele>
        <time>2016-10-15T08:27:44Z</time>
      </trkpt>
      <trkpt lat="42.554888000" lon="-2.433541000">
        <ele>554.20</ele>
        <time>2016-10-15T08:27:45Z</time>
      </trkpt>
      <trkpt lat="42.554821000" lon="-2.433548000">
        <ele>554.00</ele>
        <time>2016-10-15T08:27:46Z</time>
      </trkpt>
      <trkpt lat="42.554754000" lon="-2.433557000">
        <ele>553.80</ele>
        <time>2016-10-15T08:27:47Z</time>
      </trkpt>
      <trkpt lat="42.554686000" lon="-2.433562000">
        <ele>553.50</ele>
        <time>2016-10-15T08:27:48Z</time>
      </trkpt>
      <trkpt lat="42.554619000" lon="-2.433571000">
        <ele>553.20</ele>
        <time>2016-10-15T08:27:49Z</time>
      </trkpt>
      <trkpt lat="42.554554000" lon="-2.433578000">
        <ele>552.90</ele>
        <time>2016-10-15T08:27:50Z</time>
      </trkpt>
      <trkpt lat="42.554493000" lon="-2.433590000">
        <ele>552.60</ele>
        <time>2016-10-15T08:27:51Z</time>
      </trkpt>
      <trkpt lat="42.554432000" lon="-2.433598000">
        <ele>552.40</ele>
        <time>2016-10-15T08:27:52Z</time>
      </trkpt>
      <trkpt lat="42.554372000" lon="-2.433608000">
        <ele>552.20</ele>
        <time>2016-10-15T08:27:53Z</time>
      </trkpt>
      <trkpt lat="42.554315000" lon="-2.433625000">
        <ele>552.30</ele>
        <time>2016-10-15T08:27:54Z</time>
      </trkpt>
      <trkpt lat="42.554263000" lon="-2.433640000">
        <ele>552.50</ele>
        <time>2016-10-15T08:27:55Z</time>
      </trkpt>
      <trkpt lat="42.554216000" lon="-2.433660000">
        <ele>552.50</ele>
        <time>2016-10-15T08:27:56Z</time>
      </trkpt>
      <trkpt lat="42.554170000" lon="-2.433680000">
        <ele>552.60</ele>
        <time>2016-10-15T08:27:57Z</time>
      </trkpt>
      <trkpt lat="42.554125000" lon="-2.433702000">
        <ele>552.40</ele>
        <time>2016-10-15T08:27:58Z</time>
      </trkpt>
      <trkpt lat="42.554080000" lon="-2.433721000">
        <ele>552.30</ele>
        <time>2016-10-15T08:27:59Z</time>
      </trkpt>
      <trkpt lat="42.554037000" lon="-2.433740000">
        <ele>552.20</ele>
        <time>2016-10-15T08:28:00Z</time>
      </trkpt>
      <trkpt lat="42.553995000" lon="-2.433760000">
        <ele>552.20</ele>
        <time>2016-10-15T08:28:01Z</time>
      </trkpt>
      <trkpt lat="42.553953000" lon="-2.433780000">
        <ele>552.20</ele>
        <time>2016-10-15T08:28:02Z</time>
      </trkpt>
      <trkpt lat="42.553911000" lon="-2.433803000">
        <ele>552.20</ele>
        <time>2016-10-15T08:28:03Z</time>
      </trkpt>
      <trkpt lat="42.553870000" lon="-2.433824000">
        <ele>552.20</ele>
        <time>2016-10-15T08:28:04Z</time>
      </trkpt>
      <trkpt lat="42.553830000" lon="-2.433849000">
        <ele>552.20</ele>
        <time>2016-10-15T08:28:05Z</time>
      </trkpt>
      <trkpt lat="42.553788000" lon="-2.433876000">
        <ele>552.10</ele>
        <time>2016-10-15T08:28:06Z</time>
      </trkpt>
      <trkpt lat="42.553740000" lon="-2.433896000">
        <ele>552.00</ele>
        <time>2016-10-15T08:28:07Z</time>
      </trkpt>
      <trkpt lat="42.553691000" lon="-2.433912000">
        <ele>551.70</ele>
        <time>2016-10-15T08:28:08Z</time>
      </trkpt>
      <trkpt lat="42.553641000" lon="-2.433932000">
        <ele>551.50</ele>
        <time>2016-10-15T08:28:09Z</time>
      </trkpt>
      <trkpt lat="42.553590000" lon="-2.433945000">
        <ele>551.50</ele>
        <time>2016-10-15T08:28:10Z</time>
      </trkpt>
      <trkpt lat="42.553537000" lon="-2.433958000">
        <ele>551.50</ele>
        <time>2016-10-15T08:28:11Z</time>
      </trkpt>
      <trkpt lat="42.553481000" lon="-2.433971000">
        <ele>551.40</ele>
        <time>2016-10-15T08:28:12Z</time>
      </trkpt>
      <trkpt lat="42.553423000" lon="-2.433983000">
        <ele>551.30</ele>
        <time>2016-10-15T08:28:13Z</time>
      </trkpt>
      <trkpt lat="42.553364000" lon="-2.433992000">
        <ele>551.20</ele>
        <time>2016-10-15T08:28:14Z</time>
      </trkpt>
      <trkpt lat="42.553301000" lon="-2.433997000">
        <ele>551.10</ele>
        <time>2016-10-15T08:28:15Z</time>
      </trkpt>
      <trkpt lat="42.553233000" lon="-2.434001000">
        <ele>550.90</ele>
        <time>2016-10-15T08:28:16Z</time>
      </trkpt>
      <trkpt lat="42.553161000" lon="-2.434004000">
        <ele>550.70</ele>
        <time>2016-10-15T08:28:17Z</time>
      </trkpt>
      <trkpt lat="42.553086000" lon="-2.434004000">
        <ele>550.30</ele>
        <time>2016-10-15T08:28:18Z</time>
      </trkpt>
      <trkpt lat="42.553009000" lon="-2.434003000">
        <ele>550.00</ele>
        <time>2016-10-15T08:28:19Z</time>
      </trkpt>
      <trkpt lat="42.552932000" lon="-2.434006000">
        <ele>549.20</ele>
        <time>2016-10-15T08:28:20Z</time>
      </trkpt>
      <trkpt lat="42.552762000" lon="-2.434015000">
        <ele>548.10</ele>
        <time>2016-10-15T08:28:22Z</time>
      </trkpt>
      <trkpt lat="42.552676000" lon="-2.434018000">
        <ele>547.70</ele>
        <time>2016-10-15T08:28:23Z</time>
      </trkpt>
      <trkpt lat="42.552587000" lon="-2.434019000">
        <ele>547.30</ele>
        <time>2016-10-15T08:28:24Z</time>
      </trkpt>
      <trkpt lat="42.552503000" lon="-2.434020000">
        <ele>547.00</ele>
        <time>2016-10-15T08:28:25Z</time>
      </trkpt>
      <trkpt lat="42.552418000" lon="-2.434012000">
        <ele>546.70</ele>
        <time>2016-10-15T08:28:26Z</time>
      </trkpt>
      <trkpt lat="42.552334000" lon="-2.433992000">
        <ele>546.60</ele>
        <time>2016-10-15T08:28:27Z</time>
      </trkpt>
      <trkpt lat="42.552250000" lon="-2.433969000">
        <ele>545.80</ele>
        <time>2016-10-15T08:28:28Z</time>
      </trkpt>
      <trkpt lat="42.552169000" lon="-2.433932000">
        <ele>545.30</ele>
        <time>2016-10-15T08:28:29Z</time>
      </trkpt>
      <trkpt lat="42.552091000" lon="-2.433884000">
        <ele>544.70</ele>
        <time>2016-10-15T08:28:30Z</time>
      </trkpt>
      <trkpt lat="42.552012000" lon="-2.433826000">
        <ele>544.20</ele>
        <time>2016-10-15T08:28:31Z</time>
      </trkpt>
      <trkpt lat="42.551931000" lon="-2.433767000">
        <ele>543.30</ele>
        <time>2016-10-15T08:28:32Z</time>
      </trkpt>
      <trkpt lat="42.551855000" lon="-2.433728000">
        <ele>542.60</ele>
        <time>2016-10-15T08:28:33Z</time>
      </trkpt>
      <trkpt lat="42.551782000" lon="-2.433707000">
        <ele>542.10</ele>
        <time>2016-10-15T08:28:34Z</time>
      </trkpt>
      <trkpt lat="42.551708000" lon="-2.433714000">
        <ele>541.70</ele>
        <time>2016-10-15T08:28:35Z</time>
      </trkpt>
      <trkpt lat="42.551639000" lon="-2.433747000">
        <ele>541.10</ele>
        <time>2016-10-15T08:28:36Z</time>
      </trkpt>
      <trkpt lat="42.551574000" lon="-2.433788000">
        <ele>540.60</ele>
        <time>2016-10-15T08:28:37Z</time>
      </trkpt>
      <trkpt lat="42.551507000" lon="-2.433830000">
        <ele>540.20</ele>
        <time>2016-10-15T08:28:38Z</time>
      </trkpt>
      <trkpt lat="42.551437000" lon="-2.433872000">
        <ele>540.00</ele>
        <time>2016-10-15T08:28:39Z</time>
      </trkpt>
      <trkpt lat="42.551361000" lon="-2.433911000">
        <ele>539.60</ele>
        <time>2016-10-15T08:28:40Z</time>
      </trkpt>
      <trkpt lat="42.551281000" lon="-2.433949000">
        <ele>539.40</ele>
        <time>2016-10-15T08:28:41Z</time>
      </trkpt>
      <trkpt lat="42.551196000" lon="-2.433989000">
        <ele>538.80</ele>
        <time>2016-10-15T08:28:42Z</time>
      </trkpt>
      <trkpt lat="42.551108000" lon="-2.434023000">
        <ele>538.40</ele>
        <time>2016-10-15T08:28:43Z</time>
      </trkpt>
      <trkpt lat="42.551026000" lon="-2.434053000">
        <ele>538.00</ele>
        <time>2016-10-15T08:28:44Z</time>
      </trkpt>
      <trkpt lat="42.550951000" lon="-2.434077000">
        <ele>537.60</ele>
        <time>2016-10-15T08:28:45Z</time>
      </trkpt>
      <trkpt lat="42.550877000" lon="-2.434091000">
        <ele>537.00</ele>
        <time>2016-10-15T08:28:46Z</time>
      </trkpt>
      <trkpt lat="42.550802000" lon="-2.434090000">
        <ele>536.50</ele>
        <time>2016-10-15T08:28:47Z</time>
      </trkpt>
      <trkpt lat="42.550722000" lon="-2.434070000">
        <ele>535.60</ele>
        <time>2016-10-15T08:28:48Z</time>
      </trkpt>
      <trkpt lat="42.550641000" lon="-2.434042000">
        <ele>535.00</ele>
        <time>2016-10-15T08:28:49Z</time>
      </trkpt>
      <trkpt lat="42.550560000" lon="-2.434016000">
        <ele>534.50</ele>
        <time>2016-10-15T08:28:50Z</time>
      </trkpt>
      <trkpt lat="42.550480000" lon="-2.433988000">
        <ele>534.10</ele>
        <time>2016-10-15T08:28:51Z</time>
      </trkpt>
      <trkpt lat="42.550400000" lon="-2.433957000">
        <ele>533.70</ele>
        <time>2016-10-15T08:28:52Z</time>
      </trkpt>
      <trkpt lat="42.550323000" lon="-2.433925000">
        <ele>533.40</ele>
        <time>2016-10-15T08:28:53Z</time>
      </trkpt>
      <trkpt lat="42.550246000" lon="-2.433893000">
        <ele>532.60</ele>
        <time>2016-10-15T08:28:54Z</time>
      </trkpt>
      <trkpt lat="42.550172000" lon="-2.433857000">
        <ele>532.00</ele>
        <time>2016-10-15T08:28:55Z</time>
      </trkpt>
      <trkpt lat="42.550098000" lon="-2.433815000">
        <ele>531.50</ele>
        <time>2016-10-15T08:28:56Z</time>
      </trkpt>
      <trkpt lat="42.550023000" lon="-2.433776000">
        <ele>531.20</ele>
        <time>2016-10-15T08:28:57Z</time>
      </trkpt>
      <trkpt lat="42.549950000" lon="-2.433731000">
        <ele>531.10</ele>
        <time>2016-10-15T08:28:58Z</time>
      </trkpt>
      <trkpt lat="42.549878000" lon="-2.433681000">
        <ele>531.10</ele>
        <time>2016-10-15T08:28:59Z</time>
      </trkpt>
      <trkpt lat="42.549806000" lon="-2.433629000">
        <ele>531.00</ele>
        <time>2016-10-15T08:29:00Z</time>
      </trkpt>
      <trkpt lat="42.549735000" lon="-2.433575000">
        <ele>531.00</ele>
        <time>2016-10-15T08:29:01Z</time>
      </trkpt>
      <trkpt lat="42.549666000" lon="-2.433520000">
        <ele>531.00</ele>
        <time>2016-10-15T08:29:02Z</time>
      </trkpt>
      <trkpt lat="42.549598000" lon="-2.433465000">
        <ele>531.00</ele>
        <time>2016-10-15T08:29:03Z</time>
      </trkpt>
      <trkpt lat="42.549531000" lon="-2.433409000">
        <ele>530.90</ele>
        <time>2016-10-15T08:29:04Z</time>
      </trkpt>
      <trkpt lat="42.549466000" lon="-2.433348000">
        <ele>530.70</ele>
        <time>2016-10-15T08:29:05Z</time>
      </trkpt>
      <trkpt lat="42.549404000" lon="-2.433283000">
        <ele>530.70</ele>
        <time>2016-10-15T08:29:06Z</time>
      </trkpt>
      <trkpt lat="42.549345000" lon="-2.433216000">
        <ele>530.60</ele>
        <time>2016-10-15T08:29:07Z</time>
      </trkpt>
      <trkpt lat="42.549287000" lon="-2.433148000">
        <ele>530.40</ele>
        <time>2016-10-15T08:29:08Z</time>
      </trkpt>
      <trkpt lat="42.549231000" lon="-2.433080000">
        <ele>530.20</ele>
        <time>2016-10-15T08:29:09Z</time>
      </trkpt>
      <trkpt lat="42.549175000" lon="-2.433010000">
        <ele>530.00</ele>
        <time>2016-10-15T08:29:10Z</time>
      </trkpt>
      <trkpt lat="42.549122000" lon="-2.432939000">
        <ele>529.90</ele>
        <time>2016-10-15T08:29:11Z</time>
      </trkpt>
      <trkpt lat="42.549069000" lon="-2.432869000">
        <ele>530.00</ele>
        <time>2016-10-15T08:29:12Z</time>
      </trkpt>
      <trkpt lat="42.549015000" lon="-2.432802000">
        <ele>530.00</ele>
        <time>2016-10-15T08:29:13Z</time>
      </trkpt>
      <trkpt lat="42.548963000" lon="-2.432737000">
        <ele>530.10</ele>
        <time>2016-10-15T08:29:14Z</time>
      </trkpt>
      <trkpt lat="42.548908000" lon="-2.432672000">
        <ele>530.10</ele>
        <time>2016-10-15T08:29:15Z</time>
      </trkpt>
      <trkpt lat="42.548854000" lon="-2.432608000">
        <ele>530.10</ele>
        <time>2016-10-15T08:29:16Z</time>
      </trkpt>
      <trkpt lat="42.548801000" lon="-2.432544000">
        <ele>530.10</ele>
        <time>2016-10-15T08:29:17Z</time>
      </trkpt>
      <trkpt lat="42.548747000" lon="-2.432479000">
        <ele>530.20</ele>
        <time>2016-10-15T08:29:18Z</time>
      </trkpt>
      <trkpt lat="42.548692000" lon="-2.432416000">
        <ele>530.30</ele>
        <time>2016-10-15T08:29:19Z</time>
      </trkpt>
      <trkpt lat="42.548635000" lon="-2.432353000">
        <ele>530.30</ele>
        <time>2016-10-15T08:29:20Z</time>
      </trkpt>
      <trkpt lat="42.548575000" lon="-2.432293000">
        <ele>530.30</ele>
        <time>2016-10-15T08:29:21Z</time>
      </trkpt>
      <trkpt lat="42.548513000" lon="-2.432232000">
        <ele>530.30</ele>
        <time>2016-10-15T08:29:22Z</time>
      </trkpt>
      <trkpt lat="42.548378000" lon="-2.432124000">
        <ele>529.60</ele>
        <time>2016-10-15T08:29:24Z</time>
      </trkpt>
      <trkpt lat="42.548307000" lon="-2.432075000">
        <ele>529.20</ele>
        <time>2016-10-15T08:29:25Z</time>
      </trkpt>
      <trkpt lat="42.548239000" lon="-2.432014000">
        <ele>528.70</ele>
        <time>2016-10-15T08:29:26Z</time>
      </trkpt>
      <trkpt lat="42.548182000" lon="-2.431942000">
        <ele>528.40</ele>
        <time>2016-10-15T08:29:27Z</time>
      </trkpt>
      <trkpt lat="42.548127000" lon="-2.431858000">
        <ele>527.90</ele>
        <time>2016-10-15T08:29:28Z</time>
      </trkpt>
      <trkpt lat="42.548068000" lon="-2.431774000">
        <ele>527.50</ele>
        <time>2016-10-15T08:29:29Z</time>
      </trkpt>
      <trkpt lat="42.548004000" lon="-2.431696000">
        <ele>527.10</ele>
        <time>2016-10-15T08:29:30Z</time>
      </trkpt>
      <trkpt lat="42.547936000" lon="-2.431631000">
        <ele>526.80</ele>
        <time>2016-10-15T08:29:31Z</time>
      </trkpt>
      <trkpt lat="42.547864000" lon="-2.431573000">
        <ele>526.60</ele>
        <time>2016-10-15T08:29:32Z</time>
      </trkpt>
      <trkpt lat="42.547789000" lon="-2.431518000">
        <ele>526.40</ele>
        <time>2016-10-15T08:29:33Z</time>
      </trkpt>
      <trkpt lat="42.547715000" lon="-2.431466000">
        <ele>526.10</ele>
        <time>2016-10-15T08:29:34Z</time>
      </trkpt>
      <trkpt lat="42.547637000" lon="-2.431424000">
        <ele>525.90</ele>
        <time>2016-10-15T08:29:35Z</time>
      </trkpt>
      <trkpt lat="42.547560000" lon="-2.431379000">
        <ele>525.80</ele>
        <time>2016-10-15T08:29:36Z</time>
      </trkpt>
      <trkpt lat="42.547486000" lon="-2.431338000">
        <ele>525.60</ele>
        <time>2016-10-15T08:29:37Z</time>
      </trkpt>
      <trkpt lat="42.547416000" lon="-2.431300000">
        <ele>525.60</ele>
        <time>2016-10-15T08:29:38Z</time>
      </trkpt>
      <trkpt lat="42.547348000" lon="-2.431263000">
        <ele>525.60</ele>
        <time>2016-10-15T08:29:39Z</time>
      </trkpt>
      <trkpt lat="42.547284000" lon="-2.431220000">
        <ele>525.70</ele>
        <time>2016-10-15T08:29:40Z</time>
      </trkpt>
      <trkpt lat="42.547225000" lon="-2.431175000">
        <ele>525.80</ele>
        <time>2016-10-15T08:29:41Z</time>
      </trkpt>
      <trkpt lat="42.547170000" lon="-2.431127000">
        <ele>525.90</ele>
        <time>2016-10-15T08:29:42Z</time>
      </trkpt>
      <trkpt lat="42.547117000" lon="-2.431077000">
        <ele>526.00</ele>
        <time>2016-10-15T08:29:43Z</time>
      </trkpt>
      <trkpt lat="42.547066000" lon="-2.431025000">
        <ele>526.00</ele>
        <time>2016-10-15T08:29:44Z</time>
      </trkpt>
      <trkpt lat="42.547013000" lon="-2.430971000">
        <ele>526.00</ele>
        <time>2016-10-15T08:29:45Z</time>
      </trkpt>
      <trkpt lat="42.546961000" lon="-2.430919000">
        <ele>525.90</ele>
        <time>2016-10-15T08:29:46Z</time>
      </trkpt>
      <trkpt lat="42.546906000" lon="-2.430865000">
        <ele>525.90</ele>
        <time>2016-10-15T08:29:47Z</time>
      </trkpt>
      <trkpt lat="42.546848000" lon="-2.430810000">
        <ele>525.80</ele>
        <time>2016-10-15T08:29:48Z</time>
      </trkpt>
      <trkpt lat="42.546789000" lon="-2.430754000">
        <ele>525.80</ele>
        <time>2016-10-15T08:29:49Z</time>
      </trkpt>
      <trkpt lat="42.546735000" lon="-2.430695000">
        <ele>525.80</ele>
        <time>2016-10-15T08:29:50Z</time>
      </trkpt>
      <trkpt lat="42.546678000" lon="-2.430632000">
        <ele>525.80</ele>
        <time>2016-10-15T08:29:51Z</time>
      </trkpt>
      <trkpt lat="42.546619000" lon="-2.430565000">
        <ele>525.70</ele>
        <time>2016-10-15T08:29:52Z</time>
      </trkpt>
      <trkpt lat="42.546559000" lon="-2.430495000">
        <ele>525.70</ele>
        <time>2016-10-15T08:29:53Z</time>
      </trkpt>
      <trkpt lat="42.546496000" lon="-2.430424000">
        <ele>525.70</ele>
        <time>2016-10-15T08:29:54Z</time>
      </trkpt>
      <trkpt lat="42.546434000" lon="-2.430349000">
        <ele>525.70</ele>
        <time>2016-10-15T08:29:55Z</time>
      </trkpt>
      <trkpt lat="42.546372000" lon="-2.430268000">
        <ele>525.70</ele>
        <time>2016-10-15T08:29:56Z</time>
      </trkpt>
      <trkpt lat="42.546308000" lon="-2.430191000">
        <ele>525.70</ele>
        <time>2016-10-15T08:29:57Z</time>
      </trkpt>
      <trkpt lat="42.546243000" lon="-2.430116000">
        <ele>524.90</ele>
        <time>2016-10-15T08:29:58Z</time>
      </trkpt>
      <trkpt lat="42.546174000" lon="-2.430042000">
        <ele>524.30</ele>
        <time>2016-10-15T08:29:59Z</time>
      </trkpt>
      <trkpt lat="42.546108000" lon="-2.429972000">
        <ele>523.50</ele>
        <time>2016-10-15T08:30:00Z</time>
      </trkpt>
      <trkpt lat="42.546042000" lon="-2.429903000">
        <ele>523.00</ele>
        <time>2016-10-15T08:30:01Z</time>
      </trkpt>
      <trkpt lat="42.545976000" lon="-2.429838000">
        <ele>522.50</ele>
        <time>2016-10-15T08:30:02Z</time>
      </trkpt>
      <trkpt lat="42.545909000" lon="-2.429774000">
        <ele>522.10</ele>
        <time>2016-10-15T08:30:03Z</time>
      </trkpt>
      <trkpt lat="42.545841000" lon="-2.429712000">
        <ele>521.90</ele>
        <time>2016-10-15T08:30:04Z</time>
      </trkpt>
      <trkpt lat="42.545773000" lon="-2.429656000">
        <ele>521.80</ele>
        <time>2016-10-15T08:30:05Z</time>
      </trkpt>
      <trkpt lat="42.545704000" lon="-2.429603000">
        <ele>521.60</ele>
        <time>2016-10-15T08:30:06Z</time>
      </trkpt>
      <trkpt lat="42.545633000" lon="-2.429559000">
        <ele>521.50</ele>
        <time>2016-10-15T08:30:07Z</time>
      </trkpt>
      <trkpt lat="42.545562000" lon="-2.429520000">
        <ele>521.40</ele>
        <time>2016-10-15T08:30:08Z</time>
      </trkpt>
      <trkpt lat="42.545486000" lon="-2.429495000">
        <ele>521.30</ele>
        <time>2016-10-15T08:30:09Z</time>
      </trkpt>
      <trkpt lat="42.545407000" lon="-2.429477000">
        <ele>521.10</ele>
        <time>2016-10-15T08:30:10Z</time>
      </trkpt>
      <trkpt lat="42.545327000" lon="-2.429465000">
        <ele>521.00</ele>
        <time>2016-10-15T08:30:11Z</time>
      </trkpt>
      <trkpt lat="42.545249000" lon="-2.429460000">
        <ele>520.70</ele>
        <time>2016-10-15T08:30:12Z</time>
      </trkpt>
      <trkpt lat="42.545170000" lon="-2.429454000">
        <ele>520.40</ele>
        <time>2016-10-15T08:30:13Z</time>
      </trkpt>
      <trkpt lat="42.545093000" lon="-2.429439000">
        <ele>520.10</ele>
        <time>2016-10-15T08:30:14Z</time>
      </trkpt>
      <trkpt lat="42.545017000" lon="-2.429415000">
        <ele>519.90</ele>
        <time>2016-10-15T08:30:15Z</time>
      </trkpt>
      <trkpt lat="42.544941000" lon="-2.429393000">
        <ele>519.70</ele>
        <time>2016-10-15T08:30:16Z</time>
      </trkpt>
      <trkpt lat="42.544867000" lon="-2.429371000">
        <ele>519.50</ele>
        <time>2016-10-15T08:30:17Z</time>
      </trkpt>
      <trkpt lat="42.544793000" lon="-2.429351000">
        <ele>519.20</ele>
        <time>2016-10-15T08:30:18Z</time>
      </trkpt>
      <trkpt lat="42.544720000" lon="-2.429333000">
        <ele>518.90</ele>
        <time>2016-10-15T08:30:19Z</time>
      </trkpt>
      <trkpt lat="42.544651000" lon="-2.429310000">
        <ele>518.90</ele>
        <time>2016-10-15T08:30:20Z</time>
      </trkpt>
      <trkpt lat="42.544580000" lon="-2.429295000">
        <ele>518.90</ele>
        <time>2016-10-15T08:30:21Z</time>
      </trkpt>
      <trkpt lat="42.544509000" lon="-2.429273000">
        <ele>518.90</ele>
        <time>2016-10-15T08:30:22Z</time>
      </trkpt>
      <trkpt lat="42.544438000" lon="-2.429251000">
        <ele>519.00</ele>
        <time>2016-10-15T08:30:23Z</time>
      </trkpt>
      <trkpt lat="42.544367000" lon="-2.429227000">
        <ele>519.00</ele>
        <time>2016-10-15T08:30:24Z</time>
      </trkpt>
      <trkpt lat="42.544230000" lon="-2.429169000">
        <ele>519.00</ele>
        <time>2016-10-15T08:30:26Z</time>
      </trkpt>
      <trkpt lat="42.544165000" lon="-2.429132000">
        <ele>519.00</ele>
        <time>2016-10-15T08:30:27Z</time>
      </trkpt>
      <trkpt lat="42.544102000" lon="-2.429094000">
        <ele>518.70</ele>
        <time>2016-10-15T08:30:28Z</time>
      </trkpt>
      <trkpt lat="42.544041000" lon="-2.429056000">
        <ele>518.50</ele>
        <time>2016-10-15T08:30:29Z</time>
      </trkpt>
      <trkpt lat="42.543981000" lon="-2.429018000">
        <ele>518.60</ele>
        <time>2016-10-15T08:30:30Z</time>
      </trkpt>
      <trkpt lat="42.543925000" lon="-2.428979000">
        <ele>518.60</ele>
        <time>2016-10-15T08:30:31Z</time>
      </trkpt>
      <trkpt lat="42.543868000" lon="-2.428939000">
        <ele>518.60</ele>
        <time>2016-10-15T08:30:32Z</time>
      </trkpt>
      <trkpt lat="42.543810000" lon="-2.428899000">
        <ele>518.60</ele>
        <time>2016-10-15T08:30:33Z</time>
      </trkpt>
      <trkpt lat="42.543755000" lon="-2.428855000">
        <ele>518.70</ele>
        <time>2016-10-15T08:30:34Z</time>
      </trkpt>
      <trkpt lat="42.543699000" lon="-2.428811000">
        <ele>518.70</ele>
        <time>2016-10-15T08:30:35Z</time>
      </trkpt>
      <trkpt lat="42.543642000" lon="-2.428766000">
        <ele>518.40</ele>
        <time>2016-10-15T08:30:36Z</time>
      </trkpt>
      <trkpt lat="42.543586000" lon="-2.428720000">
        <ele>518.20</ele>
        <time>2016-10-15T08:30:37Z</time>
      </trkpt>
      <trkpt lat="42.543530000" lon="-2.428671000">
        <ele>518.10</ele>
        <time>2016-10-15T08:30:38Z</time>
      </trkpt>
      <trkpt lat="42.543473000" lon="-2.428617000">
        <ele>518.00</ele>
        <time>2016-10-15T08:30:39Z</time>
      </trkpt>
      <trkpt lat="42.543416000" lon="-2.428564000">
        <ele>517.90</ele>
        <time>2016-10-15T08:30:40Z</time>
      </trkpt>
      <trkpt lat="42.543358000" lon="-2.428509000">
        <ele>517.80</ele>
        <time>2016-10-15T08:30:41Z</time>
      </trkpt>
      <trkpt lat="42.543300000" lon="-2.428455000">
        <ele>517.50</ele>
        <time>2016-10-15T08:30:42Z</time>
      </trkpt>
      <trkpt lat="42.543239000" lon="-2.428401000">
        <ele>517.30</ele>
        <time>2016-10-15T08:30:43Z</time>
      </trkpt>
      <trkpt lat="42.543178000" lon="-2.428352000">
        <ele>517.00</ele>
        <time>2016-10-15T08:30:44Z</time>
      </trkpt>
      <trkpt lat="42.543119000" lon="-2.428309000">
        <ele>516.80</ele>
        <time>2016-10-15T08:30:45Z</time>
      </trkpt>
      <trkpt lat="42.543063000" lon="-2.428264000">
        <ele>516.60</ele>
        <time>2016-10-15T08:30:46Z</time>
      </trkpt>
      <trkpt lat="42.543009000" lon="-2.428217000">
        <ele>516.50</ele>
        <time>2016-10-15T08:30:47Z</time>
      </trkpt>
      <trkpt lat="42.542955000" lon="-2.428173000">
        <ele>516.60</ele>
        <time>2016-10-15T08:30:48Z</time>
      </trkpt>
      <trkpt lat="42.542902000" lon="-2.428133000">
        <ele>516.60</ele>
        <time>2016-10-15T08:30:49Z</time>
      </trkpt>
      <trkpt lat="42.542850000" lon="-2.428093000">
        <ele>516.80</ele>
        <time>2016-10-15T08:30:50Z</time>
      </trkpt>
      <trkpt lat="42.542799000" lon="-2.428050000">
        <ele>516.90</ele>
        <time>2016-10-15T08:30:51Z</time>
      </trkpt>
      <trkpt lat="42.542748000" lon="-2.428009000">
        <ele>517.20</ele>
        <time>2016-10-15T08:30:52Z</time>
      </trkpt>
      <trkpt lat="42.542698000" lon="-2.427964000">
        <ele>517.50</ele>
        <time>2016-10-15T08:30:53Z</time>
      </trkpt>
      <trkpt lat="42.542648000" lon="-2.427917000">
        <ele>517.70</ele>
        <time>2016-10-15T08:30:54Z</time>
      </trkpt>
      <trkpt lat="42.542598000" lon="-2.427875000">
        <ele>517.90</ele>
        <time>2016-10-15T08:30:55Z</time>
      </trkpt>
      <trkpt lat="42.542546000" lon="-2.427833000">
        <ele>517.60</ele>
        <time>2016-10-15T08:30:56Z</time>
      </trkpt>
      <trkpt lat="42.542497000" lon="-2.427790000">
        <ele>517.40</ele>
        <time>2016-10-15T08:30:57Z</time>
      </trkpt>
      <trkpt lat="42.542451000" lon="-2.427747000">
        <ele>517.30</ele>
        <time>2016-10-15T08:30:58Z</time>
      </trkpt>
      <trkpt lat="42.542405000" lon="-2.427704000">
        <ele>517.20</ele>
        <time>2016-10-15T08:30:59Z</time>
      </trkpt>
      <trkpt lat="42.542366000" lon="-2.427655000">
        <ele>517.60</ele>
        <time>2016-10-15T08:31:00Z</time>
      </trkpt>
      <trkpt lat="42.542333000" lon="-2.427603000">
        <ele>517.90</ele>
        <time>2016-10-15T08:31:01Z</time>
      </trkpt>
      <trkpt lat="42.542310000" lon="-2.427539000">
        <ele>518.30</ele>
        <time>2016-10-15T08:31:02Z</time>
      </trkpt>
      <trkpt lat="42.542297000" lon="-2.427471000">
        <ele>518.60</ele>
        <time>2016-10-15T08:31:03Z</time>
      </trkpt>
      <trkpt lat="42.542288000" lon="-2.427401000">
        <ele>518.80</ele>
        <time>2016-10-15T08:31:04Z</time>
      </trkpt>
      <trkpt lat="42.542282000" lon="-2.427329000">
        <ele>518.90</ele>
        <time>2016-10-15T08:31:05Z</time>
      </trkpt>
      <trkpt lat="42.542274000" lon="-2.427255000">
        <ele>519.10</ele>
        <time>2016-10-15T08:31:06Z</time>
      </trkpt>
      <trkpt lat="42.542256000" lon="-2.427175000">
        <ele>519.10</ele>
        <time>2016-10-15T08:31:07Z</time>
      </trkpt>
      <trkpt lat="42.542225000" lon="-2.427101000">
        <ele>519.10</ele>
        <time>2016-10-15T08:31:08Z</time>
      </trkpt>
      <trkpt lat="42.542182000" lon="-2.427035000">
        <ele>519.00</ele>
        <time>2016-10-15T08:31:09Z</time>
      </trkpt>
      <trkpt lat="42.542134000" lon="-2.426977000">
        <ele>518.70</ele>
        <time>2016-10-15T08:31:10Z</time>
      </trkpt>
      <trkpt lat="42.542083000" lon="-2.426926000">
        <ele>518.40</ele>
        <time>2016-10-15T08:31:11Z</time>
      </trkpt>
      <trkpt lat="42.542031000" lon="-2.426874000">
        <ele>518.20</ele>
        <time>2016-10-15T08:31:12Z</time>
      </trkpt>
      <trkpt lat="42.541978000" lon="-2.426826000">
        <ele>518.00</ele>
        <time>2016-10-15T08:31:13Z</time>
      </trkpt>
      <trkpt lat="42.541922000" lon="-2.426781000">
        <ele>517.70</ele>
        <time>2016-10-15T08:31:14Z</time>
      </trkpt>
      <trkpt lat="42.541866000" lon="-2.426733000">
        <ele>517.40</ele>
        <time>2016-10-15T08:31:15Z</time>
      </trkpt>
      <trkpt lat="42.541810000" lon="-2.426687000">
        <ele>517.20</ele>
        <time>2016-10-15T08:31:16Z</time>
      </trkpt>
      <trkpt lat="42.541752000" lon="-2.426639000">
        <ele>517.00</ele>
        <time>2016-10-15T08:31:17Z</time>
      </trkpt>
      <trkpt lat="42.541692000" lon="-2.426589000">
        <ele>516.80</ele>
        <time>2016-10-15T08:31:18Z</time>
      </trkpt>
      <trkpt lat="42.541632000" lon="-2.426532000">
        <ele>516.70</ele>
        <time>2016-10-15T08:31:19Z</time>
      </trkpt>
      <trkpt lat="42.541570000" lon="-2.426467000">
        <ele>516.40</ele>
        <time>2016-10-15T08:31:20Z</time>
      </trkpt>
      <trkpt lat="42.541507000" lon="-2.426397000">
        <ele>516.30</ele>
        <time>2016-10-15T08:31:21Z</time>
      </trkpt>
      <trkpt lat="42.541442000" lon="-2.426318000">
        <ele>516.10</ele>
        <time>2016-10-15T08:31:22Z</time>
      </trkpt>
      <trkpt lat="42.541383000" lon="-2.426223000">
        <ele>515.90</ele>
        <time>2016-10-15T08:31:23Z</time>
      </trkpt>
      <trkpt lat="42.541334000" lon="-2.426122000">
        <ele>515.30</ele>
        <time>2016-10-15T08:31:24Z</time>
      </trkpt>
      <trkpt lat="42.541290000" lon="-2.426013000">
        <ele>514.80</ele>
        <time>2016-10-15T08:31:25Z</time>
      </trkpt>
      <trkpt lat="42.541252000" lon="-2.425899000">
        <ele>513.90</ele>
        <time>2016-10-15T08:31:26Z</time>
      </trkpt>
      <trkpt lat="42.541201000" lon="-2.425652000">
        <ele>511.90</ele>
        <time>2016-10-15T08:31:28Z</time>
      </trkpt>
      <trkpt lat="42.541180000" lon="-2.425518000">
        <ele>510.80</ele>
        <time>2016-10-15T08:31:29Z</time>
      </trkpt>
      <trkpt lat="42.541160000" lon="-2.425386000">
        <ele>509.60</ele>
        <time>2016-10-15T08:31:30Z</time>
      </trkpt>
      <trkpt lat="42.541133000" lon="-2.425257000">
        <ele>508.70</ele>
        <time>2016-10-15T08:31:31Z</time>
      </trkpt>
      <trkpt lat="42.541098000" lon="-2.425137000">
        <ele>507.20</ele>
        <time>2016-10-15T08:31:32Z</time>
      </trkpt>
      <trkpt lat="42.541050000" lon="-2.425029000">
        <ele>506.10</ele>
        <time>2016-10-15T08:31:33Z</time>
      </trkpt>
      <trkpt lat="42.540991000" lon="-2.424932000">
        <ele>505.30</ele>
        <time>2016-10-15T08:31:34Z</time>
      </trkpt>
      <trkpt lat="42.540924000" lon="-2.424851000">
        <ele>504.70</ele>
        <time>2016-10-15T08:31:35Z</time>
      </trkpt>
      <trkpt lat="42.540850000" lon="-2.424781000">
        <ele>504.20</ele>
        <time>2016-10-15T08:31:36Z</time>
      </trkpt>
      <trkpt lat="42.540772000" lon="-2.424723000">
        <ele>503.80</ele>
        <time>2016-10-15T08:31:37Z</time>
      </trkpt>
      <trkpt lat="42.540693000" lon="-2.424668000">
        <ele>503.50</ele>
        <time>2016-10-15T08:31:38Z</time>
      </trkpt>
      <trkpt lat="42.540616000" lon="-2.424616000">
        <ele>503.20</ele>
        <time>2016-10-15T08:31:39Z</time>
      </trkpt>
      <trkpt lat="42.540540000" lon="-2.424562000">
        <ele>502.70</ele>
        <time>2016-10-15T08:31:40Z</time>
      </trkpt>
      <trkpt lat="42.540466000" lon="-2.424508000">
        <ele>502.30</ele>
        <time>2016-10-15T08:31:41Z</time>
      </trkpt>
      <trkpt lat="42.540393000" lon="-2.424455000">
        <ele>502.20</ele>
        <time>2016-10-15T08:31:42Z</time>
      </trkpt>
      <trkpt lat="42.540321000" lon="-2.424403000">
        <ele>502.10</ele>
        <time>2016-10-15T08:31:43Z</time>
      </trkpt>
      <trkpt lat="42.540248000" lon="-2.424350000">
        <ele>501.90</ele>
        <time>2016-10-15T08:31:44Z</time>
      </trkpt>
      <trkpt lat="42.540177000" lon="-2.424303000">
        <ele>501.70</ele>
        <time>2016-10-15T08:31:45Z</time>
      </trkpt>
      <trkpt lat="42.540105000" lon="-2.424257000">
        <ele>501.40</ele>
        <time>2016-10-15T08:31:46Z</time>
      </trkpt>
      <trkpt lat="42.540034000" lon="-2.424213000">
        <ele>501.20</ele>
        <time>2016-10-15T08:31:47Z</time>
      </trkpt>
      <trkpt lat="42.539966000" lon="-2.424169000">
        <ele>500.80</ele>
        <time>2016-10-15T08:31:48Z</time>
      </trkpt>
      <trkpt lat="42.539896000" lon="-2.424128000">
        <ele>500.60</ele>
        <time>2016-10-15T08:31:49Z</time>
      </trkpt>
      <trkpt lat="42.539831000" lon="-2.424081000">
        <ele>500.20</ele>
        <time>2016-10-15T08:31:50Z</time>
      </trkpt>
      <trkpt lat="42.539769000" lon="-2.424035000">
        <ele>499.90</ele>
        <time>2016-10-15T08:31:51Z</time>
      </trkpt>
      <trkpt lat="42.539708000" lon="-2.423990000">
        <ele>499.60</ele>
        <time>2016-10-15T08:31:52Z</time>
      </trkpt>
      <trkpt lat="42.539650000" lon="-2.423936000">
        <ele>499.40</ele>
        <time>2016-10-15T08:31:53Z</time>
      </trkpt>
      <trkpt lat="42.539595000" lon="-2.423879000">
        <ele>499.40</ele>
        <time>2016-10-15T08:31:54Z</time>
      </trkpt>
      <trkpt lat="42.539542000" lon="-2.423820000">
        <ele>499.30</ele>
        <time>2016-10-15T08:31:55Z</time>
      </trkpt>
      <trkpt lat="42.539490000" lon="-2.423755000">
        <ele>499.30</ele>
        <time>2016-10-15T08:31:56Z</time>
      </trkpt>
      <trkpt lat="42.539442000" lon="-2.423680000">
        <ele>499.20</ele>
        <time>2016-10-15T08:31:57Z</time>
      </trkpt>
      <trkpt lat="42.539399000" lon="-2.423601000">
        <ele>499.20</ele>
        <time>2016-10-15T08:31:58Z</time>
      </trkpt>
      <trkpt lat="42.539359000" lon="-2.423520000">
        <ele>499.20</ele>
        <time>2016-10-15T08:31:59Z</time>
      </trkpt>
      <trkpt lat="42.539329000" lon="-2.423435000">
        <ele>499.10</ele>
        <time>2016-10-15T08:32:00Z</time>
      </trkpt>
      <trkpt lat="42.539303000" lon="-2.423352000">
        <ele>499.10</ele>
        <time>2016-10-15T08:32:01Z</time>
      </trkpt>
      <trkpt lat="42.539282000" lon="-2.423268000">
        <ele>499.00</ele>
        <time>2016-10-15T08:32:02Z</time>
      </trkpt>
      <trkpt lat="42.539266000" lon="-2.423184000">
        <ele>499.00</ele>
        <time>2016-10-15T08:32:03Z</time>
      </trkpt>
      <trkpt lat="42.539249000" lon="-2.423101000">
        <ele>499.00</ele>
        <time>2016-10-15T08:32:04Z</time>
      </trkpt>
      <trkpt lat="42.539224000" lon="-2.423017000">
        <ele>498.90</ele>
        <time>2016-10-15T08:32:05Z</time>
      </trkpt>
      <trkpt lat="42.539200000" lon="-2.422935000">
        <ele>498.90</ele>
        <time>2016-10-15T08:32:06Z</time>
      </trkpt>
      <trkpt lat="42.539179000" lon="-2.422852000">
        <ele>498.90</ele>
        <time>2016-10-15T08:32:07Z</time>
      </trkpt>
      <trkpt lat="42.539157000" lon="-2.422770000">
        <ele>498.80</ele>
        <time>2016-10-15T08:32:08Z</time>
      </trkpt>
      <trkpt lat="42.539134000" lon="-2.422686000">
        <ele>498.70</ele>
        <time>2016-10-15T08:32:09Z</time>
      </trkpt>
      <trkpt lat="42.539109000" lon="-2.422600000">
        <ele>498.60</ele>
        <time>2016-10-15T08:32:10Z</time>
      </trkpt>
      <trkpt lat="42.539086000" lon="-2.422511000">
        <ele>498.50</ele>
        <time>2016-10-15T08:32:11Z</time>
      </trkpt>
      <trkpt lat="42.539064000" lon="-2.422416000">
        <ele>498.40</ele>
        <time>2016-10-15T08:32:12Z</time>
      </trkpt>
      <trkpt lat="42.539038000" lon="-2.422317000">
        <ele>498.30</ele>
        <time>2016-10-15T08:32:13Z</time>
      </trkpt>
      <trkpt lat="42.539012000" lon="-2.422212000">
        <ele>497.80</ele>
        <time>2016-10-15T08:32:14Z</time>
      </trkpt>
      <trkpt lat="42.538986000" lon="-2.422100000">
        <ele>497.50</ele>
        <time>2016-10-15T08:32:15Z</time>
      </trkpt>
      <trkpt lat="42.538959000" lon="-2.421983000">
        <ele>497.00</ele>
        <time>2016-10-15T08:32:16Z</time>
      </trkpt>
      <trkpt lat="42.538930000" lon="-2.421866000">
        <ele>496.60</ele>
        <time>2016-10-15T08:32:17Z</time>
      </trkpt>
      <trkpt lat="42.538911000" lon="-2.421749000">
        <ele>496.20</ele>
        <time>2016-10-15T08:32:18Z</time>
      </trkpt>
      <trkpt lat="42.538910000" lon="-2.421635000">
        <ele>495.80</ele>
        <time>2016-10-15T08:32:19Z</time>
      </trkpt>
      <trkpt lat="42.538922000" lon="-2.421526000">
        <ele>495.00</ele>
        <time>2016-10-15T08:32:20Z</time>
      </trkpt>
      <trkpt lat="42.538938000" lon="-2.421424000">
        <ele>494.40</ele>
        <time>2016-10-15T08:32:21Z</time>
      </trkpt>
      <trkpt lat="42.538953000" lon="-2.421327000">
        <ele>494.00</ele>
        <time>2016-10-15T08:32:22Z</time>
      </trkpt>
      <trkpt lat="42.538959000" lon="-2.421228000">
        <ele>493.70</ele>
        <time>2016-10-15T08:32:23Z</time>
      </trkpt>
      <trkpt lat="42.538956000" lon="-2.421131000">
        <ele>493.60</ele>
        <time>2016-10-15T08:32:24Z</time>
      </trkpt>
      <trkpt lat="42.538938000" lon="-2.421039000">
        <ele>493.50</ele>
        <time>2016-10-15T08:32:25Z</time>
      </trkpt>
      <trkpt lat="42.538909000" lon="-2.420959000">
        <ele>493.40</ele>
        <time>2016-10-15T08:32:26Z</time>
      </trkpt>
      <trkpt lat="42.538872000" lon="-2.420884000">
        <ele>493.40</ele>
        <time>2016-10-15T08:32:27Z</time>
      </trkpt>
      <trkpt lat="42.538831000" lon="-2.420821000">
        <ele>493.40</ele>
        <time>2016-10-15T08:32:28Z</time>
      </trkpt>
      <trkpt lat="42.538743000" lon="-2.420709000">
        <ele>493.50</ele>
        <time>2016-10-15T08:32:30Z</time>
      </trkpt>
      <trkpt lat="42.538699000" lon="-2.420658000">
        <ele>493.50</ele>
        <time>2016-10-15T08:32:31Z</time>
      </trkpt>
      <trkpt lat="42.538653000" lon="-2.420608000">
        <ele>493.60</ele>
        <time>2016-10-15T08:32:32Z</time>
      </trkpt>
      <trkpt lat="42.538607000" lon="-2.420555000">
        <ele>493.60</ele>
        <time>2016-10-15T08:32:33Z</time>
      </trkpt>
      <trkpt lat="42.538556000" lon="-2.420502000">
        <ele>493.70</ele>
        <time>2016-10-15T08:32:34Z</time>
      </trkpt>
      <trkpt lat="42.538504000" lon="-2.420446000">
        <ele>493.80</ele>
        <time>2016-10-15T08:32:35Z</time>
      </trkpt>
      <trkpt lat="42.538450000" lon="-2.420388000">
        <ele>493.80</ele>
        <time>2016-10-15T08:32:36Z</time>
      </trkpt>
      <trkpt lat="42.538395000" lon="-2.420329000">
        <ele>493.80</ele>
        <time>2016-10-15T08:32:37Z</time>
      </trkpt>
      <trkpt lat="42.538337000" lon="-2.420273000">
        <ele>493.80</ele>
        <time>2016-10-15T08:32:38Z</time>
      </trkpt>
      <trkpt lat="42.538277000" lon="-2.420219000">
        <ele>493.70</ele>
        <time>2016-10-15T08:32:39Z</time>
      </trkpt>
      <trkpt lat="42.538214000" lon="-2.420166000">
        <ele>493.60</ele>
        <time>2016-10-15T08:32:40Z</time>
      </trkpt>
      <trkpt lat="42.538148000" lon="-2.420120000">
        <ele>493.50</ele>
        <time>2016-10-15T08:32:41Z</time>
      </trkpt>
      <trkpt lat="42.538080000" lon="-2.420078000">
        <ele>493.20</ele>
        <time>2016-10-15T08:32:42Z</time>
      </trkpt>
      <trkpt lat="42.538013000" lon="-2.420035000">
        <ele>493.00</ele>
        <time>2016-10-15T08:32:43Z</time>
      </trkpt>
      <trkpt lat="42.537940000" lon="-2.419994000">
        <ele>492.50</ele>
        <time>2016-10-15T08:32:44Z</time>
      </trkpt>
      <trkpt lat="42.537868000" lon="-2.419957000">
        <ele>492.20</ele>
        <time>2016-10-15T08:32:45Z</time>
      </trkpt>
      <trkpt lat="42.537795000" lon="-2.419924000">
        <ele>491.90</ele>
        <time>2016-10-15T08:32:46Z</time>
      </trkpt>
      <trkpt lat="42.537724000" lon="-2.419888000">
        <ele>491.70</ele>
        <time>2016-10-15T08:32:47Z</time>
      </trkpt>
      <trkpt lat="42.537654000" lon="-2.419855000">
        <ele>491.90</ele>
        <time>2016-10-15T08:32:48Z</time>
      </trkpt>
      <trkpt lat="42.537587000" lon="-2.419816000">
        <ele>492.10</ele>
        <time>2016-10-15T08:32:49Z</time>
      </trkpt>
      <trkpt lat="42.537518000" lon="-2.419785000">
        <ele>492.20</ele>
        <time>2016-10-15T08:32:50Z</time>
      </trkpt>
      <trkpt lat="42.537449000" lon="-2.419761000">
        <ele>492.30</ele>
        <time>2016-10-15T08:32:51Z</time>
      </trkpt>
      <trkpt lat="42.537378000" lon="-2.419743000">
        <ele>492.20</ele>
        <time>2016-10-15T08:32:52Z</time>
      </trkpt>
      <trkpt lat="42.537309000" lon="-2.419727000">
        <ele>492.20</ele>
        <time>2016-10-15T08:32:53Z</time>
      </trkpt>
      <trkpt lat="42.537240000" lon="-2.419709000">
        <ele>491.60</ele>
        <time>2016-10-15T08:32:54Z</time>
      </trkpt>
      <trkpt lat="42.537170000" lon="-2.419690000">
        <ele>491.20</ele>
        <time>2016-10-15T08:32:55Z</time>
      </trkpt>
      <trkpt lat="42.537100000" lon="-2.419672000">
        <ele>490.80</ele>
        <time>2016-10-15T08:32:56Z</time>
      </trkpt>
      <trkpt lat="42.537028000" lon="-2.419649000">
        <ele>490.60</ele>
        <time>2016-10-15T08:32:57Z</time>
      </trkpt>
      <trkpt lat="42.536958000" lon="-2.419622000">
        <ele>490.40</ele>
        <time>2016-10-15T08:32:58Z</time>
      </trkpt>
      <trkpt lat="42.536888000" lon="-2.419598000">
        <ele>490.30</ele>
        <time>2016-10-15T08:32:59Z</time>
      </trkpt>
      <trkpt lat="42.536816000" lon="-2.419572000">
        <ele>490.10</ele>
        <time>2016-10-15T08:33:00Z</time>
      </trkpt>
      <trkpt lat="42.536745000" lon="-2.419547000">
        <ele>489.90</ele>
        <time>2016-10-15T08:33:01Z</time>
      </trkpt>
      <trkpt lat="42.536672000" lon="-2.419526000">
        <ele>489.40</ele>
        <time>2016-10-15T08:33:02Z</time>
      </trkpt>
      <trkpt lat="42.536599000" lon="-2.419516000">
        <ele>489.00</ele>
        <time>2016-10-15T08:33:03Z</time>
      </trkpt>
      <trkpt lat="42.536526000" lon="-2.419516000">
        <ele>488.80</ele>
        <time>2016-10-15T08:33:04Z</time>
      </trkpt>
      <trkpt lat="42.536455000" lon="-2.419518000">
        <ele>488.50</ele>
        <time>2016-10-15T08:33:05Z</time>
      </trkpt>
      <trkpt lat="42.536385000" lon="-2.419506000">
        <ele>488.40</ele>
        <time>2016-10-15T08:33:06Z</time>
      </trkpt>
      <trkpt lat="42.536317000" lon="-2.419476000">
        <ele>488.30</ele>
        <time>2016-10-15T08:33:07Z</time>
      </trkpt>
      <trkpt lat="42.536255000" lon="-2.419431000">
        <ele>488.10</ele>
        <time>2016-10-15T08:33:08Z</time>
      </trkpt>
      <trkpt lat="42.536196000" lon="-2.419376000">
        <ele>488.00</ele>
        <time>2016-10-15T08:33:09Z</time>
      </trkpt>
      <trkpt lat="42.536138000" lon="-2.419321000">
        <ele>488.20</ele>
        <time>2016-10-15T08:33:10Z</time>
      </trkpt>
      <trkpt lat="42.536080000" lon="-2.419264000">
        <ele>488.30</ele>
        <time>2016-10-15T08:33:11Z</time>
      </trkpt>
      <trkpt lat="42.536018000" lon="-2.419211000">
        <ele>488.20</ele>
        <time>2016-10-15T08:33:12Z</time>
      </trkpt>
      <trkpt lat="42.535956000" lon="-2.419162000">
        <ele>488.20</ele>
        <time>2016-10-15T08:33:13Z</time>
      </trkpt>
      <trkpt lat="42.535894000" lon="-2.419112000">
        <ele>488.20</ele>
        <time>2016-10-15T08:33:14Z</time>
      </trkpt>
      <trkpt lat="42.535830000" lon="-2.419064000">
        <ele>488.20</ele>
        <time>2016-10-15T08:33:15Z</time>
      </trkpt>
      <trkpt lat="42.535768000" lon="-2.419017000">
        <ele>488.20</ele>
        <time>2016-10-15T08:33:16Z</time>
      </trkpt>
      <trkpt lat="42.535706000" lon="-2.418962000">
        <ele>488.20</ele>
        <time>2016-10-15T08:33:17Z</time>
      </trkpt>
      <trkpt lat="42.535647000" lon="-2.418906000">
        <ele>488.20</ele>
        <time>2016-10-15T08:33:18Z</time>
      </trkpt>
      <trkpt lat="42.535589000" lon="-2.418847000">
        <ele>488.20</ele>
        <time>2016-10-15T08:33:19Z</time>
      </trkpt>
      <trkpt lat="42.535533000" lon="-2.418787000">
        <ele>488.20</ele>
        <time>2016-10-15T08:33:20Z</time>
      </trkpt>
      <trkpt lat="42.535478000" lon="-2.418727000">
        <ele>488.30</ele>
        <time>2016-10-15T08:33:21Z</time>
      </trkpt>
      <trkpt lat="42.535426000" lon="-2.418664000">
        <ele>488.30</ele>
        <time>2016-10-15T08:33:22Z</time>
      </trkpt>
      <trkpt lat="42.535375000" lon="-2.418601000">
        <ele>488.30</ele>
        <time>2016-10-15T08:33:23Z</time>
      </trkpt>
      <trkpt lat="42.535331000" lon="-2.418535000">
        <ele>488.40</ele>
        <time>2016-10-15T08:33:24Z</time>
      </trkpt>
      <trkpt lat="42.535284000" lon="-2.418468000">
        <ele>488.40</ele>
        <time>2016-10-15T08:33:25Z</time>
      </trkpt>
      <trkpt lat="42.535239000" lon="-2.418398000">
        <ele>488.30</ele>
        <time>2016-10-15T08:33:26Z</time>
      </trkpt>
      <trkpt lat="42.535195000" lon="-2.418325000">
        <ele>488.30</ele>
        <time>2016-10-15T08:33:27Z</time>
      </trkpt>
      <trkpt lat="42.535151000" lon="-2.418251000">
        <ele>488.20</ele>
        <time>2016-10-15T08:33:28Z</time>
      </trkpt>
      <trkpt lat="42.535108000" lon="-2.418180000">
        <ele>488.10</ele>
        <time>2016-10-15T08:33:29Z</time>
      </trkpt>
      <trkpt lat="42.535067000" lon="-2.418104000">
        <ele>488.00</ele>
        <time>2016-10-15T08:33:30Z</time>
      </trkpt>
      <trkpt lat="42.534986000" lon="-2.417958000">
        <ele>488.00</ele>
        <time>2016-10-15T08:33:32Z</time>
      </trkpt>
      <trkpt lat="42.534941000" lon="-2.417894000">
        <ele>488.00</ele>
        <time>2016-10-15T08:33:33Z</time>
      </trkpt>
      <trkpt lat="42.534893000" lon="-2.417831000">
        <ele>487.90</ele>
        <time>2016-10-15T08:33:34Z</time>
      </trkpt>
      <trkpt lat="42.534844000" lon="-2.417772000">
        <ele>487.90</ele>
        <time>2016-10-15T08:33:35Z</time>
      </trkpt>
      <trkpt lat="42.534791000" lon="-2.417716000">
        <ele>487.70</ele>
        <time>2016-10-15T08:33:36Z</time>
      </trkpt>
      <trkpt lat="42.534739000" lon="-2.417661000">
        <ele>487.50</ele>
        <time>2016-10-15T08:33:37Z</time>
      </trkpt>
      <trkpt lat="42.534684000" lon="-2.417610000">
        <ele>487.30</ele>
        <time>2016-10-15T08:33:38Z</time>
      </trkpt>
      <trkpt lat="42.534627000" lon="-2.417560000">
        <ele>487.20</ele>
        <time>2016-10-15T08:33:39Z</time>
      </trkpt>
      <trkpt lat="42.534570000" lon="-2.417515000">
        <ele>486.90</ele>
        <time>2016-10-15T08:33:40Z</time>
      </trkpt>
      <trkpt lat="42.534516000" lon="-2.417463000">
        <ele>486.60</ele>
        <time>2016-10-15T08:33:41Z</time>
      </trkpt>
      <trkpt lat="42.534463000" lon="-2.417411000">
        <ele>486.50</ele>
        <time>2016-10-15T08:33:42Z</time>
      </trkpt>
      <trkpt lat="42.534411000" lon="-2.417359000">
        <ele>486.30</ele>
        <time>2016-10-15T08:33:43Z</time>
      </trkpt>
      <trkpt lat="42.534359000" lon="-2.417308000">
        <ele>486.10</ele>
        <time>2016-10-15T08:33:44Z</time>
      </trkpt>
      <trkpt lat="42.534311000" lon="-2.417254000">
        <ele>486.00</ele>
        <time>2016-10-15T08:33:45Z</time>
      </trkpt>
      <trkpt lat="42.534264000" lon="-2.417193000">
        <ele>485.90</ele>
        <time>2016-10-15T08:33:46Z</time>
      </trkpt>
      <trkpt lat="42.534222000" lon="-2.417130000">
        <ele>485.80</ele>
        <time>2016-10-15T08:33:47Z</time>
      </trkpt>
      <trkpt lat="42.534183000" lon="-2.417064000">
        <ele>486.00</ele>
        <time>2016-10-15T08:33:48Z</time>
      </trkpt>
      <trkpt lat="42.534154000" lon="-2.416985000">
        <ele>486.10</ele>
        <time>2016-10-15T08:33:49Z</time>
      </trkpt>
      <trkpt lat="42.534135000" lon="-2.416890000">
        <ele>486.20</ele>
        <time>2016-10-15T08:33:50Z</time>
      </trkpt>
      <trkpt lat="42.534127000" lon="-2.416784000">
        <ele>485.40</ele>
        <time>2016-10-15T08:33:51Z</time>
      </trkpt>
      <trkpt lat="42.534115000" lon="-2.416676000">
        <ele>484.80</ele>
        <time>2016-10-15T08:33:52Z</time>
      </trkpt>
      <trkpt lat="42.534091000" lon="-2.416572000">
        <ele>484.20</ele>
        <time>2016-10-15T08:33:53Z</time>
      </trkpt>
      <trkpt lat="42.534046000" lon="-2.416482000">
        <ele>483.80</ele>
        <time>2016-10-15T08:33:54Z</time>
      </trkpt>
      <trkpt lat="42.533987000" lon="-2.416419000">
        <ele>483.30</ele>
        <time>2016-10-15T08:33:55Z</time>
      </trkpt>
      <trkpt lat="42.533923000" lon="-2.416371000">
        <ele>482.90</ele>
        <time>2016-10-15T08:33:56Z</time>
      </trkpt>
      <trkpt lat="42.533859000" lon="-2.416330000">
        <ele>482.40</ele>
        <time>2016-10-15T08:33:57Z</time>
      </trkpt>
      <trkpt lat="42.533792000" lon="-2.416299000">
        <ele>482.10</ele>
        <time>2016-10-15T08:33:58Z</time>
      </trkpt>
      <trkpt lat="42.533725000" lon="-2.416266000">
        <ele>481.80</ele>
        <time>2016-10-15T08:33:59Z</time>
      </trkpt>
      <trkpt lat="42.533662000" lon="-2.416231000">
        <ele>481.60</ele>
        <time>2016-10-15T08:34:00Z</time>
      </trkpt>
      <trkpt lat="42.533604000" lon="-2.416188000">
        <ele>481.50</ele>
        <time>2016-10-15T08:34:01Z</time>
      </trkpt>
      <trkpt lat="42.533549000" lon="-2.416144000">
        <ele>481.40</ele>
        <time>2016-10-15T08:34:02Z</time>
      </trkpt>
      <trkpt lat="42.533499000" lon="-2.416099000">
        <ele>481.60</ele>
        <time>2016-10-15T08:34:03Z</time>
      </trkpt>
      <trkpt lat="42.533450000" lon="-2.416057000">
        <ele>481.70</ele>
        <time>2016-10-15T08:34:04Z</time>
      </trkpt>
      <trkpt lat="42.533401000" lon="-2.416013000">
        <ele>481.70</ele>
        <time>2016-10-15T08:34:05Z</time>
      </trkpt>
      <trkpt lat="42.533352000" lon="-2.415974000">
        <ele>481.80</ele>
        <time>2016-10-15T08:34:06Z</time>
      </trkpt>
      <trkpt lat="42.533303000" lon="-2.415935000">
        <ele>482.10</ele>
        <time>2016-10-15T08:34:07Z</time>
      </trkpt>
      <trkpt lat="42.533250000" lon="-2.415901000">
        <ele>482.30</ele>
        <time>2016-10-15T08:34:08Z</time>
      </trkpt>
      <trkpt lat="42.533194000" lon="-2.415873000">
        <ele>482.50</ele>
        <time>2016-10-15T08:34:09Z</time>
      </trkpt>
      <trkpt lat="42.533138000" lon="-2.415847000">
        <ele>482.70</ele>
        <time>2016-10-15T08:34:10Z</time>
      </trkpt>
      <trkpt lat="42.533079000" lon="-2.415828000">
        <ele>482.80</ele>
        <time>2016-10-15T08:34:11Z</time>
      </trkpt>
      <trkpt lat="42.533019000" lon="-2.415814000">
        <ele>482.90</ele>
        <time>2016-10-15T08:34:12Z</time>
      </trkpt>
      <trkpt lat="42.532959000" lon="-2.415802000">
        <ele>483.00</ele>
        <time>2016-10-15T08:34:13Z</time>
      </trkpt>
      <trkpt lat="42.532899000" lon="-2.415791000">
        <ele>483.00</ele>
        <time>2016-10-15T08:34:14Z</time>
      </trkpt>
      <trkpt lat="42.532837000" lon="-2.415786000">
        <ele>483.10</ele>
        <time>2016-10-15T08:34:15Z</time>
      </trkpt>
      <trkpt lat="42.532772000" lon="-2.415789000">
        <ele>483.10</ele>
        <time>2016-10-15T08:34:16Z</time>
      </trkpt>
      <trkpt lat="42.532707000" lon="-2.415801000">
        <ele>483.10</ele>
        <time>2016-10-15T08:34:17Z</time>
      </trkpt>
      <trkpt lat="42.532642000" lon="-2.415823000">
        <ele>483.10</ele>
        <time>2016-10-15T08:34:18Z</time>
      </trkpt>
      <trkpt lat="42.532580000" lon="-2.415850000">
        <ele>483.10</ele>
        <time>2016-10-15T08:34:19Z</time>
      </trkpt>
      <trkpt lat="42.532520000" lon="-2.415879000">
        <ele>483.20</ele>
        <time>2016-10-15T08:34:20Z</time>
      </trkpt>
      <trkpt lat="42.532461000" lon="-2.415905000">
        <ele>483.20</ele>
        <time>2016-10-15T08:34:21Z</time>
      </trkpt>
      <trkpt lat="42.532404000" lon="-2.415921000">
        <ele>483.20</ele>
        <time>2016-10-15T08:34:22Z</time>
      </trkpt>
      <trkpt lat="42.532349000" lon="-2.415929000">
        <ele>483.30</ele>
        <time>2016-10-15T08:34:23Z</time>
      </trkpt>
      <trkpt lat="42.532288000" lon="-2.415923000">
        <ele>483.40</ele>
        <time>2016-10-15T08:34:24Z</time>
      </trkpt>
      <trkpt lat="42.532232000" lon="-2.415893000">
        <ele>483.50</ele>
        <time>2016-10-15T08:34:25Z</time>
      </trkpt>
      <trkpt lat="42.532184000" lon="-2.415843000">
        <ele>483.50</ele>
        <time>2016-10-15T08:34:26Z</time>
      </trkpt>
      <trkpt lat="42.532142000" lon="-2.415787000">
        <ele>483.60</ele>
        <time>2016-10-15T08:34:27Z</time>
      </trkpt>
      <trkpt lat="42.532106000" lon="-2.415725000">
        <ele>483.60</ele>
        <time>2016-10-15T08:34:28Z</time>
      </trkpt>
      <trkpt lat="42.532068000" lon="-2.415668000">
        <ele>483.60</ele>
        <time>2016-10-15T08:34:29Z</time>
      </trkpt>
      <trkpt lat="42.532026000" lon="-2.415616000">
        <ele>483.50</ele>
        <time>2016-10-15T08:34:30Z</time>
      </trkpt>
      <trkpt lat="42.531978000" lon="-2.415572000">
        <ele>483.60</ele>
        <time>2016-10-15T08:34:31Z</time>
      </trkpt>
      <trkpt lat="42.531877000" lon="-2.415505000">
        <ele>483.60</ele>
        <time>2016-10-15T08:34:33Z</time>
      </trkpt>
      <trkpt lat="42.531825000" lon="-2.415477000">
        <ele>483.60</ele>
        <time>2016-10-15T08:34:34Z</time>
      </trkpt>
      <trkpt lat="42.531771000" lon="-2.415451000">
        <ele>483.90</ele>
        <time>2016-10-15T08:34:35Z</time>
      </trkpt>
      <trkpt lat="42.531716000" lon="-2.415423000">
        <ele>484.00</ele>
        <time>2016-10-15T08:34:36Z</time>
      </trkpt>
      <trkpt lat="42.531659000" lon="-2.415398000">
        <ele>484.10</ele>
        <time>2016-10-15T08:34:37Z</time>
      </trkpt>
      <trkpt lat="42.531597000" lon="-2.415373000">
        <ele>484.20</ele>
        <time>2016-10-15T08:34:38Z</time>
      </trkpt>
      <trkpt lat="42.531531000" lon="-2.415348000">
        <ele>484.20</ele>
        <time>2016-10-15T08:34:39Z</time>
      </trkpt>
      <trkpt lat="42.531462000" lon="-2.415320000">
        <ele>484.10</ele>
        <time>2016-10-15T08:34:40Z</time>
      </trkpt>
      <trkpt lat="42.531391000" lon="-2.415293000">
        <ele>484.10</ele>
        <time>2016-10-15T08:34:41Z</time>
      </trkpt>
      <trkpt lat="42.531324000" lon="-2.415259000">
        <ele>484.00</ele>
        <time>2016-10-15T08:34:42Z</time>
      </trkpt>
      <trkpt lat="42.531253000" lon="-2.415224000">
        <ele>483.80</ele>
        <time>2016-10-15T08:34:43Z</time>
      </trkpt>
      <trkpt lat="42.531182000" lon="-2.415183000">
        <ele>483.70</ele>
        <time>2016-10-15T08:34:44Z</time>
      </trkpt>
      <trkpt lat="42.531112000" lon="-2.415136000">
        <ele>483.50</ele>
        <time>2016-10-15T08:34:45Z</time>
      </trkpt>
      <trkpt lat="42.531033000" lon="-2.415080000">
        <ele>483.50</ele>
        <time>2016-10-15T08:34:46Z</time>
      </trkpt>
      <trkpt lat="42.530941000" lon="-2.415026000">
        <ele>482.50</ele>
        <time>2016-10-15T08:34:47Z</time>
      </trkpt>
      <trkpt lat="42.530846000" lon="-2.414958000">
        <ele>481.80</ele>
        <time>2016-10-15T08:34:48Z</time>
      </trkpt>
      <trkpt lat="42.530758000" lon="-2.414868000">
        <ele>480.60</ele>
        <time>2016-10-15T08:34:49Z</time>
      </trkpt>
      <trkpt lat="42.530683000" lon="-2.414761000">
        <ele>479.80</ele>
        <time>2016-10-15T08:34:50Z</time>
      </trkpt>
      <trkpt lat="42.530619000" lon="-2.414643000">
        <ele>479.10</ele>
        <time>2016-10-15T08:34:51Z</time>
      </trkpt>
      <trkpt lat="42.530563000" lon="-2.414519000">
        <ele>478.60</ele>
        <time>2016-10-15T08:34:52Z</time>
      </trkpt>
      <trkpt lat="42.530518000" lon="-2.414398000">
        <ele>477.30</ele>
        <time>2016-10-15T08:34:53Z</time>
      </trkpt>
      <trkpt lat="42.530487000" lon="-2.414282000">
        <ele>476.40</ele>
        <time>2016-10-15T08:34:54Z</time>
      </trkpt>
      <trkpt lat="42.530474000" lon="-2.414170000">
        <ele>475.70</ele>
        <time>2016-10-15T08:34:55Z</time>
      </trkpt>
      <trkpt lat="42.530480000" lon="-2.414067000">
        <ele>475.20</ele>
        <time>2016-10-15T08:34:56Z</time>
      </trkpt>
      <trkpt lat="42.530500000" lon="-2.413976000">
        <ele>475.00</ele>
        <time>2016-10-15T08:34:57Z</time>
      </trkpt>
      <trkpt lat="42.530524000" lon="-2.413889000">
        <ele>474.90</ele>
        <time>2016-10-15T08:34:58Z</time>
      </trkpt>
      <trkpt lat="42.530544000" lon="-2.413803000">
        <ele>475.10</ele>
        <time>2016-10-15T08:34:59Z</time>
      </trkpt>
      <trkpt lat="42.530560000" lon="-2.413718000">
        <ele>475.20</ele>
        <time>2016-10-15T08:35:00Z</time>
      </trkpt>
      <trkpt lat="42.530577000" lon="-2.413637000">
        <ele>475.20</ele>
        <time>2016-10-15T08:35:01Z</time>
      </trkpt>
      <trkpt lat="42.530589000" lon="-2.413557000">
        <ele>475.30</ele>
        <time>2016-10-15T08:35:02Z</time>
      </trkpt>
      <trkpt lat="42.530596000" lon="-2.413473000">
        <ele>475.50</ele>
        <time>2016-10-15T08:35:03Z</time>
      </trkpt>
      <trkpt lat="42.530598000" lon="-2.413386000">
        <ele>475.70</ele>
        <time>2016-10-15T08:35:04Z</time>
      </trkpt>
      <trkpt lat="42.530588000" lon="-2.413301000">
        <ele>475.90</ele>
        <time>2016-10-15T08:35:05Z</time>
      </trkpt>
      <trkpt lat="42.530559000" lon="-2.413225000">
        <ele>476.00</ele>
        <time>2016-10-15T08:35:06Z</time>
      </trkpt>
      <trkpt lat="42.530513000" lon="-2.413171000">
        <ele>476.10</ele>
        <time>2016-10-15T08:35:07Z</time>
      </trkpt>
      <trkpt lat="42.530463000" lon="-2.413125000">
        <ele>476.20</ele>
        <time>2016-10-15T08:35:08Z</time>
      </trkpt>
      <trkpt lat="42.530411000" lon="-2.413082000">
        <ele>476.30</ele>
        <time>2016-10-15T08:35:09Z</time>
      </trkpt>
      <trkpt lat="42.530354000" lon="-2.413046000">
        <ele>476.30</ele>
        <time>2016-10-15T08:35:10Z</time>
      </trkpt>
      <trkpt lat="42.530291000" lon="-2.413021000">
        <ele>476.50</ele>
        <time>2016-10-15T08:35:11Z</time>
      </trkpt>
      <trkpt lat="42.530229000" lon="-2.413005000">
        <ele>476.60</ele>
        <time>2016-10-15T08:35:12Z</time>
      </trkpt>
      <trkpt lat="42.530164000" lon="-2.413000000">
        <ele>476.80</ele>
        <time>2016-10-15T08:35:13Z</time>
      </trkpt>
      <trkpt lat="42.530104000" lon="-2.413000000">
        <ele>476.90</ele>
        <time>2016-10-15T08:35:14Z</time>
      </trkpt>
      <trkpt lat="42.530045000" lon="-2.413004000">
        <ele>476.90</ele>
        <time>2016-10-15T08:35:15Z</time>
      </trkpt>
      <trkpt lat="42.529987000" lon="-2.413005000">
        <ele>476.90</ele>
        <time>2016-10-15T08:35:16Z</time>
      </trkpt>
      <trkpt lat="42.529932000" lon="-2.412998000">
        <ele>477.10</ele>
        <time>2016-10-15T08:35:17Z</time>
      </trkpt>
      <trkpt lat="42.529883000" lon="-2.412982000">
        <ele>477.20</ele>
        <time>2016-10-15T08:35:18Z</time>
      </trkpt>
      <trkpt lat="42.529838000" lon="-2.412957000">
        <ele>477.20</ele>
        <time>2016-10-15T08:35:19Z</time>
      </trkpt>
      <trkpt lat="42.529797000" lon="-2.412921000">
        <ele>477.30</ele>
        <time>2016-10-15T08:35:20Z</time>
      </trkpt>
      <trkpt lat="42.529760000" lon="-2.412883000">
        <ele>477.30</ele>
        <time>2016-10-15T08:35:21Z</time>
      </trkpt>
      <trkpt lat="42.529725000" lon="-2.412845000">
        <ele>477.30</ele>
        <time>2016-10-15T08:35:22Z</time>
      </trkpt>
      <trkpt lat="42.529693000" lon="-2.412802000">
        <ele>477.60</ele>
        <time>2016-10-15T08:35:23Z</time>
      </trkpt>
      <trkpt lat="42.529660000" lon="-2.412759000">
        <ele>477.70</ele>
        <time>2016-10-15T08:35:24Z</time>
      </trkpt>
      <trkpt lat="42.529625000" lon="-2.412719000">
        <ele>477.80</ele>
        <time>2016-10-15T08:35:25Z</time>
      </trkpt>
      <trkpt lat="42.529593000" lon="-2.412671000">
        <ele>477.90</ele>
        <time>2016-10-15T08:35:26Z</time>
      </trkpt>
      <trkpt lat="42.529561000" lon="-2.412621000">
        <ele>477.90</ele>
        <time>2016-10-15T08:35:27Z</time>
      </trkpt>
      <trkpt lat="42.529531000" lon="-2.412564000">
        <ele>477.80</ele>
        <time>2016-10-15T08:35:28Z</time>
      </trkpt>
      <trkpt lat="42.529502000" lon="-2.412499000">
        <ele>477.80</ele>
        <time>2016-10-15T08:35:29Z</time>
      </trkpt>
      <trkpt lat="42.529471000" lon="-2.412430000">
        <ele>477.80</ele>
        <time>2016-10-15T08:35:30Z</time>
      </trkpt>
      <trkpt lat="42.529437000" lon="-2.412360000">
        <ele>477.80</ele>
        <time>2016-10-15T08:35:31Z</time>
      </trkpt>
      <trkpt lat="42.529392000" lon="-2.412295000">
        <ele>477.70</ele>
        <time>2016-10-15T08:35:32Z</time>
      </trkpt>
      <trkpt lat="42.529343000" lon="-2.412235000">
        <ele>477.70</ele>
        <time>2016-10-15T08:35:33Z</time>
      </trkpt>
      <trkpt lat="42.529234000" lon="-2.412139000">
        <ele>477.40</ele>
        <time>2016-10-15T08:35:35Z</time>
      </trkpt>
      <trkpt lat="42.529180000" lon="-2.412100000">
        <ele>477.20</ele>
        <time>2016-10-15T08:35:36Z</time>
      </trkpt>
      <trkpt lat="42.529124000" lon="-2.412068000">
        <ele>477.00</ele>
        <time>2016-10-15T08:35:37Z</time>
      </trkpt>
      <trkpt lat="42.529068000" lon="-2.412045000">
        <ele>476.80</ele>
        <time>2016-10-15T08:35:38Z</time>
      </trkpt>
      <trkpt lat="42.529012000" lon="-2.412030000">
        <ele>476.70</ele>
        <time>2016-10-15T08:35:39Z</time>
      </trkpt>
      <trkpt lat="42.528957000" lon="-2.412019000">
        <ele>476.60</ele>
        <time>2016-10-15T08:35:40Z</time>
      </trkpt>
      <trkpt lat="42.528902000" lon="-2.412005000">
        <ele>476.50</ele>
        <time>2016-10-15T08:35:41Z</time>
      </trkpt>
      <trkpt lat="42.528846000" lon="-2.411989000">
        <ele>476.40</ele>
        <time>2016-10-15T08:35:42Z</time>
      </trkpt>
      <trkpt lat="42.528792000" lon="-2.411969000">
        <ele>476.30</ele>
        <time>2016-10-15T08:35:43Z</time>
      </trkpt>
      <trkpt lat="42.528740000" lon="-2.411945000">
        <ele>476.30</ele>
        <time>2016-10-15T08:35:44Z</time>
      </trkpt>
      <trkpt lat="42.528691000" lon="-2.411913000">
        <ele>475.90</ele>
        <time>2016-10-15T08:35:45Z</time>
      </trkpt>
      <trkpt lat="42.528642000" lon="-2.411877000">
        <ele>475.60</ele>
        <time>2016-10-15T08:35:46Z</time>
      </trkpt>
      <trkpt lat="42.528588000" lon="-2.411848000">
        <ele>475.20</ele>
        <time>2016-10-15T08:35:47Z</time>
      </trkpt>
      <trkpt lat="42.528532000" lon="-2.411835000">
        <ele>474.90</ele>
        <time>2016-10-15T08:35:48Z</time>
      </trkpt>
      <trkpt lat="42.528479000" lon="-2.411814000">
        <ele>474.80</ele>
        <time>2016-10-15T08:35:49Z</time>
      </trkpt>
      <trkpt lat="42.528425000" lon="-2.411793000">
        <ele>474.70</ele>
        <time>2016-10-15T08:35:50Z</time>
      </trkpt>
      <trkpt lat="42.528373000" lon="-2.411771000">
        <ele>474.70</ele>
        <time>2016-10-15T08:35:51Z</time>
      </trkpt>
      <trkpt lat="42.528319000" lon="-2.411749000">
        <ele>474.70</ele>
        <time>2016-10-15T08:35:52Z</time>
      </trkpt>
      <trkpt lat="42.528267000" lon="-2.411724000">
        <ele>474.70</ele>
        <time>2016-10-15T08:35:53Z</time>
      </trkpt>
      <trkpt lat="42.528220000" lon="-2.411694000">
        <ele>474.70</ele>
        <time>2016-10-15T08:35:54Z</time>
      </trkpt>
      <trkpt lat="42.528176000" lon="-2.411656000">
        <ele>474.70</ele>
        <time>2016-10-15T08:35:55Z</time>
      </trkpt>
      <trkpt lat="42.528135000" lon="-2.411612000">
        <ele>474.80</ele>
        <time>2016-10-15T08:35:56Z</time>
      </trkpt>
      <trkpt lat="42.528091000" lon="-2.411575000">
        <ele>474.70</ele>
        <time>2016-10-15T08:35:57Z</time>
      </trkpt>
      <trkpt lat="42.528049000" lon="-2.411535000">
        <ele>474.70</ele>
        <time>2016-10-15T08:35:58Z</time>
      </trkpt>
      <trkpt lat="42.528007000" lon="-2.411490000">
        <ele>474.60</ele>
        <time>2016-10-15T08:35:59Z</time>
      </trkpt>
      <trkpt lat="42.527966000" lon="-2.411438000">
        <ele>474.60</ele>
        <time>2016-10-15T08:36:00Z</time>
      </trkpt>
      <trkpt lat="42.527925000" lon="-2.411380000">
        <ele>474.60</ele>
        <time>2016-10-15T08:36:01Z</time>
      </trkpt>
      <trkpt lat="42.527885000" lon="-2.411316000">
        <ele>474.60</ele>
        <time>2016-10-15T08:36:02Z</time>
      </trkpt>
      <trkpt lat="42.527848000" lon="-2.411250000">
        <ele>474.50</ele>
        <time>2016-10-15T08:36:03Z</time>
      </trkpt>
      <trkpt lat="42.527811000" lon="-2.411178000">
        <ele>474.50</ele>
        <time>2016-10-15T08:36:04Z</time>
      </trkpt>
      <trkpt lat="42.527775000" lon="-2.411105000">
        <ele>474.60</ele>
        <time>2016-10-15T08:36:05Z</time>
      </trkpt>
      <trkpt lat="42.527741000" lon="-2.411030000">
        <ele>474.70</ele>
        <time>2016-10-15T08:36:06Z</time>
      </trkpt>
      <trkpt lat="42.527705000" lon="-2.410956000">
        <ele>474.60</ele>
        <time>2016-10-15T08:36:07Z</time>
      </trkpt>
      <trkpt lat="42.527670000" lon="-2.410880000">
        <ele>474.50</ele>
        <time>2016-10-15T08:36:08Z</time>
      </trkpt>
      <trkpt lat="42.527632000" lon="-2.410810000">
        <ele>474.40</ele>
        <time>2016-10-15T08:36:09Z</time>
      </trkpt>
      <trkpt lat="42.527597000" lon="-2.410739000">
        <ele>474.30</ele>
        <time>2016-10-15T08:36:10Z</time>
      </trkpt>
      <trkpt lat="42.527560000" lon="-2.410669000">
        <ele>474.20</ele>
        <time>2016-10-15T08:36:11Z</time>
      </trkpt>
      <trkpt lat="42.527523000" lon="-2.410598000">
        <ele>474.20</ele>
        <time>2016-10-15T08:36:12Z</time>
      </trkpt>
      <trkpt lat="42.527486000" lon="-2.410523000">
        <ele>474.20</ele>
        <time>2016-10-15T08:36:13Z</time>
      </trkpt>
      <trkpt lat="42.527448000" lon="-2.410452000">
        <ele>474.10</ele>
        <time>2016-10-15T08:36:14Z</time>
      </trkpt>
      <trkpt lat="42.527411000" lon="-2.410377000">
        <ele>473.90</ele>
        <time>2016-10-15T08:36:15Z</time>
      </trkpt>
      <trkpt lat="42.527372000" lon="-2.410299000">
        <ele>473.70</ele>
        <time>2016-10-15T08:36:16Z</time>
      </trkpt>
      <trkpt lat="42.527329000" lon="-2.410217000">
        <ele>473.60</ele>
        <time>2016-10-15T08:36:17Z</time>
      </trkpt>
      <trkpt lat="42.527290000" lon="-2.410136000">
        <ele>473.40</ele>
        <time>2016-10-15T08:36:18Z</time>
      </trkpt>
      <trkpt lat="42.527251000" lon="-2.410054000">
        <ele>472.90</ele>
        <time>2016-10-15T08:36:19Z</time>
      </trkpt>
      <trkpt lat="42.527209000" lon="-2.409976000">
        <ele>472.60</ele>
        <time>2016-10-15T08:36:20Z</time>
      </trkpt>
      <trkpt lat="42.527166000" lon="-2.409902000">
        <ele>472.30</ele>
        <time>2016-10-15T08:36:21Z</time>
      </trkpt>
      <trkpt lat="42.527125000" lon="-2.409833000">
        <ele>472.10</ele>
        <time>2016-10-15T08:36:22Z</time>
      </trkpt>
      <trkpt lat="42.527088000" lon="-2.409775000">
        <ele>471.90</ele>
        <time>2016-10-15T08:36:23Z</time>
      </trkpt>
      <trkpt lat="42.527051000" lon="-2.409723000">
        <ele>471.80</ele>
        <time>2016-10-15T08:36:24Z</time>
      </trkpt>
      <trkpt lat="42.527017000" lon="-2.409664000">
        <ele>471.60</ele>
        <time>2016-10-15T08:36:25Z</time>
      </trkpt>
      <trkpt lat="42.526985000" lon="-2.409603000">
        <ele>471.50</ele>
        <time>2016-10-15T08:36:26Z</time>
      </trkpt>
      <trkpt lat="42.526952000" lon="-2.409544000">
        <ele>471.30</ele>
        <time>2016-10-15T08:36:27Z</time>
      </trkpt>
      <trkpt lat="42.526919000" lon="-2.409489000">
        <ele>471.10</ele>
        <time>2016-10-15T08:36:28Z</time>
      </trkpt>
      <trkpt lat="42.526883000" lon="-2.409441000">
        <ele>471.00</ele>
        <time>2016-10-15T08:36:29Z</time>
      </trkpt>
      <trkpt lat="42.526849000" lon="-2.409400000">
        <ele>470.90</ele>
        <time>2016-10-15T08:36:30Z</time>
      </trkpt>
      <trkpt lat="42.526817000" lon="-2.409359000">
        <ele>470.80</ele>
        <time>2016-10-15T08:36:31Z</time>
      </trkpt>
      <trkpt lat="42.526783000" lon="-2.409313000">
        <ele>470.70</ele>
        <time>2016-10-15T08:36:32Z</time>
      </trkpt>
      <trkpt lat="42.526749000" lon="-2.409272000">
        <ele>470.90</ele>
        <time>2016-10-15T08:36:33Z</time>
      </trkpt>
      <trkpt lat="42.526712000" lon="-2.409234000">
        <ele>471.10</ele>
        <time>2016-10-15T08:36:34Z</time>
      </trkpt>
      <trkpt lat="42.526673000" lon="-2.409196000">
        <ele>471.10</ele>
        <time>2016-10-15T08:36:35Z</time>
      </trkpt>
      <trkpt lat="42.526598000" lon="-2.409121000">
        <ele>471.20</ele>
        <time>2016-10-15T08:36:37Z</time>
      </trkpt>
      <trkpt lat="42.526567000" lon="-2.409087000">
        <ele>471.30</ele>
        <time>2016-10-15T08:36:38Z</time>
      </trkpt>
      <trkpt lat="42.526535000" lon="-2.409049000">
        <ele>471.40</ele>
        <time>2016-10-15T08:36:39Z</time>
      </trkpt>
      <trkpt lat="42.526500000" lon="-2.409009000">
        <ele>471.50</ele>
        <time>2016-10-15T08:36:40Z</time>
      </trkpt>
      <trkpt lat="42.526469000" lon="-2.408971000">
        <ele>471.60</ele>
        <time>2016-10-15T08:36:41Z</time>
      </trkpt>
      <trkpt lat="42.526437000" lon="-2.408933000">
        <ele>471.60</ele>
        <time>2016-10-15T08:36:42Z</time>
      </trkpt>
      <trkpt lat="42.526401000" lon="-2.408895000">
        <ele>471.30</ele>
        <time>2016-10-15T08:36:43Z</time>
      </trkpt>
      <trkpt lat="42.526355000" lon="-2.408863000">
        <ele>471.10</ele>
        <time>2016-10-15T08:36:44Z</time>
      </trkpt>
      <trkpt lat="42.526303000" lon="-2.408834000">
        <ele>470.70</ele>
        <time>2016-10-15T08:36:45Z</time>
      </trkpt>
      <trkpt lat="42.526244000" lon="-2.408806000">
        <ele>470.40</ele>
        <time>2016-10-15T08:36:46Z</time>
      </trkpt>
      <trkpt lat="42.526181000" lon="-2.408779000">
        <ele>470.00</ele>
        <time>2016-10-15T08:36:47Z</time>
      </trkpt>
      <trkpt lat="42.526112000" lon="-2.408744000">
        <ele>469.70</ele>
        <time>2016-10-15T08:36:48Z</time>
      </trkpt>
      <trkpt lat="42.526046000" lon="-2.408688000">
        <ele>469.40</ele>
        <time>2016-10-15T08:36:49Z</time>
      </trkpt>
      <trkpt lat="42.525974000" lon="-2.408645000">
        <ele>469.10</ele>
        <time>2016-10-15T08:36:50Z</time>
      </trkpt>
      <trkpt lat="42.525907000" lon="-2.408617000">
        <ele>468.60</ele>
        <time>2016-10-15T08:36:51Z</time>
      </trkpt>
      <trkpt lat="42.525841000" lon="-2.408601000">
        <ele>468.20</ele>
        <time>2016-10-15T08:36:52Z</time>
      </trkpt>
      <trkpt lat="42.525788000" lon="-2.408574000">
        <ele>467.10</ele>
        <time>2016-10-15T08:36:53Z</time>
      </trkpt>
      <trkpt lat="42.525749000" lon="-2.408543000">
        <ele>466.40</ele>
        <time>2016-10-15T08:36:54Z</time>
      </trkpt>
      <trkpt lat="42.525716000" lon="-2.408522000">
        <ele>465.70</ele>
        <time>2016-10-15T08:36:55Z</time>
      </trkpt>
      <trkpt lat="42.525681000" lon="-2.408513000">
        <ele>465.20</ele>
        <time>2016-10-15T08:36:56Z</time>
      </trkpt>
      <trkpt lat="42.525645000" lon="-2.408504000">
        <ele>464.40</ele>
        <time>2016-10-15T08:36:57Z</time>
      </trkpt>
      <trkpt lat="42.525606000" lon="-2.408499000">
        <ele>463.80</ele>
        <time>2016-10-15T08:36:58Z</time>
      </trkpt>
      <trkpt lat="42.525564000" lon="-2.408489000">
        <ele>463.30</ele>
        <time>2016-10-15T08:36:59Z</time>
      </trkpt>
      <trkpt lat="42.525518000" lon="-2.408483000">
        <ele>462.90</ele>
        <time>2016-10-15T08:37:00Z</time>
      </trkpt>
      <trkpt lat="42.525474000" lon="-2.408479000">
        <ele>462.60</ele>
        <time>2016-10-15T08:37:01Z</time>
      </trkpt>
      <trkpt lat="42.525425000" lon="-2.408477000">
        <ele>462.40</ele>
        <time>2016-10-15T08:37:02Z</time>
      </trkpt>
      <trkpt lat="42.525375000" lon="-2.408475000">
        <ele>462.20</ele>
        <time>2016-10-15T08:37:03Z</time>
      </trkpt>
      <trkpt lat="42.525326000" lon="-2.408474000">
        <ele>462.00</ele>
        <time>2016-10-15T08:37:04Z</time>
      </trkpt>
      <trkpt lat="42.525275000" lon="-2.408466000">
        <ele>461.70</ele>
        <time>2016-10-15T08:37:05Z</time>
      </trkpt>
      <trkpt lat="42.525227000" lon="-2.408464000">
        <ele>461.40</ele>
        <time>2016-10-15T08:37:06Z</time>
      </trkpt>
      <trkpt lat="42.525188000" lon="-2.408464000">
        <ele>461.10</ele>
        <time>2016-10-15T08:37:07Z</time>
      </trkpt>
      <trkpt lat="42.525153000" lon="-2.408466000">
        <ele>460.90</ele>
        <time>2016-10-15T08:37:08Z</time>
      </trkpt>
      <trkpt lat="42.525113000" lon="-2.408473000">
        <ele>460.90</ele>
        <time>2016-10-15T08:37:09Z</time>
      </trkpt>
      <trkpt lat="42.525072000" lon="-2.408484000">
        <ele>460.80</ele>
        <time>2016-10-15T08:37:10Z</time>
      </trkpt>
      <trkpt lat="42.525025000" lon="-2.408499000">
        <ele>460.60</ele>
        <time>2016-10-15T08:37:11Z</time>
      </trkpt>
      <trkpt lat="42.524978000" lon="-2.408521000">
        <ele>460.40</ele>
        <time>2016-10-15T08:37:12Z</time>
      </trkpt>
      <trkpt lat="42.524931000" lon="-2.408549000">
        <ele>460.30</ele>
        <time>2016-10-15T08:37:13Z</time>
      </trkpt>
      <trkpt lat="42.524885000" lon="-2.408599000">
        <ele>460.20</ele>
        <time>2016-10-15T08:37:14Z</time>
      </trkpt>
      <trkpt lat="42.524835000" lon="-2.408661000">
        <ele>460.10</ele>
        <time>2016-10-15T08:37:15Z</time>
      </trkpt>
      <trkpt lat="42.524787000" lon="-2.408732000">
        <ele>460.00</ele>
        <time>2016-10-15T08:37:16Z</time>
      </trkpt>
      <trkpt lat="42.524745000" lon="-2.408815000">
        <ele>459.60</ele>
        <time>2016-10-15T08:37:17Z</time>
      </trkpt>
      <trkpt lat="42.524700000" lon="-2.408897000">
        <ele>459.30</ele>
        <time>2016-10-15T08:37:18Z</time>
      </trkpt>
      <trkpt lat="42.524650000" lon="-2.408963000">
        <ele>458.70</ele>
        <time>2016-10-15T08:37:19Z</time>
      </trkpt>
      <trkpt lat="42.524592000" lon="-2.409009000">
        <ele>458.20</ele>
        <time>2016-10-15T08:37:20Z</time>
      </trkpt>
      <trkpt lat="42.524530000" lon="-2.409054000">
        <ele>457.40</ele>
        <time>2016-10-15T08:37:21Z</time>
      </trkpt>
      <trkpt lat="42.524469000" lon="-2.409100000">
        <ele>456.80</ele>
        <time>2016-10-15T08:37:22Z</time>
      </trkpt>
      <trkpt lat="42.524415000" lon="-2.409151000">
        <ele>455.90</ele>
        <time>2016-10-15T08:37:23Z</time>
      </trkpt>
      <trkpt lat="42.524369000" lon="-2.409202000">
        <ele>455.20</ele>
        <time>2016-10-15T08:37:24Z</time>
      </trkpt>
      <trkpt lat="42.524329000" lon="-2.409245000">
        <ele>454.20</ele>
        <time>2016-10-15T08:37:25Z</time>
      </trkpt>
      <trkpt lat="42.524301000" lon="-2.409280000">
        <ele>453.40</ele>
        <time>2016-10-15T08:37:26Z</time>
      </trkpt>
      <trkpt lat="42.524286000" lon="-2.409309000">
        <ele>452.10</ele>
        <time>2016-10-15T08:37:27Z</time>
      </trkpt>
      <trkpt lat="42.524280000" lon="-2.409338000">
        <ele>451.10</ele>
        <time>2016-10-15T08:37:28Z</time>
      </trkpt>
      <trkpt lat="42.524282000" lon="-2.409369000">
        <ele>450.20</ele>
        <time>2016-10-15T08:37:29Z</time>
      </trkpt>
      <trkpt lat="42.524286000" lon="-2.409399000">
        <ele>449.60</ele>
        <time>2016-10-15T08:37:30Z</time>
      </trkpt>
      <trkpt lat="42.524290000" lon="-2.409429000">
        <ele>449.20</ele>
        <time>2016-10-15T08:37:31Z</time>
      </trkpt>
      <trkpt lat="42.524286000" lon="-2.409456000">
        <ele>448.80</ele>
        <time>2016-10-15T08:37:32Z</time>
      </trkpt>
      <trkpt lat="42.524284000" lon="-2.409479000">
        <ele>448.50</ele>
        <time>2016-10-15T08:37:33Z</time>
      </trkpt>
      <trkpt lat="42.524283000" lon="-2.409500000">
        <ele>448.20</ele>
        <time>2016-10-15T08:37:34Z</time>
      </trkpt>
      <trkpt lat="42.524280000" lon="-2.409520000">
        <ele>448.00</ele>
        <time>2016-10-15T08:37:35Z</time>
      </trkpt>
      <trkpt lat="42.524270000" lon="-2.409540000">
        <ele>447.80</ele>
        <time>2016-10-15T08:37:36Z</time>
      </trkpt>
      <trkpt lat="42.524261000" lon="-2.409553000">
        <ele>447.60</ele>
        <time>2016-10-15T08:37:37Z</time>
      </trkpt>
      <trkpt lat="42.524250000" lon="-2.409563000">
        <ele>447.30</ele>
        <time>2016-10-15T08:37:39Z</time>
      </trkpt>
      <trkpt lat="42.524234000" lon="-2.409574000">
        <ele>447.10</ele>
        <time>2016-10-15T08:37:40Z</time>
      </trkpt>
      <trkpt lat="42.524211000" lon="-2.409590000">
        <ele>447.00</ele>
        <time>2016-10-15T08:37:41Z</time>
      </trkpt>
      <trkpt lat="42.524193000" lon="-2.409610000">
        <ele>446.90</ele>
        <time>2016-10-15T08:37:42Z</time>
      </trkpt>
      <trkpt lat="42.524174000" lon="-2.409630000">
        <ele>446.80</ele>
        <time>2016-10-15T08:37:43Z</time>
      </trkpt>
      <trkpt lat="42.524153000" lon="-2.409653000">
        <ele>446.80</ele>
        <time>2016-10-15T08:37:44Z</time>
      </trkpt>
      <trkpt lat="42.524132000" lon="-2.409677000">
        <ele>446.90</ele>
        <time>2016-10-15T08:37:45Z</time>
      </trkpt>
      <trkpt lat="42.524105000" lon="-2.409701000">
        <ele>446.90</ele>
        <time>2016-10-15T08:37:46Z</time>
      </trkpt>
      <trkpt lat="42.524074000" lon="-2.409722000">
        <ele>446.90</ele>
        <time>2016-10-15T08:37:47Z</time>
      </trkpt>
      <trkpt lat="42.524041000" lon="-2.409717000">
        <ele>446.90</ele>
        <time>2016-10-15T08:37:48Z</time>
      </trkpt>
      <trkpt lat="42.524021000" lon="-2.409689000">
        <ele>446.80</ele>
        <time>2016-10-15T08:37:49Z</time>
      </trkpt>
      <trkpt lat="42.524014000" lon="-2.409655000">
        <ele>446.70</ele>
        <time>2016-10-15T08:37:50Z</time>
      </trkpt>
      <trkpt lat="42.524009000" lon="-2.409622000">
        <ele>446.60</ele>
        <time>2016-10-15T08:37:51Z</time>
      </trkpt>
      <trkpt lat="42.524014000" lon="-2.409602000">
        <ele>446.50</ele>
        <time>2016-10-15T08:37:52Z</time>
      </trkpt>
      <trkpt lat="42.524015000" lon="-2.409596000">
        <ele>446.50</ele>
        <time>2016-10-15T08:37:53Z</time>
      </trkpt>
      <trkpt lat="42.524014000" lon="-2.409594000">
        <ele>446.40</ele>
        <time>2016-10-15T08:37:54Z</time>
      </trkpt>
      <trkpt lat="42.524014000" lon="-2.409592000">
        <ele>446.50</ele>
        <time>2016-10-15T08:37:55Z</time>
      </trkpt>
      <trkpt lat="42.524014000" lon="-2.409593000">
        <ele>446.50</ele>
        <time>2016-10-15T08:37:56Z</time>
      </trkpt>
      <trkpt lat="42.524015000" lon="-2.409592000">
        <ele>446.50</ele>
        <time>2016-10-15T08:37:57Z</time>
      </trkpt>
      <trkpt lat="42.524013000" lon="-2.409591000">
        <ele>446.50</ele>
        <time>2016-10-15T08:37:58Z</time>
      </trkpt>
      <trkpt lat="42.524013000" lon="-2.409589000">
        <ele>446.50</ele>
        <time>2016-10-15T08:37:59Z</time>
      </trkpt>
      <trkpt lat="42.524011000" lon="-2.409588000">
        <ele>446.40</ele>
        <time>2016-10-15T08:38:00Z</time>
      </trkpt>
      <trkpt lat="42.524010000" lon="-2.409587000">
        <ele>446.30</ele>
        <time>2016-10-15T08:38:01Z</time>
      </trkpt>
      <trkpt lat="42.524011000" lon="-2.409586000">
        <ele>446.30</ele>
        <time>2016-10-15T08:38:02Z</time>
      </trkpt>
      <trkpt lat="42.524009000" lon="-2.409585000">
        <ele>446.30</ele>
        <time>2016-10-15T08:38:03Z</time>
      </trkpt>
      <trkpt lat="42.524009000" lon="-2.409585000">
        <ele>446.30</ele>
        <time>2016-10-15T08:38:04Z</time>
      </trkpt>
      <trkpt lat="42.524008000" lon="-2.409584000">
        <ele>446.30</ele>
        <time>2016-10-15T08:38:05Z</time>
      </trkpt>
      <trkpt lat="42.524007000" lon="-2.409584000">
        <ele>446.40</ele>
        <time>2016-10-15T08:38:06Z</time>
      </trkpt>
      <trkpt lat="42.524005000" lon="-2.409583000">
        <ele>446.40</ele>
        <time>2016-10-15T08:38:07Z</time>
      </trkpt>
      <trkpt lat="42.524005000" lon="-2.409581000">
        <ele>446.50</ele>
        <time>2016-10-15T08:38:08Z</time>
      </trkpt>
      <trkpt lat="42.524006000" lon="-2.409578000">
        <ele>446.50</ele>
        <time>2016-10-15T08:38:09Z</time>
      </trkpt>
      <trkpt lat="42.524008000" lon="-2.409576000">
        <ele>446.50</ele>
        <time>2016-10-15T08:38:10Z</time>
      </trkpt>
      <trkpt lat="42.524009000" lon="-2.409574000">
        <ele>446.60</ele>
        <time>2016-10-15T08:38:11Z</time>
      </trkpt>
      <trkpt lat="42.524006000" lon="-2.409572000">
        <ele>446.60</ele>
        <time>2016-10-15T08:38:12Z</time>
      </trkpt>
      <trkpt lat="42.524004000" lon="-2.409570000">
        <ele>446.70</ele>
        <time>2016-10-15T08:38:13Z</time>
      </trkpt>
      <trkpt lat="42.524004000" lon="-2.409570000">
        <ele>446.70</ele>
        <time>2016-10-15T08:38:14Z</time>
      </trkpt>
      <trkpt lat="42.524003000" lon="-2.409569000">
        <ele>446.70</ele>
        <time>2016-10-15T08:38:15Z</time>
      </trkpt>
      <trkpt lat="42.524004000" lon="-2.409569000">
        <ele>446.80</ele>
        <time>2016-10-15T08:38:16Z</time>
      </trkpt>
      <trkpt lat="42.524003000" lon="-2.409568000">
        <ele>446.80</ele>
        <time>2016-10-15T08:38:17Z</time>
      </trkpt>
      <trkpt lat="42.524003000" lon="-2.409561000">
        <ele>446.80</ele>
        <time>2016-10-15T08:38:18Z</time>
      </trkpt>
      <trkpt lat="42.524004000" lon="-2.409551000">
        <ele>446.80</ele>
        <time>2016-10-15T08:38:19Z</time>
      </trkpt>
      <trkpt lat="42.524008000" lon="-2.409552000">
        <ele>446.80</ele>
        <time>2016-10-15T08:38:20Z</time>
      </trkpt>
      <trkpt lat="42.524015000" lon="-2.409559000">
        <ele>446.70</ele>
        <time>2016-10-15T08:38:21Z</time>
      </trkpt>
      <trkpt lat="42.524014000" lon="-2.409563000">
        <ele>446.70</ele>
        <time>2016-10-15T08:38:22Z</time>
      </trkpt>
      <trkpt lat="42.524013000" lon="-2.409573000">
        <ele>446.60</ele>
        <time>2016-10-15T08:38:23Z</time>
      </trkpt>
      <trkpt lat="42.524012000" lon="-2.409579000">
        <ele>446.60</ele>
        <time>2016-10-15T08:38:24Z</time>
      </trkpt>
      <trkpt lat="42.524014000" lon="-2.409583000">
        <ele>446.50</ele>
        <time>2016-10-15T08:38:25Z</time>
      </trkpt>
      <trkpt lat="42.524015000" lon="-2.409584000">
        <ele>446.50</ele>
        <time>2016-10-15T08:38:26Z</time>
      </trkpt>
      <trkpt lat="42.524016000" lon="-2.409584000">
        <ele>446.50</ele>
        <time>2016-10-15T08:38:27Z</time>
      </trkpt>
      <trkpt lat="42.524018000" lon="-2.409586000">
        <ele>446.40</ele>
        <time>2016-10-15T08:38:28Z</time>
      </trkpt>
      <trkpt lat="42.524021000" lon="-2.409594000">
        <ele>446.40</ele>
        <time>2016-10-15T08:38:29Z</time>
      </trkpt>
      <trkpt lat="42.524019000" lon="-2.409608000">
        <ele>446.40</ele>
        <time>2016-10-15T08:38:30Z</time>
      </trkpt>
      <trkpt lat="42.524018000" lon="-2.409618000">
        <ele>446.40</ele>
        <time>2016-10-15T08:38:31Z</time>
      </trkpt>
      <trkpt lat="42.524015000" lon="-2.409643000">
        <ele>446.40</ele>
        <time>2016-10-15T08:38:32Z</time>
      </trkpt>
      <trkpt lat="42.524016000" lon="-2.409664000">
        <ele>446.40</ele>
        <time>2016-10-15T08:38:33Z</time>
      </trkpt>
      <trkpt lat="42.524020000" lon="-2.409682000">
        <ele>446.40</ele>
        <time>2016-10-15T08:38:34Z</time>
      </trkpt>
      <trkpt lat="42.524024000" lon="-2.409698000">
        <ele>446.50</ele>
        <time>2016-10-15T08:38:35Z</time>
      </trkpt>
      <trkpt lat="42.524027000" lon="-2.409713000">
        <ele>446.50</ele>
        <time>2016-10-15T08:38:36Z</time>
      </trkpt>
      <trkpt lat="42.524026000" lon="-2.409722000">
        <ele>446.40</ele>
        <time>2016-10-15T08:38:37Z</time>
      </trkpt>
      <trkpt lat="42.524028000" lon="-2.409734000">
        <ele>446.30</ele>
        <time>2016-10-15T08:38:38Z</time>
      </trkpt>
      <trkpt lat="42.524033000" lon="-2.409753000">
        <ele>446.50</ele>
        <time>2016-10-15T08:38:40Z</time>
      </trkpt>
      <trkpt lat="42.524039000" lon="-2.409774000">
        <ele>446.50</ele>
        <time>2016-10-15T08:38:41Z</time>
      </trkpt>
      <trkpt lat="42.524040000" lon="-2.409801000">
        <ele>446.40</ele>
        <time>2016-10-15T08:38:42Z</time>
      </trkpt>
      <trkpt lat="42.524040000" lon="-2.409821000">
        <ele>446.40</ele>
        <time>2016-10-15T08:38:43Z</time>
      </trkpt>
      <trkpt lat="42.524035000" lon="-2.409845000">
        <ele>446.40</ele>
        <time>2016-10-15T08:38:44Z</time>
      </trkpt>
      <trkpt lat="42.524023000" lon="-2.409872000">
        <ele>446.40</ele>
        <time>2016-10-15T08:38:45Z</time>
      </trkpt>
      <trkpt lat="42.524007000" lon="-2.409901000">
        <ele>446.40</ele>
        <time>2016-10-15T08:38:46Z</time>
      </trkpt>
      <trkpt lat="42.523992000" lon="-2.409930000">
        <ele>446.50</ele>
        <time>2016-10-15T08:38:47Z</time>
      </trkpt>
      <trkpt lat="42.523975000" lon="-2.409963000">
        <ele>446.50</ele>
        <time>2016-10-15T08:38:48Z</time>
      </trkpt>
      <trkpt lat="42.523952000" lon="-2.409995000">
        <ele>446.60</ele>
        <time>2016-10-15T08:38:49Z</time>
      </trkpt>
      <trkpt lat="42.523923000" lon="-2.410031000">
        <ele>446.70</ele>
        <time>2016-10-15T08:38:50Z</time>
      </trkpt>
      <trkpt lat="42.523896000" lon="-2.410059000">
        <ele>446.70</ele>
        <time>2016-10-15T08:38:51Z</time>
      </trkpt>
      <trkpt lat="42.523865000" lon="-2.410079000">
        <ele>446.80</ele>
        <time>2016-10-15T08:38:52Z</time>
      </trkpt>
      <trkpt lat="42.523834000" lon="-2.410096000">
        <ele>446.90</ele>
        <time>2016-10-15T08:38:53Z</time>
      </trkpt>
      <trkpt lat="42.523805000" lon="-2.410112000">
        <ele>447.00</ele>
        <time>2016-10-15T08:38:54Z</time>
      </trkpt>
      <trkpt lat="42.523780000" lon="-2.410128000">
        <ele>447.20</ele>
        <time>2016-10-15T08:38:55Z</time>
      </trkpt>
      <trkpt lat="42.523755000" lon="-2.410138000">
        <ele>447.40</ele>
        <time>2016-10-15T08:38:56Z</time>
      </trkpt>
      <trkpt lat="42.523727000" lon="-2.410142000">
        <ele>447.70</ele>
        <time>2016-10-15T08:38:57Z</time>
      </trkpt>
      <trkpt lat="42.523699000" lon="-2.410145000">
        <ele>447.90</ele>
        <time>2016-10-15T08:38:58Z</time>
      </trkpt>
      <trkpt lat="42.523670000" lon="-2.410145000">
        <ele>448.10</ele>
        <time>2016-10-15T08:38:59Z</time>
      </trkpt>
      <trkpt lat="42.523641000" lon="-2.410140000">
        <ele>448.20</ele>
        <time>2016-10-15T08:39:00Z</time>
      </trkpt>
      <trkpt lat="42.523609000" lon="-2.410135000">
        <ele>448.40</ele>
        <time>2016-10-15T08:39:01Z</time>
      </trkpt>
      <trkpt lat="42.523573000" lon="-2.410133000">
        <ele>448.60</ele>
        <time>2016-10-15T08:39:02Z</time>
      </trkpt>
      <trkpt lat="42.523539000" lon="-2.410132000">
        <ele>448.80</ele>
        <time>2016-10-15T08:39:03Z</time>
      </trkpt>
      <trkpt lat="42.523503000" lon="-2.410136000">
        <ele>449.00</ele>
        <time>2016-10-15T08:39:04Z</time>
      </trkpt>
      <trkpt lat="42.523467000" lon="-2.410138000">
        <ele>449.40</ele>
        <time>2016-10-15T08:39:05Z</time>
      </trkpt>
      <trkpt lat="42.523433000" lon="-2.410140000">
        <ele>449.70</ele>
        <time>2016-10-15T08:39:06Z</time>
      </trkpt>
      <trkpt lat="42.523397000" lon="-2.410142000">
        <ele>450.20</ele>
        <time>2016-10-15T08:39:07Z</time>
      </trkpt>
      <trkpt lat="42.523363000" lon="-2.410138000">
        <ele>450.50</ele>
        <time>2016-10-15T08:39:08Z</time>
      </trkpt>
      <trkpt lat="42.523328000" lon="-2.410133000">
        <ele>450.80</ele>
        <time>2016-10-15T08:39:09Z</time>
      </trkpt>
      <trkpt lat="42.523295000" lon="-2.410129000">
        <ele>451.00</ele>
        <time>2016-10-15T08:39:10Z</time>
      </trkpt>
      <trkpt lat="42.523260000" lon="-2.410124000">
        <ele>451.20</ele>
        <time>2016-10-15T08:39:11Z</time>
      </trkpt>
      <trkpt lat="42.523224000" lon="-2.410123000">
        <ele>451.40</ele>
        <time>2016-10-15T08:39:12Z</time>
      </trkpt>
      <trkpt lat="42.523190000" lon="-2.410124000">
        <ele>451.90</ele>
        <time>2016-10-15T08:39:13Z</time>
      </trkpt>
      <trkpt lat="42.523155000" lon="-2.410124000">
        <ele>452.30</ele>
        <time>2016-10-15T08:39:14Z</time>
      </trkpt>
      <trkpt lat="42.523121000" lon="-2.410129000">
        <ele>452.60</ele>
        <time>2016-10-15T08:39:15Z</time>
      </trkpt>
      <trkpt lat="42.523088000" lon="-2.410137000">
        <ele>452.90</ele>
        <time>2016-10-15T08:39:16Z</time>
      </trkpt>
      <trkpt lat="42.523052000" lon="-2.410141000">
        <ele>453.40</ele>
        <time>2016-10-15T08:39:17Z</time>
      </trkpt>
      <trkpt lat="42.523018000" lon="-2.410141000">
        <ele>453.70</ele>
        <time>2016-10-15T08:39:18Z</time>
      </trkpt>
      <trkpt lat="42.522983000" lon="-2.410136000">
        <ele>454.00</ele>
        <time>2016-10-15T08:39:19Z</time>
      </trkpt>
      <trkpt lat="42.522949000" lon="-2.410132000">
        <ele>454.20</ele>
        <time>2016-10-15T08:39:20Z</time>
      </trkpt>
      <trkpt lat="42.522914000" lon="-2.410134000">
        <ele>454.70</ele>
        <time>2016-10-15T08:39:21Z</time>
      </trkpt>
      <trkpt lat="42.522880000" lon="-2.410138000">
        <ele>455.10</ele>
        <time>2016-10-15T08:39:22Z</time>
      </trkpt>
      <trkpt lat="42.522847000" lon="-2.410145000">
        <ele>455.50</ele>
        <time>2016-10-15T08:39:23Z</time>
      </trkpt>
      <trkpt lat="42.522814000" lon="-2.410155000">
        <ele>455.70</ele>
        <time>2016-10-15T08:39:24Z</time>
      </trkpt>
      <trkpt lat="42.522781000" lon="-2.410166000">
        <ele>456.20</ele>
        <time>2016-10-15T08:39:25Z</time>
      </trkpt>
      <trkpt lat="42.522749000" lon="-2.410178000">
        <ele>456.60</ele>
        <time>2016-10-15T08:39:26Z</time>
      </trkpt>
      <trkpt lat="42.522715000" lon="-2.410193000">
        <ele>456.80</ele>
        <time>2016-10-15T08:39:27Z</time>
      </trkpt>
      <trkpt lat="42.522683000" lon="-2.410210000">
        <ele>457.00</ele>
        <time>2016-10-15T08:39:28Z</time>
      </trkpt>
      <trkpt lat="42.522652000" lon="-2.410231000">
        <ele>457.20</ele>
        <time>2016-10-15T08:39:29Z</time>
      </trkpt>
      <trkpt lat="42.522619000" lon="-2.410253000">
        <ele>457.30</ele>
        <time>2016-10-15T08:39:30Z</time>
      </trkpt>
      <trkpt lat="42.522586000" lon="-2.410273000">
        <ele>457.40</ele>
        <time>2016-10-15T08:39:31Z</time>
      </trkpt>
      <trkpt lat="42.522552000" lon="-2.410296000">
        <ele>457.50</ele>
        <time>2016-10-15T08:39:32Z</time>
      </trkpt>
      <trkpt lat="42.522522000" lon="-2.410322000">
        <ele>457.90</ele>
        <time>2016-10-15T08:39:33Z</time>
      </trkpt>
      <trkpt lat="42.522491000" lon="-2.410345000">
        <ele>458.10</ele>
        <time>2016-10-15T08:39:34Z</time>
      </trkpt>
      <trkpt lat="42.522464000" lon="-2.410372000">
        <ele>458.50</ele>
        <time>2016-10-15T08:39:35Z</time>
      </trkpt>
      <trkpt lat="42.522434000" lon="-2.410396000">
        <ele>458.80</ele>
        <time>2016-10-15T08:39:36Z</time>
      </trkpt>
      <trkpt lat="42.522407000" lon="-2.410415000">
        <ele>459.30</ele>
        <time>2016-10-15T08:39:37Z</time>
      </trkpt>
      <trkpt lat="42.522384000" lon="-2.410432000">
        <ele>459.60</ele>
        <time>2016-10-15T08:39:38Z</time>
      </trkpt>
      <trkpt lat="42.522360000" lon="-2.410446000">
        <ele>460.00</ele>
        <time>2016-10-15T08:39:39Z</time>
      </trkpt>
      <trkpt lat="42.522318000" lon="-2.410472000">
        <ele>460.60</ele>
        <time>2016-10-15T08:39:41Z</time>
      </trkpt>
      <trkpt lat="42.522302000" lon="-2.410489000">
        <ele>460.90</ele>
        <time>2016-10-15T08:39:42Z</time>
      </trkpt>
      <trkpt lat="42.522285000" lon="-2.410500000">
        <ele>461.20</ele>
        <time>2016-10-15T08:39:43Z</time>
      </trkpt>
      <trkpt lat="42.522271000" lon="-2.410511000">
        <ele>461.40</ele>
        <time>2016-10-15T08:39:44Z</time>
      </trkpt>
      <trkpt lat="42.522256000" lon="-2.410519000">
        <ele>461.60</ele>
        <time>2016-10-15T08:39:45Z</time>
      </trkpt>
      <trkpt lat="42.522245000" lon="-2.410522000">
        <ele>461.70</ele>
        <time>2016-10-15T08:39:46Z</time>
      </trkpt>
      <trkpt lat="42.522238000" lon="-2.410517000">
        <ele>461.80</ele>
        <time>2016-10-15T08:39:47Z</time>
      </trkpt>
      <trkpt lat="42.522236000" lon="-2.410519000">
        <ele>461.80</ele>
        <time>2016-10-15T08:39:48Z</time>
      </trkpt>
      <trkpt lat="42.522234000" lon="-2.410518000">
        <ele>461.90</ele>
        <time>2016-10-15T08:39:49Z</time>
      </trkpt>
      <trkpt lat="42.522235000" lon="-2.410519000">
        <ele>462.00</ele>
        <time>2016-10-15T08:39:50Z</time>
      </trkpt>
      <trkpt lat="42.522234000" lon="-2.410521000">
        <ele>462.10</ele>
        <time>2016-10-15T08:39:51Z</time>
      </trkpt>
      <trkpt lat="42.522232000" lon="-2.410517000">
        <ele>462.10</ele>
        <time>2016-10-15T08:39:52Z</time>
      </trkpt>
      <trkpt lat="42.522234000" lon="-2.410517000">
        <ele>462.20</ele>
        <time>2016-10-15T08:39:53Z</time>
      </trkpt>
      <trkpt lat="42.522235000" lon="-2.410515000">
        <ele>462.20</ele>
        <time>2016-10-15T08:39:54Z</time>
      </trkpt>
      <trkpt lat="42.522234000" lon="-2.410514000">
        <ele>462.20</ele>
        <time>2016-10-15T08:39:55Z</time>
      </trkpt>
      <trkpt lat="42.522232000" lon="-2.410515000">
        <ele>462.10</ele>
        <time>2016-10-15T08:39:56Z</time>
      </trkpt>
      <trkpt lat="42.522229000" lon="-2.410515000">
        <ele>462.00</ele>
        <time>2016-10-15T08:39:57Z</time>
      </trkpt>
      <trkpt lat="42.522226000" lon="-2.410518000">
        <ele>462.00</ele>
        <time>2016-10-15T08:39:58Z</time>
      </trkpt>
      <trkpt lat="42.522224000" lon="-2.410517000">
        <ele>461.90</ele>
        <time>2016-10-15T08:39:59Z</time>
      </trkpt>
      <trkpt lat="42.522223000" lon="-2.410514000">
        <ele>461.90</ele>
        <time>2016-10-15T08:40:00Z</time>
      </trkpt>
      <trkpt lat="42.522221000" lon="-2.410513000">
        <ele>461.90</ele>
        <time>2016-10-15T08:40:01Z</time>
      </trkpt>
      <trkpt lat="42.522218000" lon="-2.410515000">
        <ele>461.80</ele>
        <time>2016-10-15T08:40:02Z</time>
      </trkpt>
      <trkpt lat="42.522217000" lon="-2.410516000">
        <ele>462.00</ele>
        <time>2016-10-15T08:40:03Z</time>
      </trkpt>
      <trkpt lat="42.522220000" lon="-2.410516000">
        <ele>462.10</ele>
        <time>2016-10-15T08:40:04Z</time>
      </trkpt>
      <trkpt lat="42.522221000" lon="-2.410514000">
        <ele>462.10</ele>
        <time>2016-10-15T08:40:05Z</time>
      </trkpt>
      <trkpt lat="42.522226000" lon="-2.410512000">
        <ele>462.20</ele>
        <time>2016-10-15T08:40:06Z</time>
      </trkpt>
      <trkpt lat="42.522231000" lon="-2.410510000">
        <ele>462.30</ele>
        <time>2016-10-15T08:40:07Z</time>
      </trkpt>
      <trkpt lat="42.522236000" lon="-2.410513000">
        <ele>462.40</ele>
        <time>2016-10-15T08:40:08Z</time>
      </trkpt>
      <trkpt lat="42.522240000" lon="-2.410517000">
        <ele>462.50</ele>
        <time>2016-10-15T08:40:09Z</time>
      </trkpt>
      <trkpt lat="42.522244000" lon="-2.410520000">
        <ele>462.50</ele>
        <time>2016-10-15T08:40:10Z</time>
      </trkpt>
      <trkpt lat="42.522250000" lon="-2.410524000">
        <ele>462.50</ele>
        <time>2016-10-15T08:40:11Z</time>
      </trkpt>
      <trkpt lat="42.522252000" lon="-2.410525000">
        <ele>462.60</ele>
        <time>2016-10-15T08:40:12Z</time>
      </trkpt>
      <trkpt lat="42.522254000" lon="-2.410527000">
        <ele>462.50</ele>
        <time>2016-10-15T08:40:13Z</time>
      </trkpt>
      <trkpt lat="42.522254000" lon="-2.410534000">
        <ele>462.50</ele>
        <time>2016-10-15T08:40:14Z</time>
      </trkpt>
      <trkpt lat="42.522253000" lon="-2.410536000">
        <ele>462.50</ele>
        <time>2016-10-15T08:40:15Z</time>
      </trkpt>
      <trkpt lat="42.522252000" lon="-2.410537000">
        <ele>462.40</ele>
        <time>2016-10-15T08:40:16Z</time>
      </trkpt>
      <trkpt lat="42.522252000" lon="-2.410537000">
        <ele>462.40</ele>
        <time>2016-10-15T08:40:17Z</time>
      </trkpt>
      <trkpt lat="42.522251000" lon="-2.410535000">
        <ele>462.40</ele>
        <time>2016-10-15T08:40:18Z</time>
      </trkpt>
      <trkpt lat="42.522247000" lon="-2.410531000">
        <ele>462.40</ele>
        <time>2016-10-15T08:40:19Z</time>
      </trkpt>
      <trkpt lat="42.522245000" lon="-2.410527000">
        <ele>462.40</ele>
        <time>2016-10-15T08:40:20Z</time>
      </trkpt>
      <trkpt lat="42.522242000" lon="-2.410525000">
        <ele>462.50</ele>
        <time>2016-10-15T08:40:21Z</time>
      </trkpt>
      <trkpt lat="42.522240000" lon="-2.410524000">
        <ele>462.50</ele>
        <time>2016-10-15T08:40:22Z</time>
      </trkpt>
      <trkpt lat="42.522239000" lon="-2.410525000">
        <ele>462.50</ele>
        <time>2016-10-15T08:40:23Z</time>
      </trkpt>
      <trkpt lat="42.522238000" lon="-2.410525000">
        <ele>462.50</ele>
        <time>2016-10-15T08:40:24Z</time>
      </trkpt>
      <trkpt lat="42.522237000" lon="-2.410525000">
        <ele>462.50</ele>
        <time>2016-10-15T08:40:25Z</time>
      </trkpt>
      <trkpt lat="42.522238000" lon="-2.410521000">
        <ele>462.50</ele>
        <time>2016-10-15T08:40:26Z</time>
      </trkpt>
      <trkpt lat="42.522238000" lon="-2.410515000">
        <ele>462.40</ele>
        <time>2016-10-15T08:40:27Z</time>
      </trkpt>
      <trkpt lat="42.522237000" lon="-2.410510000">
        <ele>462.40</ele>
        <time>2016-10-15T08:40:28Z</time>
      </trkpt>
      <trkpt lat="42.522234000" lon="-2.410506000">
        <ele>462.30</ele>
        <time>2016-10-15T08:40:29Z</time>
      </trkpt>
      <trkpt lat="42.522232000" lon="-2.410503000">
        <ele>462.30</ele>
        <time>2016-10-15T08:40:30Z</time>
      </trkpt>
      <trkpt lat="42.522231000" lon="-2.410500000">
        <ele>462.30</ele>
        <time>2016-10-15T08:40:31Z</time>
      </trkpt>
      <trkpt lat="42.522230000" lon="-2.410500000">
        <ele>462.30</ele>
        <time>2016-10-15T08:40:32Z</time>
      </trkpt>
      <trkpt lat="42.522230000" lon="-2.410502000">
        <ele>462.40</ele>
        <time>2016-10-15T08:40:33Z</time>
      </trkpt>
      <trkpt lat="42.522232000" lon="-2.410502000">
        <ele>462.50</ele>
        <time>2016-10-15T08:40:34Z</time>
      </trkpt>
      <trkpt lat="42.522232000" lon="-2.410502000">
        <ele>462.40</ele>
        <time>2016-10-15T08:40:35Z</time>
      </trkpt>
      <trkpt lat="42.522233000" lon="-2.410503000">
        <ele>462.40</ele>
        <time>2016-10-15T08:40:36Z</time>
      </trkpt>
      <trkpt lat="42.522232000" lon="-2.410510000">
        <ele>462.40</ele>
        <time>2016-10-15T08:40:37Z</time>
      </trkpt>
      <trkpt lat="42.522224000" lon="-2.410525000">
        <ele>462.50</ele>
        <time>2016-10-15T08:40:38Z</time>
      </trkpt>
      <trkpt lat="42.522215000" lon="-2.410542000">
        <ele>462.40</ele>
        <time>2016-10-15T08:40:39Z</time>
      </trkpt>
      <trkpt lat="42.522202000" lon="-2.410558000">
        <ele>462.40</ele>
        <time>2016-10-15T08:40:40Z</time>
      </trkpt>
      <trkpt lat="42.522159000" lon="-2.410594000">
        <ele>462.50</ele>
        <time>2016-10-15T08:40:42Z</time>
      </trkpt>
      <trkpt lat="42.522130000" lon="-2.410609000">
        <ele>462.60</ele>
        <time>2016-10-15T08:40:43Z</time>
      </trkpt>
      <trkpt lat="42.522101000" lon="-2.410625000">
        <ele>462.70</ele>
        <time>2016-10-15T08:40:44Z</time>
      </trkpt>
      <trkpt lat="42.522073000" lon="-2.410642000">
        <ele>462.80</ele>
        <time>2016-10-15T08:40:45Z</time>
      </trkpt>
      <trkpt lat="42.522044000" lon="-2.410654000">
        <ele>462.90</ele>
        <time>2016-10-15T08:40:46Z</time>
      </trkpt>
      <trkpt lat="42.522015000" lon="-2.410664000">
        <ele>462.80</ele>
        <time>2016-10-15T08:40:47Z</time>
      </trkpt>
      <trkpt lat="42.521985000" lon="-2.410675000">
        <ele>462.80</ele>
        <time>2016-10-15T08:40:48Z</time>
      </trkpt>
      <trkpt lat="42.521957000" lon="-2.410685000">
        <ele>462.70</ele>
        <time>2016-10-15T08:40:49Z</time>
      </trkpt>
      <trkpt lat="42.521927000" lon="-2.410698000">
        <ele>462.70</ele>
        <time>2016-10-15T08:40:50Z</time>
      </trkpt>
      <trkpt lat="42.521896000" lon="-2.410709000">
        <ele>462.80</ele>
        <time>2016-10-15T08:40:51Z</time>
      </trkpt>
      <trkpt lat="42.521862000" lon="-2.410720000">
        <ele>462.90</ele>
        <time>2016-10-15T08:40:52Z</time>
      </trkpt>
      <trkpt lat="42.521827000" lon="-2.410728000">
        <ele>463.10</ele>
        <time>2016-10-15T08:40:53Z</time>
      </trkpt>
      <trkpt lat="42.521795000" lon="-2.410732000">
        <ele>463.20</ele>
        <time>2016-10-15T08:40:54Z</time>
      </trkpt>
      <trkpt lat="42.521760000" lon="-2.410735000">
        <ele>463.40</ele>
        <time>2016-10-15T08:40:55Z</time>
      </trkpt>
      <trkpt lat="42.521721000" lon="-2.410742000">
        <ele>463.40</ele>
        <time>2016-10-15T08:40:56Z</time>
      </trkpt>
      <trkpt lat="42.521681000" lon="-2.410752000">
        <ele>463.50</ele>
        <time>2016-10-15T08:40:57Z</time>
      </trkpt>
      <trkpt lat="42.521639000" lon="-2.410765000">
        <ele>463.50</ele>
        <time>2016-10-15T08:40:58Z</time>
      </trkpt>
      <trkpt lat="42.521586000" lon="-2.410783000">
        <ele>463.50</ele>
        <time>2016-10-15T08:40:59Z</time>
      </trkpt>
      <trkpt lat="42.521530000" lon="-2.410813000">
        <ele>463.30</ele>
        <time>2016-10-15T08:41:00Z</time>
      </trkpt>
      <trkpt lat="42.521473000" lon="-2.410865000">
        <ele>463.20</ele>
        <time>2016-10-15T08:41:01Z</time>
      </trkpt>
      <trkpt lat="42.521418000" lon="-2.410932000">
        <ele>462.60</ele>
        <time>2016-10-15T08:41:02Z</time>
      </trkpt>
      <trkpt lat="42.521367000" lon="-2.410986000">
        <ele>462.20</ele>
        <time>2016-10-15T08:41:03Z</time>
      </trkpt>
      <trkpt lat="42.521314000" lon="-2.411017000">
        <ele>461.50</ele>
        <time>2016-10-15T08:41:04Z</time>
      </trkpt>
      <trkpt lat="42.521260000" lon="-2.411013000">
        <ele>460.90</ele>
        <time>2016-10-15T08:41:05Z</time>
      </trkpt>
      <trkpt lat="42.521212000" lon="-2.410978000">
        <ele>460.50</ele>
        <time>2016-10-15T08:41:06Z</time>
      </trkpt>
      <trkpt lat="42.521172000" lon="-2.410929000">
        <ele>460.20</ele>
        <time>2016-10-15T08:41:07Z</time>
      </trkpt>
      <trkpt lat="42.521130000" lon="-2.410879000">
        <ele>460.00</ele>
        <time>2016-10-15T08:41:08Z</time>
      </trkpt>
      <trkpt lat="42.521086000" lon="-2.410835000">
        <ele>459.90</ele>
        <time>2016-10-15T08:41:09Z</time>
      </trkpt>
      <trkpt lat="42.521041000" lon="-2.410798000">
        <ele>459.80</ele>
        <time>2016-10-15T08:41:10Z</time>
      </trkpt>
      <trkpt lat="42.520994000" lon="-2.410763000">
        <ele>459.80</ele>
        <time>2016-10-15T08:41:11Z</time>
      </trkpt>
      <trkpt lat="42.520949000" lon="-2.410727000">
        <ele>459.80</ele>
        <time>2016-10-15T08:41:12Z</time>
      </trkpt>
      <trkpt lat="42.520905000" lon="-2.410689000">
        <ele>459.90</ele>
        <time>2016-10-15T08:41:13Z</time>
      </trkpt>
      <trkpt lat="42.520863000" lon="-2.410647000">
        <ele>459.80</ele>
        <time>2016-10-15T08:41:14Z</time>
      </trkpt>
      <trkpt lat="42.520826000" lon="-2.410602000">
        <ele>459.80</ele>
        <time>2016-10-15T08:41:15Z</time>
      </trkpt>
      <trkpt lat="42.520792000" lon="-2.410550000">
        <ele>459.80</ele>
        <time>2016-10-15T08:41:16Z</time>
      </trkpt>
      <trkpt lat="42.520761000" lon="-2.410496000">
        <ele>459.90</ele>
        <time>2016-10-15T08:41:17Z</time>
      </trkpt>
      <trkpt lat="42.520733000" lon="-2.410439000">
        <ele>460.00</ele>
        <time>2016-10-15T08:41:18Z</time>
      </trkpt>
      <trkpt lat="42.520710000" lon="-2.410376000">
        <ele>460.10</ele>
        <time>2016-10-15T08:41:19Z</time>
      </trkpt>
      <trkpt lat="42.520692000" lon="-2.410310000">
        <ele>460.10</ele>
        <time>2016-10-15T08:41:20Z</time>
      </trkpt>
      <trkpt lat="42.520676000" lon="-2.410242000">
        <ele>460.20</ele>
        <time>2016-10-15T08:41:21Z</time>
      </trkpt>
      <trkpt lat="42.520663000" lon="-2.410173000">
        <ele>460.10</ele>
        <time>2016-10-15T08:41:22Z</time>
      </trkpt>
      <trkpt lat="42.520652000" lon="-2.410102000">
        <ele>460.00</ele>
        <time>2016-10-15T08:41:23Z</time>
      </trkpt>
      <trkpt lat="42.520645000" lon="-2.410035000">
        <ele>459.90</ele>
        <time>2016-10-15T08:41:24Z</time>
      </trkpt>
      <trkpt lat="42.520633000" lon="-2.409969000">
        <ele>459.90</ele>
        <time>2016-10-15T08:41:25Z</time>
      </trkpt>
      <trkpt lat="42.520616000" lon="-2.409908000">
        <ele>459.80</ele>
        <time>2016-10-15T08:41:26Z</time>
      </trkpt>
      <trkpt lat="42.520595000" lon="-2.409851000">
        <ele>459.70</ele>
        <time>2016-10-15T08:41:27Z</time>
      </trkpt>
      <trkpt lat="42.520571000" lon="-2.409796000">
        <ele>459.90</ele>
        <time>2016-10-15T08:41:28Z</time>
      </trkpt>
      <trkpt lat="42.520548000" lon="-2.409740000">
        <ele>460.10</ele>
        <time>2016-10-15T08:41:29Z</time>
      </trkpt>
      <trkpt lat="42.520519000" lon="-2.409688000">
        <ele>460.20</ele>
        <time>2016-10-15T08:41:30Z</time>
      </trkpt>
      <trkpt lat="42.520490000" lon="-2.409639000">
        <ele>460.30</ele>
        <time>2016-10-15T08:41:31Z</time>
      </trkpt>
      <trkpt lat="42.520461000" lon="-2.409590000">
        <ele>460.40</ele>
        <time>2016-10-15T08:41:32Z</time>
      </trkpt>
      <trkpt lat="42.520432000" lon="-2.409542000">
        <ele>460.40</ele>
        <time>2016-10-15T08:41:33Z</time>
      </trkpt>
      <trkpt lat="42.520404000" lon="-2.409491000">
        <ele>460.50</ele>
        <time>2016-10-15T08:41:34Z</time>
      </trkpt>
      <trkpt lat="42.520373000" lon="-2.409440000">
        <ele>460.60</ele>
        <time>2016-10-15T08:41:35Z</time>
      </trkpt>
      <trkpt lat="42.520341000" lon="-2.409389000">
        <ele>460.80</ele>
        <time>2016-10-15T08:41:36Z</time>
      </trkpt>
      <trkpt lat="42.520307000" lon="-2.409339000">
        <ele>461.00</ele>
        <time>2016-10-15T08:41:37Z</time>
      </trkpt>
      <trkpt lat="42.520267000" lon="-2.409289000">
        <ele>461.10</ele>
        <time>2016-10-15T08:41:38Z</time>
      </trkpt>
      <trkpt lat="42.520226000" lon="-2.409238000">
        <ele>461.20</ele>
        <time>2016-10-15T08:41:39Z</time>
      </trkpt>
      <trkpt lat="42.520185000" lon="-2.409189000">
        <ele>461.00</ele>
        <time>2016-10-15T08:41:40Z</time>
      </trkpt>
      <trkpt lat="42.520145000" lon="-2.409136000">
        <ele>460.80</ele>
        <time>2016-10-15T08:41:41Z</time>
      </trkpt>
      <trkpt lat="42.520075000" lon="-2.409020000">
        <ele>460.50</ele>
        <time>2016-10-15T08:41:43Z</time>
      </trkpt>
      <trkpt lat="42.520043000" lon="-2.408958000">
        <ele>460.40</ele>
        <time>2016-10-15T08:41:44Z</time>
      </trkpt>
      <trkpt lat="42.520016000" lon="-2.408892000">
        <ele>460.30</ele>
        <time>2016-10-15T08:41:45Z</time>
      </trkpt>
      <trkpt lat="42.519991000" lon="-2.408826000">
        <ele>460.20</ele>
        <time>2016-10-15T08:41:46Z</time>
      </trkpt>
      <trkpt lat="42.519972000" lon="-2.408761000">
        <ele>460.10</ele>
        <time>2016-10-15T08:41:47Z</time>
      </trkpt>
      <trkpt lat="42.519954000" lon="-2.408695000">
        <ele>460.30</ele>
        <time>2016-10-15T08:41:48Z</time>
      </trkpt>
      <trkpt lat="42.519935000" lon="-2.408630000">
        <ele>460.30</ele>
        <time>2016-10-15T08:41:49Z</time>
      </trkpt>
      <trkpt lat="42.519922000" lon="-2.408571000">
        <ele>460.40</ele>
        <time>2016-10-15T08:41:50Z</time>
      </trkpt>
      <trkpt lat="42.519914000" lon="-2.408519000">
        <ele>460.50</ele>
        <time>2016-10-15T08:41:51Z</time>
      </trkpt>
      <trkpt lat="42.519899000" lon="-2.408474000">
        <ele>460.50</ele>
        <time>2016-10-15T08:41:52Z</time>
      </trkpt>
      <trkpt lat="42.519879000" lon="-2.408433000">
        <ele>460.50</ele>
        <time>2016-10-15T08:41:53Z</time>
      </trkpt>
      <trkpt lat="42.519855000" lon="-2.408398000">
        <ele>460.60</ele>
        <time>2016-10-15T08:41:54Z</time>
      </trkpt>
      <trkpt lat="42.519828000" lon="-2.408365000">
        <ele>460.70</ele>
        <time>2016-10-15T08:41:55Z</time>
      </trkpt>
      <trkpt lat="42.519801000" lon="-2.408337000">
        <ele>460.70</ele>
        <time>2016-10-15T08:41:56Z</time>
      </trkpt>
      <trkpt lat="42.519769000" lon="-2.408321000">
        <ele>460.80</ele>
        <time>2016-10-15T08:41:57Z</time>
      </trkpt>
      <trkpt lat="42.519735000" lon="-2.408307000">
        <ele>460.80</ele>
        <time>2016-10-15T08:41:58Z</time>
      </trkpt>
      <trkpt lat="42.519701000" lon="-2.408290000">
        <ele>460.80</ele>
        <time>2016-10-15T08:41:59Z</time>
      </trkpt>
      <trkpt lat="42.519664000" lon="-2.408275000">
        <ele>460.90</ele>
        <time>2016-10-15T08:42:00Z</time>
      </trkpt>
      <trkpt lat="42.519627000" lon="-2.408263000">
        <ele>461.00</ele>
        <time>2016-10-15T08:42:01Z</time>
      </trkpt>
      <trkpt lat="42.519588000" lon="-2.408250000">
        <ele>461.20</ele>
        <time>2016-10-15T08:42:02Z</time>
      </trkpt>
      <trkpt lat="42.519548000" lon="-2.408238000">
        <ele>461.40</ele>
        <time>2016-10-15T08:42:03Z</time>
      </trkpt>
      <trkpt lat="42.519511000" lon="-2.408229000">
        <ele>461.50</ele>
        <time>2016-10-15T08:42:04Z</time>
      </trkpt>
      <trkpt lat="42.519475000" lon="-2.408221000">
        <ele>461.60</ele>
        <time>2016-10-15T08:42:05Z</time>
      </trkpt>
      <trkpt lat="42.519439000" lon="-2.408213000">
        <ele>461.70</ele>
        <time>2016-10-15T08:42:06Z</time>
      </trkpt>
      <trkpt lat="42.519402000" lon="-2.408207000">
        <ele>461.80</ele>
        <time>2016-10-15T08:42:07Z</time>
      </trkpt>
      <trkpt lat="42.519365000" lon="-2.408202000">
        <ele>462.00</ele>
        <time>2016-10-15T08:42:08Z</time>
      </trkpt>
      <trkpt lat="42.519333000" lon="-2.408199000">
        <ele>462.20</ele>
        <time>2016-10-15T08:42:09Z</time>
      </trkpt>
      <trkpt lat="42.519302000" lon="-2.408193000">
        <ele>462.40</ele>
        <time>2016-10-15T08:42:10Z</time>
      </trkpt>
      <trkpt lat="42.519271000" lon="-2.408186000">
        <ele>462.50</ele>
        <time>2016-10-15T08:42:11Z</time>
      </trkpt>
      <trkpt lat="42.519241000" lon="-2.408178000">
        <ele>462.80</ele>
        <time>2016-10-15T08:42:12Z</time>
      </trkpt>
      <trkpt lat="42.519209000" lon="-2.408168000">
        <ele>463.00</ele>
        <time>2016-10-15T08:42:13Z</time>
      </trkpt>
      <trkpt lat="42.519175000" lon="-2.408159000">
        <ele>463.10</ele>
        <time>2016-10-15T08:42:14Z</time>
      </trkpt>
      <trkpt lat="42.519146000" lon="-2.408150000">
        <ele>463.20</ele>
        <time>2016-10-15T08:42:15Z</time>
      </trkpt>
      <trkpt lat="42.519118000" lon="-2.408142000">
        <ele>463.60</ele>
        <time>2016-10-15T08:42:16Z</time>
      </trkpt>
      <trkpt lat="42.519095000" lon="-2.408136000">
        <ele>463.90</ele>
        <time>2016-10-15T08:42:17Z</time>
      </trkpt>
      <trkpt lat="42.519073000" lon="-2.408130000">
        <ele>464.30</ele>
        <time>2016-10-15T08:42:18Z</time>
      </trkpt>
      <trkpt lat="42.519048000" lon="-2.408120000">
        <ele>464.60</ele>
        <time>2016-10-15T08:42:19Z</time>
      </trkpt>
      <trkpt lat="42.519021000" lon="-2.408110000">
        <ele>465.10</ele>
        <time>2016-10-15T08:42:20Z</time>
      </trkpt>
      <trkpt lat="42.518991000" lon="-2.408104000">
        <ele>465.50</ele>
        <time>2016-10-15T08:42:21Z</time>
      </trkpt>
      <trkpt lat="42.518964000" lon="-2.408100000">
        <ele>466.00</ele>
        <time>2016-10-15T08:42:22Z</time>
      </trkpt>
      <trkpt lat="42.518937000" lon="-2.408096000">
        <ele>466.40</ele>
        <time>2016-10-15T08:42:23Z</time>
      </trkpt>
      <trkpt lat="42.518908000" lon="-2.408092000">
        <ele>466.80</ele>
        <time>2016-10-15T08:42:24Z</time>
      </trkpt>
      <trkpt lat="42.518879000" lon="-2.408087000">
        <ele>467.00</ele>
        <time>2016-10-15T08:42:25Z</time>
      </trkpt>
      <trkpt lat="42.518849000" lon="-2.408090000">
        <ele>467.50</ele>
        <time>2016-10-15T08:42:26Z</time>
      </trkpt>
      <trkpt lat="42.518820000" lon="-2.408091000">
        <ele>467.80</ele>
        <time>2016-10-15T08:42:27Z</time>
      </trkpt>
      <trkpt lat="42.518791000" lon="-2.408096000">
        <ele>468.20</ele>
        <time>2016-10-15T08:42:28Z</time>
      </trkpt>
      <trkpt lat="42.518759000" lon="-2.408100000">
        <ele>468.40</ele>
        <time>2016-10-15T08:42:29Z</time>
      </trkpt>
      <trkpt lat="42.518727000" lon="-2.408108000">
        <ele>468.80</ele>
        <time>2016-10-15T08:42:30Z</time>
      </trkpt>
      <trkpt lat="42.518696000" lon="-2.408120000">
        <ele>469.20</ele>
        <time>2016-10-15T08:42:31Z</time>
      </trkpt>
      <trkpt lat="42.518666000" lon="-2.408131000">
        <ele>469.50</ele>
        <time>2016-10-15T08:42:32Z</time>
      </trkpt>
      <trkpt lat="42.518637000" lon="-2.408138000">
        <ele>469.80</ele>
        <time>2016-10-15T08:42:33Z</time>
      </trkpt>
      <trkpt lat="42.518607000" lon="-2.408143000">
        <ele>470.10</ele>
        <time>2016-10-15T08:42:34Z</time>
      </trkpt>
      <trkpt lat="42.518577000" lon="-2.408152000">
        <ele>470.40</ele>
        <time>2016-10-15T08:42:35Z</time>
      </trkpt>
      <trkpt lat="42.518547000" lon="-2.408165000">
        <ele>470.70</ele>
        <time>2016-10-15T08:42:36Z</time>
      </trkpt>
      <trkpt lat="42.518519000" lon="-2.408175000">
        <ele>470.80</ele>
        <time>2016-10-15T08:42:37Z</time>
      </trkpt>
      <trkpt lat="42.518492000" lon="-2.408186000">
        <ele>471.40</ele>
        <time>2016-10-15T08:42:38Z</time>
      </trkpt>
      <trkpt lat="42.518465000" lon="-2.408196000">
        <ele>471.80</ele>
        <time>2016-10-15T08:42:39Z</time>
      </trkpt>
      <trkpt lat="42.518435000" lon="-2.408203000">
        <ele>472.20</ele>
        <time>2016-10-15T08:42:40Z</time>
      </trkpt>
      <trkpt lat="42.518407000" lon="-2.408214000">
        <ele>472.40</ele>
        <time>2016-10-15T08:42:41Z</time>
      </trkpt>
      <trkpt lat="42.518380000" lon="-2.408230000">
        <ele>472.80</ele>
        <time>2016-10-15T08:42:42Z</time>
      </trkpt>
      <trkpt lat="42.518322000" lon="-2.408261000">
        <ele>473.40</ele>
        <time>2016-10-15T08:42:44Z</time>
      </trkpt>
      <trkpt lat="42.518294000" lon="-2.408280000">
        <ele>473.50</ele>
        <time>2016-10-15T08:42:45Z</time>
      </trkpt>
      <trkpt lat="42.518266000" lon="-2.408298000">
        <ele>474.10</ele>
        <time>2016-10-15T08:42:46Z</time>
      </trkpt>
      <trkpt lat="42.518242000" lon="-2.408314000">
        <ele>474.50</ele>
        <time>2016-10-15T08:42:47Z</time>
      </trkpt>
      <trkpt lat="42.518216000" lon="-2.408329000">
        <ele>474.90</ele>
        <time>2016-10-15T08:42:48Z</time>
      </trkpt>
      <trkpt lat="42.518191000" lon="-2.408344000">
        <ele>475.20</ele>
        <time>2016-10-15T08:42:49Z</time>
      </trkpt>
      <trkpt lat="42.518161000" lon="-2.408364000">
        <ele>475.60</ele>
        <time>2016-10-15T08:42:50Z</time>
      </trkpt>
      <trkpt lat="42.518136000" lon="-2.408384000">
        <ele>475.90</ele>
        <time>2016-10-15T08:42:51Z</time>
      </trkpt>
      <trkpt lat="42.518110000" lon="-2.408407000">
        <ele>476.30</ele>
        <time>2016-10-15T08:42:52Z</time>
      </trkpt>
      <trkpt lat="42.518091000" lon="-2.408429000">
        <ele>476.70</ele>
        <time>2016-10-15T08:42:53Z</time>
      </trkpt>
      <trkpt lat="42.518073000" lon="-2.408456000">
        <ele>477.00</ele>
        <time>2016-10-15T08:42:54Z</time>
      </trkpt>
      <trkpt lat="42.518057000" lon="-2.408483000">
        <ele>477.20</ele>
        <time>2016-10-15T08:42:55Z</time>
      </trkpt>
      <trkpt lat="42.518041000" lon="-2.408514000">
        <ele>477.50</ele>
        <time>2016-10-15T08:42:56Z</time>
      </trkpt>
      <trkpt lat="42.518026000" lon="-2.408545000">
        <ele>477.70</ele>
        <time>2016-10-15T08:42:57Z</time>
      </trkpt>
      <trkpt lat="42.518011000" lon="-2.408578000">
        <ele>477.80</ele>
        <time>2016-10-15T08:42:58Z</time>
      </trkpt>
      <trkpt lat="42.517999000" lon="-2.408612000">
        <ele>477.90</ele>
        <time>2016-10-15T08:42:59Z</time>
      </trkpt>
      <trkpt lat="42.517989000" lon="-2.408648000">
        <ele>478.10</ele>
        <time>2016-10-15T08:43:00Z</time>
      </trkpt>
      <trkpt lat="42.517978000" lon="-2.408688000">
        <ele>478.20</ele>
        <time>2016-10-15T08:43:01Z</time>
      </trkpt>
      <trkpt lat="42.517968000" lon="-2.408728000">
        <ele>478.30</ele>
        <time>2016-10-15T08:43:02Z</time>
      </trkpt>
      <trkpt lat="42.517960000" lon="-2.408765000">
        <ele>478.40</ele>
        <time>2016-10-15T08:43:03Z</time>
      </trkpt>
      <trkpt lat="42.517948000" lon="-2.408801000">
        <ele>478.60</ele>
        <time>2016-10-15T08:43:04Z</time>
      </trkpt>
      <trkpt lat="42.517935000" lon="-2.408837000">
        <ele>478.70</ele>
        <time>2016-10-15T08:43:05Z</time>
      </trkpt>
      <trkpt lat="42.517921000" lon="-2.408870000">
        <ele>478.90</ele>
        <time>2016-10-15T08:43:06Z</time>
      </trkpt>
      <trkpt lat="42.517902000" lon="-2.408901000">
        <ele>478.90</ele>
        <time>2016-10-15T08:43:07Z</time>
      </trkpt>
      <trkpt lat="42.517879000" lon="-2.408928000">
        <ele>479.10</ele>
        <time>2016-10-15T08:43:08Z</time>
      </trkpt>
      <trkpt lat="42.517853000" lon="-2.408951000">
        <ele>479.20</ele>
        <time>2016-10-15T08:43:09Z</time>
      </trkpt>
      <trkpt lat="42.517826000" lon="-2.408970000">
        <ele>479.20</ele>
        <time>2016-10-15T08:43:10Z</time>
      </trkpt>
      <trkpt lat="42.517797000" lon="-2.408983000">
        <ele>479.30</ele>
        <time>2016-10-15T08:43:11Z</time>
      </trkpt>
      <trkpt lat="42.517767000" lon="-2.408991000">
        <ele>479.30</ele>
        <time>2016-10-15T08:43:12Z</time>
      </trkpt>
      <trkpt lat="42.517736000" lon="-2.408998000">
        <ele>479.30</ele>
        <time>2016-10-15T08:43:13Z</time>
      </trkpt>
      <trkpt lat="42.517708000" lon="-2.408998000">
        <ele>479.60</ele>
        <time>2016-10-15T08:43:14Z</time>
      </trkpt>
      <trkpt lat="42.517678000" lon="-2.408995000">
        <ele>479.80</ele>
        <time>2016-10-15T08:43:15Z</time>
      </trkpt>
      <trkpt lat="42.517649000" lon="-2.408991000">
        <ele>480.20</ele>
        <time>2016-10-15T08:43:16Z</time>
      </trkpt>
      <trkpt lat="42.517618000" lon="-2.408987000">
        <ele>480.50</ele>
        <time>2016-10-15T08:43:17Z</time>
      </trkpt>
      <trkpt lat="42.517588000" lon="-2.408989000">
        <ele>480.70</ele>
        <time>2016-10-15T08:43:18Z</time>
      </trkpt>
      <trkpt lat="42.517560000" lon="-2.408991000">
        <ele>480.90</ele>
        <time>2016-10-15T08:43:19Z</time>
      </trkpt>
      <trkpt lat="42.517531000" lon="-2.408994000">
        <ele>481.10</ele>
        <time>2016-10-15T08:43:20Z</time>
      </trkpt>
      <trkpt lat="42.517501000" lon="-2.408999000">
        <ele>481.20</ele>
        <time>2016-10-15T08:43:21Z</time>
      </trkpt>
      <trkpt lat="42.517471000" lon="-2.409005000">
        <ele>481.30</ele>
        <time>2016-10-15T08:43:22Z</time>
      </trkpt>
      <trkpt lat="42.517439000" lon="-2.409014000">
        <ele>481.40</ele>
        <time>2016-10-15T08:43:23Z</time>
      </trkpt>
      <trkpt lat="42.517407000" lon="-2.409020000">
        <ele>481.40</ele>
        <time>2016-10-15T08:43:24Z</time>
      </trkpt>
      <trkpt lat="42.517377000" lon="-2.409031000">
        <ele>481.50</ele>
        <time>2016-10-15T08:43:25Z</time>
      </trkpt>
      <trkpt lat="42.517346000" lon="-2.409041000">
        <ele>481.60</ele>
        <time>2016-10-15T08:43:26Z</time>
      </trkpt>
      <trkpt lat="42.517316000" lon="-2.409052000">
        <ele>481.70</ele>
        <time>2016-10-15T08:43:27Z</time>
      </trkpt>
      <trkpt lat="42.517285000" lon="-2.409063000">
        <ele>481.80</ele>
        <time>2016-10-15T08:43:28Z</time>
      </trkpt>
      <trkpt lat="42.517257000" lon="-2.409073000">
        <ele>481.90</ele>
        <time>2016-10-15T08:43:29Z</time>
      </trkpt>
      <trkpt lat="42.517228000" lon="-2.409090000">
        <ele>482.00</ele>
        <time>2016-10-15T08:43:30Z</time>
      </trkpt>
      <trkpt lat="42.517199000" lon="-2.409102000">
        <ele>482.20</ele>
        <time>2016-10-15T08:43:31Z</time>
      </trkpt>
      <trkpt lat="42.517171000" lon="-2.409117000">
        <ele>482.50</ele>
        <time>2016-10-15T08:43:32Z</time>
      </trkpt>
      <trkpt lat="42.517143000" lon="-2.409133000">
        <ele>482.70</ele>
        <time>2016-10-15T08:43:33Z</time>
      </trkpt>
      <trkpt lat="42.517115000" lon="-2.409151000">
        <ele>482.90</ele>
        <time>2016-10-15T08:43:34Z</time>
      </trkpt>
      <trkpt lat="42.517088000" lon="-2.409175000">
        <ele>483.00</ele>
        <time>2016-10-15T08:43:35Z</time>
      </trkpt>
      <trkpt lat="42.517061000" lon="-2.409199000">
        <ele>483.10</ele>
        <time>2016-10-15T08:43:36Z</time>
      </trkpt>
      <trkpt lat="42.517037000" lon="-2.409225000">
        <ele>483.10</ele>
        <time>2016-10-15T08:43:37Z</time>
      </trkpt>
      <trkpt lat="42.517011000" lon="-2.409247000">
        <ele>483.30</ele>
        <time>2016-10-15T08:43:38Z</time>
      </trkpt>
      <trkpt lat="42.516987000" lon="-2.409269000">
        <ele>483.40</ele>
        <time>2016-10-15T08:43:39Z</time>
      </trkpt>
      <trkpt lat="42.516965000" lon="-2.409292000">
        <ele>483.40</ele>
        <time>2016-10-15T08:43:40Z</time>
      </trkpt>
      <trkpt lat="42.516948000" lon="-2.409317000">
        <ele>483.50</ele>
        <time>2016-10-15T08:43:41Z</time>
      </trkpt>
      <trkpt lat="42.516927000" lon="-2.409336000">
        <ele>483.60</ele>
        <time>2016-10-15T08:43:42Z</time>
      </trkpt>
      <trkpt lat="42.516906000" lon="-2.409360000">
        <ele>483.80</ele>
        <time>2016-10-15T08:43:43Z</time>
      </trkpt>
      <trkpt lat="42.516862000" lon="-2.409409000">
        <ele>483.90</ele>
        <time>2016-10-15T08:43:45Z</time>
      </trkpt>
      <trkpt lat="42.516842000" lon="-2.409432000">
        <ele>484.00</ele>
        <time>2016-10-15T08:43:46Z</time>
      </trkpt>
      <trkpt lat="42.516823000" lon="-2.409458000">
        <ele>484.00</ele>
        <time>2016-10-15T08:43:47Z</time>
      </trkpt>
      <trkpt lat="42.516801000" lon="-2.409485000">
        <ele>484.00</ele>
        <time>2016-10-15T08:43:48Z</time>
      </trkpt>
      <trkpt lat="42.516780000" lon="-2.409510000">
        <ele>484.00</ele>
        <time>2016-10-15T08:43:49Z</time>
      </trkpt>
      <trkpt lat="42.516760000" lon="-2.409539000">
        <ele>483.90</ele>
        <time>2016-10-15T08:43:50Z</time>
      </trkpt>
      <trkpt lat="42.516741000" lon="-2.409569000">
        <ele>483.90</ele>
        <time>2016-10-15T08:43:51Z</time>
      </trkpt>
      <trkpt lat="42.516721000" lon="-2.409599000">
        <ele>484.20</ele>
        <time>2016-10-15T08:43:52Z</time>
      </trkpt>
      <trkpt lat="42.516700000" lon="-2.409632000">
        <ele>484.50</ele>
        <time>2016-10-15T08:43:53Z</time>
      </trkpt>
      <trkpt lat="42.516675000" lon="-2.409665000">
        <ele>484.70</ele>
        <time>2016-10-15T08:43:54Z</time>
      </trkpt>
      <trkpt lat="42.516649000" lon="-2.409698000">
        <ele>484.90</ele>
        <time>2016-10-15T08:43:55Z</time>
      </trkpt>
      <trkpt lat="42.516622000" lon="-2.409734000">
        <ele>485.20</ele>
        <time>2016-10-15T08:43:56Z</time>
      </trkpt>
      <trkpt lat="42.516594000" lon="-2.409770000">
        <ele>485.30</ele>
        <time>2016-10-15T08:43:57Z</time>
      </trkpt>
      <trkpt lat="42.516565000" lon="-2.409804000">
        <ele>485.50</ele>
        <time>2016-10-15T08:43:58Z</time>
      </trkpt>
      <trkpt lat="42.516532000" lon="-2.409835000">
        <ele>485.60</ele>
        <time>2016-10-15T08:43:59Z</time>
      </trkpt>
      <trkpt lat="42.516500000" lon="-2.409867000">
        <ele>485.70</ele>
        <time>2016-10-15T08:44:00Z</time>
      </trkpt>
      <trkpt lat="42.516466000" lon="-2.409899000">
        <ele>485.80</ele>
        <time>2016-10-15T08:44:01Z</time>
      </trkpt>
      <trkpt lat="42.516433000" lon="-2.409934000">
        <ele>485.90</ele>
        <time>2016-10-15T08:44:02Z</time>
      </trkpt>
      <trkpt lat="42.516401000" lon="-2.409971000">
        <ele>485.90</ele>
        <time>2016-10-15T08:44:03Z</time>
      </trkpt>
      <trkpt lat="42.516369000" lon="-2.410004000">
        <ele>485.90</ele>
        <time>2016-10-15T08:44:04Z</time>
      </trkpt>
      <trkpt lat="42.516337000" lon="-2.410041000">
        <ele>486.00</ele>
        <time>2016-10-15T08:44:05Z</time>
      </trkpt>
      <trkpt lat="42.516304000" lon="-2.410074000">
        <ele>486.00</ele>
        <time>2016-10-15T08:44:06Z</time>
      </trkpt>
      <trkpt lat="42.516271000" lon="-2.410109000">
        <ele>486.00</ele>
        <time>2016-10-15T08:44:07Z</time>
      </trkpt>
      <trkpt lat="42.516237000" lon="-2.410146000">
        <ele>486.00</ele>
        <time>2016-10-15T08:44:08Z</time>
      </trkpt>
      <trkpt lat="42.516204000" lon="-2.410178000">
        <ele>486.00</ele>
        <time>2016-10-15T08:44:09Z</time>
      </trkpt>
      <trkpt lat="42.516170000" lon="-2.410205000">
        <ele>486.00</ele>
        <time>2016-10-15T08:44:10Z</time>
      </trkpt>
      <trkpt lat="42.516135000" lon="-2.410234000">
        <ele>485.90</ele>
        <time>2016-10-15T08:44:11Z</time>
      </trkpt>
      <trkpt lat="42.516100000" lon="-2.410263000">
        <ele>485.90</ele>
        <time>2016-10-15T08:44:12Z</time>
      </trkpt>
      <trkpt lat="42.516063000" lon="-2.410292000">
        <ele>485.90</ele>
        <time>2016-10-15T08:44:13Z</time>
      </trkpt>
      <trkpt lat="42.516027000" lon="-2.410319000">
        <ele>485.90</ele>
        <time>2016-10-15T08:44:14Z</time>
      </trkpt>
      <trkpt lat="42.515990000" lon="-2.410344000">
        <ele>486.00</ele>
        <time>2016-10-15T08:44:15Z</time>
      </trkpt>
      <trkpt lat="42.515954000" lon="-2.410371000">
        <ele>486.10</ele>
        <time>2016-10-15T08:44:16Z</time>
      </trkpt>
      <trkpt lat="42.515920000" lon="-2.410394000">
        <ele>486.20</ele>
        <time>2016-10-15T08:44:17Z</time>
      </trkpt>
      <trkpt lat="42.515887000" lon="-2.410417000">
        <ele>486.30</ele>
        <time>2016-10-15T08:44:18Z</time>
      </trkpt>
      <trkpt lat="42.515855000" lon="-2.410439000">
        <ele>486.40</ele>
        <time>2016-10-15T08:44:19Z</time>
      </trkpt>
      <trkpt lat="42.515823000" lon="-2.410462000">
        <ele>486.70</ele>
        <time>2016-10-15T08:44:20Z</time>
      </trkpt>
      <trkpt lat="42.515793000" lon="-2.410484000">
        <ele>486.90</ele>
        <time>2016-10-15T08:44:21Z</time>
      </trkpt>
      <trkpt lat="42.515766000" lon="-2.410506000">
        <ele>487.10</ele>
        <time>2016-10-15T08:44:22Z</time>
      </trkpt>
      <trkpt lat="42.515741000" lon="-2.410528000">
        <ele>487.30</ele>
        <time>2016-10-15T08:44:23Z</time>
      </trkpt>
      <trkpt lat="42.515715000" lon="-2.410546000">
        <ele>487.40</ele>
        <time>2016-10-15T08:44:24Z</time>
      </trkpt>
      <trkpt lat="42.515692000" lon="-2.410562000">
        <ele>487.50</ele>
        <time>2016-10-15T08:44:25Z</time>
      </trkpt>
      <trkpt lat="42.515670000" lon="-2.410575000">
        <ele>487.70</ele>
        <time>2016-10-15T08:44:26Z</time>
      </trkpt>
      <trkpt lat="42.515652000" lon="-2.410580000">
        <ele>487.80</ele>
        <time>2016-10-15T08:44:27Z</time>
      </trkpt>
      <trkpt lat="42.515635000" lon="-2.410587000">
        <ele>487.90</ele>
        <time>2016-10-15T08:44:28Z</time>
      </trkpt>
      <trkpt lat="42.515617000" lon="-2.410580000">
        <ele>488.00</ele>
        <time>2016-10-15T08:44:29Z</time>
      </trkpt>
      <trkpt lat="42.515600000" lon="-2.410572000">
        <ele>488.10</ele>
        <time>2016-10-15T08:44:30Z</time>
      </trkpt>
      <trkpt lat="42.515597000" lon="-2.410567000">
        <ele>488.20</ele>
        <time>2016-10-15T08:44:31Z</time>
      </trkpt>
      <trkpt lat="42.515595000" lon="-2.410563000">
        <ele>488.30</ele>
        <time>2016-10-15T08:44:32Z</time>
      </trkpt>
      <trkpt lat="42.515592000" lon="-2.410564000">
        <ele>488.40</ele>
        <time>2016-10-15T08:44:33Z</time>
      </trkpt>
      <trkpt lat="42.515590000" lon="-2.410563000">
        <ele>488.60</ele>
        <time>2016-10-15T08:44:34Z</time>
      </trkpt>
      <trkpt lat="42.515591000" lon="-2.410562000">
        <ele>488.70</ele>
        <time>2016-10-15T08:44:35Z</time>
      </trkpt>
      <trkpt lat="42.515593000" lon="-2.410563000">
        <ele>488.90</ele>
        <time>2016-10-15T08:44:36Z</time>
      </trkpt>
      <trkpt lat="42.515592000" lon="-2.410564000">
        <ele>489.10</ele>
        <time>2016-10-15T08:44:37Z</time>
      </trkpt>
      <trkpt lat="42.515591000" lon="-2.410565000">
        <ele>489.20</ele>
        <time>2016-10-15T08:44:38Z</time>
      </trkpt>
      <trkpt lat="42.515586000" lon="-2.410563000">
        <ele>489.20</ele>
        <time>2016-10-15T08:44:39Z</time>
      </trkpt>
      <trkpt lat="42.515586000" lon="-2.410564000">
        <ele>489.30</ele>
        <time>2016-10-15T08:44:40Z</time>
      </trkpt>
      <trkpt lat="42.515587000" lon="-2.410565000">
        <ele>489.30</ele>
        <time>2016-10-15T08:44:41Z</time>
      </trkpt>
      <trkpt lat="42.515588000" lon="-2.410568000">
        <ele>489.30</ele>
        <time>2016-10-15T08:44:42Z</time>
      </trkpt>
      <trkpt lat="42.515588000" lon="-2.410569000">
        <ele>489.30</ele>
        <time>2016-10-15T08:44:43Z</time>
      </trkpt>
      <trkpt lat="42.515587000" lon="-2.410569000">
        <ele>489.10</ele>
        <time>2016-10-15T08:44:44Z</time>
      </trkpt>
      <trkpt lat="42.515585000" lon="-2.410571000">
        <ele>488.80</ele>
        <time>2016-10-15T08:44:46Z</time>
      </trkpt>
      <trkpt lat="42.515583000" lon="-2.410570000">
        <ele>488.70</ele>
        <time>2016-10-15T08:44:47Z</time>
      </trkpt>
      <trkpt lat="42.515578000" lon="-2.410567000">
        <ele>488.60</ele>
        <time>2016-10-15T08:44:48Z</time>
      </trkpt>
      <trkpt lat="42.515566000" lon="-2.410562000">
        <ele>488.60</ele>
        <time>2016-10-15T08:44:49Z</time>
      </trkpt>
      <trkpt lat="42.515556000" lon="-2.410547000">
        <ele>488.60</ele>
        <time>2016-10-15T08:44:50Z</time>
      </trkpt>
      <trkpt lat="42.515548000" lon="-2.410538000">
        <ele>488.60</ele>
        <time>2016-10-15T08:44:51Z</time>
      </trkpt>
      <trkpt lat="42.515534000" lon="-2.410534000">
        <ele>488.60</ele>
        <time>2016-10-15T08:44:52Z</time>
      </trkpt>
      <trkpt lat="42.515526000" lon="-2.410529000">
        <ele>488.50</ele>
        <time>2016-10-15T08:44:53Z</time>
      </trkpt>
      <trkpt lat="42.515519000" lon="-2.410523000">
        <ele>488.50</ele>
        <time>2016-10-15T08:44:54Z</time>
      </trkpt>
      <trkpt lat="42.515513000" lon="-2.410518000">
        <ele>488.50</ele>
        <time>2016-10-15T08:44:55Z</time>
      </trkpt>
      <trkpt lat="42.515500000" lon="-2.410512000">
        <ele>488.50</ele>
        <time>2016-10-15T08:44:56Z</time>
      </trkpt>
      <trkpt lat="42.515475000" lon="-2.410512000">
        <ele>488.40</ele>
        <time>2016-10-15T08:44:57Z</time>
      </trkpt>
      <trkpt lat="42.515449000" lon="-2.410510000">
        <ele>488.40</ele>
        <time>2016-10-15T08:44:58Z</time>
      </trkpt>
      <trkpt lat="42.515423000" lon="-2.410511000">
        <ele>488.30</ele>
        <time>2016-10-15T08:44:59Z</time>
      </trkpt>
      <trkpt lat="42.515394000" lon="-2.410513000">
        <ele>488.40</ele>
        <time>2016-10-15T08:45:00Z</time>
      </trkpt>
      <trkpt lat="42.515366000" lon="-2.410522000">
        <ele>488.40</ele>
        <time>2016-10-15T08:45:01Z</time>
      </trkpt>
      <trkpt lat="42.515334000" lon="-2.410531000">
        <ele>488.30</ele>
        <time>2016-10-15T08:45:02Z</time>
      </trkpt>
      <trkpt lat="42.515299000" lon="-2.410544000">
        <ele>488.30</ele>
        <time>2016-10-15T08:45:03Z</time>
      </trkpt>
      <trkpt lat="42.515264000" lon="-2.410559000">
        <ele>488.20</ele>
        <time>2016-10-15T08:45:04Z</time>
      </trkpt>
      <trkpt lat="42.515230000" lon="-2.410581000">
        <ele>488.10</ele>
        <time>2016-10-15T08:45:05Z</time>
      </trkpt>
      <trkpt lat="42.515192000" lon="-2.410596000">
        <ele>488.10</ele>
        <time>2016-10-15T08:45:06Z</time>
      </trkpt>
      <trkpt lat="42.515153000" lon="-2.410611000">
        <ele>488.10</ele>
        <time>2016-10-15T08:45:07Z</time>
      </trkpt>
      <trkpt lat="42.515120000" lon="-2.410634000">
        <ele>487.90</ele>
        <time>2016-10-15T08:45:08Z</time>
      </trkpt>
      <trkpt lat="42.515082000" lon="-2.410652000">
        <ele>487.80</ele>
        <time>2016-10-15T08:45:09Z</time>
      </trkpt>
      <trkpt lat="42.515039000" lon="-2.410666000">
        <ele>487.60</ele>
        <time>2016-10-15T08:45:10Z</time>
      </trkpt>
      <trkpt lat="42.514994000" lon="-2.410675000">
        <ele>487.50</ele>
        <time>2016-10-15T08:45:11Z</time>
      </trkpt>
      <trkpt lat="42.514950000" lon="-2.410680000">
        <ele>487.30</ele>
        <time>2016-10-15T08:45:12Z</time>
      </trkpt>
      <trkpt lat="42.514904000" lon="-2.410686000">
        <ele>487.30</ele>
        <time>2016-10-15T08:45:13Z</time>
      </trkpt>
      <trkpt lat="42.514860000" lon="-2.410699000">
        <ele>487.10</ele>
        <time>2016-10-15T08:45:14Z</time>
      </trkpt>
      <trkpt lat="42.514813000" lon="-2.410711000">
        <ele>487.00</ele>
        <time>2016-10-15T08:45:15Z</time>
      </trkpt>
      <trkpt lat="42.514763000" lon="-2.410717000">
        <ele>487.00</ele>
        <time>2016-10-15T08:45:16Z</time>
      </trkpt>
      <trkpt lat="42.514710000" lon="-2.410724000">
        <ele>486.90</ele>
        <time>2016-10-15T08:45:17Z</time>
      </trkpt>
      <trkpt lat="42.514655000" lon="-2.410727000">
        <ele>486.90</ele>
        <time>2016-10-15T08:45:18Z</time>
      </trkpt>
      <trkpt lat="42.514599000" lon="-2.410737000">
        <ele>486.80</ele>
        <time>2016-10-15T08:45:19Z</time>
      </trkpt>
      <trkpt lat="42.514541000" lon="-2.410744000">
        <ele>486.80</ele>
        <time>2016-10-15T08:45:20Z</time>
      </trkpt>
      <trkpt lat="42.514481000" lon="-2.410744000">
        <ele>486.80</ele>
        <time>2016-10-15T08:45:21Z</time>
      </trkpt>
      <trkpt lat="42.514420000" lon="-2.410755000">
        <ele>486.50</ele>
        <time>2016-10-15T08:45:22Z</time>
      </trkpt>
      <trkpt lat="42.514363000" lon="-2.410776000">
        <ele>486.20</ele>
        <time>2016-10-15T08:45:23Z</time>
      </trkpt>
      <trkpt lat="42.514310000" lon="-2.410798000">
        <ele>486.00</ele>
        <time>2016-10-15T08:45:24Z</time>
      </trkpt>
      <trkpt lat="42.514254000" lon="-2.410811000">
        <ele>485.90</ele>
        <time>2016-10-15T08:45:25Z</time>
      </trkpt>
      <trkpt lat="42.514198000" lon="-2.410809000">
        <ele>485.80</ele>
        <time>2016-10-15T08:45:26Z</time>
      </trkpt>
      <trkpt lat="42.514142000" lon="-2.410805000">
        <ele>485.70</ele>
        <time>2016-10-15T08:45:27Z</time>
      </trkpt>
      <trkpt lat="42.514090000" lon="-2.410797000">
        <ele>485.60</ele>
        <time>2016-10-15T08:45:28Z</time>
      </trkpt>
      <trkpt lat="42.514038000" lon="-2.410778000">
        <ele>485.60</ele>
        <time>2016-10-15T08:45:29Z</time>
      </trkpt>
      <trkpt lat="42.513983000" lon="-2.410765000">
        <ele>485.40</ele>
        <time>2016-10-15T08:45:30Z</time>
      </trkpt>
      <trkpt lat="42.513923000" lon="-2.410751000">
        <ele>485.20</ele>
        <time>2016-10-15T08:45:31Z</time>
      </trkpt>
      <trkpt lat="42.513858000" lon="-2.410739000">
        <ele>485.00</ele>
        <time>2016-10-15T08:45:32Z</time>
      </trkpt>
      <trkpt lat="42.513789000" lon="-2.410730000">
        <ele>485.00</ele>
        <time>2016-10-15T08:45:33Z</time>
      </trkpt>
      <trkpt lat="42.513719000" lon="-2.410717000">
        <ele>484.70</ele>
        <time>2016-10-15T08:45:34Z</time>
      </trkpt>
      <trkpt lat="42.513649000" lon="-2.410694000">
        <ele>484.50</ele>
        <time>2016-10-15T08:45:35Z</time>
      </trkpt>
      <trkpt lat="42.513585000" lon="-2.410670000">
        <ele>484.30</ele>
        <time>2016-10-15T08:45:36Z</time>
      </trkpt>
      <trkpt lat="42.513526000" lon="-2.410632000">
        <ele>484.10</ele>
        <time>2016-10-15T08:45:37Z</time>
      </trkpt>
      <trkpt lat="42.513467000" lon="-2.410576000">
        <ele>483.60</ele>
        <time>2016-10-15T08:45:38Z</time>
      </trkpt>
      <trkpt lat="42.513403000" lon="-2.410528000">
        <ele>483.20</ele>
        <time>2016-10-15T08:45:39Z</time>
      </trkpt>
      <trkpt lat="42.513333000" lon="-2.410498000">
        <ele>482.50</ele>
        <time>2016-10-15T08:45:40Z</time>
      </trkpt>
      <trkpt lat="42.513263000" lon="-2.410482000">
        <ele>481.90</ele>
        <time>2016-10-15T08:45:41Z</time>
      </trkpt>
      <trkpt lat="42.513201000" lon="-2.410447000">
        <ele>481.10</ele>
        <time>2016-10-15T08:45:42Z</time>
      </trkpt>
      <trkpt lat="42.513142000" lon="-2.410402000">
        <ele>480.40</ele>
        <time>2016-10-15T08:45:43Z</time>
      </trkpt>
      <trkpt lat="42.513088000" lon="-2.410343000">
        <ele>479.80</ele>
        <time>2016-10-15T08:45:44Z</time>
      </trkpt>
      <trkpt lat="42.513037000" lon="-2.410283000">
        <ele>479.40</ele>
        <time>2016-10-15T08:45:45Z</time>
      </trkpt>
      <trkpt lat="42.512980000" lon="-2.410235000">
        <ele>478.90</ele>
        <time>2016-10-15T08:45:46Z</time>
      </trkpt>
      <trkpt lat="42.512849000" lon="-2.410184000">
        <ele>478.30</ele>
        <time>2016-10-15T08:45:48Z</time>
      </trkpt>
      <trkpt lat="42.512785000" lon="-2.410165000">
        <ele>478.10</ele>
        <time>2016-10-15T08:45:49Z</time>
      </trkpt>
      <trkpt lat="42.512722000" lon="-2.410152000">
        <ele>478.00</ele>
        <time>2016-10-15T08:45:50Z</time>
      </trkpt>
      <trkpt lat="42.512658000" lon="-2.410143000">
        <ele>477.80</ele>
        <time>2016-10-15T08:45:51Z</time>
      </trkpt>
      <trkpt lat="42.512592000" lon="-2.410147000">
        <ele>477.80</ele>
        <time>2016-10-15T08:45:52Z</time>
      </trkpt>
      <trkpt lat="42.512528000" lon="-2.410161000">
        <ele>477.70</ele>
        <time>2016-10-15T08:45:53Z</time>
      </trkpt>
      <trkpt lat="42.512465000" lon="-2.410178000">
        <ele>477.50</ele>
        <time>2016-10-15T08:45:54Z</time>
      </trkpt>
      <trkpt lat="42.512400000" lon="-2.410190000">
        <ele>477.40</ele>
        <time>2016-10-15T08:45:55Z</time>
      </trkpt>
      <trkpt lat="42.512335000" lon="-2.410201000">
        <ele>477.30</ele>
        <time>2016-10-15T08:45:56Z</time>
      </trkpt>
      <trkpt lat="42.512270000" lon="-2.410212000">
        <ele>477.20</ele>
        <time>2016-10-15T08:45:57Z</time>
      </trkpt>
      <trkpt lat="42.512206000" lon="-2.410225000">
        <ele>477.50</ele>
        <time>2016-10-15T08:45:58Z</time>
      </trkpt>
      <trkpt lat="42.512141000" lon="-2.410237000">
        <ele>477.70</ele>
        <time>2016-10-15T08:45:59Z</time>
      </trkpt>
      <trkpt lat="42.512081000" lon="-2.410254000">
        <ele>478.00</ele>
        <time>2016-10-15T08:46:00Z</time>
      </trkpt>
      <trkpt lat="42.512021000" lon="-2.410269000">
        <ele>478.20</ele>
        <time>2016-10-15T08:46:01Z</time>
      </trkpt>
      <trkpt lat="42.511963000" lon="-2.410279000">
        <ele>478.20</ele>
        <time>2016-10-15T08:46:02Z</time>
      </trkpt>
      <trkpt lat="42.511905000" lon="-2.410292000">
        <ele>478.20</ele>
        <time>2016-10-15T08:46:03Z</time>
      </trkpt>
      <trkpt lat="42.511849000" lon="-2.410300000">
        <ele>478.30</ele>
        <time>2016-10-15T08:46:04Z</time>
      </trkpt>
      <trkpt lat="42.511795000" lon="-2.410304000">
        <ele>478.30</ele>
        <time>2016-10-15T08:46:05Z</time>
      </trkpt>
      <trkpt lat="42.511742000" lon="-2.410300000">
        <ele>478.30</ele>
        <time>2016-10-15T08:46:06Z</time>
      </trkpt>
      <trkpt lat="42.511688000" lon="-2.410295000">
        <ele>478.30</ele>
        <time>2016-10-15T08:46:07Z</time>
      </trkpt>
      <trkpt lat="42.511637000" lon="-2.410289000">
        <ele>478.60</ele>
        <time>2016-10-15T08:46:08Z</time>
      </trkpt>
      <trkpt lat="42.511585000" lon="-2.410274000">
        <ele>478.90</ele>
        <time>2016-10-15T08:46:09Z</time>
      </trkpt>
      <trkpt lat="42.511533000" lon="-2.410264000">
        <ele>479.10</ele>
        <time>2016-10-15T08:46:10Z</time>
      </trkpt>
      <trkpt lat="42.511482000" lon="-2.410260000">
        <ele>479.30</ele>
        <time>2016-10-15T08:46:11Z</time>
      </trkpt>
      <trkpt lat="42.511433000" lon="-2.410247000">
        <ele>479.90</ele>
        <time>2016-10-15T08:46:12Z</time>
      </trkpt>
      <trkpt lat="42.511378000" lon="-2.410242000">
        <ele>480.40</ele>
        <time>2016-10-15T08:46:13Z</time>
      </trkpt>
      <trkpt lat="42.511324000" lon="-2.410243000">
        <ele>480.20</ele>
        <time>2016-10-15T08:46:14Z</time>
      </trkpt>
      <trkpt lat="42.511262000" lon="-2.410252000">
        <ele>480.10</ele>
        <time>2016-10-15T08:46:15Z</time>
      </trkpt>
      <trkpt lat="42.511193000" lon="-2.410264000">
        <ele>479.80</ele>
        <time>2016-10-15T08:46:16Z</time>
      </trkpt>
      <trkpt lat="42.511124000" lon="-2.410273000">
        <ele>479.60</ele>
        <time>2016-10-15T08:46:17Z</time>
      </trkpt>
      <trkpt lat="42.511054000" lon="-2.410278000">
        <ele>479.20</ele>
        <time>2016-10-15T08:46:18Z</time>
      </trkpt>
      <trkpt lat="42.510986000" lon="-2.410285000">
        <ele>478.90</ele>
        <time>2016-10-15T08:46:19Z</time>
      </trkpt>
      <trkpt lat="42.510919000" lon="-2.410287000">
        <ele>478.70</ele>
        <time>2016-10-15T08:46:20Z</time>
      </trkpt>
      <trkpt lat="42.510852000" lon="-2.410281000">
        <ele>478.50</ele>
        <time>2016-10-15T08:46:21Z</time>
      </trkpt>
      <trkpt lat="42.510787000" lon="-2.410274000">
        <ele>478.60</ele>
        <time>2016-10-15T08:46:22Z</time>
      </trkpt>
      <trkpt lat="42.510727000" lon="-2.410261000">
        <ele>478.70</ele>
        <time>2016-10-15T08:46:23Z</time>
      </trkpt>
      <trkpt lat="42.510670000" lon="-2.410247000">
        <ele>478.80</ele>
        <time>2016-10-15T08:46:24Z</time>
      </trkpt>
      <trkpt lat="42.510620000" lon="-2.410231000">
        <ele>479.00</ele>
        <time>2016-10-15T08:46:25Z</time>
      </trkpt>
      <trkpt lat="42.510567000" lon="-2.410208000">
        <ele>479.10</ele>
        <time>2016-10-15T08:46:26Z</time>
      </trkpt>
      <trkpt lat="42.510518000" lon="-2.410173000">
        <ele>479.10</ele>
        <time>2016-10-15T08:46:27Z</time>
      </trkpt>
      <trkpt lat="42.510471000" lon="-2.410132000">
        <ele>479.30</ele>
        <time>2016-10-15T08:46:28Z</time>
      </trkpt>
      <trkpt lat="42.510424000" lon="-2.410095000">
        <ele>479.50</ele>
        <time>2016-10-15T08:46:29Z</time>
      </trkpt>
      <trkpt lat="42.510378000" lon="-2.410058000">
        <ele>479.30</ele>
        <time>2016-10-15T08:46:30Z</time>
      </trkpt>
      <trkpt lat="42.510332000" lon="-2.410026000">
        <ele>479.20</ele>
        <time>2016-10-15T08:46:31Z</time>
      </trkpt>
      <trkpt lat="42.510281000" lon="-2.410013000">
        <ele>478.90</ele>
        <time>2016-10-15T08:46:32Z</time>
      </trkpt>
      <trkpt lat="42.510230000" lon="-2.410021000">
        <ele>478.70</ele>
        <time>2016-10-15T08:46:33Z</time>
      </trkpt>
      <trkpt lat="42.510179000" lon="-2.410045000">
        <ele>478.50</ele>
        <time>2016-10-15T08:46:34Z</time>
      </trkpt>
      <trkpt lat="42.510130000" lon="-2.410080000">
        <ele>478.40</ele>
        <time>2016-10-15T08:46:35Z</time>
      </trkpt>
      <trkpt lat="42.510085000" lon="-2.410120000">
        <ele>478.10</ele>
        <time>2016-10-15T08:46:36Z</time>
      </trkpt>
      <trkpt lat="42.510045000" lon="-2.410167000">
        <ele>477.90</ele>
        <time>2016-10-15T08:46:37Z</time>
      </trkpt>
      <trkpt lat="42.510004000" lon="-2.410213000">
        <ele>477.40</ele>
        <time>2016-10-15T08:46:38Z</time>
      </trkpt>
      <trkpt lat="42.509966000" lon="-2.410260000">
        <ele>477.00</ele>
        <time>2016-10-15T08:46:39Z</time>
      </trkpt>
      <trkpt lat="42.509925000" lon="-2.410304000">
        <ele>476.80</ele>
        <time>2016-10-15T08:46:40Z</time>
      </trkpt>
      <trkpt lat="42.509883000" lon="-2.410340000">
        <ele>476.60</ele>
        <time>2016-10-15T08:46:41Z</time>
      </trkpt>
      <trkpt lat="42.509841000" lon="-2.410373000">
        <ele>476.50</ele>
        <time>2016-10-15T08:46:42Z</time>
      </trkpt>
      <trkpt lat="42.509795000" lon="-2.410400000">
        <ele>476.50</ele>
        <time>2016-10-15T08:46:43Z</time>
      </trkpt>
      <trkpt lat="42.509750000" lon="-2.410422000">
        <ele>476.50</ele>
        <time>2016-10-15T08:46:44Z</time>
      </trkpt>
      <trkpt lat="42.509708000" lon="-2.410443000">
        <ele>476.50</ele>
        <time>2016-10-15T08:46:45Z</time>
      </trkpt>
      <trkpt lat="42.509670000" lon="-2.410461000">
        <ele>476.50</ele>
        <time>2016-10-15T08:46:46Z</time>
      </trkpt>
      <trkpt lat="42.509633000" lon="-2.410474000">
        <ele>476.50</ele>
        <time>2016-10-15T08:46:47Z</time>
      </trkpt>
      <trkpt lat="42.509596000" lon="-2.410484000">
        <ele>476.50</ele>
        <time>2016-10-15T08:46:48Z</time>
      </trkpt>
      <trkpt lat="42.509505000" lon="-2.410506000">
        <ele>476.70</ele>
        <time>2016-10-15T08:46:50Z</time>
      </trkpt>
      <trkpt lat="42.509451000" lon="-2.410516000">
        <ele>476.70</ele>
        <time>2016-10-15T08:46:51Z</time>
      </trkpt>
      <trkpt lat="42.509393000" lon="-2.410525000">
        <ele>476.70</ele>
        <time>2016-10-15T08:46:52Z</time>
      </trkpt>
      <trkpt lat="42.509331000" lon="-2.410531000">
        <ele>476.70</ele>
        <time>2016-10-15T08:46:53Z</time>
      </trkpt>
      <trkpt lat="42.509270000" lon="-2.410537000">
        <ele>476.60</ele>
        <time>2016-10-15T08:46:54Z</time>
      </trkpt>
      <trkpt lat="42.509205000" lon="-2.410531000">
        <ele>476.50</ele>
        <time>2016-10-15T08:46:55Z</time>
      </trkpt>
      <trkpt lat="42.509140000" lon="-2.410512000">
        <ele>476.20</ele>
        <time>2016-10-15T08:46:56Z</time>
      </trkpt>
      <trkpt lat="42.509079000" lon="-2.410488000">
        <ele>476.10</ele>
        <time>2016-10-15T08:46:57Z</time>
      </trkpt>
      <trkpt lat="42.509030000" lon="-2.410459000">
        <ele>475.60</ele>
        <time>2016-10-15T08:46:58Z</time>
      </trkpt>
      <trkpt lat="42.508980000" lon="-2.410441000">
        <ele>475.30</ele>
        <time>2016-10-15T08:46:59Z</time>
      </trkpt>
      <trkpt lat="42.508935000" lon="-2.410423000">
        <ele>475.00</ele>
        <time>2016-10-15T08:47:00Z</time>
      </trkpt>
      <trkpt lat="42.508883000" lon="-2.410413000">
        <ele>474.70</ele>
        <time>2016-10-15T08:47:01Z</time>
      </trkpt>
      <trkpt lat="42.508830000" lon="-2.410396000">
        <ele>474.60</ele>
        <time>2016-10-15T08:47:02Z</time>
      </trkpt>
      <trkpt lat="42.508781000" lon="-2.410371000">
        <ele>474.40</ele>
        <time>2016-10-15T08:47:03Z</time>
      </trkpt>
      <trkpt lat="42.508736000" lon="-2.410344000">
        <ele>473.70</ele>
        <time>2016-10-15T08:47:04Z</time>
      </trkpt>
      <trkpt lat="42.508689000" lon="-2.410311000">
        <ele>473.20</ele>
        <time>2016-10-15T08:47:05Z</time>
      </trkpt>
      <trkpt lat="42.508638000" lon="-2.410288000">
        <ele>472.70</ele>
        <time>2016-10-15T08:47:06Z</time>
      </trkpt>
      <trkpt lat="42.508588000" lon="-2.410269000">
        <ele>472.30</ele>
        <time>2016-10-15T08:47:07Z</time>
      </trkpt>
      <trkpt lat="42.508544000" lon="-2.410246000">
        <ele>471.60</ele>
        <time>2016-10-15T08:47:08Z</time>
      </trkpt>
      <trkpt lat="42.508498000" lon="-2.410222000">
        <ele>471.10</ele>
        <time>2016-10-15T08:47:09Z</time>
      </trkpt>
      <trkpt lat="42.508457000" lon="-2.410182000">
        <ele>470.70</ele>
        <time>2016-10-15T08:47:10Z</time>
      </trkpt>
      <trkpt lat="42.508419000" lon="-2.410138000">
        <ele>470.40</ele>
        <time>2016-10-15T08:47:11Z</time>
      </trkpt>
      <trkpt lat="42.508389000" lon="-2.410090000">
        <ele>469.90</ele>
        <time>2016-10-15T08:47:12Z</time>
      </trkpt>
      <trkpt lat="42.508357000" lon="-2.410053000">
        <ele>469.50</ele>
        <time>2016-10-15T08:47:13Z</time>
      </trkpt>
      <trkpt lat="42.508318000" lon="-2.410017000">
        <ele>469.20</ele>
        <time>2016-10-15T08:47:14Z</time>
      </trkpt>
      <trkpt lat="42.508271000" lon="-2.409982000">
        <ele>469.00</ele>
        <time>2016-10-15T08:47:15Z</time>
      </trkpt>
      <trkpt lat="42.508230000" lon="-2.409945000">
        <ele>468.50</ele>
        <time>2016-10-15T08:47:16Z</time>
      </trkpt>
      <trkpt lat="42.508188000" lon="-2.409926000">
        <ele>468.00</ele>
        <time>2016-10-15T08:47:17Z</time>
      </trkpt>
      <trkpt lat="42.508153000" lon="-2.409904000">
        <ele>467.20</ele>
        <time>2016-10-15T08:47:18Z</time>
      </trkpt>
      <trkpt lat="42.508118000" lon="-2.409890000">
        <ele>466.50</ele>
        <time>2016-10-15T08:47:19Z</time>
      </trkpt>
      <trkpt lat="42.508085000" lon="-2.409883000">
        <ele>466.00</ele>
        <time>2016-10-15T08:47:20Z</time>
      </trkpt>
      <trkpt lat="42.508054000" lon="-2.409881000">
        <ele>465.70</ele>
        <time>2016-10-15T08:47:21Z</time>
      </trkpt>
      <trkpt lat="42.508019000" lon="-2.409881000">
        <ele>465.20</ele>
        <time>2016-10-15T08:47:22Z</time>
      </trkpt>
      <trkpt lat="42.507975000" lon="-2.409882000">
        <ele>464.90</ele>
        <time>2016-10-15T08:47:23Z</time>
      </trkpt>
      <trkpt lat="42.507930000" lon="-2.409885000">
        <ele>464.40</ele>
        <time>2016-10-15T08:47:24Z</time>
      </trkpt>
      <trkpt lat="42.507888000" lon="-2.409892000">
        <ele>464.00</ele>
        <time>2016-10-15T08:47:25Z</time>
      </trkpt>
      <trkpt lat="42.507848000" lon="-2.409898000">
        <ele>463.50</ele>
        <time>2016-10-15T08:47:26Z</time>
      </trkpt>
      <trkpt lat="42.507813000" lon="-2.409901000">
        <ele>463.20</ele>
        <time>2016-10-15T08:47:27Z</time>
      </trkpt>
      <trkpt lat="42.507774000" lon="-2.409902000">
        <ele>462.80</ele>
        <time>2016-10-15T08:47:28Z</time>
      </trkpt>
      <trkpt lat="42.507731000" lon="-2.409902000">
        <ele>462.40</ele>
        <time>2016-10-15T08:47:29Z</time>
      </trkpt>
      <trkpt lat="42.507686000" lon="-2.409908000">
        <ele>461.80</ele>
        <time>2016-10-15T08:47:30Z</time>
      </trkpt>
      <trkpt lat="42.507636000" lon="-2.409920000">
        <ele>461.30</ele>
        <time>2016-10-15T08:47:31Z</time>
      </trkpt>
      <trkpt lat="42.507592000" lon="-2.409932000">
        <ele>460.80</ele>
        <time>2016-10-15T08:47:32Z</time>
      </trkpt>
      <trkpt lat="42.507554000" lon="-2.409944000">
        <ele>460.40</ele>
        <time>2016-10-15T08:47:33Z</time>
      </trkpt>
      <trkpt lat="42.507525000" lon="-2.409957000">
        <ele>460.00</ele>
        <time>2016-10-15T08:47:34Z</time>
      </trkpt>
      <trkpt lat="42.507503000" lon="-2.409969000">
        <ele>459.60</ele>
        <time>2016-10-15T08:47:35Z</time>
      </trkpt>
      <trkpt lat="42.507487000" lon="-2.409980000">
        <ele>459.20</ele>
        <time>2016-10-15T08:47:36Z</time>
      </trkpt>
      <trkpt lat="42.507473000" lon="-2.409985000">
        <ele>458.80</ele>
        <time>2016-10-15T08:47:37Z</time>
      </trkpt>
      <trkpt lat="42.507461000" lon="-2.409989000">
        <ele>458.40</ele>
        <time>2016-10-15T08:47:38Z</time>
      </trkpt>
      <trkpt lat="42.507443000" lon="-2.409989000">
        <ele>458.00</ele>
        <time>2016-10-15T08:47:39Z</time>
      </trkpt>
      <trkpt lat="42.507426000" lon="-2.409989000">
        <ele>457.70</ele>
        <time>2016-10-15T08:47:40Z</time>
      </trkpt>
      <trkpt lat="42.507411000" lon="-2.409994000">
        <ele>457.50</ele>
        <time>2016-10-15T08:47:41Z</time>
      </trkpt>
      <trkpt lat="42.507399000" lon="-2.410010000">
        <ele>457.30</ele>
        <time>2016-10-15T08:47:42Z</time>
      </trkpt>
      <trkpt lat="42.507391000" lon="-2.410040000">
        <ele>457.20</ele>
        <time>2016-10-15T08:47:43Z</time>
      </trkpt>
      <trkpt lat="42.507387000" lon="-2.410076000">
        <ele>457.00</ele>
        <time>2016-10-15T08:47:44Z</time>
      </trkpt>
      <trkpt lat="42.507380000" lon="-2.410114000">
        <ele>456.90</ele>
        <time>2016-10-15T08:47:45Z</time>
      </trkpt>
      <trkpt lat="42.507383000" lon="-2.410152000">
        <ele>456.70</ele>
        <time>2016-10-15T08:47:46Z</time>
      </trkpt>
      <trkpt lat="42.507384000" lon="-2.410180000">
        <ele>456.70</ele>
        <time>2016-10-15T08:47:47Z</time>
      </trkpt>
      <trkpt lat="42.507381000" lon="-2.410191000">
        <ele>456.60</ele>
        <time>2016-10-15T08:47:48Z</time>
      </trkpt>
      <trkpt lat="42.507381000" lon="-2.410193000">
        <ele>456.50</ele>
        <time>2016-10-15T08:47:49Z</time>
      </trkpt>
      <trkpt lat="42.507377000" lon="-2.410192000">
        <ele>456.20</ele>
        <time>2016-10-15T08:47:51Z</time>
      </trkpt>
      <trkpt lat="42.507378000" lon="-2.410191000">
        <ele>456.10</ele>
        <time>2016-10-15T08:47:52Z</time>
      </trkpt>
      <trkpt lat="42.507378000" lon="-2.410191000">
        <ele>456.00</ele>
        <time>2016-10-15T08:47:53Z</time>
      </trkpt>
      <trkpt lat="42.507378000" lon="-2.410192000">
        <ele>455.90</ele>
        <time>2016-10-15T08:47:54Z</time>
      </trkpt>
      <trkpt lat="42.507377000" lon="-2.410193000">
        <ele>455.80</ele>
        <time>2016-10-15T08:47:55Z</time>
      </trkpt>
      <trkpt lat="42.507383000" lon="-2.410192000">
        <ele>455.60</ele>
        <time>2016-10-15T08:47:56Z</time>
      </trkpt>
      <trkpt lat="42.507385000" lon="-2.410192000">
        <ele>455.50</ele>
        <time>2016-10-15T08:47:57Z</time>
      </trkpt>
      <trkpt lat="42.507390000" lon="-2.410191000">
        <ele>455.40</ele>
        <time>2016-10-15T08:47:58Z</time>
      </trkpt>
      <trkpt lat="42.507391000" lon="-2.410190000">
        <ele>455.40</ele>
        <time>2016-10-15T08:47:59Z</time>
      </trkpt>
      <trkpt lat="42.507392000" lon="-2.410190000">
        <ele>455.40</ele>
        <time>2016-10-15T08:48:00Z</time>
      </trkpt>
      <trkpt lat="42.507392000" lon="-2.410190000">
        <ele>455.50</ele>
        <time>2016-10-15T08:48:01Z</time>
      </trkpt>
      <trkpt lat="42.507392000" lon="-2.410190000">
        <ele>455.60</ele>
        <time>2016-10-15T08:48:02Z</time>
      </trkpt>
      <trkpt lat="42.507393000" lon="-2.410189000">
        <ele>455.60</ele>
        <time>2016-10-15T08:48:03Z</time>
      </trkpt>
      <trkpt lat="42.507393000" lon="-2.410189000">
        <ele>455.70</ele>
        <time>2016-10-15T08:48:04Z</time>
      </trkpt>
      <trkpt lat="42.507393000" lon="-2.410189000">
        <ele>455.70</ele>
        <time>2016-10-15T08:48:05Z</time>
      </trkpt>
      <trkpt lat="42.507393000" lon="-2.410187000">
        <ele>455.70</ele>
        <time>2016-10-15T08:48:06Z</time>
      </trkpt>
      <trkpt lat="42.507393000" lon="-2.410187000">
        <ele>455.70</ele>
        <time>2016-10-15T08:48:07Z</time>
      </trkpt>
      <trkpt lat="42.507395000" lon="-2.410187000">
        <ele>455.70</ele>
        <time>2016-10-15T08:48:08Z</time>
      </trkpt>
      <trkpt lat="42.507395000" lon="-2.410188000">
        <ele>455.60</ele>
        <time>2016-10-15T08:48:09Z</time>
      </trkpt>
      <trkpt lat="42.507395000" lon="-2.410188000">
        <ele>455.60</ele>
        <time>2016-10-15T08:48:10Z</time>
      </trkpt>
      <trkpt lat="42.507395000" lon="-2.410189000">
        <ele>455.60</ele>
        <time>2016-10-15T08:48:11Z</time>
      </trkpt>
      <trkpt lat="42.507395000" lon="-2.410189000">
        <ele>455.70</ele>
        <time>2016-10-15T08:48:12Z</time>
      </trkpt>
      <trkpt lat="42.507395000" lon="-2.410190000">
        <ele>455.80</ele>
        <time>2016-10-15T08:48:13Z</time>
      </trkpt>
      <trkpt lat="42.507396000" lon="-2.410191000">
        <ele>455.70</ele>
        <time>2016-10-15T08:48:14Z</time>
      </trkpt>
      <trkpt lat="42.507399000" lon="-2.410195000">
        <ele>455.60</ele>
        <time>2016-10-15T08:48:15Z</time>
      </trkpt>
      <trkpt lat="42.507401000" lon="-2.410199000">
        <ele>455.50</ele>
        <time>2016-10-15T08:48:16Z</time>
      </trkpt>
      <trkpt lat="42.507403000" lon="-2.410201000">
        <ele>455.50</ele>
        <time>2016-10-15T08:48:17Z</time>
      </trkpt>
      <trkpt lat="42.507404000" lon="-2.410211000">
        <ele>455.40</ele>
        <time>2016-10-15T08:48:18Z</time>
      </trkpt>
      <trkpt lat="42.507402000" lon="-2.410210000">
        <ele>455.40</ele>
        <time>2016-10-15T08:48:19Z</time>
      </trkpt>
      <trkpt lat="42.507401000" lon="-2.410209000">
        <ele>455.40</ele>
        <time>2016-10-15T08:48:20Z</time>
      </trkpt>
      <trkpt lat="42.507400000" lon="-2.410208000">
        <ele>455.40</ele>
        <time>2016-10-15T08:48:21Z</time>
      </trkpt>
      <trkpt lat="42.507398000" lon="-2.410208000">
        <ele>455.40</ele>
        <time>2016-10-15T08:48:22Z</time>
      </trkpt>
      <trkpt lat="42.507398000" lon="-2.410209000">
        <ele>455.40</ele>
        <time>2016-10-15T08:48:23Z</time>
      </trkpt>
      <trkpt lat="42.507398000" lon="-2.410208000">
        <ele>455.30</ele>
        <time>2016-10-15T08:48:24Z</time>
      </trkpt>
      <trkpt lat="42.507397000" lon="-2.410209000">
        <ele>455.20</ele>
        <time>2016-10-15T08:48:25Z</time>
      </trkpt>
      <trkpt lat="42.507397000" lon="-2.410209000">
        <ele>455.20</ele>
        <time>2016-10-15T08:48:26Z</time>
      </trkpt>
      <trkpt lat="42.507396000" lon="-2.410210000">
        <ele>455.10</ele>
        <time>2016-10-15T08:48:27Z</time>
      </trkpt>
      <trkpt lat="42.507395000" lon="-2.410210000">
        <ele>455.00</ele>
        <time>2016-10-15T08:48:28Z</time>
      </trkpt>
      <trkpt lat="42.507395000" lon="-2.410210000">
        <ele>454.90</ele>
        <time>2016-10-15T08:48:29Z</time>
      </trkpt>
      <trkpt lat="42.507394000" lon="-2.410210000">
        <ele>454.90</ele>
        <time>2016-10-15T08:48:30Z</time>
      </trkpt>
      <trkpt lat="42.507394000" lon="-2.410209000">
        <ele>454.90</ele>
        <time>2016-10-15T08:48:31Z</time>
      </trkpt>
      <trkpt lat="42.507395000" lon="-2.410209000">
        <ele>454.80</ele>
        <time>2016-10-15T08:48:32Z</time>
      </trkpt>
      <trkpt lat="42.507395000" lon="-2.410207000">
        <ele>454.80</ele>
        <time>2016-10-15T08:48:33Z</time>
      </trkpt>
      <trkpt lat="42.507394000" lon="-2.410207000">
        <ele>454.80</ele>
        <time>2016-10-15T08:48:34Z</time>
      </trkpt>
      <trkpt lat="42.507394000" lon="-2.410207000">
        <ele>454.90</ele>
        <time>2016-10-15T08:48:35Z</time>
      </trkpt>
      <trkpt lat="42.507394000" lon="-2.410208000">
        <ele>454.90</ele>
        <time>2016-10-15T08:48:36Z</time>
      </trkpt>
      <trkpt lat="42.507394000" lon="-2.410208000">
        <ele>454.90</ele>
        <time>2016-10-15T08:48:37Z</time>
      </trkpt>
      <trkpt lat="42.507394000" lon="-2.410209000">
        <ele>454.90</ele>
        <time>2016-10-15T08:48:38Z</time>
      </trkpt>
      <trkpt lat="42.507394000" lon="-2.410209000">
        <ele>455.00</ele>
        <time>2016-10-15T08:48:39Z</time>
      </trkpt>
      <trkpt lat="42.507394000" lon="-2.410210000">
        <ele>455.10</ele>
        <time>2016-10-15T08:48:40Z</time>
      </trkpt>
      <trkpt lat="42.507393000" lon="-2.410211000">
        <ele>455.30</ele>
        <time>2016-10-15T08:48:41Z</time>
      </trkpt>
      <trkpt lat="42.507394000" lon="-2.410211000">
        <ele>455.40</ele>
        <time>2016-10-15T08:48:42Z</time>
      </trkpt>
      <trkpt lat="42.507394000" lon="-2.410211000">
        <ele>455.50</ele>
        <time>2016-10-15T08:48:43Z</time>
      </trkpt>
      <trkpt lat="42.507394000" lon="-2.410211000">
        <ele>455.40</ele>
        <time>2016-10-15T08:48:44Z</time>
      </trkpt>
      <trkpt lat="42.507394000" lon="-2.410211000">
        <ele>455.40</ele>
        <time>2016-10-15T08:48:45Z</time>
      </trkpt>
      <trkpt lat="42.507395000" lon="-2.410212000">
        <ele>455.30</ele>
        <time>2016-10-15T08:48:46Z</time>
      </trkpt>
      <trkpt lat="42.507395000" lon="-2.410212000">
        <ele>455.20</ele>
        <time>2016-10-15T08:48:47Z</time>
      </trkpt>
      <trkpt lat="42.507395000" lon="-2.410212000">
        <ele>455.10</ele>
        <time>2016-10-15T08:48:48Z</time>
      </trkpt>
      <trkpt lat="42.507395000" lon="-2.410212000">
        <ele>455.00</ele>
        <time>2016-10-15T08:48:49Z</time>
      </trkpt>
      <trkpt lat="42.507396000" lon="-2.410212000">
        <ele>455.00</ele>
        <time>2016-10-15T08:48:50Z</time>
      </trkpt>
      <trkpt lat="42.507395000" lon="-2.410212000">
        <ele>455.00</ele>
        <time>2016-10-15T08:48:52Z</time>
      </trkpt>
      <trkpt lat="42.507395000" lon="-2.410212000">
        <ele>455.10</ele>
        <time>2016-10-15T08:48:53Z</time>
      </trkpt>
      <trkpt lat="42.507395000" lon="-2.410211000">
        <ele>455.20</ele>
        <time>2016-10-15T08:48:54Z</time>
      </trkpt>
      <trkpt lat="42.507395000" lon="-2.410211000">
        <ele>455.30</ele>
        <time>2016-10-15T08:48:55Z</time>
      </trkpt>
      <trkpt lat="42.507395000" lon="-2.410211000">
        <ele>455.30</ele>
        <time>2016-10-15T08:48:56Z</time>
      </trkpt>
      <trkpt lat="42.507394000" lon="-2.410211000">
        <ele>455.40</ele>
        <time>2016-10-15T08:48:57Z</time>
      </trkpt>
      <trkpt lat="42.507394000" lon="-2.410211000">
        <ele>455.30</ele>
        <time>2016-10-15T08:48:58Z</time>
      </trkpt>
      <trkpt lat="42.507394000" lon="-2.410211000">
        <ele>455.30</ele>
        <time>2016-10-15T08:48:59Z</time>
      </trkpt>
      <trkpt lat="42.507393000" lon="-2.410211000">
        <ele>455.20</ele>
        <time>2016-10-15T08:49:00Z</time>
      </trkpt>
      <trkpt lat="42.507393000" lon="-2.410211000">
        <ele>455.10</ele>
        <time>2016-10-15T08:49:01Z</time>
      </trkpt>
      <trkpt lat="42.507392000" lon="-2.410211000">
        <ele>455.10</ele>
        <time>2016-10-15T08:49:02Z</time>
      </trkpt>
      <trkpt lat="42.507392000" lon="-2.410211000">
        <ele>455.10</ele>
        <time>2016-10-15T08:49:03Z</time>
      </trkpt>
      <trkpt lat="42.507392000" lon="-2.410211000">
        <ele>455.10</ele>
        <time>2016-10-15T08:49:04Z</time>
      </trkpt>
      <trkpt lat="42.507392000" lon="-2.410212000">
        <ele>455.00</ele>
        <time>2016-10-15T08:49:05Z</time>
      </trkpt>
      <trkpt lat="42.507392000" lon="-2.410212000">
        <ele>455.10</ele>
        <time>2016-10-15T08:49:06Z</time>
      </trkpt>
      <trkpt lat="42.507392000" lon="-2.410212000">
        <ele>455.20</ele>
        <time>2016-10-15T08:49:07Z</time>
      </trkpt>
      <trkpt lat="42.507392000" lon="-2.410212000">
        <ele>455.20</ele>
        <time>2016-10-15T08:49:08Z</time>
      </trkpt>
      <trkpt lat="42.507391000" lon="-2.410212000">
        <ele>455.20</ele>
        <time>2016-10-15T08:49:09Z</time>
      </trkpt>
      <trkpt lat="42.507391000" lon="-2.410212000">
        <ele>455.30</ele>
        <time>2016-10-15T08:49:10Z</time>
      </trkpt>
      <trkpt lat="42.507391000" lon="-2.410212000">
        <ele>455.40</ele>
        <time>2016-10-15T08:49:11Z</time>
      </trkpt>
      <trkpt lat="42.507390000" lon="-2.410212000">
        <ele>455.40</ele>
        <time>2016-10-15T08:49:12Z</time>
      </trkpt>
      <trkpt lat="42.507391000" lon="-2.410212000">
        <ele>455.40</ele>
        <time>2016-10-15T08:49:13Z</time>
      </trkpt>
      <trkpt lat="42.507391000" lon="-2.410214000">
        <ele>455.40</ele>
        <time>2016-10-15T08:49:14Z</time>
      </trkpt>
      <trkpt lat="42.507391000" lon="-2.410214000">
        <ele>455.40</ele>
        <time>2016-10-15T08:49:15Z</time>
      </trkpt>
      <trkpt lat="42.507391000" lon="-2.410215000">
        <ele>455.40</ele>
        <time>2016-10-15T08:49:16Z</time>
      </trkpt>
      <trkpt lat="42.507391000" lon="-2.410216000">
        <ele>455.40</ele>
        <time>2016-10-15T08:49:17Z</time>
      </trkpt>
      <trkpt lat="42.507391000" lon="-2.410216000">
        <ele>455.40</ele>
        <time>2016-10-15T08:49:18Z</time>
      </trkpt>
      <trkpt lat="42.507391000" lon="-2.410216000">
        <ele>455.40</ele>
        <time>2016-10-15T08:49:19Z</time>
      </trkpt>
      <trkpt lat="42.507392000" lon="-2.410216000">
        <ele>455.40</ele>
        <time>2016-10-15T08:49:20Z</time>
      </trkpt>
      <trkpt lat="42.507392000" lon="-2.410215000">
        <ele>455.40</ele>
        <time>2016-10-15T08:49:21Z</time>
      </trkpt>
      <trkpt lat="42.507392000" lon="-2.410216000">
        <ele>455.40</ele>
        <time>2016-10-15T08:49:22Z</time>
      </trkpt>
      <trkpt lat="42.507392000" lon="-2.410216000">
        <ele>455.40</ele>
        <time>2016-10-15T08:49:23Z</time>
      </trkpt>
      <trkpt lat="42.507393000" lon="-2.410215000">
        <ele>455.40</ele>
        <time>2016-10-15T08:49:24Z</time>
      </trkpt>
      <trkpt lat="42.507394000" lon="-2.410214000">
        <ele>455.40</ele>
        <time>2016-10-15T08:49:25Z</time>
      </trkpt>
      <trkpt lat="42.507395000" lon="-2.410214000">
        <ele>455.40</ele>
        <time>2016-10-15T08:49:26Z</time>
      </trkpt>
      <trkpt lat="42.507394000" lon="-2.410213000">
        <ele>455.40</ele>
        <time>2016-10-15T08:49:27Z</time>
      </trkpt>
      <trkpt lat="42.507395000" lon="-2.410214000">
        <ele>455.30</ele>
        <time>2016-10-15T08:49:28Z</time>
      </trkpt>
      <trkpt lat="42.507395000" lon="-2.410213000">
        <ele>455.30</ele>
        <time>2016-10-15T08:49:29Z</time>
      </trkpt>
      <trkpt lat="42.507395000" lon="-2.410213000">
        <ele>455.30</ele>
        <time>2016-10-15T08:49:30Z</time>
      </trkpt>
      <trkpt lat="42.507395000" lon="-2.410213000">
        <ele>455.30</ele>
        <time>2016-10-15T08:49:31Z</time>
      </trkpt>
      <trkpt lat="42.507395000" lon="-2.410213000">
        <ele>455.40</ele>
        <time>2016-10-15T08:49:32Z</time>
      </trkpt>
      <trkpt lat="42.507395000" lon="-2.410213000">
        <ele>455.40</ele>
        <time>2016-10-15T08:49:33Z</time>
      </trkpt>
      <trkpt lat="42.507396000" lon="-2.410213000">
        <ele>455.40</ele>
        <time>2016-10-15T08:49:34Z</time>
      </trkpt>
      <trkpt lat="42.507396000" lon="-2.410213000">
        <ele>455.40</ele>
        <time>2016-10-15T08:49:35Z</time>
      </trkpt>
      <trkpt lat="42.507396000" lon="-2.410213000">
        <ele>455.50</ele>
        <time>2016-10-15T08:49:36Z</time>
      </trkpt>
      <trkpt lat="42.507396000" lon="-2.410213000">
        <ele>455.50</ele>
        <time>2016-10-15T08:49:37Z</time>
      </trkpt>
      <trkpt lat="42.507397000" lon="-2.410213000">
        <ele>455.50</ele>
        <time>2016-10-15T08:49:38Z</time>
      </trkpt>
      <trkpt lat="42.507397000" lon="-2.410213000">
        <ele>455.40</ele>
        <time>2016-10-15T08:49:39Z</time>
      </trkpt>
      <trkpt lat="42.507397000" lon="-2.410213000">
        <ele>455.50</ele>
        <time>2016-10-15T08:49:40Z</time>
      </trkpt>
      <trkpt lat="42.507396000" lon="-2.410213000">
        <ele>455.50</ele>
        <time>2016-10-15T08:49:41Z</time>
      </trkpt>
      <trkpt lat="42.507396000" lon="-2.410212000">
        <ele>455.60</ele>
        <time>2016-10-15T08:49:42Z</time>
      </trkpt>
      <trkpt lat="42.507397000" lon="-2.410212000">
        <ele>455.60</ele>
        <time>2016-10-15T08:49:43Z</time>
      </trkpt>
      <trkpt lat="42.507397000" lon="-2.410211000">
        <ele>455.70</ele>
        <time>2016-10-15T08:49:44Z</time>
      </trkpt>
      <trkpt lat="42.507398000" lon="-2.410211000">
        <ele>455.70</ele>
        <time>2016-10-15T08:49:45Z</time>
      </trkpt>
      <trkpt lat="42.507398000" lon="-2.410211000">
        <ele>455.70</ele>
        <time>2016-10-15T08:49:46Z</time>
      </trkpt>
      <trkpt lat="42.507398000" lon="-2.410211000">
        <ele>455.70</ele>
        <time>2016-10-15T08:49:47Z</time>
      </trkpt>
      <trkpt lat="42.507398000" lon="-2.410210000">
        <ele>455.50</ele>
        <time>2016-10-15T08:49:48Z</time>
      </trkpt>
      <trkpt lat="42.507398000" lon="-2.410210000">
        <ele>455.40</ele>
        <time>2016-10-15T08:49:49Z</time>
      </trkpt>
      <trkpt lat="42.507398000" lon="-2.410210000">
        <ele>455.50</ele>
        <time>2016-10-15T08:49:50Z</time>
      </trkpt>
      <trkpt lat="42.507398000" lon="-2.410211000">
        <ele>455.60</ele>
        <time>2016-10-15T08:49:51Z</time>
      </trkpt>
      <trkpt lat="42.507399000" lon="-2.410211000">
        <ele>455.30</ele>
        <time>2016-10-15T08:49:53Z</time>
      </trkpt>
      <trkpt lat="42.507399000" lon="-2.410211000">
        <ele>455.40</ele>
        <time>2016-10-15T08:49:54Z</time>
      </trkpt>
      <trkpt lat="42.507399000" lon="-2.410211000">
        <ele>455.40</ele>
        <time>2016-10-15T08:49:55Z</time>
      </trkpt>
      <trkpt lat="42.507399000" lon="-2.410211000">
        <ele>455.30</ele>
        <time>2016-10-15T08:49:56Z</time>
      </trkpt>
      <trkpt lat="42.507399000" lon="-2.410211000">
        <ele>455.30</ele>
        <time>2016-10-15T08:49:57Z</time>
      </trkpt>
      <trkpt lat="42.507398000" lon="-2.410210000">
        <ele>455.30</ele>
        <time>2016-10-15T08:49:58Z</time>
      </trkpt>
      <trkpt lat="42.507398000" lon="-2.410210000">
        <ele>455.30</ele>
        <time>2016-10-15T08:49:59Z</time>
      </trkpt>
      <trkpt lat="42.507399000" lon="-2.410209000">
        <ele>455.30</ele>
        <time>2016-10-15T08:50:00Z</time>
      </trkpt>
      <trkpt lat="42.507399000" lon="-2.410208000">
        <ele>455.30</ele>
        <time>2016-10-15T08:50:01Z</time>
      </trkpt>
      <trkpt lat="42.507398000" lon="-2.410208000">
        <ele>455.30</ele>
        <time>2016-10-15T08:50:02Z</time>
      </trkpt>
      <trkpt lat="42.507398000" lon="-2.410208000">
        <ele>455.30</ele>
        <time>2016-10-15T08:50:03Z</time>
      </trkpt>
      <trkpt lat="42.507399000" lon="-2.410207000">
        <ele>455.40</ele>
        <time>2016-10-15T08:50:04Z</time>
      </trkpt>
      <trkpt lat="42.507399000" lon="-2.410207000">
        <ele>455.40</ele>
        <time>2016-10-15T08:50:05Z</time>
      </trkpt>
      <trkpt lat="42.507399000" lon="-2.410207000">
        <ele>455.50</ele>
        <time>2016-10-15T08:50:06Z</time>
      </trkpt>
      <trkpt lat="42.507399000" lon="-2.410206000">
        <ele>455.50</ele>
        <time>2016-10-15T08:50:07Z</time>
      </trkpt>
      <trkpt lat="42.507399000" lon="-2.410206000">
        <ele>455.50</ele>
        <time>2016-10-15T08:50:08Z</time>
      </trkpt>
      <trkpt lat="42.507399000" lon="-2.410207000">
        <ele>455.50</ele>
        <time>2016-10-15T08:50:09Z</time>
      </trkpt>
      <trkpt lat="42.507399000" lon="-2.410207000">
        <ele>455.60</ele>
        <time>2016-10-15T08:50:10Z</time>
      </trkpt>
      <trkpt lat="42.507399000" lon="-2.410207000">
        <ele>455.60</ele>
        <time>2016-10-15T08:50:11Z</time>
      </trkpt>
      <trkpt lat="42.507399000" lon="-2.410207000">
        <ele>455.50</ele>
        <time>2016-10-15T08:50:12Z</time>
      </trkpt>
      <trkpt lat="42.507399000" lon="-2.410206000">
        <ele>455.50</ele>
        <time>2016-10-15T08:50:13Z</time>
      </trkpt>
      <trkpt lat="42.507399000" lon="-2.410206000">
        <ele>455.50</ele>
        <time>2016-10-15T08:50:14Z</time>
      </trkpt>
      <trkpt lat="42.507399000" lon="-2.410207000">
        <ele>455.50</ele>
        <time>2016-10-15T08:50:15Z</time>
      </trkpt>
      <trkpt lat="42.507399000" lon="-2.410207000">
        <ele>455.50</ele>
        <time>2016-10-15T08:50:16Z</time>
      </trkpt>
      <trkpt lat="42.507399000" lon="-2.410207000">
        <ele>455.50</ele>
        <time>2016-10-15T08:50:17Z</time>
      </trkpt>
      <trkpt lat="42.507400000" lon="-2.410207000">
        <ele>455.60</ele>
        <time>2016-10-15T08:50:18Z</time>
      </trkpt>
      <trkpt lat="42.507400000" lon="-2.410208000">
        <ele>455.60</ele>
        <time>2016-10-15T08:50:19Z</time>
      </trkpt>
      <trkpt lat="42.507400000" lon="-2.410208000">
        <ele>455.60</ele>
        <time>2016-10-15T08:50:20Z</time>
      </trkpt>
      <trkpt lat="42.507400000" lon="-2.410209000">
        <ele>455.60</ele>
        <time>2016-10-15T08:50:21Z</time>
      </trkpt>
      <trkpt lat="42.507400000" lon="-2.410210000">
        <ele>455.60</ele>
        <time>2016-10-15T08:50:22Z</time>
      </trkpt>
      <trkpt lat="42.507399000" lon="-2.410211000">
        <ele>455.60</ele>
        <time>2016-10-15T08:50:23Z</time>
      </trkpt>
      <trkpt lat="42.507399000" lon="-2.410212000">
        <ele>455.60</ele>
        <time>2016-10-15T08:50:24Z</time>
      </trkpt>
      <trkpt lat="42.507398000" lon="-2.410213000">
        <ele>455.50</ele>
        <time>2016-10-15T08:50:25Z</time>
      </trkpt>
      <trkpt lat="42.507398000" lon="-2.410213000">
        <ele>455.50</ele>
        <time>2016-10-15T08:50:26Z</time>
      </trkpt>
      <trkpt lat="42.507397000" lon="-2.410215000">
        <ele>455.50</ele>
        <time>2016-10-15T08:50:27Z</time>
      </trkpt>
      <trkpt lat="42.507396000" lon="-2.410215000">
        <ele>455.50</ele>
        <time>2016-10-15T08:50:28Z</time>
      </trkpt>
      <trkpt lat="42.507396000" lon="-2.410217000">
        <ele>455.50</ele>
        <time>2016-10-15T08:50:29Z</time>
      </trkpt>
      <trkpt lat="42.507396000" lon="-2.410217000">
        <ele>455.50</ele>
        <time>2016-10-15T08:50:30Z</time>
      </trkpt>
      <trkpt lat="42.507396000" lon="-2.410218000">
        <ele>455.40</ele>
        <time>2016-10-15T08:50:31Z</time>
      </trkpt>
      <trkpt lat="42.507396000" lon="-2.410218000">
        <ele>455.40</ele>
        <time>2016-10-15T08:50:32Z</time>
      </trkpt>
      <trkpt lat="42.507396000" lon="-2.410219000">
        <ele>455.40</ele>
        <time>2016-10-15T08:50:33Z</time>
      </trkpt>
      <trkpt lat="42.507397000" lon="-2.410219000">
        <ele>455.40</ele>
        <time>2016-10-15T08:50:34Z</time>
      </trkpt>
      <trkpt lat="42.507397000" lon="-2.410219000">
        <ele>455.40</ele>
        <time>2016-10-15T08:50:35Z</time>
      </trkpt>
      <trkpt lat="42.507396000" lon="-2.410218000">
        <ele>455.40</ele>
        <time>2016-10-15T08:50:36Z</time>
      </trkpt>
      <trkpt lat="42.507397000" lon="-2.410218000">
        <ele>455.40</ele>
        <time>2016-10-15T08:50:37Z</time>
      </trkpt>
      <trkpt lat="42.507402000" lon="-2.410217000">
        <ele>455.40</ele>
        <time>2016-10-15T08:50:38Z</time>
      </trkpt>
      <trkpt lat="42.507401000" lon="-2.410219000">
        <ele>455.40</ele>
        <time>2016-10-15T08:50:39Z</time>
      </trkpt>
      <trkpt lat="42.507402000" lon="-2.410220000">
        <ele>455.40</ele>
        <time>2016-10-15T08:50:40Z</time>
      </trkpt>
      <trkpt lat="42.507403000" lon="-2.410219000">
        <ele>455.50</ele>
        <time>2016-10-15T08:50:41Z</time>
      </trkpt>
      <trkpt lat="42.507402000" lon="-2.410218000">
        <ele>455.50</ele>
        <time>2016-10-15T08:50:42Z</time>
      </trkpt>
      <trkpt lat="42.507403000" lon="-2.410218000">
        <ele>455.40</ele>
        <time>2016-10-15T08:50:43Z</time>
      </trkpt>
      <trkpt lat="42.507404000" lon="-2.410218000">
        <ele>455.40</ele>
        <time>2016-10-15T08:50:44Z</time>
      </trkpt>
      <trkpt lat="42.507404000" lon="-2.410217000">
        <ele>455.40</ele>
        <time>2016-10-15T08:50:45Z</time>
      </trkpt>
      <trkpt lat="42.507404000" lon="-2.410216000">
        <ele>455.40</ele>
        <time>2016-10-15T08:50:46Z</time>
      </trkpt>
      <trkpt lat="42.507403000" lon="-2.410216000">
        <ele>455.40</ele>
        <time>2016-10-15T08:50:47Z</time>
      </trkpt>
      <trkpt lat="42.507403000" lon="-2.410215000">
        <ele>455.40</ele>
        <time>2016-10-15T08:50:48Z</time>
      </trkpt>
      <trkpt lat="42.507403000" lon="-2.410213000">
        <ele>455.40</ele>
        <time>2016-10-15T08:50:49Z</time>
      </trkpt>
      <trkpt lat="42.507403000" lon="-2.410211000">
        <ele>455.40</ele>
        <time>2016-10-15T08:50:50Z</time>
      </trkpt>
      <trkpt lat="42.507403000" lon="-2.410210000">
        <ele>455.40</ele>
        <time>2016-10-15T08:50:51Z</time>
      </trkpt>
      <trkpt lat="42.507403000" lon="-2.410209000">
        <ele>455.60</ele>
        <time>2016-10-15T08:50:52Z</time>
      </trkpt>
      <trkpt lat="42.507403000" lon="-2.410207000">
        <ele>455.90</ele>
        <time>2016-10-15T08:50:54Z</time>
      </trkpt>
      <trkpt lat="42.507403000" lon="-2.410207000">
        <ele>456.00</ele>
        <time>2016-10-15T08:50:55Z</time>
      </trkpt>
      <trkpt lat="42.507403000" lon="-2.410207000">
        <ele>456.00</ele>
        <time>2016-10-15T08:50:56Z</time>
      </trkpt>
      <trkpt lat="42.507402000" lon="-2.410207000">
        <ele>455.90</ele>
        <time>2016-10-15T08:50:57Z</time>
      </trkpt>
      <trkpt lat="42.507403000" lon="-2.410206000">
        <ele>455.80</ele>
        <time>2016-10-15T08:50:58Z</time>
      </trkpt>
      <trkpt lat="42.507403000" lon="-2.410206000">
        <ele>455.70</ele>
        <time>2016-10-15T08:50:59Z</time>
      </trkpt>
      <trkpt lat="42.507403000" lon="-2.410206000">
        <ele>455.70</ele>
        <time>2016-10-15T08:51:00Z</time>
      </trkpt>
      <trkpt lat="42.507403000" lon="-2.410206000">
        <ele>455.70</ele>
        <time>2016-10-15T08:51:01Z</time>
      </trkpt>
      <trkpt lat="42.507403000" lon="-2.410205000">
        <ele>455.70</ele>
        <time>2016-10-15T08:51:02Z</time>
      </trkpt>
      <trkpt lat="42.507403000" lon="-2.410204000">
        <ele>455.60</ele>
        <time>2016-10-15T08:51:03Z</time>
      </trkpt>
      <trkpt lat="42.507402000" lon="-2.410204000">
        <ele>455.60</ele>
        <time>2016-10-15T08:51:04Z</time>
      </trkpt>
      <trkpt lat="42.507402000" lon="-2.410203000">
        <ele>455.60</ele>
        <time>2016-10-15T08:51:05Z</time>
      </trkpt>
      <trkpt lat="42.507402000" lon="-2.410203000">
        <ele>455.70</ele>
        <time>2016-10-15T08:51:06Z</time>
      </trkpt>
      <trkpt lat="42.507402000" lon="-2.410202000">
        <ele>455.80</ele>
        <time>2016-10-15T08:51:07Z</time>
      </trkpt>
      <trkpt lat="42.507402000" lon="-2.410202000">
        <ele>455.80</ele>
        <time>2016-10-15T08:51:08Z</time>
      </trkpt>
      <trkpt lat="42.507402000" lon="-2.410201000">
        <ele>455.80</ele>
        <time>2016-10-15T08:51:09Z</time>
      </trkpt>
      <trkpt lat="42.507401000" lon="-2.410201000">
        <ele>455.80</ele>
        <time>2016-10-15T08:51:10Z</time>
      </trkpt>
      <trkpt lat="42.507401000" lon="-2.410200000">
        <ele>455.70</ele>
        <time>2016-10-15T08:51:11Z</time>
      </trkpt>
      <trkpt lat="42.507401000" lon="-2.410200000">
        <ele>455.60</ele>
        <time>2016-10-15T08:51:12Z</time>
      </trkpt>
      <trkpt lat="42.507400000" lon="-2.410200000">
        <ele>455.60</ele>
        <time>2016-10-15T08:51:13Z</time>
      </trkpt>
      <trkpt lat="42.507400000" lon="-2.410200000">
        <ele>455.60</ele>
        <time>2016-10-15T08:51:14Z</time>
      </trkpt>
      <trkpt lat="42.507400000" lon="-2.410200000">
        <ele>455.60</ele>
        <time>2016-10-15T08:51:15Z</time>
      </trkpt>
      <trkpt lat="42.507400000" lon="-2.410200000">
        <ele>455.60</ele>
        <time>2016-10-15T08:51:16Z</time>
      </trkpt>
      <trkpt lat="42.507399000" lon="-2.410200000">
        <ele>455.60</ele>
        <time>2016-10-15T08:51:17Z</time>
      </trkpt>
      <trkpt lat="42.507399000" lon="-2.410200000">
        <ele>455.60</ele>
        <time>2016-10-15T08:51:18Z</time>
      </trkpt>
      <trkpt lat="42.507399000" lon="-2.410199000">
        <ele>455.60</ele>
        <time>2016-10-15T08:51:19Z</time>
      </trkpt>
      <trkpt lat="42.507398000" lon="-2.410197000">
        <ele>455.60</ele>
        <time>2016-10-15T08:51:20Z</time>
      </trkpt>
      <trkpt lat="42.507398000" lon="-2.410197000">
        <ele>455.60</ele>
        <time>2016-10-15T08:51:21Z</time>
      </trkpt>
      <trkpt lat="42.507398000" lon="-2.410197000">
        <ele>455.60</ele>
        <time>2016-10-15T08:51:22Z</time>
      </trkpt>
      <trkpt lat="42.507399000" lon="-2.410197000">
        <ele>455.60</ele>
        <time>2016-10-15T08:51:23Z</time>
      </trkpt>
      <trkpt lat="42.507398000" lon="-2.410199000">
        <ele>455.60</ele>
        <time>2016-10-15T08:51:24Z</time>
      </trkpt>
      <trkpt lat="42.507399000" lon="-2.410199000">
        <ele>455.70</ele>
        <time>2016-10-15T08:51:25Z</time>
      </trkpt>
      <trkpt lat="42.507397000" lon="-2.410198000">
        <ele>455.70</ele>
        <time>2016-10-15T08:51:26Z</time>
      </trkpt>
      <trkpt lat="42.507397000" lon="-2.410198000">
        <ele>455.70</ele>
        <time>2016-10-15T08:51:27Z</time>
      </trkpt>
      <trkpt lat="42.507397000" lon="-2.410198000">
        <ele>455.80</ele>
        <time>2016-10-15T08:51:28Z</time>
      </trkpt>
      <trkpt lat="42.507397000" lon="-2.410198000">
        <ele>455.90</ele>
        <time>2016-10-15T08:51:29Z</time>
      </trkpt>
      <trkpt lat="42.507397000" lon="-2.410198000">
        <ele>455.80</ele>
        <time>2016-10-15T08:51:30Z</time>
      </trkpt>
      <trkpt lat="42.507397000" lon="-2.410198000">
        <ele>455.70</ele>
        <time>2016-10-15T08:51:31Z</time>
      </trkpt>
      <trkpt lat="42.507397000" lon="-2.410197000">
        <ele>455.70</ele>
        <time>2016-10-15T08:51:32Z</time>
      </trkpt>
      <trkpt lat="42.507397000" lon="-2.410197000">
        <ele>455.70</ele>
        <time>2016-10-15T08:51:33Z</time>
      </trkpt>
      <trkpt lat="42.507397000" lon="-2.410197000">
        <ele>455.70</ele>
        <time>2016-10-15T08:51:34Z</time>
      </trkpt>
      <trkpt lat="42.507397000" lon="-2.410197000">
        <ele>455.60</ele>
        <time>2016-10-15T08:51:35Z</time>
      </trkpt>
      <trkpt lat="42.507397000" lon="-2.410197000">
        <ele>455.60</ele>
        <time>2016-10-15T08:51:36Z</time>
      </trkpt>
      <trkpt lat="42.507397000" lon="-2.410197000">
        <ele>455.60</ele>
        <time>2016-10-15T08:51:37Z</time>
      </trkpt>
      <trkpt lat="42.507397000" lon="-2.410197000">
        <ele>455.60</ele>
        <time>2016-10-15T08:51:38Z</time>
      </trkpt>
      <trkpt lat="42.507397000" lon="-2.410198000">
        <ele>455.60</ele>
        <time>2016-10-15T08:51:39Z</time>
      </trkpt>
      <trkpt lat="42.507397000" lon="-2.410198000">
        <ele>455.60</ele>
        <time>2016-10-15T08:51:40Z</time>
      </trkpt>
      <trkpt lat="42.507397000" lon="-2.410197000">
        <ele>455.60</ele>
        <time>2016-10-15T08:51:41Z</time>
      </trkpt>
      <trkpt lat="42.507398000" lon="-2.410198000">
        <ele>455.60</ele>
        <time>2016-10-15T08:51:42Z</time>
      </trkpt>
      <trkpt lat="42.507397000" lon="-2.410198000">
        <ele>455.60</ele>
        <time>2016-10-15T08:51:43Z</time>
      </trkpt>
      <trkpt lat="42.507398000" lon="-2.410198000">
        <ele>455.70</ele>
        <time>2016-10-15T08:51:44Z</time>
      </trkpt>
      <trkpt lat="42.507398000" lon="-2.410198000">
        <ele>455.90</ele>
        <time>2016-10-15T08:51:45Z</time>
      </trkpt>
      <trkpt lat="42.507398000" lon="-2.410198000">
        <ele>455.90</ele>
        <time>2016-10-15T08:51:46Z</time>
      </trkpt>
      <trkpt lat="42.507398000" lon="-2.410197000">
        <ele>456.00</ele>
        <time>2016-10-15T08:51:47Z</time>
      </trkpt>
      <trkpt lat="42.507398000" lon="-2.410197000">
        <ele>456.00</ele>
        <time>2016-10-15T08:51:48Z</time>
      </trkpt>
      <trkpt lat="42.507398000" lon="-2.410197000">
        <ele>456.00</ele>
        <time>2016-10-15T08:51:49Z</time>
      </trkpt>
      <trkpt lat="42.507397000" lon="-2.410197000">
        <ele>456.00</ele>
        <time>2016-10-15T08:51:50Z</time>
      </trkpt>
      <trkpt lat="42.507397000" lon="-2.410197000">
        <ele>456.00</ele>
        <time>2016-10-15T08:51:51Z</time>
      </trkpt>
      <trkpt lat="42.507398000" lon="-2.410197000">
        <ele>455.90</ele>
        <time>2016-10-15T08:51:52Z</time>
      </trkpt>
      <trkpt lat="42.507397000" lon="-2.410198000">
        <ele>455.80</ele>
        <time>2016-10-15T08:51:53Z</time>
      </trkpt>
      <trkpt lat="42.507397000" lon="-2.410199000">
        <ele>455.50</ele>
        <time>2016-10-15T08:51:55Z</time>
      </trkpt>
      <trkpt lat="42.507397000" lon="-2.410199000">
        <ele>455.40</ele>
        <time>2016-10-15T08:51:56Z</time>
      </trkpt>
      <trkpt lat="42.507397000" lon="-2.410200000">
        <ele>455.30</ele>
        <time>2016-10-15T08:51:57Z</time>
      </trkpt>
      <trkpt lat="42.507396000" lon="-2.410200000">
        <ele>455.30</ele>
        <time>2016-10-15T08:51:58Z</time>
      </trkpt>
      <trkpt lat="42.507396000" lon="-2.410200000">
        <ele>455.20</ele>
        <time>2016-10-15T08:51:59Z</time>
      </trkpt>
      <trkpt lat="42.507396000" lon="-2.410200000">
        <ele>455.30</ele>
        <time>2016-10-15T08:52:00Z</time>
      </trkpt>
      <trkpt lat="42.507396000" lon="-2.410200000">
        <ele>455.30</ele>
        <time>2016-10-15T08:52:01Z</time>
      </trkpt>
      <trkpt lat="42.507396000" lon="-2.410200000">
        <ele>455.40</ele>
        <time>2016-10-15T08:52:02Z</time>
      </trkpt>
      <trkpt lat="42.507396000" lon="-2.410201000">
        <ele>455.50</ele>
        <time>2016-10-15T08:52:03Z</time>
      </trkpt>
      <trkpt lat="42.507396000" lon="-2.410201000">
        <ele>455.60</ele>
        <time>2016-10-15T08:52:04Z</time>
      </trkpt>
      <trkpt lat="42.507395000" lon="-2.410201000">
        <ele>455.60</ele>
        <time>2016-10-15T08:52:05Z</time>
      </trkpt>
      <trkpt lat="42.507395000" lon="-2.410201000">
        <ele>455.70</ele>
        <time>2016-10-15T08:52:06Z</time>
      </trkpt>
      <trkpt lat="42.507395000" lon="-2.410201000">
        <ele>455.70</ele>
        <time>2016-10-15T08:52:07Z</time>
      </trkpt>
      <trkpt lat="42.507394000" lon="-2.410202000">
        <ele>455.60</ele>
        <time>2016-10-15T08:52:08Z</time>
      </trkpt>
      <trkpt lat="42.507394000" lon="-2.410203000">
        <ele>455.50</ele>
        <time>2016-10-15T08:52:09Z</time>
      </trkpt>
      <trkpt lat="42.507394000" lon="-2.410204000">
        <ele>455.40</ele>
        <time>2016-10-15T08:52:10Z</time>
      </trkpt>
      <trkpt lat="42.507394000" lon="-2.410204000">
        <ele>455.40</ele>
        <time>2016-10-15T08:52:11Z</time>
      </trkpt>
      <trkpt lat="42.507394000" lon="-2.410204000">
        <ele>455.30</ele>
        <time>2016-10-15T08:52:12Z</time>
      </trkpt>
      <trkpt lat="42.507395000" lon="-2.410204000">
        <ele>455.30</ele>
        <time>2016-10-15T08:52:13Z</time>
      </trkpt>
      <trkpt lat="42.507395000" lon="-2.410203000">
        <ele>455.40</ele>
        <time>2016-10-15T08:52:14Z</time>
      </trkpt>
      <trkpt lat="42.507395000" lon="-2.410202000">
        <ele>455.40</ele>
        <time>2016-10-15T08:52:15Z</time>
      </trkpt>
      <trkpt lat="42.507396000" lon="-2.410202000">
        <ele>455.50</ele>
        <time>2016-10-15T08:52:16Z</time>
      </trkpt>
      <trkpt lat="42.507396000" lon="-2.410202000">
        <ele>455.50</ele>
        <time>2016-10-15T08:52:17Z</time>
      </trkpt>
      <trkpt lat="42.507397000" lon="-2.410202000">
        <ele>455.60</ele>
        <time>2016-10-15T08:52:18Z</time>
      </trkpt>
      <trkpt lat="42.507396000" lon="-2.410204000">
        <ele>455.70</ele>
        <time>2016-10-15T08:52:19Z</time>
      </trkpt>
      <trkpt lat="42.507396000" lon="-2.410204000">
        <ele>455.80</ele>
        <time>2016-10-15T08:52:20Z</time>
      </trkpt>
      <trkpt lat="42.507396000" lon="-2.410205000">
        <ele>455.90</ele>
        <time>2016-10-15T08:52:21Z</time>
      </trkpt>
      <trkpt lat="42.507396000" lon="-2.410205000">
        <ele>455.90</ele>
        <time>2016-10-15T08:52:22Z</time>
      </trkpt>
      <trkpt lat="42.507397000" lon="-2.410204000">
        <ele>456.00</ele>
        <time>2016-10-15T08:52:23Z</time>
      </trkpt>
      <trkpt lat="42.507397000" lon="-2.410203000">
        <ele>456.00</ele>
        <time>2016-10-15T08:52:24Z</time>
      </trkpt>
      <trkpt lat="42.507397000" lon="-2.410203000">
        <ele>456.00</ele>
        <time>2016-10-15T08:52:25Z</time>
      </trkpt>
      <trkpt lat="42.507397000" lon="-2.410202000">
        <ele>456.10</ele>
        <time>2016-10-15T08:52:26Z</time>
      </trkpt>
      <trkpt lat="42.507397000" lon="-2.410202000">
        <ele>456.10</ele>
        <time>2016-10-15T08:52:27Z</time>
      </trkpt>
      <trkpt lat="42.507396000" lon="-2.410203000">
        <ele>456.10</ele>
        <time>2016-10-15T08:52:28Z</time>
      </trkpt>
      <trkpt lat="42.507396000" lon="-2.410203000">
        <ele>456.10</ele>
        <time>2016-10-15T08:52:29Z</time>
      </trkpt>
      <trkpt lat="42.507396000" lon="-2.410203000">
        <ele>455.90</ele>
        <time>2016-10-15T08:52:30Z</time>
      </trkpt>
      <trkpt lat="42.507396000" lon="-2.410203000">
        <ele>455.80</ele>
        <time>2016-10-15T08:52:31Z</time>
      </trkpt>
      <trkpt lat="42.507396000" lon="-2.410204000">
        <ele>455.70</ele>
        <time>2016-10-15T08:52:32Z</time>
      </trkpt>
      <trkpt lat="42.507395000" lon="-2.410205000">
        <ele>455.70</ele>
        <time>2016-10-15T08:52:33Z</time>
      </trkpt>
      <trkpt lat="42.507395000" lon="-2.410205000">
        <ele>455.60</ele>
        <time>2016-10-15T08:52:34Z</time>
      </trkpt>
      <trkpt lat="42.507395000" lon="-2.410205000">
        <ele>455.60</ele>
        <time>2016-10-15T08:52:35Z</time>
      </trkpt>
      <trkpt lat="42.507395000" lon="-2.410205000">
        <ele>455.60</ele>
        <time>2016-10-15T08:52:36Z</time>
      </trkpt>
      <trkpt lat="42.507395000" lon="-2.410205000">
        <ele>455.60</ele>
        <time>2016-10-15T08:52:37Z</time>
      </trkpt>
      <trkpt lat="42.507395000" lon="-2.410205000">
        <ele>455.50</ele>
        <time>2016-10-15T08:52:38Z</time>
      </trkpt>
      <trkpt lat="42.507395000" lon="-2.410205000">
        <ele>455.50</ele>
        <time>2016-10-15T08:52:39Z</time>
      </trkpt>
      <trkpt lat="42.507395000" lon="-2.410205000">
        <ele>455.60</ele>
        <time>2016-10-15T08:52:40Z</time>
      </trkpt>
      <trkpt lat="42.507395000" lon="-2.410204000">
        <ele>455.60</ele>
        <time>2016-10-15T08:52:41Z</time>
      </trkpt>
      <trkpt lat="42.507395000" lon="-2.410203000">
        <ele>455.50</ele>
        <time>2016-10-15T08:52:42Z</time>
      </trkpt>
      <trkpt lat="42.507395000" lon="-2.410203000">
        <ele>455.50</ele>
        <time>2016-10-15T08:52:43Z</time>
      </trkpt>
      <trkpt lat="42.507394000" lon="-2.410202000">
        <ele>455.50</ele>
        <time>2016-10-15T08:52:44Z</time>
      </trkpt>
      <trkpt lat="42.507394000" lon="-2.410202000">
        <ele>455.50</ele>
        <time>2016-10-15T08:52:45Z</time>
      </trkpt>
      <trkpt lat="42.507394000" lon="-2.410203000">
        <ele>455.50</ele>
        <time>2016-10-15T08:52:46Z</time>
      </trkpt>
      <trkpt lat="42.507393000" lon="-2.410204000">
        <ele>455.50</ele>
        <time>2016-10-15T08:52:47Z</time>
      </trkpt>
      <trkpt lat="42.507394000" lon="-2.410205000">
        <ele>455.40</ele>
        <time>2016-10-15T08:52:48Z</time>
      </trkpt>
      <trkpt lat="42.507394000" lon="-2.410205000">
        <ele>455.40</ele>
        <time>2016-10-15T08:52:49Z</time>
      </trkpt>
      <trkpt lat="42.507394000" lon="-2.410205000">
        <ele>455.70</ele>
        <time>2016-10-15T08:52:50Z</time>
      </trkpt>
      <trkpt lat="42.507395000" lon="-2.410206000">
        <ele>455.80</ele>
        <time>2016-10-15T08:52:51Z</time>
      </trkpt>
      <trkpt lat="42.507395000" lon="-2.410206000">
        <ele>455.90</ele>
        <time>2016-10-15T08:52:52Z</time>
      </trkpt>
      <trkpt lat="42.507395000" lon="-2.410207000">
        <ele>456.00</ele>
        <time>2016-10-15T08:52:53Z</time>
      </trkpt>
      <trkpt lat="42.507395000" lon="-2.410207000">
        <ele>456.00</ele>
        <time>2016-10-15T08:52:54Z</time>
      </trkpt>
      <trkpt lat="42.507394000" lon="-2.410208000">
        <ele>456.00</ele>
        <time>2016-10-15T08:52:56Z</time>
      </trkpt>
      <trkpt lat="42.507394000" lon="-2.410208000">
        <ele>456.00</ele>
        <time>2016-10-15T08:52:57Z</time>
      </trkpt>
      <trkpt lat="42.507394000" lon="-2.410208000">
        <ele>456.00</ele>
        <time>2016-10-15T08:52:58Z</time>
      </trkpt>
      <trkpt lat="42.507394000" lon="-2.410208000">
        <ele>456.10</ele>
        <time>2016-10-15T08:52:59Z</time>
      </trkpt>
      <trkpt lat="42.507395000" lon="-2.410208000">
        <ele>456.10</ele>
        <time>2016-10-15T08:53:00Z</time>
      </trkpt>
      <trkpt lat="42.507393000" lon="-2.410209000">
        <ele>456.10</ele>
        <time>2016-10-15T08:53:01Z</time>
      </trkpt>
      <trkpt lat="42.507393000" lon="-2.410209000">
        <ele>456.00</ele>
        <time>2016-10-15T08:53:02Z</time>
      </trkpt>
      <trkpt lat="42.507393000" lon="-2.410211000">
        <ele>455.90</ele>
        <time>2016-10-15T08:53:03Z</time>
      </trkpt>
      <trkpt lat="42.507393000" lon="-2.410213000">
        <ele>455.80</ele>
        <time>2016-10-15T08:53:04Z</time>
      </trkpt>
      <trkpt lat="42.507394000" lon="-2.410213000">
        <ele>455.80</ele>
        <time>2016-10-15T08:53:05Z</time>
      </trkpt>
      <trkpt lat="42.507394000" lon="-2.410213000">
        <ele>455.80</ele>
        <time>2016-10-15T08:53:06Z</time>
      </trkpt>
      <trkpt lat="42.507395000" lon="-2.410212000">
        <ele>455.80</ele>
        <time>2016-10-15T08:53:07Z</time>
      </trkpt>
      <trkpt lat="42.507398000" lon="-2.410211000">
        <ele>455.80</ele>
        <time>2016-10-15T08:53:08Z</time>
      </trkpt>
      <trkpt lat="42.507398000" lon="-2.410213000">
        <ele>455.90</ele>
        <time>2016-10-15T08:53:09Z</time>
      </trkpt>
      <trkpt lat="42.507402000" lon="-2.410230000">
        <ele>455.90</ele>
        <time>2016-10-15T08:53:10Z</time>
      </trkpt>
      <trkpt lat="42.507401000" lon="-2.410257000">
        <ele>455.90</ele>
        <time>2016-10-15T08:53:11Z</time>
      </trkpt>
      <trkpt lat="42.507401000" lon="-2.410281000">
        <ele>455.90</ele>
        <time>2016-10-15T08:53:12Z</time>
      </trkpt>
      <trkpt lat="42.507402000" lon="-2.410305000">
        <ele>455.90</ele>
        <time>2016-10-15T08:53:13Z</time>
      </trkpt>
      <trkpt lat="42.507401000" lon="-2.410332000">
        <ele>456.00</ele>
        <time>2016-10-15T08:53:14Z</time>
      </trkpt>
      <trkpt lat="42.507401000" lon="-2.410363000">
        <ele>456.00</ele>
        <time>2016-10-15T08:53:15Z</time>
      </trkpt>
      <trkpt lat="42.507399000" lon="-2.410397000">
        <ele>456.10</ele>
        <time>2016-10-15T08:53:16Z</time>
      </trkpt>
      <trkpt lat="42.507398000" lon="-2.410433000">
        <ele>456.10</ele>
        <time>2016-10-15T08:53:17Z</time>
      </trkpt>
      <trkpt lat="42.507397000" lon="-2.410475000">
        <ele>456.10</ele>
        <time>2016-10-15T08:53:18Z</time>
      </trkpt>
      <trkpt lat="42.507400000" lon="-2.410519000">
        <ele>456.10</ele>
        <time>2016-10-15T08:53:19Z</time>
      </trkpt>
      <trkpt lat="42.507405000" lon="-2.410563000">
        <ele>456.10</ele>
        <time>2016-10-15T08:53:20Z</time>
      </trkpt>
      <trkpt lat="42.507407000" lon="-2.410611000">
        <ele>456.10</ele>
        <time>2016-10-15T08:53:21Z</time>
      </trkpt>
      <trkpt lat="42.507408000" lon="-2.410660000">
        <ele>456.00</ele>
        <time>2016-10-15T08:53:22Z</time>
      </trkpt>
      <trkpt lat="42.507411000" lon="-2.410710000">
        <ele>455.90</ele>
        <time>2016-10-15T08:53:23Z</time>
      </trkpt>
      <trkpt lat="42.507414000" lon="-2.410766000">
        <ele>455.90</ele>
        <time>2016-10-15T08:53:24Z</time>
      </trkpt>
      <trkpt lat="42.507415000" lon="-2.410818000">
        <ele>455.90</ele>
        <time>2016-10-15T08:53:25Z</time>
      </trkpt>
      <trkpt lat="42.507416000" lon="-2.410872000">
        <ele>455.70</ele>
        <time>2016-10-15T08:53:26Z</time>
      </trkpt>
      <trkpt lat="42.507418000" lon="-2.410926000">
        <ele>455.50</ele>
        <time>2016-10-15T08:53:27Z</time>
      </trkpt>
      <trkpt lat="42.507423000" lon="-2.410979000">
        <ele>455.30</ele>
        <time>2016-10-15T08:53:28Z</time>
      </trkpt>
      <trkpt lat="42.507426000" lon="-2.411034000">
        <ele>455.10</ele>
        <time>2016-10-15T08:53:29Z</time>
      </trkpt>
      <trkpt lat="42.507431000" lon="-2.411090000">
        <ele>455.00</ele>
        <time>2016-10-15T08:53:30Z</time>
      </trkpt>
      <trkpt lat="42.507437000" lon="-2.411146000">
        <ele>454.90</ele>
        <time>2016-10-15T08:53:31Z</time>
      </trkpt>
      <trkpt lat="42.507444000" lon="-2.411201000">
        <ele>454.80</ele>
        <time>2016-10-15T08:53:32Z</time>
      </trkpt>
      <trkpt lat="42.507453000" lon="-2.411255000">
        <ele>454.80</ele>
        <time>2016-10-15T08:53:33Z</time>
      </trkpt>
      <trkpt lat="42.507461000" lon="-2.411310000">
        <ele>454.80</ele>
        <time>2016-10-15T08:53:34Z</time>
      </trkpt>
      <trkpt lat="42.507465000" lon="-2.411369000">
        <ele>454.70</ele>
        <time>2016-10-15T08:53:35Z</time>
      </trkpt>
      <trkpt lat="42.507471000" lon="-2.411428000">
        <ele>454.60</ele>
        <time>2016-10-15T08:53:36Z</time>
      </trkpt>
      <trkpt lat="42.507475000" lon="-2.411483000">
        <ele>454.50</ele>
        <time>2016-10-15T08:53:37Z</time>
      </trkpt>
      <trkpt lat="42.507478000" lon="-2.411543000">
        <ele>454.40</ele>
        <time>2016-10-15T08:53:38Z</time>
      </trkpt>
      <trkpt lat="42.507481000" lon="-2.411606000">
        <ele>454.30</ele>
        <time>2016-10-15T08:53:39Z</time>
      </trkpt>
      <trkpt lat="42.507481000" lon="-2.411671000">
        <ele>454.30</ele>
        <time>2016-10-15T08:53:40Z</time>
      </trkpt>
      <trkpt lat="42.507485000" lon="-2.411734000">
        <ele>454.30</ele>
        <time>2016-10-15T08:53:41Z</time>
      </trkpt>
      <trkpt lat="42.507488000" lon="-2.411800000">
        <ele>454.20</ele>
        <time>2016-10-15T08:53:42Z</time>
      </trkpt>
      <trkpt lat="42.507490000" lon="-2.411864000">
        <ele>454.20</ele>
        <time>2016-10-15T08:53:43Z</time>
      </trkpt>
      <trkpt lat="42.507492000" lon="-2.411929000">
        <ele>454.20</ele>
        <time>2016-10-15T08:53:44Z</time>
      </trkpt>
      <trkpt lat="42.507494000" lon="-2.411994000">
        <ele>454.20</ele>
        <time>2016-10-15T08:53:45Z</time>
      </trkpt>
      <trkpt lat="42.507495000" lon="-2.412057000">
        <ele>454.00</ele>
        <time>2016-10-15T08:53:46Z</time>
      </trkpt>
      <trkpt lat="42.507496000" lon="-2.412120000">
        <ele>453.90</ele>
        <time>2016-10-15T08:53:47Z</time>
      </trkpt>
      <trkpt lat="42.507494000" lon="-2.412184000">
        <ele>454.00</ele>
        <time>2016-10-15T08:53:48Z</time>
      </trkpt>
      <trkpt lat="42.507496000" lon="-2.412244000">
        <ele>454.00</ele>
        <time>2016-10-15T08:53:49Z</time>
      </trkpt>
      <trkpt lat="42.507498000" lon="-2.412305000">
        <ele>453.90</ele>
        <time>2016-10-15T08:53:50Z</time>
      </trkpt>
      <trkpt lat="42.507498000" lon="-2.412367000">
        <ele>453.90</ele>
        <time>2016-10-15T08:53:51Z</time>
      </trkpt>
      <trkpt lat="42.507497000" lon="-2.412428000">
        <ele>453.80</ele>
        <time>2016-10-15T08:53:52Z</time>
      </trkpt>
      <trkpt lat="42.507495000" lon="-2.412492000">
        <ele>453.80</ele>
        <time>2016-10-15T08:53:53Z</time>
      </trkpt>
      <trkpt lat="42.507490000" lon="-2.412560000">
        <ele>453.80</ele>
        <time>2016-10-15T08:53:54Z</time>
      </trkpt>
      <trkpt lat="42.507486000" lon="-2.412623000">
        <ele>453.70</ele>
        <time>2016-10-15T08:53:55Z</time>
      </trkpt>
      <trkpt lat="42.507476000" lon="-2.412750000">
        <ele>453.80</ele>
        <time>2016-10-15T08:53:57Z</time>
      </trkpt>
      <trkpt lat="42.507474000" lon="-2.412812000">
        <ele>453.80</ele>
        <time>2016-10-15T08:53:58Z</time>
      </trkpt>
      <trkpt lat="42.507473000" lon="-2.412875000">
        <ele>453.80</ele>
        <time>2016-10-15T08:53:59Z</time>
      </trkpt>
      <trkpt lat="42.507472000" lon="-2.412939000">
        <ele>453.60</ele>
        <time>2016-10-15T08:54:00Z</time>
      </trkpt>
      <trkpt lat="42.507474000" lon="-2.413007000">
        <ele>453.50</ele>
        <time>2016-10-15T08:54:01Z</time>
      </trkpt>
      <trkpt lat="42.507477000" lon="-2.413074000">
        <ele>453.30</ele>
        <time>2016-10-15T08:54:02Z</time>
      </trkpt>
      <trkpt lat="42.507490000" lon="-2.413139000">
        <ele>453.10</ele>
        <time>2016-10-15T08:54:03Z</time>
      </trkpt>
      <trkpt lat="42.507502000" lon="-2.413196000">
        <ele>452.90</ele>
        <time>2016-10-15T08:54:04Z</time>
      </trkpt>
      <trkpt lat="42.507514000" lon="-2.413258000">
        <ele>452.80</ele>
        <time>2016-10-15T08:54:05Z</time>
      </trkpt>
      <trkpt lat="42.507523000" lon="-2.413327000">
        <ele>452.70</ele>
        <time>2016-10-15T08:54:06Z</time>
      </trkpt>
      <trkpt lat="42.507530000" lon="-2.413400000">
        <ele>452.70</ele>
        <time>2016-10-15T08:54:07Z</time>
      </trkpt>
      <trkpt lat="42.507537000" lon="-2.413473000">
        <ele>452.70</ele>
        <time>2016-10-15T08:54:08Z</time>
      </trkpt>
      <trkpt lat="42.507543000" lon="-2.413546000">
        <ele>452.60</ele>
        <time>2016-10-15T08:54:09Z</time>
      </trkpt>
      <trkpt lat="42.507545000" lon="-2.413622000">
        <ele>452.40</ele>
        <time>2016-10-15T08:54:10Z</time>
      </trkpt>
      <trkpt lat="42.507549000" lon="-2.413697000">
        <ele>452.10</ele>
        <time>2016-10-15T08:54:11Z</time>
      </trkpt>
      <trkpt lat="42.507556000" lon="-2.413773000">
        <ele>451.80</ele>
        <time>2016-10-15T08:54:12Z</time>
      </trkpt>
      <trkpt lat="42.507567000" lon="-2.413846000">
        <ele>451.50</ele>
        <time>2016-10-15T08:54:13Z</time>
      </trkpt>
      <trkpt lat="42.507576000" lon="-2.413923000">
        <ele>451.30</ele>
        <time>2016-10-15T08:54:14Z</time>
      </trkpt>
      <trkpt lat="42.507584000" lon="-2.414000000">
        <ele>451.20</ele>
        <time>2016-10-15T08:54:15Z</time>
      </trkpt>
      <trkpt lat="42.507592000" lon="-2.414079000">
        <ele>451.00</ele>
        <time>2016-10-15T08:54:16Z</time>
      </trkpt>
      <trkpt lat="42.507598000" lon="-2.414154000">
        <ele>450.90</ele>
        <time>2016-10-15T08:54:17Z</time>
      </trkpt>
      <trkpt lat="42.507605000" lon="-2.414231000">
        <ele>450.60</ele>
        <time>2016-10-15T08:54:18Z</time>
      </trkpt>
      <trkpt lat="42.507609000" lon="-2.414310000">
        <ele>450.40</ele>
        <time>2016-10-15T08:54:19Z</time>
      </trkpt>
      <trkpt lat="42.507617000" lon="-2.414386000">
        <ele>450.10</ele>
        <time>2016-10-15T08:54:20Z</time>
      </trkpt>
      <trkpt lat="42.507625000" lon="-2.414465000">
        <ele>449.90</ele>
        <time>2016-10-15T08:54:21Z</time>
      </trkpt>
      <trkpt lat="42.507634000" lon="-2.414543000">
        <ele>449.80</ele>
        <time>2016-10-15T08:54:22Z</time>
      </trkpt>
      <trkpt lat="42.507643000" lon="-2.414625000">
        <ele>449.60</ele>
        <time>2016-10-15T08:54:23Z</time>
      </trkpt>
      <trkpt lat="42.507653000" lon="-2.414710000">
        <ele>449.50</ele>
        <time>2016-10-15T08:54:24Z</time>
      </trkpt>
      <trkpt lat="42.507665000" lon="-2.414794000">
        <ele>449.40</ele>
        <time>2016-10-15T08:54:25Z</time>
      </trkpt>
      <trkpt lat="42.507679000" lon="-2.414879000">
        <ele>449.20</ele>
        <time>2016-10-15T08:54:26Z</time>
      </trkpt>
      <trkpt lat="42.507697000" lon="-2.414961000">
        <ele>449.10</ele>
        <time>2016-10-15T08:54:27Z</time>
      </trkpt>
      <trkpt lat="42.507714000" lon="-2.415044000">
        <ele>448.80</ele>
        <time>2016-10-15T08:54:28Z</time>
      </trkpt>
      <trkpt lat="42.507738000" lon="-2.415123000">
        <ele>448.60</ele>
        <time>2016-10-15T08:54:29Z</time>
      </trkpt>
      <trkpt lat="42.507762000" lon="-2.415201000">
        <ele>448.20</ele>
        <time>2016-10-15T08:54:30Z</time>
      </trkpt>
      <trkpt lat="42.507789000" lon="-2.415277000">
        <ele>448.00</ele>
        <time>2016-10-15T08:54:31Z</time>
      </trkpt>
      <trkpt lat="42.507811000" lon="-2.415357000">
        <ele>447.60</ele>
        <time>2016-10-15T08:54:32Z</time>
      </trkpt>
      <trkpt lat="42.507831000" lon="-2.415437000">
        <ele>447.40</ele>
        <time>2016-10-15T08:54:33Z</time>
      </trkpt>
      <trkpt lat="42.507852000" lon="-2.415517000">
        <ele>447.20</ele>
        <time>2016-10-15T08:54:34Z</time>
      </trkpt>
      <trkpt lat="42.507875000" lon="-2.415595000">
        <ele>447.10</ele>
        <time>2016-10-15T08:54:35Z</time>
      </trkpt>
      <trkpt lat="42.507899000" lon="-2.415672000">
        <ele>447.00</ele>
        <time>2016-10-15T08:54:36Z</time>
      </trkpt>
      <trkpt lat="42.507924000" lon="-2.415749000">
        <ele>446.90</ele>
        <time>2016-10-15T08:54:37Z</time>
      </trkpt>
      <trkpt lat="42.507950000" lon="-2.415828000">
        <ele>446.60</ele>
        <time>2016-10-15T08:54:38Z</time>
      </trkpt>
      <trkpt lat="42.507978000" lon="-2.415908000">
        <ele>446.40</ele>
        <time>2016-10-15T08:54:39Z</time>
      </trkpt>
      <trkpt lat="42.508009000" lon="-2.415984000">
        <ele>446.30</ele>
        <time>2016-10-15T08:54:40Z</time>
      </trkpt>
      <trkpt lat="42.508041000" lon="-2.416059000">
        <ele>446.20</ele>
        <time>2016-10-15T08:54:41Z</time>
      </trkpt>
      <trkpt lat="42.508073000" lon="-2.416135000">
        <ele>446.10</ele>
        <time>2016-10-15T08:54:42Z</time>
      </trkpt>
      <trkpt lat="42.508107000" lon="-2.416214000">
        <ele>446.00</ele>
        <time>2016-10-15T08:54:43Z</time>
      </trkpt>
      <trkpt lat="42.508141000" lon="-2.416296000">
        <ele>445.50</ele>
        <time>2016-10-15T08:54:44Z</time>
      </trkpt>
      <trkpt lat="42.508172000" lon="-2.416382000">
        <ele>445.20</ele>
        <time>2016-10-15T08:54:45Z</time>
      </trkpt>
      <trkpt lat="42.508201000" lon="-2.416472000">
        <ele>444.90</ele>
        <time>2016-10-15T08:54:46Z</time>
      </trkpt>
      <trkpt lat="42.508231000" lon="-2.416564000">
        <ele>444.70</ele>
        <time>2016-10-15T08:54:47Z</time>
      </trkpt>
      <trkpt lat="42.508264000" lon="-2.416656000">
        <ele>444.30</ele>
        <time>2016-10-15T08:54:48Z</time>
      </trkpt>
      <trkpt lat="42.508296000" lon="-2.416751000">
        <ele>444.00</ele>
        <time>2016-10-15T08:54:49Z</time>
      </trkpt>
      <trkpt lat="42.508326000" lon="-2.416847000">
        <ele>443.50</ele>
        <time>2016-10-15T08:54:50Z</time>
      </trkpt>
      <trkpt lat="42.508357000" lon="-2.416945000">
        <ele>443.10</ele>
        <time>2016-10-15T08:54:51Z</time>
      </trkpt>
      <trkpt lat="42.508380000" lon="-2.417049000">
        <ele>442.90</ele>
        <time>2016-10-15T08:54:52Z</time>
      </trkpt>
      <trkpt lat="42.508401000" lon="-2.417154000">
        <ele>442.70</ele>
        <time>2016-10-15T08:54:53Z</time>
      </trkpt>
      <trkpt lat="42.508410000" lon="-2.417267000">
        <ele>442.20</ele>
        <time>2016-10-15T08:54:54Z</time>
      </trkpt>
      <trkpt lat="42.508404000" lon="-2.417373000">
        <ele>441.80</ele>
        <time>2016-10-15T08:54:55Z</time>
      </trkpt>
      <trkpt lat="42.508390000" lon="-2.417482000">
        <ele>441.40</ele>
        <time>2016-10-15T08:54:56Z</time>
      </trkpt>
      <trkpt lat="42.508343000" lon="-2.417700000">
        <ele>440.60</ele>
        <time>2016-10-15T08:54:58Z</time>
      </trkpt>
      <trkpt lat="42.508307000" lon="-2.417800000">
        <ele>440.20</ele>
        <time>2016-10-15T08:54:59Z</time>
      </trkpt>
      <trkpt lat="42.508266000" lon="-2.417895000">
        <ele>439.90</ele>
        <time>2016-10-15T08:55:00Z</time>
      </trkpt>
      <trkpt lat="42.508237000" lon="-2.417985000">
        <ele>439.60</ele>
        <time>2016-10-15T08:55:01Z</time>
      </trkpt>
      <trkpt lat="42.508230000" lon="-2.418077000">
        <ele>439.40</ele>
        <time>2016-10-15T08:55:02Z</time>
      </trkpt>
      <trkpt lat="42.508236000" lon="-2.418169000">
        <ele>439.30</ele>
        <time>2016-10-15T08:55:03Z</time>
      </trkpt>
      <trkpt lat="42.508250000" lon="-2.418253000">
        <ele>438.80</ele>
        <time>2016-10-15T08:55:04Z</time>
      </trkpt>
      <trkpt lat="42.508267000" lon="-2.418338000">
        <ele>438.50</ele>
        <time>2016-10-15T08:55:05Z</time>
      </trkpt>
      <trkpt lat="42.508284000" lon="-2.418421000">
        <ele>438.10</ele>
        <time>2016-10-15T08:55:06Z</time>
      </trkpt>
      <trkpt lat="42.508300000" lon="-2.418504000">
        <ele>437.90</ele>
        <time>2016-10-15T08:55:07Z</time>
      </trkpt>
      <trkpt lat="42.508324000" lon="-2.418587000">
        <ele>437.60</ele>
        <time>2016-10-15T08:55:08Z</time>
      </trkpt>
      <trkpt lat="42.508345000" lon="-2.418668000">
        <ele>437.40</ele>
        <time>2016-10-15T08:55:09Z</time>
      </trkpt>
      <trkpt lat="42.508367000" lon="-2.418748000">
        <ele>437.20</ele>
        <time>2016-10-15T08:55:10Z</time>
      </trkpt>
      <trkpt lat="42.508386000" lon="-2.418830000">
        <ele>437.00</ele>
        <time>2016-10-15T08:55:11Z</time>
      </trkpt>
      <trkpt lat="42.508404000" lon="-2.418913000">
        <ele>436.90</ele>
        <time>2016-10-15T08:55:12Z</time>
      </trkpt>
      <trkpt lat="42.508420000" lon="-2.419002000">
        <ele>436.80</ele>
        <time>2016-10-15T08:55:13Z</time>
      </trkpt>
      <trkpt lat="42.508439000" lon="-2.419084000">
        <ele>436.50</ele>
        <time>2016-10-15T08:55:14Z</time>
      </trkpt>
      <trkpt lat="42.508457000" lon="-2.419168000">
        <ele>436.30</ele>
        <time>2016-10-15T08:55:15Z</time>
      </trkpt>
      <trkpt lat="42.508475000" lon="-2.419252000">
        <ele>436.20</ele>
        <time>2016-10-15T08:55:16Z</time>
      </trkpt>
      <trkpt lat="42.508494000" lon="-2.419333000">
        <ele>436.20</ele>
        <time>2016-10-15T08:55:17Z</time>
      </trkpt>
      <trkpt lat="42.508511000" lon="-2.419415000">
        <ele>435.90</ele>
        <time>2016-10-15T08:55:18Z</time>
      </trkpt>
      <trkpt lat="42.508531000" lon="-2.419499000">
        <ele>435.70</ele>
        <time>2016-10-15T08:55:19Z</time>
      </trkpt>
      <trkpt lat="42.508552000" lon="-2.419583000">
        <ele>435.80</ele>
        <time>2016-10-15T08:55:20Z</time>
      </trkpt>
      <trkpt lat="42.508576000" lon="-2.419668000">
        <ele>435.80</ele>
        <time>2016-10-15T08:55:21Z</time>
      </trkpt>
      <trkpt lat="42.508605000" lon="-2.419753000">
        <ele>435.60</ele>
        <time>2016-10-15T08:55:22Z</time>
      </trkpt>
      <trkpt lat="42.508638000" lon="-2.419839000">
        <ele>435.40</ele>
        <time>2016-10-15T08:55:23Z</time>
      </trkpt>
      <trkpt lat="42.508671000" lon="-2.419923000">
        <ele>435.50</ele>
        <time>2016-10-15T08:55:24Z</time>
      </trkpt>
      <trkpt lat="42.508696000" lon="-2.420016000">
        <ele>435.60</ele>
        <time>2016-10-15T08:55:25Z</time>
      </trkpt>
      <trkpt lat="42.508714000" lon="-2.420114000">
        <ele>435.40</ele>
        <time>2016-10-15T08:55:26Z</time>
      </trkpt>
      <trkpt lat="42.508729000" lon="-2.420214000">
        <ele>435.20</ele>
        <time>2016-10-15T08:55:27Z</time>
      </trkpt>
      <trkpt lat="42.508743000" lon="-2.420316000">
        <ele>435.00</ele>
        <time>2016-10-15T08:55:28Z</time>
      </trkpt>
      <trkpt lat="42.508759000" lon="-2.420417000">
        <ele>434.80</ele>
        <time>2016-10-15T08:55:29Z</time>
      </trkpt>
      <trkpt lat="42.508775000" lon="-2.420515000">
        <ele>434.50</ele>
        <time>2016-10-15T08:55:30Z</time>
      </trkpt>
      <trkpt lat="42.508785000" lon="-2.420609000">
        <ele>434.30</ele>
        <time>2016-10-15T08:55:31Z</time>
      </trkpt>
      <trkpt lat="42.508797000" lon="-2.420704000">
        <ele>433.80</ele>
        <time>2016-10-15T08:55:32Z</time>
      </trkpt>
      <trkpt lat="42.508801000" lon="-2.420806000">
        <ele>433.50</ele>
        <time>2016-10-15T08:55:33Z</time>
      </trkpt>
      <trkpt lat="42.508795000" lon="-2.420911000">
        <ele>432.90</ele>
        <time>2016-10-15T08:55:34Z</time>
      </trkpt>
      <trkpt lat="42.508781000" lon="-2.421022000">
        <ele>432.40</ele>
        <time>2016-10-15T08:55:35Z</time>
      </trkpt>
      <trkpt lat="42.508774000" lon="-2.421139000">
        <ele>431.70</ele>
        <time>2016-10-15T08:55:36Z</time>
      </trkpt>
      <trkpt lat="42.508770000" lon="-2.421255000">
        <ele>431.30</ele>
        <time>2016-10-15T08:55:37Z</time>
      </trkpt>
      <trkpt lat="42.508773000" lon="-2.421370000">
        <ele>430.90</ele>
        <time>2016-10-15T08:55:38Z</time>
      </trkpt>
      <trkpt lat="42.508770000" lon="-2.421485000">
        <ele>430.60</ele>
        <time>2016-10-15T08:55:39Z</time>
      </trkpt>
      <trkpt lat="42.508757000" lon="-2.421594000">
        <ele>429.80</ele>
        <time>2016-10-15T08:55:40Z</time>
      </trkpt>
      <trkpt lat="42.508741000" lon="-2.421700000">
        <ele>429.20</ele>
        <time>2016-10-15T08:55:41Z</time>
      </trkpt>
      <trkpt lat="42.508720000" lon="-2.421804000">
        <ele>428.70</ele>
        <time>2016-10-15T08:55:42Z</time>
      </trkpt>
      <trkpt lat="42.508699000" lon="-2.421903000">
        <ele>428.40</ele>
        <time>2016-10-15T08:55:43Z</time>
      </trkpt>
      <trkpt lat="42.508682000" lon="-2.422000000">
        <ele>428.10</ele>
        <time>2016-10-15T08:55:44Z</time>
      </trkpt>
      <trkpt lat="42.508668000" lon="-2.422091000">
        <ele>427.90</ele>
        <time>2016-10-15T08:55:45Z</time>
      </trkpt>
      <trkpt lat="42.508653000" lon="-2.422180000">
        <ele>427.50</ele>
        <time>2016-10-15T08:55:46Z</time>
      </trkpt>
      <trkpt lat="42.508642000" lon="-2.422267000">
        <ele>427.10</ele>
        <time>2016-10-15T08:55:47Z</time>
      </trkpt>
      <trkpt lat="42.508635000" lon="-2.422362000">
        <ele>426.90</ele>
        <time>2016-10-15T08:55:48Z</time>
      </trkpt>
      <trkpt lat="42.508632000" lon="-2.422461000">
        <ele>426.70</ele>
        <time>2016-10-15T08:55:49Z</time>
      </trkpt>
      <trkpt lat="42.508625000" lon="-2.422561000">
        <ele>426.30</ele>
        <time>2016-10-15T08:55:50Z</time>
      </trkpt>
      <trkpt lat="42.508616000" lon="-2.422656000">
        <ele>426.00</ele>
        <time>2016-10-15T08:55:51Z</time>
      </trkpt>
      <trkpt lat="42.508611000" lon="-2.422737000">
        <ele>425.70</ele>
        <time>2016-10-15T08:55:52Z</time>
      </trkpt>
      <trkpt lat="42.508605000" lon="-2.422801000">
        <ele>425.40</ele>
        <time>2016-10-15T08:55:53Z</time>
      </trkpt>
      <trkpt lat="42.508601000" lon="-2.422848000">
        <ele>425.10</ele>
        <time>2016-10-15T08:55:54Z</time>
      </trkpt>
      <trkpt lat="42.508594000" lon="-2.422880000">
        <ele>424.80</ele>
        <time>2016-10-15T08:55:55Z</time>
      </trkpt>
      <trkpt lat="42.508590000" lon="-2.422903000">
        <ele>424.70</ele>
        <time>2016-10-15T08:55:56Z</time>
      </trkpt>
      <trkpt lat="42.508587000" lon="-2.422927000">
        <ele>424.60</ele>
        <time>2016-10-15T08:55:57Z</time>
      </trkpt>
      <trkpt lat="42.508580000" lon="-2.422975000">
        <ele>424.10</ele>
        <time>2016-10-15T08:55:59Z</time>
      </trkpt>
      <trkpt lat="42.508576000" lon="-2.422979000">
        <ele>424.10</ele>
        <time>2016-10-15T08:56:00Z</time>
      </trkpt>
      <trkpt lat="42.508575000" lon="-2.422984000">
        <ele>424.10</ele>
        <time>2016-10-15T08:56:01Z</time>
      </trkpt>
      <trkpt lat="42.508572000" lon="-2.422990000">
        <ele>424.10</ele>
        <time>2016-10-15T08:56:02Z</time>
      </trkpt>
      <trkpt lat="42.508569000" lon="-2.422988000">
        <ele>424.10</ele>
        <time>2016-10-15T08:56:03Z</time>
      </trkpt>
      <trkpt lat="42.508570000" lon="-2.422987000">
        <ele>424.10</ele>
        <time>2016-10-15T08:56:04Z</time>
      </trkpt>
      <trkpt lat="42.508568000" lon="-2.422994000">
        <ele>424.10</ele>
        <time>2016-10-15T08:56:05Z</time>
      </trkpt>
      <trkpt lat="42.508567000" lon="-2.423000000">
        <ele>424.00</ele>
        <time>2016-10-15T08:56:06Z</time>
      </trkpt>
      <trkpt lat="42.508563000" lon="-2.423008000">
        <ele>424.00</ele>
        <time>2016-10-15T08:56:07Z</time>
      </trkpt>
      <trkpt lat="42.508559000" lon="-2.423013000">
        <ele>424.00</ele>
        <time>2016-10-15T08:56:08Z</time>
      </trkpt>
      <trkpt lat="42.508555000" lon="-2.423009000">
        <ele>423.90</ele>
        <time>2016-10-15T08:56:09Z</time>
      </trkpt>
      <trkpt lat="42.508554000" lon="-2.423005000">
        <ele>423.90</ele>
        <time>2016-10-15T08:56:10Z</time>
      </trkpt>
      <trkpt lat="42.508551000" lon="-2.423010000">
        <ele>423.80</ele>
        <time>2016-10-15T08:56:11Z</time>
      </trkpt>
      <trkpt lat="42.508546000" lon="-2.423028000">
        <ele>423.90</ele>
        <time>2016-10-15T08:56:12Z</time>
      </trkpt>
      <trkpt lat="42.508539000" lon="-2.423048000">
        <ele>424.00</ele>
        <time>2016-10-15T08:56:13Z</time>
      </trkpt>
      <trkpt lat="42.508535000" lon="-2.423066000">
        <ele>424.10</ele>
        <time>2016-10-15T08:56:14Z</time>
      </trkpt>
      <trkpt lat="42.508529000" lon="-2.423078000">
        <ele>424.10</ele>
        <time>2016-10-15T08:56:15Z</time>
      </trkpt>
      <trkpt lat="42.508522000" lon="-2.423091000">
        <ele>424.20</ele>
        <time>2016-10-15T08:56:16Z</time>
      </trkpt>
      <trkpt lat="42.508515000" lon="-2.423099000">
        <ele>424.20</ele>
        <time>2016-10-15T08:56:17Z</time>
      </trkpt>
      <trkpt lat="42.508510000" lon="-2.423109000">
        <ele>424.20</ele>
        <time>2016-10-15T08:56:18Z</time>
      </trkpt>
      <trkpt lat="42.508507000" lon="-2.423115000">
        <ele>424.20</ele>
        <time>2016-10-15T08:56:19Z</time>
      </trkpt>
      <trkpt lat="42.508505000" lon="-2.423121000">
        <ele>424.20</ele>
        <time>2016-10-15T08:56:20Z</time>
      </trkpt>
      <trkpt lat="42.508502000" lon="-2.423125000">
        <ele>424.20</ele>
        <time>2016-10-15T08:56:21Z</time>
      </trkpt>
      <trkpt lat="42.508500000" lon="-2.423128000">
        <ele>424.20</ele>
        <time>2016-10-15T08:56:22Z</time>
      </trkpt>
      <trkpt lat="42.508496000" lon="-2.423135000">
        <ele>424.10</ele>
        <time>2016-10-15T08:56:23Z</time>
      </trkpt>
      <trkpt lat="42.508494000" lon="-2.423144000">
        <ele>424.10</ele>
        <time>2016-10-15T08:56:24Z</time>
      </trkpt>
      <trkpt lat="42.508487000" lon="-2.423154000">
        <ele>424.00</ele>
        <time>2016-10-15T08:56:25Z</time>
      </trkpt>
      <trkpt lat="42.508479000" lon="-2.423159000">
        <ele>424.00</ele>
        <time>2016-10-15T08:56:26Z</time>
      </trkpt>
      <trkpt lat="42.508474000" lon="-2.423168000">
        <ele>424.00</ele>
        <time>2016-10-15T08:56:27Z</time>
      </trkpt>
      <trkpt lat="42.508470000" lon="-2.423177000">
        <ele>424.00</ele>
        <time>2016-10-15T08:56:28Z</time>
      </trkpt>
      <trkpt lat="42.508470000" lon="-2.423184000">
        <ele>424.10</ele>
        <time>2016-10-15T08:56:29Z</time>
      </trkpt>
      <trkpt lat="42.508468000" lon="-2.423196000">
        <ele>424.10</ele>
        <time>2016-10-15T08:56:30Z</time>
      </trkpt>
      <trkpt lat="42.508465000" lon="-2.423212000">
        <ele>424.10</ele>
        <time>2016-10-15T08:56:31Z</time>
      </trkpt>
      <trkpt lat="42.508464000" lon="-2.423228000">
        <ele>424.20</ele>
        <time>2016-10-15T08:56:32Z</time>
      </trkpt>
      <trkpt lat="42.508462000" lon="-2.423243000">
        <ele>424.30</ele>
        <time>2016-10-15T08:56:33Z</time>
      </trkpt>
      <trkpt lat="42.508458000" lon="-2.423257000">
        <ele>424.10</ele>
        <time>2016-10-15T08:56:34Z</time>
      </trkpt>
      <trkpt lat="42.508453000" lon="-2.423271000">
        <ele>424.00</ele>
        <time>2016-10-15T08:56:35Z</time>
      </trkpt>
      <trkpt lat="42.508453000" lon="-2.423284000">
        <ele>424.00</ele>
        <time>2016-10-15T08:56:36Z</time>
      </trkpt>
      <trkpt lat="42.508458000" lon="-2.423286000">
        <ele>423.90</ele>
        <time>2016-10-15T08:56:37Z</time>
      </trkpt>
      <trkpt lat="42.508454000" lon="-2.423286000">
        <ele>423.90</ele>
        <time>2016-10-15T08:56:38Z</time>
      </trkpt>
      <trkpt lat="42.508454000" lon="-2.423289000">
        <ele>423.90</ele>
        <time>2016-10-15T08:56:39Z</time>
      </trkpt>
      <trkpt lat="42.508452000" lon="-2.423290000">
        <ele>423.90</ele>
        <time>2016-10-15T08:56:40Z</time>
      </trkpt>
      <trkpt lat="42.508451000" lon="-2.423290000">
        <ele>423.90</ele>
        <time>2016-10-15T08:56:41Z</time>
      </trkpt>
      <trkpt lat="42.508447000" lon="-2.423289000">
        <ele>423.90</ele>
        <time>2016-10-15T08:56:42Z</time>
      </trkpt>
      <trkpt lat="42.508445000" lon="-2.423290000">
        <ele>423.90</ele>
        <time>2016-10-15T08:56:43Z</time>
      </trkpt>
      <trkpt lat="42.508446000" lon="-2.423290000">
        <ele>424.00</ele>
        <time>2016-10-15T08:56:44Z</time>
      </trkpt>
      <trkpt lat="42.508445000" lon="-2.423290000">
        <ele>424.10</ele>
        <time>2016-10-15T08:56:45Z</time>
      </trkpt>
      <trkpt lat="42.508445000" lon="-2.423292000">
        <ele>424.10</ele>
        <time>2016-10-15T08:56:46Z</time>
      </trkpt>
      <trkpt lat="42.508446000" lon="-2.423297000">
        <ele>424.20</ele>
        <time>2016-10-15T08:56:47Z</time>
      </trkpt>
      <trkpt lat="42.508445000" lon="-2.423303000">
        <ele>424.30</ele>
        <time>2016-10-15T08:56:48Z</time>
      </trkpt>
      <trkpt lat="42.508441000" lon="-2.423320000">
        <ele>424.40</ele>
        <time>2016-10-15T08:56:49Z</time>
      </trkpt>
      <trkpt lat="42.508440000" lon="-2.423336000">
        <ele>424.20</ele>
        <time>2016-10-15T08:56:50Z</time>
      </trkpt>
      <trkpt lat="42.508441000" lon="-2.423357000">
        <ele>424.00</ele>
        <time>2016-10-15T08:56:51Z</time>
      </trkpt>
      <trkpt lat="42.508441000" lon="-2.423382000">
        <ele>424.20</ele>
        <time>2016-10-15T08:56:52Z</time>
      </trkpt>
      <trkpt lat="42.508440000" lon="-2.423407000">
        <ele>424.40</ele>
        <time>2016-10-15T08:56:53Z</time>
      </trkpt>
      <trkpt lat="42.508436000" lon="-2.423430000">
        <ele>424.50</ele>
        <time>2016-10-15T08:56:54Z</time>
      </trkpt>
      <trkpt lat="42.508436000" lon="-2.423452000">
        <ele>424.50</ele>
        <time>2016-10-15T08:56:55Z</time>
      </trkpt>
      <trkpt lat="42.508436000" lon="-2.423476000">
        <ele>424.60</ele>
        <time>2016-10-15T08:56:56Z</time>
      </trkpt>
      <trkpt lat="42.508438000" lon="-2.423502000">
        <ele>424.70</ele>
        <time>2016-10-15T08:56:57Z</time>
      </trkpt>
      <trkpt lat="42.508433000" lon="-2.423527000">
        <ele>424.80</ele>
        <time>2016-10-15T08:56:58Z</time>
      </trkpt>
      <trkpt lat="42.508425000" lon="-2.423585000">
        <ele>425.00</ele>
        <time>2016-10-15T08:57:00Z</time>
      </trkpt>
      <trkpt lat="42.508424000" lon="-2.423613000">
        <ele>425.20</ele>
        <time>2016-10-15T08:57:01Z</time>
      </trkpt>
      <trkpt lat="42.508422000" lon="-2.423645000">
        <ele>425.40</ele>
        <time>2016-10-15T08:57:02Z</time>
      </trkpt>
      <trkpt lat="42.508418000" lon="-2.423680000">
        <ele>425.50</ele>
        <time>2016-10-15T08:57:03Z</time>
      </trkpt>
      <trkpt lat="42.508415000" lon="-2.423711000">
        <ele>425.60</ele>
        <time>2016-10-15T08:57:04Z</time>
      </trkpt>
      <trkpt lat="42.508414000" lon="-2.423743000">
        <ele>425.70</ele>
        <time>2016-10-15T08:57:05Z</time>
      </trkpt>
      <trkpt lat="42.508413000" lon="-2.423774000">
        <ele>425.80</ele>
        <time>2016-10-15T08:57:06Z</time>
      </trkpt>
      <trkpt lat="42.508410000" lon="-2.423807000">
        <ele>425.90</ele>
        <time>2016-10-15T08:57:07Z</time>
      </trkpt>
      <trkpt lat="42.508403000" lon="-2.423839000">
        <ele>426.10</ele>
        <time>2016-10-15T08:57:08Z</time>
      </trkpt>
      <trkpt lat="42.508398000" lon="-2.423872000">
        <ele>426.20</ele>
        <time>2016-10-15T08:57:09Z</time>
      </trkpt>
      <trkpt lat="42.508399000" lon="-2.423905000">
        <ele>426.40</ele>
        <time>2016-10-15T08:57:10Z</time>
      </trkpt>
      <trkpt lat="42.508399000" lon="-2.423933000">
        <ele>426.50</ele>
        <time>2016-10-15T08:57:11Z</time>
      </trkpt>
      <trkpt lat="42.508394000" lon="-2.423961000">
        <ele>426.60</ele>
        <time>2016-10-15T08:57:12Z</time>
      </trkpt>
      <trkpt lat="42.508387000" lon="-2.423991000">
        <ele>426.70</ele>
        <time>2016-10-15T08:57:13Z</time>
      </trkpt>
      <trkpt lat="42.508383000" lon="-2.424023000">
        <ele>427.10</ele>
        <time>2016-10-15T08:57:14Z</time>
      </trkpt>
      <trkpt lat="42.508383000" lon="-2.424052000">
        <ele>427.40</ele>
        <time>2016-10-15T08:57:15Z</time>
      </trkpt>
      <trkpt lat="42.508382000" lon="-2.424082000">
        <ele>427.70</ele>
        <time>2016-10-15T08:57:16Z</time>
      </trkpt>
      <trkpt lat="42.508379000" lon="-2.424112000">
        <ele>427.90</ele>
        <time>2016-10-15T08:57:17Z</time>
      </trkpt>
      <trkpt lat="42.508373000" lon="-2.424140000">
        <ele>428.20</ele>
        <time>2016-10-15T08:57:18Z</time>
      </trkpt>
      <trkpt lat="42.508371000" lon="-2.424167000">
        <ele>428.50</ele>
        <time>2016-10-15T08:57:19Z</time>
      </trkpt>
      <trkpt lat="42.508370000" lon="-2.424196000">
        <ele>428.70</ele>
        <time>2016-10-15T08:57:20Z</time>
      </trkpt>
      <trkpt lat="42.508370000" lon="-2.424227000">
        <ele>428.90</ele>
        <time>2016-10-15T08:57:21Z</time>
      </trkpt>
      <trkpt lat="42.508369000" lon="-2.424261000">
        <ele>429.10</ele>
        <time>2016-10-15T08:57:22Z</time>
      </trkpt>
      <trkpt lat="42.508368000" lon="-2.424292000">
        <ele>429.30</ele>
        <time>2016-10-15T08:57:23Z</time>
      </trkpt>
      <trkpt lat="42.508369000" lon="-2.424320000">
        <ele>429.40</ele>
        <time>2016-10-15T08:57:24Z</time>
      </trkpt>
      <trkpt lat="42.508367000" lon="-2.424348000">
        <ele>429.50</ele>
        <time>2016-10-15T08:57:25Z</time>
      </trkpt>
      <trkpt lat="42.508365000" lon="-2.424374000">
        <ele>429.80</ele>
        <time>2016-10-15T08:57:26Z</time>
      </trkpt>
      <trkpt lat="42.508362000" lon="-2.424402000">
        <ele>430.00</ele>
        <time>2016-10-15T08:57:27Z</time>
      </trkpt>
      <trkpt lat="42.508360000" lon="-2.424431000">
        <ele>430.20</ele>
        <time>2016-10-15T08:57:28Z</time>
      </trkpt>
      <trkpt lat="42.508359000" lon="-2.424461000">
        <ele>430.40</ele>
        <time>2016-10-15T08:57:29Z</time>
      </trkpt>
      <trkpt lat="42.508361000" lon="-2.424490000">
        <ele>430.50</ele>
        <time>2016-10-15T08:57:30Z</time>
      </trkpt>
      <trkpt lat="42.508359000" lon="-2.424520000">
        <ele>430.70</ele>
        <time>2016-10-15T08:57:31Z</time>
      </trkpt>
      <trkpt lat="42.508357000" lon="-2.424547000">
        <ele>430.90</ele>
        <time>2016-10-15T08:57:32Z</time>
      </trkpt>
      <trkpt lat="42.508356000" lon="-2.424575000">
        <ele>431.20</ele>
        <time>2016-10-15T08:57:33Z</time>
      </trkpt>
      <trkpt lat="42.508356000" lon="-2.424601000">
        <ele>431.30</ele>
        <time>2016-10-15T08:57:34Z</time>
      </trkpt>
      <trkpt lat="42.508352000" lon="-2.424629000">
        <ele>431.40</ele>
        <time>2016-10-15T08:57:35Z</time>
      </trkpt>
      <trkpt lat="42.508354000" lon="-2.424653000">
        <ele>431.80</ele>
        <time>2016-10-15T08:57:36Z</time>
      </trkpt>
      <trkpt lat="42.508353000" lon="-2.424681000">
        <ele>432.10</ele>
        <time>2016-10-15T08:57:37Z</time>
      </trkpt>
      <trkpt lat="42.508349000" lon="-2.424710000">
        <ele>432.30</ele>
        <time>2016-10-15T08:57:38Z</time>
      </trkpt>
      <trkpt lat="42.508348000" lon="-2.424736000">
        <ele>432.60</ele>
        <time>2016-10-15T08:57:39Z</time>
      </trkpt>
      <trkpt lat="42.508345000" lon="-2.424762000">
        <ele>432.80</ele>
        <time>2016-10-15T08:57:40Z</time>
      </trkpt>
      <trkpt lat="42.508342000" lon="-2.424791000">
        <ele>433.00</ele>
        <time>2016-10-15T08:57:41Z</time>
      </trkpt>
      <trkpt lat="42.508345000" lon="-2.424819000">
        <ele>433.30</ele>
        <time>2016-10-15T08:57:42Z</time>
      </trkpt>
      <trkpt lat="42.508343000" lon="-2.424850000">
        <ele>433.40</ele>
        <time>2016-10-15T08:57:43Z</time>
      </trkpt>
      <trkpt lat="42.508342000" lon="-2.424880000">
        <ele>433.60</ele>
        <time>2016-10-15T08:57:44Z</time>
      </trkpt>
      <trkpt lat="42.508344000" lon="-2.424910000">
        <ele>433.80</ele>
        <time>2016-10-15T08:57:45Z</time>
      </trkpt>
      <trkpt lat="42.508344000" lon="-2.424941000">
        <ele>433.80</ele>
        <time>2016-10-15T08:57:46Z</time>
      </trkpt>
      <trkpt lat="42.508345000" lon="-2.424969000">
        <ele>433.90</ele>
        <time>2016-10-15T08:57:47Z</time>
      </trkpt>
      <trkpt lat="42.508345000" lon="-2.424999000">
        <ele>433.90</ele>
        <time>2016-10-15T08:57:48Z</time>
      </trkpt>
      <trkpt lat="42.508344000" lon="-2.425029000">
        <ele>434.00</ele>
        <time>2016-10-15T08:57:49Z</time>
      </trkpt>
      <trkpt lat="42.508345000" lon="-2.425058000">
        <ele>434.10</ele>
        <time>2016-10-15T08:57:50Z</time>
      </trkpt>
      <trkpt lat="42.508348000" lon="-2.425084000">
        <ele>434.10</ele>
        <time>2016-10-15T08:57:51Z</time>
      </trkpt>
      <trkpt lat="42.508348000" lon="-2.425110000">
        <ele>434.20</ele>
        <time>2016-10-15T08:57:52Z</time>
      </trkpt>
      <trkpt lat="42.508350000" lon="-2.425135000">
        <ele>434.30</ele>
        <time>2016-10-15T08:57:53Z</time>
      </trkpt>
      <trkpt lat="42.508353000" lon="-2.425159000">
        <ele>434.40</ele>
        <time>2016-10-15T08:57:54Z</time>
      </trkpt>
      <trkpt lat="42.508355000" lon="-2.425185000">
        <ele>434.50</ele>
        <time>2016-10-15T08:57:55Z</time>
      </trkpt>
      <trkpt lat="42.508358000" lon="-2.425209000">
        <ele>434.70</ele>
        <time>2016-10-15T08:57:56Z</time>
      </trkpt>
      <trkpt lat="42.508359000" lon="-2.425232000">
        <ele>434.90</ele>
        <time>2016-10-15T08:57:57Z</time>
      </trkpt>
      <trkpt lat="42.508361000" lon="-2.425253000">
        <ele>435.10</ele>
        <time>2016-10-15T08:57:58Z</time>
      </trkpt>
      <trkpt lat="42.508362000" lon="-2.425274000">
        <ele>435.20</ele>
        <time>2016-10-15T08:57:59Z</time>
      </trkpt>
      <trkpt lat="42.508370000" lon="-2.425307000">
        <ele>435.40</ele>
        <time>2016-10-15T08:58:01Z</time>
      </trkpt>
      <trkpt lat="42.508373000" lon="-2.425326000">
        <ele>435.80</ele>
        <time>2016-10-15T08:58:02Z</time>
      </trkpt>
      <trkpt lat="42.508373000" lon="-2.425343000">
        <ele>436.10</ele>
        <time>2016-10-15T08:58:03Z</time>
      </trkpt>
      <trkpt lat="42.508376000" lon="-2.425359000">
        <ele>436.30</ele>
        <time>2016-10-15T08:58:04Z</time>
      </trkpt>
      <trkpt lat="42.508375000" lon="-2.425377000">
        <ele>436.40</ele>
        <time>2016-10-15T08:58:05Z</time>
      </trkpt>
      <trkpt lat="42.508375000" lon="-2.425394000">
        <ele>436.60</ele>
        <time>2016-10-15T08:58:06Z</time>
      </trkpt>
      <trkpt lat="42.508368000" lon="-2.425412000">
        <ele>436.70</ele>
        <time>2016-10-15T08:58:07Z</time>
      </trkpt>
      <trkpt lat="42.508359000" lon="-2.425427000">
        <ele>436.70</ele>
        <time>2016-10-15T08:58:08Z</time>
      </trkpt>
      <trkpt lat="42.508344000" lon="-2.425438000">
        <ele>436.80</ele>
        <time>2016-10-15T08:58:09Z</time>
      </trkpt>
      <trkpt lat="42.508324000" lon="-2.425448000">
        <ele>436.90</ele>
        <time>2016-10-15T08:58:10Z</time>
      </trkpt>
      <trkpt lat="42.508307000" lon="-2.425461000">
        <ele>437.00</ele>
        <time>2016-10-15T08:58:11Z</time>
      </trkpt>
      <trkpt lat="42.508291000" lon="-2.425467000">
        <ele>437.00</ele>
        <time>2016-10-15T08:58:12Z</time>
      </trkpt>
      <trkpt lat="42.508290000" lon="-2.425464000">
        <ele>437.10</ele>
        <time>2016-10-15T08:58:13Z</time>
      </trkpt>
      <trkpt lat="42.508288000" lon="-2.425465000">
        <ele>436.90</ele>
        <time>2016-10-15T08:58:14Z</time>
      </trkpt>
      <trkpt lat="42.508288000" lon="-2.425468000">
        <ele>436.80</ele>
        <time>2016-10-15T08:58:15Z</time>
      </trkpt>
      <trkpt lat="42.508287000" lon="-2.425471000">
        <ele>436.70</ele>
        <time>2016-10-15T08:58:16Z</time>
      </trkpt>
      <trkpt lat="42.508283000" lon="-2.425471000">
        <ele>436.70</ele>
        <time>2016-10-15T08:58:17Z</time>
      </trkpt>
      <trkpt lat="42.508278000" lon="-2.425465000">
        <ele>436.60</ele>
        <time>2016-10-15T08:58:18Z</time>
      </trkpt>
      <trkpt lat="42.508278000" lon="-2.425460000">
        <ele>436.60</ele>
        <time>2016-10-15T08:58:19Z</time>
      </trkpt>
      <trkpt lat="42.508280000" lon="-2.425458000">
        <ele>436.60</ele>
        <time>2016-10-15T08:58:20Z</time>
      </trkpt>
      <trkpt lat="42.508281000" lon="-2.425454000">
        <ele>436.60</ele>
        <time>2016-10-15T08:58:21Z</time>
      </trkpt>
      <trkpt lat="42.508281000" lon="-2.425447000">
        <ele>436.50</ele>
        <time>2016-10-15T08:58:22Z</time>
      </trkpt>
      <trkpt lat="42.508280000" lon="-2.425444000">
        <ele>436.50</ele>
        <time>2016-10-15T08:58:23Z</time>
      </trkpt>
      <trkpt lat="42.508282000" lon="-2.425446000">
        <ele>436.50</ele>
        <time>2016-10-15T08:58:24Z</time>
      </trkpt>
      <trkpt lat="42.508283000" lon="-2.425449000">
        <ele>436.50</ele>
        <time>2016-10-15T08:58:25Z</time>
      </trkpt>
      <trkpt lat="42.508282000" lon="-2.425450000">
        <ele>436.30</ele>
        <time>2016-10-15T08:58:26Z</time>
      </trkpt>
      <trkpt lat="42.508281000" lon="-2.425451000">
        <ele>436.20</ele>
        <time>2016-10-15T08:58:27Z</time>
      </trkpt>
      <trkpt lat="42.508281000" lon="-2.425450000">
        <ele>436.10</ele>
        <time>2016-10-15T08:58:28Z</time>
      </trkpt>
      <trkpt lat="42.508280000" lon="-2.425451000">
        <ele>436.00</ele>
        <time>2016-10-15T08:58:29Z</time>
      </trkpt>
      <trkpt lat="42.508280000" lon="-2.425448000">
        <ele>436.10</ele>
        <time>2016-10-15T08:58:30Z</time>
      </trkpt>
      <trkpt lat="42.508280000" lon="-2.425448000">
        <ele>436.20</ele>
        <time>2016-10-15T08:58:31Z</time>
      </trkpt>
      <trkpt lat="42.508280000" lon="-2.425445000">
        <ele>436.30</ele>
        <time>2016-10-15T08:58:32Z</time>
      </trkpt>
      <trkpt lat="42.508280000" lon="-2.425444000">
        <ele>436.30</ele>
        <time>2016-10-15T08:58:33Z</time>
      </trkpt>
      <trkpt lat="42.508280000" lon="-2.425443000">
        <ele>436.30</ele>
        <time>2016-10-15T08:58:34Z</time>
      </trkpt>
      <trkpt lat="42.508280000" lon="-2.425439000">
        <ele>436.30</ele>
        <time>2016-10-15T08:58:35Z</time>
      </trkpt>
      <trkpt lat="42.508279000" lon="-2.425440000">
        <ele>436.30</ele>
        <time>2016-10-15T08:58:36Z</time>
      </trkpt>
      <trkpt lat="42.508278000" lon="-2.425441000">
        <ele>436.30</ele>
        <time>2016-10-15T08:58:37Z</time>
      </trkpt>
      <trkpt lat="42.508278000" lon="-2.425438000">
        <ele>436.30</ele>
        <time>2016-10-15T08:58:38Z</time>
      </trkpt>
      <trkpt lat="42.508279000" lon="-2.425435000">
        <ele>436.30</ele>
        <time>2016-10-15T08:58:39Z</time>
      </trkpt>
      <trkpt lat="42.508280000" lon="-2.425432000">
        <ele>436.20</ele>
        <time>2016-10-15T08:58:40Z</time>
      </trkpt>
      <trkpt lat="42.508279000" lon="-2.425432000">
        <ele>436.20</ele>
        <time>2016-10-15T08:58:41Z</time>
      </trkpt>
      <trkpt lat="42.508278000" lon="-2.425433000">
        <ele>436.20</ele>
        <time>2016-10-15T08:58:42Z</time>
      </trkpt>
      <trkpt lat="42.508279000" lon="-2.425433000">
        <ele>436.20</ele>
        <time>2016-10-15T08:58:43Z</time>
      </trkpt>
      <trkpt lat="42.508278000" lon="-2.425433000">
        <ele>436.20</ele>
        <time>2016-10-15T08:58:44Z</time>
      </trkpt>
      <trkpt lat="42.508277000" lon="-2.425433000">
        <ele>436.10</ele>
        <time>2016-10-15T08:58:45Z</time>
      </trkpt>
      <trkpt lat="42.508277000" lon="-2.425430000">
        <ele>436.00</ele>
        <time>2016-10-15T08:58:46Z</time>
      </trkpt>
      <trkpt lat="42.508277000" lon="-2.425431000">
        <ele>435.90</ele>
        <time>2016-10-15T08:58:47Z</time>
      </trkpt>
      <trkpt lat="42.508275000" lon="-2.425432000">
        <ele>435.90</ele>
        <time>2016-10-15T08:58:48Z</time>
      </trkpt>
      <trkpt lat="42.508274000" lon="-2.425432000">
        <ele>435.80</ele>
        <time>2016-10-15T08:58:49Z</time>
      </trkpt>
      <trkpt lat="42.508273000" lon="-2.425433000">
        <ele>435.80</ele>
        <time>2016-10-15T08:58:50Z</time>
      </trkpt>
      <trkpt lat="42.508271000" lon="-2.425432000">
        <ele>435.80</ele>
        <time>2016-10-15T08:58:51Z</time>
      </trkpt>
      <trkpt lat="42.508269000" lon="-2.425428000">
        <ele>435.80</ele>
        <time>2016-10-15T08:58:52Z</time>
      </trkpt>
      <trkpt lat="42.508269000" lon="-2.425426000">
        <ele>435.90</ele>
        <time>2016-10-15T08:58:53Z</time>
      </trkpt>
      <trkpt lat="42.508267000" lon="-2.425426000">
        <ele>435.80</ele>
        <time>2016-10-15T08:58:54Z</time>
      </trkpt>
      <trkpt lat="42.508268000" lon="-2.425425000">
        <ele>435.80</ele>
        <time>2016-10-15T08:58:55Z</time>
      </trkpt>
      <trkpt lat="42.508269000" lon="-2.425424000">
        <ele>435.80</ele>
        <time>2016-10-15T08:58:56Z</time>
      </trkpt>
      <trkpt lat="42.508268000" lon="-2.425420000">
        <ele>435.90</ele>
        <time>2016-10-15T08:58:57Z</time>
      </trkpt>
      <trkpt lat="42.508267000" lon="-2.425421000">
        <ele>436.00</ele>
        <time>2016-10-15T08:58:58Z</time>
      </trkpt>
      <trkpt lat="42.508267000" lon="-2.425425000">
        <ele>436.00</ele>
        <time>2016-10-15T08:58:59Z</time>
      </trkpt>
      <trkpt lat="42.508266000" lon="-2.425428000">
        <ele>436.10</ele>
        <time>2016-10-15T08:59:00Z</time>
      </trkpt>
      <trkpt lat="42.508267000" lon="-2.425432000">
        <ele>436.10</ele>
        <time>2016-10-15T08:59:02Z</time>
      </trkpt>
      <trkpt lat="42.508267000" lon="-2.425432000">
        <ele>436.20</ele>
        <time>2016-10-15T08:59:03Z</time>
      </trkpt>
      <trkpt lat="42.508270000" lon="-2.425432000">
        <ele>436.30</ele>
        <time>2016-10-15T08:59:04Z</time>
      </trkpt>
      <trkpt lat="42.508270000" lon="-2.425432000">
        <ele>436.30</ele>
        <time>2016-10-15T08:59:05Z</time>
      </trkpt>
      <trkpt lat="42.508271000" lon="-2.425433000">
        <ele>436.40</ele>
        <time>2016-10-15T08:59:06Z</time>
      </trkpt>
      <trkpt lat="42.508272000" lon="-2.425436000">
        <ele>436.40</ele>
        <time>2016-10-15T08:59:07Z</time>
      </trkpt>
      <trkpt lat="42.508273000" lon="-2.425437000">
        <ele>436.30</ele>
        <time>2016-10-15T08:59:08Z</time>
      </trkpt>
      <trkpt lat="42.508274000" lon="-2.425436000">
        <ele>436.20</ele>
        <time>2016-10-15T08:59:09Z</time>
      </trkpt>
      <trkpt lat="42.508276000" lon="-2.425437000">
        <ele>436.20</ele>
        <time>2016-10-15T08:59:10Z</time>
      </trkpt>
      <trkpt lat="42.508276000" lon="-2.425437000">
        <ele>436.10</ele>
        <time>2016-10-15T08:59:11Z</time>
      </trkpt>
      <trkpt lat="42.508277000" lon="-2.425438000">
        <ele>436.10</ele>
        <time>2016-10-15T08:59:12Z</time>
      </trkpt>
      <trkpt lat="42.508276000" lon="-2.425438000">
        <ele>436.00</ele>
        <time>2016-10-15T08:59:13Z</time>
      </trkpt>
      <trkpt lat="42.508277000" lon="-2.425440000">
        <ele>436.00</ele>
        <time>2016-10-15T08:59:14Z</time>
      </trkpt>
      <trkpt lat="42.508276000" lon="-2.425437000">
        <ele>436.00</ele>
        <time>2016-10-15T08:59:15Z</time>
      </trkpt>
      <trkpt lat="42.508275000" lon="-2.425435000">
        <ele>436.00</ele>
        <time>2016-10-15T08:59:16Z</time>
      </trkpt>
      <trkpt lat="42.508274000" lon="-2.425434000">
        <ele>436.00</ele>
        <time>2016-10-15T08:59:17Z</time>
      </trkpt>
      <trkpt lat="42.508273000" lon="-2.425434000">
        <ele>435.90</ele>
        <time>2016-10-15T08:59:18Z</time>
      </trkpt>
      <trkpt lat="42.508273000" lon="-2.425433000">
        <ele>435.90</ele>
        <time>2016-10-15T08:59:19Z</time>
      </trkpt>
      <trkpt lat="42.508274000" lon="-2.425433000">
        <ele>436.00</ele>
        <time>2016-10-15T08:59:20Z</time>
      </trkpt>
      <trkpt lat="42.508274000" lon="-2.425430000">
        <ele>436.00</ele>
        <time>2016-10-15T08:59:21Z</time>
      </trkpt>
      <trkpt lat="42.508276000" lon="-2.425431000">
        <ele>436.10</ele>
        <time>2016-10-15T08:59:22Z</time>
      </trkpt>
      <trkpt lat="42.508277000" lon="-2.425431000">
        <ele>436.20</ele>
        <time>2016-10-15T08:59:23Z</time>
      </trkpt>
      <trkpt lat="42.508276000" lon="-2.425434000">
        <ele>436.30</ele>
        <time>2016-10-15T08:59:24Z</time>
      </trkpt>
      <trkpt lat="42.508275000" lon="-2.425436000">
        <ele>436.30</ele>
        <time>2016-10-15T08:59:25Z</time>
      </trkpt>
      <trkpt lat="42.508276000" lon="-2.425439000">
        <ele>436.30</ele>
        <time>2016-10-15T08:59:26Z</time>
      </trkpt>
      <trkpt lat="42.508273000" lon="-2.425440000">
        <ele>436.30</ele>
        <time>2016-10-15T08:59:27Z</time>
      </trkpt>
      <trkpt lat="42.508272000" lon="-2.425439000">
        <ele>436.30</ele>
        <time>2016-10-15T08:59:28Z</time>
      </trkpt>
      <trkpt lat="42.508273000" lon="-2.425438000">
        <ele>436.30</ele>
        <time>2016-10-15T08:59:29Z</time>
      </trkpt>
      <trkpt lat="42.508272000" lon="-2.425435000">
        <ele>436.30</ele>
        <time>2016-10-15T08:59:30Z</time>
      </trkpt>
      <trkpt lat="42.508273000" lon="-2.425433000">
        <ele>436.30</ele>
        <time>2016-10-15T08:59:31Z</time>
      </trkpt>
      <trkpt lat="42.508274000" lon="-2.425431000">
        <ele>436.30</ele>
        <time>2016-10-15T08:59:32Z</time>
      </trkpt>
      <trkpt lat="42.508275000" lon="-2.425430000">
        <ele>436.40</ele>
        <time>2016-10-15T08:59:33Z</time>
      </trkpt>
      <trkpt lat="42.508277000" lon="-2.425428000">
        <ele>436.40</ele>
        <time>2016-10-15T08:59:34Z</time>
      </trkpt>
      <trkpt lat="42.508277000" lon="-2.425429000">
        <ele>436.40</ele>
        <time>2016-10-15T08:59:35Z</time>
      </trkpt>
      <trkpt lat="42.508276000" lon="-2.425430000">
        <ele>436.40</ele>
        <time>2016-10-15T08:59:36Z</time>
      </trkpt>
      <trkpt lat="42.508275000" lon="-2.425430000">
        <ele>436.30</ele>
        <time>2016-10-15T08:59:37Z</time>
      </trkpt>
      <trkpt lat="42.508274000" lon="-2.425433000">
        <ele>436.20</ele>
        <time>2016-10-15T08:59:38Z</time>
      </trkpt>
      <trkpt lat="42.508273000" lon="-2.425434000">
        <ele>436.10</ele>
        <time>2016-10-15T08:59:39Z</time>
      </trkpt>
      <trkpt lat="42.508273000" lon="-2.425435000">
        <ele>435.90</ele>
        <time>2016-10-15T08:59:40Z</time>
      </trkpt>
      <trkpt lat="42.508273000" lon="-2.425431000">
        <ele>435.80</ele>
        <time>2016-10-15T08:59:41Z</time>
      </trkpt>
      <trkpt lat="42.508272000" lon="-2.425429000">
        <ele>435.70</ele>
        <time>2016-10-15T08:59:42Z</time>
      </trkpt>
      <trkpt lat="42.508272000" lon="-2.425427000">
        <ele>435.60</ele>
        <time>2016-10-15T08:59:43Z</time>
      </trkpt>
      <trkpt lat="42.508273000" lon="-2.425427000">
        <ele>435.70</ele>
        <time>2016-10-15T08:59:44Z</time>
      </trkpt>
      <trkpt lat="42.508272000" lon="-2.425429000">
        <ele>435.70</ele>
        <time>2016-10-15T08:59:45Z</time>
      </trkpt>
      <trkpt lat="42.508272000" lon="-2.425431000">
        <ele>435.80</ele>
        <time>2016-10-15T08:59:46Z</time>
      </trkpt>
      <trkpt lat="42.508271000" lon="-2.425430000">
        <ele>435.90</ele>
        <time>2016-10-15T08:59:47Z</time>
      </trkpt>
      <trkpt lat="42.508270000" lon="-2.425429000">
        <ele>435.90</ele>
        <time>2016-10-15T08:59:48Z</time>
      </trkpt>
      <trkpt lat="42.508268000" lon="-2.425433000">
        <ele>435.90</ele>
        <time>2016-10-15T08:59:49Z</time>
      </trkpt>
      <trkpt lat="42.508268000" lon="-2.425434000">
        <ele>436.00</ele>
        <time>2016-10-15T08:59:50Z</time>
      </trkpt>
      <trkpt lat="42.508269000" lon="-2.425436000">
        <ele>436.10</ele>
        <time>2016-10-15T08:59:51Z</time>
      </trkpt>
      <trkpt lat="42.508268000" lon="-2.425433000">
        <ele>436.00</ele>
        <time>2016-10-15T08:59:52Z</time>
      </trkpt>
      <trkpt lat="42.508267000" lon="-2.425436000">
        <ele>436.00</ele>
        <time>2016-10-15T08:59:53Z</time>
      </trkpt>
      <trkpt lat="42.508251000" lon="-2.425440000">
        <ele>435.90</ele>
        <time>2016-10-15T08:59:54Z</time>
      </trkpt>
      <trkpt lat="42.508228000" lon="-2.425445000">
        <ele>435.90</ele>
        <time>2016-10-15T08:59:55Z</time>
      </trkpt>
      <trkpt lat="42.508197000" lon="-2.425448000">
        <ele>435.80</ele>
        <time>2016-10-15T08:59:56Z</time>
      </trkpt>
      <trkpt lat="42.508161000" lon="-2.425458000">
        <ele>435.80</ele>
        <time>2016-10-15T08:59:57Z</time>
      </trkpt>
      <trkpt lat="42.508120000" lon="-2.425469000">
        <ele>435.70</ele>
        <time>2016-10-15T08:59:58Z</time>
      </trkpt>
      <trkpt lat="42.508078000" lon="-2.425480000">
        <ele>435.60</ele>
        <time>2016-10-15T08:59:59Z</time>
      </trkpt>
      <trkpt lat="42.508033000" lon="-2.425491000">
        <ele>435.60</ele>
        <time>2016-10-15T09:00:00Z</time>
      </trkpt>
      <trkpt lat="42.507988000" lon="-2.425503000">
        <ele>435.60</ele>
        <time>2016-10-15T09:00:01Z</time>
      </trkpt>
      <trkpt lat="42.507898000" lon="-2.425530000">
        <ele>435.30</ele>
        <time>2016-10-15T09:00:03Z</time>
      </trkpt>
      <trkpt lat="42.507855000" lon="-2.425539000">
        <ele>435.00</ele>
        <time>2016-10-15T09:00:04Z</time>
      </trkpt>
      <trkpt lat="42.507814000" lon="-2.425545000">
        <ele>434.90</ele>
        <time>2016-10-15T09:00:05Z</time>
      </trkpt>
      <trkpt lat="42.507776000" lon="-2.425547000">
        <ele>434.70</ele>
        <time>2016-10-15T09:00:06Z</time>
      </trkpt>
      <trkpt lat="42.507740000" lon="-2.425548000">
        <ele>434.60</ele>
        <time>2016-10-15T09:00:07Z</time>
      </trkpt>
      <trkpt lat="42.507703000" lon="-2.425549000">
        <ele>434.60</ele>
        <time>2016-10-15T09:00:08Z</time>
      </trkpt>
      <trkpt lat="42.507668000" lon="-2.425543000">
        <ele>434.50</ele>
        <time>2016-10-15T09:00:09Z</time>
      </trkpt>
      <trkpt lat="42.507632000" lon="-2.425522000">
        <ele>434.60</ele>
        <time>2016-10-15T09:00:10Z</time>
      </trkpt>
      <trkpt lat="42.507595000" lon="-2.425506000">
        <ele>434.60</ele>
        <time>2016-10-15T09:00:11Z</time>
      </trkpt>
      <trkpt lat="42.507558000" lon="-2.425488000">
        <ele>434.80</ele>
        <time>2016-10-15T09:00:12Z</time>
      </trkpt>
      <trkpt lat="42.507520000" lon="-2.425473000">
        <ele>434.80</ele>
        <time>2016-10-15T09:00:13Z</time>
      </trkpt>
      <trkpt lat="42.507483000" lon="-2.425450000">
        <ele>435.10</ele>
        <time>2016-10-15T09:00:14Z</time>
      </trkpt>
      <trkpt lat="42.507444000" lon="-2.425430000">
        <ele>435.30</ele>
        <time>2016-10-15T09:00:15Z</time>
      </trkpt>
      <trkpt lat="42.507408000" lon="-2.425410000">
        <ele>435.40</ele>
        <time>2016-10-15T09:00:16Z</time>
      </trkpt>
      <trkpt lat="42.507370000" lon="-2.425390000">
        <ele>435.60</ele>
        <time>2016-10-15T09:00:17Z</time>
      </trkpt>
      <trkpt lat="42.507333000" lon="-2.425368000">
        <ele>435.60</ele>
        <time>2016-10-15T09:00:18Z</time>
      </trkpt>
      <trkpt lat="42.507297000" lon="-2.425348000">
        <ele>435.70</ele>
        <time>2016-10-15T09:00:19Z</time>
      </trkpt>
      <trkpt lat="42.507260000" lon="-2.425332000">
        <ele>435.70</ele>
        <time>2016-10-15T09:00:20Z</time>
      </trkpt>
      <trkpt lat="42.507227000" lon="-2.425314000">
        <ele>435.80</ele>
        <time>2016-10-15T09:00:21Z</time>
      </trkpt>
      <trkpt lat="42.507193000" lon="-2.425296000">
        <ele>436.30</ele>
        <time>2016-10-15T09:00:22Z</time>
      </trkpt>
      <trkpt lat="42.507162000" lon="-2.425275000">
        <ele>436.70</ele>
        <time>2016-10-15T09:00:23Z</time>
      </trkpt>
      <trkpt lat="42.507129000" lon="-2.425255000">
        <ele>437.00</ele>
        <time>2016-10-15T09:00:24Z</time>
      </trkpt>
      <trkpt lat="42.507096000" lon="-2.425237000">
        <ele>437.30</ele>
        <time>2016-10-15T09:00:25Z</time>
      </trkpt>
      <trkpt lat="42.507064000" lon="-2.425222000">
        <ele>437.50</ele>
        <time>2016-10-15T09:00:26Z</time>
      </trkpt>
      <trkpt lat="42.507030000" lon="-2.425206000">
        <ele>437.60</ele>
        <time>2016-10-15T09:00:27Z</time>
      </trkpt>
      <trkpt lat="42.507001000" lon="-2.425186000">
        <ele>437.90</ele>
        <time>2016-10-15T09:00:28Z</time>
      </trkpt>
      <trkpt lat="42.506970000" lon="-2.425164000">
        <ele>438.20</ele>
        <time>2016-10-15T09:00:29Z</time>
      </trkpt>
      <trkpt lat="42.506935000" lon="-2.425150000">
        <ele>438.50</ele>
        <time>2016-10-15T09:00:30Z</time>
      </trkpt>
      <trkpt lat="42.506900000" lon="-2.425135000">
        <ele>438.70</ele>
        <time>2016-10-15T09:00:31Z</time>
      </trkpt>
      <trkpt lat="42.506868000" lon="-2.425120000">
        <ele>438.90</ele>
        <time>2016-10-15T09:00:32Z</time>
      </trkpt>
      <trkpt lat="42.506831000" lon="-2.425106000">
        <ele>439.00</ele>
        <time>2016-10-15T09:00:33Z</time>
      </trkpt>
      <trkpt lat="42.506796000" lon="-2.425096000">
        <ele>439.20</ele>
        <time>2016-10-15T09:00:34Z</time>
      </trkpt>
      <trkpt lat="42.506762000" lon="-2.425082000">
        <ele>439.40</ele>
        <time>2016-10-15T09:00:35Z</time>
      </trkpt>
      <trkpt lat="42.506727000" lon="-2.425074000">
        <ele>439.70</ele>
        <time>2016-10-15T09:00:36Z</time>
      </trkpt>
      <trkpt lat="42.506693000" lon="-2.425069000">
        <ele>439.90</ele>
        <time>2016-10-15T09:00:37Z</time>
      </trkpt>
      <trkpt lat="42.506659000" lon="-2.425069000">
        <ele>440.10</ele>
        <time>2016-10-15T09:00:38Z</time>
      </trkpt>
      <trkpt lat="42.506627000" lon="-2.425066000">
        <ele>440.20</ele>
        <time>2016-10-15T09:00:39Z</time>
      </trkpt>
      <trkpt lat="42.506593000" lon="-2.425068000">
        <ele>440.40</ele>
        <time>2016-10-15T09:00:40Z</time>
      </trkpt>
      <trkpt lat="42.506562000" lon="-2.425074000">
        <ele>440.50</ele>
        <time>2016-10-15T09:00:41Z</time>
      </trkpt>
      <trkpt lat="42.506528000" lon="-2.425086000">
        <ele>440.90</ele>
        <time>2016-10-15T09:00:42Z</time>
      </trkpt>
      <trkpt lat="42.506493000" lon="-2.425100000">
        <ele>441.10</ele>
        <time>2016-10-15T09:00:43Z</time>
      </trkpt>
      <trkpt lat="42.506457000" lon="-2.425114000">
        <ele>441.40</ele>
        <time>2016-10-15T09:00:44Z</time>
      </trkpt>
      <trkpt lat="42.506421000" lon="-2.425128000">
        <ele>441.60</ele>
        <time>2016-10-15T09:00:45Z</time>
      </trkpt>
      <trkpt lat="42.506387000" lon="-2.425140000">
        <ele>441.80</ele>
        <time>2016-10-15T09:00:46Z</time>
      </trkpt>
      <trkpt lat="42.506351000" lon="-2.425149000">
        <ele>441.90</ele>
        <time>2016-10-15T09:00:47Z</time>
      </trkpt>
      <trkpt lat="42.506316000" lon="-2.425164000">
        <ele>442.00</ele>
        <time>2016-10-15T09:00:48Z</time>
      </trkpt>
      <trkpt lat="42.506280000" lon="-2.425178000">
        <ele>442.10</ele>
        <time>2016-10-15T09:00:49Z</time>
      </trkpt>
      <trkpt lat="42.506244000" lon="-2.425196000">
        <ele>442.10</ele>
        <time>2016-10-15T09:00:50Z</time>
      </trkpt>
      <trkpt lat="42.506207000" lon="-2.425216000">
        <ele>442.20</ele>
        <time>2016-10-15T09:00:51Z</time>
      </trkpt>
      <trkpt lat="42.506169000" lon="-2.425238000">
        <ele>442.20</ele>
        <time>2016-10-15T09:00:52Z</time>
      </trkpt>
      <trkpt lat="42.506130000" lon="-2.425256000">
        <ele>442.20</ele>
        <time>2016-10-15T09:00:53Z</time>
      </trkpt>
      <trkpt lat="42.506090000" lon="-2.425274000">
        <ele>442.50</ele>
        <time>2016-10-15T09:00:54Z</time>
      </trkpt>
      <trkpt lat="42.506049000" lon="-2.425292000">
        <ele>442.60</ele>
        <time>2016-10-15T09:00:55Z</time>
      </trkpt>
      <trkpt lat="42.506005000" lon="-2.425312000">
        <ele>442.80</ele>
        <time>2016-10-15T09:00:56Z</time>
      </trkpt>
      <trkpt lat="42.505960000" lon="-2.425335000">
        <ele>442.90</ele>
        <time>2016-10-15T09:00:57Z</time>
      </trkpt>
      <trkpt lat="42.505912000" lon="-2.425361000">
        <ele>442.80</ele>
        <time>2016-10-15T09:00:58Z</time>
      </trkpt>
      <trkpt lat="42.505862000" lon="-2.425390000">
        <ele>442.70</ele>
        <time>2016-10-15T09:00:59Z</time>
      </trkpt>
      <trkpt lat="42.505806000" lon="-2.425422000">
        <ele>442.50</ele>
        <time>2016-10-15T09:01:00Z</time>
      </trkpt>
      <trkpt lat="42.505746000" lon="-2.425455000">
        <ele>442.30</ele>
        <time>2016-10-15T09:01:01Z</time>
      </trkpt>
      <trkpt lat="42.505679000" lon="-2.425490000">
        <ele>441.80</ele>
        <time>2016-10-15T09:01:02Z</time>
      </trkpt>
      <trkpt lat="42.505528000" lon="-2.425570000">
        <ele>441.10</ele>
        <time>2016-10-15T09:01:04Z</time>
      </trkpt>
      <trkpt lat="42.505448000" lon="-2.425617000">
        <ele>440.80</ele>
        <time>2016-10-15T09:01:05Z</time>
      </trkpt>
      <trkpt lat="42.505363000" lon="-2.425665000">
        <ele>440.20</ele>
        <time>2016-10-15T09:01:06Z</time>
      </trkpt>
      <trkpt lat="42.505279000" lon="-2.425715000">
        <ele>439.70</ele>
        <time>2016-10-15T09:01:07Z</time>
      </trkpt>
      <trkpt lat="42.505192000" lon="-2.425764000">
        <ele>439.00</ele>
        <time>2016-10-15T09:01:08Z</time>
      </trkpt>
      <trkpt lat="42.505106000" lon="-2.425813000">
        <ele>438.40</ele>
        <time>2016-10-15T09:01:09Z</time>
      </trkpt>
      <trkpt lat="42.505022000" lon="-2.425862000">
        <ele>437.60</ele>
        <time>2016-10-15T09:01:10Z</time>
      </trkpt>
      <trkpt lat="42.504941000" lon="-2.425910000">
        <ele>436.90</ele>
        <time>2016-10-15T09:01:11Z</time>
      </trkpt>
      <trkpt lat="42.504859000" lon="-2.425956000">
        <ele>436.40</ele>
        <time>2016-10-15T09:01:12Z</time>
      </trkpt>
      <trkpt lat="42.504780000" lon="-2.426003000">
        <ele>436.00</ele>
        <time>2016-10-15T09:01:13Z</time>
      </trkpt>
      <trkpt lat="42.504703000" lon="-2.426045000">
        <ele>435.90</ele>
        <time>2016-10-15T09:01:14Z</time>
      </trkpt>
      <trkpt lat="42.504630000" lon="-2.426082000">
        <ele>435.70</ele>
        <time>2016-10-15T09:01:15Z</time>
      </trkpt>
      <trkpt lat="42.504560000" lon="-2.426120000">
        <ele>435.70</ele>
        <time>2016-10-15T09:01:16Z</time>
      </trkpt>
      <trkpt lat="42.504496000" lon="-2.426150000">
        <ele>435.60</ele>
        <time>2016-10-15T09:01:17Z</time>
      </trkpt>
      <trkpt lat="42.504438000" lon="-2.426173000">
        <ele>435.60</ele>
        <time>2016-10-15T09:01:18Z</time>
      </trkpt>
      <trkpt lat="42.504383000" lon="-2.426194000">
        <ele>435.60</ele>
        <time>2016-10-15T09:01:19Z</time>
      </trkpt>
      <trkpt lat="42.504327000" lon="-2.426211000">
        <ele>435.70</ele>
        <time>2016-10-15T09:01:20Z</time>
      </trkpt>
      <trkpt lat="42.504272000" lon="-2.426226000">
        <ele>435.80</ele>
        <time>2016-10-15T09:01:21Z</time>
      </trkpt>
      <trkpt lat="42.504217000" lon="-2.426240000">
        <ele>435.90</ele>
        <time>2016-10-15T09:01:22Z</time>
      </trkpt>
      <trkpt lat="42.504163000" lon="-2.426251000">
        <ele>436.00</ele>
        <time>2016-10-15T09:01:23Z</time>
      </trkpt>
      <trkpt lat="42.504110000" lon="-2.426265000">
        <ele>435.90</ele>
        <time>2016-10-15T09:01:24Z</time>
      </trkpt>
      <trkpt lat="42.504060000" lon="-2.426281000">
        <ele>435.80</ele>
        <time>2016-10-15T09:01:25Z</time>
      </trkpt>
      <trkpt lat="42.504011000" lon="-2.426294000">
        <ele>435.80</ele>
        <time>2016-10-15T09:01:26Z</time>
      </trkpt>
      <trkpt lat="42.503965000" lon="-2.426305000">
        <ele>435.70</ele>
        <time>2016-10-15T09:01:27Z</time>
      </trkpt>
      <trkpt lat="42.503919000" lon="-2.426315000">
        <ele>436.00</ele>
        <time>2016-10-15T09:01:28Z</time>
      </trkpt>
      <trkpt lat="42.503876000" lon="-2.426324000">
        <ele>436.30</ele>
        <time>2016-10-15T09:01:29Z</time>
      </trkpt>
      <trkpt lat="42.503833000" lon="-2.426332000">
        <ele>436.40</ele>
        <time>2016-10-15T09:01:30Z</time>
      </trkpt>
      <trkpt lat="42.503794000" lon="-2.426340000">
        <ele>436.60</ele>
        <time>2016-10-15T09:01:31Z</time>
      </trkpt>
      <trkpt lat="42.503755000" lon="-2.426351000">
        <ele>436.60</ele>
        <time>2016-10-15T09:01:32Z</time>
      </trkpt>
      <trkpt lat="42.503717000" lon="-2.426358000">
        <ele>436.70</ele>
        <time>2016-10-15T09:01:33Z</time>
      </trkpt>
      <trkpt lat="42.503682000" lon="-2.426366000">
        <ele>436.70</ele>
        <time>2016-10-15T09:01:34Z</time>
      </trkpt>
      <trkpt lat="42.503645000" lon="-2.426374000">
        <ele>436.80</ele>
        <time>2016-10-15T09:01:35Z</time>
      </trkpt>
      <trkpt lat="42.503606000" lon="-2.426384000">
        <ele>437.00</ele>
        <time>2016-10-15T09:01:36Z</time>
      </trkpt>
      <trkpt lat="42.503569000" lon="-2.426394000">
        <ele>437.10</ele>
        <time>2016-10-15T09:01:37Z</time>
      </trkpt>
      <trkpt lat="42.503532000" lon="-2.426402000">
        <ele>437.40</ele>
        <time>2016-10-15T09:01:38Z</time>
      </trkpt>
      <trkpt lat="42.503492000" lon="-2.426415000">
        <ele>437.60</ele>
        <time>2016-10-15T09:01:39Z</time>
      </trkpt>
      <trkpt lat="42.503453000" lon="-2.426423000">
        <ele>437.80</ele>
        <time>2016-10-15T09:01:40Z</time>
      </trkpt>
      <trkpt lat="42.503416000" lon="-2.426428000">
        <ele>437.90</ele>
        <time>2016-10-15T09:01:41Z</time>
      </trkpt>
      <trkpt lat="42.503374000" lon="-2.426437000">
        <ele>438.20</ele>
        <time>2016-10-15T09:01:42Z</time>
      </trkpt>
      <trkpt lat="42.503334000" lon="-2.426444000">
        <ele>438.40</ele>
        <time>2016-10-15T09:01:43Z</time>
      </trkpt>
      <trkpt lat="42.503292000" lon="-2.426455000">
        <ele>438.80</ele>
        <time>2016-10-15T09:01:44Z</time>
      </trkpt>
      <trkpt lat="42.503249000" lon="-2.426466000">
        <ele>439.20</ele>
        <time>2016-10-15T09:01:45Z</time>
      </trkpt>
      <trkpt lat="42.503208000" lon="-2.426476000">
        <ele>439.50</ele>
        <time>2016-10-15T09:01:46Z</time>
      </trkpt>
      <trkpt lat="42.503168000" lon="-2.426487000">
        <ele>439.70</ele>
        <time>2016-10-15T09:01:47Z</time>
      </trkpt>
      <trkpt lat="42.503126000" lon="-2.426497000">
        <ele>439.90</ele>
        <time>2016-10-15T09:01:48Z</time>
      </trkpt>
      <trkpt lat="42.503085000" lon="-2.426506000">
        <ele>440.10</ele>
        <time>2016-10-15T09:01:49Z</time>
      </trkpt>
      <trkpt lat="42.503044000" lon="-2.426519000">
        <ele>440.30</ele>
        <time>2016-10-15T09:01:50Z</time>
      </trkpt>
      <trkpt lat="42.503003000" lon="-2.426536000">
        <ele>440.50</ele>
        <time>2016-10-15T09:01:51Z</time>
      </trkpt>
      <trkpt lat="42.502963000" lon="-2.426555000">
        <ele>440.70</ele>
        <time>2016-10-15T09:01:52Z</time>
      </trkpt>
      <trkpt lat="42.502921000" lon="-2.426572000">
        <ele>440.90</ele>
        <time>2016-10-15T09:01:53Z</time>
      </trkpt>
      <trkpt lat="42.502877000" lon="-2.426589000">
        <ele>441.10</ele>
        <time>2016-10-15T09:01:54Z</time>
      </trkpt>
      <trkpt lat="42.502835000" lon="-2.426602000">
        <ele>441.30</ele>
        <time>2016-10-15T09:01:55Z</time>
      </trkpt>
      <trkpt lat="42.502790000" lon="-2.426618000">
        <ele>441.50</ele>
        <time>2016-10-15T09:01:56Z</time>
      </trkpt>
      <trkpt lat="42.502743000" lon="-2.426638000">
        <ele>441.60</ele>
        <time>2016-10-15T09:01:57Z</time>
      </trkpt>
      <trkpt lat="42.502692000" lon="-2.426657000">
        <ele>441.40</ele>
        <time>2016-10-15T09:01:58Z</time>
      </trkpt>
      <trkpt lat="42.502639000" lon="-2.426680000">
        <ele>441.40</ele>
        <time>2016-10-15T09:01:59Z</time>
      </trkpt>
      <trkpt lat="42.502583000" lon="-2.426708000">
        <ele>441.20</ele>
        <time>2016-10-15T09:02:00Z</time>
      </trkpt>
      <trkpt lat="42.502525000" lon="-2.426740000">
        <ele>441.10</ele>
        <time>2016-10-15T09:02:01Z</time>
      </trkpt>
      <trkpt lat="42.502465000" lon="-2.426771000">
        <ele>441.00</ele>
        <time>2016-10-15T09:02:02Z</time>
      </trkpt>
      <trkpt lat="42.502402000" lon="-2.426799000">
        <ele>441.00</ele>
        <time>2016-10-15T09:02:03Z</time>
      </trkpt>
      <trkpt lat="42.502270000" lon="-2.426867000">
        <ele>440.60</ele>
        <time>2016-10-15T09:02:05Z</time>
      </trkpt>
      <trkpt lat="42.502204000" lon="-2.426904000">
        <ele>440.40</ele>
        <time>2016-10-15T09:02:06Z</time>
      </trkpt>
      <trkpt lat="42.502138000" lon="-2.426935000">
        <ele>440.30</ele>
        <time>2016-10-15T09:02:07Z</time>
      </trkpt>
      <trkpt lat="42.502068000" lon="-2.426969000">
        <ele>440.00</ele>
        <time>2016-10-15T09:02:08Z</time>
      </trkpt>
      <trkpt lat="42.501998000" lon="-2.427006000">
        <ele>439.80</ele>
        <time>2016-10-15T09:02:09Z</time>
      </trkpt>
      <trkpt lat="42.501928000" lon="-2.427039000">
        <ele>439.30</ele>
        <time>2016-10-15T09:02:10Z</time>
      </trkpt>
      <trkpt lat="42.501858000" lon="-2.427075000">
        <ele>438.90</ele>
        <time>2016-10-15T09:02:11Z</time>
      </trkpt>
      <trkpt lat="42.501787000" lon="-2.427112000">
        <ele>438.40</ele>
        <time>2016-10-15T09:02:12Z</time>
      </trkpt>
      <trkpt lat="42.501715000" lon="-2.427152000">
        <ele>438.00</ele>
        <time>2016-10-15T09:02:13Z</time>
      </trkpt>
      <trkpt lat="42.501643000" lon="-2.427187000">
        <ele>437.60</ele>
        <time>2016-10-15T09:02:14Z</time>
      </trkpt>
      <trkpt lat="42.501573000" lon="-2.427221000">
        <ele>437.30</ele>
        <time>2016-10-15T09:02:15Z</time>
      </trkpt>
      <trkpt lat="42.501507000" lon="-2.427252000">
        <ele>437.20</ele>
        <time>2016-10-15T09:02:16Z</time>
      </trkpt>
      <trkpt lat="42.501442000" lon="-2.427282000">
        <ele>437.10</ele>
        <time>2016-10-15T09:02:17Z</time>
      </trkpt>
      <trkpt lat="42.501378000" lon="-2.427316000">
        <ele>437.00</ele>
        <time>2016-10-15T09:02:18Z</time>
      </trkpt>
      <trkpt lat="42.501314000" lon="-2.427349000">
        <ele>437.00</ele>
        <time>2016-10-15T09:02:19Z</time>
      </trkpt>
      <trkpt lat="42.501251000" lon="-2.427378000">
        <ele>436.90</ele>
        <time>2016-10-15T09:02:20Z</time>
      </trkpt>
      <trkpt lat="42.501188000" lon="-2.427412000">
        <ele>436.90</ele>
        <time>2016-10-15T09:02:21Z</time>
      </trkpt>
      <trkpt lat="42.501126000" lon="-2.427443000">
        <ele>436.70</ele>
        <time>2016-10-15T09:02:22Z</time>
      </trkpt>
      <trkpt lat="42.501063000" lon="-2.427477000">
        <ele>436.60</ele>
        <time>2016-10-15T09:02:23Z</time>
      </trkpt>
      <trkpt lat="42.501002000" lon="-2.427506000">
        <ele>436.50</ele>
        <time>2016-10-15T09:02:24Z</time>
      </trkpt>
      <trkpt lat="42.500938000" lon="-2.427533000">
        <ele>436.30</ele>
        <time>2016-10-15T09:02:25Z</time>
      </trkpt>
      <trkpt lat="42.500874000" lon="-2.427562000">
        <ele>436.20</ele>
        <time>2016-10-15T09:02:26Z</time>
      </trkpt>
      <trkpt lat="42.500808000" lon="-2.427589000">
        <ele>436.10</ele>
        <time>2016-10-15T09:02:27Z</time>
      </trkpt>
      <trkpt lat="42.500742000" lon="-2.427616000">
        <ele>436.00</ele>
        <time>2016-10-15T09:02:28Z</time>
      </trkpt>
      <trkpt lat="42.500673000" lon="-2.427641000">
        <ele>435.90</ele>
        <time>2016-10-15T09:02:29Z</time>
      </trkpt>
      <trkpt lat="42.500603000" lon="-2.427662000">
        <ele>435.50</ele>
        <time>2016-10-15T09:02:30Z</time>
      </trkpt>
      <trkpt lat="42.500533000" lon="-2.427673000">
        <ele>435.20</ele>
        <time>2016-10-15T09:02:31Z</time>
      </trkpt>
      <trkpt lat="42.500460000" lon="-2.427686000">
        <ele>434.90</ele>
        <time>2016-10-15T09:02:32Z</time>
      </trkpt>
      <trkpt lat="42.500388000" lon="-2.427705000">
        <ele>434.70</ele>
        <time>2016-10-15T09:02:33Z</time>
      </trkpt>
      <trkpt lat="42.500318000" lon="-2.427722000">
        <ele>434.60</ele>
        <time>2016-10-15T09:02:34Z</time>
      </trkpt>
      <trkpt lat="42.500247000" lon="-2.427733000">
        <ele>434.40</ele>
        <time>2016-10-15T09:02:35Z</time>
      </trkpt>
      <trkpt lat="42.500176000" lon="-2.427742000">
        <ele>434.30</ele>
        <time>2016-10-15T09:02:36Z</time>
      </trkpt>
      <trkpt lat="42.500106000" lon="-2.427751000">
        <ele>434.30</ele>
        <time>2016-10-15T09:02:37Z</time>
      </trkpt>
      <trkpt lat="42.500040000" lon="-2.427762000">
        <ele>434.10</ele>
        <time>2016-10-15T09:02:38Z</time>
      </trkpt>
      <trkpt lat="42.499974000" lon="-2.427770000">
        <ele>434.00</ele>
        <time>2016-10-15T09:02:39Z</time>
      </trkpt>
      <trkpt lat="42.499912000" lon="-2.427782000">
        <ele>433.90</ele>
        <time>2016-10-15T09:02:40Z</time>
      </trkpt>
      <trkpt lat="42.499850000" lon="-2.427793000">
        <ele>433.80</ele>
        <time>2016-10-15T09:02:41Z</time>
      </trkpt>
      <trkpt lat="42.499790000" lon="-2.427802000">
        <ele>433.80</ele>
        <time>2016-10-15T09:02:42Z</time>
      </trkpt>
      <trkpt lat="42.499730000" lon="-2.427811000">
        <ele>433.80</ele>
        <time>2016-10-15T09:02:43Z</time>
      </trkpt>
      <trkpt lat="42.499669000" lon="-2.427819000">
        <ele>434.10</ele>
        <time>2016-10-15T09:02:44Z</time>
      </trkpt>
      <trkpt lat="42.499610000" lon="-2.427830000">
        <ele>434.40</ele>
        <time>2016-10-15T09:02:45Z</time>
      </trkpt>
      <trkpt lat="42.499550000" lon="-2.427841000">
        <ele>434.60</ele>
        <time>2016-10-15T09:02:46Z</time>
      </trkpt>
      <trkpt lat="42.499491000" lon="-2.427850000">
        <ele>434.80</ele>
        <time>2016-10-15T09:02:47Z</time>
      </trkpt>
      <trkpt lat="42.499433000" lon="-2.427862000">
        <ele>434.80</ele>
        <time>2016-10-15T09:02:48Z</time>
      </trkpt>
      <trkpt lat="42.499374000" lon="-2.427871000">
        <ele>434.80</ele>
        <time>2016-10-15T09:02:49Z</time>
      </trkpt>
      <trkpt lat="42.499314000" lon="-2.427881000">
        <ele>434.80</ele>
        <time>2016-10-15T09:02:50Z</time>
      </trkpt>
      <trkpt lat="42.499256000" lon="-2.427895000">
        <ele>434.80</ele>
        <time>2016-10-15T09:02:51Z</time>
      </trkpt>
      <trkpt lat="42.499201000" lon="-2.427905000">
        <ele>434.80</ele>
        <time>2016-10-15T09:02:52Z</time>
      </trkpt>
      <trkpt lat="42.499143000" lon="-2.427913000">
        <ele>434.90</ele>
        <time>2016-10-15T09:02:53Z</time>
      </trkpt>
      <trkpt lat="42.499086000" lon="-2.427921000">
        <ele>435.00</ele>
        <time>2016-10-15T09:02:54Z</time>
      </trkpt>
      <trkpt lat="42.499028000" lon="-2.427929000">
        <ele>435.20</ele>
        <time>2016-10-15T09:02:55Z</time>
      </trkpt>
      <trkpt lat="42.498971000" lon="-2.427936000">
        <ele>435.30</ele>
        <time>2016-10-15T09:02:56Z</time>
      </trkpt>
      <trkpt lat="42.498915000" lon="-2.427945000">
        <ele>435.40</ele>
        <time>2016-10-15T09:02:57Z</time>
      </trkpt>
      <trkpt lat="42.498860000" lon="-2.427956000">
        <ele>435.50</ele>
        <time>2016-10-15T09:02:58Z</time>
      </trkpt>
      <trkpt lat="42.498805000" lon="-2.427965000">
        <ele>435.50</ele>
        <time>2016-10-15T09:02:59Z</time>
      </trkpt>
      <trkpt lat="42.498750000" lon="-2.427983000">
        <ele>435.60</ele>
        <time>2016-10-15T09:03:00Z</time>
      </trkpt>
      <trkpt lat="42.498693000" lon="-2.427992000">
        <ele>435.60</ele>
        <time>2016-10-15T09:03:01Z</time>
      </trkpt>
      <trkpt lat="42.498636000" lon="-2.427999000">
        <ele>435.70</ele>
        <time>2016-10-15T09:03:02Z</time>
      </trkpt>
      <trkpt lat="42.498581000" lon="-2.428006000">
        <ele>435.80</ele>
        <time>2016-10-15T09:03:03Z</time>
      </trkpt>
      <trkpt lat="42.498525000" lon="-2.428015000">
        <ele>435.80</ele>
        <time>2016-10-15T09:03:04Z</time>
      </trkpt>
      <trkpt lat="42.498416000" lon="-2.428034000">
        <ele>435.60</ele>
        <time>2016-10-15T09:03:06Z</time>
      </trkpt>
      <trkpt lat="42.498364000" lon="-2.428042000">
        <ele>435.50</ele>
        <time>2016-10-15T09:03:07Z</time>
      </trkpt>
      <trkpt lat="42.498311000" lon="-2.428051000">
        <ele>435.30</ele>
        <time>2016-10-15T09:03:08Z</time>
      </trkpt>
      <trkpt lat="42.498259000" lon="-2.428062000">
        <ele>435.20</ele>
        <time>2016-10-15T09:03:09Z</time>
      </trkpt>
      <trkpt lat="42.498208000" lon="-2.428071000">
        <ele>435.20</ele>
        <time>2016-10-15T09:03:10Z</time>
      </trkpt>
      <trkpt lat="42.498158000" lon="-2.428078000">
        <ele>435.10</ele>
        <time>2016-10-15T09:03:11Z</time>
      </trkpt>
      <trkpt lat="42.498110000" lon="-2.428087000">
        <ele>435.00</ele>
        <time>2016-10-15T09:03:12Z</time>
      </trkpt>
      <trkpt lat="42.498062000" lon="-2.428099000">
        <ele>435.00</ele>
        <time>2016-10-15T09:03:13Z</time>
      </trkpt>
      <trkpt lat="42.498014000" lon="-2.428108000">
        <ele>434.80</ele>
        <time>2016-10-15T09:03:14Z</time>
      </trkpt>
      <trkpt lat="42.497964000" lon="-2.428115000">
        <ele>434.70</ele>
        <time>2016-10-15T09:03:15Z</time>
      </trkpt>
      <trkpt lat="42.497914000" lon="-2.428121000">
        <ele>434.60</ele>
        <time>2016-10-15T09:03:16Z</time>
      </trkpt>
      <trkpt lat="42.497860000" lon="-2.428127000">
        <ele>434.50</ele>
        <time>2016-10-15T09:03:17Z</time>
      </trkpt>
      <trkpt lat="42.497806000" lon="-2.428132000">
        <ele>434.30</ele>
        <time>2016-10-15T09:03:18Z</time>
      </trkpt>
      <trkpt lat="42.497755000" lon="-2.428140000">
        <ele>434.10</ele>
        <time>2016-10-15T09:03:19Z</time>
      </trkpt>
      <trkpt lat="42.497713000" lon="-2.428174000">
        <ele>433.60</ele>
        <time>2016-10-15T09:03:20Z</time>
      </trkpt>
      <trkpt lat="42.497694000" lon="-2.428217000">
        <ele>433.30</ele>
        <time>2016-10-15T09:03:21Z</time>
      </trkpt>
      <trkpt lat="42.497698000" lon="-2.428277000">
        <ele>433.00</ele>
        <time>2016-10-15T09:03:22Z</time>
      </trkpt>
      <trkpt lat="42.497714000" lon="-2.428343000">
        <ele>432.80</ele>
        <time>2016-10-15T09:03:23Z</time>
      </trkpt>
      <trkpt lat="42.497733000" lon="-2.428412000">
        <ele>432.50</ele>
        <time>2016-10-15T09:03:24Z</time>
      </trkpt>
      <trkpt lat="42.497753000" lon="-2.428483000">
        <ele>432.30</ele>
        <time>2016-10-15T09:03:25Z</time>
      </trkpt>
      <trkpt lat="42.497775000" lon="-2.428555000">
        <ele>432.00</ele>
        <time>2016-10-15T09:03:26Z</time>
      </trkpt>
      <trkpt lat="42.497794000" lon="-2.428627000">
        <ele>431.80</ele>
        <time>2016-10-15T09:03:27Z</time>
      </trkpt>
      <trkpt lat="42.497812000" lon="-2.428700000">
        <ele>431.60</ele>
        <time>2016-10-15T09:03:28Z</time>
      </trkpt>
      <trkpt lat="42.497834000" lon="-2.428772000">
        <ele>431.50</ele>
        <time>2016-10-15T09:03:29Z</time>
      </trkpt>
      <trkpt lat="42.497864000" lon="-2.428844000">
        <ele>431.40</ele>
        <time>2016-10-15T09:03:30Z</time>
      </trkpt>
      <trkpt lat="42.497898000" lon="-2.428912000">
        <ele>431.30</ele>
        <time>2016-10-15T09:03:31Z</time>
      </trkpt>
      <trkpt lat="42.497939000" lon="-2.428968000">
        <ele>431.20</ele>
        <time>2016-10-15T09:03:32Z</time>
      </trkpt>
      <trkpt lat="42.497985000" lon="-2.429016000">
        <ele>431.20</ele>
        <time>2016-10-15T09:03:33Z</time>
      </trkpt>
      <trkpt lat="42.498033000" lon="-2.429059000">
        <ele>431.00</ele>
        <time>2016-10-15T09:03:34Z</time>
      </trkpt>
      <trkpt lat="42.498080000" lon="-2.429105000">
        <ele>430.90</ele>
        <time>2016-10-15T09:03:35Z</time>
      </trkpt>
      <trkpt lat="42.498123000" lon="-2.429164000">
        <ele>430.80</ele>
        <time>2016-10-15T09:03:36Z</time>
      </trkpt>
      <trkpt lat="42.498161000" lon="-2.429230000">
        <ele>430.70</ele>
        <time>2016-10-15T09:03:37Z</time>
      </trkpt>
      <trkpt lat="42.498195000" lon="-2.429306000">
        <ele>430.60</ele>
        <time>2016-10-15T09:03:38Z</time>
      </trkpt>
      <trkpt lat="42.498227000" lon="-2.429385000">
        <ele>430.50</ele>
        <time>2016-10-15T09:03:39Z</time>
      </trkpt>
      <trkpt lat="42.498259000" lon="-2.429468000">
        <ele>430.30</ele>
        <time>2016-10-15T09:03:40Z</time>
      </trkpt>
      <trkpt lat="42.498289000" lon="-2.429550000">
        <ele>430.20</ele>
        <time>2016-10-15T09:03:41Z</time>
      </trkpt>
      <trkpt lat="42.498317000" lon="-2.429633000">
        <ele>430.00</ele>
        <time>2016-10-15T09:03:42Z</time>
      </trkpt>
      <trkpt lat="42.498343000" lon="-2.429718000">
        <ele>429.90</ele>
        <time>2016-10-15T09:03:43Z</time>
      </trkpt>
      <trkpt lat="42.498366000" lon="-2.429807000">
        <ele>429.80</ele>
        <time>2016-10-15T09:03:44Z</time>
      </trkpt>
      <trkpt lat="42.498387000" lon="-2.429894000">
        <ele>429.70</ele>
        <time>2016-10-15T09:03:45Z</time>
      </trkpt>
      <trkpt lat="42.498405000" lon="-2.429983000">
        <ele>429.60</ele>
        <time>2016-10-15T09:03:46Z</time>
      </trkpt>
      <trkpt lat="42.498425000" lon="-2.430069000">
        <ele>429.60</ele>
        <time>2016-10-15T09:03:47Z</time>
      </trkpt>
      <trkpt lat="42.498452000" lon="-2.430151000">
        <ele>429.60</ele>
        <time>2016-10-15T09:03:48Z</time>
      </trkpt>
      <trkpt lat="42.498486000" lon="-2.430227000">
        <ele>429.60</ele>
        <time>2016-10-15T09:03:49Z</time>
      </trkpt>
      <trkpt lat="42.498528000" lon="-2.430296000">
        <ele>429.60</ele>
        <time>2016-10-15T09:03:50Z</time>
      </trkpt>
      <trkpt lat="42.498575000" lon="-2.430356000">
        <ele>429.60</ele>
        <time>2016-10-15T09:03:51Z</time>
      </trkpt>
      <trkpt lat="42.498626000" lon="-2.430408000">
        <ele>429.60</ele>
        <time>2016-10-15T09:03:52Z</time>
      </trkpt>
      <trkpt lat="42.498676000" lon="-2.430454000">
        <ele>429.60</ele>
        <time>2016-10-15T09:03:53Z</time>
      </trkpt>
      <trkpt lat="42.498732000" lon="-2.430498000">
        <ele>429.60</ele>
        <time>2016-10-15T09:03:54Z</time>
      </trkpt>
      <trkpt lat="42.498788000" lon="-2.430538000">
        <ele>429.60</ele>
        <time>2016-10-15T09:03:55Z</time>
      </trkpt>
      <trkpt lat="42.498845000" lon="-2.430577000">
        <ele>429.50</ele>
        <time>2016-10-15T09:03:56Z</time>
      </trkpt>
      <trkpt lat="42.498901000" lon="-2.430618000">
        <ele>429.40</ele>
        <time>2016-10-15T09:03:57Z</time>
      </trkpt>
      <trkpt lat="42.498954000" lon="-2.430664000">
        <ele>429.20</ele>
        <time>2016-10-15T09:03:58Z</time>
      </trkpt>
      <trkpt lat="42.499003000" lon="-2.430716000">
        <ele>429.00</ele>
        <time>2016-10-15T09:03:59Z</time>
      </trkpt>
      <trkpt lat="42.499044000" lon="-2.430780000">
        <ele>428.90</ele>
        <time>2016-10-15T09:04:00Z</time>
      </trkpt>
      <trkpt lat="42.499086000" lon="-2.430848000">
        <ele>428.80</ele>
        <time>2016-10-15T09:04:01Z</time>
      </trkpt>
      <trkpt lat="42.499125000" lon="-2.430924000">
        <ele>428.60</ele>
        <time>2016-10-15T09:04:02Z</time>
      </trkpt>
      <trkpt lat="42.499160000" lon="-2.431002000">
        <ele>428.50</ele>
        <time>2016-10-15T09:04:03Z</time>
      </trkpt>
      <trkpt lat="42.499190000" lon="-2.431083000">
        <ele>428.40</ele>
        <time>2016-10-15T09:04:04Z</time>
      </trkpt>
      <trkpt lat="42.499220000" lon="-2.431164000">
        <ele>428.30</ele>
        <time>2016-10-15T09:04:05Z</time>
      </trkpt>
      <trkpt lat="42.499274000" lon="-2.431322000">
        <ele>428.20</ele>
        <time>2016-10-15T09:04:07Z</time>
      </trkpt>
      <trkpt lat="42.499299000" lon="-2.431405000">
        <ele>428.20</ele>
        <time>2016-10-15T09:04:08Z</time>
      </trkpt>
      <trkpt lat="42.499321000" lon="-2.431489000">
        <ele>428.20</ele>
        <time>2016-10-15T09:04:09Z</time>
      </trkpt>
      <trkpt lat="42.499343000" lon="-2.431569000">
        <ele>428.10</ele>
        <time>2016-10-15T09:04:10Z</time>
      </trkpt>
      <trkpt lat="42.499365000" lon="-2.431647000">
        <ele>428.00</ele>
        <time>2016-10-15T09:04:11Z</time>
      </trkpt>
      <trkpt lat="42.499386000" lon="-2.431722000">
        <ele>427.90</ele>
        <time>2016-10-15T09:04:12Z</time>
      </trkpt>
      <trkpt lat="42.499406000" lon="-2.431797000">
        <ele>427.80</ele>
        <time>2016-10-15T09:04:13Z</time>
      </trkpt>
      <trkpt lat="42.499428000" lon="-2.431873000">
        <ele>427.80</ele>
        <time>2016-10-15T09:04:14Z</time>
      </trkpt>
      <trkpt lat="42.499448000" lon="-2.431950000">
        <ele>427.70</ele>
        <time>2016-10-15T09:04:15Z</time>
      </trkpt>
      <trkpt lat="42.499466000" lon="-2.432024000">
        <ele>427.70</ele>
        <time>2016-10-15T09:04:16Z</time>
      </trkpt>
      <trkpt lat="42.499488000" lon="-2.432100000">
        <ele>427.60</ele>
        <time>2016-10-15T09:04:17Z</time>
      </trkpt>
      <trkpt lat="42.499507000" lon="-2.432177000">
        <ele>427.50</ele>
        <time>2016-10-15T09:04:18Z</time>
      </trkpt>
      <trkpt lat="42.499527000" lon="-2.432255000">
        <ele>427.50</ele>
        <time>2016-10-15T09:04:19Z</time>
      </trkpt>
      <trkpt lat="42.499545000" lon="-2.432335000">
        <ele>427.40</ele>
        <time>2016-10-15T09:04:20Z</time>
      </trkpt>
      <trkpt lat="42.499565000" lon="-2.432415000">
        <ele>427.40</ele>
        <time>2016-10-15T09:04:21Z</time>
      </trkpt>
      <trkpt lat="42.499586000" lon="-2.432494000">
        <ele>427.20</ele>
        <time>2016-10-15T09:04:22Z</time>
      </trkpt>
      <trkpt lat="42.499607000" lon="-2.432571000">
        <ele>427.10</ele>
        <time>2016-10-15T09:04:23Z</time>
      </trkpt>
      <trkpt lat="42.499632000" lon="-2.432647000">
        <ele>426.80</ele>
        <time>2016-10-15T09:04:24Z</time>
      </trkpt>
      <trkpt lat="42.499655000" lon="-2.432726000">
        <ele>426.60</ele>
        <time>2016-10-15T09:04:25Z</time>
      </trkpt>
      <trkpt lat="42.499664000" lon="-2.432794000">
        <ele>426.20</ele>
        <time>2016-10-15T09:04:26Z</time>
      </trkpt>
      <trkpt lat="42.499665000" lon="-2.432852000">
        <ele>425.90</ele>
        <time>2016-10-15T09:04:27Z</time>
      </trkpt>
      <trkpt lat="42.499669000" lon="-2.432895000">
        <ele>425.70</ele>
        <time>2016-10-15T09:04:28Z</time>
      </trkpt>
      <trkpt lat="42.499659000" lon="-2.432936000">
        <ele>425.50</ele>
        <time>2016-10-15T09:04:29Z</time>
      </trkpt>
      <trkpt lat="42.499625000" lon="-2.432972000">
        <ele>425.20</ele>
        <time>2016-10-15T09:04:30Z</time>
      </trkpt>
      <trkpt lat="42.499578000" lon="-2.432994000">
        <ele>425.00</ele>
        <time>2016-10-15T09:04:31Z</time>
      </trkpt>
      <trkpt lat="42.499524000" lon="-2.432996000">
        <ele>424.70</ele>
        <time>2016-10-15T09:04:32Z</time>
      </trkpt>
      <trkpt lat="42.499472000" lon="-2.432991000">
        <ele>424.40</ele>
        <time>2016-10-15T09:04:33Z</time>
      </trkpt>
      <trkpt lat="42.499421000" lon="-2.432983000">
        <ele>424.30</ele>
        <time>2016-10-15T09:04:34Z</time>
      </trkpt>
      <trkpt lat="42.499369000" lon="-2.432977000">
        <ele>424.10</ele>
        <time>2016-10-15T09:04:35Z</time>
      </trkpt>
      <trkpt lat="42.499318000" lon="-2.432970000">
        <ele>424.10</ele>
        <time>2016-10-15T09:04:36Z</time>
      </trkpt>
      <trkpt lat="42.499266000" lon="-2.432962000">
        <ele>424.10</ele>
        <time>2016-10-15T09:04:37Z</time>
      </trkpt>
      <trkpt lat="42.499211000" lon="-2.432962000">
        <ele>424.10</ele>
        <time>2016-10-15T09:04:38Z</time>
      </trkpt>
      <trkpt lat="42.499159000" lon="-2.432964000">
        <ele>424.10</ele>
        <time>2016-10-15T09:04:39Z</time>
      </trkpt>
      <trkpt lat="42.499106000" lon="-2.432963000">
        <ele>424.00</ele>
        <time>2016-10-15T09:04:40Z</time>
      </trkpt>
      <trkpt lat="42.499052000" lon="-2.432961000">
        <ele>424.00</ele>
        <time>2016-10-15T09:04:41Z</time>
      </trkpt>
      <trkpt lat="42.499000000" lon="-2.432958000">
        <ele>423.90</ele>
        <time>2016-10-15T09:04:42Z</time>
      </trkpt>
      <trkpt lat="42.498949000" lon="-2.432956000">
        <ele>423.80</ele>
        <time>2016-10-15T09:04:43Z</time>
      </trkpt>
      <trkpt lat="42.498897000" lon="-2.432953000">
        <ele>423.90</ele>
        <time>2016-10-15T09:04:44Z</time>
      </trkpt>
      <trkpt lat="42.498852000" lon="-2.432950000">
        <ele>423.90</ele>
        <time>2016-10-15T09:04:45Z</time>
      </trkpt>
      <trkpt lat="42.498811000" lon="-2.432946000">
        <ele>423.70</ele>
        <time>2016-10-15T09:04:46Z</time>
      </trkpt>
      <trkpt lat="42.498775000" lon="-2.432943000">
        <ele>423.60</ele>
        <time>2016-10-15T09:04:47Z</time>
      </trkpt>
      <trkpt lat="42.498743000" lon="-2.432940000">
        <ele>423.40</ele>
        <time>2016-10-15T09:04:48Z</time>
      </trkpt>
      <trkpt lat="42.498713000" lon="-2.432933000">
        <ele>423.30</ele>
        <time>2016-10-15T09:04:49Z</time>
      </trkpt>
      <trkpt lat="42.498690000" lon="-2.432930000">
        <ele>423.20</ele>
        <time>2016-10-15T09:04:50Z</time>
      </trkpt>
      <trkpt lat="42.498672000" lon="-2.432932000">
        <ele>423.10</ele>
        <time>2016-10-15T09:04:51Z</time>
      </trkpt>
      <trkpt lat="42.498661000" lon="-2.432930000">
        <ele>423.00</ele>
        <time>2016-10-15T09:04:52Z</time>
      </trkpt>
      <trkpt lat="42.498661000" lon="-2.432927000">
        <ele>423.00</ele>
        <time>2016-10-15T09:04:53Z</time>
      </trkpt>
      <trkpt lat="42.498657000" lon="-2.432928000">
        <ele>423.10</ele>
        <time>2016-10-15T09:04:54Z</time>
      </trkpt>
      <trkpt lat="42.498649000" lon="-2.432925000">
        <ele>423.10</ele>
        <time>2016-10-15T09:04:55Z</time>
      </trkpt>
      <trkpt lat="42.498639000" lon="-2.432923000">
        <ele>423.10</ele>
        <time>2016-10-15T09:04:56Z</time>
      </trkpt>
      <trkpt lat="42.498623000" lon="-2.432923000">
        <ele>423.10</ele>
        <time>2016-10-15T09:04:57Z</time>
      </trkpt>
      <trkpt lat="42.498606000" lon="-2.432932000">
        <ele>423.10</ele>
        <time>2016-10-15T09:04:58Z</time>
      </trkpt>
      <trkpt lat="42.498588000" lon="-2.432942000">
        <ele>423.00</ele>
        <time>2016-10-15T09:04:59Z</time>
      </trkpt>
      <trkpt lat="42.498573000" lon="-2.432949000">
        <ele>422.90</ele>
        <time>2016-10-15T09:05:00Z</time>
      </trkpt>
      <trkpt lat="42.498557000" lon="-2.432956000">
        <ele>422.80</ele>
        <time>2016-10-15T09:05:01Z</time>
      </trkpt>
      <trkpt lat="42.498545000" lon="-2.432963000">
        <ele>422.70</ele>
        <time>2016-10-15T09:05:02Z</time>
      </trkpt>
      <trkpt lat="42.498541000" lon="-2.432967000">
        <ele>422.60</ele>
        <time>2016-10-15T09:05:03Z</time>
      </trkpt>
      <trkpt lat="42.498539000" lon="-2.432973000">
        <ele>422.50</ele>
        <time>2016-10-15T09:05:04Z</time>
      </trkpt>
      <trkpt lat="42.498536000" lon="-2.432976000">
        <ele>422.40</ele>
        <time>2016-10-15T09:05:05Z</time>
      </trkpt>
      <trkpt lat="42.498536000" lon="-2.432977000">
        <ele>422.40</ele>
        <time>2016-10-15T09:05:06Z</time>
      </trkpt>
      <trkpt lat="42.498534000" lon="-2.432979000">
        <ele>422.40</ele>
        <time>2016-10-15T09:05:08Z</time>
      </trkpt>
      <trkpt lat="42.498531000" lon="-2.432979000">
        <ele>422.30</ele>
        <time>2016-10-15T09:05:09Z</time>
      </trkpt>
      <trkpt lat="42.498530000" lon="-2.432979000">
        <ele>422.40</ele>
        <time>2016-10-15T09:05:10Z</time>
      </trkpt>
      <trkpt lat="42.498528000" lon="-2.432981000">
        <ele>422.50</ele>
        <time>2016-10-15T09:05:11Z</time>
      </trkpt>
      <trkpt lat="42.498527000" lon="-2.432981000">
        <ele>422.50</ele>
        <time>2016-10-15T09:05:12Z</time>
      </trkpt>
      <trkpt lat="42.498526000" lon="-2.432982000">
        <ele>422.60</ele>
        <time>2016-10-15T09:05:13Z</time>
      </trkpt>
      <trkpt lat="42.498525000" lon="-2.432984000">
        <ele>422.70</ele>
        <time>2016-10-15T09:05:14Z</time>
      </trkpt>
      <trkpt lat="42.498524000" lon="-2.432984000">
        <ele>422.80</ele>
        <time>2016-10-15T09:05:15Z</time>
      </trkpt>
      <trkpt lat="42.498523000" lon="-2.432984000">
        <ele>422.90</ele>
        <time>2016-10-15T09:05:16Z</time>
      </trkpt>
      <trkpt lat="42.498522000" lon="-2.432984000">
        <ele>423.00</ele>
        <time>2016-10-15T09:05:17Z</time>
      </trkpt>
      <trkpt lat="42.498522000" lon="-2.432984000">
        <ele>423.10</ele>
        <time>2016-10-15T09:05:18Z</time>
      </trkpt>
      <trkpt lat="42.498522000" lon="-2.432984000">
        <ele>423.20</ele>
        <time>2016-10-15T09:05:19Z</time>
      </trkpt>
      <trkpt lat="42.498522000" lon="-2.432985000">
        <ele>423.20</ele>
        <time>2016-10-15T09:05:20Z</time>
      </trkpt>
      <trkpt lat="42.498522000" lon="-2.432985000">
        <ele>423.20</ele>
        <time>2016-10-15T09:05:21Z</time>
      </trkpt>
      <trkpt lat="42.498521000" lon="-2.432985000">
        <ele>423.30</ele>
        <time>2016-10-15T09:05:22Z</time>
      </trkpt>
      <trkpt lat="42.498521000" lon="-2.432985000">
        <ele>423.30</ele>
        <time>2016-10-15T09:05:23Z</time>
      </trkpt>
      <trkpt lat="42.498521000" lon="-2.432986000">
        <ele>423.30</ele>
        <time>2016-10-15T09:05:24Z</time>
      </trkpt>
      <trkpt lat="42.498521000" lon="-2.432985000">
        <ele>423.40</ele>
        <time>2016-10-15T09:05:25Z</time>
      </trkpt>
      <trkpt lat="42.498521000" lon="-2.432985000">
        <ele>423.40</ele>
        <time>2016-10-15T09:05:26Z</time>
      </trkpt>
      <trkpt lat="42.498521000" lon="-2.432984000">
        <ele>423.50</ele>
        <time>2016-10-15T09:05:27Z</time>
      </trkpt>
      <trkpt lat="42.498521000" lon="-2.432984000">
        <ele>423.40</ele>
        <time>2016-10-15T09:05:28Z</time>
      </trkpt>
      <trkpt lat="42.498521000" lon="-2.432984000">
        <ele>423.40</ele>
        <time>2016-10-15T09:05:29Z</time>
      </trkpt>
      <trkpt lat="42.498520000" lon="-2.432984000">
        <ele>423.40</ele>
        <time>2016-10-15T09:05:30Z</time>
      </trkpt>
      <trkpt lat="42.498520000" lon="-2.432984000">
        <ele>423.40</ele>
        <time>2016-10-15T09:05:31Z</time>
      </trkpt>
      <trkpt lat="42.498520000" lon="-2.432984000">
        <ele>423.30</ele>
        <time>2016-10-15T09:05:32Z</time>
      </trkpt>
      <trkpt lat="42.498521000" lon="-2.432984000">
        <ele>423.30</ele>
        <time>2016-10-15T09:05:33Z</time>
      </trkpt>
      <trkpt lat="42.498521000" lon="-2.432983000">
        <ele>423.30</ele>
        <time>2016-10-15T09:05:34Z</time>
      </trkpt>
      <trkpt lat="42.498521000" lon="-2.432983000">
        <ele>423.30</ele>
        <time>2016-10-15T09:05:35Z</time>
      </trkpt>
      <trkpt lat="42.498521000" lon="-2.432983000">
        <ele>423.20</ele>
        <time>2016-10-15T09:05:36Z</time>
      </trkpt>
      <trkpt lat="42.498521000" lon="-2.432983000">
        <ele>423.20</ele>
        <time>2016-10-15T09:05:37Z</time>
      </trkpt>
      <trkpt lat="42.498521000" lon="-2.432983000">
        <ele>423.10</ele>
        <time>2016-10-15T09:05:38Z</time>
      </trkpt>
      <trkpt lat="42.498520000" lon="-2.432984000">
        <ele>423.00</ele>
        <time>2016-10-15T09:05:39Z</time>
      </trkpt>
      <trkpt lat="42.498521000" lon="-2.432983000">
        <ele>423.00</ele>
        <time>2016-10-15T09:05:40Z</time>
      </trkpt>
      <trkpt lat="42.498521000" lon="-2.432984000">
        <ele>422.90</ele>
        <time>2016-10-15T09:05:41Z</time>
      </trkpt>
      <trkpt lat="42.498522000" lon="-2.432985000">
        <ele>423.00</ele>
        <time>2016-10-15T09:05:42Z</time>
      </trkpt>
      <trkpt lat="42.498523000" lon="-2.432986000">
        <ele>423.10</ele>
        <time>2016-10-15T09:05:43Z</time>
      </trkpt>
      <trkpt lat="42.498524000" lon="-2.432987000">
        <ele>423.10</ele>
        <time>2016-10-15T09:05:44Z</time>
      </trkpt>
      <trkpt lat="42.498523000" lon="-2.432987000">
        <ele>423.10</ele>
        <time>2016-10-15T09:05:45Z</time>
      </trkpt>
      <trkpt lat="42.498523000" lon="-2.432989000">
        <ele>423.10</ele>
        <time>2016-10-15T09:05:46Z</time>
      </trkpt>
      <trkpt lat="42.498523000" lon="-2.432990000">
        <ele>423.10</ele>
        <time>2016-10-15T09:05:47Z</time>
      </trkpt>
      <trkpt lat="42.498524000" lon="-2.432991000">
        <ele>423.00</ele>
        <time>2016-10-15T09:05:48Z</time>
      </trkpt>
      <trkpt lat="42.498523000" lon="-2.432991000">
        <ele>423.00</ele>
        <time>2016-10-15T09:05:49Z</time>
      </trkpt>
      <trkpt lat="42.498522000" lon="-2.432992000">
        <ele>422.90</ele>
        <time>2016-10-15T09:05:50Z</time>
      </trkpt>
      <trkpt lat="42.498523000" lon="-2.432993000">
        <ele>422.90</ele>
        <time>2016-10-15T09:05:51Z</time>
      </trkpt>
      <trkpt lat="42.498523000" lon="-2.432994000">
        <ele>422.90</ele>
        <time>2016-10-15T09:05:52Z</time>
      </trkpt>
      <trkpt lat="42.498524000" lon="-2.432994000">
        <ele>422.90</ele>
        <time>2016-10-15T09:05:53Z</time>
      </trkpt>
      <trkpt lat="42.498524000" lon="-2.432993000">
        <ele>422.80</ele>
        <time>2016-10-15T09:05:54Z</time>
      </trkpt>
      <trkpt lat="42.498523000" lon="-2.432993000">
        <ele>422.80</ele>
        <time>2016-10-15T09:05:55Z</time>
      </trkpt>
      <trkpt lat="42.498523000" lon="-2.432995000">
        <ele>422.80</ele>
        <time>2016-10-15T09:05:56Z</time>
      </trkpt>
      <trkpt lat="42.498523000" lon="-2.432996000">
        <ele>422.80</ele>
        <time>2016-10-15T09:05:57Z</time>
      </trkpt>
      <trkpt lat="42.498523000" lon="-2.432996000">
        <ele>422.90</ele>
        <time>2016-10-15T09:05:58Z</time>
      </trkpt>
      <trkpt lat="42.498523000" lon="-2.432997000">
        <ele>422.90</ele>
        <time>2016-10-15T09:05:59Z</time>
      </trkpt>
      <trkpt lat="42.498522000" lon="-2.432998000">
        <ele>423.00</ele>
        <time>2016-10-15T09:06:00Z</time>
      </trkpt>
      <trkpt lat="42.498522000" lon="-2.432999000">
        <ele>423.00</ele>
        <time>2016-10-15T09:06:01Z</time>
      </trkpt>
      <trkpt lat="42.498522000" lon="-2.432999000">
        <ele>423.10</ele>
        <time>2016-10-15T09:06:02Z</time>
      </trkpt>
      <trkpt lat="42.498522000" lon="-2.432999000">
        <ele>423.20</ele>
        <time>2016-10-15T09:06:03Z</time>
      </trkpt>
      <trkpt lat="42.498521000" lon="-2.433000000">
        <ele>423.30</ele>
        <time>2016-10-15T09:06:04Z</time>
      </trkpt>
      <trkpt lat="42.498520000" lon="-2.433001000">
        <ele>423.40</ele>
        <time>2016-10-15T09:06:05Z</time>
      </trkpt>
      <trkpt lat="42.498519000" lon="-2.433002000">
        <ele>423.30</ele>
        <time>2016-10-15T09:06:06Z</time>
      </trkpt>
      <trkpt lat="42.498519000" lon="-2.433002000">
        <ele>423.20</ele>
        <time>2016-10-15T09:06:07Z</time>
      </trkpt>
      <trkpt lat="42.498518000" lon="-2.433002000">
        <ele>423.20</ele>
        <time>2016-10-15T09:06:09Z</time>
      </trkpt>
      <trkpt lat="42.498518000" lon="-2.433002000">
        <ele>423.20</ele>
        <time>2016-10-15T09:06:10Z</time>
      </trkpt>
      <trkpt lat="42.498517000" lon="-2.433002000">
        <ele>423.30</ele>
        <time>2016-10-15T09:06:11Z</time>
      </trkpt>
      <trkpt lat="42.498517000" lon="-2.433002000">
        <ele>423.30</ele>
        <time>2016-10-15T09:06:12Z</time>
      </trkpt>
      <trkpt lat="42.498516000" lon="-2.433001000">
        <ele>423.30</ele>
        <time>2016-10-15T09:06:13Z</time>
      </trkpt>
      <trkpt lat="42.498516000" lon="-2.433001000">
        <ele>423.20</ele>
        <time>2016-10-15T09:06:14Z</time>
      </trkpt>
      <trkpt lat="42.498516000" lon="-2.433001000">
        <ele>423.10</ele>
        <time>2016-10-15T09:06:15Z</time>
      </trkpt>
      <trkpt lat="42.498516000" lon="-2.433001000">
        <ele>423.10</ele>
        <time>2016-10-15T09:06:16Z</time>
      </trkpt>
      <trkpt lat="42.498516000" lon="-2.432999000">
        <ele>423.00</ele>
        <time>2016-10-15T09:06:17Z</time>
      </trkpt>
      <trkpt lat="42.498517000" lon="-2.432998000">
        <ele>423.10</ele>
        <time>2016-10-15T09:06:18Z</time>
      </trkpt>
      <trkpt lat="42.498517000" lon="-2.432997000">
        <ele>423.10</ele>
        <time>2016-10-15T09:06:19Z</time>
      </trkpt>
      <trkpt lat="42.498518000" lon="-2.432997000">
        <ele>423.10</ele>
        <time>2016-10-15T09:06:20Z</time>
      </trkpt>
      <trkpt lat="42.498518000" lon="-2.432997000">
        <ele>423.10</ele>
        <time>2016-10-15T09:06:21Z</time>
      </trkpt>
      <trkpt lat="42.498517000" lon="-2.432997000">
        <ele>423.00</ele>
        <time>2016-10-15T09:06:22Z</time>
      </trkpt>
      <trkpt lat="42.498517000" lon="-2.432996000">
        <ele>422.90</ele>
        <time>2016-10-15T09:06:23Z</time>
      </trkpt>
      <trkpt lat="42.498517000" lon="-2.432997000">
        <ele>422.80</ele>
        <time>2016-10-15T09:06:24Z</time>
      </trkpt>
      <trkpt lat="42.498516000" lon="-2.432998000">
        <ele>422.80</ele>
        <time>2016-10-15T09:06:25Z</time>
      </trkpt>
      <trkpt lat="42.498512000" lon="-2.433000000">
        <ele>422.80</ele>
        <time>2016-10-15T09:06:26Z</time>
      </trkpt>
      <trkpt lat="42.498512000" lon="-2.432999000">
        <ele>422.70</ele>
        <time>2016-10-15T09:06:27Z</time>
      </trkpt>
      <trkpt lat="42.498512000" lon="-2.433000000">
        <ele>422.70</ele>
        <time>2016-10-15T09:06:28Z</time>
      </trkpt>
      <trkpt lat="42.498512000" lon="-2.433000000">
        <ele>422.70</ele>
        <time>2016-10-15T09:06:29Z</time>
      </trkpt>
      <trkpt lat="42.498512000" lon="-2.433001000">
        <ele>422.70</ele>
        <time>2016-10-15T09:06:30Z</time>
      </trkpt>
      <trkpt lat="42.498508000" lon="-2.432996000">
        <ele>422.70</ele>
        <time>2016-10-15T09:06:31Z</time>
      </trkpt>
      <trkpt lat="42.498509000" lon="-2.432996000">
        <ele>422.70</ele>
        <time>2016-10-15T09:06:32Z</time>
      </trkpt>
      <trkpt lat="42.498509000" lon="-2.432996000">
        <ele>422.70</ele>
        <time>2016-10-15T09:06:33Z</time>
      </trkpt>
      <trkpt lat="42.498510000" lon="-2.432996000">
        <ele>422.70</ele>
        <time>2016-10-15T09:06:34Z</time>
      </trkpt>
      <trkpt lat="42.498510000" lon="-2.432995000">
        <ele>422.70</ele>
        <time>2016-10-15T09:06:35Z</time>
      </trkpt>
      <trkpt lat="42.498511000" lon="-2.432995000">
        <ele>422.70</ele>
        <time>2016-10-15T09:06:36Z</time>
      </trkpt>
      <trkpt lat="42.498512000" lon="-2.432994000">
        <ele>422.70</ele>
        <time>2016-10-15T09:06:37Z</time>
      </trkpt>
      <trkpt lat="42.498513000" lon="-2.432993000">
        <ele>422.60</ele>
        <time>2016-10-15T09:06:38Z</time>
      </trkpt>
      <trkpt lat="42.498514000" lon="-2.432992000">
        <ele>422.50</ele>
        <time>2016-10-15T09:06:39Z</time>
      </trkpt>
      <trkpt lat="42.498515000" lon="-2.432991000">
        <ele>422.50</ele>
        <time>2016-10-15T09:06:40Z</time>
      </trkpt>
      <trkpt lat="42.498516000" lon="-2.432990000">
        <ele>422.40</ele>
        <time>2016-10-15T09:06:41Z</time>
      </trkpt>
      <trkpt lat="42.498517000" lon="-2.432989000">
        <ele>422.40</ele>
        <time>2016-10-15T09:06:42Z</time>
      </trkpt>
      <trkpt lat="42.498517000" lon="-2.432988000">
        <ele>422.50</ele>
        <time>2016-10-15T09:06:43Z</time>
      </trkpt>
      <trkpt lat="42.498517000" lon="-2.432987000">
        <ele>422.50</ele>
        <time>2016-10-15T09:06:44Z</time>
      </trkpt>
      <trkpt lat="42.498518000" lon="-2.432986000">
        <ele>422.50</ele>
        <time>2016-10-15T09:06:45Z</time>
      </trkpt>
      <trkpt lat="42.498518000" lon="-2.432986000">
        <ele>422.50</ele>
        <time>2016-10-15T09:06:46Z</time>
      </trkpt>
      <trkpt lat="42.498518000" lon="-2.432985000">
        <ele>422.50</ele>
        <time>2016-10-15T09:06:47Z</time>
      </trkpt>
      <trkpt lat="42.498518000" lon="-2.432984000">
        <ele>422.40</ele>
        <time>2016-10-15T09:06:48Z</time>
      </trkpt>
      <trkpt lat="42.498519000" lon="-2.432983000">
        <ele>422.30</ele>
        <time>2016-10-15T09:06:49Z</time>
      </trkpt>
      <trkpt lat="42.498519000" lon="-2.432982000">
        <ele>422.20</ele>
        <time>2016-10-15T09:06:50Z</time>
      </trkpt>
      <trkpt lat="42.498519000" lon="-2.432981000">
        <ele>422.20</ele>
        <time>2016-10-15T09:06:51Z</time>
      </trkpt>
      <trkpt lat="42.498519000" lon="-2.432980000">
        <ele>422.20</ele>
        <time>2016-10-15T09:06:52Z</time>
      </trkpt>
      <trkpt lat="42.498519000" lon="-2.432979000">
        <ele>422.30</ele>
        <time>2016-10-15T09:06:53Z</time>
      </trkpt>
      <trkpt lat="42.498519000" lon="-2.432978000">
        <ele>422.40</ele>
        <time>2016-10-15T09:06:54Z</time>
      </trkpt>
      <trkpt lat="42.498519000" lon="-2.432977000">
        <ele>422.50</ele>
        <time>2016-10-15T09:06:55Z</time>
      </trkpt>
      <trkpt lat="42.498519000" lon="-2.432977000">
        <ele>422.60</ele>
        <time>2016-10-15T09:06:56Z</time>
      </trkpt>
      <trkpt lat="42.498520000" lon="-2.432977000">
        <ele>422.70</ele>
        <time>2016-10-15T09:06:57Z</time>
      </trkpt>
      <trkpt lat="42.498520000" lon="-2.432977000">
        <ele>422.70</ele>
        <time>2016-10-15T09:06:58Z</time>
      </trkpt>
      <trkpt lat="42.498520000" lon="-2.432976000">
        <ele>422.80</ele>
        <time>2016-10-15T09:06:59Z</time>
      </trkpt>
      <trkpt lat="42.498520000" lon="-2.432976000">
        <ele>422.90</ele>
        <time>2016-10-15T09:07:00Z</time>
      </trkpt>
      <trkpt lat="42.498520000" lon="-2.432976000">
        <ele>422.90</ele>
        <time>2016-10-15T09:07:01Z</time>
      </trkpt>
      <trkpt lat="42.498520000" lon="-2.432976000">
        <ele>422.80</ele>
        <time>2016-10-15T09:07:02Z</time>
      </trkpt>
      <trkpt lat="42.498520000" lon="-2.432975000">
        <ele>422.60</ele>
        <time>2016-10-15T09:07:03Z</time>
      </trkpt>
      <trkpt lat="42.498520000" lon="-2.432975000">
        <ele>422.60</ele>
        <time>2016-10-15T09:07:04Z</time>
      </trkpt>
      <trkpt lat="42.498521000" lon="-2.432975000">
        <ele>422.70</ele>
        <time>2016-10-15T09:07:05Z</time>
      </trkpt>
      <trkpt lat="42.498520000" lon="-2.432974000">
        <ele>422.70</ele>
        <time>2016-10-15T09:07:06Z</time>
      </trkpt>
      <trkpt lat="42.498520000" lon="-2.432974000">
        <ele>422.70</ele>
        <time>2016-10-15T09:07:07Z</time>
      </trkpt>
      <trkpt lat="42.498520000" lon="-2.432974000">
        <ele>422.70</ele>
        <time>2016-10-15T09:07:08Z</time>
      </trkpt>
      <trkpt lat="42.498519000" lon="-2.432971000">
        <ele>422.60</ele>
        <time>2016-10-15T09:07:10Z</time>
      </trkpt>
      <trkpt lat="42.498519000" lon="-2.432971000">
        <ele>422.50</ele>
        <time>2016-10-15T09:07:11Z</time>
      </trkpt>
      <trkpt lat="42.498519000" lon="-2.432971000">
        <ele>422.40</ele>
        <time>2016-10-15T09:07:12Z</time>
      </trkpt>
      <trkpt lat="42.498519000" lon="-2.432970000">
        <ele>422.40</ele>
        <time>2016-10-15T09:07:13Z</time>
      </trkpt>
      <trkpt lat="42.498519000" lon="-2.432970000">
        <ele>422.30</ele>
        <time>2016-10-15T09:07:14Z</time>
      </trkpt>
      <trkpt lat="42.498519000" lon="-2.432970000">
        <ele>422.30</ele>
        <time>2016-10-15T09:07:15Z</time>
      </trkpt>
      <trkpt lat="42.498518000" lon="-2.432970000">
        <ele>422.30</ele>
        <time>2016-10-15T09:07:16Z</time>
      </trkpt>
      <trkpt lat="42.498518000" lon="-2.432969000">
        <ele>422.30</ele>
        <time>2016-10-15T09:07:17Z</time>
      </trkpt>
      <trkpt lat="42.498518000" lon="-2.432969000">
        <ele>422.40</ele>
        <time>2016-10-15T09:07:18Z</time>
      </trkpt>
      <trkpt lat="42.498517000" lon="-2.432969000">
        <ele>422.40</ele>
        <time>2016-10-15T09:07:19Z</time>
      </trkpt>
      <trkpt lat="42.498516000" lon="-2.432970000">
        <ele>422.40</ele>
        <time>2016-10-15T09:07:20Z</time>
      </trkpt>
      <trkpt lat="42.498516000" lon="-2.432970000">
        <ele>422.40</ele>
        <time>2016-10-15T09:07:21Z</time>
      </trkpt>
      <trkpt lat="42.498516000" lon="-2.432970000">
        <ele>422.40</ele>
        <time>2016-10-15T09:07:22Z</time>
      </trkpt>
      <trkpt lat="42.498515000" lon="-2.432970000">
        <ele>422.40</ele>
        <time>2016-10-15T09:07:23Z</time>
      </trkpt>
      <trkpt lat="42.498515000" lon="-2.432970000">
        <ele>422.30</ele>
        <time>2016-10-15T09:07:24Z</time>
      </trkpt>
      <trkpt lat="42.498515000" lon="-2.432970000">
        <ele>422.30</ele>
        <time>2016-10-15T09:07:25Z</time>
      </trkpt>
      <trkpt lat="42.498514000" lon="-2.432969000">
        <ele>422.30</ele>
        <time>2016-10-15T09:07:26Z</time>
      </trkpt>
      <trkpt lat="42.498514000" lon="-2.432969000">
        <ele>422.20</ele>
        <time>2016-10-15T09:07:27Z</time>
      </trkpt>
      <trkpt lat="42.498514000" lon="-2.432969000">
        <ele>422.20</ele>
        <time>2016-10-15T09:07:28Z</time>
      </trkpt>
      <trkpt lat="42.498513000" lon="-2.432969000">
        <ele>422.20</ele>
        <time>2016-10-15T09:07:29Z</time>
      </trkpt>
      <trkpt lat="42.498513000" lon="-2.432969000">
        <ele>422.20</ele>
        <time>2016-10-15T09:07:30Z</time>
      </trkpt>
      <trkpt lat="42.498513000" lon="-2.432969000">
        <ele>422.30</ele>
        <time>2016-10-15T09:07:31Z</time>
      </trkpt>
      <trkpt lat="42.498512000" lon="-2.432969000">
        <ele>422.40</ele>
        <time>2016-10-15T09:07:32Z</time>
      </trkpt>
      <trkpt lat="42.498511000" lon="-2.432969000">
        <ele>422.60</ele>
        <time>2016-10-15T09:07:33Z</time>
      </trkpt>
      <trkpt lat="42.498511000" lon="-2.432968000">
        <ele>422.70</ele>
        <time>2016-10-15T09:07:34Z</time>
      </trkpt>
      <trkpt lat="42.498511000" lon="-2.432968000">
        <ele>422.70</ele>
        <time>2016-10-15T09:07:35Z</time>
      </trkpt>
      <trkpt lat="42.498510000" lon="-2.432967000">
        <ele>422.60</ele>
        <time>2016-10-15T09:07:36Z</time>
      </trkpt>
      <trkpt lat="42.498510000" lon="-2.432967000">
        <ele>422.50</ele>
        <time>2016-10-15T09:07:37Z</time>
      </trkpt>
      <trkpt lat="42.498510000" lon="-2.432967000">
        <ele>422.40</ele>
        <time>2016-10-15T09:07:38Z</time>
      </trkpt>
      <trkpt lat="42.498510000" lon="-2.432966000">
        <ele>422.40</ele>
        <time>2016-10-15T09:07:39Z</time>
      </trkpt>
      <trkpt lat="42.498510000" lon="-2.432966000">
        <ele>422.30</ele>
        <time>2016-10-15T09:07:40Z</time>
      </trkpt>
      <trkpt lat="42.498510000" lon="-2.432966000">
        <ele>422.30</ele>
        <time>2016-10-15T09:07:41Z</time>
      </trkpt>
      <trkpt lat="42.498510000" lon="-2.432966000">
        <ele>422.30</ele>
        <time>2016-10-15T09:07:42Z</time>
      </trkpt>
      <trkpt lat="42.498510000" lon="-2.432966000">
        <ele>422.20</ele>
        <time>2016-10-15T09:07:43Z</time>
      </trkpt>
      <trkpt lat="42.498510000" lon="-2.432966000">
        <ele>422.30</ele>
        <time>2016-10-15T09:07:44Z</time>
      </trkpt>
      <trkpt lat="42.498509000" lon="-2.432967000">
        <ele>422.30</ele>
        <time>2016-10-15T09:07:45Z</time>
      </trkpt>
      <trkpt lat="42.498509000" lon="-2.432967000">
        <ele>422.30</ele>
        <time>2016-10-15T09:07:46Z</time>
      </trkpt>
      <trkpt lat="42.498510000" lon="-2.432968000">
        <ele>422.30</ele>
        <time>2016-10-15T09:07:47Z</time>
      </trkpt>
      <trkpt lat="42.498510000" lon="-2.432968000">
        <ele>422.30</ele>
        <time>2016-10-15T09:07:48Z</time>
      </trkpt>
      <trkpt lat="42.498510000" lon="-2.432968000">
        <ele>422.30</ele>
        <time>2016-10-15T09:07:49Z</time>
      </trkpt>
      <trkpt lat="42.498509000" lon="-2.432969000">
        <ele>422.30</ele>
        <time>2016-10-15T09:07:50Z</time>
      </trkpt>
      <trkpt lat="42.498508000" lon="-2.432969000">
        <ele>422.30</ele>
        <time>2016-10-15T09:07:51Z</time>
      </trkpt>
      <trkpt lat="42.498508000" lon="-2.432969000">
        <ele>422.40</ele>
        <time>2016-10-15T09:07:52Z</time>
      </trkpt>
      <trkpt lat="42.498507000" lon="-2.432970000">
        <ele>422.50</ele>
        <time>2016-10-15T09:07:53Z</time>
      </trkpt>
      <trkpt lat="42.498507000" lon="-2.432971000">
        <ele>422.60</ele>
        <time>2016-10-15T09:07:54Z</time>
      </trkpt>
      <trkpt lat="42.498506000" lon="-2.432971000">
        <ele>422.60</ele>
        <time>2016-10-15T09:07:55Z</time>
      </trkpt>
      <trkpt lat="42.498506000" lon="-2.432972000">
        <ele>422.60</ele>
        <time>2016-10-15T09:07:56Z</time>
      </trkpt>
      <trkpt lat="42.498505000" lon="-2.432972000">
        <ele>422.50</ele>
        <time>2016-10-15T09:07:57Z</time>
      </trkpt>
      <trkpt lat="42.498505000" lon="-2.432973000">
        <ele>422.50</ele>
        <time>2016-10-15T09:07:58Z</time>
      </trkpt>
      <trkpt lat="42.498505000" lon="-2.432973000">
        <ele>422.50</ele>
        <time>2016-10-15T09:07:59Z</time>
      </trkpt>
      <trkpt lat="42.498504000" lon="-2.432974000">
        <ele>422.40</ele>
        <time>2016-10-15T09:08:00Z</time>
      </trkpt>
      <trkpt lat="42.498503000" lon="-2.432975000">
        <ele>422.40</ele>
        <time>2016-10-15T09:08:01Z</time>
      </trkpt>
      <trkpt lat="42.498502000" lon="-2.432976000">
        <ele>422.40</ele>
        <time>2016-10-15T09:08:02Z</time>
      </trkpt>
      <trkpt lat="42.498502000" lon="-2.432977000">
        <ele>422.40</ele>
        <time>2016-10-15T09:08:03Z</time>
      </trkpt>
      <trkpt lat="42.498501000" lon="-2.432977000">
        <ele>422.40</ele>
        <time>2016-10-15T09:08:04Z</time>
      </trkpt>
      <trkpt lat="42.498500000" lon="-2.432977000">
        <ele>422.40</ele>
        <time>2016-10-15T09:08:05Z</time>
      </trkpt>
      <trkpt lat="42.498500000" lon="-2.432977000">
        <ele>422.30</ele>
        <time>2016-10-15T09:08:06Z</time>
      </trkpt>
      <trkpt lat="42.498499000" lon="-2.432977000">
        <ele>422.30</ele>
        <time>2016-10-15T09:08:07Z</time>
      </trkpt>
      <trkpt lat="42.498499000" lon="-2.432977000">
        <ele>422.30</ele>
        <time>2016-10-15T09:08:08Z</time>
      </trkpt>
      <trkpt lat="42.498498000" lon="-2.432978000">
        <ele>422.30</ele>
        <time>2016-10-15T09:08:09Z</time>
      </trkpt>
      <trkpt lat="42.498498000" lon="-2.432978000">
        <ele>422.20</ele>
        <time>2016-10-15T09:08:11Z</time>
      </trkpt>
      <trkpt lat="42.498498000" lon="-2.432978000">
        <ele>422.20</ele>
        <time>2016-10-15T09:08:12Z</time>
      </trkpt>
      <trkpt lat="42.498498000" lon="-2.432978000">
        <ele>422.20</ele>
        <time>2016-10-15T09:08:13Z</time>
      </trkpt>
      <trkpt lat="42.498497000" lon="-2.432979000">
        <ele>422.20</ele>
        <time>2016-10-15T09:08:14Z</time>
      </trkpt>
      <trkpt lat="42.498497000" lon="-2.432979000">
        <ele>422.20</ele>
        <time>2016-10-15T09:08:15Z</time>
      </trkpt>
      <trkpt lat="42.498496000" lon="-2.432980000">
        <ele>422.20</ele>
        <time>2016-10-15T09:08:16Z</time>
      </trkpt>
      <trkpt lat="42.498496000" lon="-2.432981000">
        <ele>422.20</ele>
        <time>2016-10-15T09:08:17Z</time>
      </trkpt>
      <trkpt lat="42.498496000" lon="-2.432981000">
        <ele>422.20</ele>
        <time>2016-10-15T09:08:18Z</time>
      </trkpt>
      <trkpt lat="42.498496000" lon="-2.432981000">
        <ele>422.20</ele>
        <time>2016-10-15T09:08:19Z</time>
      </trkpt>
      <trkpt lat="42.498496000" lon="-2.432982000">
        <ele>422.20</ele>
        <time>2016-10-15T09:08:20Z</time>
      </trkpt>
      <trkpt lat="42.498496000" lon="-2.432982000">
        <ele>422.20</ele>
        <time>2016-10-15T09:08:21Z</time>
      </trkpt>
      <trkpt lat="42.498495000" lon="-2.432982000">
        <ele>422.20</ele>
        <time>2016-10-15T09:08:22Z</time>
      </trkpt>
      <trkpt lat="42.498496000" lon="-2.432982000">
        <ele>422.30</ele>
        <time>2016-10-15T09:08:23Z</time>
      </trkpt>
      <trkpt lat="42.498495000" lon="-2.432983000">
        <ele>422.30</ele>
        <time>2016-10-15T09:08:24Z</time>
      </trkpt>
      <trkpt lat="42.498495000" lon="-2.432983000">
        <ele>422.30</ele>
        <time>2016-10-15T09:08:25Z</time>
      </trkpt>
      <trkpt lat="42.498495000" lon="-2.432983000">
        <ele>422.40</ele>
        <time>2016-10-15T09:08:26Z</time>
      </trkpt>
      <trkpt lat="42.498495000" lon="-2.432984000">
        <ele>422.50</ele>
        <time>2016-10-15T09:08:27Z</time>
      </trkpt>
      <trkpt lat="42.498495000" lon="-2.432984000">
        <ele>422.60</ele>
        <time>2016-10-15T09:08:28Z</time>
      </trkpt>
      <trkpt lat="42.498495000" lon="-2.432984000">
        <ele>422.60</ele>
        <time>2016-10-15T09:08:29Z</time>
      </trkpt>
      <trkpt lat="42.498495000" lon="-2.432983000">
        <ele>422.60</ele>
        <time>2016-10-15T09:08:30Z</time>
      </trkpt>
      <trkpt lat="42.498494000" lon="-2.432983000">
        <ele>422.50</ele>
        <time>2016-10-15T09:08:31Z</time>
      </trkpt>
      <trkpt lat="42.498494000" lon="-2.432983000">
        <ele>422.50</ele>
        <time>2016-10-15T09:08:32Z</time>
      </trkpt>
      <trkpt lat="42.498495000" lon="-2.432984000">
        <ele>422.40</ele>
        <time>2016-10-15T09:08:33Z</time>
      </trkpt>
      <trkpt lat="42.498495000" lon="-2.432984000">
        <ele>422.40</ele>
        <time>2016-10-15T09:08:34Z</time>
      </trkpt>
      <trkpt lat="42.498494000" lon="-2.432984000">
        <ele>422.30</ele>
        <time>2016-10-15T09:08:35Z</time>
      </trkpt>
      <trkpt lat="42.498494000" lon="-2.432984000">
        <ele>422.30</ele>
        <time>2016-10-15T09:08:36Z</time>
      </trkpt>
      <trkpt lat="42.498494000" lon="-2.432984000">
        <ele>422.20</ele>
        <time>2016-10-15T09:08:37Z</time>
      </trkpt>
      <trkpt lat="42.498494000" lon="-2.432985000">
        <ele>422.20</ele>
        <time>2016-10-15T09:08:38Z</time>
      </trkpt>
      <trkpt lat="42.498494000" lon="-2.432985000">
        <ele>422.20</ele>
        <time>2016-10-15T09:08:39Z</time>
      </trkpt>
      <trkpt lat="42.498493000" lon="-2.432986000">
        <ele>422.10</ele>
        <time>2016-10-15T09:08:40Z</time>
      </trkpt>
      <trkpt lat="42.498493000" lon="-2.432986000">
        <ele>422.00</ele>
        <time>2016-10-15T09:08:41Z</time>
      </trkpt>
      <trkpt lat="42.498493000" lon="-2.432987000">
        <ele>422.10</ele>
        <time>2016-10-15T09:08:42Z</time>
      </trkpt>
      <trkpt lat="42.498493000" lon="-2.432987000">
        <ele>422.20</ele>
        <time>2016-10-15T09:08:43Z</time>
      </trkpt>
      <trkpt lat="42.498492000" lon="-2.432987000">
        <ele>422.10</ele>
        <time>2016-10-15T09:08:44Z</time>
      </trkpt>
      <trkpt lat="42.498492000" lon="-2.432987000">
        <ele>422.10</ele>
        <time>2016-10-15T09:08:45Z</time>
      </trkpt>
      <trkpt lat="42.498492000" lon="-2.432986000">
        <ele>422.00</ele>
        <time>2016-10-15T09:08:46Z</time>
      </trkpt>
      <trkpt lat="42.498492000" lon="-2.432986000">
        <ele>422.00</ele>
        <time>2016-10-15T09:08:47Z</time>
      </trkpt>
      <trkpt lat="42.498492000" lon="-2.432986000">
        <ele>422.00</ele>
        <time>2016-10-15T09:08:48Z</time>
      </trkpt>
      <trkpt lat="42.498491000" lon="-2.432986000">
        <ele>422.00</ele>
        <time>2016-10-15T09:08:49Z</time>
      </trkpt>
      <trkpt lat="42.498491000" lon="-2.432986000">
        <ele>422.00</ele>
        <time>2016-10-15T09:08:50Z</time>
      </trkpt>
      <trkpt lat="42.498491000" lon="-2.432986000">
        <ele>422.00</ele>
        <time>2016-10-15T09:08:51Z</time>
      </trkpt>
      <trkpt lat="42.498491000" lon="-2.432986000">
        <ele>422.10</ele>
        <time>2016-10-15T09:08:52Z</time>
      </trkpt>
      <trkpt lat="42.498491000" lon="-2.432986000">
        <ele>422.20</ele>
        <time>2016-10-15T09:08:53Z</time>
      </trkpt>
      <trkpt lat="42.498492000" lon="-2.432986000">
        <ele>422.20</ele>
        <time>2016-10-15T09:08:54Z</time>
      </trkpt>
      <trkpt lat="42.498492000" lon="-2.432985000">
        <ele>422.30</ele>
        <time>2016-10-15T09:08:55Z</time>
      </trkpt>
      <trkpt lat="42.498492000" lon="-2.432985000">
        <ele>422.50</ele>
        <time>2016-10-15T09:08:56Z</time>
      </trkpt>
      <trkpt lat="42.498492000" lon="-2.432985000">
        <ele>422.60</ele>
        <time>2016-10-15T09:08:57Z</time>
      </trkpt>
      <trkpt lat="42.498493000" lon="-2.432984000">
        <ele>422.70</ele>
        <time>2016-10-15T09:08:58Z</time>
      </trkpt>
      <trkpt lat="42.498493000" lon="-2.432984000">
        <ele>422.80</ele>
        <time>2016-10-15T09:08:59Z</time>
      </trkpt>
      <trkpt lat="42.498494000" lon="-2.432983000">
        <ele>422.70</ele>
        <time>2016-10-15T09:09:00Z</time>
      </trkpt>
      <trkpt lat="42.498494000" lon="-2.432982000">
        <ele>422.70</ele>
        <time>2016-10-15T09:09:01Z</time>
      </trkpt>
      <trkpt lat="42.498494000" lon="-2.432981000">
        <ele>422.60</ele>
        <time>2016-10-15T09:09:02Z</time>
      </trkpt>
      <trkpt lat="42.498494000" lon="-2.432980000">
        <ele>422.50</ele>
        <time>2016-10-15T09:09:03Z</time>
      </trkpt>
      <trkpt lat="42.498494000" lon="-2.432980000">
        <ele>422.50</ele>
        <time>2016-10-15T09:09:04Z</time>
      </trkpt>
      <trkpt lat="42.498494000" lon="-2.432980000">
        <ele>422.40</ele>
        <time>2016-10-15T09:09:05Z</time>
      </trkpt>
      <trkpt lat="42.498494000" lon="-2.432980000">
        <ele>422.40</ele>
        <time>2016-10-15T09:09:06Z</time>
      </trkpt>
      <trkpt lat="42.498494000" lon="-2.432980000">
        <ele>422.40</ele>
        <time>2016-10-15T09:09:07Z</time>
      </trkpt>
      <trkpt lat="42.498495000" lon="-2.432980000">
        <ele>422.30</ele>
        <time>2016-10-15T09:09:08Z</time>
      </trkpt>
      <trkpt lat="42.498495000" lon="-2.432980000">
        <ele>422.30</ele>
        <time>2016-10-15T09:09:09Z</time>
      </trkpt>
      <trkpt lat="42.498495000" lon="-2.432980000">
        <ele>422.40</ele>
        <time>2016-10-15T09:09:10Z</time>
      </trkpt>
      <trkpt lat="42.498494000" lon="-2.432979000">
        <ele>422.50</ele>
        <time>2016-10-15T09:09:12Z</time>
      </trkpt>
      <trkpt lat="42.498495000" lon="-2.432979000">
        <ele>422.50</ele>
        <time>2016-10-15T09:09:13Z</time>
      </trkpt>
      <trkpt lat="42.498495000" lon="-2.432980000">
        <ele>422.60</ele>
        <time>2016-10-15T09:09:14Z</time>
      </trkpt>
      <trkpt lat="42.498494000" lon="-2.432980000">
        <ele>422.60</ele>
        <time>2016-10-15T09:09:15Z</time>
      </trkpt>
      <trkpt lat="42.498494000" lon="-2.432981000">
        <ele>422.50</ele>
        <time>2016-10-15T09:09:16Z</time>
      </trkpt>
      <trkpt lat="42.498493000" lon="-2.432981000">
        <ele>422.50</ele>
        <time>2016-10-15T09:09:17Z</time>
      </trkpt>
      <trkpt lat="42.498493000" lon="-2.432981000">
        <ele>422.60</ele>
        <time>2016-10-15T09:09:18Z</time>
      </trkpt>
      <trkpt lat="42.498491000" lon="-2.432981000">
        <ele>422.70</ele>
        <time>2016-10-15T09:09:19Z</time>
      </trkpt>
      <trkpt lat="42.498491000" lon="-2.432981000">
        <ele>422.60</ele>
        <time>2016-10-15T09:09:20Z</time>
      </trkpt>
      <trkpt lat="42.498490000" lon="-2.432981000">
        <ele>422.50</ele>
        <time>2016-10-15T09:09:21Z</time>
      </trkpt>
      <trkpt lat="42.498490000" lon="-2.432982000">
        <ele>422.50</ele>
        <time>2016-10-15T09:09:22Z</time>
      </trkpt>
      <trkpt lat="42.498490000" lon="-2.432982000">
        <ele>422.50</ele>
        <time>2016-10-15T09:09:23Z</time>
      </trkpt>
      <trkpt lat="42.498489000" lon="-2.432983000">
        <ele>422.40</ele>
        <time>2016-10-15T09:09:24Z</time>
      </trkpt>
      <trkpt lat="42.498489000" lon="-2.432983000">
        <ele>422.30</ele>
        <time>2016-10-15T09:09:25Z</time>
      </trkpt>
      <trkpt lat="42.498489000" lon="-2.432983000">
        <ele>422.30</ele>
        <time>2016-10-15T09:09:26Z</time>
      </trkpt>
      <trkpt lat="42.498489000" lon="-2.432983000">
        <ele>422.30</ele>
        <time>2016-10-15T09:09:27Z</time>
      </trkpt>
      <trkpt lat="42.498489000" lon="-2.432983000">
        <ele>422.30</ele>
        <time>2016-10-15T09:09:28Z</time>
      </trkpt>
      <trkpt lat="42.498489000" lon="-2.432983000">
        <ele>422.20</ele>
        <time>2016-10-15T09:09:29Z</time>
      </trkpt>
      <trkpt lat="42.498489000" lon="-2.432983000">
        <ele>422.20</ele>
        <time>2016-10-15T09:09:30Z</time>
      </trkpt>
      <trkpt lat="42.498489000" lon="-2.432984000">
        <ele>422.20</ele>
        <time>2016-10-15T09:09:31Z</time>
      </trkpt>
      <trkpt lat="42.498489000" lon="-2.432984000">
        <ele>422.20</ele>
        <time>2016-10-15T09:09:32Z</time>
      </trkpt>
      <trkpt lat="42.498489000" lon="-2.432984000">
        <ele>422.20</ele>
        <time>2016-10-15T09:09:33Z</time>
      </trkpt>
      <trkpt lat="42.498489000" lon="-2.432984000">
        <ele>422.30</ele>
        <time>2016-10-15T09:09:34Z</time>
      </trkpt>
      <trkpt lat="42.498489000" lon="-2.432985000">
        <ele>422.40</ele>
        <time>2016-10-15T09:09:35Z</time>
      </trkpt>
      <trkpt lat="42.498489000" lon="-2.432985000">
        <ele>422.40</ele>
        <time>2016-10-15T09:09:36Z</time>
      </trkpt>
      <trkpt lat="42.498489000" lon="-2.432985000">
        <ele>422.30</ele>
        <time>2016-10-15T09:09:37Z</time>
      </trkpt>
      <trkpt lat="42.498489000" lon="-2.432985000">
        <ele>422.40</ele>
        <time>2016-10-15T09:09:38Z</time>
      </trkpt>
      <trkpt lat="42.498488000" lon="-2.432985000">
        <ele>422.40</ele>
        <time>2016-10-15T09:09:39Z</time>
      </trkpt>
      <trkpt lat="42.498489000" lon="-2.432986000">
        <ele>422.30</ele>
        <time>2016-10-15T09:09:40Z</time>
      </trkpt>
      <trkpt lat="42.498489000" lon="-2.432986000">
        <ele>422.10</ele>
        <time>2016-10-15T09:09:41Z</time>
      </trkpt>
      <trkpt lat="42.498489000" lon="-2.432985000">
        <ele>422.00</ele>
        <time>2016-10-15T09:09:42Z</time>
      </trkpt>
      <trkpt lat="42.498489000" lon="-2.432985000">
        <ele>422.00</ele>
        <time>2016-10-15T09:09:43Z</time>
      </trkpt>
      <trkpt lat="42.498490000" lon="-2.432985000">
        <ele>421.90</ele>
        <time>2016-10-15T09:09:44Z</time>
      </trkpt>
      <trkpt lat="42.498490000" lon="-2.432984000">
        <ele>421.80</ele>
        <time>2016-10-15T09:09:45Z</time>
      </trkpt>
      <trkpt lat="42.498491000" lon="-2.432983000">
        <ele>421.80</ele>
        <time>2016-10-15T09:09:46Z</time>
      </trkpt>
      <trkpt lat="42.498491000" lon="-2.432983000">
        <ele>421.80</ele>
        <time>2016-10-15T09:09:47Z</time>
      </trkpt>
      <trkpt lat="42.498491000" lon="-2.432982000">
        <ele>421.70</ele>
        <time>2016-10-15T09:09:48Z</time>
      </trkpt>
      <trkpt lat="42.498492000" lon="-2.432982000">
        <ele>421.60</ele>
        <time>2016-10-15T09:09:49Z</time>
      </trkpt>
      <trkpt lat="42.498492000" lon="-2.432981000">
        <ele>421.70</ele>
        <time>2016-10-15T09:09:50Z</time>
      </trkpt>
      <trkpt lat="42.498493000" lon="-2.432981000">
        <ele>421.80</ele>
        <time>2016-10-15T09:09:51Z</time>
      </trkpt>
      <trkpt lat="42.498493000" lon="-2.432981000">
        <ele>421.90</ele>
        <time>2016-10-15T09:09:52Z</time>
      </trkpt>
      <trkpt lat="42.498493000" lon="-2.432981000">
        <ele>421.90</ele>
        <time>2016-10-15T09:09:53Z</time>
      </trkpt>
      <trkpt lat="42.498493000" lon="-2.432981000">
        <ele>422.00</ele>
        <time>2016-10-15T09:09:54Z</time>
      </trkpt>
      <trkpt lat="42.498493000" lon="-2.432981000">
        <ele>422.10</ele>
        <time>2016-10-15T09:09:55Z</time>
      </trkpt>
      <trkpt lat="42.498494000" lon="-2.432981000">
        <ele>422.20</ele>
        <time>2016-10-15T09:09:56Z</time>
      </trkpt>
      <trkpt lat="42.498494000" lon="-2.432981000">
        <ele>422.20</ele>
        <time>2016-10-15T09:09:57Z</time>
      </trkpt>
      <trkpt lat="42.498494000" lon="-2.432981000">
        <ele>422.20</ele>
        <time>2016-10-15T09:09:58Z</time>
      </trkpt>
      <trkpt lat="42.498494000" lon="-2.432981000">
        <ele>422.20</ele>
        <time>2016-10-15T09:09:59Z</time>
      </trkpt>
      <trkpt lat="42.498494000" lon="-2.432981000">
        <ele>422.10</ele>
        <time>2016-10-15T09:10:00Z</time>
      </trkpt>
      <trkpt lat="42.498494000" lon="-2.432981000">
        <ele>422.00</ele>
        <time>2016-10-15T09:10:01Z</time>
      </trkpt>
      <trkpt lat="42.498494000" lon="-2.432981000">
        <ele>422.00</ele>
        <time>2016-10-15T09:10:02Z</time>
      </trkpt>
      <trkpt lat="42.498494000" lon="-2.432982000">
        <ele>422.00</ele>
        <time>2016-10-15T09:10:03Z</time>
      </trkpt>
      <trkpt lat="42.498494000" lon="-2.432982000">
        <ele>422.10</ele>
        <time>2016-10-15T09:10:04Z</time>
      </trkpt>
      <trkpt lat="42.498494000" lon="-2.432982000">
        <ele>422.30</ele>
        <time>2016-10-15T09:10:05Z</time>
      </trkpt>
      <trkpt lat="42.498493000" lon="-2.432981000">
        <ele>422.40</ele>
        <time>2016-10-15T09:10:06Z</time>
      </trkpt>
      <trkpt lat="42.498493000" lon="-2.432981000">
        <ele>422.50</ele>
        <time>2016-10-15T09:10:07Z</time>
      </trkpt>
      <trkpt lat="42.498492000" lon="-2.432981000">
        <ele>422.50</ele>
        <time>2016-10-15T09:10:08Z</time>
      </trkpt>
      <trkpt lat="42.498492000" lon="-2.432980000">
        <ele>422.50</ele>
        <time>2016-10-15T09:10:09Z</time>
      </trkpt>
      <trkpt lat="42.498492000" lon="-2.432981000">
        <ele>422.40</ele>
        <time>2016-10-15T09:10:10Z</time>
      </trkpt>
      <trkpt lat="42.498491000" lon="-2.432981000">
        <ele>422.30</ele>
        <time>2016-10-15T09:10:11Z</time>
      </trkpt>
      <trkpt lat="42.498490000" lon="-2.432982000">
        <ele>422.30</ele>
        <time>2016-10-15T09:10:13Z</time>
      </trkpt>
      <trkpt lat="42.498490000" lon="-2.432982000">
        <ele>422.30</ele>
        <time>2016-10-15T09:10:14Z</time>
      </trkpt>
      <trkpt lat="42.498490000" lon="-2.432983000">
        <ele>422.20</ele>
        <time>2016-10-15T09:10:15Z</time>
      </trkpt>
      <trkpt lat="42.498489000" lon="-2.432983000">
        <ele>422.20</ele>
        <time>2016-10-15T09:10:16Z</time>
      </trkpt>
      <trkpt lat="42.498489000" lon="-2.432983000">
        <ele>422.20</ele>
        <time>2016-10-15T09:10:17Z</time>
      </trkpt>
      <trkpt lat="42.498489000" lon="-2.432983000">
        <ele>422.10</ele>
        <time>2016-10-15T09:10:18Z</time>
      </trkpt>
      <trkpt lat="42.498489000" lon="-2.432983000">
        <ele>422.10</ele>
        <time>2016-10-15T09:10:19Z</time>
      </trkpt>
      <trkpt lat="42.498489000" lon="-2.432983000">
        <ele>421.90</ele>
        <time>2016-10-15T09:10:20Z</time>
      </trkpt>
      <trkpt lat="42.498489000" lon="-2.432983000">
        <ele>421.80</ele>
        <time>2016-10-15T09:10:21Z</time>
      </trkpt>
      <trkpt lat="42.498489000" lon="-2.432983000">
        <ele>421.80</ele>
        <time>2016-10-15T09:10:22Z</time>
      </trkpt>
      <trkpt lat="42.498489000" lon="-2.432983000">
        <ele>421.90</ele>
        <time>2016-10-15T09:10:23Z</time>
      </trkpt>
      <trkpt lat="42.498489000" lon="-2.432983000">
        <ele>422.00</ele>
        <time>2016-10-15T09:10:24Z</time>
      </trkpt>
      <trkpt lat="42.498488000" lon="-2.432983000">
        <ele>422.00</ele>
        <time>2016-10-15T09:10:25Z</time>
      </trkpt>
      <trkpt lat="42.498488000" lon="-2.432983000">
        <ele>422.20</ele>
        <time>2016-10-15T09:10:26Z</time>
      </trkpt>
      <trkpt lat="42.498488000" lon="-2.432983000">
        <ele>422.30</ele>
        <time>2016-10-15T09:10:27Z</time>
      </trkpt>
      <trkpt lat="42.498488000" lon="-2.432983000">
        <ele>422.30</ele>
        <time>2016-10-15T09:10:28Z</time>
      </trkpt>
      <trkpt lat="42.498488000" lon="-2.432983000">
        <ele>422.40</ele>
        <time>2016-10-15T09:10:29Z</time>
      </trkpt>
      <trkpt lat="42.498488000" lon="-2.432983000">
        <ele>422.40</ele>
        <time>2016-10-15T09:10:30Z</time>
      </trkpt>
      <trkpt lat="42.498489000" lon="-2.432983000">
        <ele>422.50</ele>
        <time>2016-10-15T09:10:31Z</time>
      </trkpt>
      <trkpt lat="42.498489000" lon="-2.432983000">
        <ele>422.30</ele>
        <time>2016-10-15T09:10:32Z</time>
      </trkpt>
      <trkpt lat="42.498489000" lon="-2.432982000">
        <ele>422.30</ele>
        <time>2016-10-15T09:10:33Z</time>
      </trkpt>
      <trkpt lat="42.498489000" lon="-2.432982000">
        <ele>422.20</ele>
        <time>2016-10-15T09:10:34Z</time>
      </trkpt>
      <trkpt lat="42.498490000" lon="-2.432981000">
        <ele>422.20</ele>
        <time>2016-10-15T09:10:35Z</time>
      </trkpt>
      <trkpt lat="42.498490000" lon="-2.432981000">
        <ele>422.10</ele>
        <time>2016-10-15T09:10:36Z</time>
      </trkpt>
      <trkpt lat="42.498491000" lon="-2.432981000">
        <ele>422.10</ele>
        <time>2016-10-15T09:10:37Z</time>
      </trkpt>
      <trkpt lat="42.498491000" lon="-2.432980000">
        <ele>422.00</ele>
        <time>2016-10-15T09:10:38Z</time>
      </trkpt>
      <trkpt lat="42.498491000" lon="-2.432980000">
        <ele>422.00</ele>
        <time>2016-10-15T09:10:39Z</time>
      </trkpt>
      <trkpt lat="42.498491000" lon="-2.432980000">
        <ele>422.00</ele>
        <time>2016-10-15T09:10:40Z</time>
      </trkpt>
      <trkpt lat="42.498491000" lon="-2.432980000">
        <ele>421.90</ele>
        <time>2016-10-15T09:10:41Z</time>
      </trkpt>
      <trkpt lat="42.498492000" lon="-2.432979000">
        <ele>422.00</ele>
        <time>2016-10-15T09:10:42Z</time>
      </trkpt>
      <trkpt lat="42.498492000" lon="-2.432979000">
        <ele>422.10</ele>
        <time>2016-10-15T09:10:43Z</time>
      </trkpt>
      <trkpt lat="42.498492000" lon="-2.432979000">
        <ele>422.20</ele>
        <time>2016-10-15T09:10:44Z</time>
      </trkpt>
      <trkpt lat="42.498492000" lon="-2.432978000">
        <ele>422.30</ele>
        <time>2016-10-15T09:10:45Z</time>
      </trkpt>
      <trkpt lat="42.498493000" lon="-2.432978000">
        <ele>422.40</ele>
        <time>2016-10-15T09:10:46Z</time>
      </trkpt>
      <trkpt lat="42.498493000" lon="-2.432978000">
        <ele>422.50</ele>
        <time>2016-10-15T09:10:47Z</time>
      </trkpt>
      <trkpt lat="42.498493000" lon="-2.432978000">
        <ele>422.50</ele>
        <time>2016-10-15T09:10:48Z</time>
      </trkpt>
      <trkpt lat="42.498494000" lon="-2.432978000">
        <ele>422.50</ele>
        <time>2016-10-15T09:10:49Z</time>
      </trkpt>
      <trkpt lat="42.498494000" lon="-2.432978000">
        <ele>422.60</ele>
        <time>2016-10-15T09:10:50Z</time>
      </trkpt>
      <trkpt lat="42.498494000" lon="-2.432978000">
        <ele>422.60</ele>
        <time>2016-10-15T09:10:51Z</time>
      </trkpt>
      <trkpt lat="42.498494000" lon="-2.432978000">
        <ele>422.50</ele>
        <time>2016-10-15T09:10:52Z</time>
      </trkpt>
      <trkpt lat="42.498494000" lon="-2.432979000">
        <ele>422.50</ele>
        <time>2016-10-15T09:10:53Z</time>
      </trkpt>
      <trkpt lat="42.498494000" lon="-2.432979000">
        <ele>422.50</ele>
        <time>2016-10-15T09:10:54Z</time>
      </trkpt>
      <trkpt lat="42.498495000" lon="-2.432979000">
        <ele>422.40</ele>
        <time>2016-10-15T09:10:55Z</time>
      </trkpt>
      <trkpt lat="42.498495000" lon="-2.432979000">
        <ele>422.40</ele>
        <time>2016-10-15T09:10:56Z</time>
      </trkpt>
      <trkpt lat="42.498495000" lon="-2.432979000">
        <ele>422.40</ele>
        <time>2016-10-15T09:10:57Z</time>
      </trkpt>
      <trkpt lat="42.498495000" lon="-2.432980000">
        <ele>422.40</ele>
        <time>2016-10-15T09:10:58Z</time>
      </trkpt>
      <trkpt lat="42.498495000" lon="-2.432980000">
        <ele>422.40</ele>
        <time>2016-10-15T09:10:59Z</time>
      </trkpt>
      <trkpt lat="42.498495000" lon="-2.432981000">
        <ele>422.40</ele>
        <time>2016-10-15T09:11:00Z</time>
      </trkpt>
      <trkpt lat="42.498495000" lon="-2.432981000">
        <ele>422.40</ele>
        <time>2016-10-15T09:11:01Z</time>
      </trkpt>
      <trkpt lat="42.498495000" lon="-2.432980000">
        <ele>422.40</ele>
        <time>2016-10-15T09:11:02Z</time>
      </trkpt>
      <trkpt lat="42.498495000" lon="-2.432980000">
        <ele>422.50</ele>
        <time>2016-10-15T09:11:03Z</time>
      </trkpt>
      <trkpt lat="42.498495000" lon="-2.432980000">
        <ele>422.50</ele>
        <time>2016-10-15T09:11:04Z</time>
      </trkpt>
      <trkpt lat="42.498495000" lon="-2.432980000">
        <ele>422.50</ele>
        <time>2016-10-15T09:11:05Z</time>
      </trkpt>
      <trkpt lat="42.498495000" lon="-2.432980000">
        <ele>422.40</ele>
        <time>2016-10-15T09:11:06Z</time>
      </trkpt>
      <trkpt lat="42.498495000" lon="-2.432979000">
        <ele>422.30</ele>
        <time>2016-10-15T09:11:07Z</time>
      </trkpt>
      <trkpt lat="42.498494000" lon="-2.432979000">
        <ele>422.30</ele>
        <time>2016-10-15T09:11:08Z</time>
      </trkpt>
      <trkpt lat="42.498494000" lon="-2.432979000">
        <ele>422.30</ele>
        <time>2016-10-15T09:11:09Z</time>
      </trkpt>
      <trkpt lat="42.498494000" lon="-2.432979000">
        <ele>422.30</ele>
        <time>2016-10-15T09:11:10Z</time>
      </trkpt>
      <trkpt lat="42.498494000" lon="-2.432979000">
        <ele>422.20</ele>
        <time>2016-10-15T09:11:11Z</time>
      </trkpt>
      <trkpt lat="42.498493000" lon="-2.432979000">
        <ele>422.20</ele>
        <time>2016-10-15T09:11:12Z</time>
      </trkpt>
      <trkpt lat="42.498493000" lon="-2.432979000">
        <ele>422.20</ele>
        <time>2016-10-15T09:11:14Z</time>
      </trkpt>
      <trkpt lat="42.498493000" lon="-2.432979000">
        <ele>422.20</ele>
        <time>2016-10-15T09:11:15Z</time>
      </trkpt>
      <trkpt lat="42.498493000" lon="-2.432979000">
        <ele>422.30</ele>
        <time>2016-10-15T09:11:16Z</time>
      </trkpt>
      <trkpt lat="42.498493000" lon="-2.432980000">
        <ele>422.40</ele>
        <time>2016-10-15T09:11:17Z</time>
      </trkpt>
      <trkpt lat="42.498493000" lon="-2.432980000">
        <ele>422.40</ele>
        <time>2016-10-15T09:11:18Z</time>
      </trkpt>
      <trkpt lat="42.498493000" lon="-2.432980000">
        <ele>422.40</ele>
        <time>2016-10-15T09:11:19Z</time>
      </trkpt>
      <trkpt lat="42.498493000" lon="-2.432980000">
        <ele>422.50</ele>
        <time>2016-10-15T09:11:20Z</time>
      </trkpt>
      <trkpt lat="42.498493000" lon="-2.432980000">
        <ele>422.50</ele>
        <time>2016-10-15T09:11:21Z</time>
      </trkpt>
      <trkpt lat="42.498493000" lon="-2.432980000">
        <ele>422.40</ele>
        <time>2016-10-15T09:11:22Z</time>
      </trkpt>
      <trkpt lat="42.498494000" lon="-2.432980000">
        <ele>422.40</ele>
        <time>2016-10-15T09:11:23Z</time>
      </trkpt>
      <trkpt lat="42.498494000" lon="-2.432980000">
        <ele>422.30</ele>
        <time>2016-10-15T09:11:24Z</time>
      </trkpt>
      <trkpt lat="42.498495000" lon="-2.432981000">
        <ele>422.20</ele>
        <time>2016-10-15T09:11:25Z</time>
      </trkpt>
      <trkpt lat="42.498495000" lon="-2.432982000">
        <ele>422.20</ele>
        <time>2016-10-15T09:11:26Z</time>
      </trkpt>
      <trkpt lat="42.498496000" lon="-2.432983000">
        <ele>422.10</ele>
        <time>2016-10-15T09:11:27Z</time>
      </trkpt>
      <trkpt lat="42.498496000" lon="-2.432983000">
        <ele>422.10</ele>
        <time>2016-10-15T09:11:28Z</time>
      </trkpt>
      <trkpt lat="42.498496000" lon="-2.432983000">
        <ele>422.10</ele>
        <time>2016-10-15T09:11:29Z</time>
      </trkpt>
      <trkpt lat="42.498497000" lon="-2.432983000">
        <ele>422.10</ele>
        <time>2016-10-15T09:11:30Z</time>
      </trkpt>
      <trkpt lat="42.498498000" lon="-2.432983000">
        <ele>422.10</ele>
        <time>2016-10-15T09:11:31Z</time>
      </trkpt>
      <trkpt lat="42.498498000" lon="-2.432983000">
        <ele>422.10</ele>
        <time>2016-10-15T09:11:32Z</time>
      </trkpt>
      <trkpt lat="42.498499000" lon="-2.432983000">
        <ele>422.10</ele>
        <time>2016-10-15T09:11:33Z</time>
      </trkpt>
      <trkpt lat="42.498499000" lon="-2.432983000">
        <ele>422.00</ele>
        <time>2016-10-15T09:11:34Z</time>
      </trkpt>
      <trkpt lat="42.498500000" lon="-2.432983000">
        <ele>422.00</ele>
        <time>2016-10-15T09:11:35Z</time>
      </trkpt>
      <trkpt lat="42.498501000" lon="-2.432983000">
        <ele>422.00</ele>
        <time>2016-10-15T09:11:36Z</time>
      </trkpt>
      <trkpt lat="42.498501000" lon="-2.432983000">
        <ele>421.90</ele>
        <time>2016-10-15T09:11:37Z</time>
      </trkpt>
      <trkpt lat="42.498502000" lon="-2.432983000">
        <ele>421.90</ele>
        <time>2016-10-15T09:11:38Z</time>
      </trkpt>
      <trkpt lat="42.498503000" lon="-2.432983000">
        <ele>421.90</ele>
        <time>2016-10-15T09:11:39Z</time>
      </trkpt>
      <trkpt lat="42.498503000" lon="-2.432982000">
        <ele>422.00</ele>
        <time>2016-10-15T09:11:40Z</time>
      </trkpt>
      <trkpt lat="42.498504000" lon="-2.432982000">
        <ele>422.10</ele>
        <time>2016-10-15T09:11:41Z</time>
      </trkpt>
      <trkpt lat="42.498504000" lon="-2.432982000">
        <ele>422.20</ele>
        <time>2016-10-15T09:11:42Z</time>
      </trkpt>
      <trkpt lat="42.498505000" lon="-2.432982000">
        <ele>422.20</ele>
        <time>2016-10-15T09:11:43Z</time>
      </trkpt>
      <trkpt lat="42.498505000" lon="-2.432982000">
        <ele>422.30</ele>
        <time>2016-10-15T09:11:44Z</time>
      </trkpt>
      <trkpt lat="42.498505000" lon="-2.432982000">
        <ele>422.30</ele>
        <time>2016-10-15T09:11:45Z</time>
      </trkpt>
      <trkpt lat="42.498505000" lon="-2.432981000">
        <ele>422.30</ele>
        <time>2016-10-15T09:11:46Z</time>
      </trkpt>
      <trkpt lat="42.498506000" lon="-2.432981000">
        <ele>422.20</ele>
        <time>2016-10-15T09:11:47Z</time>
      </trkpt>
      <trkpt lat="42.498505000" lon="-2.432981000">
        <ele>422.20</ele>
        <time>2016-10-15T09:11:48Z</time>
      </trkpt>
      <trkpt lat="42.498505000" lon="-2.432981000">
        <ele>422.20</ele>
        <time>2016-10-15T09:11:49Z</time>
      </trkpt>
      <trkpt lat="42.498506000" lon="-2.432981000">
        <ele>422.20</ele>
        <time>2016-10-15T09:11:50Z</time>
      </trkpt>
      <trkpt lat="42.498506000" lon="-2.432982000">
        <ele>422.20</ele>
        <time>2016-10-15T09:11:51Z</time>
      </trkpt>
      <trkpt lat="42.498505000" lon="-2.432982000">
        <ele>422.20</ele>
        <time>2016-10-15T09:11:52Z</time>
      </trkpt>
      <trkpt lat="42.498505000" lon="-2.432982000">
        <ele>422.20</ele>
        <time>2016-10-15T09:11:53Z</time>
      </trkpt>
      <trkpt lat="42.498505000" lon="-2.432982000">
        <ele>422.10</ele>
        <time>2016-10-15T09:11:54Z</time>
      </trkpt>
      <trkpt lat="42.498506000" lon="-2.432982000">
        <ele>422.10</ele>
        <time>2016-10-15T09:11:55Z</time>
      </trkpt>
      <trkpt lat="42.498505000" lon="-2.432983000">
        <ele>422.20</ele>
        <time>2016-10-15T09:11:56Z</time>
      </trkpt>
      <trkpt lat="42.498505000" lon="-2.432983000">
        <ele>422.40</ele>
        <time>2016-10-15T09:11:57Z</time>
      </trkpt>
      <trkpt lat="42.498505000" lon="-2.432983000">
        <ele>422.50</ele>
        <time>2016-10-15T09:11:58Z</time>
      </trkpt>
      <trkpt lat="42.498505000" lon="-2.432984000">
        <ele>422.60</ele>
        <time>2016-10-15T09:11:59Z</time>
      </trkpt>
      <trkpt lat="42.498505000" lon="-2.432985000">
        <ele>422.70</ele>
        <time>2016-10-15T09:12:00Z</time>
      </trkpt>
      <trkpt lat="42.498505000" lon="-2.432985000">
        <ele>422.80</ele>
        <time>2016-10-15T09:12:01Z</time>
      </trkpt>
      <trkpt lat="42.498505000" lon="-2.432986000">
        <ele>422.80</ele>
        <time>2016-10-15T09:12:02Z</time>
      </trkpt>
      <trkpt lat="42.498505000" lon="-2.432986000">
        <ele>422.70</ele>
        <time>2016-10-15T09:12:03Z</time>
      </trkpt>
      <trkpt lat="42.498505000" lon="-2.432986000">
        <ele>422.70</ele>
        <time>2016-10-15T09:12:04Z</time>
      </trkpt>
      <trkpt lat="42.498505000" lon="-2.432986000">
        <ele>422.70</ele>
        <time>2016-10-15T09:12:05Z</time>
      </trkpt>
      <trkpt lat="42.498505000" lon="-2.432986000">
        <ele>422.70</ele>
        <time>2016-10-15T09:12:06Z</time>
      </trkpt>
      <trkpt lat="42.498504000" lon="-2.432985000">
        <ele>422.70</ele>
        <time>2016-10-15T09:12:07Z</time>
      </trkpt>
      <trkpt lat="42.498504000" lon="-2.432985000">
        <ele>422.70</ele>
        <time>2016-10-15T09:12:08Z</time>
      </trkpt>
      <trkpt lat="42.498504000" lon="-2.432985000">
        <ele>422.60</ele>
        <time>2016-10-15T09:12:09Z</time>
      </trkpt>
      <trkpt lat="42.498503000" lon="-2.432984000">
        <ele>422.60</ele>
        <time>2016-10-15T09:12:10Z</time>
      </trkpt>
      <trkpt lat="42.498503000" lon="-2.432984000">
        <ele>422.60</ele>
        <time>2016-10-15T09:12:11Z</time>
      </trkpt>
      <trkpt lat="42.498503000" lon="-2.432984000">
        <ele>422.60</ele>
        <time>2016-10-15T09:12:12Z</time>
      </trkpt>
      <trkpt lat="42.498502000" lon="-2.432984000">
        <ele>422.60</ele>
        <time>2016-10-15T09:12:13Z</time>
      </trkpt>
      <trkpt lat="42.498502000" lon="-2.432984000">
        <ele>422.60</ele>
        <time>2016-10-15T09:12:15Z</time>
      </trkpt>
      <trkpt lat="42.498501000" lon="-2.432984000">
        <ele>422.50</ele>
        <time>2016-10-15T09:12:16Z</time>
      </trkpt>
      <trkpt lat="42.498501000" lon="-2.432984000">
        <ele>422.40</ele>
        <time>2016-10-15T09:12:17Z</time>
      </trkpt>
      <trkpt lat="42.498500000" lon="-2.432983000">
        <ele>422.40</ele>
        <time>2016-10-15T09:12:18Z</time>
      </trkpt>
      <trkpt lat="42.498500000" lon="-2.432984000">
        <ele>422.40</ele>
        <time>2016-10-15T09:12:19Z</time>
      </trkpt>
      <trkpt lat="42.498499000" lon="-2.432984000">
        <ele>422.40</ele>
        <time>2016-10-15T09:12:20Z</time>
      </trkpt>
      <trkpt lat="42.498499000" lon="-2.432983000">
        <ele>422.40</ele>
        <time>2016-10-15T09:12:21Z</time>
      </trkpt>
      <trkpt lat="42.498499000" lon="-2.432983000">
        <ele>422.40</ele>
        <time>2016-10-15T09:12:22Z</time>
      </trkpt>
      <trkpt lat="42.498499000" lon="-2.432983000">
        <ele>422.50</ele>
        <time>2016-10-15T09:12:23Z</time>
      </trkpt>
      <trkpt lat="42.498499000" lon="-2.432983000">
        <ele>422.50</ele>
        <time>2016-10-15T09:12:24Z</time>
      </trkpt>
      <trkpt lat="42.498499000" lon="-2.432982000">
        <ele>422.60</ele>
        <time>2016-10-15T09:12:25Z</time>
      </trkpt>
      <trkpt lat="42.498499000" lon="-2.432982000">
        <ele>422.60</ele>
        <time>2016-10-15T09:12:26Z</time>
      </trkpt>
      <trkpt lat="42.498498000" lon="-2.432981000">
        <ele>422.60</ele>
        <time>2016-10-15T09:12:27Z</time>
      </trkpt>
      <trkpt lat="42.498499000" lon="-2.432981000">
        <ele>422.70</ele>
        <time>2016-10-15T09:12:28Z</time>
      </trkpt>
      <trkpt lat="42.498499000" lon="-2.432980000">
        <ele>422.70</ele>
        <time>2016-10-15T09:12:29Z</time>
      </trkpt>
      <trkpt lat="42.498498000" lon="-2.432980000">
        <ele>422.70</ele>
        <time>2016-10-15T09:12:30Z</time>
      </trkpt>
      <trkpt lat="42.498498000" lon="-2.432980000">
        <ele>422.70</ele>
        <time>2016-10-15T09:12:31Z</time>
      </trkpt>
      <trkpt lat="42.498498000" lon="-2.432979000">
        <ele>422.70</ele>
        <time>2016-10-15T09:12:32Z</time>
      </trkpt>
      <trkpt lat="42.498498000" lon="-2.432979000">
        <ele>422.70</ele>
        <time>2016-10-15T09:12:33Z</time>
      </trkpt>
      <trkpt lat="42.498497000" lon="-2.432978000">
        <ele>422.60</ele>
        <time>2016-10-15T09:12:34Z</time>
      </trkpt>
      <trkpt lat="42.498497000" lon="-2.432978000">
        <ele>422.60</ele>
        <time>2016-10-15T09:12:35Z</time>
      </trkpt>
      <trkpt lat="42.498497000" lon="-2.432977000">
        <ele>422.60</ele>
        <time>2016-10-15T09:12:36Z</time>
      </trkpt>
      <trkpt lat="42.498497000" lon="-2.432977000">
        <ele>422.60</ele>
        <time>2016-10-15T09:12:37Z</time>
      </trkpt>
      <trkpt lat="42.498497000" lon="-2.432977000">
        <ele>422.70</ele>
        <time>2016-10-15T09:12:38Z</time>
      </trkpt>
      <trkpt lat="42.498496000" lon="-2.432977000">
        <ele>422.70</ele>
        <time>2016-10-15T09:12:39Z</time>
      </trkpt>
      <trkpt lat="42.498496000" lon="-2.432977000">
        <ele>422.70</ele>
        <time>2016-10-15T09:12:40Z</time>
      </trkpt>
      <trkpt lat="42.498496000" lon="-2.432977000">
        <ele>422.70</ele>
        <time>2016-10-15T09:12:41Z</time>
      </trkpt>
      <trkpt lat="42.498496000" lon="-2.432976000">
        <ele>422.70</ele>
        <time>2016-10-15T09:12:42Z</time>
      </trkpt>
      <trkpt lat="42.498496000" lon="-2.432976000">
        <ele>422.70</ele>
        <time>2016-10-15T09:12:43Z</time>
      </trkpt>
      <trkpt lat="42.498496000" lon="-2.432976000">
        <ele>422.60</ele>
        <time>2016-10-15T09:12:44Z</time>
      </trkpt>
      <trkpt lat="42.498496000" lon="-2.432976000">
        <ele>422.60</ele>
        <time>2016-10-15T09:12:45Z</time>
      </trkpt>
      <trkpt lat="42.498496000" lon="-2.432976000">
        <ele>422.60</ele>
        <time>2016-10-15T09:12:46Z</time>
      </trkpt>
      <trkpt lat="42.498496000" lon="-2.432975000">
        <ele>422.50</ele>
        <time>2016-10-15T09:12:47Z</time>
      </trkpt>
      <trkpt lat="42.498497000" lon="-2.432975000">
        <ele>422.50</ele>
        <time>2016-10-15T09:12:48Z</time>
      </trkpt>
      <trkpt lat="42.498497000" lon="-2.432975000">
        <ele>422.50</ele>
        <time>2016-10-15T09:12:49Z</time>
      </trkpt>
      <trkpt lat="42.498497000" lon="-2.432974000">
        <ele>422.60</ele>
        <time>2016-10-15T09:12:50Z</time>
      </trkpt>
      <trkpt lat="42.498497000" lon="-2.432974000">
        <ele>422.70</ele>
        <time>2016-10-15T09:12:51Z</time>
      </trkpt>
      <trkpt lat="42.498497000" lon="-2.432973000">
        <ele>422.80</ele>
        <time>2016-10-15T09:12:52Z</time>
      </trkpt>
      <trkpt lat="42.498497000" lon="-2.432972000">
        <ele>422.80</ele>
        <time>2016-10-15T09:12:53Z</time>
      </trkpt>
      <trkpt lat="42.498497000" lon="-2.432970000">
        <ele>422.90</ele>
        <time>2016-10-15T09:12:54Z</time>
      </trkpt>
      <trkpt lat="42.498499000" lon="-2.432969000">
        <ele>423.00</ele>
        <time>2016-10-15T09:12:55Z</time>
      </trkpt>
      <trkpt lat="42.498500000" lon="-2.432968000">
        <ele>422.90</ele>
        <time>2016-10-15T09:12:56Z</time>
      </trkpt>
      <trkpt lat="42.498501000" lon="-2.432967000">
        <ele>422.80</ele>
        <time>2016-10-15T09:12:57Z</time>
      </trkpt>
      <trkpt lat="42.498502000" lon="-2.432967000">
        <ele>422.70</ele>
        <time>2016-10-15T09:12:58Z</time>
      </trkpt>
      <trkpt lat="42.498503000" lon="-2.432966000">
        <ele>422.70</ele>
        <time>2016-10-15T09:12:59Z</time>
      </trkpt>
      <trkpt lat="42.498504000" lon="-2.432966000">
        <ele>422.60</ele>
        <time>2016-10-15T09:13:00Z</time>
      </trkpt>
      <trkpt lat="42.498505000" lon="-2.432966000">
        <ele>422.60</ele>
        <time>2016-10-15T09:13:01Z</time>
      </trkpt>
      <trkpt lat="42.498506000" lon="-2.432966000">
        <ele>422.60</ele>
        <time>2016-10-15T09:13:02Z</time>
      </trkpt>
      <trkpt lat="42.498507000" lon="-2.432966000">
        <ele>422.60</ele>
        <time>2016-10-15T09:13:03Z</time>
      </trkpt>
      <trkpt lat="42.498508000" lon="-2.432965000">
        <ele>422.60</ele>
        <time>2016-10-15T09:13:04Z</time>
      </trkpt>
      <trkpt lat="42.498509000" lon="-2.432965000">
        <ele>422.70</ele>
        <time>2016-10-15T09:13:05Z</time>
      </trkpt>
      <trkpt lat="42.498509000" lon="-2.432965000">
        <ele>422.70</ele>
        <time>2016-10-15T09:13:06Z</time>
      </trkpt>
      <trkpt lat="42.498509000" lon="-2.432965000">
        <ele>422.70</ele>
        <time>2016-10-15T09:13:07Z</time>
      </trkpt>
      <trkpt lat="42.498509000" lon="-2.432965000">
        <ele>422.70</ele>
        <time>2016-10-15T09:13:08Z</time>
      </trkpt>
      <trkpt lat="42.498509000" lon="-2.432965000">
        <ele>422.80</ele>
        <time>2016-10-15T09:13:09Z</time>
      </trkpt>
      <trkpt lat="42.498509000" lon="-2.432965000">
        <ele>422.70</ele>
        <time>2016-10-15T09:13:10Z</time>
      </trkpt>
      <trkpt lat="42.498509000" lon="-2.432965000">
        <ele>422.70</ele>
        <time>2016-10-15T09:13:11Z</time>
      </trkpt>
      <trkpt lat="42.498509000" lon="-2.432966000">
        <ele>422.60</ele>
        <time>2016-10-15T09:13:12Z</time>
      </trkpt>
      <trkpt lat="42.498509000" lon="-2.432966000">
        <ele>422.50</ele>
        <time>2016-10-15T09:13:13Z</time>
      </trkpt>
      <trkpt lat="42.498508000" lon="-2.432966000">
        <ele>422.40</ele>
        <time>2016-10-15T09:13:14Z</time>
      </trkpt>
      <trkpt lat="42.498508000" lon="-2.432966000">
        <ele>422.40</ele>
        <time>2016-10-15T09:13:16Z</time>
      </trkpt>
      <trkpt lat="42.498507000" lon="-2.432966000">
        <ele>422.30</ele>
        <time>2016-10-15T09:13:17Z</time>
      </trkpt>
      <trkpt lat="42.498507000" lon="-2.432966000">
        <ele>422.40</ele>
        <time>2016-10-15T09:13:18Z</time>
      </trkpt>
      <trkpt lat="42.498506000" lon="-2.432966000">
        <ele>422.40</ele>
        <time>2016-10-15T09:13:19Z</time>
      </trkpt>
      <trkpt lat="42.498506000" lon="-2.432967000">
        <ele>422.40</ele>
        <time>2016-10-15T09:13:20Z</time>
      </trkpt>
      <trkpt lat="42.498505000" lon="-2.432967000">
        <ele>422.50</ele>
        <time>2016-10-15T09:13:21Z</time>
      </trkpt>
      <trkpt lat="42.498504000" lon="-2.432968000">
        <ele>422.60</ele>
        <time>2016-10-15T09:13:22Z</time>
      </trkpt>
      <trkpt lat="42.498504000" lon="-2.432969000">
        <ele>422.70</ele>
        <time>2016-10-15T09:13:23Z</time>
      </trkpt>
      <trkpt lat="42.498503000" lon="-2.432969000">
        <ele>422.70</ele>
        <time>2016-10-15T09:13:24Z</time>
      </trkpt>
      <trkpt lat="42.498502000" lon="-2.432969000">
        <ele>422.80</ele>
        <time>2016-10-15T09:13:25Z</time>
      </trkpt>
      <trkpt lat="42.498501000" lon="-2.432970000">
        <ele>422.70</ele>
        <time>2016-10-15T09:13:26Z</time>
      </trkpt>
      <trkpt lat="42.498501000" lon="-2.432971000">
        <ele>422.70</ele>
        <time>2016-10-15T09:13:27Z</time>
      </trkpt>
      <trkpt lat="42.498500000" lon="-2.432971000">
        <ele>422.60</ele>
        <time>2016-10-15T09:13:28Z</time>
      </trkpt>
      <trkpt lat="42.498499000" lon="-2.432971000">
        <ele>422.60</ele>
        <time>2016-10-15T09:13:29Z</time>
      </trkpt>
      <trkpt lat="42.498498000" lon="-2.432971000">
        <ele>422.50</ele>
        <time>2016-10-15T09:13:30Z</time>
      </trkpt>
      <trkpt lat="42.498497000" lon="-2.432972000">
        <ele>422.50</ele>
        <time>2016-10-15T09:13:31Z</time>
      </trkpt>
      <trkpt lat="42.498496000" lon="-2.432972000">
        <ele>422.60</ele>
        <time>2016-10-15T09:13:32Z</time>
      </trkpt>
      <trkpt lat="42.498496000" lon="-2.432972000">
        <ele>422.70</ele>
        <time>2016-10-15T09:13:33Z</time>
      </trkpt>
      <trkpt lat="42.498495000" lon="-2.432972000">
        <ele>422.70</ele>
        <time>2016-10-15T09:13:34Z</time>
      </trkpt>
      <trkpt lat="42.498494000" lon="-2.432972000">
        <ele>422.80</ele>
        <time>2016-10-15T09:13:35Z</time>
      </trkpt>
      <trkpt lat="42.498494000" lon="-2.432971000">
        <ele>422.70</ele>
        <time>2016-10-15T09:13:36Z</time>
      </trkpt>
      <trkpt lat="42.498493000" lon="-2.432971000">
        <ele>422.70</ele>
        <time>2016-10-15T09:13:37Z</time>
      </trkpt>
      <trkpt lat="42.498493000" lon="-2.432971000">
        <ele>422.70</ele>
        <time>2016-10-15T09:13:38Z</time>
      </trkpt>
      <trkpt lat="42.498492000" lon="-2.432971000">
        <ele>422.60</ele>
        <time>2016-10-15T09:13:39Z</time>
      </trkpt>
      <trkpt lat="42.498492000" lon="-2.432971000">
        <ele>422.60</ele>
        <time>2016-10-15T09:13:40Z</time>
      </trkpt>
      <trkpt lat="42.498492000" lon="-2.432970000">
        <ele>422.50</ele>
        <time>2016-10-15T09:13:41Z</time>
      </trkpt>
      <trkpt lat="42.498492000" lon="-2.432970000">
        <ele>422.50</ele>
        <time>2016-10-15T09:13:42Z</time>
      </trkpt>
      <trkpt lat="42.498492000" lon="-2.432969000">
        <ele>422.50</ele>
        <time>2016-10-15T09:13:43Z</time>
      </trkpt>
      <trkpt lat="42.498492000" lon="-2.432969000">
        <ele>422.50</ele>
        <time>2016-10-15T09:13:44Z</time>
      </trkpt>
      <trkpt lat="42.498491000" lon="-2.432969000">
        <ele>422.50</ele>
        <time>2016-10-15T09:13:45Z</time>
      </trkpt>
      <trkpt lat="42.498491000" lon="-2.432969000">
        <ele>422.50</ele>
        <time>2016-10-15T09:13:46Z</time>
      </trkpt>
      <trkpt lat="42.498491000" lon="-2.432968000">
        <ele>422.50</ele>
        <time>2016-10-15T09:13:47Z</time>
      </trkpt>
      <trkpt lat="42.498491000" lon="-2.432968000">
        <ele>422.50</ele>
        <time>2016-10-15T09:13:48Z</time>
      </trkpt>
      <trkpt lat="42.498491000" lon="-2.432968000">
        <ele>422.60</ele>
        <time>2016-10-15T09:13:49Z</time>
      </trkpt>
      <trkpt lat="42.498490000" lon="-2.432968000">
        <ele>422.70</ele>
        <time>2016-10-15T09:13:50Z</time>
      </trkpt>
      <trkpt lat="42.498490000" lon="-2.432967000">
        <ele>422.70</ele>
        <time>2016-10-15T09:13:51Z</time>
      </trkpt>
      <trkpt lat="42.498490000" lon="-2.432967000">
        <ele>422.80</ele>
        <time>2016-10-15T09:13:52Z</time>
      </trkpt>
      <trkpt lat="42.498490000" lon="-2.432966000">
        <ele>422.80</ele>
        <time>2016-10-15T09:13:53Z</time>
      </trkpt>
      <trkpt lat="42.498490000" lon="-2.432966000">
        <ele>422.90</ele>
        <time>2016-10-15T09:13:54Z</time>
      </trkpt>
      <trkpt lat="42.498490000" lon="-2.432965000">
        <ele>422.90</ele>
        <time>2016-10-15T09:13:55Z</time>
      </trkpt>
      <trkpt lat="42.498490000" lon="-2.432965000">
        <ele>422.90</ele>
        <time>2016-10-15T09:13:56Z</time>
      </trkpt>
      <trkpt lat="42.498491000" lon="-2.432965000">
        <ele>422.80</ele>
        <time>2016-10-15T09:13:57Z</time>
      </trkpt>
      <trkpt lat="42.498491000" lon="-2.432965000">
        <ele>422.80</ele>
        <time>2016-10-15T09:13:58Z</time>
      </trkpt>
      <trkpt lat="42.498491000" lon="-2.432965000">
        <ele>422.80</ele>
        <time>2016-10-15T09:13:59Z</time>
      </trkpt>
      <trkpt lat="42.498491000" lon="-2.432965000">
        <ele>422.80</ele>
        <time>2016-10-15T09:14:00Z</time>
      </trkpt>
      <trkpt lat="42.498491000" lon="-2.432965000">
        <ele>422.90</ele>
        <time>2016-10-15T09:14:01Z</time>
      </trkpt>
      <trkpt lat="42.498491000" lon="-2.432966000">
        <ele>422.90</ele>
        <time>2016-10-15T09:14:02Z</time>
      </trkpt>
      <trkpt lat="42.498491000" lon="-2.432966000">
        <ele>423.00</ele>
        <time>2016-10-15T09:14:03Z</time>
      </trkpt>
      <trkpt lat="42.498491000" lon="-2.432967000">
        <ele>422.90</ele>
        <time>2016-10-15T09:14:04Z</time>
      </trkpt>
      <trkpt lat="42.498490000" lon="-2.432967000">
        <ele>422.90</ele>
        <time>2016-10-15T09:14:05Z</time>
      </trkpt>
      <trkpt lat="42.498490000" lon="-2.432968000">
        <ele>422.70</ele>
        <time>2016-10-15T09:14:06Z</time>
      </trkpt>
      <trkpt lat="42.498490000" lon="-2.432968000">
        <ele>422.60</ele>
        <time>2016-10-15T09:14:07Z</time>
      </trkpt>
      <trkpt lat="42.498490000" lon="-2.432968000">
        <ele>422.50</ele>
        <time>2016-10-15T09:14:08Z</time>
      </trkpt>
      <trkpt lat="42.498490000" lon="-2.432969000">
        <ele>422.50</ele>
        <time>2016-10-15T09:14:09Z</time>
      </trkpt>
      <trkpt lat="42.498490000" lon="-2.432969000">
        <ele>422.40</ele>
        <time>2016-10-15T09:14:10Z</time>
      </trkpt>
      <trkpt lat="42.498489000" lon="-2.432969000">
        <ele>422.40</ele>
        <time>2016-10-15T09:14:11Z</time>
      </trkpt>
      <trkpt lat="42.498489000" lon="-2.432969000">
        <ele>422.40</ele>
        <time>2016-10-15T09:14:12Z</time>
      </trkpt>
      <trkpt lat="42.498489000" lon="-2.432970000">
        <ele>422.30</ele>
        <time>2016-10-15T09:14:13Z</time>
      </trkpt>
      <trkpt lat="42.498488000" lon="-2.432970000">
        <ele>422.30</ele>
        <time>2016-10-15T09:14:14Z</time>
      </trkpt>
      <trkpt lat="42.498489000" lon="-2.432972000">
        <ele>422.30</ele>
        <time>2016-10-15T09:14:15Z</time>
      </trkpt>
      <trkpt lat="42.498492000" lon="-2.432977000">
        <ele>422.40</ele>
        <time>2016-10-15T09:14:17Z</time>
      </trkpt>
      <trkpt lat="42.498492000" lon="-2.432972000">
        <ele>422.40</ele>
        <time>2016-10-15T09:14:18Z</time>
      </trkpt>
      <trkpt lat="42.498493000" lon="-2.432974000">
        <ele>422.50</ele>
        <time>2016-10-15T09:14:19Z</time>
      </trkpt>
      <trkpt lat="42.498493000" lon="-2.432973000">
        <ele>422.50</ele>
        <time>2016-10-15T09:14:20Z</time>
      </trkpt>
      <trkpt lat="42.498493000" lon="-2.432971000">
        <ele>422.50</ele>
        <time>2016-10-15T09:14:21Z</time>
      </trkpt>
      <trkpt lat="42.498491000" lon="-2.432967000">
        <ele>422.50</ele>
        <time>2016-10-15T09:14:22Z</time>
      </trkpt>
      <trkpt lat="42.498492000" lon="-2.432966000">
        <ele>422.50</ele>
        <time>2016-10-15T09:14:23Z</time>
      </trkpt>
      <trkpt lat="42.498493000" lon="-2.432966000">
        <ele>422.50</ele>
        <time>2016-10-15T09:14:24Z</time>
      </trkpt>
      <trkpt lat="42.498494000" lon="-2.432967000">
        <ele>422.50</ele>
        <time>2016-10-15T09:14:25Z</time>
      </trkpt>
      <trkpt lat="42.498495000" lon="-2.432968000">
        <ele>422.60</ele>
        <time>2016-10-15T09:14:26Z</time>
      </trkpt>
      <trkpt lat="42.498495000" lon="-2.432969000">
        <ele>422.60</ele>
        <time>2016-10-15T09:14:27Z</time>
      </trkpt>
      <trkpt lat="42.498495000" lon="-2.432968000">
        <ele>422.80</ele>
        <time>2016-10-15T09:14:28Z</time>
      </trkpt>
      <trkpt lat="42.498495000" lon="-2.432968000">
        <ele>423.00</ele>
        <time>2016-10-15T09:14:29Z</time>
      </trkpt>
      <trkpt lat="42.498496000" lon="-2.432967000">
        <ele>423.20</ele>
        <time>2016-10-15T09:14:30Z</time>
      </trkpt>
      <trkpt lat="42.498494000" lon="-2.432964000">
        <ele>423.30</ele>
        <time>2016-10-15T09:14:31Z</time>
      </trkpt>
      <trkpt lat="42.498491000" lon="-2.432962000">
        <ele>423.40</ele>
        <time>2016-10-15T09:14:32Z</time>
      </trkpt>
      <trkpt lat="42.498481000" lon="-2.432954000">
        <ele>423.50</ele>
        <time>2016-10-15T09:14:33Z</time>
      </trkpt>
      <trkpt lat="42.498465000" lon="-2.432938000">
        <ele>423.50</ele>
        <time>2016-10-15T09:14:34Z</time>
      </trkpt>
      <trkpt lat="42.498450000" lon="-2.432933000">
        <ele>423.60</ele>
        <time>2016-10-15T09:14:35Z</time>
      </trkpt>
      <trkpt lat="42.498428000" lon="-2.432923000">
        <ele>423.50</ele>
        <time>2016-10-15T09:14:36Z</time>
      </trkpt>
      <trkpt lat="42.498407000" lon="-2.432913000">
        <ele>423.50</ele>
        <time>2016-10-15T09:14:37Z</time>
      </trkpt>
      <trkpt lat="42.498381000" lon="-2.432910000">
        <ele>423.50</ele>
        <time>2016-10-15T09:14:38Z</time>
      </trkpt>
      <trkpt lat="42.498354000" lon="-2.432907000">
        <ele>423.60</ele>
        <time>2016-10-15T09:14:39Z</time>
      </trkpt>
      <trkpt lat="42.498325000" lon="-2.432906000">
        <ele>423.50</ele>
        <time>2016-10-15T09:14:40Z</time>
      </trkpt>
      <trkpt lat="42.498296000" lon="-2.432903000">
        <ele>423.40</ele>
        <time>2016-10-15T09:14:41Z</time>
      </trkpt>
      <trkpt lat="42.498264000" lon="-2.432902000">
        <ele>423.40</ele>
        <time>2016-10-15T09:14:42Z</time>
      </trkpt>
      <trkpt lat="42.498232000" lon="-2.432904000">
        <ele>423.40</ele>
        <time>2016-10-15T09:14:43Z</time>
      </trkpt>
      <trkpt lat="42.498202000" lon="-2.432907000">
        <ele>423.30</ele>
        <time>2016-10-15T09:14:44Z</time>
      </trkpt>
      <trkpt lat="42.498167000" lon="-2.432906000">
        <ele>423.30</ele>
        <time>2016-10-15T09:14:45Z</time>
      </trkpt>
      <trkpt lat="42.498132000" lon="-2.432907000">
        <ele>423.20</ele>
        <time>2016-10-15T09:14:46Z</time>
      </trkpt>
      <trkpt lat="42.498094000" lon="-2.432907000">
        <ele>423.10</ele>
        <time>2016-10-15T09:14:47Z</time>
      </trkpt>
      <trkpt lat="42.498054000" lon="-2.432906000">
        <ele>423.10</ele>
        <time>2016-10-15T09:14:48Z</time>
      </trkpt>
      <trkpt lat="42.498012000" lon="-2.432902000">
        <ele>423.00</ele>
        <time>2016-10-15T09:14:49Z</time>
      </trkpt>
      <trkpt lat="42.497969000" lon="-2.432897000">
        <ele>422.90</ele>
        <time>2016-10-15T09:14:50Z</time>
      </trkpt>
      <trkpt lat="42.497924000" lon="-2.432895000">
        <ele>422.70</ele>
        <time>2016-10-15T09:14:51Z</time>
      </trkpt>
      <trkpt lat="42.497879000" lon="-2.432891000">
        <ele>422.60</ele>
        <time>2016-10-15T09:14:52Z</time>
      </trkpt>
      <trkpt lat="42.497831000" lon="-2.432893000">
        <ele>422.60</ele>
        <time>2016-10-15T09:14:53Z</time>
      </trkpt>
      <trkpt lat="42.497782000" lon="-2.432894000">
        <ele>422.20</ele>
        <time>2016-10-15T09:14:54Z</time>
      </trkpt>
      <trkpt lat="42.497731000" lon="-2.432892000">
        <ele>421.90</ele>
        <time>2016-10-15T09:14:55Z</time>
      </trkpt>
      <trkpt lat="42.497679000" lon="-2.432891000">
        <ele>421.70</ele>
        <time>2016-10-15T09:14:56Z</time>
      </trkpt>
      <trkpt lat="42.497623000" lon="-2.432894000">
        <ele>421.50</ele>
        <time>2016-10-15T09:14:57Z</time>
      </trkpt>
      <trkpt lat="42.497567000" lon="-2.432898000">
        <ele>421.40</ele>
        <time>2016-10-15T09:14:58Z</time>
      </trkpt>
      <trkpt lat="42.497508000" lon="-2.432903000">
        <ele>421.20</ele>
        <time>2016-10-15T09:14:59Z</time>
      </trkpt>
      <trkpt lat="42.497447000" lon="-2.432910000">
        <ele>421.10</ele>
        <time>2016-10-15T09:15:00Z</time>
      </trkpt>
      <trkpt lat="42.497384000" lon="-2.432919000">
        <ele>420.90</ele>
        <time>2016-10-15T09:15:01Z</time>
      </trkpt>
      <trkpt lat="42.497322000" lon="-2.432930000">
        <ele>420.60</ele>
        <time>2016-10-15T09:15:02Z</time>
      </trkpt>
      <trkpt lat="42.497258000" lon="-2.432941000">
        <ele>420.30</ele>
        <time>2016-10-15T09:15:03Z</time>
      </trkpt>
      <trkpt lat="42.497196000" lon="-2.432952000">
        <ele>420.00</ele>
        <time>2016-10-15T09:15:04Z</time>
      </trkpt>
      <trkpt lat="42.497133000" lon="-2.432962000">
        <ele>419.70</ele>
        <time>2016-10-15T09:15:05Z</time>
      </trkpt>
      <trkpt lat="42.497069000" lon="-2.432970000">
        <ele>419.60</ele>
        <time>2016-10-15T09:15:06Z</time>
      </trkpt>
      <trkpt lat="42.497011000" lon="-2.432978000">
        <ele>419.50</ele>
        <time>2016-10-15T09:15:07Z</time>
      </trkpt>
      <trkpt lat="42.496949000" lon="-2.432986000">
        <ele>419.30</ele>
        <time>2016-10-15T09:15:08Z</time>
      </trkpt>
      <trkpt lat="42.496888000" lon="-2.432997000">
        <ele>419.20</ele>
        <time>2016-10-15T09:15:09Z</time>
      </trkpt>
      <trkpt lat="42.496827000" lon="-2.432998000">
        <ele>419.10</ele>
        <time>2016-10-15T09:15:10Z</time>
      </trkpt>
      <trkpt lat="42.496765000" lon="-2.433000000">
        <ele>419.00</ele>
        <time>2016-10-15T09:15:11Z</time>
      </trkpt>
      <trkpt lat="42.496704000" lon="-2.433001000">
        <ele>418.90</ele>
        <time>2016-10-15T09:15:12Z</time>
      </trkpt>
      <trkpt lat="42.496642000" lon="-2.433001000">
        <ele>418.70</ele>
        <time>2016-10-15T09:15:13Z</time>
      </trkpt>
      <trkpt lat="42.496582000" lon="-2.433004000">
        <ele>418.70</ele>
        <time>2016-10-15T09:15:14Z</time>
      </trkpt>
      <trkpt lat="42.496520000" lon="-2.433006000">
        <ele>418.80</ele>
        <time>2016-10-15T09:15:15Z</time>
      </trkpt>
      <trkpt lat="42.496459000" lon="-2.433006000">
        <ele>418.60</ele>
        <time>2016-10-15T09:15:16Z</time>
      </trkpt>
      <trkpt lat="42.496341000" lon="-2.433010000">
        <ele>418.30</ele>
        <time>2016-10-15T09:15:18Z</time>
      </trkpt>
      <trkpt lat="42.496279000" lon="-2.433009000">
        <ele>418.10</ele>
        <time>2016-10-15T09:15:19Z</time>
      </trkpt>
      <trkpt lat="42.496220000" lon="-2.433009000">
        <ele>418.00</ele>
        <time>2016-10-15T09:15:20Z</time>
      </trkpt>
      <trkpt lat="42.496160000" lon="-2.433010000">
        <ele>417.80</ele>
        <time>2016-10-15T09:15:21Z</time>
      </trkpt>
      <trkpt lat="42.496103000" lon="-2.433008000">
        <ele>417.60</ele>
        <time>2016-10-15T09:15:22Z</time>
      </trkpt>
      <trkpt lat="42.496045000" lon="-2.433013000">
        <ele>417.50</ele>
        <time>2016-10-15T09:15:23Z</time>
      </trkpt>
      <trkpt lat="42.495986000" lon="-2.433022000">
        <ele>417.40</ele>
        <time>2016-10-15T09:15:24Z</time>
      </trkpt>
      <trkpt lat="42.495931000" lon="-2.433043000">
        <ele>417.40</ele>
        <time>2016-10-15T09:15:25Z</time>
      </trkpt>
      <trkpt lat="42.495880000" lon="-2.433076000">
        <ele>417.30</ele>
        <time>2016-10-15T09:15:26Z</time>
      </trkpt>
      <trkpt lat="42.495832000" lon="-2.433119000">
        <ele>417.30</ele>
        <time>2016-10-15T09:15:27Z</time>
      </trkpt>
      <trkpt lat="42.495793000" lon="-2.433175000">
        <ele>417.30</ele>
        <time>2016-10-15T09:15:28Z</time>
      </trkpt>
      <trkpt lat="42.495762000" lon="-2.433240000">
        <ele>417.30</ele>
        <time>2016-10-15T09:15:29Z</time>
      </trkpt>
      <trkpt lat="42.495739000" lon="-2.433308000">
        <ele>417.20</ele>
        <time>2016-10-15T09:15:30Z</time>
      </trkpt>
      <trkpt lat="42.495721000" lon="-2.433380000">
        <ele>417.20</ele>
        <time>2016-10-15T09:15:31Z</time>
      </trkpt>
      <trkpt lat="42.495707000" lon="-2.433456000">
        <ele>417.00</ele>
        <time>2016-10-15T09:15:32Z</time>
      </trkpt>
      <trkpt lat="42.495699000" lon="-2.433536000">
        <ele>416.70</ele>
        <time>2016-10-15T09:15:33Z</time>
      </trkpt>
      <trkpt lat="42.495690000" lon="-2.433620000">
        <ele>416.60</ele>
        <time>2016-10-15T09:15:34Z</time>
      </trkpt>
      <trkpt lat="42.495686000" lon="-2.433705000">
        <ele>416.50</ele>
        <time>2016-10-15T09:15:35Z</time>
      </trkpt>
      <trkpt lat="42.495678000" lon="-2.433790000">
        <ele>416.30</ele>
        <time>2016-10-15T09:15:36Z</time>
      </trkpt>
      <trkpt lat="42.495670000" lon="-2.433877000">
        <ele>416.20</ele>
        <time>2016-10-15T09:15:37Z</time>
      </trkpt>
      <trkpt lat="42.495664000" lon="-2.433966000">
        <ele>416.00</ele>
        <time>2016-10-15T09:15:38Z</time>
      </trkpt>
      <trkpt lat="42.495657000" lon="-2.434054000">
        <ele>415.90</ele>
        <time>2016-10-15T09:15:39Z</time>
      </trkpt>
      <trkpt lat="42.495652000" lon="-2.434144000">
        <ele>415.60</ele>
        <time>2016-10-15T09:15:40Z</time>
      </trkpt>
      <trkpt lat="42.495646000" lon="-2.434233000">
        <ele>415.40</ele>
        <time>2016-10-15T09:15:41Z</time>
      </trkpt>
      <trkpt lat="42.495637000" lon="-2.434319000">
        <ele>415.30</ele>
        <time>2016-10-15T09:15:42Z</time>
      </trkpt>
      <trkpt lat="42.495629000" lon="-2.434405000">
        <ele>415.10</ele>
        <time>2016-10-15T09:15:43Z</time>
      </trkpt>
      <trkpt lat="42.495620000" lon="-2.434488000">
        <ele>415.00</ele>
        <time>2016-10-15T09:15:44Z</time>
      </trkpt>
      <trkpt lat="42.495609000" lon="-2.434566000">
        <ele>415.00</ele>
        <time>2016-10-15T09:15:45Z</time>
      </trkpt>
      <trkpt lat="42.495599000" lon="-2.434645000">
        <ele>414.90</ele>
        <time>2016-10-15T09:15:46Z</time>
      </trkpt>
      <trkpt lat="42.495587000" lon="-2.434720000">
        <ele>414.90</ele>
        <time>2016-10-15T09:15:47Z</time>
      </trkpt>
      <trkpt lat="42.495578000" lon="-2.434794000">
        <ele>414.90</ele>
        <time>2016-10-15T09:15:48Z</time>
      </trkpt>
      <trkpt lat="42.495573000" lon="-2.434868000">
        <ele>414.90</ele>
        <time>2016-10-15T09:15:49Z</time>
      </trkpt>
      <trkpt lat="42.495569000" lon="-2.434941000">
        <ele>414.90</ele>
        <time>2016-10-15T09:15:50Z</time>
      </trkpt>
      <trkpt lat="42.495568000" lon="-2.435008000">
        <ele>415.00</ele>
        <time>2016-10-15T09:15:51Z</time>
      </trkpt>
      <trkpt lat="42.495571000" lon="-2.435071000">
        <ele>415.00</ele>
        <time>2016-10-15T09:15:52Z</time>
      </trkpt>
      <trkpt lat="42.495576000" lon="-2.435121000">
        <ele>415.00</ele>
        <time>2016-10-15T09:15:53Z</time>
      </trkpt>
      <trkpt lat="42.495584000" lon="-2.435162000">
        <ele>414.90</ele>
        <time>2016-10-15T09:15:54Z</time>
      </trkpt>
      <trkpt lat="42.495592000" lon="-2.435200000">
        <ele>414.80</ele>
        <time>2016-10-15T09:15:55Z</time>
      </trkpt>
      <trkpt lat="42.495607000" lon="-2.435244000">
        <ele>414.60</ele>
        <time>2016-10-15T09:15:56Z</time>
      </trkpt>
      <trkpt lat="42.495625000" lon="-2.435298000">
        <ele>414.50</ele>
        <time>2016-10-15T09:15:57Z</time>
      </trkpt>
      <trkpt lat="42.495639000" lon="-2.435358000">
        <ele>414.40</ele>
        <time>2016-10-15T09:15:58Z</time>
      </trkpt>
      <trkpt lat="42.495635000" lon="-2.435423000">
        <ele>414.30</ele>
        <time>2016-10-15T09:15:59Z</time>
      </trkpt>
      <trkpt lat="42.495616000" lon="-2.435486000">
        <ele>414.50</ele>
        <time>2016-10-15T09:16:00Z</time>
      </trkpt>
      <trkpt lat="42.495584000" lon="-2.435540000">
        <ele>414.60</ele>
        <time>2016-10-15T09:16:01Z</time>
      </trkpt>
      <trkpt lat="42.495549000" lon="-2.435592000">
        <ele>414.70</ele>
        <time>2016-10-15T09:16:02Z</time>
      </trkpt>
      <trkpt lat="42.495517000" lon="-2.435647000">
        <ele>414.70</ele>
        <time>2016-10-15T09:16:03Z</time>
      </trkpt>
      <trkpt lat="42.495488000" lon="-2.435706000">
        <ele>414.80</ele>
        <time>2016-10-15T09:16:04Z</time>
      </trkpt>
      <trkpt lat="42.495462000" lon="-2.435776000">
        <ele>414.80</ele>
        <time>2016-10-15T09:16:05Z</time>
      </trkpt>
      <trkpt lat="42.495444000" lon="-2.435843000">
        <ele>414.80</ele>
        <time>2016-10-15T09:16:06Z</time>
      </trkpt>
      <trkpt lat="42.495428000" lon="-2.435911000">
        <ele>414.90</ele>
        <time>2016-10-15T09:16:07Z</time>
      </trkpt>
      <trkpt lat="42.495419000" lon="-2.435981000">
        <ele>414.70</ele>
        <time>2016-10-15T09:16:08Z</time>
      </trkpt>
      <trkpt lat="42.495414000" lon="-2.436055000">
        <ele>414.70</ele>
        <time>2016-10-15T09:16:09Z</time>
      </trkpt>
      <trkpt lat="42.495408000" lon="-2.436129000">
        <ele>414.60</ele>
        <time>2016-10-15T09:16:10Z</time>
      </trkpt>
      <trkpt lat="42.495401000" lon="-2.436203000">
        <ele>414.50</ele>
        <time>2016-10-15T09:16:11Z</time>
      </trkpt>
      <trkpt lat="42.495393000" lon="-2.436276000">
        <ele>414.40</ele>
        <time>2016-10-15T09:16:12Z</time>
      </trkpt>
      <trkpt lat="42.495386000" lon="-2.436348000">
        <ele>414.40</ele>
        <time>2016-10-15T09:16:13Z</time>
      </trkpt>
      <trkpt lat="42.495376000" lon="-2.436422000">
        <ele>414.30</ele>
        <time>2016-10-15T09:16:14Z</time>
      </trkpt>
      <trkpt lat="42.495365000" lon="-2.436495000">
        <ele>414.30</ele>
        <time>2016-10-15T09:16:15Z</time>
      </trkpt>
      <trkpt lat="42.495355000" lon="-2.436570000">
        <ele>414.20</ele>
        <time>2016-10-15T09:16:16Z</time>
      </trkpt>
      <trkpt lat="42.495345000" lon="-2.436646000">
        <ele>414.20</ele>
        <time>2016-10-15T09:16:17Z</time>
      </trkpt>
      <trkpt lat="42.495326000" lon="-2.436793000">
        <ele>414.00</ele>
        <time>2016-10-15T09:16:19Z</time>
      </trkpt>
      <trkpt lat="42.495318000" lon="-2.436865000">
        <ele>413.80</ele>
        <time>2016-10-15T09:16:20Z</time>
      </trkpt>
      <trkpt lat="42.495312000" lon="-2.436938000">
        <ele>413.70</ele>
        <time>2016-10-15T09:16:21Z</time>
      </trkpt>
      <trkpt lat="42.495306000" lon="-2.437009000">
        <ele>413.60</ele>
        <time>2016-10-15T09:16:22Z</time>
      </trkpt>
      <trkpt lat="42.495302000" lon="-2.437074000">
        <ele>413.50</ele>
        <time>2016-10-15T09:16:23Z</time>
      </trkpt>
      <trkpt lat="42.495301000" lon="-2.437143000">
        <ele>413.70</ele>
        <time>2016-10-15T09:16:24Z</time>
      </trkpt>
      <trkpt lat="42.495295000" lon="-2.437213000">
        <ele>413.80</ele>
        <time>2016-10-15T09:16:25Z</time>
      </trkpt>
      <trkpt lat="42.495291000" lon="-2.437283000">
        <ele>414.00</ele>
        <time>2016-10-15T09:16:26Z</time>
      </trkpt>
      <trkpt lat="42.495288000" lon="-2.437354000">
        <ele>414.10</ele>
        <time>2016-10-15T09:16:27Z</time>
      </trkpt>
      <trkpt lat="42.495280000" lon="-2.437422000">
        <ele>414.20</ele>
        <time>2016-10-15T09:16:28Z</time>
      </trkpt>
      <trkpt lat="42.495273000" lon="-2.437491000">
        <ele>414.30</ele>
        <time>2016-10-15T09:16:29Z</time>
      </trkpt>
      <trkpt lat="42.495269000" lon="-2.437557000">
        <ele>414.60</ele>
        <time>2016-10-15T09:16:30Z</time>
      </trkpt>
      <trkpt lat="42.495270000" lon="-2.437623000">
        <ele>414.80</ele>
        <time>2016-10-15T09:16:31Z</time>
      </trkpt>
      <trkpt lat="42.495278000" lon="-2.437693000">
        <ele>414.90</ele>
        <time>2016-10-15T09:16:32Z</time>
      </trkpt>
      <trkpt lat="42.495290000" lon="-2.437762000">
        <ele>415.00</ele>
        <time>2016-10-15T09:16:33Z</time>
      </trkpt>
      <trkpt lat="42.495307000" lon="-2.437831000">
        <ele>415.20</ele>
        <time>2016-10-15T09:16:34Z</time>
      </trkpt>
      <trkpt lat="42.495323000" lon="-2.437901000">
        <ele>415.30</ele>
        <time>2016-10-15T09:16:35Z</time>
      </trkpt>
      <trkpt lat="42.495344000" lon="-2.437969000">
        <ele>415.40</ele>
        <time>2016-10-15T09:16:36Z</time>
      </trkpt>
      <trkpt lat="42.495366000" lon="-2.438031000">
        <ele>415.50</ele>
        <time>2016-10-15T09:16:37Z</time>
      </trkpt>
      <trkpt lat="42.495390000" lon="-2.438093000">
        <ele>415.60</ele>
        <time>2016-10-15T09:16:38Z</time>
      </trkpt>
      <trkpt lat="42.495413000" lon="-2.438155000">
        <ele>415.70</ele>
        <time>2016-10-15T09:16:39Z</time>
      </trkpt>
      <trkpt lat="42.495439000" lon="-2.438216000">
        <ele>415.70</ele>
        <time>2016-10-15T09:16:40Z</time>
      </trkpt>
      <trkpt lat="42.495460000" lon="-2.438278000">
        <ele>415.80</ele>
        <time>2016-10-15T09:16:41Z</time>
      </trkpt>
      <trkpt lat="42.495482000" lon="-2.438341000">
        <ele>415.80</ele>
        <time>2016-10-15T09:16:42Z</time>
      </trkpt>
      <trkpt lat="42.495502000" lon="-2.438404000">
        <ele>415.80</ele>
        <time>2016-10-15T09:16:43Z</time>
      </trkpt>
      <trkpt lat="42.495521000" lon="-2.438468000">
        <ele>415.90</ele>
        <time>2016-10-15T09:16:44Z</time>
      </trkpt>
      <trkpt lat="42.495539000" lon="-2.438531000">
        <ele>416.00</ele>
        <time>2016-10-15T09:16:45Z</time>
      </trkpt>
      <trkpt lat="42.495554000" lon="-2.438599000">
        <ele>416.10</ele>
        <time>2016-10-15T09:16:46Z</time>
      </trkpt>
      <trkpt lat="42.495567000" lon="-2.438667000">
        <ele>416.30</ele>
        <time>2016-10-15T09:16:47Z</time>
      </trkpt>
      <trkpt lat="42.495577000" lon="-2.438734000">
        <ele>416.40</ele>
        <time>2016-10-15T09:16:48Z</time>
      </trkpt>
      <trkpt lat="42.495580000" lon="-2.438803000">
        <ele>416.40</ele>
        <time>2016-10-15T09:16:49Z</time>
      </trkpt>
      <trkpt lat="42.495579000" lon="-2.438871000">
        <ele>416.40</ele>
        <time>2016-10-15T09:16:50Z</time>
      </trkpt>
      <trkpt lat="42.495577000" lon="-2.438939000">
        <ele>416.40</ele>
        <time>2016-10-15T09:16:51Z</time>
      </trkpt>
      <trkpt lat="42.495575000" lon="-2.439007000">
        <ele>416.40</ele>
        <time>2016-10-15T09:16:52Z</time>
      </trkpt>
      <trkpt lat="42.495567000" lon="-2.439077000">
        <ele>416.40</ele>
        <time>2016-10-15T09:16:53Z</time>
      </trkpt>
      <trkpt lat="42.495553000" lon="-2.439149000">
        <ele>416.40</ele>
        <time>2016-10-15T09:16:54Z</time>
      </trkpt>
      <trkpt lat="42.495539000" lon="-2.439223000">
        <ele>416.40</ele>
        <time>2016-10-15T09:16:55Z</time>
      </trkpt>
      <trkpt lat="42.495522000" lon="-2.439298000">
        <ele>416.40</ele>
        <time>2016-10-15T09:16:56Z</time>
      </trkpt>
      <trkpt lat="42.495506000" lon="-2.439374000">
        <ele>416.40</ele>
        <time>2016-10-15T09:16:57Z</time>
      </trkpt>
      <trkpt lat="42.495491000" lon="-2.439450000">
        <ele>416.30</ele>
        <time>2016-10-15T09:16:58Z</time>
      </trkpt>
      <trkpt lat="42.495475000" lon="-2.439527000">
        <ele>416.20</ele>
        <time>2016-10-15T09:16:59Z</time>
      </trkpt>
      <trkpt lat="42.495461000" lon="-2.439605000">
        <ele>416.20</ele>
        <time>2016-10-15T09:17:00Z</time>
      </trkpt>
      <trkpt lat="42.495449000" lon="-2.439682000">
        <ele>416.20</ele>
        <time>2016-10-15T09:17:01Z</time>
      </trkpt>
      <trkpt lat="42.495432000" lon="-2.439760000">
        <ele>416.10</ele>
        <time>2016-10-15T09:17:02Z</time>
      </trkpt>
      <trkpt lat="42.495414000" lon="-2.439832000">
        <ele>416.10</ele>
        <time>2016-10-15T09:17:03Z</time>
      </trkpt>
      <trkpt lat="42.495403000" lon="-2.439897000">
        <ele>416.10</ele>
        <time>2016-10-15T09:17:04Z</time>
      </trkpt>
      <trkpt lat="42.495394000" lon="-2.439954000">
        <ele>416.10</ele>
        <time>2016-10-15T09:17:05Z</time>
      </trkpt>
      <trkpt lat="42.495386000" lon="-2.440004000">
        <ele>416.10</ele>
        <time>2016-10-15T09:17:06Z</time>
      </trkpt>
      <trkpt lat="42.495378000" lon="-2.440054000">
        <ele>416.00</ele>
        <time>2016-10-15T09:17:07Z</time>
      </trkpt>
      <trkpt lat="42.495359000" lon="-2.440082000">
        <ele>415.90</ele>
        <time>2016-10-15T09:17:08Z</time>
      </trkpt>
      <trkpt lat="42.495342000" lon="-2.440090000">
        <ele>415.70</ele>
        <time>2016-10-15T09:17:09Z</time>
      </trkpt>
      <trkpt lat="42.495322000" lon="-2.440095000">
        <ele>415.60</ele>
        <time>2016-10-15T09:17:10Z</time>
      </trkpt>
      <trkpt lat="42.495299000" lon="-2.440095000">
        <ele>415.60</ele>
        <time>2016-10-15T09:17:11Z</time>
      </trkpt>
      <trkpt lat="42.495273000" lon="-2.440106000">
        <ele>415.30</ele>
        <time>2016-10-15T09:17:12Z</time>
      </trkpt>
      <trkpt lat="42.495245000" lon="-2.440116000">
        <ele>415.10</ele>
        <time>2016-10-15T09:17:13Z</time>
      </trkpt>
      <trkpt lat="42.495212000" lon="-2.440136000">
        <ele>414.90</ele>
        <time>2016-10-15T09:17:14Z</time>
      </trkpt>
      <trkpt lat="42.495176000" lon="-2.440168000">
        <ele>414.70</ele>
        <time>2016-10-15T09:17:15Z</time>
      </trkpt>
      <trkpt lat="42.495139000" lon="-2.440197000">
        <ele>414.60</ele>
        <time>2016-10-15T09:17:16Z</time>
      </trkpt>
      <trkpt lat="42.495094000" lon="-2.440223000">
        <ele>414.50</ele>
        <time>2016-10-15T09:17:17Z</time>
      </trkpt>
      <trkpt lat="42.495047000" lon="-2.440247000">
        <ele>414.40</ele>
        <time>2016-10-15T09:17:18Z</time>
      </trkpt>
      <trkpt lat="42.494940000" lon="-2.440291000">
        <ele>414.30</ele>
        <time>2016-10-15T09:17:20Z</time>
      </trkpt>
      <trkpt lat="42.494882000" lon="-2.440314000">
        <ele>414.20</ele>
        <time>2016-10-15T09:17:21Z</time>
      </trkpt>
      <trkpt lat="42.494825000" lon="-2.440337000">
        <ele>414.10</ele>
        <time>2016-10-15T09:17:22Z</time>
      </trkpt>
      <trkpt lat="42.494765000" lon="-2.440363000">
        <ele>414.10</ele>
        <time>2016-10-15T09:17:23Z</time>
      </trkpt>
      <trkpt lat="42.494706000" lon="-2.440392000">
        <ele>414.00</ele>
        <time>2016-10-15T09:17:24Z</time>
      </trkpt>
      <trkpt lat="42.494646000" lon="-2.440416000">
        <ele>413.90</ele>
        <time>2016-10-15T09:17:25Z</time>
      </trkpt>
      <trkpt lat="42.494584000" lon="-2.440441000">
        <ele>413.60</ele>
        <time>2016-10-15T09:17:26Z</time>
      </trkpt>
      <trkpt lat="42.494522000" lon="-2.440471000">
        <ele>413.50</ele>
        <time>2016-10-15T09:17:27Z</time>
      </trkpt>
      <trkpt lat="42.494455000" lon="-2.440503000">
        <ele>413.30</ele>
        <time>2016-10-15T09:17:28Z</time>
      </trkpt>
      <trkpt lat="42.494390000" lon="-2.440530000">
        <ele>413.20</ele>
        <time>2016-10-15T09:17:29Z</time>
      </trkpt>
      <trkpt lat="42.494326000" lon="-2.440555000">
        <ele>413.10</ele>
        <time>2016-10-15T09:17:30Z</time>
      </trkpt>
      <trkpt lat="42.494261000" lon="-2.440583000">
        <ele>413.00</ele>
        <time>2016-10-15T09:17:31Z</time>
      </trkpt>
      <trkpt lat="42.494198000" lon="-2.440612000">
        <ele>412.90</ele>
        <time>2016-10-15T09:17:32Z</time>
      </trkpt>
      <trkpt lat="42.494135000" lon="-2.440643000">
        <ele>412.90</ele>
        <time>2016-10-15T09:17:33Z</time>
      </trkpt>
      <trkpt lat="42.494072000" lon="-2.440676000">
        <ele>412.80</ele>
        <time>2016-10-15T09:17:34Z</time>
      </trkpt>
      <trkpt lat="42.494012000" lon="-2.440708000">
        <ele>412.80</ele>
        <time>2016-10-15T09:17:35Z</time>
      </trkpt>
      <trkpt lat="42.493952000" lon="-2.440739000">
        <ele>412.60</ele>
        <time>2016-10-15T09:17:36Z</time>
      </trkpt>
      <trkpt lat="42.493890000" lon="-2.440770000">
        <ele>412.50</ele>
        <time>2016-10-15T09:17:37Z</time>
      </trkpt>
      <trkpt lat="42.493827000" lon="-2.440805000">
        <ele>412.60</ele>
        <time>2016-10-15T09:17:38Z</time>
      </trkpt>
      <trkpt lat="42.493765000" lon="-2.440838000">
        <ele>412.60</ele>
        <time>2016-10-15T09:17:39Z</time>
      </trkpt>
      <trkpt lat="42.493701000" lon="-2.440867000">
        <ele>412.30</ele>
        <time>2016-10-15T09:17:40Z</time>
      </trkpt>
      <trkpt lat="42.493636000" lon="-2.440895000">
        <ele>412.20</ele>
        <time>2016-10-15T09:17:41Z</time>
      </trkpt>
      <trkpt lat="42.493572000" lon="-2.440927000">
        <ele>412.20</ele>
        <time>2016-10-15T09:17:42Z</time>
      </trkpt>
      <trkpt lat="42.493507000" lon="-2.440958000">
        <ele>412.20</ele>
        <time>2016-10-15T09:17:43Z</time>
      </trkpt>
      <trkpt lat="42.493443000" lon="-2.440990000">
        <ele>412.00</ele>
        <time>2016-10-15T09:17:44Z</time>
      </trkpt>
      <trkpt lat="42.493378000" lon="-2.441021000">
        <ele>411.90</ele>
        <time>2016-10-15T09:17:45Z</time>
      </trkpt>
      <trkpt lat="42.493312000" lon="-2.441053000">
        <ele>411.80</ele>
        <time>2016-10-15T09:17:46Z</time>
      </trkpt>
      <trkpt lat="42.493247000" lon="-2.441088000">
        <ele>411.80</ele>
        <time>2016-10-15T09:17:47Z</time>
      </trkpt>
      <trkpt lat="42.493180000" lon="-2.441119000">
        <ele>411.60</ele>
        <time>2016-10-15T09:17:48Z</time>
      </trkpt>
      <trkpt lat="42.493115000" lon="-2.441150000">
        <ele>411.40</ele>
        <time>2016-10-15T09:17:49Z</time>
      </trkpt>
      <trkpt lat="42.493048000" lon="-2.441179000">
        <ele>411.30</ele>
        <time>2016-10-15T09:17:50Z</time>
      </trkpt>
      <trkpt lat="42.492981000" lon="-2.441209000">
        <ele>411.10</ele>
        <time>2016-10-15T09:17:51Z</time>
      </trkpt>
      <trkpt lat="42.492913000" lon="-2.441239000">
        <ele>410.90</ele>
        <time>2016-10-15T09:17:52Z</time>
      </trkpt>
      <trkpt lat="42.492845000" lon="-2.441267000">
        <ele>410.80</ele>
        <time>2016-10-15T09:17:53Z</time>
      </trkpt>
      <trkpt lat="42.492775000" lon="-2.441295000">
        <ele>410.60</ele>
        <time>2016-10-15T09:17:54Z</time>
      </trkpt>
      <trkpt lat="42.492708000" lon="-2.441324000">
        <ele>410.50</ele>
        <time>2016-10-15T09:17:55Z</time>
      </trkpt>
      <trkpt lat="42.492641000" lon="-2.441352000">
        <ele>410.50</ele>
        <time>2016-10-15T09:17:56Z</time>
      </trkpt>
      <trkpt lat="42.492572000" lon="-2.441381000">
        <ele>410.40</ele>
        <time>2016-10-15T09:17:57Z</time>
      </trkpt>
      <trkpt lat="42.492503000" lon="-2.441409000">
        <ele>410.40</ele>
        <time>2016-10-15T09:17:58Z</time>
      </trkpt>
      <trkpt lat="42.492433000" lon="-2.441436000">
        <ele>410.30</ele>
        <time>2016-10-15T09:17:59Z</time>
      </trkpt>
      <trkpt lat="42.492363000" lon="-2.441458000">
        <ele>410.20</ele>
        <time>2016-10-15T09:18:00Z</time>
      </trkpt>
      <trkpt lat="42.492293000" lon="-2.441482000">
        <ele>410.00</ele>
        <time>2016-10-15T09:18:01Z</time>
      </trkpt>
      <trkpt lat="42.492222000" lon="-2.441510000">
        <ele>409.90</ele>
        <time>2016-10-15T09:18:02Z</time>
      </trkpt>
      <trkpt lat="42.492152000" lon="-2.441540000">
        <ele>409.90</ele>
        <time>2016-10-15T09:18:03Z</time>
      </trkpt>
      <trkpt lat="42.492085000" lon="-2.441572000">
        <ele>409.90</ele>
        <time>2016-10-15T09:18:04Z</time>
      </trkpt>
      <trkpt lat="42.492018000" lon="-2.441603000">
        <ele>409.90</ele>
        <time>2016-10-15T09:18:05Z</time>
      </trkpt>
      <trkpt lat="42.491950000" lon="-2.441633000">
        <ele>409.90</ele>
        <time>2016-10-15T09:18:06Z</time>
      </trkpt>
      <trkpt lat="42.491885000" lon="-2.441668000">
        <ele>409.90</ele>
        <time>2016-10-15T09:18:07Z</time>
      </trkpt>
      <trkpt lat="42.491821000" lon="-2.441710000">
        <ele>409.80</ele>
        <time>2016-10-15T09:18:08Z</time>
      </trkpt>
      <trkpt lat="42.491757000" lon="-2.441756000">
        <ele>409.70</ele>
        <time>2016-10-15T09:18:09Z</time>
      </trkpt>
      <trkpt lat="42.491693000" lon="-2.441799000">
        <ele>409.70</ele>
        <time>2016-10-15T09:18:10Z</time>
      </trkpt>
      <trkpt lat="42.491628000" lon="-2.441839000">
        <ele>409.70</ele>
        <time>2016-10-15T09:18:11Z</time>
      </trkpt>
      <trkpt lat="42.491560000" lon="-2.441874000">
        <ele>409.40</ele>
        <time>2016-10-15T09:18:12Z</time>
      </trkpt>
      <trkpt lat="42.491492000" lon="-2.441903000">
        <ele>409.30</ele>
        <time>2016-10-15T09:18:13Z</time>
      </trkpt>
      <trkpt lat="42.491422000" lon="-2.441928000">
        <ele>409.10</ele>
        <time>2016-10-15T09:18:14Z</time>
      </trkpt>
      <trkpt lat="42.491352000" lon="-2.441948000">
        <ele>409.10</ele>
        <time>2016-10-15T09:18:15Z</time>
      </trkpt>
      <trkpt lat="42.491280000" lon="-2.441965000">
        <ele>408.80</ele>
        <time>2016-10-15T09:18:16Z</time>
      </trkpt>
      <trkpt lat="42.491210000" lon="-2.441977000">
        <ele>408.70</ele>
        <time>2016-10-15T09:18:17Z</time>
      </trkpt>
      <trkpt lat="42.491140000" lon="-2.441984000">
        <ele>408.50</ele>
        <time>2016-10-15T09:18:18Z</time>
      </trkpt>
      <trkpt lat="42.491069000" lon="-2.441991000">
        <ele>408.40</ele>
        <time>2016-10-15T09:18:19Z</time>
      </trkpt>
      <trkpt lat="42.490927000" lon="-2.442004000">
        <ele>408.40</ele>
        <time>2016-10-15T09:18:21Z</time>
      </trkpt>
      <trkpt lat="42.490856000" lon="-2.442012000">
        <ele>408.40</ele>
        <time>2016-10-15T09:18:22Z</time>
      </trkpt>
      <trkpt lat="42.490786000" lon="-2.442020000">
        <ele>408.40</ele>
        <time>2016-10-15T09:18:23Z</time>
      </trkpt>
      <trkpt lat="42.490716000" lon="-2.442030000">
        <ele>408.40</ele>
        <time>2016-10-15T09:18:24Z</time>
      </trkpt>
      <trkpt lat="42.490646000" lon="-2.442042000">
        <ele>408.30</ele>
        <time>2016-10-15T09:18:25Z</time>
      </trkpt>
      <trkpt lat="42.490577000" lon="-2.442052000">
        <ele>408.20</ele>
        <time>2016-10-15T09:18:26Z</time>
      </trkpt>
      <trkpt lat="42.490506000" lon="-2.442063000">
        <ele>408.00</ele>
        <time>2016-10-15T09:18:27Z</time>
      </trkpt>
      <trkpt lat="42.490435000" lon="-2.442078000">
        <ele>408.00</ele>
        <time>2016-10-15T09:18:28Z</time>
      </trkpt>
      <trkpt lat="42.490365000" lon="-2.442092000">
        <ele>408.10</ele>
        <time>2016-10-15T09:18:29Z</time>
      </trkpt>
      <trkpt lat="42.490297000" lon="-2.442111000">
        <ele>408.10</ele>
        <time>2016-10-15T09:18:30Z</time>
      </trkpt>
      <trkpt lat="42.490230000" lon="-2.442128000">
        <ele>408.10</ele>
        <time>2016-10-15T09:18:31Z</time>
      </trkpt>
      <trkpt lat="42.490163000" lon="-2.442146000">
        <ele>408.10</ele>
        <time>2016-10-15T09:18:32Z</time>
      </trkpt>
      <trkpt lat="42.490098000" lon="-2.442165000">
        <ele>408.20</ele>
        <time>2016-10-15T09:18:33Z</time>
      </trkpt>
      <trkpt lat="42.490034000" lon="-2.442185000">
        <ele>408.20</ele>
        <time>2016-10-15T09:18:34Z</time>
      </trkpt>
      <trkpt lat="42.489971000" lon="-2.442211000">
        <ele>408.30</ele>
        <time>2016-10-15T09:18:35Z</time>
      </trkpt>
      <trkpt lat="42.489911000" lon="-2.442247000">
        <ele>408.30</ele>
        <time>2016-10-15T09:18:36Z</time>
      </trkpt>
      <trkpt lat="42.489854000" lon="-2.442289000">
        <ele>408.30</ele>
        <time>2016-10-15T09:18:37Z</time>
      </trkpt>
      <trkpt lat="42.489803000" lon="-2.442343000">
        <ele>408.40</ele>
        <time>2016-10-15T09:18:38Z</time>
      </trkpt>
      <trkpt lat="42.489758000" lon="-2.442403000">
        <ele>408.40</ele>
        <time>2016-10-15T09:18:39Z</time>
      </trkpt>
      <trkpt lat="42.489716000" lon="-2.442469000">
        <ele>408.30</ele>
        <time>2016-10-15T09:18:40Z</time>
      </trkpt>
      <trkpt lat="42.489673000" lon="-2.442540000">
        <ele>408.20</ele>
        <time>2016-10-15T09:18:41Z</time>
      </trkpt>
      <trkpt lat="42.489633000" lon="-2.442615000">
        <ele>408.20</ele>
        <time>2016-10-15T09:18:42Z</time>
      </trkpt>
      <trkpt lat="42.489589000" lon="-2.442686000">
        <ele>408.10</ele>
        <time>2016-10-15T09:18:43Z</time>
      </trkpt>
      <trkpt lat="42.489543000" lon="-2.442761000">
        <ele>408.10</ele>
        <time>2016-10-15T09:18:44Z</time>
      </trkpt>
      <trkpt lat="42.489495000" lon="-2.442832000">
        <ele>408.00</ele>
        <time>2016-10-15T09:18:45Z</time>
      </trkpt>
      <trkpt lat="42.489445000" lon="-2.442900000">
        <ele>407.90</ele>
        <time>2016-10-15T09:18:46Z</time>
      </trkpt>
      <trkpt lat="42.489396000" lon="-2.442965000">
        <ele>407.80</ele>
        <time>2016-10-15T09:18:47Z</time>
      </trkpt>
      <trkpt lat="42.489344000" lon="-2.443029000">
        <ele>407.80</ele>
        <time>2016-10-15T09:18:48Z</time>
      </trkpt>
      <trkpt lat="42.489292000" lon="-2.443087000">
        <ele>407.80</ele>
        <time>2016-10-15T09:18:49Z</time>
      </trkpt>
      <trkpt lat="42.489240000" lon="-2.443143000">
        <ele>407.70</ele>
        <time>2016-10-15T09:18:50Z</time>
      </trkpt>
      <trkpt lat="42.489191000" lon="-2.443201000">
        <ele>407.60</ele>
        <time>2016-10-15T09:18:51Z</time>
      </trkpt>
      <trkpt lat="42.489143000" lon="-2.443263000">
        <ele>407.50</ele>
        <time>2016-10-15T09:18:52Z</time>
      </trkpt>
      <trkpt lat="42.489096000" lon="-2.443327000">
        <ele>407.40</ele>
        <time>2016-10-15T09:18:53Z</time>
      </trkpt>
      <trkpt lat="42.489051000" lon="-2.443396000">
        <ele>407.30</ele>
        <time>2016-10-15T09:18:54Z</time>
      </trkpt>
      <trkpt lat="42.489005000" lon="-2.443465000">
        <ele>407.10</ele>
        <time>2016-10-15T09:18:55Z</time>
      </trkpt>
      <trkpt lat="42.488958000" lon="-2.443535000">
        <ele>407.00</ele>
        <time>2016-10-15T09:18:56Z</time>
      </trkpt>
      <trkpt lat="42.488911000" lon="-2.443604000">
        <ele>406.90</ele>
        <time>2016-10-15T09:18:57Z</time>
      </trkpt>
      <trkpt lat="42.488864000" lon="-2.443674000">
        <ele>406.80</ele>
        <time>2016-10-15T09:18:58Z</time>
      </trkpt>
      <trkpt lat="42.488817000" lon="-2.443742000">
        <ele>406.70</ele>
        <time>2016-10-15T09:18:59Z</time>
      </trkpt>
      <trkpt lat="42.488771000" lon="-2.443811000">
        <ele>406.70</ele>
        <time>2016-10-15T09:19:00Z</time>
      </trkpt>
      <trkpt lat="42.488726000" lon="-2.443880000">
        <ele>406.70</ele>
        <time>2016-10-15T09:19:01Z</time>
      </trkpt>
      <trkpt lat="42.488679000" lon="-2.443949000">
        <ele>406.70</ele>
        <time>2016-10-15T09:19:02Z</time>
      </trkpt>
      <trkpt lat="42.488633000" lon="-2.444016000">
        <ele>406.70</ele>
        <time>2016-10-15T09:19:03Z</time>
      </trkpt>
      <trkpt lat="42.488586000" lon="-2.444081000">
        <ele>406.80</ele>
        <time>2016-10-15T09:19:04Z</time>
      </trkpt>
      <trkpt lat="42.488537000" lon="-2.444145000">
        <ele>406.80</ele>
        <time>2016-10-15T09:19:05Z</time>
      </trkpt>
      <trkpt lat="42.488490000" lon="-2.444207000">
        <ele>406.80</ele>
        <time>2016-10-15T09:19:06Z</time>
      </trkpt>
      <trkpt lat="42.488444000" lon="-2.444265000">
        <ele>406.70</ele>
        <time>2016-10-15T09:19:07Z</time>
      </trkpt>
      <trkpt lat="42.488396000" lon="-2.444322000">
        <ele>406.70</ele>
        <time>2016-10-15T09:19:08Z</time>
      </trkpt>
      <trkpt lat="42.488348000" lon="-2.444380000">
        <ele>406.70</ele>
        <time>2016-10-15T09:19:09Z</time>
      </trkpt>
      <trkpt lat="42.488299000" lon="-2.444435000">
        <ele>406.70</ele>
        <time>2016-10-15T09:19:10Z</time>
      </trkpt>
      <trkpt lat="42.488250000" lon="-2.444491000">
        <ele>406.60</ele>
        <time>2016-10-15T09:19:11Z</time>
      </trkpt>
      <trkpt lat="42.488199000" lon="-2.444545000">
        <ele>406.60</ele>
        <time>2016-10-15T09:19:12Z</time>
      </trkpt>
      <trkpt lat="42.488147000" lon="-2.444598000">
        <ele>406.50</ele>
        <time>2016-10-15T09:19:13Z</time>
      </trkpt>
      <trkpt lat="42.488095000" lon="-2.444653000">
        <ele>406.50</ele>
        <time>2016-10-15T09:19:14Z</time>
      </trkpt>
      <trkpt lat="42.488040000" lon="-2.444706000">
        <ele>406.20</ele>
        <time>2016-10-15T09:19:15Z</time>
      </trkpt>
      <trkpt lat="42.487982000" lon="-2.444760000">
        <ele>405.90</ele>
        <time>2016-10-15T09:19:16Z</time>
      </trkpt>
      <trkpt lat="42.487922000" lon="-2.444812000">
        <ele>405.60</ele>
        <time>2016-10-15T09:19:17Z</time>
      </trkpt>
      <trkpt lat="42.487860000" lon="-2.444867000">
        <ele>405.40</ele>
        <time>2016-10-15T09:19:18Z</time>
      </trkpt>
      <trkpt lat="42.487798000" lon="-2.444916000">
        <ele>405.10</ele>
        <time>2016-10-15T09:19:19Z</time>
      </trkpt>
      <trkpt lat="42.487734000" lon="-2.444968000">
        <ele>404.90</ele>
        <time>2016-10-15T09:19:20Z</time>
      </trkpt>
      <trkpt lat="42.487597000" lon="-2.445064000">
        <ele>404.60</ele>
        <time>2016-10-15T09:19:22Z</time>
      </trkpt>
      <trkpt lat="42.487524000" lon="-2.445108000">
        <ele>404.60</ele>
        <time>2016-10-15T09:19:23Z</time>
      </trkpt>
      <trkpt lat="42.487452000" lon="-2.445148000">
        <ele>404.50</ele>
        <time>2016-10-15T09:19:24Z</time>
      </trkpt>
      <trkpt lat="42.487379000" lon="-2.445187000">
        <ele>404.00</ele>
        <time>2016-10-15T09:19:25Z</time>
      </trkpt>
      <trkpt lat="42.487305000" lon="-2.445227000">
        <ele>403.70</ele>
        <time>2016-10-15T09:19:26Z</time>
      </trkpt>
      <trkpt lat="42.487231000" lon="-2.445264000">
        <ele>403.10</ele>
        <time>2016-10-15T09:19:27Z</time>
      </trkpt>
      <trkpt lat="42.487152000" lon="-2.445292000">
        <ele>402.70</ele>
        <time>2016-10-15T09:19:28Z</time>
      </trkpt>
      <trkpt lat="42.487072000" lon="-2.445319000">
        <ele>402.30</ele>
        <time>2016-10-15T09:19:29Z</time>
      </trkpt>
      <trkpt lat="42.486993000" lon="-2.445333000">
        <ele>402.00</ele>
        <time>2016-10-15T09:19:30Z</time>
      </trkpt>
      <trkpt lat="42.486915000" lon="-2.445353000">
        <ele>401.30</ele>
        <time>2016-10-15T09:19:31Z</time>
      </trkpt>
      <trkpt lat="42.486838000" lon="-2.445371000">
        <ele>400.70</ele>
        <time>2016-10-15T09:19:32Z</time>
      </trkpt>
      <trkpt lat="42.486759000" lon="-2.445387000">
        <ele>400.30</ele>
        <time>2016-10-15T09:19:33Z</time>
      </trkpt>
      <trkpt lat="42.486682000" lon="-2.445406000">
        <ele>400.00</ele>
        <time>2016-10-15T09:19:34Z</time>
      </trkpt>
      <trkpt lat="42.486606000" lon="-2.445427000">
        <ele>400.00</ele>
        <time>2016-10-15T09:19:35Z</time>
      </trkpt>
      <trkpt lat="42.486534000" lon="-2.445446000">
        <ele>399.90</ele>
        <time>2016-10-15T09:19:36Z</time>
      </trkpt>
      <trkpt lat="42.486465000" lon="-2.445470000">
        <ele>399.90</ele>
        <time>2016-10-15T09:19:37Z</time>
      </trkpt>
      <trkpt lat="42.486397000" lon="-2.445497000">
        <ele>399.90</ele>
        <time>2016-10-15T09:19:38Z</time>
      </trkpt>
      <trkpt lat="42.486332000" lon="-2.445531000">
        <ele>400.10</ele>
        <time>2016-10-15T09:19:39Z</time>
      </trkpt>
      <trkpt lat="42.486268000" lon="-2.445571000">
        <ele>400.20</ele>
        <time>2016-10-15T09:19:40Z</time>
      </trkpt>
      <trkpt lat="42.486207000" lon="-2.445613000">
        <ele>400.30</ele>
        <time>2016-10-15T09:19:41Z</time>
      </trkpt>
      <trkpt lat="42.486146000" lon="-2.445656000">
        <ele>400.50</ele>
        <time>2016-10-15T09:19:42Z</time>
      </trkpt>
      <trkpt lat="42.486086000" lon="-2.445699000">
        <ele>400.50</ele>
        <time>2016-10-15T09:19:43Z</time>
      </trkpt>
      <trkpt lat="42.486026000" lon="-2.445741000">
        <ele>400.50</ele>
        <time>2016-10-15T09:19:44Z</time>
      </trkpt>
      <trkpt lat="42.485967000" lon="-2.445781000">
        <ele>400.60</ele>
        <time>2016-10-15T09:19:45Z</time>
      </trkpt>
      <trkpt lat="42.485907000" lon="-2.445822000">
        <ele>400.80</ele>
        <time>2016-10-15T09:19:46Z</time>
      </trkpt>
      <trkpt lat="42.485846000" lon="-2.445860000">
        <ele>400.70</ele>
        <time>2016-10-15T09:19:47Z</time>
      </trkpt>
      <trkpt lat="42.485784000" lon="-2.445897000">
        <ele>400.70</ele>
        <time>2016-10-15T09:19:48Z</time>
      </trkpt>
      <trkpt lat="42.485722000" lon="-2.445931000">
        <ele>400.80</ele>
        <time>2016-10-15T09:19:49Z</time>
      </trkpt>
      <trkpt lat="42.485658000" lon="-2.445957000">
        <ele>401.00</ele>
        <time>2016-10-15T09:19:50Z</time>
      </trkpt>
      <trkpt lat="42.485593000" lon="-2.445976000">
        <ele>400.90</ele>
        <time>2016-10-15T09:19:51Z</time>
      </trkpt>
      <trkpt lat="42.485528000" lon="-2.445992000">
        <ele>400.80</ele>
        <time>2016-10-15T09:19:52Z</time>
      </trkpt>
      <trkpt lat="42.485460000" lon="-2.446010000">
        <ele>400.30</ele>
        <time>2016-10-15T09:19:53Z</time>
      </trkpt>
      <trkpt lat="42.485393000" lon="-2.446029000">
        <ele>400.00</ele>
        <time>2016-10-15T09:19:54Z</time>
      </trkpt>
      <trkpt lat="42.485327000" lon="-2.446051000">
        <ele>399.70</ele>
        <time>2016-10-15T09:19:55Z</time>
      </trkpt>
      <trkpt lat="42.485259000" lon="-2.446069000">
        <ele>399.50</ele>
        <time>2016-10-15T09:19:56Z</time>
      </trkpt>
      <trkpt lat="42.485190000" lon="-2.446085000">
        <ele>399.40</ele>
        <time>2016-10-15T09:19:57Z</time>
      </trkpt>
      <trkpt lat="42.485125000" lon="-2.446096000">
        <ele>399.40</ele>
        <time>2016-10-15T09:19:58Z</time>
      </trkpt>
      <trkpt lat="42.485059000" lon="-2.446101000">
        <ele>399.40</ele>
        <time>2016-10-15T09:19:59Z</time>
      </trkpt>
      <trkpt lat="42.484996000" lon="-2.446105000">
        <ele>399.50</ele>
        <time>2016-10-15T09:20:00Z</time>
      </trkpt>
      <trkpt lat="42.484931000" lon="-2.446111000">
        <ele>399.40</ele>
        <time>2016-10-15T09:20:01Z</time>
      </trkpt>
      <trkpt lat="42.484866000" lon="-2.446118000">
        <ele>399.40</ele>
        <time>2016-10-15T09:20:02Z</time>
      </trkpt>
      <trkpt lat="42.484801000" lon="-2.446118000">
        <ele>399.40</ele>
        <time>2016-10-15T09:20:03Z</time>
      </trkpt>
      <trkpt lat="42.484738000" lon="-2.446116000">
        <ele>399.50</ele>
        <time>2016-10-15T09:20:04Z</time>
      </trkpt>
      <trkpt lat="42.484680000" lon="-2.446111000">
        <ele>399.50</ele>
        <time>2016-10-15T09:20:05Z</time>
      </trkpt>
      <trkpt lat="42.484621000" lon="-2.446103000">
        <ele>399.50</ele>
        <time>2016-10-15T09:20:06Z</time>
      </trkpt>
      <trkpt lat="42.484566000" lon="-2.446099000">
        <ele>399.60</ele>
        <time>2016-10-15T09:20:07Z</time>
      </trkpt>
      <trkpt lat="42.484511000" lon="-2.446099000">
        <ele>399.60</ele>
        <time>2016-10-15T09:20:08Z</time>
      </trkpt>
      <trkpt lat="42.484458000" lon="-2.446105000">
        <ele>399.80</ele>
        <time>2016-10-15T09:20:09Z</time>
      </trkpt>
      <trkpt lat="42.484405000" lon="-2.446110000">
        <ele>399.90</ele>
        <time>2016-10-15T09:20:10Z</time>
      </trkpt>
      <trkpt lat="42.484352000" lon="-2.446125000">
        <ele>400.30</ele>
        <time>2016-10-15T09:20:11Z</time>
      </trkpt>
      <trkpt lat="42.484301000" lon="-2.446139000">
        <ele>400.60</ele>
        <time>2016-10-15T09:20:12Z</time>
      </trkpt>
      <trkpt lat="42.484245000" lon="-2.446156000">
        <ele>400.80</ele>
        <time>2016-10-15T09:20:13Z</time>
      </trkpt>
      <trkpt lat="42.484188000" lon="-2.446173000">
        <ele>401.00</ele>
        <time>2016-10-15T09:20:14Z</time>
      </trkpt>
      <trkpt lat="42.484129000" lon="-2.446195000">
        <ele>401.00</ele>
        <time>2016-10-15T09:20:15Z</time>
      </trkpt>
      <trkpt lat="42.484068000" lon="-2.446217000">
        <ele>401.00</ele>
        <time>2016-10-15T09:20:16Z</time>
      </trkpt>
      <trkpt lat="42.484006000" lon="-2.446240000">
        <ele>401.00</ele>
        <time>2016-10-15T09:20:17Z</time>
      </trkpt>
      <trkpt lat="42.483944000" lon="-2.446259000">
        <ele>400.90</ele>
        <time>2016-10-15T09:20:18Z</time>
      </trkpt>
      <trkpt lat="42.483880000" lon="-2.446275000">
        <ele>400.90</ele>
        <time>2016-10-15T09:20:19Z</time>
      </trkpt>
      <trkpt lat="42.483816000" lon="-2.446289000">
        <ele>400.90</ele>
        <time>2016-10-15T09:20:20Z</time>
      </trkpt>
      <trkpt lat="42.483755000" lon="-2.446296000">
        <ele>400.90</ele>
        <time>2016-10-15T09:20:21Z</time>
      </trkpt>
      <trkpt lat="42.483626000" lon="-2.446314000">
        <ele>401.10</ele>
        <time>2016-10-15T09:20:23Z</time>
      </trkpt>
      <trkpt lat="42.483560000" lon="-2.446318000">
        <ele>400.90</ele>
        <time>2016-10-15T09:20:24Z</time>
      </trkpt>
      <trkpt lat="42.483494000" lon="-2.446314000">
        <ele>400.80</ele>
        <time>2016-10-15T09:20:25Z</time>
      </trkpt>
      <trkpt lat="42.483428000" lon="-2.446304000">
        <ele>400.40</ele>
        <time>2016-10-15T09:20:26Z</time>
      </trkpt>
      <trkpt lat="42.483362000" lon="-2.446294000">
        <ele>400.10</ele>
        <time>2016-10-15T09:20:27Z</time>
      </trkpt>
      <trkpt lat="42.483300000" lon="-2.446282000">
        <ele>399.90</ele>
        <time>2016-10-15T09:20:28Z</time>
      </trkpt>
      <trkpt lat="42.483237000" lon="-2.446271000">
        <ele>399.70</ele>
        <time>2016-10-15T09:20:29Z</time>
      </trkpt>
      <trkpt lat="42.483174000" lon="-2.446255000">
        <ele>399.60</ele>
        <time>2016-10-15T09:20:30Z</time>
      </trkpt>
      <trkpt lat="42.483113000" lon="-2.446240000">
        <ele>399.50</ele>
        <time>2016-10-15T09:20:31Z</time>
      </trkpt>
      <trkpt lat="42.483052000" lon="-2.446217000">
        <ele>399.50</ele>
        <time>2016-10-15T09:20:32Z</time>
      </trkpt>
      <trkpt lat="42.482991000" lon="-2.446191000">
        <ele>399.50</ele>
        <time>2016-10-15T09:20:33Z</time>
      </trkpt>
      <trkpt lat="42.482929000" lon="-2.446164000">
        <ele>399.60</ele>
        <time>2016-10-15T09:20:34Z</time>
      </trkpt>
      <trkpt lat="42.482871000" lon="-2.446125000">
        <ele>399.70</ele>
        <time>2016-10-15T09:20:35Z</time>
      </trkpt>
      <trkpt lat="42.482819000" lon="-2.446079000">
        <ele>399.80</ele>
        <time>2016-10-15T09:20:36Z</time>
      </trkpt>
      <trkpt lat="42.482766000" lon="-2.446031000">
        <ele>399.80</ele>
        <time>2016-10-15T09:20:37Z</time>
      </trkpt>
      <trkpt lat="42.482711000" lon="-2.445979000">
        <ele>400.00</ele>
        <time>2016-10-15T09:20:38Z</time>
      </trkpt>
      <trkpt lat="42.482658000" lon="-2.445931000">
        <ele>400.10</ele>
        <time>2016-10-15T09:20:39Z</time>
      </trkpt>
      <trkpt lat="42.482603000" lon="-2.445889000">
        <ele>400.20</ele>
        <time>2016-10-15T09:20:40Z</time>
      </trkpt>
      <trkpt lat="42.482547000" lon="-2.445852000">
        <ele>400.30</ele>
        <time>2016-10-15T09:20:41Z</time>
      </trkpt>
      <trkpt lat="42.482490000" lon="-2.445816000">
        <ele>400.40</ele>
        <time>2016-10-15T09:20:42Z</time>
      </trkpt>
      <trkpt lat="42.482433000" lon="-2.445779000">
        <ele>400.50</ele>
        <time>2016-10-15T09:20:43Z</time>
      </trkpt>
      <trkpt lat="42.482375000" lon="-2.445742000">
        <ele>400.30</ele>
        <time>2016-10-15T09:20:44Z</time>
      </trkpt>
      <trkpt lat="42.482316000" lon="-2.445705000">
        <ele>400.20</ele>
        <time>2016-10-15T09:20:45Z</time>
      </trkpt>
      <trkpt lat="42.482260000" lon="-2.445663000">
        <ele>400.20</ele>
        <time>2016-10-15T09:20:46Z</time>
      </trkpt>
      <trkpt lat="42.482204000" lon="-2.445626000">
        <ele>400.10</ele>
        <time>2016-10-15T09:20:47Z</time>
      </trkpt>
      <trkpt lat="42.482148000" lon="-2.445591000">
        <ele>400.00</ele>
        <time>2016-10-15T09:20:48Z</time>
      </trkpt>
      <trkpt lat="42.482087000" lon="-2.445562000">
        <ele>400.00</ele>
        <time>2016-10-15T09:20:49Z</time>
      </trkpt>
      <trkpt lat="42.482029000" lon="-2.445535000">
        <ele>400.20</ele>
        <time>2016-10-15T09:20:50Z</time>
      </trkpt>
      <trkpt lat="42.481970000" lon="-2.445508000">
        <ele>400.30</ele>
        <time>2016-10-15T09:20:51Z</time>
      </trkpt>
      <trkpt lat="42.481909000" lon="-2.445479000">
        <ele>400.40</ele>
        <time>2016-10-15T09:20:52Z</time>
      </trkpt>
      <trkpt lat="42.481847000" lon="-2.445453000">
        <ele>400.40</ele>
        <time>2016-10-15T09:20:53Z</time>
      </trkpt>
      <trkpt lat="42.481786000" lon="-2.445428000">
        <ele>400.20</ele>
        <time>2016-10-15T09:20:54Z</time>
      </trkpt>
      <trkpt lat="42.481727000" lon="-2.445402000">
        <ele>400.00</ele>
        <time>2016-10-15T09:20:55Z</time>
      </trkpt>
      <trkpt lat="42.481668000" lon="-2.445376000">
        <ele>399.80</ele>
        <time>2016-10-15T09:20:56Z</time>
      </trkpt>
      <trkpt lat="42.481611000" lon="-2.445352000">
        <ele>399.70</ele>
        <time>2016-10-15T09:20:57Z</time>
      </trkpt>
      <trkpt lat="42.481554000" lon="-2.445328000">
        <ele>399.50</ele>
        <time>2016-10-15T09:20:58Z</time>
      </trkpt>
      <trkpt lat="42.481495000" lon="-2.445305000">
        <ele>399.40</ele>
        <time>2016-10-15T09:20:59Z</time>
      </trkpt>
      <trkpt lat="42.481432000" lon="-2.445290000">
        <ele>399.30</ele>
        <time>2016-10-15T09:21:00Z</time>
      </trkpt>
      <trkpt lat="42.481369000" lon="-2.445270000">
        <ele>399.20</ele>
        <time>2016-10-15T09:21:01Z</time>
      </trkpt>
      <trkpt lat="42.481306000" lon="-2.445248000">
        <ele>399.20</ele>
        <time>2016-10-15T09:21:02Z</time>
      </trkpt>
      <trkpt lat="42.481243000" lon="-2.445227000">
        <ele>399.10</ele>
        <time>2016-10-15T09:21:03Z</time>
      </trkpt>
      <trkpt lat="42.481178000" lon="-2.445211000">
        <ele>398.70</ele>
        <time>2016-10-15T09:21:04Z</time>
      </trkpt>
      <trkpt lat="42.481112000" lon="-2.445190000">
        <ele>398.40</ele>
        <time>2016-10-15T09:21:05Z</time>
      </trkpt>
      <trkpt lat="42.481044000" lon="-2.445170000">
        <ele>398.20</ele>
        <time>2016-10-15T09:21:06Z</time>
      </trkpt>
      <trkpt lat="42.480977000" lon="-2.445149000">
        <ele>398.00</ele>
        <time>2016-10-15T09:21:07Z</time>
      </trkpt>
      <trkpt lat="42.480906000" lon="-2.445129000">
        <ele>397.80</ele>
        <time>2016-10-15T09:21:08Z</time>
      </trkpt>
      <trkpt lat="42.480835000" lon="-2.445108000">
        <ele>397.60</ele>
        <time>2016-10-15T09:21:09Z</time>
      </trkpt>
      <trkpt lat="42.480759000" lon="-2.445087000">
        <ele>397.20</ele>
        <time>2016-10-15T09:21:10Z</time>
      </trkpt>
      <trkpt lat="42.480677000" lon="-2.445070000">
        <ele>396.90</ele>
        <time>2016-10-15T09:21:11Z</time>
      </trkpt>
      <trkpt lat="42.480595000" lon="-2.445054000">
        <ele>396.60</ele>
        <time>2016-10-15T09:21:12Z</time>
      </trkpt>
      <trkpt lat="42.480506000" lon="-2.445040000">
        <ele>396.40</ele>
        <time>2016-10-15T09:21:13Z</time>
      </trkpt>
      <trkpt lat="42.480413000" lon="-2.445025000">
        <ele>395.40</ele>
        <time>2016-10-15T09:21:14Z</time>
      </trkpt>
      <trkpt lat="42.480314000" lon="-2.445025000">
        <ele>394.60</ele>
        <time>2016-10-15T09:21:15Z</time>
      </trkpt>
      <trkpt lat="42.480211000" lon="-2.445049000">
        <ele>393.80</ele>
        <time>2016-10-15T09:21:16Z</time>
      </trkpt>
      <trkpt lat="42.480105000" lon="-2.445080000">
        <ele>393.20</ele>
        <time>2016-10-15T09:21:17Z</time>
      </trkpt>
      <trkpt lat="42.480000000" lon="-2.445121000">
        <ele>391.90</ele>
        <time>2016-10-15T09:21:18Z</time>
      </trkpt>
      <trkpt lat="42.479893000" lon="-2.445165000">
        <ele>391.00</ele>
        <time>2016-10-15T09:21:19Z</time>
      </trkpt>
      <trkpt lat="42.479786000" lon="-2.445212000">
        <ele>390.20</ele>
        <time>2016-10-15T09:21:20Z</time>
      </trkpt>
      <trkpt lat="42.479677000" lon="-2.445262000">
        <ele>389.60</ele>
        <time>2016-10-15T09:21:21Z</time>
      </trkpt>
      <trkpt lat="42.479570000" lon="-2.445311000">
        <ele>388.20</ele>
        <time>2016-10-15T09:21:22Z</time>
      </trkpt>
      <trkpt lat="42.479371000" lon="-2.445423000">
        <ele>386.50</ele>
        <time>2016-10-15T09:21:24Z</time>
      </trkpt>
      <trkpt lat="42.479274000" lon="-2.445484000">
        <ele>385.90</ele>
        <time>2016-10-15T09:21:25Z</time>
      </trkpt>
      <trkpt lat="42.479181000" lon="-2.445553000">
        <ele>385.40</ele>
        <time>2016-10-15T09:21:26Z</time>
      </trkpt>
      <trkpt lat="42.479084000" lon="-2.445605000">
        <ele>384.90</ele>
        <time>2016-10-15T09:21:27Z</time>
      </trkpt>
      <trkpt lat="42.478982000" lon="-2.445625000">
        <ele>384.50</ele>
        <time>2016-10-15T09:21:28Z</time>
      </trkpt>
      <trkpt lat="42.478876000" lon="-2.445626000">
        <ele>384.10</ele>
        <time>2016-10-15T09:21:29Z</time>
      </trkpt>
      <trkpt lat="42.478772000" lon="-2.445610000">
        <ele>383.80</ele>
        <time>2016-10-15T09:21:30Z</time>
      </trkpt>
      <trkpt lat="42.478668000" lon="-2.445581000">
        <ele>383.60</ele>
        <time>2016-10-15T09:21:31Z</time>
      </trkpt>
      <trkpt lat="42.478565000" lon="-2.445558000">
        <ele>383.30</ele>
        <time>2016-10-15T09:21:32Z</time>
      </trkpt>
      <trkpt lat="42.478466000" lon="-2.445534000">
        <ele>383.10</ele>
        <time>2016-10-15T09:21:33Z</time>
      </trkpt>
      <trkpt lat="42.478368000" lon="-2.445514000">
        <ele>382.70</ele>
        <time>2016-10-15T09:21:34Z</time>
      </trkpt>
      <trkpt lat="42.478268000" lon="-2.445500000">
        <ele>382.40</ele>
        <time>2016-10-15T09:21:35Z</time>
      </trkpt>
      <trkpt lat="42.478171000" lon="-2.445491000">
        <ele>381.90</ele>
        <time>2016-10-15T09:21:36Z</time>
      </trkpt>
      <trkpt lat="42.478076000" lon="-2.445488000">
        <ele>381.60</ele>
        <time>2016-10-15T09:21:37Z</time>
      </trkpt>
      <trkpt lat="42.477992000" lon="-2.445486000">
        <ele>381.50</ele>
        <time>2016-10-15T09:21:38Z</time>
      </trkpt>
      <trkpt lat="42.477911000" lon="-2.445486000">
        <ele>381.40</ele>
        <time>2016-10-15T09:21:39Z</time>
      </trkpt>
      <trkpt lat="42.477832000" lon="-2.445487000">
        <ele>381.20</ele>
        <time>2016-10-15T09:21:40Z</time>
      </trkpt>
      <trkpt lat="42.477752000" lon="-2.445479000">
        <ele>381.00</ele>
        <time>2016-10-15T09:21:41Z</time>
      </trkpt>
      <trkpt lat="42.477673000" lon="-2.445467000">
        <ele>380.90</ele>
        <time>2016-10-15T09:21:42Z</time>
      </trkpt>
      <trkpt lat="42.477597000" lon="-2.445464000">
        <ele>380.80</ele>
        <time>2016-10-15T09:21:43Z</time>
      </trkpt>
      <trkpt lat="42.477522000" lon="-2.445464000">
        <ele>380.70</ele>
        <time>2016-10-15T09:21:44Z</time>
      </trkpt>
      <trkpt lat="42.477452000" lon="-2.445468000">
        <ele>380.60</ele>
        <time>2016-10-15T09:21:45Z</time>
      </trkpt>
      <trkpt lat="42.477382000" lon="-2.445467000">
        <ele>380.60</ele>
        <time>2016-10-15T09:21:46Z</time>
      </trkpt>
      <trkpt lat="42.477313000" lon="-2.445465000">
        <ele>380.50</ele>
        <time>2016-10-15T09:21:47Z</time>
      </trkpt>
      <trkpt lat="42.477246000" lon="-2.445458000">
        <ele>380.40</ele>
        <time>2016-10-15T09:21:48Z</time>
      </trkpt>
      <trkpt lat="42.477177000" lon="-2.445453000">
        <ele>380.40</ele>
        <time>2016-10-15T09:21:49Z</time>
      </trkpt>
      <trkpt lat="42.477109000" lon="-2.445449000">
        <ele>380.20</ele>
        <time>2016-10-15T09:21:50Z</time>
      </trkpt>
      <trkpt lat="42.477041000" lon="-2.445451000">
        <ele>380.00</ele>
        <time>2016-10-15T09:21:51Z</time>
      </trkpt>
      <trkpt lat="42.476975000" lon="-2.445454000">
        <ele>379.90</ele>
        <time>2016-10-15T09:21:52Z</time>
      </trkpt>
      <trkpt lat="42.476909000" lon="-2.445460000">
        <ele>379.80</ele>
        <time>2016-10-15T09:21:53Z</time>
      </trkpt>
      <trkpt lat="42.476843000" lon="-2.445462000">
        <ele>379.80</ele>
        <time>2016-10-15T09:21:54Z</time>
      </trkpt>
      <trkpt lat="42.476781000" lon="-2.445465000">
        <ele>379.70</ele>
        <time>2016-10-15T09:21:55Z</time>
      </trkpt>
      <trkpt lat="42.476720000" lon="-2.445467000">
        <ele>379.40</ele>
        <time>2016-10-15T09:21:56Z</time>
      </trkpt>
      <trkpt lat="42.476663000" lon="-2.445466000">
        <ele>379.20</ele>
        <time>2016-10-15T09:21:57Z</time>
      </trkpt>
      <trkpt lat="42.476610000" lon="-2.445470000">
        <ele>379.00</ele>
        <time>2016-10-15T09:21:58Z</time>
      </trkpt>
      <trkpt lat="42.476557000" lon="-2.445472000">
        <ele>378.90</ele>
        <time>2016-10-15T09:21:59Z</time>
      </trkpt>
      <trkpt lat="42.476507000" lon="-2.445475000">
        <ele>378.80</ele>
        <time>2016-10-15T09:22:00Z</time>
      </trkpt>
      <trkpt lat="42.476467000" lon="-2.445478000">
        <ele>378.80</ele>
        <time>2016-10-15T09:22:01Z</time>
      </trkpt>
      <trkpt lat="42.476437000" lon="-2.445483000">
        <ele>378.70</ele>
        <time>2016-10-15T09:22:02Z</time>
      </trkpt>
      <trkpt lat="42.476410000" lon="-2.445485000">
        <ele>378.70</ele>
        <time>2016-10-15T09:22:03Z</time>
      </trkpt>
      <trkpt lat="42.476388000" lon="-2.445487000">
        <ele>378.60</ele>
        <time>2016-10-15T09:22:04Z</time>
      </trkpt>
      <trkpt lat="42.476370000" lon="-2.445502000">
        <ele>378.50</ele>
        <time>2016-10-15T09:22:05Z</time>
      </trkpt>
      <trkpt lat="42.476359000" lon="-2.445528000">
        <ele>378.60</ele>
        <time>2016-10-15T09:22:06Z</time>
      </trkpt>
      <trkpt lat="42.476353000" lon="-2.445558000">
        <ele>378.60</ele>
        <time>2016-10-15T09:22:07Z</time>
      </trkpt>
      <trkpt lat="42.476350000" lon="-2.445589000">
        <ele>378.40</ele>
        <time>2016-10-15T09:22:08Z</time>
      </trkpt>
      <trkpt lat="42.476349000" lon="-2.445624000">
        <ele>378.30</ele>
        <time>2016-10-15T09:22:09Z</time>
      </trkpt>
      <trkpt lat="42.476345000" lon="-2.445654000">
        <ele>378.30</ele>
        <time>2016-10-15T09:22:10Z</time>
      </trkpt>
      <trkpt lat="42.476338000" lon="-2.445671000">
        <ele>378.30</ele>
        <time>2016-10-15T09:22:11Z</time>
      </trkpt>
      <trkpt lat="42.476332000" lon="-2.445679000">
        <ele>378.20</ele>
        <time>2016-10-15T09:22:12Z</time>
      </trkpt>
      <trkpt lat="42.476326000" lon="-2.445688000">
        <ele>378.10</ele>
        <time>2016-10-15T09:22:13Z</time>
      </trkpt>
      <trkpt lat="42.476329000" lon="-2.445692000">
        <ele>378.10</ele>
        <time>2016-10-15T09:22:14Z</time>
      </trkpt>
      <trkpt lat="42.476328000" lon="-2.445693000">
        <ele>378.00</ele>
        <time>2016-10-15T09:22:15Z</time>
      </trkpt>
      <trkpt lat="42.476328000" lon="-2.445694000">
        <ele>377.90</ele>
        <time>2016-10-15T09:22:16Z</time>
      </trkpt>
      <trkpt lat="42.476327000" lon="-2.445696000">
        <ele>377.70</ele>
        <time>2016-10-15T09:22:17Z</time>
      </trkpt>
      <trkpt lat="42.476325000" lon="-2.445697000">
        <ele>377.80</ele>
        <time>2016-10-15T09:22:18Z</time>
      </trkpt>
      <trkpt lat="42.476324000" lon="-2.445698000">
        <ele>377.80</ele>
        <time>2016-10-15T09:22:19Z</time>
      </trkpt>
      <trkpt lat="42.476322000" lon="-2.445700000">
        <ele>377.60</ele>
        <time>2016-10-15T09:22:20Z</time>
      </trkpt>
      <trkpt lat="42.476322000" lon="-2.445701000">
        <ele>377.50</ele>
        <time>2016-10-15T09:22:21Z</time>
      </trkpt>
      <trkpt lat="42.476320000" lon="-2.445701000">
        <ele>377.40</ele>
        <time>2016-10-15T09:22:22Z</time>
      </trkpt>
      <trkpt lat="42.476319000" lon="-2.445701000">
        <ele>377.40</ele>
        <time>2016-10-15T09:22:23Z</time>
      </trkpt>
      <trkpt lat="42.476317000" lon="-2.445698000">
        <ele>377.40</ele>
        <time>2016-10-15T09:22:25Z</time>
      </trkpt>
      <trkpt lat="42.476317000" lon="-2.445697000">
        <ele>377.50</ele>
        <time>2016-10-15T09:22:26Z</time>
      </trkpt>
      <trkpt lat="42.476317000" lon="-2.445697000">
        <ele>377.60</ele>
        <time>2016-10-15T09:22:27Z</time>
      </trkpt>
      <trkpt lat="42.476318000" lon="-2.445698000">
        <ele>377.70</ele>
        <time>2016-10-15T09:22:28Z</time>
      </trkpt>
      <trkpt lat="42.476318000" lon="-2.445698000">
        <ele>377.70</ele>
        <time>2016-10-15T09:22:29Z</time>
      </trkpt>
      <trkpt lat="42.476318000" lon="-2.445699000">
        <ele>377.70</ele>
        <time>2016-10-15T09:22:30Z</time>
      </trkpt>
      <trkpt lat="42.476318000" lon="-2.445700000">
        <ele>377.80</ele>
        <time>2016-10-15T09:22:31Z</time>
      </trkpt>
      <trkpt lat="42.476318000" lon="-2.445700000">
        <ele>377.90</ele>
        <time>2016-10-15T09:22:32Z</time>
      </trkpt>
      <trkpt lat="42.476319000" lon="-2.445701000">
        <ele>377.90</ele>
        <time>2016-10-15T09:22:33Z</time>
      </trkpt>
      <trkpt lat="42.476319000" lon="-2.445702000">
        <ele>378.00</ele>
        <time>2016-10-15T09:22:34Z</time>
      </trkpt>
      <trkpt lat="42.476320000" lon="-2.445701000">
        <ele>378.00</ele>
        <time>2016-10-15T09:22:35Z</time>
      </trkpt>
      <trkpt lat="42.476321000" lon="-2.445699000">
        <ele>378.00</ele>
        <time>2016-10-15T09:22:36Z</time>
      </trkpt>
      <trkpt lat="42.476322000" lon="-2.445698000">
        <ele>378.00</ele>
        <time>2016-10-15T09:22:37Z</time>
      </trkpt>
      <trkpt lat="42.476323000" lon="-2.445696000">
        <ele>378.00</ele>
        <time>2016-10-15T09:22:38Z</time>
      </trkpt>
      <trkpt lat="42.476323000" lon="-2.445694000">
        <ele>378.00</ele>
        <time>2016-10-15T09:22:39Z</time>
      </trkpt>
      <trkpt lat="42.476325000" lon="-2.445693000">
        <ele>378.00</ele>
        <time>2016-10-15T09:22:40Z</time>
      </trkpt>
      <trkpt lat="42.476325000" lon="-2.445695000">
        <ele>378.00</ele>
        <time>2016-10-15T09:22:41Z</time>
      </trkpt>
      <trkpt lat="42.476326000" lon="-2.445697000">
        <ele>378.00</ele>
        <time>2016-10-15T09:22:42Z</time>
      </trkpt>
      <trkpt lat="42.476326000" lon="-2.445697000">
        <ele>378.00</ele>
        <time>2016-10-15T09:22:43Z</time>
      </trkpt>
      <trkpt lat="42.476326000" lon="-2.445698000">
        <ele>378.00</ele>
        <time>2016-10-15T09:22:44Z</time>
      </trkpt>
      <trkpt lat="42.476327000" lon="-2.445698000">
        <ele>378.00</ele>
        <time>2016-10-15T09:22:45Z</time>
      </trkpt>
      <trkpt lat="42.476326000" lon="-2.445698000">
        <ele>378.00</ele>
        <time>2016-10-15T09:22:46Z</time>
      </trkpt>
      <trkpt lat="42.476325000" lon="-2.445700000">
        <ele>377.90</ele>
        <time>2016-10-15T09:22:47Z</time>
      </trkpt>
      <trkpt lat="42.476324000" lon="-2.445701000">
        <ele>377.90</ele>
        <time>2016-10-15T09:22:48Z</time>
      </trkpt>
      <trkpt lat="42.476324000" lon="-2.445702000">
        <ele>377.80</ele>
        <time>2016-10-15T09:22:49Z</time>
      </trkpt>
      <trkpt lat="42.476325000" lon="-2.445704000">
        <ele>377.80</ele>
        <time>2016-10-15T09:22:50Z</time>
      </trkpt>
      <trkpt lat="42.476325000" lon="-2.445705000">
        <ele>377.80</ele>
        <time>2016-10-15T09:22:51Z</time>
      </trkpt>
      <trkpt lat="42.476326000" lon="-2.445706000">
        <ele>377.70</ele>
        <time>2016-10-15T09:22:52Z</time>
      </trkpt>
      <trkpt lat="42.476328000" lon="-2.445707000">
        <ele>377.70</ele>
        <time>2016-10-15T09:22:53Z</time>
      </trkpt>
      <trkpt lat="42.476328000" lon="-2.445707000">
        <ele>377.70</ele>
        <time>2016-10-15T09:22:54Z</time>
      </trkpt>
      <trkpt lat="42.476328000" lon="-2.445708000">
        <ele>377.70</ele>
        <time>2016-10-15T09:22:55Z</time>
      </trkpt>
      <trkpt lat="42.476328000" lon="-2.445708000">
        <ele>377.70</ele>
        <time>2016-10-15T09:22:56Z</time>
      </trkpt>
      <trkpt lat="42.476328000" lon="-2.445708000">
        <ele>377.60</ele>
        <time>2016-10-15T09:22:57Z</time>
      </trkpt>
      <trkpt lat="42.476328000" lon="-2.445707000">
        <ele>377.60</ele>
        <time>2016-10-15T09:22:58Z</time>
      </trkpt>
      <trkpt lat="42.476328000" lon="-2.445706000">
        <ele>377.60</ele>
        <time>2016-10-15T09:22:59Z</time>
      </trkpt>
      <trkpt lat="42.476328000" lon="-2.445705000">
        <ele>377.50</ele>
        <time>2016-10-15T09:23:00Z</time>
      </trkpt>
      <trkpt lat="42.476329000" lon="-2.445705000">
        <ele>377.40</ele>
        <time>2016-10-15T09:23:01Z</time>
      </trkpt>
      <trkpt lat="42.476330000" lon="-2.445704000">
        <ele>377.40</ele>
        <time>2016-10-15T09:23:02Z</time>
      </trkpt>
      <trkpt lat="42.476330000" lon="-2.445704000">
        <ele>377.40</ele>
        <time>2016-10-15T09:23:03Z</time>
      </trkpt>
      <trkpt lat="42.476331000" lon="-2.445704000">
        <ele>377.60</ele>
        <time>2016-10-15T09:23:04Z</time>
      </trkpt>
      <trkpt lat="42.476331000" lon="-2.445703000">
        <ele>377.70</ele>
        <time>2016-10-15T09:23:05Z</time>
      </trkpt>
      <trkpt lat="42.476331000" lon="-2.445703000">
        <ele>377.80</ele>
        <time>2016-10-15T09:23:06Z</time>
      </trkpt>
      <trkpt lat="42.476332000" lon="-2.445703000">
        <ele>377.90</ele>
        <time>2016-10-15T09:23:07Z</time>
      </trkpt>
      <trkpt lat="42.476332000" lon="-2.445703000">
        <ele>377.90</ele>
        <time>2016-10-15T09:23:08Z</time>
      </trkpt>
      <trkpt lat="42.476333000" lon="-2.445704000">
        <ele>377.90</ele>
        <time>2016-10-15T09:23:09Z</time>
      </trkpt>
      <trkpt lat="42.476333000" lon="-2.445704000">
        <ele>378.00</ele>
        <time>2016-10-15T09:23:10Z</time>
      </trkpt>
      <trkpt lat="42.476334000" lon="-2.445704000">
        <ele>378.20</ele>
        <time>2016-10-15T09:23:11Z</time>
      </trkpt>
      <trkpt lat="42.476334000" lon="-2.445702000">
        <ele>378.20</ele>
        <time>2016-10-15T09:23:12Z</time>
      </trkpt>
      <trkpt lat="42.476333000" lon="-2.445702000">
        <ele>378.20</ele>
        <time>2016-10-15T09:23:13Z</time>
      </trkpt>
      <trkpt lat="42.476332000" lon="-2.445702000">
        <ele>378.20</ele>
        <time>2016-10-15T09:23:14Z</time>
      </trkpt>
      <trkpt lat="42.476331000" lon="-2.445702000">
        <ele>378.20</ele>
        <time>2016-10-15T09:23:15Z</time>
      </trkpt>
      <trkpt lat="42.476331000" lon="-2.445703000">
        <ele>378.20</ele>
        <time>2016-10-15T09:23:16Z</time>
      </trkpt>
      <trkpt lat="42.476331000" lon="-2.445703000">
        <ele>378.20</ele>
        <time>2016-10-15T09:23:17Z</time>
      </trkpt>
      <trkpt lat="42.476330000" lon="-2.445703000">
        <ele>378.20</ele>
        <time>2016-10-15T09:23:18Z</time>
      </trkpt>
      <trkpt lat="42.476330000" lon="-2.445703000">
        <ele>378.20</ele>
        <time>2016-10-15T09:23:19Z</time>
      </trkpt>
      <trkpt lat="42.476329000" lon="-2.445703000">
        <ele>378.10</ele>
        <time>2016-10-15T09:23:20Z</time>
      </trkpt>
      <trkpt lat="42.476330000" lon="-2.445703000">
        <ele>378.10</ele>
        <time>2016-10-15T09:23:21Z</time>
      </trkpt>
      <trkpt lat="42.476330000" lon="-2.445703000">
        <ele>378.00</ele>
        <time>2016-10-15T09:23:22Z</time>
      </trkpt>
      <trkpt lat="42.476332000" lon="-2.445707000">
        <ele>378.00</ele>
        <time>2016-10-15T09:23:23Z</time>
      </trkpt>
      <trkpt lat="42.476334000" lon="-2.445715000">
        <ele>378.00</ele>
        <time>2016-10-15T09:23:24Z</time>
      </trkpt>
      <trkpt lat="42.476331000" lon="-2.445762000">
        <ele>377.80</ele>
        <time>2016-10-15T09:23:26Z</time>
      </trkpt>
      <trkpt lat="42.476329000" lon="-2.445789000">
        <ele>377.70</ele>
        <time>2016-10-15T09:23:27Z</time>
      </trkpt>
      <trkpt lat="42.476323000" lon="-2.445814000">
        <ele>377.70</ele>
        <time>2016-10-15T09:23:28Z</time>
      </trkpt>
      <trkpt lat="42.476320000" lon="-2.445846000">
        <ele>377.60</ele>
        <time>2016-10-15T09:23:29Z</time>
      </trkpt>
      <trkpt lat="42.476318000" lon="-2.445883000">
        <ele>377.60</ele>
        <time>2016-10-15T09:23:30Z</time>
      </trkpt>
      <trkpt lat="42.476312000" lon="-2.445921000">
        <ele>377.50</ele>
        <time>2016-10-15T09:23:31Z</time>
      </trkpt>
      <trkpt lat="42.476306000" lon="-2.445963000">
        <ele>377.60</ele>
        <time>2016-10-15T09:23:32Z</time>
      </trkpt>
      <trkpt lat="42.476297000" lon="-2.446006000">
        <ele>377.60</ele>
        <time>2016-10-15T09:23:33Z</time>
      </trkpt>
      <trkpt lat="42.476288000" lon="-2.446051000">
        <ele>377.60</ele>
        <time>2016-10-15T09:23:34Z</time>
      </trkpt>
      <trkpt lat="42.476280000" lon="-2.446098000">
        <ele>377.60</ele>
        <time>2016-10-15T09:23:35Z</time>
      </trkpt>
      <trkpt lat="42.476273000" lon="-2.446148000">
        <ele>377.40</ele>
        <time>2016-10-15T09:23:36Z</time>
      </trkpt>
      <trkpt lat="42.476266000" lon="-2.446199000">
        <ele>377.30</ele>
        <time>2016-10-15T09:23:37Z</time>
      </trkpt>
      <trkpt lat="42.476258000" lon="-2.446252000">
        <ele>377.10</ele>
        <time>2016-10-15T09:23:38Z</time>
      </trkpt>
      <trkpt lat="42.476249000" lon="-2.446302000">
        <ele>377.00</ele>
        <time>2016-10-15T09:23:39Z</time>
      </trkpt>
      <trkpt lat="42.476241000" lon="-2.446354000">
        <ele>376.90</ele>
        <time>2016-10-15T09:23:40Z</time>
      </trkpt>
      <trkpt lat="42.476235000" lon="-2.446408000">
        <ele>376.90</ele>
        <time>2016-10-15T09:23:41Z</time>
      </trkpt>
      <trkpt lat="42.476232000" lon="-2.446463000">
        <ele>376.80</ele>
        <time>2016-10-15T09:23:42Z</time>
      </trkpt>
      <trkpt lat="42.476226000" lon="-2.446516000">
        <ele>376.80</ele>
        <time>2016-10-15T09:23:43Z</time>
      </trkpt>
      <trkpt lat="42.476220000" lon="-2.446570000">
        <ele>376.60</ele>
        <time>2016-10-15T09:23:44Z</time>
      </trkpt>
      <trkpt lat="42.476216000" lon="-2.446625000">
        <ele>376.40</ele>
        <time>2016-10-15T09:23:45Z</time>
      </trkpt>
      <trkpt lat="42.476213000" lon="-2.446681000">
        <ele>376.30</ele>
        <time>2016-10-15T09:23:46Z</time>
      </trkpt>
      <trkpt lat="42.476211000" lon="-2.446738000">
        <ele>376.20</ele>
        <time>2016-10-15T09:23:47Z</time>
      </trkpt>
      <trkpt lat="42.476207000" lon="-2.446795000">
        <ele>376.30</ele>
        <time>2016-10-15T09:23:48Z</time>
      </trkpt>
      <trkpt lat="42.476205000" lon="-2.446852000">
        <ele>376.40</ele>
        <time>2016-10-15T09:23:49Z</time>
      </trkpt>
      <trkpt lat="42.476203000" lon="-2.446909000">
        <ele>376.50</ele>
        <time>2016-10-15T09:23:50Z</time>
      </trkpt>
      <trkpt lat="42.476196000" lon="-2.446966000">
        <ele>376.50</ele>
        <time>2016-10-15T09:23:51Z</time>
      </trkpt>
      <trkpt lat="42.476191000" lon="-2.447024000">
        <ele>376.30</ele>
        <time>2016-10-15T09:23:52Z</time>
      </trkpt>
      <trkpt lat="42.476189000" lon="-2.447083000">
        <ele>376.20</ele>
        <time>2016-10-15T09:23:53Z</time>
      </trkpt>
      <trkpt lat="42.476189000" lon="-2.447142000">
        <ele>376.00</ele>
        <time>2016-10-15T09:23:54Z</time>
      </trkpt>
      <trkpt lat="42.476187000" lon="-2.447203000">
        <ele>376.00</ele>
        <time>2016-10-15T09:23:55Z</time>
      </trkpt>
      <trkpt lat="42.476184000" lon="-2.447263000">
        <ele>375.80</ele>
        <time>2016-10-15T09:23:56Z</time>
      </trkpt>
      <trkpt lat="42.476184000" lon="-2.447324000">
        <ele>375.60</ele>
        <time>2016-10-15T09:23:57Z</time>
      </trkpt>
      <trkpt lat="42.476185000" lon="-2.447386000">
        <ele>375.30</ele>
        <time>2016-10-15T09:23:58Z</time>
      </trkpt>
      <trkpt lat="42.476184000" lon="-2.447446000">
        <ele>375.10</ele>
        <time>2016-10-15T09:23:59Z</time>
      </trkpt>
      <trkpt lat="42.476188000" lon="-2.447510000">
        <ele>374.90</ele>
        <time>2016-10-15T09:24:00Z</time>
      </trkpt>
      <trkpt lat="42.476193000" lon="-2.447576000">
        <ele>374.80</ele>
        <time>2016-10-15T09:24:01Z</time>
      </trkpt>
      <trkpt lat="42.476197000" lon="-2.447638000">
        <ele>374.80</ele>
        <time>2016-10-15T09:24:02Z</time>
      </trkpt>
      <trkpt lat="42.476201000" lon="-2.447698000">
        <ele>374.80</ele>
        <time>2016-10-15T09:24:03Z</time>
      </trkpt>
      <trkpt lat="42.476205000" lon="-2.447761000">
        <ele>374.90</ele>
        <time>2016-10-15T09:24:04Z</time>
      </trkpt>
      <trkpt lat="42.476208000" lon="-2.447826000">
        <ele>374.90</ele>
        <time>2016-10-15T09:24:05Z</time>
      </trkpt>
      <trkpt lat="42.476212000" lon="-2.447893000">
        <ele>374.90</ele>
        <time>2016-10-15T09:24:06Z</time>
      </trkpt>
      <trkpt lat="42.476218000" lon="-2.447959000">
        <ele>374.90</ele>
        <time>2016-10-15T09:24:07Z</time>
      </trkpt>
      <trkpt lat="42.476219000" lon="-2.448026000">
        <ele>374.80</ele>
        <time>2016-10-15T09:24:08Z</time>
      </trkpt>
      <trkpt lat="42.476222000" lon="-2.448094000">
        <ele>374.70</ele>
        <time>2016-10-15T09:24:09Z</time>
      </trkpt>
      <trkpt lat="42.476230000" lon="-2.448161000">
        <ele>374.70</ele>
        <time>2016-10-15T09:24:10Z</time>
      </trkpt>
      <trkpt lat="42.476241000" lon="-2.448224000">
        <ele>374.80</ele>
        <time>2016-10-15T09:24:11Z</time>
      </trkpt>
      <trkpt lat="42.476255000" lon="-2.448282000">
        <ele>374.80</ele>
        <time>2016-10-15T09:24:12Z</time>
      </trkpt>
      <trkpt lat="42.476271000" lon="-2.448342000">
        <ele>374.80</ele>
        <time>2016-10-15T09:24:13Z</time>
      </trkpt>
      <trkpt lat="42.476292000" lon="-2.448404000">
        <ele>374.90</ele>
        <time>2016-10-15T09:24:14Z</time>
      </trkpt>
      <trkpt lat="42.476310000" lon="-2.448461000">
        <ele>374.90</ele>
        <time>2016-10-15T09:24:15Z</time>
      </trkpt>
      <trkpt lat="42.476330000" lon="-2.448514000">
        <ele>374.80</ele>
        <time>2016-10-15T09:24:16Z</time>
      </trkpt>
      <trkpt lat="42.476355000" lon="-2.448566000">
        <ele>374.80</ele>
        <time>2016-10-15T09:24:17Z</time>
      </trkpt>
      <trkpt lat="42.476380000" lon="-2.448617000">
        <ele>374.80</ele>
        <time>2016-10-15T09:24:18Z</time>
      </trkpt>
      <trkpt lat="42.476405000" lon="-2.448666000">
        <ele>374.70</ele>
        <time>2016-10-15T09:24:19Z</time>
      </trkpt>
      <trkpt lat="42.476432000" lon="-2.448715000">
        <ele>374.90</ele>
        <time>2016-10-15T09:24:20Z</time>
      </trkpt>
      <trkpt lat="42.476460000" lon="-2.448764000">
        <ele>375.00</ele>
        <time>2016-10-15T09:24:21Z</time>
      </trkpt>
      <trkpt lat="42.476481000" lon="-2.448817000">
        <ele>375.00</ele>
        <time>2016-10-15T09:24:22Z</time>
      </trkpt>
      <trkpt lat="42.476494000" lon="-2.448874000">
        <ele>375.10</ele>
        <time>2016-10-15T09:24:23Z</time>
      </trkpt>
      <trkpt lat="42.476503000" lon="-2.448934000">
        <ele>375.10</ele>
        <time>2016-10-15T09:24:24Z</time>
      </trkpt>
      <trkpt lat="42.476503000" lon="-2.448996000">
        <ele>375.20</ele>
        <time>2016-10-15T09:24:25Z</time>
      </trkpt>
      <trkpt lat="42.476487000" lon="-2.449124000">
        <ele>375.10</ele>
        <time>2016-10-15T09:24:27Z</time>
      </trkpt>
      <trkpt lat="42.476467000" lon="-2.449184000">
        <ele>374.90</ele>
        <time>2016-10-15T09:24:28Z</time>
      </trkpt>
      <trkpt lat="42.476446000" lon="-2.449244000">
        <ele>374.80</ele>
        <time>2016-10-15T09:24:29Z</time>
      </trkpt>
      <trkpt lat="42.476429000" lon="-2.449306000">
        <ele>374.70</ele>
        <time>2016-10-15T09:24:30Z</time>
      </trkpt>
      <trkpt lat="42.476414000" lon="-2.449373000">
        <ele>374.70</ele>
        <time>2016-10-15T09:24:31Z</time>
      </trkpt>
      <trkpt lat="42.476404000" lon="-2.449441000">
        <ele>374.60</ele>
        <time>2016-10-15T09:24:32Z</time>
      </trkpt>
      <trkpt lat="42.476397000" lon="-2.449508000">
        <ele>374.50</ele>
        <time>2016-10-15T09:24:33Z</time>
      </trkpt>
      <trkpt lat="42.476391000" lon="-2.449579000">
        <ele>374.40</ele>
        <time>2016-10-15T09:24:34Z</time>
      </trkpt>
      <trkpt lat="42.476392000" lon="-2.449650000">
        <ele>374.40</ele>
        <time>2016-10-15T09:24:35Z</time>
      </trkpt>
      <trkpt lat="42.476391000" lon="-2.449717000">
        <ele>374.30</ele>
        <time>2016-10-15T09:24:36Z</time>
      </trkpt>
      <trkpt lat="42.476396000" lon="-2.449788000">
        <ele>374.30</ele>
        <time>2016-10-15T09:24:37Z</time>
      </trkpt>
      <trkpt lat="42.476399000" lon="-2.449857000">
        <ele>374.40</ele>
        <time>2016-10-15T09:24:38Z</time>
      </trkpt>
      <trkpt lat="42.476404000" lon="-2.449925000">
        <ele>374.40</ele>
        <time>2016-10-15T09:24:39Z</time>
      </trkpt>
      <trkpt lat="42.476412000" lon="-2.449996000">
        <ele>374.60</ele>
        <time>2016-10-15T09:24:40Z</time>
      </trkpt>
      <trkpt lat="42.476416000" lon="-2.450067000">
        <ele>374.70</ele>
        <time>2016-10-15T09:24:41Z</time>
      </trkpt>
      <trkpt lat="42.476419000" lon="-2.450137000">
        <ele>374.80</ele>
        <time>2016-10-15T09:24:42Z</time>
      </trkpt>
      <trkpt lat="42.476422000" lon="-2.450206000">
        <ele>374.90</ele>
        <time>2016-10-15T09:24:43Z</time>
      </trkpt>
      <trkpt lat="42.476425000" lon="-2.450275000">
        <ele>375.00</ele>
        <time>2016-10-15T09:24:44Z</time>
      </trkpt>
      <trkpt lat="42.476430000" lon="-2.450343000">
        <ele>375.10</ele>
        <time>2016-10-15T09:24:45Z</time>
      </trkpt>
      <trkpt lat="42.476437000" lon="-2.450416000">
        <ele>375.10</ele>
        <time>2016-10-15T09:24:46Z</time>
      </trkpt>
      <trkpt lat="42.476441000" lon="-2.450486000">
        <ele>375.10</ele>
        <time>2016-10-15T09:24:47Z</time>
      </trkpt>
      <trkpt lat="42.476444000" lon="-2.450555000">
        <ele>375.10</ele>
        <time>2016-10-15T09:24:48Z</time>
      </trkpt>
      <trkpt lat="42.476447000" lon="-2.450627000">
        <ele>375.10</ele>
        <time>2016-10-15T09:24:49Z</time>
      </trkpt>
      <trkpt lat="42.476454000" lon="-2.450697000">
        <ele>375.10</ele>
        <time>2016-10-15T09:24:50Z</time>
      </trkpt>
      <trkpt lat="42.476462000" lon="-2.450769000">
        <ele>375.10</ele>
        <time>2016-10-15T09:24:51Z</time>
      </trkpt>
      <trkpt lat="42.476469000" lon="-2.450843000">
        <ele>375.20</ele>
        <time>2016-10-15T09:24:52Z</time>
      </trkpt>
      <trkpt lat="42.476476000" lon="-2.450914000">
        <ele>375.20</ele>
        <time>2016-10-15T09:24:53Z</time>
      </trkpt>
      <trkpt lat="42.476484000" lon="-2.450982000">
        <ele>375.20</ele>
        <time>2016-10-15T09:24:54Z</time>
      </trkpt>
      <trkpt lat="42.476496000" lon="-2.451053000">
        <ele>375.30</ele>
        <time>2016-10-15T09:24:55Z</time>
      </trkpt>
      <trkpt lat="42.476506000" lon="-2.451121000">
        <ele>375.20</ele>
        <time>2016-10-15T09:24:56Z</time>
      </trkpt>
      <trkpt lat="42.476515000" lon="-2.451191000">
        <ele>375.20</ele>
        <time>2016-10-15T09:24:57Z</time>
      </trkpt>
      <trkpt lat="42.476527000" lon="-2.451262000">
        <ele>375.20</ele>
        <time>2016-10-15T09:24:58Z</time>
      </trkpt>
      <trkpt lat="42.476539000" lon="-2.451330000">
        <ele>375.20</ele>
        <time>2016-10-15T09:24:59Z</time>
      </trkpt>
      <trkpt lat="42.476551000" lon="-2.451400000">
        <ele>375.20</ele>
        <time>2016-10-15T09:25:00Z</time>
      </trkpt>
      <trkpt lat="42.476562000" lon="-2.451470000">
        <ele>375.20</ele>
        <time>2016-10-15T09:25:01Z</time>
      </trkpt>
      <trkpt lat="42.476575000" lon="-2.451540000">
        <ele>375.20</ele>
        <time>2016-10-15T09:25:02Z</time>
      </trkpt>
      <trkpt lat="42.476591000" lon="-2.451615000">
        <ele>375.20</ele>
        <time>2016-10-15T09:25:03Z</time>
      </trkpt>
      <trkpt lat="42.476605000" lon="-2.451687000">
        <ele>375.30</ele>
        <time>2016-10-15T09:25:04Z</time>
      </trkpt>
      <trkpt lat="42.476625000" lon="-2.451756000">
        <ele>375.30</ele>
        <time>2016-10-15T09:25:05Z</time>
      </trkpt>
      <trkpt lat="42.476644000" lon="-2.451823000">
        <ele>375.50</ele>
        <time>2016-10-15T09:25:06Z</time>
      </trkpt>
      <trkpt lat="42.476663000" lon="-2.451890000">
        <ele>375.60</ele>
        <time>2016-10-15T09:25:07Z</time>
      </trkpt>
      <trkpt lat="42.476690000" lon="-2.451955000">
        <ele>375.70</ele>
        <time>2016-10-15T09:25:08Z</time>
      </trkpt>
      <trkpt lat="42.476718000" lon="-2.452018000">
        <ele>375.70</ele>
        <time>2016-10-15T09:25:09Z</time>
      </trkpt>
      <trkpt lat="42.476743000" lon="-2.452081000">
        <ele>375.80</ele>
        <time>2016-10-15T09:25:10Z</time>
      </trkpt>
      <trkpt lat="42.476770000" lon="-2.452143000">
        <ele>375.80</ele>
        <time>2016-10-15T09:25:11Z</time>
      </trkpt>
      <trkpt lat="42.476801000" lon="-2.452200000">
        <ele>375.90</ele>
        <time>2016-10-15T09:25:12Z</time>
      </trkpt>
      <trkpt lat="42.476831000" lon="-2.452256000">
        <ele>375.90</ele>
        <time>2016-10-15T09:25:13Z</time>
      </trkpt>
      <trkpt lat="42.476861000" lon="-2.452314000">
        <ele>375.90</ele>
        <time>2016-10-15T09:25:14Z</time>
      </trkpt>
      <trkpt lat="42.476893000" lon="-2.452370000">
        <ele>375.90</ele>
        <time>2016-10-15T09:25:15Z</time>
      </trkpt>
      <trkpt lat="42.476924000" lon="-2.452428000">
        <ele>376.00</ele>
        <time>2016-10-15T09:25:16Z</time>
      </trkpt>
      <trkpt lat="42.476955000" lon="-2.452489000">
        <ele>376.00</ele>
        <time>2016-10-15T09:25:17Z</time>
      </trkpt>
      <trkpt lat="42.476986000" lon="-2.452552000">
        <ele>376.30</ele>
        <time>2016-10-15T09:25:18Z</time>
      </trkpt>
      <trkpt lat="42.477018000" lon="-2.452612000">
        <ele>376.50</ele>
        <time>2016-10-15T09:25:19Z</time>
      </trkpt>
      <trkpt lat="42.477052000" lon="-2.452675000">
        <ele>376.60</ele>
        <time>2016-10-15T09:25:20Z</time>
      </trkpt>
      <trkpt lat="42.477085000" lon="-2.452735000">
        <ele>376.70</ele>
        <time>2016-10-15T09:25:21Z</time>
      </trkpt>
      <trkpt lat="42.477118000" lon="-2.452799000">
        <ele>376.70</ele>
        <time>2016-10-15T09:25:22Z</time>
      </trkpt>
      <trkpt lat="42.477149000" lon="-2.452855000">
        <ele>376.70</ele>
        <time>2016-10-15T09:25:23Z</time>
      </trkpt>
      <trkpt lat="42.477180000" lon="-2.452915000">
        <ele>376.70</ele>
        <time>2016-10-15T09:25:24Z</time>
      </trkpt>
      <trkpt lat="42.477210000" lon="-2.452975000">
        <ele>376.70</ele>
        <time>2016-10-15T09:25:25Z</time>
      </trkpt>
      <trkpt lat="42.477241000" lon="-2.453036000">
        <ele>376.70</ele>
        <time>2016-10-15T09:25:26Z</time>
      </trkpt>
      <trkpt lat="42.477300000" lon="-2.453154000">
        <ele>376.70</ele>
        <time>2016-10-15T09:25:28Z</time>
      </trkpt>
      <trkpt lat="42.477329000" lon="-2.453214000">
        <ele>376.80</ele>
        <time>2016-10-15T09:25:29Z</time>
      </trkpt>
      <trkpt lat="42.477356000" lon="-2.453276000">
        <ele>376.90</ele>
        <time>2016-10-15T09:25:30Z</time>
      </trkpt>
      <trkpt lat="42.477388000" lon="-2.453333000">
        <ele>377.00</ele>
        <time>2016-10-15T09:25:31Z</time>
      </trkpt>
      <trkpt lat="42.477419000" lon="-2.453386000">
        <ele>377.00</ele>
        <time>2016-10-15T09:25:32Z</time>
      </trkpt>
      <trkpt lat="42.477449000" lon="-2.453440000">
        <ele>377.10</ele>
        <time>2016-10-15T09:25:33Z</time>
      </trkpt>
      <trkpt lat="42.477480000" lon="-2.453495000">
        <ele>377.10</ele>
        <time>2016-10-15T09:25:34Z</time>
      </trkpt>
      <trkpt lat="42.477512000" lon="-2.453551000">
        <ele>377.10</ele>
        <time>2016-10-15T09:25:35Z</time>
      </trkpt>
      <trkpt lat="42.477545000" lon="-2.453609000">
        <ele>377.10</ele>
        <time>2016-10-15T09:25:36Z</time>
      </trkpt>
      <trkpt lat="42.477577000" lon="-2.453669000">
        <ele>377.10</ele>
        <time>2016-10-15T09:25:37Z</time>
      </trkpt>
      <trkpt lat="42.477610000" lon="-2.453728000">
        <ele>377.10</ele>
        <time>2016-10-15T09:25:38Z</time>
      </trkpt>
      <trkpt lat="42.477640000" lon="-2.453782000">
        <ele>377.10</ele>
        <time>2016-10-15T09:25:39Z</time>
      </trkpt>
      <trkpt lat="42.477672000" lon="-2.453840000">
        <ele>377.10</ele>
        <time>2016-10-15T09:25:40Z</time>
      </trkpt>
      <trkpt lat="42.477705000" lon="-2.453898000">
        <ele>377.10</ele>
        <time>2016-10-15T09:25:41Z</time>
      </trkpt>
      <trkpt lat="42.477739000" lon="-2.453957000">
        <ele>377.00</ele>
        <time>2016-10-15T09:25:42Z</time>
      </trkpt>
      <trkpt lat="42.477775000" lon="-2.454018000">
        <ele>377.00</ele>
        <time>2016-10-15T09:25:43Z</time>
      </trkpt>
      <trkpt lat="42.477811000" lon="-2.454073000">
        <ele>376.90</ele>
        <time>2016-10-15T09:25:44Z</time>
      </trkpt>
      <trkpt lat="42.477846000" lon="-2.454129000">
        <ele>376.90</ele>
        <time>2016-10-15T09:25:45Z</time>
      </trkpt>
      <trkpt lat="42.477880000" lon="-2.454186000">
        <ele>377.10</ele>
        <time>2016-10-15T09:25:46Z</time>
      </trkpt>
      <trkpt lat="42.477913000" lon="-2.454245000">
        <ele>377.20</ele>
        <time>2016-10-15T09:25:47Z</time>
      </trkpt>
      <trkpt lat="42.477945000" lon="-2.454306000">
        <ele>377.30</ele>
        <time>2016-10-15T09:25:48Z</time>
      </trkpt>
      <trkpt lat="42.477978000" lon="-2.454368000">
        <ele>377.40</ele>
        <time>2016-10-15T09:25:49Z</time>
      </trkpt>
      <trkpt lat="42.478014000" lon="-2.454428000">
        <ele>377.40</ele>
        <time>2016-10-15T09:25:50Z</time>
      </trkpt>
      <trkpt lat="42.478043000" lon="-2.454489000">
        <ele>377.40</ele>
        <time>2016-10-15T09:25:51Z</time>
      </trkpt>
      <trkpt lat="42.478074000" lon="-2.454551000">
        <ele>377.40</ele>
        <time>2016-10-15T09:25:52Z</time>
      </trkpt>
      <trkpt lat="42.478106000" lon="-2.454612000">
        <ele>377.30</ele>
        <time>2016-10-15T09:25:53Z</time>
      </trkpt>
      <trkpt lat="42.478141000" lon="-2.454670000">
        <ele>377.30</ele>
        <time>2016-10-15T09:25:54Z</time>
      </trkpt>
      <trkpt lat="42.478176000" lon="-2.454732000">
        <ele>377.30</ele>
        <time>2016-10-15T09:25:55Z</time>
      </trkpt>
      <trkpt lat="42.478211000" lon="-2.454792000">
        <ele>377.50</ele>
        <time>2016-10-15T09:25:56Z</time>
      </trkpt>
      <trkpt lat="42.478246000" lon="-2.454850000">
        <ele>377.70</ele>
        <time>2016-10-15T09:25:57Z</time>
      </trkpt>
      <trkpt lat="42.478279000" lon="-2.454908000">
        <ele>377.80</ele>
        <time>2016-10-15T09:25:58Z</time>
      </trkpt>
      <trkpt lat="42.478314000" lon="-2.454966000">
        <ele>377.90</ele>
        <time>2016-10-15T09:25:59Z</time>
      </trkpt>
      <trkpt lat="42.478350000" lon="-2.455021000">
        <ele>377.90</ele>
        <time>2016-10-15T09:26:00Z</time>
      </trkpt>
      <trkpt lat="42.478385000" lon="-2.455076000">
        <ele>377.90</ele>
        <time>2016-10-15T09:26:01Z</time>
      </trkpt>
      <trkpt lat="42.478421000" lon="-2.455134000">
        <ele>377.70</ele>
        <time>2016-10-15T09:26:02Z</time>
      </trkpt>
      <trkpt lat="42.478454000" lon="-2.455193000">
        <ele>377.50</ele>
        <time>2016-10-15T09:26:03Z</time>
      </trkpt>
      <trkpt lat="42.478489000" lon="-2.455251000">
        <ele>377.40</ele>
        <time>2016-10-15T09:26:04Z</time>
      </trkpt>
      <trkpt lat="42.478523000" lon="-2.455307000">
        <ele>377.30</ele>
        <time>2016-10-15T09:26:05Z</time>
      </trkpt>
      <trkpt lat="42.478558000" lon="-2.455362000">
        <ele>377.50</ele>
        <time>2016-10-15T09:26:06Z</time>
      </trkpt>
      <trkpt lat="42.478593000" lon="-2.455415000">
        <ele>377.70</ele>
        <time>2016-10-15T09:26:07Z</time>
      </trkpt>
      <trkpt lat="42.478627000" lon="-2.455467000">
        <ele>377.90</ele>
        <time>2016-10-15T09:26:08Z</time>
      </trkpt>
      <trkpt lat="42.478658000" lon="-2.455518000">
        <ele>378.00</ele>
        <time>2016-10-15T09:26:09Z</time>
      </trkpt>
      <trkpt lat="42.478692000" lon="-2.455569000">
        <ele>377.80</ele>
        <time>2016-10-15T09:26:10Z</time>
      </trkpt>
      <trkpt lat="42.478726000" lon="-2.455618000">
        <ele>377.70</ele>
        <time>2016-10-15T09:26:11Z</time>
      </trkpt>
      <trkpt lat="42.478760000" lon="-2.455670000">
        <ele>377.60</ele>
        <time>2016-10-15T09:26:12Z</time>
      </trkpt>
      <trkpt lat="42.478794000" lon="-2.455720000">
        <ele>377.50</ele>
        <time>2016-10-15T09:26:13Z</time>
      </trkpt>
      <trkpt lat="42.478827000" lon="-2.455770000">
        <ele>377.40</ele>
        <time>2016-10-15T09:26:14Z</time>
      </trkpt>
      <trkpt lat="42.478860000" lon="-2.455820000">
        <ele>377.40</ele>
        <time>2016-10-15T09:26:15Z</time>
      </trkpt>
      <trkpt lat="42.478893000" lon="-2.455872000">
        <ele>377.50</ele>
        <time>2016-10-15T09:26:16Z</time>
      </trkpt>
      <trkpt lat="42.478926000" lon="-2.455923000">
        <ele>377.70</ele>
        <time>2016-10-15T09:26:17Z</time>
      </trkpt>
      <trkpt lat="42.478960000" lon="-2.455972000">
        <ele>377.80</ele>
        <time>2016-10-15T09:26:18Z</time>
      </trkpt>
      <trkpt lat="42.478993000" lon="-2.456022000">
        <ele>377.80</ele>
        <time>2016-10-15T09:26:19Z</time>
      </trkpt>
      <trkpt lat="42.479025000" lon="-2.456073000">
        <ele>377.90</ele>
        <time>2016-10-15T09:26:20Z</time>
      </trkpt>
      <trkpt lat="42.479055000" lon="-2.456125000">
        <ele>377.90</ele>
        <time>2016-10-15T09:26:21Z</time>
      </trkpt>
      <trkpt lat="42.479087000" lon="-2.456177000">
        <ele>377.90</ele>
        <time>2016-10-15T09:26:22Z</time>
      </trkpt>
      <trkpt lat="42.479120000" lon="-2.456224000">
        <ele>377.80</ele>
        <time>2016-10-15T09:26:23Z</time>
      </trkpt>
      <trkpt lat="42.479152000" lon="-2.456271000">
        <ele>377.80</ele>
        <time>2016-10-15T09:26:24Z</time>
      </trkpt>
      <trkpt lat="42.479182000" lon="-2.456322000">
        <ele>377.80</ele>
        <time>2016-10-15T09:26:25Z</time>
      </trkpt>
      <trkpt lat="42.479211000" lon="-2.456368000">
        <ele>377.70</ele>
        <time>2016-10-15T09:26:26Z</time>
      </trkpt>
      <trkpt lat="42.479237000" lon="-2.456409000">
        <ele>377.70</ele>
        <time>2016-10-15T09:26:27Z</time>
      </trkpt>
      <trkpt lat="42.479278000" lon="-2.456475000">
        <ele>377.50</ele>
        <time>2016-10-15T09:26:29Z</time>
      </trkpt>
      <trkpt lat="42.479296000" lon="-2.456501000">
        <ele>377.50</ele>
        <time>2016-10-15T09:26:30Z</time>
      </trkpt>
      <trkpt lat="42.479313000" lon="-2.456530000">
        <ele>377.50</ele>
        <time>2016-10-15T09:26:31Z</time>
      </trkpt>
      <trkpt lat="42.479330000" lon="-2.456560000">
        <ele>377.40</ele>
        <time>2016-10-15T09:26:32Z</time>
      </trkpt>
      <trkpt lat="42.479346000" lon="-2.456595000">
        <ele>377.40</ele>
        <time>2016-10-15T09:26:33Z</time>
      </trkpt>
      <trkpt lat="42.479364000" lon="-2.456625000">
        <ele>377.50</ele>
        <time>2016-10-15T09:26:34Z</time>
      </trkpt>
      <trkpt lat="42.479382000" lon="-2.456657000">
        <ele>377.50</ele>
        <time>2016-10-15T09:26:35Z</time>
      </trkpt>
      <trkpt lat="42.479400000" lon="-2.456690000">
        <ele>377.80</ele>
        <time>2016-10-15T09:26:36Z</time>
      </trkpt>
      <trkpt lat="42.479413000" lon="-2.456723000">
        <ele>377.90</ele>
        <time>2016-10-15T09:26:37Z</time>
      </trkpt>
      <trkpt lat="42.479432000" lon="-2.456744000">
        <ele>377.90</ele>
        <time>2016-10-15T09:26:38Z</time>
      </trkpt>
      <trkpt lat="42.479455000" lon="-2.456756000">
        <ele>377.90</ele>
        <time>2016-10-15T09:26:39Z</time>
      </trkpt>
      <trkpt lat="42.479479000" lon="-2.456767000">
        <ele>377.90</ele>
        <time>2016-10-15T09:26:40Z</time>
      </trkpt>
      <trkpt lat="42.479504000" lon="-2.456769000">
        <ele>377.90</ele>
        <time>2016-10-15T09:26:41Z</time>
      </trkpt>
      <trkpt lat="42.479527000" lon="-2.456754000">
        <ele>377.90</ele>
        <time>2016-10-15T09:26:42Z</time>
      </trkpt>
      <trkpt lat="42.479548000" lon="-2.456725000">
        <ele>377.90</ele>
        <time>2016-10-15T09:26:43Z</time>
      </trkpt>
      <trkpt lat="42.479568000" lon="-2.456689000">
        <ele>377.80</ele>
        <time>2016-10-15T09:26:44Z</time>
      </trkpt>
      <trkpt lat="42.479588000" lon="-2.456651000">
        <ele>377.70</ele>
        <time>2016-10-15T09:26:45Z</time>
      </trkpt>
      <trkpt lat="42.479605000" lon="-2.456614000">
        <ele>377.90</ele>
        <time>2016-10-15T09:26:46Z</time>
      </trkpt>
      <trkpt lat="42.479623000" lon="-2.456576000">
        <ele>378.00</ele>
        <time>2016-10-15T09:26:47Z</time>
      </trkpt>
      <trkpt lat="42.479640000" lon="-2.456538000">
        <ele>378.20</ele>
        <time>2016-10-15T09:26:48Z</time>
      </trkpt>
      <trkpt lat="42.479662000" lon="-2.456505000">
        <ele>378.30</ele>
        <time>2016-10-15T09:26:49Z</time>
      </trkpt>
      <trkpt lat="42.479690000" lon="-2.456476000">
        <ele>378.40</ele>
        <time>2016-10-15T09:26:50Z</time>
      </trkpt>
      <trkpt lat="42.479718000" lon="-2.456448000">
        <ele>378.40</ele>
        <time>2016-10-15T09:26:51Z</time>
      </trkpt>
      <trkpt lat="42.479746000" lon="-2.456427000">
        <ele>378.60</ele>
        <time>2016-10-15T09:26:52Z</time>
      </trkpt>
      <trkpt lat="42.479780000" lon="-2.456426000">
        <ele>378.70</ele>
        <time>2016-10-15T09:26:53Z</time>
      </trkpt>
      <trkpt lat="42.479813000" lon="-2.456443000">
        <ele>378.80</ele>
        <time>2016-10-15T09:26:54Z</time>
      </trkpt>
      <trkpt lat="42.479838000" lon="-2.456472000">
        <ele>378.90</ele>
        <time>2016-10-15T09:26:55Z</time>
      </trkpt>
      <trkpt lat="42.479863000" lon="-2.456498000">
        <ele>378.90</ele>
        <time>2016-10-15T09:26:56Z</time>
      </trkpt>
      <trkpt lat="42.479878000" lon="-2.456522000">
        <ele>378.90</ele>
        <time>2016-10-15T09:26:57Z</time>
      </trkpt>
      <trkpt lat="42.479888000" lon="-2.456542000">
        <ele>378.70</ele>
        <time>2016-10-15T09:26:58Z</time>
      </trkpt>
      <trkpt lat="42.479900000" lon="-2.456562000">
        <ele>378.60</ele>
        <time>2016-10-15T09:26:59Z</time>
      </trkpt>
      <trkpt lat="42.479903000" lon="-2.456572000">
        <ele>378.50</ele>
        <time>2016-10-15T09:27:00Z</time>
      </trkpt>
      <trkpt lat="42.479909000" lon="-2.456573000">
        <ele>378.50</ele>
        <time>2016-10-15T09:27:01Z</time>
      </trkpt>
      <trkpt lat="42.479913000" lon="-2.456574000">
        <ele>378.40</ele>
        <time>2016-10-15T09:27:02Z</time>
      </trkpt>
      <trkpt lat="42.479914000" lon="-2.456579000">
        <ele>378.40</ele>
        <time>2016-10-15T09:27:03Z</time>
      </trkpt>
      <trkpt lat="42.479917000" lon="-2.456582000">
        <ele>378.40</ele>
        <time>2016-10-15T09:27:04Z</time>
      </trkpt>
      <trkpt lat="42.479918000" lon="-2.456587000">
        <ele>378.30</ele>
        <time>2016-10-15T09:27:05Z</time>
      </trkpt>
      <trkpt lat="42.479921000" lon="-2.456585000">
        <ele>378.30</ele>
        <time>2016-10-15T09:27:06Z</time>
      </trkpt>
      <trkpt lat="42.479923000" lon="-2.456585000">
        <ele>378.30</ele>
        <time>2016-10-15T09:27:07Z</time>
      </trkpt>
      <trkpt lat="42.479921000" lon="-2.456587000">
        <ele>378.30</ele>
        <time>2016-10-15T09:27:08Z</time>
      </trkpt>
      <trkpt lat="42.479920000" lon="-2.456582000">
        <ele>378.30</ele>
        <time>2016-10-15T09:27:09Z</time>
      </trkpt>
      <trkpt lat="42.479918000" lon="-2.456582000">
        <ele>378.40</ele>
        <time>2016-10-15T09:27:10Z</time>
      </trkpt>
      <trkpt lat="42.479918000" lon="-2.456580000">
        <ele>378.40</ele>
        <time>2016-10-15T09:27:11Z</time>
      </trkpt>
      <trkpt lat="42.479918000" lon="-2.456577000">
        <ele>378.40</ele>
        <time>2016-10-15T09:27:12Z</time>
      </trkpt>
      <trkpt lat="42.479918000" lon="-2.456574000">
        <ele>378.50</ele>
        <time>2016-10-15T09:27:13Z</time>
      </trkpt>
      <trkpt lat="42.479916000" lon="-2.456572000">
        <ele>378.40</ele>
        <time>2016-10-15T09:27:14Z</time>
      </trkpt>
      <trkpt lat="42.479916000" lon="-2.456571000">
        <ele>378.40</ele>
        <time>2016-10-15T09:27:15Z</time>
      </trkpt>
      <trkpt lat="42.479915000" lon="-2.456571000">
        <ele>378.30</ele>
        <time>2016-10-15T09:27:16Z</time>
      </trkpt>
      <trkpt lat="42.479915000" lon="-2.456572000">
        <ele>378.30</ele>
        <time>2016-10-15T09:27:17Z</time>
      </trkpt>
      <trkpt lat="42.479915000" lon="-2.456573000">
        <ele>378.30</ele>
        <time>2016-10-15T09:27:18Z</time>
      </trkpt>
      <trkpt lat="42.479915000" lon="-2.456574000">
        <ele>378.30</ele>
        <time>2016-10-15T09:27:19Z</time>
      </trkpt>
      <trkpt lat="42.479915000" lon="-2.456574000">
        <ele>378.20</ele>
        <time>2016-10-15T09:27:20Z</time>
      </trkpt>
      <trkpt lat="42.479916000" lon="-2.456575000">
        <ele>378.20</ele>
        <time>2016-10-15T09:27:21Z</time>
      </trkpt>
      <trkpt lat="42.479916000" lon="-2.456575000">
        <ele>378.30</ele>
        <time>2016-10-15T09:27:22Z</time>
      </trkpt>
      <trkpt lat="42.479916000" lon="-2.456575000">
        <ele>378.30</ele>
        <time>2016-10-15T09:27:23Z</time>
      </trkpt>
      <trkpt lat="42.479916000" lon="-2.456575000">
        <ele>378.40</ele>
        <time>2016-10-15T09:27:24Z</time>
      </trkpt>
      <trkpt lat="42.479917000" lon="-2.456575000">
        <ele>378.40</ele>
        <time>2016-10-15T09:27:25Z</time>
      </trkpt>
      <trkpt lat="42.479917000" lon="-2.456574000">
        <ele>378.40</ele>
        <time>2016-10-15T09:27:26Z</time>
      </trkpt>
      <trkpt lat="42.479918000" lon="-2.456574000">
        <ele>378.40</ele>
        <time>2016-10-15T09:27:27Z</time>
      </trkpt>
      <trkpt lat="42.479918000" lon="-2.456574000">
        <ele>378.40</ele>
        <time>2016-10-15T09:27:28Z</time>
      </trkpt>
      <trkpt lat="42.479919000" lon="-2.456574000">
        <ele>378.40</ele>
        <time>2016-10-15T09:27:30Z</time>
      </trkpt>
      <trkpt lat="42.479921000" lon="-2.456573000">
        <ele>378.40</ele>
        <time>2016-10-15T09:27:31Z</time>
      </trkpt>
      <trkpt lat="42.479921000" lon="-2.456574000">
        <ele>378.30</ele>
        <time>2016-10-15T09:27:32Z</time>
      </trkpt>
      <trkpt lat="42.479923000" lon="-2.456574000">
        <ele>378.20</ele>
        <time>2016-10-15T09:27:33Z</time>
      </trkpt>
      <trkpt lat="42.479925000" lon="-2.456574000">
        <ele>378.20</ele>
        <time>2016-10-15T09:27:34Z</time>
      </trkpt>
      <trkpt lat="42.479926000" lon="-2.456575000">
        <ele>378.20</ele>
        <time>2016-10-15T09:27:35Z</time>
      </trkpt>
      <trkpt lat="42.479927000" lon="-2.456576000">
        <ele>378.20</ele>
        <time>2016-10-15T09:27:36Z</time>
      </trkpt>
      <trkpt lat="42.479927000" lon="-2.456577000">
        <ele>378.20</ele>
        <time>2016-10-15T09:27:37Z</time>
      </trkpt>
      <trkpt lat="42.479927000" lon="-2.456578000">
        <ele>378.20</ele>
        <time>2016-10-15T09:27:38Z</time>
      </trkpt>
      <trkpt lat="42.479927000" lon="-2.456579000">
        <ele>378.20</ele>
        <time>2016-10-15T09:27:39Z</time>
      </trkpt>
      <trkpt lat="42.479929000" lon="-2.456580000">
        <ele>378.20</ele>
        <time>2016-10-15T09:27:40Z</time>
      </trkpt>
      <trkpt lat="42.479933000" lon="-2.456579000">
        <ele>378.20</ele>
        <time>2016-10-15T09:27:41Z</time>
      </trkpt>
      <trkpt lat="42.479937000" lon="-2.456578000">
        <ele>378.10</ele>
        <time>2016-10-15T09:27:42Z</time>
      </trkpt>
      <trkpt lat="42.479937000" lon="-2.456578000">
        <ele>378.10</ele>
        <time>2016-10-15T09:27:43Z</time>
      </trkpt>
      <trkpt lat="42.479938000" lon="-2.456578000">
        <ele>378.20</ele>
        <time>2016-10-15T09:27:44Z</time>
      </trkpt>
      <trkpt lat="42.479939000" lon="-2.456578000">
        <ele>378.20</ele>
        <time>2016-10-15T09:27:45Z</time>
      </trkpt>
      <trkpt lat="42.479943000" lon="-2.456575000">
        <ele>378.30</ele>
        <time>2016-10-15T09:27:46Z</time>
      </trkpt>
      <trkpt lat="42.479947000" lon="-2.456572000">
        <ele>378.30</ele>
        <time>2016-10-15T09:27:47Z</time>
      </trkpt>
      <trkpt lat="42.479947000" lon="-2.456571000">
        <ele>378.30</ele>
        <time>2016-10-15T09:27:48Z</time>
      </trkpt>
      <trkpt lat="42.479948000" lon="-2.456570000">
        <ele>378.30</ele>
        <time>2016-10-15T09:27:49Z</time>
      </trkpt>
      <trkpt lat="42.479950000" lon="-2.456569000">
        <ele>378.30</ele>
        <time>2016-10-15T09:27:50Z</time>
      </trkpt>
      <trkpt lat="42.479951000" lon="-2.456568000">
        <ele>378.30</ele>
        <time>2016-10-15T09:27:51Z</time>
      </trkpt>
      <trkpt lat="42.479952000" lon="-2.456568000">
        <ele>378.40</ele>
        <time>2016-10-15T09:27:52Z</time>
      </trkpt>
      <trkpt lat="42.479953000" lon="-2.456567000">
        <ele>378.50</ele>
        <time>2016-10-15T09:27:53Z</time>
      </trkpt>
      <trkpt lat="42.479953000" lon="-2.456566000">
        <ele>378.50</ele>
        <time>2016-10-15T09:27:54Z</time>
      </trkpt>
      <trkpt lat="42.479954000" lon="-2.456565000">
        <ele>378.50</ele>
        <time>2016-10-15T09:27:55Z</time>
      </trkpt>
      <trkpt lat="42.479954000" lon="-2.456565000">
        <ele>378.60</ele>
        <time>2016-10-15T09:27:56Z</time>
      </trkpt>
      <trkpt lat="42.479955000" lon="-2.456564000">
        <ele>378.60</ele>
        <time>2016-10-15T09:27:57Z</time>
      </trkpt>
      <trkpt lat="42.479955000" lon="-2.456564000">
        <ele>378.50</ele>
        <time>2016-10-15T09:27:58Z</time>
      </trkpt>
      <trkpt lat="42.479956000" lon="-2.456564000">
        <ele>378.40</ele>
        <time>2016-10-15T09:27:59Z</time>
      </trkpt>
      <trkpt lat="42.479956000" lon="-2.456564000">
        <ele>378.40</ele>
        <time>2016-10-15T09:28:00Z</time>
      </trkpt>
      <trkpt lat="42.479955000" lon="-2.456564000">
        <ele>378.40</ele>
        <time>2016-10-15T09:28:01Z</time>
      </trkpt>
      <trkpt lat="42.479953000" lon="-2.456564000">
        <ele>378.40</ele>
        <time>2016-10-15T09:28:02Z</time>
      </trkpt>
      <trkpt lat="42.479951000" lon="-2.456565000">
        <ele>378.30</ele>
        <time>2016-10-15T09:28:03Z</time>
      </trkpt>
      <trkpt lat="42.479949000" lon="-2.456565000">
        <ele>378.30</ele>
        <time>2016-10-15T09:28:04Z</time>
      </trkpt>
      <trkpt lat="42.479947000" lon="-2.456564000">
        <ele>378.30</ele>
        <time>2016-10-15T09:28:05Z</time>
      </trkpt>
      <trkpt lat="42.479945000" lon="-2.456563000">
        <ele>378.30</ele>
        <time>2016-10-15T09:28:06Z</time>
      </trkpt>
      <trkpt lat="42.479943000" lon="-2.456562000">
        <ele>378.30</ele>
        <time>2016-10-15T09:28:07Z</time>
      </trkpt>
      <trkpt lat="42.479941000" lon="-2.456562000">
        <ele>378.20</ele>
        <time>2016-10-15T09:28:08Z</time>
      </trkpt>
      <trkpt lat="42.479940000" lon="-2.456562000">
        <ele>378.20</ele>
        <time>2016-10-15T09:28:09Z</time>
      </trkpt>
      <trkpt lat="42.479938000" lon="-2.456562000">
        <ele>378.10</ele>
        <time>2016-10-15T09:28:10Z</time>
      </trkpt>
      <trkpt lat="42.479937000" lon="-2.456563000">
        <ele>378.10</ele>
        <time>2016-10-15T09:28:11Z</time>
      </trkpt>
      <trkpt lat="42.479936000" lon="-2.456563000">
        <ele>378.10</ele>
        <time>2016-10-15T09:28:12Z</time>
      </trkpt>
      <trkpt lat="42.479934000" lon="-2.456564000">
        <ele>378.10</ele>
        <time>2016-10-15T09:28:13Z</time>
      </trkpt>
      <trkpt lat="42.479934000" lon="-2.456565000">
        <ele>378.10</ele>
        <time>2016-10-15T09:28:14Z</time>
      </trkpt>
      <trkpt lat="42.479933000" lon="-2.456565000">
        <ele>378.10</ele>
        <time>2016-10-15T09:28:15Z</time>
      </trkpt>
      <trkpt lat="42.479934000" lon="-2.456565000">
        <ele>378.00</ele>
        <time>2016-10-15T09:28:16Z</time>
      </trkpt>
      <trkpt lat="42.479934000" lon="-2.456565000">
        <ele>378.00</ele>
        <time>2016-10-15T09:28:17Z</time>
      </trkpt>
      <trkpt lat="42.479935000" lon="-2.456565000">
        <ele>378.00</ele>
        <time>2016-10-15T09:28:18Z</time>
      </trkpt>
      <trkpt lat="42.479935000" lon="-2.456565000">
        <ele>378.00</ele>
        <time>2016-10-15T09:28:19Z</time>
      </trkpt>
      <trkpt lat="42.479936000" lon="-2.456564000">
        <ele>378.00</ele>
        <time>2016-10-15T09:28:20Z</time>
      </trkpt>
      <trkpt lat="42.479935000" lon="-2.456565000">
        <ele>378.00</ele>
        <time>2016-10-15T09:28:21Z</time>
      </trkpt>
      <trkpt lat="42.479934000" lon="-2.456565000">
        <ele>378.00</ele>
        <time>2016-10-15T09:28:22Z</time>
      </trkpt>
      <trkpt lat="42.479931000" lon="-2.456565000">
        <ele>378.00</ele>
        <time>2016-10-15T09:28:23Z</time>
      </trkpt>
      <trkpt lat="42.479929000" lon="-2.456565000">
        <ele>378.00</ele>
        <time>2016-10-15T09:28:24Z</time>
      </trkpt>
      <trkpt lat="42.479928000" lon="-2.456564000">
        <ele>377.90</ele>
        <time>2016-10-15T09:28:25Z</time>
      </trkpt>
      <trkpt lat="42.479926000" lon="-2.456563000">
        <ele>377.90</ele>
        <time>2016-10-15T09:28:26Z</time>
      </trkpt>
      <trkpt lat="42.479926000" lon="-2.456562000">
        <ele>377.90</ele>
        <time>2016-10-15T09:28:27Z</time>
      </trkpt>
      <trkpt lat="42.479925000" lon="-2.456561000">
        <ele>378.00</ele>
        <time>2016-10-15T09:28:28Z</time>
      </trkpt>
      <trkpt lat="42.479923000" lon="-2.456560000">
        <ele>378.10</ele>
        <time>2016-10-15T09:28:29Z</time>
      </trkpt>
      <trkpt lat="42.479921000" lon="-2.456559000">
        <ele>378.30</ele>
        <time>2016-10-15T09:28:31Z</time>
      </trkpt>
      <trkpt lat="42.479919000" lon="-2.456559000">
        <ele>378.40</ele>
        <time>2016-10-15T09:28:32Z</time>
      </trkpt>
      <trkpt lat="42.479919000" lon="-2.456559000">
        <ele>378.50</ele>
        <time>2016-10-15T09:28:33Z</time>
      </trkpt>
      <trkpt lat="42.479918000" lon="-2.456558000">
        <ele>378.50</ele>
        <time>2016-10-15T09:28:34Z</time>
      </trkpt>
      <trkpt lat="42.479917000" lon="-2.456558000">
        <ele>378.50</ele>
        <time>2016-10-15T09:28:35Z</time>
      </trkpt>
      <trkpt lat="42.479917000" lon="-2.456558000">
        <ele>378.50</ele>
        <time>2016-10-15T09:28:36Z</time>
      </trkpt>
      <trkpt lat="42.479918000" lon="-2.456559000">
        <ele>378.40</ele>
        <time>2016-10-15T09:28:37Z</time>
      </trkpt>
      <trkpt lat="42.479919000" lon="-2.456559000">
        <ele>378.30</ele>
        <time>2016-10-15T09:28:38Z</time>
      </trkpt>
      <trkpt lat="42.479920000" lon="-2.456559000">
        <ele>378.20</ele>
        <time>2016-10-15T09:28:39Z</time>
      </trkpt>
      <trkpt lat="42.479920000" lon="-2.456560000">
        <ele>378.10</ele>
        <time>2016-10-15T09:28:40Z</time>
      </trkpt>
      <trkpt lat="42.479921000" lon="-2.456560000">
        <ele>378.00</ele>
        <time>2016-10-15T09:28:41Z</time>
      </trkpt>
      <trkpt lat="42.479921000" lon="-2.456559000">
        <ele>377.90</ele>
        <time>2016-10-15T09:28:42Z</time>
      </trkpt>
      <trkpt lat="42.479922000" lon="-2.456559000">
        <ele>377.70</ele>
        <time>2016-10-15T09:28:43Z</time>
      </trkpt>
      <trkpt lat="42.479922000" lon="-2.456559000">
        <ele>378.00</ele>
        <time>2016-10-15T09:28:44Z</time>
      </trkpt>
      <trkpt lat="42.479922000" lon="-2.456560000">
        <ele>378.10</ele>
        <time>2016-10-15T09:28:45Z</time>
      </trkpt>
      <trkpt lat="42.479921000" lon="-2.456559000">
        <ele>378.10</ele>
        <time>2016-10-15T09:28:46Z</time>
      </trkpt>
      <trkpt lat="42.479921000" lon="-2.456560000">
        <ele>378.00</ele>
        <time>2016-10-15T09:28:47Z</time>
      </trkpt>
      <trkpt lat="42.479921000" lon="-2.456560000">
        <ele>378.10</ele>
        <time>2016-10-15T09:28:48Z</time>
      </trkpt>
      <trkpt lat="42.479920000" lon="-2.456561000">
        <ele>378.20</ele>
        <time>2016-10-15T09:28:49Z</time>
      </trkpt>
      <trkpt lat="42.479920000" lon="-2.456562000">
        <ele>378.10</ele>
        <time>2016-10-15T09:28:50Z</time>
      </trkpt>
      <trkpt lat="42.479921000" lon="-2.456562000">
        <ele>378.10</ele>
        <time>2016-10-15T09:28:51Z</time>
      </trkpt>
      <trkpt lat="42.479921000" lon="-2.456564000">
        <ele>378.10</ele>
        <time>2016-10-15T09:28:52Z</time>
      </trkpt>
      <trkpt lat="42.479921000" lon="-2.456564000">
        <ele>378.20</ele>
        <time>2016-10-15T09:28:53Z</time>
      </trkpt>
      <trkpt lat="42.479922000" lon="-2.456564000">
        <ele>378.20</ele>
        <time>2016-10-15T09:28:54Z</time>
      </trkpt>
      <trkpt lat="42.479922000" lon="-2.456564000">
        <ele>378.20</ele>
        <time>2016-10-15T09:28:55Z</time>
      </trkpt>
      <trkpt lat="42.479923000" lon="-2.456566000">
        <ele>378.20</ele>
        <time>2016-10-15T09:28:56Z</time>
      </trkpt>
      <trkpt lat="42.479923000" lon="-2.456568000">
        <ele>378.20</ele>
        <time>2016-10-15T09:28:57Z</time>
      </trkpt>
      <trkpt lat="42.479923000" lon="-2.456568000">
        <ele>378.30</ele>
        <time>2016-10-15T09:28:58Z</time>
      </trkpt>
      <trkpt lat="42.479924000" lon="-2.456569000">
        <ele>378.30</ele>
        <time>2016-10-15T09:28:59Z</time>
      </trkpt>
      <trkpt lat="42.479923000" lon="-2.456569000">
        <ele>378.30</ele>
        <time>2016-10-15T09:29:00Z</time>
      </trkpt>
      <trkpt lat="42.479924000" lon="-2.456570000">
        <ele>378.30</ele>
        <time>2016-10-15T09:29:01Z</time>
      </trkpt>
      <trkpt lat="42.479924000" lon="-2.456570000">
        <ele>378.30</ele>
        <time>2016-10-15T09:29:02Z</time>
      </trkpt>
      <trkpt lat="42.479924000" lon="-2.456571000">
        <ele>378.20</ele>
        <time>2016-10-15T09:29:03Z</time>
      </trkpt>
      <trkpt lat="42.479924000" lon="-2.456572000">
        <ele>378.20</ele>
        <time>2016-10-15T09:29:04Z</time>
      </trkpt>
      <trkpt lat="42.479924000" lon="-2.456574000">
        <ele>378.20</ele>
        <time>2016-10-15T09:29:05Z</time>
      </trkpt>
      <trkpt lat="42.479924000" lon="-2.456575000">
        <ele>378.20</ele>
        <time>2016-10-15T09:29:06Z</time>
      </trkpt>
      <trkpt lat="42.479924000" lon="-2.456574000">
        <ele>378.20</ele>
        <time>2016-10-15T09:29:07Z</time>
      </trkpt>
      <trkpt lat="42.479923000" lon="-2.456575000">
        <ele>378.10</ele>
        <time>2016-10-15T09:29:08Z</time>
      </trkpt>
      <trkpt lat="42.479922000" lon="-2.456576000">
        <ele>378.10</ele>
        <time>2016-10-15T09:29:09Z</time>
      </trkpt>
      <trkpt lat="42.479922000" lon="-2.456577000">
        <ele>378.10</ele>
        <time>2016-10-15T09:29:10Z</time>
      </trkpt>
      <trkpt lat="42.479922000" lon="-2.456578000">
        <ele>378.00</ele>
        <time>2016-10-15T09:29:11Z</time>
      </trkpt>
      <trkpt lat="42.479921000" lon="-2.456578000">
        <ele>378.20</ele>
        <time>2016-10-15T09:29:12Z</time>
      </trkpt>
      <trkpt lat="42.479921000" lon="-2.456578000">
        <ele>378.30</ele>
        <time>2016-10-15T09:29:13Z</time>
      </trkpt>
      <trkpt lat="42.479920000" lon="-2.456578000">
        <ele>378.40</ele>
        <time>2016-10-15T09:29:14Z</time>
      </trkpt>
      <trkpt lat="42.479919000" lon="-2.456579000">
        <ele>378.40</ele>
        <time>2016-10-15T09:29:15Z</time>
      </trkpt>
      <trkpt lat="42.479918000" lon="-2.456579000">
        <ele>378.60</ele>
        <time>2016-10-15T09:29:16Z</time>
      </trkpt>
      <trkpt lat="42.479916000" lon="-2.456579000">
        <ele>378.70</ele>
        <time>2016-10-15T09:29:17Z</time>
      </trkpt>
      <trkpt lat="42.479915000" lon="-2.456579000">
        <ele>378.70</ele>
        <time>2016-10-15T09:29:18Z</time>
      </trkpt>
      <trkpt lat="42.479914000" lon="-2.456579000">
        <ele>378.60</ele>
        <time>2016-10-15T09:29:19Z</time>
      </trkpt>
      <trkpt lat="42.479913000" lon="-2.456579000">
        <ele>378.70</ele>
        <time>2016-10-15T09:29:20Z</time>
      </trkpt>
      <trkpt lat="42.479913000" lon="-2.456579000">
        <ele>378.80</ele>
        <time>2016-10-15T09:29:21Z</time>
      </trkpt>
      <trkpt lat="42.479912000" lon="-2.456578000">
        <ele>378.70</ele>
        <time>2016-10-15T09:29:22Z</time>
      </trkpt>
      <trkpt lat="42.479911000" lon="-2.456578000">
        <ele>378.60</ele>
        <time>2016-10-15T09:29:23Z</time>
      </trkpt>
      <trkpt lat="42.479911000" lon="-2.456579000">
        <ele>378.80</ele>
        <time>2016-10-15T09:29:24Z</time>
      </trkpt>
      <trkpt lat="42.479911000" lon="-2.456579000">
        <ele>378.90</ele>
        <time>2016-10-15T09:29:25Z</time>
      </trkpt>
      <trkpt lat="42.479911000" lon="-2.456579000">
        <ele>378.90</ele>
        <time>2016-10-15T09:29:26Z</time>
      </trkpt>
      <trkpt lat="42.479910000" lon="-2.456579000">
        <ele>378.90</ele>
        <time>2016-10-15T09:29:27Z</time>
      </trkpt>
      <trkpt lat="42.479910000" lon="-2.456578000">
        <ele>378.90</ele>
        <time>2016-10-15T09:29:28Z</time>
      </trkpt>
      <trkpt lat="42.479910000" lon="-2.456578000">
        <ele>378.80</ele>
        <time>2016-10-15T09:29:29Z</time>
      </trkpt>
      <trkpt lat="42.479909000" lon="-2.456577000">
        <ele>378.80</ele>
        <time>2016-10-15T09:29:30Z</time>
      </trkpt>
      <trkpt lat="42.479908000" lon="-2.456575000">
        <ele>378.80</ele>
        <time>2016-10-15T09:29:32Z</time>
      </trkpt>
      <trkpt lat="42.479908000" lon="-2.456575000">
        <ele>378.80</ele>
        <time>2016-10-15T09:29:33Z</time>
      </trkpt>
      <trkpt lat="42.479908000" lon="-2.456574000">
        <ele>378.80</ele>
        <time>2016-10-15T09:29:34Z</time>
      </trkpt>
      <trkpt lat="42.479908000" lon="-2.456574000">
        <ele>378.80</ele>
        <time>2016-10-15T09:29:35Z</time>
      </trkpt>
      <trkpt lat="42.479908000" lon="-2.456574000">
        <ele>378.80</ele>
        <time>2016-10-15T09:29:36Z</time>
      </trkpt>
      <trkpt lat="42.479907000" lon="-2.456573000">
        <ele>378.70</ele>
        <time>2016-10-15T09:29:37Z</time>
      </trkpt>
      <trkpt lat="42.479907000" lon="-2.456573000">
        <ele>378.60</ele>
        <time>2016-10-15T09:29:38Z</time>
      </trkpt>
      <trkpt lat="42.479907000" lon="-2.456572000">
        <ele>378.50</ele>
        <time>2016-10-15T09:29:39Z</time>
      </trkpt>
      <trkpt lat="42.479906000" lon="-2.456571000">
        <ele>378.50</ele>
        <time>2016-10-15T09:29:40Z</time>
      </trkpt>
      <trkpt lat="42.479906000" lon="-2.456571000">
        <ele>378.60</ele>
        <time>2016-10-15T09:29:41Z</time>
      </trkpt>
      <trkpt lat="42.479906000" lon="-2.456570000">
        <ele>378.60</ele>
        <time>2016-10-15T09:29:42Z</time>
      </trkpt>
      <trkpt lat="42.479905000" lon="-2.456569000">
        <ele>378.60</ele>
        <time>2016-10-15T09:29:43Z</time>
      </trkpt>
      <trkpt lat="42.479904000" lon="-2.456568000">
        <ele>378.60</ele>
        <time>2016-10-15T09:29:44Z</time>
      </trkpt>
      <trkpt lat="42.479904000" lon="-2.456567000">
        <ele>378.60</ele>
        <time>2016-10-15T09:29:45Z</time>
      </trkpt>
      <trkpt lat="42.479904000" lon="-2.456566000">
        <ele>378.60</ele>
        <time>2016-10-15T09:29:46Z</time>
      </trkpt>
      <trkpt lat="42.479904000" lon="-2.456566000">
        <ele>378.60</ele>
        <time>2016-10-15T09:29:47Z</time>
      </trkpt>
      <trkpt lat="42.479904000" lon="-2.456566000">
        <ele>378.60</ele>
        <time>2016-10-15T09:29:48Z</time>
      </trkpt>
      <trkpt lat="42.479904000" lon="-2.456566000">
        <ele>378.60</ele>
        <time>2016-10-15T09:29:49Z</time>
      </trkpt>
      <trkpt lat="42.479904000" lon="-2.456565000">
        <ele>378.60</ele>
        <time>2016-10-15T09:29:50Z</time>
      </trkpt>
      <trkpt lat="42.479904000" lon="-2.456565000">
        <ele>378.60</ele>
        <time>2016-10-15T09:29:51Z</time>
      </trkpt>
      <trkpt lat="42.479905000" lon="-2.456565000">
        <ele>378.60</ele>
        <time>2016-10-15T09:29:52Z</time>
      </trkpt>
      <trkpt lat="42.479905000" lon="-2.456565000">
        <ele>378.60</ele>
        <time>2016-10-15T09:29:53Z</time>
      </trkpt>
      <trkpt lat="42.479905000" lon="-2.456565000">
        <ele>378.60</ele>
        <time>2016-10-15T09:29:54Z</time>
      </trkpt>
      <trkpt lat="42.479906000" lon="-2.456564000">
        <ele>378.60</ele>
        <time>2016-10-15T09:29:55Z</time>
      </trkpt>
      <trkpt lat="42.479906000" lon="-2.456564000">
        <ele>378.50</ele>
        <time>2016-10-15T09:29:56Z</time>
      </trkpt>
      <trkpt lat="42.479905000" lon="-2.456565000">
        <ele>378.40</ele>
        <time>2016-10-15T09:29:57Z</time>
      </trkpt>
      <trkpt lat="42.479905000" lon="-2.456564000">
        <ele>378.40</ele>
        <time>2016-10-15T09:29:58Z</time>
      </trkpt>
      <trkpt lat="42.479904000" lon="-2.456565000">
        <ele>378.40</ele>
        <time>2016-10-15T09:29:59Z</time>
      </trkpt>
      <trkpt lat="42.479904000" lon="-2.456564000">
        <ele>378.30</ele>
        <time>2016-10-15T09:30:00Z</time>
      </trkpt>
      <trkpt lat="42.479903000" lon="-2.456564000">
        <ele>378.30</ele>
        <time>2016-10-15T09:30:01Z</time>
      </trkpt>
      <trkpt lat="42.479903000" lon="-2.456564000">
        <ele>378.40</ele>
        <time>2016-10-15T09:30:02Z</time>
      </trkpt>
      <trkpt lat="42.479902000" lon="-2.456564000">
        <ele>378.40</ele>
        <time>2016-10-15T09:30:03Z</time>
      </trkpt>
      <trkpt lat="42.479902000" lon="-2.456564000">
        <ele>378.50</ele>
        <time>2016-10-15T09:30:04Z</time>
      </trkpt>
      <trkpt lat="42.479902000" lon="-2.456564000">
        <ele>378.60</ele>
        <time>2016-10-15T09:30:05Z</time>
      </trkpt>
      <trkpt lat="42.479902000" lon="-2.456563000">
        <ele>378.80</ele>
        <time>2016-10-15T09:30:06Z</time>
      </trkpt>
      <trkpt lat="42.479901000" lon="-2.456564000">
        <ele>378.90</ele>
        <time>2016-10-15T09:30:07Z</time>
      </trkpt>
      <trkpt lat="42.479901000" lon="-2.456564000">
        <ele>378.90</ele>
        <time>2016-10-15T09:30:08Z</time>
      </trkpt>
      <trkpt lat="42.479901000" lon="-2.456565000">
        <ele>378.90</ele>
        <time>2016-10-15T09:30:09Z</time>
      </trkpt>
      <trkpt lat="42.479900000" lon="-2.456565000">
        <ele>378.90</ele>
        <time>2016-10-15T09:30:10Z</time>
      </trkpt>
      <trkpt lat="42.479899000" lon="-2.456566000">
        <ele>378.80</ele>
        <time>2016-10-15T09:30:11Z</time>
      </trkpt>
      <trkpt lat="42.479899000" lon="-2.456567000">
        <ele>378.80</ele>
        <time>2016-10-15T09:30:12Z</time>
      </trkpt>
      <trkpt lat="42.479898000" lon="-2.456568000">
        <ele>378.80</ele>
        <time>2016-10-15T09:30:13Z</time>
      </trkpt>
      <trkpt lat="42.479898000" lon="-2.456569000">
        <ele>378.70</ele>
        <time>2016-10-15T09:30:14Z</time>
      </trkpt>
      <trkpt lat="42.479898000" lon="-2.456570000">
        <ele>378.60</ele>
        <time>2016-10-15T09:30:15Z</time>
      </trkpt>
      <trkpt lat="42.479898000" lon="-2.456571000">
        <ele>378.60</ele>
        <time>2016-10-15T09:30:16Z</time>
      </trkpt>
      <trkpt lat="42.479898000" lon="-2.456573000">
        <ele>378.60</ele>
        <time>2016-10-15T09:30:17Z</time>
      </trkpt>
      <trkpt lat="42.479898000" lon="-2.456574000">
        <ele>378.60</ele>
        <time>2016-10-15T09:30:18Z</time>
      </trkpt>
      <trkpt lat="42.479898000" lon="-2.456576000">
        <ele>378.60</ele>
        <time>2016-10-15T09:30:19Z</time>
      </trkpt>
      <trkpt lat="42.479898000" lon="-2.456577000">
        <ele>378.60</ele>
        <time>2016-10-15T09:30:20Z</time>
      </trkpt>
      <trkpt lat="42.479899000" lon="-2.456577000">
        <ele>378.60</ele>
        <time>2016-10-15T09:30:21Z</time>
      </trkpt>
      <trkpt lat="42.479899000" lon="-2.456578000">
        <ele>378.60</ele>
        <time>2016-10-15T09:30:22Z</time>
      </trkpt>
      <trkpt lat="42.479899000" lon="-2.456579000">
        <ele>378.60</ele>
        <time>2016-10-15T09:30:23Z</time>
      </trkpt>
      <trkpt lat="42.479900000" lon="-2.456579000">
        <ele>378.40</ele>
        <time>2016-10-15T09:30:24Z</time>
      </trkpt>
      <trkpt lat="42.479901000" lon="-2.456578000">
        <ele>378.30</ele>
        <time>2016-10-15T09:30:25Z</time>
      </trkpt>
      <trkpt lat="42.479902000" lon="-2.456577000">
        <ele>378.50</ele>
        <time>2016-10-15T09:30:26Z</time>
      </trkpt>
      <trkpt lat="42.479902000" lon="-2.456577000">
        <ele>378.60</ele>
        <time>2016-10-15T09:30:27Z</time>
      </trkpt>
      <trkpt lat="42.479904000" lon="-2.456575000">
        <ele>378.70</ele>
        <time>2016-10-15T09:30:28Z</time>
      </trkpt>
      <trkpt lat="42.479905000" lon="-2.456572000">
        <ele>378.70</ele>
        <time>2016-10-15T09:30:29Z</time>
      </trkpt>
      <trkpt lat="42.479906000" lon="-2.456571000">
        <ele>378.70</ele>
        <time>2016-10-15T09:30:30Z</time>
      </trkpt>
      <trkpt lat="42.479906000" lon="-2.456569000">
        <ele>378.80</ele>
        <time>2016-10-15T09:30:31Z</time>
      </trkpt>
      <trkpt lat="42.479905000" lon="-2.456567000">
        <ele>378.50</ele>
        <time>2016-10-15T09:30:33Z</time>
      </trkpt>
      <trkpt lat="42.479904000" lon="-2.456565000">
        <ele>378.40</ele>
        <time>2016-10-15T09:30:34Z</time>
      </trkpt>
      <trkpt lat="42.479903000" lon="-2.456564000">
        <ele>378.40</ele>
        <time>2016-10-15T09:30:35Z</time>
      </trkpt>
      <trkpt lat="42.479903000" lon="-2.456563000">
        <ele>378.40</ele>
        <time>2016-10-15T09:30:36Z</time>
      </trkpt>
      <trkpt lat="42.479903000" lon="-2.456563000">
        <ele>378.40</ele>
        <time>2016-10-15T09:30:37Z</time>
      </trkpt>
      <trkpt lat="42.479903000" lon="-2.456563000">
        <ele>378.40</ele>
        <time>2016-10-15T09:30:38Z</time>
      </trkpt>
      <trkpt lat="42.479903000" lon="-2.456562000">
        <ele>378.40</ele>
        <time>2016-10-15T09:30:39Z</time>
      </trkpt>
      <trkpt lat="42.479903000" lon="-2.456562000">
        <ele>378.40</ele>
        <time>2016-10-15T09:30:40Z</time>
      </trkpt>
      <trkpt lat="42.479903000" lon="-2.456562000">
        <ele>378.40</ele>
        <time>2016-10-15T09:30:41Z</time>
      </trkpt>
      <trkpt lat="42.479902000" lon="-2.456560000">
        <ele>378.40</ele>
        <time>2016-10-15T09:30:42Z</time>
      </trkpt>
      <trkpt lat="42.479902000" lon="-2.456559000">
        <ele>378.40</ele>
        <time>2016-10-15T09:30:43Z</time>
      </trkpt>
      <trkpt lat="42.479902000" lon="-2.456558000">
        <ele>378.50</ele>
        <time>2016-10-15T09:30:44Z</time>
      </trkpt>
      <trkpt lat="42.479901000" lon="-2.456557000">
        <ele>378.50</ele>
        <time>2016-10-15T09:30:45Z</time>
      </trkpt>
      <trkpt lat="42.479901000" lon="-2.456556000">
        <ele>378.50</ele>
        <time>2016-10-15T09:30:46Z</time>
      </trkpt>
      <trkpt lat="42.479900000" lon="-2.456554000">
        <ele>378.50</ele>
        <time>2016-10-15T09:30:47Z</time>
      </trkpt>
      <trkpt lat="42.479899000" lon="-2.456553000">
        <ele>378.50</ele>
        <time>2016-10-15T09:30:48Z</time>
      </trkpt>
      <trkpt lat="42.479898000" lon="-2.456552000">
        <ele>378.50</ele>
        <time>2016-10-15T09:30:49Z</time>
      </trkpt>
      <trkpt lat="42.479898000" lon="-2.456551000">
        <ele>378.50</ele>
        <time>2016-10-15T09:30:50Z</time>
      </trkpt>
      <trkpt lat="42.479897000" lon="-2.456551000">
        <ele>378.50</ele>
        <time>2016-10-15T09:30:51Z</time>
      </trkpt>
      <trkpt lat="42.479897000" lon="-2.456551000">
        <ele>378.50</ele>
        <time>2016-10-15T09:30:52Z</time>
      </trkpt>
      <trkpt lat="42.479899000" lon="-2.456554000">
        <ele>378.50</ele>
        <time>2016-10-15T09:30:53Z</time>
      </trkpt>
      <trkpt lat="42.479903000" lon="-2.456562000">
        <ele>378.50</ele>
        <time>2016-10-15T09:30:54Z</time>
      </trkpt>
      <trkpt lat="42.479907000" lon="-2.456569000">
        <ele>378.40</ele>
        <time>2016-10-15T09:30:55Z</time>
      </trkpt>
      <trkpt lat="42.479912000" lon="-2.456578000">
        <ele>378.40</ele>
        <time>2016-10-15T09:30:56Z</time>
      </trkpt>
      <trkpt lat="42.479915000" lon="-2.456586000">
        <ele>378.40</ele>
        <time>2016-10-15T09:30:57Z</time>
      </trkpt>
      <trkpt lat="42.479917000" lon="-2.456596000">
        <ele>378.20</ele>
        <time>2016-10-15T09:30:58Z</time>
      </trkpt>
      <trkpt lat="42.479920000" lon="-2.456606000">
        <ele>378.10</ele>
        <time>2016-10-15T09:30:59Z</time>
      </trkpt>
      <trkpt lat="42.479924000" lon="-2.456612000">
        <ele>378.00</ele>
        <time>2016-10-15T09:31:00Z</time>
      </trkpt>
      <trkpt lat="42.479925000" lon="-2.456621000">
        <ele>378.00</ele>
        <time>2016-10-15T09:31:01Z</time>
      </trkpt>
      <trkpt lat="42.479925000" lon="-2.456628000">
        <ele>378.00</ele>
        <time>2016-10-15T09:31:02Z</time>
      </trkpt>
      <trkpt lat="42.479925000" lon="-2.456629000">
        <ele>378.10</ele>
        <time>2016-10-15T09:31:03Z</time>
      </trkpt>
      <trkpt lat="42.479923000" lon="-2.456629000">
        <ele>378.20</ele>
        <time>2016-10-15T09:31:04Z</time>
      </trkpt>
      <trkpt lat="42.479920000" lon="-2.456630000">
        <ele>378.30</ele>
        <time>2016-10-15T09:31:05Z</time>
      </trkpt>
      <trkpt lat="42.479918000" lon="-2.456632000">
        <ele>378.30</ele>
        <time>2016-10-15T09:31:06Z</time>
      </trkpt>
      <trkpt lat="42.479917000" lon="-2.456633000">
        <ele>378.30</ele>
        <time>2016-10-15T09:31:07Z</time>
      </trkpt>
      <trkpt lat="42.479917000" lon="-2.456634000">
        <ele>378.40</ele>
        <time>2016-10-15T09:31:08Z</time>
      </trkpt>
      <trkpt lat="42.479917000" lon="-2.456637000">
        <ele>378.50</ele>
        <time>2016-10-15T09:31:09Z</time>
      </trkpt>
      <trkpt lat="42.479916000" lon="-2.456638000">
        <ele>378.60</ele>
        <time>2016-10-15T09:31:10Z</time>
      </trkpt>
      <trkpt lat="42.479914000" lon="-2.456643000">
        <ele>378.70</ele>
        <time>2016-10-15T09:31:11Z</time>
      </trkpt>
      <trkpt lat="42.479910000" lon="-2.456663000">
        <ele>378.70</ele>
        <time>2016-10-15T09:31:12Z</time>
      </trkpt>
      <trkpt lat="42.479902000" lon="-2.456679000">
        <ele>378.70</ele>
        <time>2016-10-15T09:31:13Z</time>
      </trkpt>
      <trkpt lat="42.479895000" lon="-2.456696000">
        <ele>378.70</ele>
        <time>2016-10-15T09:31:14Z</time>
      </trkpt>
      <trkpt lat="42.479884000" lon="-2.456714000">
        <ele>378.70</ele>
        <time>2016-10-15T09:31:15Z</time>
      </trkpt>
      <trkpt lat="42.479873000" lon="-2.456734000">
        <ele>378.60</ele>
        <time>2016-10-15T09:31:16Z</time>
      </trkpt>
      <trkpt lat="42.479859000" lon="-2.456751000">
        <ele>378.60</ele>
        <time>2016-10-15T09:31:17Z</time>
      </trkpt>
      <trkpt lat="42.479843000" lon="-2.456763000">
        <ele>378.60</ele>
        <time>2016-10-15T09:31:18Z</time>
      </trkpt>
      <trkpt lat="42.479827000" lon="-2.456774000">
        <ele>378.60</ele>
        <time>2016-10-15T09:31:19Z</time>
      </trkpt>
      <trkpt lat="42.479811000" lon="-2.456786000">
        <ele>378.60</ele>
        <time>2016-10-15T09:31:20Z</time>
      </trkpt>
      <trkpt lat="42.479794000" lon="-2.456799000">
        <ele>378.60</ele>
        <time>2016-10-15T09:31:21Z</time>
      </trkpt>
      <trkpt lat="42.479775000" lon="-2.456811000">
        <ele>378.60</ele>
        <time>2016-10-15T09:31:22Z</time>
      </trkpt>
      <trkpt lat="42.479756000" lon="-2.456823000">
        <ele>378.60</ele>
        <time>2016-10-15T09:31:23Z</time>
      </trkpt>
      <trkpt lat="42.479733000" lon="-2.456837000">
        <ele>378.60</ele>
        <time>2016-10-15T09:31:24Z</time>
      </trkpt>
      <trkpt lat="42.479712000" lon="-2.456845000">
        <ele>378.50</ele>
        <time>2016-10-15T09:31:25Z</time>
      </trkpt>
      <trkpt lat="42.479689000" lon="-2.456842000">
        <ele>378.40</ele>
        <time>2016-10-15T09:31:26Z</time>
      </trkpt>
      <trkpt lat="42.479664000" lon="-2.456843000">
        <ele>378.30</ele>
        <time>2016-10-15T09:31:27Z</time>
      </trkpt>
      <trkpt lat="42.479637000" lon="-2.456841000">
        <ele>378.30</ele>
        <time>2016-10-15T09:31:28Z</time>
      </trkpt>
      <trkpt lat="42.479610000" lon="-2.456833000">
        <ele>378.20</ele>
        <time>2016-10-15T09:31:29Z</time>
      </trkpt>
      <trkpt lat="42.479581000" lon="-2.456826000">
        <ele>378.30</ele>
        <time>2016-10-15T09:31:30Z</time>
      </trkpt>
      <trkpt lat="42.479561000" lon="-2.456821000">
        <ele>378.30</ele>
        <time>2016-10-15T09:31:31Z</time>
      </trkpt>
      <trkpt lat="42.479545000" lon="-2.456823000">
        <ele>378.30</ele>
        <time>2016-10-15T09:31:32Z</time>
      </trkpt>
      <trkpt lat="42.479516000" lon="-2.456826000">
        <ele>378.30</ele>
        <time>2016-10-15T09:31:34Z</time>
      </trkpt>
      <trkpt lat="42.479504000" lon="-2.456832000">
        <ele>378.30</ele>
        <time>2016-10-15T09:31:35Z</time>
      </trkpt>
      <trkpt lat="42.479494000" lon="-2.456838000">
        <ele>378.20</ele>
        <time>2016-10-15T09:31:36Z</time>
      </trkpt>
      <trkpt lat="42.479484000" lon="-2.456848000">
        <ele>378.20</ele>
        <time>2016-10-15T09:31:37Z</time>
      </trkpt>
      <trkpt lat="42.479475000" lon="-2.456863000">
        <ele>378.10</ele>
        <time>2016-10-15T09:31:38Z</time>
      </trkpt>
      <trkpt lat="42.479467000" lon="-2.456888000">
        <ele>378.20</ele>
        <time>2016-10-15T09:31:39Z</time>
      </trkpt>
      <trkpt lat="42.479469000" lon="-2.456923000">
        <ele>378.20</ele>
        <time>2016-10-15T09:31:40Z</time>
      </trkpt>
      <trkpt lat="42.479482000" lon="-2.456953000">
        <ele>378.20</ele>
        <time>2016-10-15T09:31:41Z</time>
      </trkpt>
      <trkpt lat="42.479499000" lon="-2.456974000">
        <ele>378.20</ele>
        <time>2016-10-15T09:31:42Z</time>
      </trkpt>
      <trkpt lat="42.479515000" lon="-2.456992000">
        <ele>378.20</ele>
        <time>2016-10-15T09:31:43Z</time>
      </trkpt>
      <trkpt lat="42.479533000" lon="-2.457010000">
        <ele>378.10</ele>
        <time>2016-10-15T09:31:44Z</time>
      </trkpt>
      <trkpt lat="42.479555000" lon="-2.457021000">
        <ele>378.00</ele>
        <time>2016-10-15T09:31:45Z</time>
      </trkpt>
      <trkpt lat="42.479577000" lon="-2.457039000">
        <ele>378.00</ele>
        <time>2016-10-15T09:31:46Z</time>
      </trkpt>
      <trkpt lat="42.479606000" lon="-2.457060000">
        <ele>377.90</ele>
        <time>2016-10-15T09:31:47Z</time>
      </trkpt>
      <trkpt lat="42.479639000" lon="-2.457083000">
        <ele>377.90</ele>
        <time>2016-10-15T09:31:48Z</time>
      </trkpt>
      <trkpt lat="42.479676000" lon="-2.457106000">
        <ele>377.80</ele>
        <time>2016-10-15T09:31:49Z</time>
      </trkpt>
      <trkpt lat="42.479712000" lon="-2.457133000">
        <ele>377.70</ele>
        <time>2016-10-15T09:31:50Z</time>
      </trkpt>
      <trkpt lat="42.479746000" lon="-2.457165000">
        <ele>377.60</ele>
        <time>2016-10-15T09:31:51Z</time>
      </trkpt>
      <trkpt lat="42.479775000" lon="-2.457205000">
        <ele>377.50</ele>
        <time>2016-10-15T09:31:52Z</time>
      </trkpt>
      <trkpt lat="42.479797000" lon="-2.457254000">
        <ele>377.40</ele>
        <time>2016-10-15T09:31:53Z</time>
      </trkpt>
      <trkpt lat="42.479806000" lon="-2.457311000">
        <ele>377.40</ele>
        <time>2016-10-15T09:31:54Z</time>
      </trkpt>
      <trkpt lat="42.479806000" lon="-2.457368000">
        <ele>377.40</ele>
        <time>2016-10-15T09:31:55Z</time>
      </trkpt>
      <trkpt lat="42.479799000" lon="-2.457426000">
        <ele>377.30</ele>
        <time>2016-10-15T09:31:56Z</time>
      </trkpt>
      <trkpt lat="42.479783000" lon="-2.457481000">
        <ele>377.30</ele>
        <time>2016-10-15T09:31:57Z</time>
      </trkpt>
      <trkpt lat="42.479764000" lon="-2.457529000">
        <ele>377.30</ele>
        <time>2016-10-15T09:31:58Z</time>
      </trkpt>
      <trkpt lat="42.479735000" lon="-2.457566000">
        <ele>377.30</ele>
        <time>2016-10-15T09:31:59Z</time>
      </trkpt>
      <trkpt lat="42.479704000" lon="-2.457600000">
        <ele>377.40</ele>
        <time>2016-10-15T09:32:00Z</time>
      </trkpt>
      <trkpt lat="42.479670000" lon="-2.457624000">
        <ele>377.60</ele>
        <time>2016-10-15T09:32:01Z</time>
      </trkpt>
      <trkpt lat="42.479634000" lon="-2.457635000">
        <ele>377.80</ele>
        <time>2016-10-15T09:32:02Z</time>
      </trkpt>
      <trkpt lat="42.479597000" lon="-2.457641000">
        <ele>378.00</ele>
        <time>2016-10-15T09:32:03Z</time>
      </trkpt>
      <trkpt lat="42.479557000" lon="-2.457642000">
        <ele>378.10</ele>
        <time>2016-10-15T09:32:04Z</time>
      </trkpt>
      <trkpt lat="42.479521000" lon="-2.457646000">
        <ele>378.20</ele>
        <time>2016-10-15T09:32:05Z</time>
      </trkpt>
      <trkpt lat="42.479483000" lon="-2.457658000">
        <ele>378.30</ele>
        <time>2016-10-15T09:32:06Z</time>
      </trkpt>
      <trkpt lat="42.479448000" lon="-2.457682000">
        <ele>378.30</ele>
        <time>2016-10-15T09:32:07Z</time>
      </trkpt>
      <trkpt lat="42.479413000" lon="-2.457713000">
        <ele>378.30</ele>
        <time>2016-10-15T09:32:08Z</time>
      </trkpt>
      <trkpt lat="42.479383000" lon="-2.457747000">
        <ele>378.10</ele>
        <time>2016-10-15T09:32:09Z</time>
      </trkpt>
      <trkpt lat="42.479354000" lon="-2.457783000">
        <ele>377.90</ele>
        <time>2016-10-15T09:32:10Z</time>
      </trkpt>
      <trkpt lat="42.479327000" lon="-2.457822000">
        <ele>377.80</ele>
        <time>2016-10-15T09:32:11Z</time>
      </trkpt>
      <trkpt lat="42.479296000" lon="-2.457860000">
        <ele>377.70</ele>
        <time>2016-10-15T09:32:12Z</time>
      </trkpt>
      <trkpt lat="42.479265000" lon="-2.457896000">
        <ele>377.60</ele>
        <time>2016-10-15T09:32:13Z</time>
      </trkpt>
      <trkpt lat="42.479235000" lon="-2.457931000">
        <ele>377.60</ele>
        <time>2016-10-15T09:32:14Z</time>
      </trkpt>
      <trkpt lat="42.479204000" lon="-2.457966000">
        <ele>377.60</ele>
        <time>2016-10-15T09:32:15Z</time>
      </trkpt>
      <trkpt lat="42.479176000" lon="-2.458004000">
        <ele>377.60</ele>
        <time>2016-10-15T09:32:16Z</time>
      </trkpt>
      <trkpt lat="42.479145000" lon="-2.458042000">
        <ele>377.60</ele>
        <time>2016-10-15T09:32:17Z</time>
      </trkpt>
      <trkpt lat="42.479115000" lon="-2.458078000">
        <ele>377.60</ele>
        <time>2016-10-15T09:32:18Z</time>
      </trkpt>
      <trkpt lat="42.479083000" lon="-2.458112000">
        <ele>377.70</ele>
        <time>2016-10-15T09:32:19Z</time>
      </trkpt>
      <trkpt lat="42.479051000" lon="-2.458146000">
        <ele>377.70</ele>
        <time>2016-10-15T09:32:20Z</time>
      </trkpt>
      <trkpt lat="42.479021000" lon="-2.458183000">
        <ele>377.60</ele>
        <time>2016-10-15T09:32:21Z</time>
      </trkpt>
      <trkpt lat="42.478988000" lon="-2.458219000">
        <ele>377.60</ele>
        <time>2016-10-15T09:32:22Z</time>
      </trkpt>
      <trkpt lat="42.478959000" lon="-2.458259000">
        <ele>377.60</ele>
        <time>2016-10-15T09:32:23Z</time>
      </trkpt>
      <trkpt lat="42.478928000" lon="-2.458295000">
        <ele>377.60</ele>
        <time>2016-10-15T09:32:24Z</time>
      </trkpt>
      <trkpt lat="42.478897000" lon="-2.458331000">
        <ele>377.60</ele>
        <time>2016-10-15T09:32:25Z</time>
      </trkpt>
      <trkpt lat="42.478865000" lon="-2.458369000">
        <ele>377.60</ele>
        <time>2016-10-15T09:32:26Z</time>
      </trkpt>
      <trkpt lat="42.478833000" lon="-2.458407000">
        <ele>377.70</ele>
        <time>2016-10-15T09:32:27Z</time>
      </trkpt>
      <trkpt lat="42.478801000" lon="-2.458447000">
        <ele>377.70</ele>
        <time>2016-10-15T09:32:28Z</time>
      </trkpt>
      <trkpt lat="42.478768000" lon="-2.458486000">
        <ele>377.70</ele>
        <time>2016-10-15T09:32:29Z</time>
      </trkpt>
      <trkpt lat="42.478736000" lon="-2.458524000">
        <ele>377.70</ele>
        <time>2016-10-15T09:32:30Z</time>
      </trkpt>
      <trkpt lat="42.478704000" lon="-2.458561000">
        <ele>377.50</ele>
        <time>2016-10-15T09:32:31Z</time>
      </trkpt>
      <trkpt lat="42.478675000" lon="-2.458598000">
        <ele>377.30</ele>
        <time>2016-10-15T09:32:32Z</time>
      </trkpt>
      <trkpt lat="42.478647000" lon="-2.458634000">
        <ele>377.50</ele>
        <time>2016-10-15T09:32:33Z</time>
      </trkpt>
      <trkpt lat="42.478588000" lon="-2.458708000">
        <ele>377.60</ele>
        <time>2016-10-15T09:32:35Z</time>
      </trkpt>
      <trkpt lat="42.478558000" lon="-2.458744000">
        <ele>377.70</ele>
        <time>2016-10-15T09:32:36Z</time>
      </trkpt>
      <trkpt lat="42.478526000" lon="-2.458779000">
        <ele>377.70</ele>
        <time>2016-10-15T09:32:37Z</time>
      </trkpt>
      <trkpt lat="42.478495000" lon="-2.458815000">
        <ele>377.80</ele>
        <time>2016-10-15T09:32:38Z</time>
      </trkpt>
      <trkpt lat="42.478465000" lon="-2.458852000">
        <ele>377.70</ele>
        <time>2016-10-15T09:32:39Z</time>
      </trkpt>
      <trkpt lat="42.478434000" lon="-2.458889000">
        <ele>377.70</ele>
        <time>2016-10-15T09:32:40Z</time>
      </trkpt>
      <trkpt lat="42.478406000" lon="-2.458926000">
        <ele>377.60</ele>
        <time>2016-10-15T09:32:41Z</time>
      </trkpt>
      <trkpt lat="42.478377000" lon="-2.458961000">
        <ele>377.50</ele>
        <time>2016-10-15T09:32:42Z</time>
      </trkpt>
      <trkpt lat="42.478348000" lon="-2.458998000">
        <ele>377.40</ele>
        <time>2016-10-15T09:32:43Z</time>
      </trkpt>
      <trkpt lat="42.478319000" lon="-2.459031000">
        <ele>377.20</ele>
        <time>2016-10-15T09:32:44Z</time>
      </trkpt>
      <trkpt lat="42.478288000" lon="-2.459062000">
        <ele>377.10</ele>
        <time>2016-10-15T09:32:45Z</time>
      </trkpt>
      <trkpt lat="42.478258000" lon="-2.459096000">
        <ele>377.00</ele>
        <time>2016-10-15T09:32:46Z</time>
      </trkpt>
      <trkpt lat="42.478228000" lon="-2.459130000">
        <ele>377.10</ele>
        <time>2016-10-15T09:32:47Z</time>
      </trkpt>
      <trkpt lat="42.478199000" lon="-2.459164000">
        <ele>377.10</ele>
        <time>2016-10-15T09:32:48Z</time>
      </trkpt>
      <trkpt lat="42.478171000" lon="-2.459198000">
        <ele>377.10</ele>
        <time>2016-10-15T09:32:49Z</time>
      </trkpt>
      <trkpt lat="42.478141000" lon="-2.459232000">
        <ele>377.10</ele>
        <time>2016-10-15T09:32:50Z</time>
      </trkpt>
      <trkpt lat="42.478113000" lon="-2.459265000">
        <ele>377.10</ele>
        <time>2016-10-15T09:32:51Z</time>
      </trkpt>
      <trkpt lat="42.478085000" lon="-2.459299000">
        <ele>377.10</ele>
        <time>2016-10-15T09:32:52Z</time>
      </trkpt>
      <trkpt lat="42.478056000" lon="-2.459334000">
        <ele>377.20</ele>
        <time>2016-10-15T09:32:53Z</time>
      </trkpt>
      <trkpt lat="42.478028000" lon="-2.459368000">
        <ele>377.30</ele>
        <time>2016-10-15T09:32:54Z</time>
      </trkpt>
      <trkpt lat="42.477998000" lon="-2.459402000">
        <ele>377.40</ele>
        <time>2016-10-15T09:32:55Z</time>
      </trkpt>
      <trkpt lat="42.477968000" lon="-2.459437000">
        <ele>377.50</ele>
        <time>2016-10-15T09:32:56Z</time>
      </trkpt>
      <trkpt lat="42.477939000" lon="-2.459475000">
        <ele>377.60</ele>
        <time>2016-10-15T09:32:57Z</time>
      </trkpt>
      <trkpt lat="42.477910000" lon="-2.459510000">
        <ele>377.70</ele>
        <time>2016-10-15T09:32:58Z</time>
      </trkpt>
      <trkpt lat="42.477880000" lon="-2.459544000">
        <ele>377.70</ele>
        <time>2016-10-15T09:32:59Z</time>
      </trkpt>
      <trkpt lat="42.477852000" lon="-2.459578000">
        <ele>377.80</ele>
        <time>2016-10-15T09:33:00Z</time>
      </trkpt>
      <trkpt lat="42.477823000" lon="-2.459613000">
        <ele>377.80</ele>
        <time>2016-10-15T09:33:01Z</time>
      </trkpt>
      <trkpt lat="42.477793000" lon="-2.459648000">
        <ele>377.90</ele>
        <time>2016-10-15T09:33:02Z</time>
      </trkpt>
      <trkpt lat="42.477764000" lon="-2.459683000">
        <ele>377.80</ele>
        <time>2016-10-15T09:33:03Z</time>
      </trkpt>
      <trkpt lat="42.477734000" lon="-2.459719000">
        <ele>377.80</ele>
        <time>2016-10-15T09:33:04Z</time>
      </trkpt>
      <trkpt lat="42.477704000" lon="-2.459755000">
        <ele>377.90</ele>
        <time>2016-10-15T09:33:05Z</time>
      </trkpt>
      <trkpt lat="42.477674000" lon="-2.459789000">
        <ele>377.90</ele>
        <time>2016-10-15T09:33:06Z</time>
      </trkpt>
      <trkpt lat="42.477645000" lon="-2.459824000">
        <ele>378.00</ele>
        <time>2016-10-15T09:33:07Z</time>
      </trkpt>
      <trkpt lat="42.477614000" lon="-2.459860000">
        <ele>378.00</ele>
        <time>2016-10-15T09:33:08Z</time>
      </trkpt>
      <trkpt lat="42.477587000" lon="-2.459897000">
        <ele>378.00</ele>
        <time>2016-10-15T09:33:09Z</time>
      </trkpt>
      <trkpt lat="42.477556000" lon="-2.459935000">
        <ele>378.10</ele>
        <time>2016-10-15T09:33:10Z</time>
      </trkpt>
      <trkpt lat="42.477525000" lon="-2.459972000">
        <ele>378.10</ele>
        <time>2016-10-15T09:33:11Z</time>
      </trkpt>
      <trkpt lat="42.477495000" lon="-2.460008000">
        <ele>378.10</ele>
        <time>2016-10-15T09:33:12Z</time>
      </trkpt>
      <trkpt lat="42.477465000" lon="-2.460044000">
        <ele>378.10</ele>
        <time>2016-10-15T09:33:13Z</time>
      </trkpt>
      <trkpt lat="42.477434000" lon="-2.460084000">
        <ele>378.10</ele>
        <time>2016-10-15T09:33:14Z</time>
      </trkpt>
      <trkpt lat="42.477405000" lon="-2.460122000">
        <ele>378.20</ele>
        <time>2016-10-15T09:33:15Z</time>
      </trkpt>
      <trkpt lat="42.477371000" lon="-2.460155000">
        <ele>378.20</ele>
        <time>2016-10-15T09:33:16Z</time>
      </trkpt>
      <trkpt lat="42.477340000" lon="-2.460191000">
        <ele>378.30</ele>
        <time>2016-10-15T09:33:17Z</time>
      </trkpt>
      <trkpt lat="42.477307000" lon="-2.460228000">
        <ele>378.30</ele>
        <time>2016-10-15T09:33:18Z</time>
      </trkpt>
      <trkpt lat="42.477275000" lon="-2.460264000">
        <ele>378.30</ele>
        <time>2016-10-15T09:33:19Z</time>
      </trkpt>
      <trkpt lat="42.477243000" lon="-2.460300000">
        <ele>378.30</ele>
        <time>2016-10-15T09:33:20Z</time>
      </trkpt>
      <trkpt lat="42.477216000" lon="-2.460334000">
        <ele>378.30</ele>
        <time>2016-10-15T09:33:21Z</time>
      </trkpt>
      <trkpt lat="42.477188000" lon="-2.460370000">
        <ele>378.30</ele>
        <time>2016-10-15T09:33:22Z</time>
      </trkpt>
      <trkpt lat="42.477160000" lon="-2.460407000">
        <ele>378.30</ele>
        <time>2016-10-15T09:33:23Z</time>
      </trkpt>
      <trkpt lat="42.477128000" lon="-2.460439000">
        <ele>378.40</ele>
        <time>2016-10-15T09:33:24Z</time>
      </trkpt>
      <trkpt lat="42.477097000" lon="-2.460469000">
        <ele>378.40</ele>
        <time>2016-10-15T09:33:25Z</time>
      </trkpt>
      <trkpt lat="42.477064000" lon="-2.460506000">
        <ele>378.50</ele>
        <time>2016-10-15T09:33:26Z</time>
      </trkpt>
      <trkpt lat="42.477032000" lon="-2.460542000">
        <ele>378.50</ele>
        <time>2016-10-15T09:33:27Z</time>
      </trkpt>
      <trkpt lat="42.477002000" lon="-2.460579000">
        <ele>378.50</ele>
        <time>2016-10-15T09:33:28Z</time>
      </trkpt>
      <trkpt lat="42.476972000" lon="-2.460611000">
        <ele>378.60</ele>
        <time>2016-10-15T09:33:29Z</time>
      </trkpt>
      <trkpt lat="42.476943000" lon="-2.460648000">
        <ele>378.70</ele>
        <time>2016-10-15T09:33:30Z</time>
      </trkpt>
      <trkpt lat="42.476914000" lon="-2.460685000">
        <ele>378.70</ele>
        <time>2016-10-15T09:33:31Z</time>
      </trkpt>
      <trkpt lat="42.476885000" lon="-2.460720000">
        <ele>378.80</ele>
        <time>2016-10-15T09:33:32Z</time>
      </trkpt>
      <trkpt lat="42.476855000" lon="-2.460756000">
        <ele>378.90</ele>
        <time>2016-10-15T09:33:33Z</time>
      </trkpt>
      <trkpt lat="42.476825000" lon="-2.460791000">
        <ele>378.90</ele>
        <time>2016-10-15T09:33:34Z</time>
      </trkpt>
      <trkpt lat="42.476764000" lon="-2.460863000">
        <ele>379.30</ele>
        <time>2016-10-15T09:33:36Z</time>
      </trkpt>
      <trkpt lat="42.476735000" lon="-2.460900000">
        <ele>379.40</ele>
        <time>2016-10-15T09:33:37Z</time>
      </trkpt>
      <trkpt lat="42.476702000" lon="-2.460941000">
        <ele>379.40</ele>
        <time>2016-10-15T09:33:38Z</time>
      </trkpt>
      <trkpt lat="42.476669000" lon="-2.460979000">
        <ele>379.60</ele>
        <time>2016-10-15T09:33:39Z</time>
      </trkpt>
      <trkpt lat="42.476636000" lon="-2.461016000">
        <ele>379.60</ele>
        <time>2016-10-15T09:33:40Z</time>
      </trkpt>
      <trkpt lat="42.476604000" lon="-2.461054000">
        <ele>379.70</ele>
        <time>2016-10-15T09:33:41Z</time>
      </trkpt>
      <trkpt lat="42.476574000" lon="-2.461092000">
        <ele>379.80</ele>
        <time>2016-10-15T09:33:42Z</time>
      </trkpt>
      <trkpt lat="42.476541000" lon="-2.461130000">
        <ele>379.80</ele>
        <time>2016-10-15T09:33:43Z</time>
      </trkpt>
      <trkpt lat="42.476509000" lon="-2.461168000">
        <ele>379.80</ele>
        <time>2016-10-15T09:33:44Z</time>
      </trkpt>
      <trkpt lat="42.476479000" lon="-2.461206000">
        <ele>379.70</ele>
        <time>2016-10-15T09:33:45Z</time>
      </trkpt>
      <trkpt lat="42.476450000" lon="-2.461246000">
        <ele>379.60</ele>
        <time>2016-10-15T09:33:46Z</time>
      </trkpt>
      <trkpt lat="42.476417000" lon="-2.461284000">
        <ele>379.60</ele>
        <time>2016-10-15T09:33:47Z</time>
      </trkpt>
      <trkpt lat="42.476386000" lon="-2.461318000">
        <ele>379.50</ele>
        <time>2016-10-15T09:33:48Z</time>
      </trkpt>
      <trkpt lat="42.476354000" lon="-2.461355000">
        <ele>379.50</ele>
        <time>2016-10-15T09:33:49Z</time>
      </trkpt>
      <trkpt lat="42.476325000" lon="-2.461393000">
        <ele>379.50</ele>
        <time>2016-10-15T09:33:50Z</time>
      </trkpt>
      <trkpt lat="42.476293000" lon="-2.461430000">
        <ele>379.70</ele>
        <time>2016-10-15T09:33:51Z</time>
      </trkpt>
      <trkpt lat="42.476259000" lon="-2.461470000">
        <ele>379.80</ele>
        <time>2016-10-15T09:33:52Z</time>
      </trkpt>
      <trkpt lat="42.476226000" lon="-2.461504000">
        <ele>379.90</ele>
        <time>2016-10-15T09:33:53Z</time>
      </trkpt>
      <trkpt lat="42.476194000" lon="-2.461542000">
        <ele>380.00</ele>
        <time>2016-10-15T09:33:54Z</time>
      </trkpt>
      <trkpt lat="42.476162000" lon="-2.461580000">
        <ele>380.10</ele>
        <time>2016-10-15T09:33:55Z</time>
      </trkpt>
      <trkpt lat="42.476134000" lon="-2.461614000">
        <ele>380.20</ele>
        <time>2016-10-15T09:33:56Z</time>
      </trkpt>
      <trkpt lat="42.476103000" lon="-2.461652000">
        <ele>380.20</ele>
        <time>2016-10-15T09:33:57Z</time>
      </trkpt>
      <trkpt lat="42.476071000" lon="-2.461691000">
        <ele>380.30</ele>
        <time>2016-10-15T09:33:58Z</time>
      </trkpt>
      <trkpt lat="42.476041000" lon="-2.461729000">
        <ele>380.30</ele>
        <time>2016-10-15T09:33:59Z</time>
      </trkpt>
      <trkpt lat="42.476012000" lon="-2.461765000">
        <ele>380.20</ele>
        <time>2016-10-15T09:34:00Z</time>
      </trkpt>
      <trkpt lat="42.475984000" lon="-2.461800000">
        <ele>380.20</ele>
        <time>2016-10-15T09:34:01Z</time>
      </trkpt>
      <trkpt lat="42.475954000" lon="-2.461835000">
        <ele>380.20</ele>
        <time>2016-10-15T09:34:02Z</time>
      </trkpt>
      <trkpt lat="42.475923000" lon="-2.461871000">
        <ele>380.40</ele>
        <time>2016-10-15T09:34:03Z</time>
      </trkpt>
      <trkpt lat="42.475892000" lon="-2.461906000">
        <ele>380.50</ele>
        <time>2016-10-15T09:34:04Z</time>
      </trkpt>
      <trkpt lat="42.475861000" lon="-2.461943000">
        <ele>380.60</ele>
        <time>2016-10-15T09:34:05Z</time>
      </trkpt>
      <trkpt lat="42.475831000" lon="-2.461981000">
        <ele>380.70</ele>
        <time>2016-10-15T09:34:06Z</time>
      </trkpt>
      <trkpt lat="42.475800000" lon="-2.462017000">
        <ele>380.80</ele>
        <time>2016-10-15T09:34:07Z</time>
      </trkpt>
      <trkpt lat="42.475768000" lon="-2.462055000">
        <ele>380.90</ele>
        <time>2016-10-15T09:34:08Z</time>
      </trkpt>
      <trkpt lat="42.475736000" lon="-2.462089000">
        <ele>381.00</ele>
        <time>2016-10-15T09:34:09Z</time>
      </trkpt>
      <trkpt lat="42.475705000" lon="-2.462124000">
        <ele>381.10</ele>
        <time>2016-10-15T09:34:10Z</time>
      </trkpt>
      <trkpt lat="42.475675000" lon="-2.462163000">
        <ele>381.00</ele>
        <time>2016-10-15T09:34:11Z</time>
      </trkpt>
      <trkpt lat="42.475644000" lon="-2.462201000">
        <ele>381.00</ele>
        <time>2016-10-15T09:34:12Z</time>
      </trkpt>
      <trkpt lat="42.475612000" lon="-2.462237000">
        <ele>381.00</ele>
        <time>2016-10-15T09:34:13Z</time>
      </trkpt>
      <trkpt lat="42.475584000" lon="-2.462272000">
        <ele>381.00</ele>
        <time>2016-10-15T09:34:14Z</time>
      </trkpt>
      <trkpt lat="42.475552000" lon="-2.462305000">
        <ele>381.00</ele>
        <time>2016-10-15T09:34:15Z</time>
      </trkpt>
      <trkpt lat="42.475518000" lon="-2.462342000">
        <ele>381.00</ele>
        <time>2016-10-15T09:34:16Z</time>
      </trkpt>
      <trkpt lat="42.475487000" lon="-2.462375000">
        <ele>381.00</ele>
        <time>2016-10-15T09:34:17Z</time>
      </trkpt>
      <trkpt lat="42.475458000" lon="-2.462411000">
        <ele>381.00</ele>
        <time>2016-10-15T09:34:18Z</time>
      </trkpt>
      <trkpt lat="42.475426000" lon="-2.462446000">
        <ele>380.90</ele>
        <time>2016-10-15T09:34:19Z</time>
      </trkpt>
      <trkpt lat="42.475396000" lon="-2.462482000">
        <ele>380.90</ele>
        <time>2016-10-15T09:34:20Z</time>
      </trkpt>
      <trkpt lat="42.475366000" lon="-2.462515000">
        <ele>380.80</ele>
        <time>2016-10-15T09:34:21Z</time>
      </trkpt>
      <trkpt lat="42.475336000" lon="-2.462551000">
        <ele>380.80</ele>
        <time>2016-10-15T09:34:22Z</time>
      </trkpt>
      <trkpt lat="42.475305000" lon="-2.462584000">
        <ele>381.10</ele>
        <time>2016-10-15T09:34:23Z</time>
      </trkpt>
      <trkpt lat="42.475276000" lon="-2.462620000">
        <ele>381.30</ele>
        <time>2016-10-15T09:34:24Z</time>
      </trkpt>
      <trkpt lat="42.475248000" lon="-2.462659000">
        <ele>381.50</ele>
        <time>2016-10-15T09:34:25Z</time>
      </trkpt>
      <trkpt lat="42.475219000" lon="-2.462694000">
        <ele>381.60</ele>
        <time>2016-10-15T09:34:26Z</time>
      </trkpt>
      <trkpt lat="42.475189000" lon="-2.462728000">
        <ele>381.70</ele>
        <time>2016-10-15T09:34:27Z</time>
      </trkpt>
      <trkpt lat="42.475159000" lon="-2.462765000">
        <ele>381.80</ele>
        <time>2016-10-15T09:34:28Z</time>
      </trkpt>
      <trkpt lat="42.475130000" lon="-2.462801000">
        <ele>381.80</ele>
        <time>2016-10-15T09:34:29Z</time>
      </trkpt>
      <trkpt lat="42.475102000" lon="-2.462837000">
        <ele>381.90</ele>
        <time>2016-10-15T09:34:30Z</time>
      </trkpt>
      <trkpt lat="42.475070000" lon="-2.462869000">
        <ele>381.90</ele>
        <time>2016-10-15T09:34:31Z</time>
      </trkpt>
      <trkpt lat="42.475042000" lon="-2.462903000">
        <ele>381.90</ele>
        <time>2016-10-15T09:34:32Z</time>
      </trkpt>
      <trkpt lat="42.475012000" lon="-2.462937000">
        <ele>382.00</ele>
        <time>2016-10-15T09:34:33Z</time>
      </trkpt>
      <trkpt lat="42.474983000" lon="-2.462971000">
        <ele>382.10</ele>
        <time>2016-10-15T09:34:34Z</time>
      </trkpt>
      <trkpt lat="42.474954000" lon="-2.463007000">
        <ele>382.10</ele>
        <time>2016-10-15T09:34:35Z</time>
      </trkpt>
      <trkpt lat="42.474894000" lon="-2.463080000">
        <ele>382.20</ele>
        <time>2016-10-15T09:34:37Z</time>
      </trkpt>
      <trkpt lat="42.474863000" lon="-2.463114000">
        <ele>382.20</ele>
        <time>2016-10-15T09:34:38Z</time>
      </trkpt>
      <trkpt lat="42.474832000" lon="-2.463150000">
        <ele>382.30</ele>
        <time>2016-10-15T09:34:39Z</time>
      </trkpt>
      <trkpt lat="42.474802000" lon="-2.463184000">
        <ele>382.30</ele>
        <time>2016-10-15T09:34:40Z</time>
      </trkpt>
      <trkpt lat="42.474772000" lon="-2.463221000">
        <ele>382.40</ele>
        <time>2016-10-15T09:34:41Z</time>
      </trkpt>
      <trkpt lat="42.474745000" lon="-2.463258000">
        <ele>382.40</ele>
        <time>2016-10-15T09:34:42Z</time>
      </trkpt>
      <trkpt lat="42.474717000" lon="-2.463293000">
        <ele>382.40</ele>
        <time>2016-10-15T09:34:43Z</time>
      </trkpt>
      <trkpt lat="42.474688000" lon="-2.463327000">
        <ele>382.50</ele>
        <time>2016-10-15T09:34:44Z</time>
      </trkpt>
      <trkpt lat="42.474657000" lon="-2.463360000">
        <ele>382.60</ele>
        <time>2016-10-15T09:34:45Z</time>
      </trkpt>
      <trkpt lat="42.474628000" lon="-2.463395000">
        <ele>382.70</ele>
        <time>2016-10-15T09:34:46Z</time>
      </trkpt>
      <trkpt lat="42.474598000" lon="-2.463428000">
        <ele>382.80</ele>
        <time>2016-10-15T09:34:47Z</time>
      </trkpt>
      <trkpt lat="42.474567000" lon="-2.463462000">
        <ele>382.80</ele>
        <time>2016-10-15T09:34:48Z</time>
      </trkpt>
      <trkpt lat="42.474538000" lon="-2.463493000">
        <ele>382.90</ele>
        <time>2016-10-15T09:34:49Z</time>
      </trkpt>
      <trkpt lat="42.474504000" lon="-2.463529000">
        <ele>382.90</ele>
        <time>2016-10-15T09:34:50Z</time>
      </trkpt>
      <trkpt lat="42.474474000" lon="-2.463564000">
        <ele>383.20</ele>
        <time>2016-10-15T09:34:51Z</time>
      </trkpt>
      <trkpt lat="42.474442000" lon="-2.463601000">
        <ele>383.40</ele>
        <time>2016-10-15T09:34:52Z</time>
      </trkpt>
      <trkpt lat="42.474413000" lon="-2.463637000">
        <ele>383.60</ele>
        <time>2016-10-15T09:34:53Z</time>
      </trkpt>
      <trkpt lat="42.474386000" lon="-2.463672000">
        <ele>383.80</ele>
        <time>2016-10-15T09:34:54Z</time>
      </trkpt>
      <trkpt lat="42.474358000" lon="-2.463706000">
        <ele>383.90</ele>
        <time>2016-10-15T09:34:55Z</time>
      </trkpt>
      <trkpt lat="42.474330000" lon="-2.463739000">
        <ele>383.90</ele>
        <time>2016-10-15T09:34:56Z</time>
      </trkpt>
      <trkpt lat="42.474301000" lon="-2.463772000">
        <ele>384.20</ele>
        <time>2016-10-15T09:34:57Z</time>
      </trkpt>
      <trkpt lat="42.474273000" lon="-2.463807000">
        <ele>384.30</ele>
        <time>2016-10-15T09:34:58Z</time>
      </trkpt>
      <trkpt lat="42.474244000" lon="-2.463844000">
        <ele>384.50</ele>
        <time>2016-10-15T09:34:59Z</time>
      </trkpt>
      <trkpt lat="42.474215000" lon="-2.463880000">
        <ele>384.60</ele>
        <time>2016-10-15T09:35:00Z</time>
      </trkpt>
      <trkpt lat="42.474189000" lon="-2.463917000">
        <ele>384.70</ele>
        <time>2016-10-15T09:35:01Z</time>
      </trkpt>
      <trkpt lat="42.474161000" lon="-2.463950000">
        <ele>384.80</ele>
        <time>2016-10-15T09:35:02Z</time>
      </trkpt>
      <trkpt lat="42.474131000" lon="-2.463980000">
        <ele>385.10</ele>
        <time>2016-10-15T09:35:03Z</time>
      </trkpt>
      <trkpt lat="42.474106000" lon="-2.464014000">
        <ele>385.30</ele>
        <time>2016-10-15T09:35:04Z</time>
      </trkpt>
      <trkpt lat="42.474076000" lon="-2.464049000">
        <ele>385.50</ele>
        <time>2016-10-15T09:35:05Z</time>
      </trkpt>
      <trkpt lat="42.474047000" lon="-2.464085000">
        <ele>385.60</ele>
        <time>2016-10-15T09:35:06Z</time>
      </trkpt>
      <trkpt lat="42.474018000" lon="-2.464120000">
        <ele>385.80</ele>
        <time>2016-10-15T09:35:07Z</time>
      </trkpt>
      <trkpt lat="42.473988000" lon="-2.464152000">
        <ele>385.90</ele>
        <time>2016-10-15T09:35:08Z</time>
      </trkpt>
      <trkpt lat="42.473959000" lon="-2.464186000">
        <ele>386.00</ele>
        <time>2016-10-15T09:35:09Z</time>
      </trkpt>
      <trkpt lat="42.473932000" lon="-2.464221000">
        <ele>386.10</ele>
        <time>2016-10-15T09:35:10Z</time>
      </trkpt>
      <trkpt lat="42.473905000" lon="-2.464256000">
        <ele>386.20</ele>
        <time>2016-10-15T09:35:11Z</time>
      </trkpt>
      <trkpt lat="42.473875000" lon="-2.464288000">
        <ele>386.30</ele>
        <time>2016-10-15T09:35:12Z</time>
      </trkpt>
      <trkpt lat="42.473845000" lon="-2.464320000">
        <ele>386.30</ele>
        <time>2016-10-15T09:35:13Z</time>
      </trkpt>
      <trkpt lat="42.473818000" lon="-2.464351000">
        <ele>386.40</ele>
        <time>2016-10-15T09:35:14Z</time>
      </trkpt>
      <trkpt lat="42.473795000" lon="-2.464386000">
        <ele>386.60</ele>
        <time>2016-10-15T09:35:15Z</time>
      </trkpt>
      <trkpt lat="42.473779000" lon="-2.464429000">
        <ele>386.70</ele>
        <time>2016-10-15T09:35:16Z</time>
      </trkpt>
      <trkpt lat="42.473768000" lon="-2.464480000">
        <ele>386.90</ele>
        <time>2016-10-15T09:35:17Z</time>
      </trkpt>
      <trkpt lat="42.473761000" lon="-2.464532000">
        <ele>387.00</ele>
        <time>2016-10-15T09:35:18Z</time>
      </trkpt>
      <trkpt lat="42.473751000" lon="-2.464583000">
        <ele>387.10</ele>
        <time>2016-10-15T09:35:19Z</time>
      </trkpt>
      <trkpt lat="42.473739000" lon="-2.464632000">
        <ele>387.20</ele>
        <time>2016-10-15T09:35:20Z</time>
      </trkpt>
      <trkpt lat="42.473724000" lon="-2.464682000">
        <ele>387.10</ele>
        <time>2016-10-15T09:35:21Z</time>
      </trkpt>
      <trkpt lat="42.473703000" lon="-2.464726000">
        <ele>387.10</ele>
        <time>2016-10-15T09:35:22Z</time>
      </trkpt>
      <trkpt lat="42.473677000" lon="-2.464764000">
        <ele>387.00</ele>
        <time>2016-10-15T09:35:23Z</time>
      </trkpt>
      <trkpt lat="42.473643000" lon="-2.464795000">
        <ele>386.90</ele>
        <time>2016-10-15T09:35:24Z</time>
      </trkpt>
      <trkpt lat="42.473606000" lon="-2.464817000">
        <ele>386.90</ele>
        <time>2016-10-15T09:35:25Z</time>
      </trkpt>
      <trkpt lat="42.473566000" lon="-2.464830000">
        <ele>386.80</ele>
        <time>2016-10-15T09:35:26Z</time>
      </trkpt>
      <trkpt lat="42.473527000" lon="-2.464829000">
        <ele>386.80</ele>
        <time>2016-10-15T09:35:27Z</time>
      </trkpt>
      <trkpt lat="42.473486000" lon="-2.464812000">
        <ele>386.80</ele>
        <time>2016-10-15T09:35:28Z</time>
      </trkpt>
      <trkpt lat="42.473453000" lon="-2.464783000">
        <ele>386.80</ele>
        <time>2016-10-15T09:35:29Z</time>
      </trkpt>
      <trkpt lat="42.473424000" lon="-2.464746000">
        <ele>386.80</ele>
        <time>2016-10-15T09:35:30Z</time>
      </trkpt>
      <trkpt lat="42.473399000" lon="-2.464706000">
        <ele>386.80</ele>
        <time>2016-10-15T09:35:31Z</time>
      </trkpt>
      <trkpt lat="42.473378000" lon="-2.464660000">
        <ele>386.80</ele>
        <time>2016-10-15T09:35:32Z</time>
      </trkpt>
      <trkpt lat="42.473366000" lon="-2.464613000">
        <ele>386.70</ele>
        <time>2016-10-15T09:35:33Z</time>
      </trkpt>
      <trkpt lat="42.473356000" lon="-2.464566000">
        <ele>386.60</ele>
        <time>2016-10-15T09:35:34Z</time>
      </trkpt>
      <trkpt lat="42.473348000" lon="-2.464518000">
        <ele>386.50</ele>
        <time>2016-10-15T09:35:35Z</time>
      </trkpt>
      <trkpt lat="42.473348000" lon="-2.464468000">
        <ele>386.50</ele>
        <time>2016-10-15T09:35:36Z</time>
      </trkpt>
      <trkpt lat="42.473346000" lon="-2.464365000">
        <ele>386.50</ele>
        <time>2016-10-15T09:35:38Z</time>
      </trkpt>
      <trkpt lat="42.473333000" lon="-2.464315000">
        <ele>386.40</ele>
        <time>2016-10-15T09:35:39Z</time>
      </trkpt>
      <trkpt lat="42.473307000" lon="-2.464274000">
        <ele>386.40</ele>
        <time>2016-10-15T09:35:40Z</time>
      </trkpt>
      <trkpt lat="42.473279000" lon="-2.464235000">
        <ele>386.50</ele>
        <time>2016-10-15T09:35:41Z</time>
      </trkpt>
      <trkpt lat="42.473252000" lon="-2.464194000">
        <ele>386.50</ele>
        <time>2016-10-15T09:35:42Z</time>
      </trkpt>
      <trkpt lat="42.473225000" lon="-2.464153000">
        <ele>386.60</ele>
        <time>2016-10-15T09:35:43Z</time>
      </trkpt>
      <trkpt lat="42.473197000" lon="-2.464111000">
        <ele>386.70</ele>
        <time>2016-10-15T09:35:44Z</time>
      </trkpt>
      <trkpt lat="42.473170000" lon="-2.464069000">
        <ele>386.70</ele>
        <time>2016-10-15T09:35:45Z</time>
      </trkpt>
      <trkpt lat="42.473141000" lon="-2.464032000">
        <ele>386.80</ele>
        <time>2016-10-15T09:35:46Z</time>
      </trkpt>
      <trkpt lat="42.473111000" lon="-2.463992000">
        <ele>386.80</ele>
        <time>2016-10-15T09:35:47Z</time>
      </trkpt>
      <trkpt lat="42.473080000" lon="-2.463952000">
        <ele>386.80</ele>
        <time>2016-10-15T09:35:48Z</time>
      </trkpt>
      <trkpt lat="42.473054000" lon="-2.463911000">
        <ele>386.70</ele>
        <time>2016-10-15T09:35:49Z</time>
      </trkpt>
      <trkpt lat="42.473027000" lon="-2.463868000">
        <ele>386.60</ele>
        <time>2016-10-15T09:35:50Z</time>
      </trkpt>
      <trkpt lat="42.472999000" lon="-2.463822000">
        <ele>386.50</ele>
        <time>2016-10-15T09:35:51Z</time>
      </trkpt>
      <trkpt lat="42.472970000" lon="-2.463780000">
        <ele>386.50</ele>
        <time>2016-10-15T09:35:52Z</time>
      </trkpt>
      <trkpt lat="42.472940000" lon="-2.463736000">
        <ele>386.40</ele>
        <time>2016-10-15T09:35:53Z</time>
      </trkpt>
      <trkpt lat="42.472912000" lon="-2.463692000">
        <ele>386.40</ele>
        <time>2016-10-15T09:35:54Z</time>
      </trkpt>
      <trkpt lat="42.472884000" lon="-2.463648000">
        <ele>386.50</ele>
        <time>2016-10-15T09:35:55Z</time>
      </trkpt>
      <trkpt lat="42.472856000" lon="-2.463606000">
        <ele>386.50</ele>
        <time>2016-10-15T09:35:56Z</time>
      </trkpt>
      <trkpt lat="42.472825000" lon="-2.463567000">
        <ele>386.60</ele>
        <time>2016-10-15T09:35:57Z</time>
      </trkpt>
      <trkpt lat="42.472792000" lon="-2.463529000">
        <ele>386.60</ele>
        <time>2016-10-15T09:35:58Z</time>
      </trkpt>
      <trkpt lat="42.472760000" lon="-2.463495000">
        <ele>386.60</ele>
        <time>2016-10-15T09:35:59Z</time>
      </trkpt>
      <trkpt lat="42.472729000" lon="-2.463462000">
        <ele>386.70</ele>
        <time>2016-10-15T09:36:00Z</time>
      </trkpt>
      <trkpt lat="42.472699000" lon="-2.463424000">
        <ele>386.90</ele>
        <time>2016-10-15T09:36:01Z</time>
      </trkpt>
      <trkpt lat="42.472667000" lon="-2.463390000">
        <ele>387.00</ele>
        <time>2016-10-15T09:36:02Z</time>
      </trkpt>
      <trkpt lat="42.472638000" lon="-2.463353000">
        <ele>387.20</ele>
        <time>2016-10-15T09:36:03Z</time>
      </trkpt>
      <trkpt lat="42.472610000" lon="-2.463316000">
        <ele>387.40</ele>
        <time>2016-10-15T09:36:04Z</time>
      </trkpt>
      <trkpt lat="42.472581000" lon="-2.463280000">
        <ele>387.60</ele>
        <time>2016-10-15T09:36:05Z</time>
      </trkpt>
      <trkpt lat="42.472551000" lon="-2.463247000">
        <ele>387.80</ele>
        <time>2016-10-15T09:36:06Z</time>
      </trkpt>
      <trkpt lat="42.472524000" lon="-2.463212000">
        <ele>388.00</ele>
        <time>2016-10-15T09:36:07Z</time>
      </trkpt>
      <trkpt lat="42.472493000" lon="-2.463178000">
        <ele>388.10</ele>
        <time>2016-10-15T09:36:08Z</time>
      </trkpt>
      <trkpt lat="42.472463000" lon="-2.463144000">
        <ele>388.50</ele>
        <time>2016-10-15T09:36:09Z</time>
      </trkpt>
      <trkpt lat="42.472434000" lon="-2.463108000">
        <ele>388.90</ele>
        <time>2016-10-15T09:36:10Z</time>
      </trkpt>
      <trkpt lat="42.472407000" lon="-2.463071000">
        <ele>389.20</ele>
        <time>2016-10-15T09:36:11Z</time>
      </trkpt>
      <trkpt lat="42.472379000" lon="-2.463035000">
        <ele>389.40</ele>
        <time>2016-10-15T09:36:12Z</time>
      </trkpt>
      <trkpt lat="42.472352000" lon="-2.462998000">
        <ele>389.60</ele>
        <time>2016-10-15T09:36:13Z</time>
      </trkpt>
      <trkpt lat="42.472323000" lon="-2.462962000">
        <ele>389.70</ele>
        <time>2016-10-15T09:36:14Z</time>
      </trkpt>
      <trkpt lat="42.472293000" lon="-2.462925000">
        <ele>390.10</ele>
        <time>2016-10-15T09:36:15Z</time>
      </trkpt>
      <trkpt lat="42.472264000" lon="-2.462888000">
        <ele>390.30</ele>
        <time>2016-10-15T09:36:16Z</time>
      </trkpt>
      <trkpt lat="42.472234000" lon="-2.462847000">
        <ele>390.60</ele>
        <time>2016-10-15T09:36:17Z</time>
      </trkpt>
      <trkpt lat="42.472205000" lon="-2.462805000">
        <ele>390.80</ele>
        <time>2016-10-15T09:36:18Z</time>
      </trkpt>
      <trkpt lat="42.472178000" lon="-2.462763000">
        <ele>391.00</ele>
        <time>2016-10-15T09:36:19Z</time>
      </trkpt>
      <trkpt lat="42.472148000" lon="-2.462722000">
        <ele>391.20</ele>
        <time>2016-10-15T09:36:20Z</time>
      </trkpt>
      <trkpt lat="42.472119000" lon="-2.462686000">
        <ele>391.30</ele>
        <time>2016-10-15T09:36:21Z</time>
      </trkpt>
      <trkpt lat="42.472089000" lon="-2.462648000">
        <ele>391.40</ele>
        <time>2016-10-15T09:36:22Z</time>
      </trkpt>
      <trkpt lat="42.472059000" lon="-2.462611000">
        <ele>391.70</ele>
        <time>2016-10-15T09:36:23Z</time>
      </trkpt>
      <trkpt lat="42.472029000" lon="-2.462570000">
        <ele>392.00</ele>
        <time>2016-10-15T09:36:24Z</time>
      </trkpt>
      <trkpt lat="42.471998000" lon="-2.462530000">
        <ele>392.30</ele>
        <time>2016-10-15T09:36:25Z</time>
      </trkpt>
      <trkpt lat="42.471967000" lon="-2.462489000">
        <ele>392.60</ele>
        <time>2016-10-15T09:36:26Z</time>
      </trkpt>
      <trkpt lat="42.471937000" lon="-2.462451000">
        <ele>393.00</ele>
        <time>2016-10-15T09:36:27Z</time>
      </trkpt>
      <trkpt lat="42.471904000" lon="-2.462415000">
        <ele>393.20</ele>
        <time>2016-10-15T09:36:28Z</time>
      </trkpt>
      <trkpt lat="42.471875000" lon="-2.462378000">
        <ele>393.40</ele>
        <time>2016-10-15T09:36:29Z</time>
      </trkpt>
      <trkpt lat="42.471845000" lon="-2.462344000">
        <ele>393.60</ele>
        <time>2016-10-15T09:36:30Z</time>
      </trkpt>
      <trkpt lat="42.471816000" lon="-2.462307000">
        <ele>393.70</ele>
        <time>2016-10-15T09:36:31Z</time>
      </trkpt>
      <trkpt lat="42.471786000" lon="-2.462269000">
        <ele>393.90</ele>
        <time>2016-10-15T09:36:32Z</time>
      </trkpt>
      <trkpt lat="42.471757000" lon="-2.462232000">
        <ele>394.20</ele>
        <time>2016-10-15T09:36:33Z</time>
      </trkpt>
      <trkpt lat="42.471727000" lon="-2.462194000">
        <ele>394.50</ele>
        <time>2016-10-15T09:36:34Z</time>
      </trkpt>
      <trkpt lat="42.471697000" lon="-2.462153000">
        <ele>394.70</ele>
        <time>2016-10-15T09:36:35Z</time>
      </trkpt>
      <trkpt lat="42.471666000" lon="-2.462114000">
        <ele>394.80</ele>
        <time>2016-10-15T09:36:36Z</time>
      </trkpt>
      <trkpt lat="42.471634000" lon="-2.462075000">
        <ele>395.00</ele>
        <time>2016-10-15T09:36:37Z</time>
      </trkpt>
      <trkpt lat="42.471578000" lon="-2.461991000">
        <ele>395.20</ele>
        <time>2016-10-15T09:36:39Z</time>
      </trkpt>
      <trkpt lat="42.471549000" lon="-2.461950000">
        <ele>395.40</ele>
        <time>2016-10-15T09:36:40Z</time>
      </trkpt>
      <trkpt lat="42.471517000" lon="-2.461911000">
        <ele>395.50</ele>
        <time>2016-10-15T09:36:41Z</time>
      </trkpt>
      <trkpt lat="42.471488000" lon="-2.461875000">
        <ele>395.70</ele>
        <time>2016-10-15T09:36:42Z</time>
      </trkpt>
      <trkpt lat="42.471457000" lon="-2.461837000">
        <ele>395.80</ele>
        <time>2016-10-15T09:36:43Z</time>
      </trkpt>
      <trkpt lat="42.471430000" lon="-2.461797000">
        <ele>396.00</ele>
        <time>2016-10-15T09:36:44Z</time>
      </trkpt>
      <trkpt lat="42.471403000" lon="-2.461756000">
        <ele>396.10</ele>
        <time>2016-10-15T09:36:45Z</time>
      </trkpt>
      <trkpt lat="42.471380000" lon="-2.461709000">
        <ele>396.10</ele>
        <time>2016-10-15T09:36:46Z</time>
      </trkpt>
      <trkpt lat="42.471358000" lon="-2.461662000">
        <ele>396.20</ele>
        <time>2016-10-15T09:36:47Z</time>
      </trkpt>
      <trkpt lat="42.471334000" lon="-2.461614000">
        <ele>396.20</ele>
        <time>2016-10-15T09:36:48Z</time>
      </trkpt>
      <trkpt lat="42.471311000" lon="-2.461570000">
        <ele>396.20</ele>
        <time>2016-10-15T09:36:49Z</time>
      </trkpt>
      <trkpt lat="42.471295000" lon="-2.461518000">
        <ele>396.30</ele>
        <time>2016-10-15T09:36:50Z</time>
      </trkpt>
      <trkpt lat="42.471274000" lon="-2.461468000">
        <ele>396.60</ele>
        <time>2016-10-15T09:36:51Z</time>
      </trkpt>
      <trkpt lat="42.471251000" lon="-2.461418000">
        <ele>396.90</ele>
        <time>2016-10-15T09:36:52Z</time>
      </trkpt>
      <trkpt lat="42.471230000" lon="-2.461370000">
        <ele>397.20</ele>
        <time>2016-10-15T09:36:53Z</time>
      </trkpt>
      <trkpt lat="42.471208000" lon="-2.461323000">
        <ele>397.40</ele>
        <time>2016-10-15T09:36:54Z</time>
      </trkpt>
      <trkpt lat="42.471184000" lon="-2.461278000">
        <ele>397.50</ele>
        <time>2016-10-15T09:36:55Z</time>
      </trkpt>
      <trkpt lat="42.471159000" lon="-2.461232000">
        <ele>397.70</ele>
        <time>2016-10-15T09:36:56Z</time>
      </trkpt>
      <trkpt lat="42.471136000" lon="-2.461186000">
        <ele>397.70</ele>
        <time>2016-10-15T09:36:57Z</time>
      </trkpt>
      <trkpt lat="42.471115000" lon="-2.461142000">
        <ele>397.70</ele>
        <time>2016-10-15T09:36:58Z</time>
      </trkpt>
      <trkpt lat="42.471096000" lon="-2.461096000">
        <ele>397.70</ele>
        <time>2016-10-15T09:36:59Z</time>
      </trkpt>
      <trkpt lat="42.471075000" lon="-2.461053000">
        <ele>397.80</ele>
        <time>2016-10-15T09:37:00Z</time>
      </trkpt>
      <trkpt lat="42.471056000" lon="-2.461013000">
        <ele>398.10</ele>
        <time>2016-10-15T09:37:01Z</time>
      </trkpt>
      <trkpt lat="42.471036000" lon="-2.460973000">
        <ele>398.30</ele>
        <time>2016-10-15T09:37:02Z</time>
      </trkpt>
      <trkpt lat="42.471019000" lon="-2.460939000">
        <ele>398.50</ele>
        <time>2016-10-15T09:37:03Z</time>
      </trkpt>
      <trkpt lat="42.471000000" lon="-2.460902000">
        <ele>398.70</ele>
        <time>2016-10-15T09:37:04Z</time>
      </trkpt>
      <trkpt lat="42.470981000" lon="-2.460863000">
        <ele>398.90</ele>
        <time>2016-10-15T09:37:05Z</time>
      </trkpt>
      <trkpt lat="42.470960000" lon="-2.460825000">
        <ele>399.00</ele>
        <time>2016-10-15T09:37:06Z</time>
      </trkpt>
      <trkpt lat="42.470940000" lon="-2.460782000">
        <ele>399.10</ele>
        <time>2016-10-15T09:37:07Z</time>
      </trkpt>
      <trkpt lat="42.470921000" lon="-2.460742000">
        <ele>399.30</ele>
        <time>2016-10-15T09:37:08Z</time>
      </trkpt>
      <trkpt lat="42.470903000" lon="-2.460703000">
        <ele>399.40</ele>
        <time>2016-10-15T09:37:09Z</time>
      </trkpt>
      <trkpt lat="42.470885000" lon="-2.460667000">
        <ele>399.50</ele>
        <time>2016-10-15T09:37:10Z</time>
      </trkpt>
      <trkpt lat="42.470870000" lon="-2.460629000">
        <ele>399.50</ele>
        <time>2016-10-15T09:37:11Z</time>
      </trkpt>
      <trkpt lat="42.470847000" lon="-2.460597000">
        <ele>399.60</ele>
        <time>2016-10-15T09:37:12Z</time>
      </trkpt>
      <trkpt lat="42.470837000" lon="-2.460559000">
        <ele>399.60</ele>
        <time>2016-10-15T09:37:13Z</time>
      </trkpt>
      <trkpt lat="42.470825000" lon="-2.460528000">
        <ele>399.60</ele>
        <time>2016-10-15T09:37:14Z</time>
      </trkpt>
      <trkpt lat="42.470817000" lon="-2.460501000">
        <ele>399.80</ele>
        <time>2016-10-15T09:37:15Z</time>
      </trkpt>
      <trkpt lat="42.470802000" lon="-2.460487000">
        <ele>399.90</ele>
        <time>2016-10-15T09:37:16Z</time>
      </trkpt>
      <trkpt lat="42.470780000" lon="-2.460485000">
        <ele>399.80</ele>
        <time>2016-10-15T09:37:17Z</time>
      </trkpt>
      <trkpt lat="42.470757000" lon="-2.460491000">
        <ele>399.80</ele>
        <time>2016-10-15T09:37:18Z</time>
      </trkpt>
      <trkpt lat="42.470736000" lon="-2.460507000">
        <ele>399.80</ele>
        <time>2016-10-15T09:37:19Z</time>
      </trkpt>
      <trkpt lat="42.470711000" lon="-2.460537000">
        <ele>399.90</ele>
        <time>2016-10-15T09:37:20Z</time>
      </trkpt>
      <trkpt lat="42.470680000" lon="-2.460566000">
        <ele>399.80</ele>
        <time>2016-10-15T09:37:21Z</time>
      </trkpt>
      <trkpt lat="42.470648000" lon="-2.460594000">
        <ele>399.70</ele>
        <time>2016-10-15T09:37:22Z</time>
      </trkpt>
      <trkpt lat="42.470615000" lon="-2.460621000">
        <ele>399.60</ele>
        <time>2016-10-15T09:37:23Z</time>
      </trkpt>
      <trkpt lat="42.470582000" lon="-2.460651000">
        <ele>399.60</ele>
        <time>2016-10-15T09:37:24Z</time>
      </trkpt>
      <trkpt lat="42.470549000" lon="-2.460680000">
        <ele>399.50</ele>
        <time>2016-10-15T09:37:25Z</time>
      </trkpt>
      <trkpt lat="42.470517000" lon="-2.460710000">
        <ele>399.50</ele>
        <time>2016-10-15T09:37:26Z</time>
      </trkpt>
      <trkpt lat="42.470482000" lon="-2.460741000">
        <ele>399.40</ele>
        <time>2016-10-15T09:37:27Z</time>
      </trkpt>
      <trkpt lat="42.470449000" lon="-2.460771000">
        <ele>399.30</ele>
        <time>2016-10-15T09:37:28Z</time>
      </trkpt>
      <trkpt lat="42.470414000" lon="-2.460802000">
        <ele>399.30</ele>
        <time>2016-10-15T09:37:29Z</time>
      </trkpt>
      <trkpt lat="42.470379000" lon="-2.460833000">
        <ele>399.30</ele>
        <time>2016-10-15T09:37:30Z</time>
      </trkpt>
      <trkpt lat="42.470340000" lon="-2.460859000">
        <ele>399.30</ele>
        <time>2016-10-15T09:37:31Z</time>
      </trkpt>
      <trkpt lat="42.470301000" lon="-2.460881000">
        <ele>399.20</ele>
        <time>2016-10-15T09:37:32Z</time>
      </trkpt>
      <trkpt lat="42.470261000" lon="-2.460899000">
        <ele>399.20</ele>
        <time>2016-10-15T09:37:33Z</time>
      </trkpt>
      <trkpt lat="42.470224000" lon="-2.460926000">
        <ele>399.20</ele>
        <time>2016-10-15T09:37:34Z</time>
      </trkpt>
      <trkpt lat="42.470188000" lon="-2.460950000">
        <ele>398.90</ele>
        <time>2016-10-15T09:37:35Z</time>
      </trkpt>
      <trkpt lat="42.470152000" lon="-2.460979000">
        <ele>398.70</ele>
        <time>2016-10-15T09:37:36Z</time>
      </trkpt>
      <trkpt lat="42.470114000" lon="-2.461010000">
        <ele>398.60</ele>
        <time>2016-10-15T09:37:37Z</time>
      </trkpt>
      <trkpt lat="42.470078000" lon="-2.461041000">
        <ele>398.50</ele>
        <time>2016-10-15T09:37:38Z</time>
      </trkpt>
      <trkpt lat="42.470008000" lon="-2.461097000">
        <ele>397.80</ele>
        <time>2016-10-15T09:37:40Z</time>
      </trkpt>
      <trkpt lat="42.469965000" lon="-2.461116000">
        <ele>397.50</ele>
        <time>2016-10-15T09:37:41Z</time>
      </trkpt>
      <trkpt lat="42.469924000" lon="-2.461142000">
        <ele>397.40</ele>
        <time>2016-10-15T09:37:42Z</time>
      </trkpt>
      <trkpt lat="42.469880000" lon="-2.461174000">
        <ele>397.30</ele>
        <time>2016-10-15T09:37:43Z</time>
      </trkpt>
      <trkpt lat="42.469835000" lon="-2.461207000">
        <ele>397.20</ele>
        <time>2016-10-15T09:37:44Z</time>
      </trkpt>
      <trkpt lat="42.469782000" lon="-2.461245000">
        <ele>397.20</ele>
        <time>2016-10-15T09:37:45Z</time>
      </trkpt>
      <trkpt lat="42.469735000" lon="-2.461288000">
        <ele>397.10</ele>
        <time>2016-10-15T09:37:46Z</time>
      </trkpt>
      <trkpt lat="42.469695000" lon="-2.461338000">
        <ele>396.90</ele>
        <time>2016-10-15T09:37:47Z</time>
      </trkpt>
      <trkpt lat="42.469650000" lon="-2.461383000">
        <ele>396.70</ele>
        <time>2016-10-15T09:37:48Z</time>
      </trkpt>
      <trkpt lat="42.469608000" lon="-2.461418000">
        <ele>396.50</ele>
        <time>2016-10-15T09:37:49Z</time>
      </trkpt>
      <trkpt lat="42.469564000" lon="-2.461450000">
        <ele>396.30</ele>
        <time>2016-10-15T09:37:50Z</time>
      </trkpt>
      <trkpt lat="42.469524000" lon="-2.461484000">
        <ele>396.00</ele>
        <time>2016-10-15T09:37:51Z</time>
      </trkpt>
      <trkpt lat="42.469487000" lon="-2.461514000">
        <ele>395.80</ele>
        <time>2016-10-15T09:37:52Z</time>
      </trkpt>
      <trkpt lat="42.469450000" lon="-2.461542000">
        <ele>395.80</ele>
        <time>2016-10-15T09:37:53Z</time>
      </trkpt>
      <trkpt lat="42.469411000" lon="-2.461572000">
        <ele>395.80</ele>
        <time>2016-10-15T09:37:54Z</time>
      </trkpt>
      <trkpt lat="42.469377000" lon="-2.461597000">
        <ele>395.60</ele>
        <time>2016-10-15T09:37:55Z</time>
      </trkpt>
      <trkpt lat="42.469347000" lon="-2.461624000">
        <ele>395.50</ele>
        <time>2016-10-15T09:37:56Z</time>
      </trkpt>
      <trkpt lat="42.469314000" lon="-2.461653000">
        <ele>395.10</ele>
        <time>2016-10-15T09:37:57Z</time>
      </trkpt>
      <trkpt lat="42.469280000" lon="-2.461678000">
        <ele>394.80</ele>
        <time>2016-10-15T09:37:58Z</time>
      </trkpt>
      <trkpt lat="42.469246000" lon="-2.461706000">
        <ele>394.40</ele>
        <time>2016-10-15T09:37:59Z</time>
      </trkpt>
      <trkpt lat="42.469210000" lon="-2.461733000">
        <ele>394.10</ele>
        <time>2016-10-15T09:38:00Z</time>
      </trkpt>
      <trkpt lat="42.469175000" lon="-2.461761000">
        <ele>393.80</ele>
        <time>2016-10-15T09:38:01Z</time>
      </trkpt>
      <trkpt lat="42.469140000" lon="-2.461791000">
        <ele>393.70</ele>
        <time>2016-10-15T09:38:02Z</time>
      </trkpt>
      <trkpt lat="42.469104000" lon="-2.461821000">
        <ele>393.60</ele>
        <time>2016-10-15T09:38:03Z</time>
      </trkpt>
      <trkpt lat="42.469068000" lon="-2.461845000">
        <ele>393.50</ele>
        <time>2016-10-15T09:38:04Z</time>
      </trkpt>
      <trkpt lat="42.469032000" lon="-2.461873000">
        <ele>393.50</ele>
        <time>2016-10-15T09:38:05Z</time>
      </trkpt>
      <trkpt lat="42.468997000" lon="-2.461902000">
        <ele>393.50</ele>
        <time>2016-10-15T09:38:06Z</time>
      </trkpt>
      <trkpt lat="42.468961000" lon="-2.461930000">
        <ele>393.30</ele>
        <time>2016-10-15T09:38:07Z</time>
      </trkpt>
      <trkpt lat="42.468925000" lon="-2.461957000">
        <ele>393.10</ele>
        <time>2016-10-15T09:38:08Z</time>
      </trkpt>
      <trkpt lat="42.468888000" lon="-2.461976000">
        <ele>392.90</ele>
        <time>2016-10-15T09:38:09Z</time>
      </trkpt>
      <trkpt lat="42.468853000" lon="-2.461997000">
        <ele>392.80</ele>
        <time>2016-10-15T09:38:10Z</time>
      </trkpt>
      <trkpt lat="42.468817000" lon="-2.462015000">
        <ele>392.60</ele>
        <time>2016-10-15T09:38:11Z</time>
      </trkpt>
      <trkpt lat="42.468776000" lon="-2.462019000">
        <ele>392.50</ele>
        <time>2016-10-15T09:38:12Z</time>
      </trkpt>
      <trkpt lat="42.468734000" lon="-2.462021000">
        <ele>392.40</ele>
        <time>2016-10-15T09:38:13Z</time>
      </trkpt>
      <trkpt lat="42.468692000" lon="-2.462025000">
        <ele>392.30</ele>
        <time>2016-10-15T09:38:14Z</time>
      </trkpt>
      <trkpt lat="42.468652000" lon="-2.462029000">
        <ele>392.30</ele>
        <time>2016-10-15T09:38:15Z</time>
      </trkpt>
      <trkpt lat="42.468613000" lon="-2.462036000">
        <ele>392.30</ele>
        <time>2016-10-15T09:38:16Z</time>
      </trkpt>
      <trkpt lat="42.468572000" lon="-2.462044000">
        <ele>392.30</ele>
        <time>2016-10-15T09:38:17Z</time>
      </trkpt>
      <trkpt lat="42.468531000" lon="-2.462053000">
        <ele>392.30</ele>
        <time>2016-10-15T09:38:18Z</time>
      </trkpt>
      <trkpt lat="42.468491000" lon="-2.462063000">
        <ele>392.20</ele>
        <time>2016-10-15T09:38:19Z</time>
      </trkpt>
      <trkpt lat="42.468451000" lon="-2.462074000">
        <ele>392.10</ele>
        <time>2016-10-15T09:38:20Z</time>
      </trkpt>
      <trkpt lat="42.468414000" lon="-2.462079000">
        <ele>391.90</ele>
        <time>2016-10-15T09:38:21Z</time>
      </trkpt>
      <trkpt lat="42.468374000" lon="-2.462085000">
        <ele>391.80</ele>
        <time>2016-10-15T09:38:22Z</time>
      </trkpt>
      <trkpt lat="42.468334000" lon="-2.462092000">
        <ele>391.80</ele>
        <time>2016-10-15T09:38:23Z</time>
      </trkpt>
      <trkpt lat="42.468294000" lon="-2.462099000">
        <ele>391.80</ele>
        <time>2016-10-15T09:38:24Z</time>
      </trkpt>
      <trkpt lat="42.468254000" lon="-2.462105000">
        <ele>391.90</ele>
        <time>2016-10-15T09:38:25Z</time>
      </trkpt>
      <trkpt lat="42.468216000" lon="-2.462110000">
        <ele>391.90</ele>
        <time>2016-10-15T09:38:26Z</time>
      </trkpt>
      <trkpt lat="42.468180000" lon="-2.462117000">
        <ele>392.00</ele>
        <time>2016-10-15T09:38:27Z</time>
      </trkpt>
      <trkpt lat="42.468142000" lon="-2.462121000">
        <ele>392.00</ele>
        <time>2016-10-15T09:38:28Z</time>
      </trkpt>
      <trkpt lat="42.468104000" lon="-2.462120000">
        <ele>392.00</ele>
        <time>2016-10-15T09:38:29Z</time>
      </trkpt>
      <trkpt lat="42.468066000" lon="-2.462128000">
        <ele>392.00</ele>
        <time>2016-10-15T09:38:30Z</time>
      </trkpt>
      <trkpt lat="42.468028000" lon="-2.462140000">
        <ele>391.90</ele>
        <time>2016-10-15T09:38:31Z</time>
      </trkpt>
      <trkpt lat="42.467989000" lon="-2.462142000">
        <ele>391.70</ele>
        <time>2016-10-15T09:38:32Z</time>
      </trkpt>
      <trkpt lat="42.467952000" lon="-2.462147000">
        <ele>391.60</ele>
        <time>2016-10-15T09:38:33Z</time>
      </trkpt>
      <trkpt lat="42.467916000" lon="-2.462154000">
        <ele>391.50</ele>
        <time>2016-10-15T09:38:34Z</time>
      </trkpt>
      <trkpt lat="42.467881000" lon="-2.462161000">
        <ele>391.60</ele>
        <time>2016-10-15T09:38:35Z</time>
      </trkpt>
      <trkpt lat="42.467845000" lon="-2.462167000">
        <ele>391.60</ele>
        <time>2016-10-15T09:38:36Z</time>
      </trkpt>
      <trkpt lat="42.467809000" lon="-2.462174000">
        <ele>391.60</ele>
        <time>2016-10-15T09:38:37Z</time>
      </trkpt>
      <trkpt lat="42.467772000" lon="-2.462177000">
        <ele>391.60</ele>
        <time>2016-10-15T09:38:38Z</time>
      </trkpt>
      <trkpt lat="42.467736000" lon="-2.462182000">
        <ele>391.50</ele>
        <time>2016-10-15T09:38:39Z</time>
      </trkpt>
      <trkpt lat="42.467668000" lon="-2.462191000">
        <ele>391.40</ele>
        <time>2016-10-15T09:38:41Z</time>
      </trkpt>
      <trkpt lat="42.467635000" lon="-2.462196000">
        <ele>391.40</ele>
        <time>2016-10-15T09:38:42Z</time>
      </trkpt>
      <trkpt lat="42.467603000" lon="-2.462197000">
        <ele>391.40</ele>
        <time>2016-10-15T09:38:43Z</time>
      </trkpt>
      <trkpt lat="42.467572000" lon="-2.462190000">
        <ele>391.40</ele>
        <time>2016-10-15T09:38:44Z</time>
      </trkpt>
      <trkpt lat="42.467542000" lon="-2.462195000">
        <ele>391.50</ele>
        <time>2016-10-15T09:38:45Z</time>
      </trkpt>
      <trkpt lat="42.467516000" lon="-2.462198000">
        <ele>391.50</ele>
        <time>2016-10-15T09:38:46Z</time>
      </trkpt>
      <trkpt lat="42.467502000" lon="-2.462206000">
        <ele>391.50</ele>
        <time>2016-10-15T09:38:47Z</time>
      </trkpt>
      <trkpt lat="42.467488000" lon="-2.462208000">
        <ele>391.50</ele>
        <time>2016-10-15T09:38:48Z</time>
      </trkpt>
      <trkpt lat="42.467477000" lon="-2.462224000">
        <ele>391.40</ele>
        <time>2016-10-15T09:38:49Z</time>
      </trkpt>
      <trkpt lat="42.467463000" lon="-2.462245000">
        <ele>391.30</ele>
        <time>2016-10-15T09:38:50Z</time>
      </trkpt>
      <trkpt lat="42.467443000" lon="-2.462268000">
        <ele>391.10</ele>
        <time>2016-10-15T09:38:51Z</time>
      </trkpt>
      <trkpt lat="42.467423000" lon="-2.462299000">
        <ele>391.00</ele>
        <time>2016-10-15T09:38:52Z</time>
      </trkpt>
      <trkpt lat="42.467402000" lon="-2.462320000">
        <ele>390.80</ele>
        <time>2016-10-15T09:38:53Z</time>
      </trkpt>
      <trkpt lat="42.467374000" lon="-2.462339000">
        <ele>390.70</ele>
        <time>2016-10-15T09:38:54Z</time>
      </trkpt>
      <trkpt lat="42.467341000" lon="-2.462351000">
        <ele>390.60</ele>
        <time>2016-10-15T09:38:55Z</time>
      </trkpt>
      <trkpt lat="42.467302000" lon="-2.462351000">
        <ele>390.50</ele>
        <time>2016-10-15T09:38:56Z</time>
      </trkpt>
      <trkpt lat="42.467267000" lon="-2.462349000">
        <ele>390.50</ele>
        <time>2016-10-15T09:38:57Z</time>
      </trkpt>
      <trkpt lat="42.467228000" lon="-2.462341000">
        <ele>390.50</ele>
        <time>2016-10-15T09:38:58Z</time>
      </trkpt>
      <trkpt lat="42.467189000" lon="-2.462328000">
        <ele>390.50</ele>
        <time>2016-10-15T09:38:59Z</time>
      </trkpt>
      <trkpt lat="42.467147000" lon="-2.462310000">
        <ele>390.50</ele>
        <time>2016-10-15T09:39:00Z</time>
      </trkpt>
      <trkpt lat="42.467106000" lon="-2.462295000">
        <ele>390.50</ele>
        <time>2016-10-15T09:39:01Z</time>
      </trkpt>
      <trkpt lat="42.467067000" lon="-2.462288000">
        <ele>390.40</ele>
        <time>2016-10-15T09:39:02Z</time>
      </trkpt>
      <trkpt lat="42.467027000" lon="-2.462296000">
        <ele>390.40</ele>
        <time>2016-10-15T09:39:03Z</time>
      </trkpt>
      <trkpt lat="42.466986000" lon="-2.462309000">
        <ele>390.40</ele>
        <time>2016-10-15T09:39:04Z</time>
      </trkpt>
      <trkpt lat="42.466947000" lon="-2.462326000">
        <ele>390.30</ele>
        <time>2016-10-15T09:39:05Z</time>
      </trkpt>
      <trkpt lat="42.466913000" lon="-2.462345000">
        <ele>390.20</ele>
        <time>2016-10-15T09:39:06Z</time>
      </trkpt>
      <trkpt lat="42.466879000" lon="-2.462365000">
        <ele>390.20</ele>
        <time>2016-10-15T09:39:07Z</time>
      </trkpt>
      <trkpt lat="42.466845000" lon="-2.462390000">
        <ele>390.10</ele>
        <time>2016-10-15T09:39:08Z</time>
      </trkpt>
      <trkpt lat="42.466813000" lon="-2.462412000">
        <ele>390.00</ele>
        <time>2016-10-15T09:39:09Z</time>
      </trkpt>
      <trkpt lat="42.466779000" lon="-2.462433000">
        <ele>390.00</ele>
        <time>2016-10-15T09:39:10Z</time>
      </trkpt>
      <trkpt lat="42.466743000" lon="-2.462456000">
        <ele>389.90</ele>
        <time>2016-10-15T09:39:11Z</time>
      </trkpt>
      <trkpt lat="42.466705000" lon="-2.462479000">
        <ele>389.80</ele>
        <time>2016-10-15T09:39:12Z</time>
      </trkpt>
      <trkpt lat="42.466670000" lon="-2.462503000">
        <ele>389.60</ele>
        <time>2016-10-15T09:39:13Z</time>
      </trkpt>
      <trkpt lat="42.466630000" lon="-2.462524000">
        <ele>389.50</ele>
        <time>2016-10-15T09:39:14Z</time>
      </trkpt>
      <trkpt lat="42.466589000" lon="-2.462546000">
        <ele>389.50</ele>
        <time>2016-10-15T09:39:15Z</time>
      </trkpt>
      <trkpt lat="42.466551000" lon="-2.462561000">
        <ele>389.50</ele>
        <time>2016-10-15T09:39:16Z</time>
      </trkpt>
      <trkpt lat="42.466510000" lon="-2.462579000">
        <ele>389.60</ele>
        <time>2016-10-15T09:39:17Z</time>
      </trkpt>
      <trkpt lat="42.466468000" lon="-2.462594000">
        <ele>389.70</ele>
        <time>2016-10-15T09:39:18Z</time>
      </trkpt>
      <trkpt lat="42.466428000" lon="-2.462610000">
        <ele>389.80</ele>
        <time>2016-10-15T09:39:19Z</time>
      </trkpt>
      <trkpt lat="42.466391000" lon="-2.462622000">
        <ele>389.90</ele>
        <time>2016-10-15T09:39:20Z</time>
      </trkpt>
      <trkpt lat="42.466354000" lon="-2.462632000">
        <ele>389.90</ele>
        <time>2016-10-15T09:39:21Z</time>
      </trkpt>
      <trkpt lat="42.466316000" lon="-2.462645000">
        <ele>389.90</ele>
        <time>2016-10-15T09:39:22Z</time>
      </trkpt>
      <trkpt lat="42.466277000" lon="-2.462658000">
        <ele>389.80</ele>
        <time>2016-10-15T09:39:23Z</time>
      </trkpt>
      <trkpt lat="42.466240000" lon="-2.462668000">
        <ele>389.70</ele>
        <time>2016-10-15T09:39:24Z</time>
      </trkpt>
      <trkpt lat="42.466203000" lon="-2.462672000">
        <ele>389.80</ele>
        <time>2016-10-15T09:39:25Z</time>
      </trkpt>
      <trkpt lat="42.466166000" lon="-2.462673000">
        <ele>389.90</ele>
        <time>2016-10-15T09:39:26Z</time>
      </trkpt>
      <trkpt lat="42.466130000" lon="-2.462675000">
        <ele>389.90</ele>
        <time>2016-10-15T09:39:27Z</time>
      </trkpt>
      <trkpt lat="42.466092000" lon="-2.462678000">
        <ele>389.90</ele>
        <time>2016-10-15T09:39:28Z</time>
      </trkpt>
      <trkpt lat="42.466051000" lon="-2.462686000">
        <ele>390.00</ele>
        <time>2016-10-15T09:39:29Z</time>
      </trkpt>
      <trkpt lat="42.466009000" lon="-2.462693000">
        <ele>390.00</ele>
        <time>2016-10-15T09:39:30Z</time>
      </trkpt>
      <trkpt lat="42.465969000" lon="-2.462698000">
        <ele>389.90</ele>
        <time>2016-10-15T09:39:31Z</time>
      </trkpt>
      <trkpt lat="42.465931000" lon="-2.462706000">
        <ele>389.80</ele>
        <time>2016-10-15T09:39:32Z</time>
      </trkpt>
      <trkpt lat="42.465890000" lon="-2.462713000">
        <ele>389.70</ele>
        <time>2016-10-15T09:39:33Z</time>
      </trkpt>
      <trkpt lat="42.465851000" lon="-2.462724000">
        <ele>389.70</ele>
        <time>2016-10-15T09:39:34Z</time>
      </trkpt>
      <trkpt lat="42.465809000" lon="-2.462739000">
        <ele>389.60</ele>
        <time>2016-10-15T09:39:35Z</time>
      </trkpt>
      <trkpt lat="42.465766000" lon="-2.462747000">
        <ele>389.60</ele>
        <time>2016-10-15T09:39:36Z</time>
      </trkpt>
      <trkpt lat="42.465724000" lon="-2.462753000">
        <ele>389.80</ele>
        <time>2016-10-15T09:39:37Z</time>
      </trkpt>
      <trkpt lat="42.465684000" lon="-2.462761000">
        <ele>390.00</ele>
        <time>2016-10-15T09:39:38Z</time>
      </trkpt>
      <trkpt lat="42.465643000" lon="-2.462765000">
        <ele>390.00</ele>
        <time>2016-10-15T09:39:39Z</time>
      </trkpt>
      <trkpt lat="42.465605000" lon="-2.462770000">
        <ele>390.00</ele>
        <time>2016-10-15T09:39:40Z</time>
      </trkpt>
      <trkpt lat="42.465526000" lon="-2.462782000">
        <ele>390.00</ele>
        <time>2016-10-15T09:39:42Z</time>
      </trkpt>
      <trkpt lat="42.465490000" lon="-2.462787000">
        <ele>390.00</ele>
        <time>2016-10-15T09:39:43Z</time>
      </trkpt>
      <trkpt lat="42.465454000" lon="-2.462790000">
        <ele>390.00</ele>
        <time>2016-10-15T09:39:44Z</time>
      </trkpt>
      <trkpt lat="42.465420000" lon="-2.462794000">
        <ele>389.90</ele>
        <time>2016-10-15T09:39:45Z</time>
      </trkpt>
      <trkpt lat="42.465382000" lon="-2.462793000">
        <ele>389.90</ele>
        <time>2016-10-15T09:39:46Z</time>
      </trkpt>
      <trkpt lat="42.465344000" lon="-2.462795000">
        <ele>389.80</ele>
        <time>2016-10-15T09:39:47Z</time>
      </trkpt>
      <trkpt lat="42.465309000" lon="-2.462800000">
        <ele>389.80</ele>
        <time>2016-10-15T09:39:48Z</time>
      </trkpt>
      <trkpt lat="42.465275000" lon="-2.462802000">
        <ele>389.80</ele>
        <time>2016-10-15T09:39:49Z</time>
      </trkpt>
      <trkpt lat="42.465242000" lon="-2.462803000">
        <ele>389.70</ele>
        <time>2016-10-15T09:39:50Z</time>
      </trkpt>
      <trkpt lat="42.465208000" lon="-2.462809000">
        <ele>389.60</ele>
        <time>2016-10-15T09:39:51Z</time>
      </trkpt>
      <trkpt lat="42.465177000" lon="-2.462824000">
        <ele>389.40</ele>
        <time>2016-10-15T09:39:52Z</time>
      </trkpt>
      <trkpt lat="42.465146000" lon="-2.462830000">
        <ele>389.30</ele>
        <time>2016-10-15T09:39:53Z</time>
      </trkpt>
      <trkpt lat="42.465114000" lon="-2.462820000">
        <ele>389.20</ele>
        <time>2016-10-15T09:39:54Z</time>
      </trkpt>
      <trkpt lat="42.465079000" lon="-2.462805000">
        <ele>389.20</ele>
        <time>2016-10-15T09:39:55Z</time>
      </trkpt>
      <trkpt lat="42.465043000" lon="-2.462796000">
        <ele>388.90</ele>
        <time>2016-10-15T09:39:56Z</time>
      </trkpt>
      <trkpt lat="42.465001000" lon="-2.462787000">
        <ele>388.70</ele>
        <time>2016-10-15T09:39:57Z</time>
      </trkpt>
      <trkpt lat="42.464956000" lon="-2.462780000">
        <ele>388.80</ele>
        <time>2016-10-15T09:39:58Z</time>
      </trkpt>
      <trkpt lat="42.464917000" lon="-2.462772000">
        <ele>388.90</ele>
        <time>2016-10-15T09:39:59Z</time>
      </trkpt>
      <trkpt lat="42.464879000" lon="-2.462759000">
        <ele>388.90</ele>
        <time>2016-10-15T09:40:00Z</time>
      </trkpt>
      <trkpt lat="42.464840000" lon="-2.462742000">
        <ele>389.00</ele>
        <time>2016-10-15T09:40:01Z</time>
      </trkpt>
      <trkpt lat="42.464800000" lon="-2.462722000">
        <ele>389.10</ele>
        <time>2016-10-15T09:40:02Z</time>
      </trkpt>
      <trkpt lat="42.464758000" lon="-2.462696000">
        <ele>389.10</ele>
        <time>2016-10-15T09:40:03Z</time>
      </trkpt>
      <trkpt lat="42.464715000" lon="-2.462668000">
        <ele>389.10</ele>
        <time>2016-10-15T09:40:04Z</time>
      </trkpt>
      <trkpt lat="42.464675000" lon="-2.462636000">
        <ele>389.20</ele>
        <time>2016-10-15T09:40:05Z</time>
      </trkpt>
      <trkpt lat="42.464637000" lon="-2.462606000">
        <ele>389.30</ele>
        <time>2016-10-15T09:40:06Z</time>
      </trkpt>
      <trkpt lat="42.464596000" lon="-2.462579000">
        <ele>389.40</ele>
        <time>2016-10-15T09:40:07Z</time>
      </trkpt>
      <trkpt lat="42.464557000" lon="-2.462555000">
        <ele>389.50</ele>
        <time>2016-10-15T09:40:08Z</time>
      </trkpt>
      <trkpt lat="42.464517000" lon="-2.462533000">
        <ele>389.60</ele>
        <time>2016-10-15T09:40:09Z</time>
      </trkpt>
      <trkpt lat="42.464481000" lon="-2.462510000">
        <ele>389.60</ele>
        <time>2016-10-15T09:40:10Z</time>
      </trkpt>
      <trkpt lat="42.464448000" lon="-2.462485000">
        <ele>389.70</ele>
        <time>2016-10-15T09:40:11Z</time>
      </trkpt>
      <trkpt lat="42.464412000" lon="-2.462458000">
        <ele>389.70</ele>
        <time>2016-10-15T09:40:12Z</time>
      </trkpt>
      <trkpt lat="42.464375000" lon="-2.462434000">
        <ele>389.70</ele>
        <time>2016-10-15T09:40:13Z</time>
      </trkpt>
      <trkpt lat="42.464340000" lon="-2.462408000">
        <ele>389.70</ele>
        <time>2016-10-15T09:40:14Z</time>
      </trkpt>
      <trkpt lat="42.464304000" lon="-2.462384000">
        <ele>389.70</ele>
        <time>2016-10-15T09:40:15Z</time>
      </trkpt>
      <trkpt lat="42.464269000" lon="-2.462364000">
        <ele>389.80</ele>
        <time>2016-10-15T09:40:16Z</time>
      </trkpt>
      <trkpt lat="42.464235000" lon="-2.462342000">
        <ele>389.90</ele>
        <time>2016-10-15T09:40:17Z</time>
      </trkpt>
      <trkpt lat="42.464204000" lon="-2.462324000">
        <ele>390.00</ele>
        <time>2016-10-15T09:40:18Z</time>
      </trkpt>
      <trkpt lat="42.464170000" lon="-2.462304000">
        <ele>390.00</ele>
        <time>2016-10-15T09:40:19Z</time>
      </trkpt>
      <trkpt lat="42.464139000" lon="-2.462283000">
        <ele>390.10</ele>
        <time>2016-10-15T09:40:20Z</time>
      </trkpt>
      <trkpt lat="42.464109000" lon="-2.462262000">
        <ele>390.10</ele>
        <time>2016-10-15T09:40:21Z</time>
      </trkpt>
      <trkpt lat="42.464076000" lon="-2.462247000">
        <ele>390.20</ele>
        <time>2016-10-15T09:40:22Z</time>
      </trkpt>
      <trkpt lat="42.464045000" lon="-2.462231000">
        <ele>390.30</ele>
        <time>2016-10-15T09:40:23Z</time>
      </trkpt>
      <trkpt lat="42.464018000" lon="-2.462213000">
        <ele>390.70</ele>
        <time>2016-10-15T09:40:24Z</time>
      </trkpt>
      <trkpt lat="42.463990000" lon="-2.462198000">
        <ele>391.00</ele>
        <time>2016-10-15T09:40:25Z</time>
      </trkpt>
      <trkpt lat="42.463961000" lon="-2.462181000">
        <ele>391.20</ele>
        <time>2016-10-15T09:40:26Z</time>
      </trkpt>
      <trkpt lat="42.463932000" lon="-2.462160000">
        <ele>391.40</ele>
        <time>2016-10-15T09:40:27Z</time>
      </trkpt>
      <trkpt lat="42.463903000" lon="-2.462145000">
        <ele>391.60</ele>
        <time>2016-10-15T09:40:28Z</time>
      </trkpt>
      <trkpt lat="42.463872000" lon="-2.462132000">
        <ele>391.80</ele>
        <time>2016-10-15T09:40:29Z</time>
      </trkpt>
      <trkpt lat="42.463845000" lon="-2.462113000">
        <ele>391.90</ele>
        <time>2016-10-15T09:40:30Z</time>
      </trkpt>
      <trkpt lat="42.463817000" lon="-2.462098000">
        <ele>392.00</ele>
        <time>2016-10-15T09:40:31Z</time>
      </trkpt>
      <trkpt lat="42.463793000" lon="-2.462082000">
        <ele>392.20</ele>
        <time>2016-10-15T09:40:32Z</time>
      </trkpt>
      <trkpt lat="42.463769000" lon="-2.462069000">
        <ele>392.30</ele>
        <time>2016-10-15T09:40:33Z</time>
      </trkpt>
      <trkpt lat="42.463746000" lon="-2.462072000">
        <ele>392.40</ele>
        <time>2016-10-15T09:40:34Z</time>
      </trkpt>
      <trkpt lat="42.463723000" lon="-2.462072000">
        <ele>392.50</ele>
        <time>2016-10-15T09:40:35Z</time>
      </trkpt>
      <trkpt lat="42.463704000" lon="-2.462068000">
        <ele>392.70</ele>
        <time>2016-10-15T09:40:36Z</time>
      </trkpt>
      <trkpt lat="42.463681000" lon="-2.462064000">
        <ele>392.80</ele>
        <time>2016-10-15T09:40:37Z</time>
      </trkpt>
      <trkpt lat="42.463645000" lon="-2.462077000">
        <ele>392.90</ele>
        <time>2016-10-15T09:40:38Z</time>
      </trkpt>
      <trkpt lat="42.463591000" lon="-2.462116000">
        <ele>392.90</ele>
        <time>2016-10-15T09:40:39Z</time>
      </trkpt>
      <trkpt lat="42.463526000" lon="-2.462167000">
        <ele>393.10</ele>
        <time>2016-10-15T09:40:40Z</time>
      </trkpt>
      <trkpt lat="42.463464000" lon="-2.462187000">
        <ele>393.10</ele>
        <time>2016-10-15T09:40:41Z</time>
      </trkpt>
      <trkpt lat="42.463372000" lon="-2.462131000">
        <ele>393.20</ele>
        <time>2016-10-15T09:40:43Z</time>
      </trkpt>
      <trkpt lat="42.463337000" lon="-2.462089000">
        <ele>393.50</ele>
        <time>2016-10-15T09:40:44Z</time>
      </trkpt>
      <trkpt lat="42.463303000" lon="-2.462050000">
        <ele>393.80</ele>
        <time>2016-10-15T09:40:45Z</time>
      </trkpt>
      <trkpt lat="42.463265000" lon="-2.462016000">
        <ele>393.90</ele>
        <time>2016-10-15T09:40:46Z</time>
      </trkpt>
      <trkpt lat="42.463222000" lon="-2.461994000">
        <ele>394.10</ele>
        <time>2016-10-15T09:40:47Z</time>
      </trkpt>
      <trkpt lat="42.463143000" lon="-2.462006000">
        <ele>394.20</ele>
        <time>2016-10-15T09:40:48Z</time>
      </trkpt>
      <trkpt lat="42.463091000" lon="-2.462010000">
        <ele>394.30</ele>
        <time>2016-10-15T09:40:49Z</time>
      </trkpt>
      <trkpt lat="42.463049000" lon="-2.462001000">
        <ele>394.40</ele>
        <time>2016-10-15T09:40:50Z</time>
      </trkpt>
      <trkpt lat="42.463009000" lon="-2.461990000">
        <ele>394.40</ele>
        <time>2016-10-15T09:40:51Z</time>
      </trkpt>
      <trkpt lat="42.462972000" lon="-2.461977000">
        <ele>394.50</ele>
        <time>2016-10-15T09:40:52Z</time>
      </trkpt>
      <trkpt lat="42.462932000" lon="-2.461962000">
        <ele>394.60</ele>
        <time>2016-10-15T09:40:53Z</time>
      </trkpt>
      <trkpt lat="42.462894000" lon="-2.461948000">
        <ele>394.40</ele>
        <time>2016-10-15T09:40:54Z</time>
      </trkpt>
      <trkpt lat="42.462854000" lon="-2.461930000">
        <ele>394.30</ele>
        <time>2016-10-15T09:40:55Z</time>
      </trkpt>
      <trkpt lat="42.462811000" lon="-2.461908000">
        <ele>394.50</ele>
        <time>2016-10-15T09:40:56Z</time>
      </trkpt>
      <trkpt lat="42.462767000" lon="-2.461892000">
        <ele>394.60</ele>
        <time>2016-10-15T09:40:57Z</time>
      </trkpt>
      <trkpt lat="42.462727000" lon="-2.461872000">
        <ele>394.70</ele>
        <time>2016-10-15T09:40:58Z</time>
      </trkpt>
      <trkpt lat="42.462688000" lon="-2.461845000">
        <ele>394.70</ele>
        <time>2016-10-15T09:40:59Z</time>
      </trkpt>
      <trkpt lat="42.462645000" lon="-2.461829000">
        <ele>394.80</ele>
        <time>2016-10-15T09:41:00Z</time>
      </trkpt>
      <trkpt lat="42.462600000" lon="-2.461814000">
        <ele>394.80</ele>
        <time>2016-10-15T09:41:01Z</time>
      </trkpt>
      <trkpt lat="42.462565000" lon="-2.461788000">
        <ele>394.90</ele>
        <time>2016-10-15T09:41:02Z</time>
      </trkpt>
      <trkpt lat="42.462527000" lon="-2.461764000">
        <ele>394.90</ele>
        <time>2016-10-15T09:41:03Z</time>
      </trkpt>
      <trkpt lat="42.462491000" lon="-2.461740000">
        <ele>394.80</ele>
        <time>2016-10-15T09:41:04Z</time>
      </trkpt>
      <trkpt lat="42.462451000" lon="-2.461721000">
        <ele>394.70</ele>
        <time>2016-10-15T09:41:05Z</time>
      </trkpt>
      <trkpt lat="42.462410000" lon="-2.461708000">
        <ele>394.80</ele>
        <time>2016-10-15T09:41:06Z</time>
      </trkpt>
      <trkpt lat="42.462373000" lon="-2.461698000">
        <ele>394.90</ele>
        <time>2016-10-15T09:41:07Z</time>
      </trkpt>
      <trkpt lat="42.462327000" lon="-2.461702000">
        <ele>394.90</ele>
        <time>2016-10-15T09:41:08Z</time>
      </trkpt>
      <trkpt lat="42.462284000" lon="-2.461697000">
        <ele>394.90</ele>
        <time>2016-10-15T09:41:09Z</time>
      </trkpt>
      <trkpt lat="42.462249000" lon="-2.461687000">
        <ele>394.90</ele>
        <time>2016-10-15T09:41:10Z</time>
      </trkpt>
      <trkpt lat="42.462215000" lon="-2.461674000">
        <ele>394.90</ele>
        <time>2016-10-15T09:41:11Z</time>
      </trkpt>
      <trkpt lat="42.462179000" lon="-2.461666000">
        <ele>394.90</ele>
        <time>2016-10-15T09:41:12Z</time>
      </trkpt>
      <trkpt lat="42.462140000" lon="-2.461654000">
        <ele>394.90</ele>
        <time>2016-10-15T09:41:13Z</time>
      </trkpt>
      <trkpt lat="42.462105000" lon="-2.461638000">
        <ele>394.90</ele>
        <time>2016-10-15T09:41:14Z</time>
      </trkpt>
      <trkpt lat="42.462070000" lon="-2.461624000">
        <ele>395.00</ele>
        <time>2016-10-15T09:41:15Z</time>
      </trkpt>
      <trkpt lat="42.462034000" lon="-2.461610000">
        <ele>395.00</ele>
        <time>2016-10-15T09:41:16Z</time>
      </trkpt>
      <trkpt lat="42.461997000" lon="-2.461596000">
        <ele>395.10</ele>
        <time>2016-10-15T09:41:17Z</time>
      </trkpt>
      <trkpt lat="42.461958000" lon="-2.461585000">
        <ele>395.10</ele>
        <time>2016-10-15T09:41:18Z</time>
      </trkpt>
      <trkpt lat="42.461917000" lon="-2.461580000">
        <ele>395.30</ele>
        <time>2016-10-15T09:41:19Z</time>
      </trkpt>
      <trkpt lat="42.461878000" lon="-2.461576000">
        <ele>395.50</ele>
        <time>2016-10-15T09:41:20Z</time>
      </trkpt>
      <trkpt lat="42.461844000" lon="-2.461562000">
        <ele>395.60</ele>
        <time>2016-10-15T09:41:21Z</time>
      </trkpt>
      <trkpt lat="42.461810000" lon="-2.461547000">
        <ele>395.70</ele>
        <time>2016-10-15T09:41:22Z</time>
      </trkpt>
      <trkpt lat="42.461774000" lon="-2.461529000">
        <ele>395.80</ele>
        <time>2016-10-15T09:41:23Z</time>
      </trkpt>
      <trkpt lat="42.461739000" lon="-2.461510000">
        <ele>395.80</ele>
        <time>2016-10-15T09:41:24Z</time>
      </trkpt>
      <trkpt lat="42.461709000" lon="-2.461488000">
        <ele>395.80</ele>
        <time>2016-10-15T09:41:25Z</time>
      </trkpt>
      <trkpt lat="42.461685000" lon="-2.461468000">
        <ele>395.80</ele>
        <time>2016-10-15T09:41:26Z</time>
      </trkpt>
      <trkpt lat="42.461656000" lon="-2.461451000">
        <ele>396.00</ele>
        <time>2016-10-15T09:41:27Z</time>
      </trkpt>
      <trkpt lat="42.461626000" lon="-2.461440000">
        <ele>396.10</ele>
        <time>2016-10-15T09:41:28Z</time>
      </trkpt>
      <trkpt lat="42.461592000" lon="-2.461424000">
        <ele>396.10</ele>
        <time>2016-10-15T09:41:29Z</time>
      </trkpt>
      <trkpt lat="42.461560000" lon="-2.461413000">
        <ele>396.20</ele>
        <time>2016-10-15T09:41:30Z</time>
      </trkpt>
      <trkpt lat="42.461530000" lon="-2.461400000">
        <ele>396.20</ele>
        <time>2016-10-15T09:41:31Z</time>
      </trkpt>
      <trkpt lat="42.461500000" lon="-2.461389000">
        <ele>396.30</ele>
        <time>2016-10-15T09:41:32Z</time>
      </trkpt>
      <trkpt lat="42.461471000" lon="-2.461381000">
        <ele>396.50</ele>
        <time>2016-10-15T09:41:33Z</time>
      </trkpt>
      <trkpt lat="42.461437000" lon="-2.461371000">
        <ele>396.70</ele>
        <time>2016-10-15T09:41:34Z</time>
      </trkpt>
      <trkpt lat="42.461403000" lon="-2.461353000">
        <ele>396.90</ele>
        <time>2016-10-15T09:41:35Z</time>
      </trkpt>
      <trkpt lat="42.461368000" lon="-2.461336000">
        <ele>397.00</ele>
        <time>2016-10-15T09:41:36Z</time>
      </trkpt>
      <trkpt lat="42.461332000" lon="-2.461320000">
        <ele>397.00</ele>
        <time>2016-10-15T09:41:37Z</time>
      </trkpt>
      <trkpt lat="42.461301000" lon="-2.461296000">
        <ele>397.10</ele>
        <time>2016-10-15T09:41:38Z</time>
      </trkpt>
      <trkpt lat="42.461273000" lon="-2.461274000">
        <ele>397.20</ele>
        <time>2016-10-15T09:41:39Z</time>
      </trkpt>
      <trkpt lat="42.461242000" lon="-2.461251000">
        <ele>397.30</ele>
        <time>2016-10-15T09:41:40Z</time>
      </trkpt>
      <trkpt lat="42.461215000" lon="-2.461228000">
        <ele>397.40</ele>
        <time>2016-10-15T09:41:41Z</time>
      </trkpt>
      <trkpt lat="42.461192000" lon="-2.461198000">
        <ele>397.40</ele>
        <time>2016-10-15T09:41:42Z</time>
      </trkpt>
      <trkpt lat="42.461144000" lon="-2.461165000">
        <ele>397.50</ele>
        <time>2016-10-15T09:41:44Z</time>
      </trkpt>
      <trkpt lat="42.461124000" lon="-2.461172000">
        <ele>397.60</ele>
        <time>2016-10-15T09:41:45Z</time>
      </trkpt>
      <trkpt lat="42.461104000" lon="-2.461194000">
        <ele>397.60</ele>
        <time>2016-10-15T09:41:46Z</time>
      </trkpt>
      <trkpt lat="42.461088000" lon="-2.461223000">
        <ele>397.90</ele>
        <time>2016-10-15T09:41:47Z</time>
      </trkpt>
      <trkpt lat="42.461071000" lon="-2.461260000">
        <ele>398.10</ele>
        <time>2016-10-15T09:41:48Z</time>
      </trkpt>
      <trkpt lat="42.461058000" lon="-2.461298000">
        <ele>398.30</ele>
        <time>2016-10-15T09:41:49Z</time>
      </trkpt>
      <trkpt lat="42.461045000" lon="-2.461338000">
        <ele>398.40</ele>
        <time>2016-10-15T09:41:50Z</time>
      </trkpt>
      <trkpt lat="42.461032000" lon="-2.461379000">
        <ele>398.60</ele>
        <time>2016-10-15T09:41:51Z</time>
      </trkpt>
      <trkpt lat="42.461019000" lon="-2.461418000">
        <ele>398.60</ele>
        <time>2016-10-15T09:41:52Z</time>
      </trkpt>
      <trkpt lat="42.461002000" lon="-2.461455000">
        <ele>398.70</ele>
        <time>2016-10-15T09:41:53Z</time>
      </trkpt>
      <trkpt lat="42.460982000" lon="-2.461479000">
        <ele>398.80</ele>
        <time>2016-10-15T09:41:54Z</time>
      </trkpt>
      <trkpt lat="42.460965000" lon="-2.461505000">
        <ele>398.70</ele>
        <time>2016-10-15T09:41:55Z</time>
      </trkpt>
      <trkpt lat="42.460941000" lon="-2.461536000">
        <ele>398.70</ele>
        <time>2016-10-15T09:41:56Z</time>
      </trkpt>
      <trkpt lat="42.460917000" lon="-2.461570000">
        <ele>398.70</ele>
        <time>2016-10-15T09:41:57Z</time>
      </trkpt>
      <trkpt lat="42.460899000" lon="-2.461604000">
        <ele>398.70</ele>
        <time>2016-10-15T09:41:58Z</time>
      </trkpt>
      <trkpt lat="42.460873000" lon="-2.461632000">
        <ele>398.70</ele>
        <time>2016-10-15T09:41:59Z</time>
      </trkpt>
      <trkpt lat="42.460848000" lon="-2.461663000">
        <ele>398.80</ele>
        <time>2016-10-15T09:42:00Z</time>
      </trkpt>
      <trkpt lat="42.460829000" lon="-2.461687000">
        <ele>398.90</ele>
        <time>2016-10-15T09:42:01Z</time>
      </trkpt>
      <trkpt lat="42.460806000" lon="-2.461717000">
        <ele>399.00</ele>
        <time>2016-10-15T09:42:02Z</time>
      </trkpt>
      <trkpt lat="42.460781000" lon="-2.461756000">
        <ele>399.10</ele>
        <time>2016-10-15T09:42:03Z</time>
      </trkpt>
      <trkpt lat="42.460755000" lon="-2.461780000">
        <ele>399.30</ele>
        <time>2016-10-15T09:42:04Z</time>
      </trkpt>
      <trkpt lat="42.460734000" lon="-2.461805000">
        <ele>399.40</ele>
        <time>2016-10-15T09:42:05Z</time>
      </trkpt>
      <trkpt lat="42.460716000" lon="-2.461830000">
        <ele>399.50</ele>
        <time>2016-10-15T09:42:06Z</time>
      </trkpt>
      <trkpt lat="42.460700000" lon="-2.461854000">
        <ele>399.50</ele>
        <time>2016-10-15T09:42:07Z</time>
      </trkpt>
      <trkpt lat="42.460683000" lon="-2.461878000">
        <ele>399.60</ele>
        <time>2016-10-15T09:42:08Z</time>
      </trkpt>
      <trkpt lat="42.460661000" lon="-2.461898000">
        <ele>399.60</ele>
        <time>2016-10-15T09:42:09Z</time>
      </trkpt>
      <trkpt lat="42.460639000" lon="-2.461923000">
        <ele>399.60</ele>
        <time>2016-10-15T09:42:10Z</time>
      </trkpt>
      <trkpt lat="42.460621000" lon="-2.461952000">
        <ele>399.60</ele>
        <time>2016-10-15T09:42:11Z</time>
      </trkpt>
      <trkpt lat="42.460603000" lon="-2.461981000">
        <ele>399.70</ele>
        <time>2016-10-15T09:42:12Z</time>
      </trkpt>
      <trkpt lat="42.460584000" lon="-2.462008000">
        <ele>399.80</ele>
        <time>2016-10-15T09:42:13Z</time>
      </trkpt>
      <trkpt lat="42.460557000" lon="-2.462034000">
        <ele>399.90</ele>
        <time>2016-10-15T09:42:14Z</time>
      </trkpt>
      <trkpt lat="42.460526000" lon="-2.462048000">
        <ele>400.00</ele>
        <time>2016-10-15T09:42:15Z</time>
      </trkpt>
      <trkpt lat="42.460499000" lon="-2.462044000">
        <ele>400.00</ele>
        <time>2016-10-15T09:42:16Z</time>
      </trkpt>
      <trkpt lat="42.460476000" lon="-2.462035000">
        <ele>400.00</ele>
        <time>2016-10-15T09:42:17Z</time>
      </trkpt>
      <trkpt lat="42.460451000" lon="-2.462024000">
        <ele>400.00</ele>
        <time>2016-10-15T09:42:18Z</time>
      </trkpt>
      <trkpt lat="42.460436000" lon="-2.462010000">
        <ele>400.00</ele>
        <time>2016-10-15T09:42:19Z</time>
      </trkpt>
      <trkpt lat="42.460422000" lon="-2.462002000">
        <ele>399.90</ele>
        <time>2016-10-15T09:42:20Z</time>
      </trkpt>
      <trkpt lat="42.460404000" lon="-2.461993000">
        <ele>399.90</ele>
        <time>2016-10-15T09:42:21Z</time>
      </trkpt>
      <trkpt lat="42.460389000" lon="-2.461993000">
        <ele>399.90</ele>
        <time>2016-10-15T09:42:22Z</time>
      </trkpt>
      <trkpt lat="42.460379000" lon="-2.461998000">
        <ele>399.80</ele>
        <time>2016-10-15T09:42:23Z</time>
      </trkpt>
      <trkpt lat="42.460367000" lon="-2.462002000">
        <ele>399.80</ele>
        <time>2016-10-15T09:42:24Z</time>
      </trkpt>
      <trkpt lat="42.460352000" lon="-2.462018000">
        <ele>399.70</ele>
        <time>2016-10-15T09:42:25Z</time>
      </trkpt>
      <trkpt lat="42.460328000" lon="-2.462046000">
        <ele>399.60</ele>
        <time>2016-10-15T09:42:26Z</time>
      </trkpt>
      <trkpt lat="42.460311000" lon="-2.462081000">
        <ele>399.60</ele>
        <time>2016-10-15T09:42:27Z</time>
      </trkpt>
      <trkpt lat="42.460296000" lon="-2.462111000">
        <ele>399.60</ele>
        <time>2016-10-15T09:42:28Z</time>
      </trkpt>
      <trkpt lat="42.460279000" lon="-2.462138000">
        <ele>399.50</ele>
        <time>2016-10-15T09:42:29Z</time>
      </trkpt>
      <trkpt lat="42.460262000" lon="-2.462160000">
        <ele>399.40</ele>
        <time>2016-10-15T09:42:30Z</time>
      </trkpt>
      <trkpt lat="42.460250000" lon="-2.462182000">
        <ele>399.40</ele>
        <time>2016-10-15T09:42:31Z</time>
      </trkpt>
      <trkpt lat="42.460239000" lon="-2.462205000">
        <ele>399.40</ele>
        <time>2016-10-15T09:42:32Z</time>
      </trkpt>
      <trkpt lat="42.460226000" lon="-2.462226000">
        <ele>399.40</ele>
        <time>2016-10-15T09:42:33Z</time>
      </trkpt>
      <trkpt lat="42.460214000" lon="-2.462246000">
        <ele>399.40</ele>
        <time>2016-10-15T09:42:34Z</time>
      </trkpt>
      <trkpt lat="42.460199000" lon="-2.462268000">
        <ele>399.40</ele>
        <time>2016-10-15T09:42:35Z</time>
      </trkpt>
      <trkpt lat="42.460189000" lon="-2.462292000">
        <ele>399.40</ele>
        <time>2016-10-15T09:42:36Z</time>
      </trkpt>
      <trkpt lat="42.460195000" lon="-2.462317000">
        <ele>399.40</ele>
        <time>2016-10-15T09:42:37Z</time>
      </trkpt>
      <trkpt lat="42.460201000" lon="-2.462343000">
        <ele>399.50</ele>
        <time>2016-10-15T09:42:38Z</time>
      </trkpt>
      <trkpt lat="42.460211000" lon="-2.462369000">
        <ele>399.40</ele>
        <time>2016-10-15T09:42:39Z</time>
      </trkpt>
      <trkpt lat="42.460220000" lon="-2.462396000">
        <ele>399.40</ele>
        <time>2016-10-15T09:42:40Z</time>
      </trkpt>
      <trkpt lat="42.460228000" lon="-2.462425000">
        <ele>399.40</ele>
        <time>2016-10-15T09:42:41Z</time>
      </trkpt>
      <trkpt lat="42.460238000" lon="-2.462455000">
        <ele>399.40</ele>
        <time>2016-10-15T09:42:42Z</time>
      </trkpt>
      <trkpt lat="42.460251000" lon="-2.462492000">
        <ele>399.30</ele>
        <time>2016-10-15T09:42:43Z</time>
      </trkpt>
      <trkpt lat="42.460283000" lon="-2.462559000">
        <ele>399.20</ele>
        <time>2016-10-15T09:42:45Z</time>
      </trkpt>
      <trkpt lat="42.460299000" lon="-2.462594000">
        <ele>399.20</ele>
        <time>2016-10-15T09:42:46Z</time>
      </trkpt>
      <trkpt lat="42.460312000" lon="-2.462629000">
        <ele>399.40</ele>
        <time>2016-10-15T09:42:47Z</time>
      </trkpt>
      <trkpt lat="42.460324000" lon="-2.462662000">
        <ele>399.50</ele>
        <time>2016-10-15T09:42:48Z</time>
      </trkpt>
      <trkpt lat="42.460335000" lon="-2.462695000">
        <ele>399.60</ele>
        <time>2016-10-15T09:42:49Z</time>
      </trkpt>
      <trkpt lat="42.460349000" lon="-2.462731000">
        <ele>399.70</ele>
        <time>2016-10-15T09:42:50Z</time>
      </trkpt>
      <trkpt lat="42.460364000" lon="-2.462765000">
        <ele>399.70</ele>
        <time>2016-10-15T09:42:51Z</time>
      </trkpt>
      <trkpt lat="42.460381000" lon="-2.462800000">
        <ele>399.70</ele>
        <time>2016-10-15T09:42:52Z</time>
      </trkpt>
      <trkpt lat="42.460398000" lon="-2.462835000">
        <ele>399.80</ele>
        <time>2016-10-15T09:42:53Z</time>
      </trkpt>
      <trkpt lat="42.460410000" lon="-2.462868000">
        <ele>399.80</ele>
        <time>2016-10-15T09:42:54Z</time>
      </trkpt>
      <trkpt lat="42.460423000" lon="-2.462903000">
        <ele>399.80</ele>
        <time>2016-10-15T09:42:55Z</time>
      </trkpt>
      <trkpt lat="42.460435000" lon="-2.462936000">
        <ele>399.70</ele>
        <time>2016-10-15T09:42:56Z</time>
      </trkpt>
      <trkpt lat="42.460449000" lon="-2.462974000">
        <ele>399.60</ele>
        <time>2016-10-15T09:42:57Z</time>
      </trkpt>
      <trkpt lat="42.460464000" lon="-2.463008000">
        <ele>399.60</ele>
        <time>2016-10-15T09:42:58Z</time>
      </trkpt>
      <trkpt lat="42.460481000" lon="-2.463046000">
        <ele>399.40</ele>
        <time>2016-10-15T09:42:59Z</time>
      </trkpt>
      <trkpt lat="42.460495000" lon="-2.463083000">
        <ele>399.20</ele>
        <time>2016-10-15T09:43:00Z</time>
      </trkpt>
      <trkpt lat="42.460508000" lon="-2.463121000">
        <ele>399.10</ele>
        <time>2016-10-15T09:43:01Z</time>
      </trkpt>
      <trkpt lat="42.460523000" lon="-2.463159000">
        <ele>399.10</ele>
        <time>2016-10-15T09:43:02Z</time>
      </trkpt>
      <trkpt lat="42.460535000" lon="-2.463202000">
        <ele>399.30</ele>
        <time>2016-10-15T09:43:03Z</time>
      </trkpt>
      <trkpt lat="42.460550000" lon="-2.463239000">
        <ele>399.40</ele>
        <time>2016-10-15T09:43:04Z</time>
      </trkpt>
      <trkpt lat="42.460572000" lon="-2.463283000">
        <ele>399.50</ele>
        <time>2016-10-15T09:43:05Z</time>
      </trkpt>
      <trkpt lat="42.460593000" lon="-2.463331000">
        <ele>399.60</ele>
        <time>2016-10-15T09:43:06Z</time>
      </trkpt>
      <trkpt lat="42.460617000" lon="-2.463386000">
        <ele>399.50</ele>
        <time>2016-10-15T09:43:07Z</time>
      </trkpt>
      <trkpt lat="42.460641000" lon="-2.463440000">
        <ele>399.50</ele>
        <time>2016-10-15T09:43:08Z</time>
      </trkpt>
      <trkpt lat="42.460657000" lon="-2.463500000">
        <ele>399.30</ele>
        <time>2016-10-15T09:43:09Z</time>
      </trkpt>
      <trkpt lat="42.460676000" lon="-2.463555000">
        <ele>399.20</ele>
        <time>2016-10-15T09:43:10Z</time>
      </trkpt>
      <trkpt lat="42.460697000" lon="-2.463594000">
        <ele>399.20</ele>
        <time>2016-10-15T09:43:11Z</time>
      </trkpt>
      <trkpt lat="42.460720000" lon="-2.463619000">
        <ele>399.30</ele>
        <time>2016-10-15T09:43:12Z</time>
      </trkpt>
      <trkpt lat="42.460746000" lon="-2.463633000">
        <ele>399.20</ele>
        <time>2016-10-15T09:43:13Z</time>
      </trkpt>
      <trkpt lat="42.460773000" lon="-2.463645000">
        <ele>399.10</ele>
        <time>2016-10-15T09:43:14Z</time>
      </trkpt>
      <trkpt lat="42.460801000" lon="-2.463653000">
        <ele>399.10</ele>
        <time>2016-10-15T09:43:15Z</time>
      </trkpt>
      <trkpt lat="42.460829000" lon="-2.463665000">
        <ele>399.20</ele>
        <time>2016-10-15T09:43:16Z</time>
      </trkpt>
      <trkpt lat="42.460856000" lon="-2.463684000">
        <ele>399.60</ele>
        <time>2016-10-15T09:43:17Z</time>
      </trkpt>
      <trkpt lat="42.460880000" lon="-2.463695000">
        <ele>399.90</ele>
        <time>2016-10-15T09:43:18Z</time>
      </trkpt>
      <trkpt lat="42.460901000" lon="-2.463709000">
        <ele>400.10</ele>
        <time>2016-10-15T09:43:19Z</time>
      </trkpt>
      <trkpt lat="42.460918000" lon="-2.463716000">
        <ele>400.30</ele>
        <time>2016-10-15T09:43:20Z</time>
      </trkpt>
      <trkpt lat="42.460935000" lon="-2.463723000">
        <ele>400.40</ele>
        <time>2016-10-15T09:43:21Z</time>
      </trkpt>
      <trkpt lat="42.460957000" lon="-2.463731000">
        <ele>400.50</ele>
        <time>2016-10-15T09:43:22Z</time>
      </trkpt>
      <trkpt lat="42.460982000" lon="-2.463739000">
        <ele>400.30</ele>
        <time>2016-10-15T09:43:23Z</time>
      </trkpt>
      <trkpt lat="42.461001000" lon="-2.463757000">
        <ele>400.20</ele>
        <time>2016-10-15T09:43:24Z</time>
      </trkpt>
      <trkpt lat="42.461014000" lon="-2.463792000">
        <ele>400.30</ele>
        <time>2016-10-15T09:43:25Z</time>
      </trkpt>
      <trkpt lat="42.461017000" lon="-2.463824000">
        <ele>400.40</ele>
        <time>2016-10-15T09:43:26Z</time>
      </trkpt>
      <trkpt lat="42.461014000" lon="-2.463851000">
        <ele>400.50</ele>
        <time>2016-10-15T09:43:27Z</time>
      </trkpt>
      <trkpt lat="42.461009000" lon="-2.463871000">
        <ele>400.60</ele>
        <time>2016-10-15T09:43:28Z</time>
      </trkpt>
      <trkpt lat="42.461004000" lon="-2.463891000">
        <ele>400.70</ele>
        <time>2016-10-15T09:43:29Z</time>
      </trkpt>
      <trkpt lat="42.461001000" lon="-2.463913000">
        <ele>400.80</ele>
        <time>2016-10-15T09:43:30Z</time>
      </trkpt>
      <trkpt lat="42.460997000" lon="-2.463929000">
        <ele>400.90</ele>
        <time>2016-10-15T09:43:31Z</time>
      </trkpt>
      <trkpt lat="42.460990000" lon="-2.463947000">
        <ele>401.00</ele>
        <time>2016-10-15T09:43:32Z</time>
      </trkpt>
      <trkpt lat="42.460978000" lon="-2.463964000">
        <ele>401.20</ele>
        <time>2016-10-15T09:43:33Z</time>
      </trkpt>
      <trkpt lat="42.460978000" lon="-2.463964000">
        <ele>401.20</ele>
        <time>2016-10-15T09:43:33Z</time>
      </trkpt>
    </trkseg>
  </trk>
</gpx>
